<?xml version="1.0" encoding="UTF-8" standalone="no" ?>
<gpx xmlns="http://www.topografix.com/GPX/1/1" xmlns:xsi="http://www.w3.org/2001/XMLSchema-instance" xsi:schemaLocation="http://www.topografix.com/GPX/1/1 http://www.topografix.com/GPX/1/1/gpx.xsd" version="1.1" creator="VisuGPX - https://www.visugpx.com">
  <metadata>
    <name>Tour dans les Alpes du Sud J2 2018-08-26</name>
    <desc><![CDATA[Magnifique Weekend dans les Alpes du sud avec retour par le Col d'Allos]]></desc>
  </metadata>
  <wpt lat="44.09082" lon="6.96729">
    <ele>1550.31</ele>
    <name><![CDATA[0000230]]></name>
    <type><![CDATA[Point de départ]]></type>
  </wpt>
  <wpt lat="45.20106" lon="5.71786">
    <ele>226.05</ele>
    <name><![CDATA[0000231]]></name>
    <desc><![CDATA[<p><br /><h3>Nom: Segment: 1</h3><br />Heure de départ: 08/26/2018 09:10<br/>Heure d'arrivée: 08/26/2018 17:07<br/>Distance: 308,5km (07:56)<br/>Temps déplacement: 05:05<br/>Vitesse moyenne: 38,82 km/h<br/>Vitesse moyenne mouv.: 57,99 km/h<br/>Vitesse Max.: 133,36 km/h<br/>Altitude minimale: 208 m<br/>Altitude maximale: 2237 m<br/>Vitesse de montée: 1357,9 m/h<br/>Vitesse de descente: -2470,7 m/h<br/>Gain d'altitude: 6050 m<br/>Perte d'altitude: -7368 m<br/>Temps de montée: 04:27<br/>Temps de descente: 02:58<br/></p>]]></desc>
    <type><![CDATA[Point d'arrivée]]></type>
  </wpt>
  <trk>
    <name><![CDATA[2018-08-26 09:10]]></name>
    <desc><![CDATA[<p>Heure de départ: 08/26/2018 09:10<br/>Heure d'arrivée: 08/26/2018 17:07<br/>Distance: 308,5 km (07:56)<br/>Temps déplacement: 05:05<br/>Vitesse moyenne: 38,82 km/h<br/>Vitesse moyenne mouv.: 60,56 km/h<br/>Vitesse Max.: 133,36 km/h<br/>Altitude minimale: 208 m<br/>Altitude maximale: 2237 m<br/>Vitesse de montée: 1273,4 m/h<br/>Vitesse de descente: -2002 m/h<br/>Gain d'altitude: 5581 m<br/>Perte d'altitude: -6915 m<br/>Temps de montée: 04:22<br/>Temps de descente: 03:27<br/></p><hr align="center" width="480" style="height: 2px; width: 517px"/>]]></desc>
    <trkseg>
      <trkpt lat="44.09082" lon="6.96729">
        <ele>1550.31</ele>
        <time>2018-08-26T07:10:37Z</time>
      </trkpt>
      <trkpt lat="44.09068" lon="6.96711">
        <ele>1559.22</ele>
        <time>2018-08-26T07:21:47Z</time>
      </trkpt>
      <trkpt lat="44.09058" lon="6.96684">
        <ele>1560.25</ele>
        <time>2018-08-26T07:21:51Z</time>
      </trkpt>
      <trkpt lat="44.09048" lon="6.9666">
        <ele>1558.93</ele>
        <time>2018-08-26T07:21:54Z</time>
      </trkpt>
      <trkpt lat="44.09036" lon="6.96632">
        <ele>1560.44</ele>
        <time>2018-08-26T07:21:57Z</time>
      </trkpt>
      <trkpt lat="44.09024" lon="6.96602">
        <ele>1560.76</ele>
        <time>2018-08-26T07:22:00Z</time>
      </trkpt>
      <trkpt lat="44.09013" lon="6.96578">
        <ele>1560.57</ele>
        <time>2018-08-26T07:22:02Z</time>
      </trkpt>
      <trkpt lat="44.09003" lon="6.96553">
        <ele>1560.55</ele>
        <time>2018-08-26T07:22:04Z</time>
      </trkpt>
      <trkpt lat="44.08994" lon="6.96527">
        <ele>1560.55</ele>
        <time>2018-08-26T07:22:06Z</time>
      </trkpt>
      <trkpt lat="44.08985" lon="6.96499">
        <ele>1561.46</ele>
        <time>2018-08-26T07:22:08Z</time>
      </trkpt>
      <trkpt lat="44.08974" lon="6.96471">
        <ele>1561.54</ele>
        <time>2018-08-26T07:22:10Z</time>
      </trkpt>
      <trkpt lat="44.08961" lon="6.96447">
        <ele>1562.46</ele>
        <time>2018-08-26T07:22:12Z</time>
      </trkpt>
      <trkpt lat="44.08943" lon="6.96431">
        <ele>1560.93</ele>
        <time>2018-08-26T07:22:14Z</time>
      </trkpt>
      <trkpt lat="44.08923" lon="6.96423">
        <ele>1560.58</ele>
        <time>2018-08-26T07:22:16Z</time>
      </trkpt>
      <trkpt lat="44.089" lon="6.96419">
        <ele>1559.64</ele>
        <time>2018-08-26T07:22:18Z</time>
      </trkpt>
      <trkpt lat="44.08876" lon="6.96416">
        <ele>1558.86</ele>
        <time>2018-08-26T07:22:20Z</time>
      </trkpt>
      <trkpt lat="44.08854" lon="6.96412">
        <ele>1557.67</ele>
        <time>2018-08-26T07:22:22Z</time>
      </trkpt>
      <trkpt lat="44.08832" lon="6.96401">
        <ele>1557.56</ele>
        <time>2018-08-26T07:22:24Z</time>
      </trkpt>
      <trkpt lat="44.08819" lon="6.96374">
        <ele>1555.94</ele>
        <time>2018-08-26T07:22:26Z</time>
      </trkpt>
      <trkpt lat="44.08799" lon="6.96354">
        <ele>1554.67</ele>
        <time>2018-08-26T07:22:28Z</time>
      </trkpt>
      <trkpt lat="44.08778" lon="6.96338">
        <ele>1555.26</ele>
        <time>2018-08-26T07:22:30Z</time>
      </trkpt>
      <trkpt lat="44.08754" lon="6.96332">
        <ele>1555.52</ele>
        <time>2018-08-26T07:22:32Z</time>
      </trkpt>
      <trkpt lat="44.08733" lon="6.96343">
        <ele>1554.64</ele>
        <time>2018-08-26T07:22:34Z</time>
      </trkpt>
      <trkpt lat="44.08711" lon="6.96354">
        <ele>1553.86</ele>
        <time>2018-08-26T07:22:36Z</time>
      </trkpt>
      <trkpt lat="44.08688" lon="6.96349">
        <ele>1552.67</ele>
        <time>2018-08-26T07:22:38Z</time>
      </trkpt>
      <trkpt lat="44.08666" lon="6.96331">
        <ele>1550.95</ele>
        <time>2018-08-26T07:22:40Z</time>
      </trkpt>
      <trkpt lat="44.08649" lon="6.96302">
        <ele>1550.58</ele>
        <time>2018-08-26T07:22:42Z</time>
      </trkpt>
      <trkpt lat="44.08634" lon="6.96272">
        <ele>1549.64</ele>
        <time>2018-08-26T07:22:44Z</time>
      </trkpt>
      <trkpt lat="44.08625" lon="6.96239">
        <ele>1550.26</ele>
        <time>2018-08-26T07:22:46Z</time>
      </trkpt>
      <trkpt lat="44.08631" lon="6.96201">
        <ele>1548.7</ele>
        <time>2018-08-26T07:22:48Z</time>
      </trkpt>
      <trkpt lat="44.08631" lon="6.96161">
        <ele>1549.47</ele>
        <time>2018-08-26T07:22:50Z</time>
      </trkpt>
      <trkpt lat="44.08625" lon="6.96122">
        <ele>1548.63</ele>
        <time>2018-08-26T07:22:52Z</time>
      </trkpt>
      <trkpt lat="44.08617" lon="6.96081">
        <ele>1549.47</ele>
        <time>2018-08-26T07:22:54Z</time>
      </trkpt>
      <trkpt lat="44.0861" lon="6.96039">
        <ele>1550.24</ele>
        <time>2018-08-26T07:22:56Z</time>
      </trkpt>
      <trkpt lat="44.08601" lon="6.95999">
        <ele>1549.61</ele>
        <time>2018-08-26T07:22:58Z</time>
      </trkpt>
      <trkpt lat="44.08595" lon="6.95959">
        <ele>1549.76</ele>
        <time>2018-08-26T07:23:00Z</time>
      </trkpt>
      <trkpt lat="44.0859" lon="6.95918">
        <ele>1549.57</ele>
        <time>2018-08-26T07:23:02Z</time>
      </trkpt>
      <trkpt lat="44.08589" lon="6.95875">
        <ele>1549.55</ele>
        <time>2018-08-26T07:23:04Z</time>
      </trkpt>
      <trkpt lat="44.0859" lon="6.95831">
        <ele>1549.76</ele>
        <time>2018-08-26T07:23:06Z</time>
      </trkpt>
      <trkpt lat="44.08589" lon="6.95788">
        <ele>1549.57</ele>
        <time>2018-08-26T07:23:08Z</time>
      </trkpt>
      <trkpt lat="44.08587" lon="6.95747">
        <ele>1548.85</ele>
        <time>2018-08-26T07:23:10Z</time>
      </trkpt>
      <trkpt lat="44.08583" lon="6.95708">
        <ele>1549.28</ele>
        <time>2018-08-26T07:23:12Z</time>
      </trkpt>
      <trkpt lat="44.0858" lon="6.95671">
        <ele>1549.52</ele>
        <time>2018-08-26T07:23:14Z</time>
      </trkpt>
      <trkpt lat="44.08587" lon="6.95637">
        <ele>1549.55</ele>
        <time>2018-08-26T07:23:16Z</time>
      </trkpt>
      <trkpt lat="44.08602" lon="6.95604">
        <ele>1550.25</ele>
        <time>2018-08-26T07:23:18Z</time>
      </trkpt>
      <trkpt lat="44.08622" lon="6.95574">
        <ele>1550.03</ele>
        <time>2018-08-26T07:23:20Z</time>
      </trkpt>
      <trkpt lat="44.0865" lon="6.95546">
        <ele>1549.59</ele>
        <time>2018-08-26T07:23:22Z</time>
      </trkpt>
      <trkpt lat="44.08664" lon="6.9553">
        <ele>1550.26</ele>
        <time>2018-08-26T07:23:23Z</time>
      </trkpt>
      <trkpt lat="44.08691" lon="6.95497">
        <ele>1550.52</ele>
        <time>2018-08-26T07:23:25Z</time>
      </trkpt>
      <trkpt lat="44.08704" lon="6.95479">
        <ele>1551.24</ele>
        <time>2018-08-26T07:23:26Z</time>
      </trkpt>
      <trkpt lat="44.08717" lon="6.95463">
        <ele>1551.46</ele>
        <time>2018-08-26T07:23:27Z</time>
      </trkpt>
      <trkpt lat="44.08732" lon="6.95448">
        <ele>1552.22</ele>
        <time>2018-08-26T07:23:28Z</time>
      </trkpt>
      <trkpt lat="44.08761" lon="6.9542">
        <ele>1552.52</ele>
        <time>2018-08-26T07:23:30Z</time>
      </trkpt>
      <trkpt lat="44.08785" lon="6.95383">
        <ele>1554.16</ele>
        <time>2018-08-26T07:23:32Z</time>
      </trkpt>
      <trkpt lat="44.08798" lon="6.95365">
        <ele>1554.43</ele>
        <time>2018-08-26T07:23:33Z</time>
      </trkpt>
      <trkpt lat="44.08821" lon="6.95329">
        <ele>1554.54</ele>
        <time>2018-08-26T07:23:35Z</time>
      </trkpt>
      <trkpt lat="44.08841" lon="6.95294">
        <ele>1553.85</ele>
        <time>2018-08-26T07:23:37Z</time>
      </trkpt>
      <trkpt lat="44.08862" lon="6.95264">
        <ele>1554.48</ele>
        <time>2018-08-26T07:23:39Z</time>
      </trkpt>
      <trkpt lat="44.08887" lon="6.95246">
        <ele>1553.84</ele>
        <time>2018-08-26T07:23:41Z</time>
      </trkpt>
      <trkpt lat="44.08913" lon="6.95239">
        <ele>1552.66</ele>
        <time>2018-08-26T07:23:43Z</time>
      </trkpt>
      <trkpt lat="44.08937" lon="6.95251">
        <ele>1553.47</ele>
        <time>2018-08-26T07:23:45Z</time>
      </trkpt>
      <trkpt lat="44.08959" lon="6.9525">
        <ele>1554.45</ele>
        <time>2018-08-26T07:23:47Z</time>
      </trkpt>
      <trkpt lat="44.0897" lon="6.95222">
        <ele>1553.57</ele>
        <time>2018-08-26T07:23:50Z</time>
      </trkpt>
      <trkpt lat="44.0895" lon="6.95197">
        <ele>1551.73</ele>
        <time>2018-08-26T07:23:53Z</time>
      </trkpt>
      <trkpt lat="44.08928" lon="6.95182">
        <ele>1551.56</ele>
        <time>2018-08-26T07:23:55Z</time>
      </trkpt>
      <trkpt lat="44.08903" lon="6.95174">
        <ele>1552.25</ele>
        <time>2018-08-26T07:23:57Z</time>
      </trkpt>
      <trkpt lat="44.08878" lon="6.9517">
        <ele>1554.13</ele>
        <time>2018-08-26T07:23:59Z</time>
      </trkpt>
      <trkpt lat="44.08859" lon="6.95153">
        <ele>1557.94</ele>
        <time>2018-08-26T07:24:01Z</time>
      </trkpt>
      <trkpt lat="44.08847" lon="6.95124">
        <ele>1559.19</ele>
        <time>2018-08-26T07:24:03Z</time>
      </trkpt>
      <trkpt lat="44.08849" lon="6.95086">
        <ele>1559.52</ele>
        <time>2018-08-26T07:24:05Z</time>
      </trkpt>
      <trkpt lat="44.08856" lon="6.95047">
        <ele>1561.16</ele>
        <time>2018-08-26T07:24:07Z</time>
      </trkpt>
      <trkpt lat="44.08867" lon="6.95007">
        <ele>1561.51</ele>
        <time>2018-08-26T07:24:09Z</time>
      </trkpt>
      <trkpt lat="44.08878" lon="6.94971">
        <ele>1561.54</ele>
        <time>2018-08-26T07:24:11Z</time>
      </trkpt>
      <trkpt lat="44.08894" lon="6.94941">
        <ele>1564.77</ele>
        <time>2018-08-26T07:24:13Z</time>
      </trkpt>
      <trkpt lat="44.08914" lon="6.94911">
        <ele>1568</ele>
        <time>2018-08-26T07:24:15Z</time>
      </trkpt>
      <trkpt lat="44.08937" lon="6.94883">
        <ele>1571.02</ele>
        <time>2018-08-26T07:24:17Z</time>
      </trkpt>
      <trkpt lat="44.08961" lon="6.94861">
        <ele>1573.11</ele>
        <time>2018-08-26T07:24:19Z</time>
      </trkpt>
      <trkpt lat="44.0898" lon="6.94847">
        <ele>1574.42</ele>
        <time>2018-08-26T07:24:21Z</time>
      </trkpt>
      <trkpt lat="44.08995" lon="6.94821">
        <ele>1577.13</ele>
        <time>2018-08-26T07:24:24Z</time>
      </trkpt>
      <trkpt lat="44.08982" lon="6.94797">
        <ele>1579.21</ele>
        <time>2018-08-26T07:24:27Z</time>
      </trkpt>
      <trkpt lat="44.08958" lon="6.9479">
        <ele>1579.54</ele>
        <time>2018-08-26T07:24:30Z</time>
      </trkpt>
      <trkpt lat="44.0894" lon="6.94802">
        <ele>1578.85</ele>
        <time>2018-08-26T07:24:31Z</time>
      </trkpt>
      <trkpt lat="44.08913" lon="6.94809">
        <ele>1579.48</ele>
        <time>2018-08-26T07:24:33Z</time>
      </trkpt>
      <trkpt lat="44.08888" lon="6.94814">
        <ele>1581.15</ele>
        <time>2018-08-26T07:24:35Z</time>
      </trkpt>
      <trkpt lat="44.08867" lon="6.94811">
        <ele>1582.42</ele>
        <time>2018-08-26T07:24:37Z</time>
      </trkpt>
      <trkpt lat="44.0885" lon="6.94791">
        <ele>1584.15</ele>
        <time>2018-08-26T07:24:39Z</time>
      </trkpt>
      <trkpt lat="44.08837" lon="6.94757">
        <ele>1585.42</ele>
        <time>2018-08-26T07:24:41Z</time>
      </trkpt>
      <trkpt lat="44.08829" lon="6.94725">
        <ele>1586.21</ele>
        <time>2018-08-26T07:24:42Z</time>
      </trkpt>
      <trkpt lat="44.08817" lon="6.94698">
        <ele>1587.15</ele>
        <time>2018-08-26T07:24:43Z</time>
      </trkpt>
      <trkpt lat="44.08802" lon="6.9467">
        <ele>1588.13</ele>
        <time>2018-08-26T07:24:44Z</time>
      </trkpt>
      <trkpt lat="44.08785" lon="6.94637">
        <ele>1589.12</ele>
        <time>2018-08-26T07:24:45Z</time>
      </trkpt>
      <trkpt lat="44.0877" lon="6.94606">
        <ele>1592.22</ele>
        <time>2018-08-26T07:24:46Z</time>
      </trkpt>
      <trkpt lat="44.08756" lon="6.94577">
        <ele>1593.85</ele>
        <time>2018-08-26T07:24:47Z</time>
      </trkpt>
      <trkpt lat="44.08743" lon="6.9455">
        <ele>1596.44</ele>
        <time>2018-08-26T07:24:48Z</time>
      </trkpt>
      <trkpt lat="44.0873" lon="6.94525">
        <ele>1598.62</ele>
        <time>2018-08-26T07:24:49Z</time>
      </trkpt>
      <trkpt lat="44.08719" lon="6.94499">
        <ele>1599.97</ele>
        <time>2018-08-26T07:24:50Z</time>
      </trkpt>
      <trkpt lat="44.08709" lon="6.94475">
        <ele>1601.07</ele>
        <time>2018-08-26T07:24:51Z</time>
      </trkpt>
      <trkpt lat="44.08699" lon="6.94451">
        <ele>1602.11</ele>
        <time>2018-08-26T07:24:52Z</time>
      </trkpt>
      <trkpt lat="44.08691" lon="6.94428">
        <ele>1603.12</ele>
        <time>2018-08-26T07:24:53Z</time>
      </trkpt>
      <trkpt lat="44.08683" lon="6.94381">
        <ele>1603.51</ele>
        <time>2018-08-26T07:24:55Z</time>
      </trkpt>
      <trkpt lat="44.08682" lon="6.94336">
        <ele>1605.15</ele>
        <time>2018-08-26T07:24:57Z</time>
      </trkpt>
      <trkpt lat="44.08689" lon="6.9429">
        <ele>1607.12</ele>
        <time>2018-08-26T07:24:59Z</time>
      </trkpt>
      <trkpt lat="44.08705" lon="6.94252">
        <ele>1610.03</ele>
        <time>2018-08-26T07:25:01Z</time>
      </trkpt>
      <trkpt lat="44.08726" lon="6.94217">
        <ele>1613.02</ele>
        <time>2018-08-26T07:25:03Z</time>
      </trkpt>
      <trkpt lat="44.08749" lon="6.94185">
        <ele>1615.81</ele>
        <time>2018-08-26T07:25:05Z</time>
      </trkpt>
      <trkpt lat="44.08771" lon="6.94155">
        <ele>1618.79</ele>
        <time>2018-08-26T07:25:07Z</time>
      </trkpt>
      <trkpt lat="44.08794" lon="6.94131">
        <ele>1620.18</ele>
        <time>2018-08-26T07:25:09Z</time>
      </trkpt>
      <trkpt lat="44.08818" lon="6.94112">
        <ele>1622.33</ele>
        <time>2018-08-26T07:25:11Z</time>
      </trkpt>
      <trkpt lat="44.08842" lon="6.94092">
        <ele>1624.14</ele>
        <time>2018-08-26T07:25:13Z</time>
      </trkpt>
      <trkpt lat="44.0886" lon="6.9407">
        <ele>1625.42</ele>
        <time>2018-08-26T07:25:15Z</time>
      </trkpt>
      <trkpt lat="44.08878" lon="6.94054">
        <ele>1627.15</ele>
        <time>2018-08-26T07:25:17Z</time>
      </trkpt>
      <trkpt lat="44.08891" lon="6.94031">
        <ele>1627.51</ele>
        <time>2018-08-26T07:25:19Z</time>
      </trkpt>
      <trkpt lat="44.08905" lon="6.94003">
        <ele>1628.24</ele>
        <time>2018-08-26T07:25:21Z</time>
      </trkpt>
      <trkpt lat="44.0892" lon="6.93977">
        <ele>1630.83</ele>
        <time>2018-08-26T07:25:23Z</time>
      </trkpt>
      <trkpt lat="44.08935" lon="6.9395">
        <ele>1632.39</ele>
        <time>2018-08-26T07:25:25Z</time>
      </trkpt>
      <trkpt lat="44.08948" lon="6.93919">
        <ele>1633.23</ele>
        <time>2018-08-26T07:25:27Z</time>
      </trkpt>
      <trkpt lat="44.0896" lon="6.9389">
        <ele>1634.22</ele>
        <time>2018-08-26T07:25:29Z</time>
      </trkpt>
      <trkpt lat="44.0897" lon="6.93865">
        <ele>1635.22</ele>
        <time>2018-08-26T07:25:31Z</time>
      </trkpt>
      <trkpt lat="44.08985" lon="6.93832">
        <ele>1638.82</ele>
        <time>2018-08-26T07:25:34Z</time>
      </trkpt>
      <trkpt lat="44.08998" lon="6.93808">
        <ele>1640.18</ele>
        <time>2018-08-26T07:25:36Z</time>
      </trkpt>
      <trkpt lat="44.09012" lon="6.93783">
        <ele>1639.82</ele>
        <time>2018-08-26T07:25:38Z</time>
      </trkpt>
      <trkpt lat="44.09027" lon="6.93759">
        <ele>1641.88</ele>
        <time>2018-08-26T07:25:40Z</time>
      </trkpt>
      <trkpt lat="44.09045" lon="6.93735">
        <ele>1644.1</ele>
        <time>2018-08-26T07:25:42Z</time>
      </trkpt>
      <trkpt lat="44.09062" lon="6.93712">
        <ele>1646.33</ele>
        <time>2018-08-26T07:25:44Z</time>
      </trkpt>
      <trkpt lat="44.09079" lon="6.93687">
        <ele>1648.14</ele>
        <time>2018-08-26T07:25:46Z</time>
      </trkpt>
      <trkpt lat="44.09096" lon="6.93661">
        <ele>1649.21</ele>
        <time>2018-08-26T07:25:48Z</time>
      </trkpt>
      <trkpt lat="44.09111" lon="6.93636">
        <ele>1650.43</ele>
        <time>2018-08-26T07:25:50Z</time>
      </trkpt>
      <trkpt lat="44.09127" lon="6.93612">
        <ele>1652.85</ele>
        <time>2018-08-26T07:25:52Z</time>
      </trkpt>
      <trkpt lat="44.09143" lon="6.93589">
        <ele>1654.39</ele>
        <time>2018-08-26T07:25:54Z</time>
      </trkpt>
      <trkpt lat="44.09158" lon="6.93567">
        <ele>1656.14</ele>
        <time>2018-08-26T07:25:56Z</time>
      </trkpt>
      <trkpt lat="44.09174" lon="6.93549">
        <ele>1657.42</ele>
        <time>2018-08-26T07:25:58Z</time>
      </trkpt>
      <trkpt lat="44.09193" lon="6.93533">
        <ele>1659.15</ele>
        <time>2018-08-26T07:26:00Z</time>
      </trkpt>
      <trkpt lat="44.09216" lon="6.93522">
        <ele>1660.42</ele>
        <time>2018-08-26T07:26:02Z</time>
      </trkpt>
      <trkpt lat="44.0924" lon="6.93514">
        <ele>1662.15</ele>
        <time>2018-08-26T07:26:04Z</time>
      </trkpt>
      <trkpt lat="44.09264" lon="6.93503">
        <ele>1662.51</ele>
        <time>2018-08-26T07:26:06Z</time>
      </trkpt>
      <trkpt lat="44.09286" lon="6.93485">
        <ele>1664.15</ele>
        <time>2018-08-26T07:26:08Z</time>
      </trkpt>
      <trkpt lat="44.09304" lon="6.93461">
        <ele>1665.42</ele>
        <time>2018-08-26T07:26:10Z</time>
      </trkpt>
      <trkpt lat="44.09321" lon="6.93432">
        <ele>1665.75</ele>
        <time>2018-08-26T07:26:12Z</time>
      </trkpt>
      <trkpt lat="44.09337" lon="6.93404">
        <ele>1668.09</ele>
        <time>2018-08-26T07:26:14Z</time>
      </trkpt>
      <trkpt lat="44.09352" lon="6.93378">
        <ele>1669.42</ele>
        <time>2018-08-26T07:26:16Z</time>
      </trkpt>
      <trkpt lat="44.09367" lon="6.93353">
        <ele>1671.15</ele>
        <time>2018-08-26T07:26:18Z</time>
      </trkpt>
      <trkpt lat="44.09383" lon="6.93328">
        <ele>1672.21</ele>
        <time>2018-08-26T07:26:20Z</time>
      </trkpt>
      <trkpt lat="44.09399" lon="6.93303">
        <ele>1672.52</ele>
        <time>2018-08-26T07:26:22Z</time>
      </trkpt>
      <trkpt lat="44.09412" lon="6.9328">
        <ele>1673.46</ele>
        <time>2018-08-26T07:26:24Z</time>
      </trkpt>
      <trkpt lat="44.09423" lon="6.93257">
        <ele>1675.36</ele>
        <time>2018-08-26T07:26:26Z</time>
      </trkpt>
      <trkpt lat="44.09435" lon="6.93235">
        <ele>1676.44</ele>
        <time>2018-08-26T07:26:28Z</time>
      </trkpt>
      <trkpt lat="44.09447" lon="6.93212">
        <ele>1678.15</ele>
        <time>2018-08-26T07:26:30Z</time>
      </trkpt>
      <trkpt lat="44.0946" lon="6.9319">
        <ele>1679.21</ele>
        <time>2018-08-26T07:26:32Z</time>
      </trkpt>
      <trkpt lat="44.09473" lon="6.93169">
        <ele>1680.22</ele>
        <time>2018-08-26T07:26:34Z</time>
      </trkpt>
      <trkpt lat="44.09486" lon="6.93147">
        <ele>1680.52</ele>
        <time>2018-08-26T07:26:36Z</time>
      </trkpt>
      <trkpt lat="44.09498" lon="6.93129">
        <ele>1680.55</ele>
        <time>2018-08-26T07:26:38Z</time>
      </trkpt>
      <trkpt lat="44.09513" lon="6.93113">
        <ele>1680.34</ele>
        <time>2018-08-26T07:26:41Z</time>
      </trkpt>
      <trkpt lat="44.09532" lon="6.93105">
        <ele>1680.48</ele>
        <time>2018-08-26T07:26:44Z</time>
      </trkpt>
      <trkpt lat="44.09551" lon="6.93103">
        <ele>1681.25</ele>
        <time>2018-08-26T07:26:47Z</time>
      </trkpt>
      <trkpt lat="44.09573" lon="6.93106">
        <ele>1682.51</ele>
        <time>2018-08-26T07:26:50Z</time>
      </trkpt>
      <trkpt lat="44.09597" lon="6.93109">
        <ele>1681.64</ele>
        <time>2018-08-26T07:26:53Z</time>
      </trkpt>
      <trkpt lat="44.09617" lon="6.931">
        <ele>1682.25</ele>
        <time>2018-08-26T07:26:56Z</time>
      </trkpt>
      <trkpt lat="44.09635" lon="6.93076">
        <ele>1681.57</ele>
        <time>2018-08-26T07:26:59Z</time>
      </trkpt>
      <trkpt lat="44.09647" lon="6.93057">
        <ele>1682.25</ele>
        <time>2018-08-26T07:27:01Z</time>
      </trkpt>
      <trkpt lat="44.09665" lon="6.93032">
        <ele>1683.51</ele>
        <time>2018-08-26T07:27:04Z</time>
      </trkpt>
      <trkpt lat="44.09678" lon="6.93004">
        <ele>1684.46</ele>
        <time>2018-08-26T07:27:07Z</time>
      </trkpt>
      <trkpt lat="44.09685" lon="6.92976">
        <ele>1685.52</ele>
        <time>2018-08-26T07:27:10Z</time>
      </trkpt>
      <trkpt lat="44.09689" lon="6.92944">
        <ele>1686.25</ele>
        <time>2018-08-26T07:27:13Z</time>
      </trkpt>
      <trkpt lat="44.09673" lon="6.92924">
        <ele>1685.57</ele>
        <time>2018-08-26T07:27:17Z</time>
      </trkpt>
      <trkpt lat="44.09651" lon="6.92922">
        <ele>1684.64</ele>
        <time>2018-08-26T07:27:20Z</time>
      </trkpt>
      <trkpt lat="44.09627" lon="6.92917">
        <ele>1683.64</ele>
        <time>2018-08-26T07:27:23Z</time>
      </trkpt>
      <trkpt lat="44.09605" lon="6.92914">
        <ele>1683.55</ele>
        <time>2018-08-26T07:27:26Z</time>
      </trkpt>
      <trkpt lat="44.09583" lon="6.92911">
        <ele>1682.58</ele>
        <time>2018-08-26T07:27:29Z</time>
      </trkpt>
      <trkpt lat="44.09561" lon="6.92909">
        <ele>1683.25</ele>
        <time>2018-08-26T07:27:32Z</time>
      </trkpt>
      <trkpt lat="44.09539" lon="6.92907">
        <ele>1683.12</ele>
        <time>2018-08-26T07:27:36Z</time>
      </trkpt>
      <trkpt lat="44.09527" lon="6.92881">
        <ele>1681.66</ele>
        <time>2018-08-26T07:27:40Z</time>
      </trkpt>
      <trkpt lat="44.09523" lon="6.92855">
        <ele>1680.85</ele>
        <time>2018-08-26T07:27:43Z</time>
      </trkpt>
      <trkpt lat="44.09519" lon="6.92821">
        <ele>1680.56</ele>
        <time>2018-08-26T07:27:46Z</time>
      </trkpt>
      <trkpt lat="44.09513" lon="6.92796">
        <ele>1681.25</ele>
        <time>2018-08-26T07:27:48Z</time>
      </trkpt>
      <trkpt lat="44.09505" lon="6.92769">
        <ele>1681.52</ele>
        <time>2018-08-26T07:27:50Z</time>
      </trkpt>
      <trkpt lat="44.09495" lon="6.9274">
        <ele>1681.55</ele>
        <time>2018-08-26T07:27:52Z</time>
      </trkpt>
      <trkpt lat="44.09486" lon="6.9271">
        <ele>1680.64</ele>
        <time>2018-08-26T07:27:54Z</time>
      </trkpt>
      <trkpt lat="44.09474" lon="6.92682">
        <ele>1680.77</ele>
        <time>2018-08-26T07:27:56Z</time>
      </trkpt>
      <trkpt lat="44.09454" lon="6.92658">
        <ele>1681.48</ele>
        <time>2018-08-26T07:27:58Z</time>
      </trkpt>
      <trkpt lat="44.09427" lon="6.92641">
        <ele>1679.72</ele>
        <time>2018-08-26T07:28:00Z</time>
      </trkpt>
      <trkpt lat="44.09399" lon="6.92623">
        <ele>1679.56</ele>
        <time>2018-08-26T07:28:02Z</time>
      </trkpt>
      <trkpt lat="44.0937" lon="6.92612">
        <ele>1679.55</ele>
        <time>2018-08-26T07:28:04Z</time>
      </trkpt>
      <trkpt lat="44.0934" lon="6.92615">
        <ele>1678.64</ele>
        <time>2018-08-26T07:28:06Z</time>
      </trkpt>
      <trkpt lat="44.09307" lon="6.9263">
        <ele>1676.95</ele>
        <time>2018-08-26T07:28:08Z</time>
      </trkpt>
      <trkpt lat="44.09276" lon="6.92643">
        <ele>1677.28</ele>
        <time>2018-08-26T07:28:10Z</time>
      </trkpt>
      <trkpt lat="44.09247" lon="6.92639">
        <ele>1673.88</ele>
        <time>2018-08-26T07:28:12Z</time>
      </trkpt>
      <trkpt lat="44.09221" lon="6.9262">
        <ele>1674.49</ele>
        <time>2018-08-26T07:28:14Z</time>
      </trkpt>
      <trkpt lat="44.092" lon="6.92587">
        <ele>1673.84</ele>
        <time>2018-08-26T07:28:16Z</time>
      </trkpt>
      <trkpt lat="44.09195" lon="6.92542">
        <ele>1674.97</ele>
        <time>2018-08-26T07:28:18Z</time>
      </trkpt>
      <trkpt lat="44.09179" lon="6.9251">
        <ele>1674.59</ele>
        <time>2018-08-26T07:28:20Z</time>
      </trkpt>
      <trkpt lat="44.0916" lon="6.92486">
        <ele>1674.55</ele>
        <time>2018-08-26T07:28:22Z</time>
      </trkpt>
      <trkpt lat="44.09139" lon="6.92486">
        <ele>1674.55</ele>
        <time>2018-08-26T07:28:23Z</time>
      </trkpt>
      <trkpt lat="44.0911" lon="6.92481">
        <ele>1675.46</ele>
        <time>2018-08-26T07:28:25Z</time>
      </trkpt>
      <trkpt lat="44.09084" lon="6.9247">
        <ele>1675.33</ele>
        <time>2018-08-26T07:28:27Z</time>
      </trkpt>
      <trkpt lat="44.09061" lon="6.92452">
        <ele>1676.44</ele>
        <time>2018-08-26T07:28:29Z</time>
      </trkpt>
      <trkpt lat="44.09049" lon="6.92411">
        <ele>1676.54</ele>
        <time>2018-08-26T07:28:31Z</time>
      </trkpt>
      <trkpt lat="44.09058" lon="6.92365">
        <ele>1675.64</ele>
        <time>2018-08-26T07:28:33Z</time>
      </trkpt>
      <trkpt lat="44.09053" lon="6.9232">
        <ele>1674.16</ele>
        <time>2018-08-26T07:28:35Z</time>
      </trkpt>
      <trkpt lat="44.09046" lon="6.92274">
        <ele>1674.51</ele>
        <time>2018-08-26T07:28:37Z</time>
      </trkpt>
      <trkpt lat="44.09041" lon="6.9225">
        <ele>1675.24</ele>
        <time>2018-08-26T07:28:38Z</time>
      </trkpt>
      <trkpt lat="44.09034" lon="6.92226">
        <ele>1675.45</ele>
        <time>2018-08-26T07:28:39Z</time>
      </trkpt>
      <trkpt lat="44.09018" lon="6.92181">
        <ele>1677.15</ele>
        <time>2018-08-26T07:28:41Z</time>
      </trkpt>
      <trkpt lat="44.09008" lon="6.92158">
        <ele>1676.73</ele>
        <time>2018-08-26T07:28:42Z</time>
      </trkpt>
      <trkpt lat="44.08993" lon="6.92115">
        <ele>1673.34</ele>
        <time>2018-08-26T07:28:44Z</time>
      </trkpt>
      <trkpt lat="44.08983" lon="6.92068">
        <ele>1674.23</ele>
        <time>2018-08-26T07:28:46Z</time>
      </trkpt>
      <trkpt lat="44.08979" lon="6.92043">
        <ele>1674.45</ele>
        <time>2018-08-26T07:28:47Z</time>
      </trkpt>
      <trkpt lat="44.0897" lon="6.91995">
        <ele>1676.36</ele>
        <time>2018-08-26T07:28:49Z</time>
      </trkpt>
      <trkpt lat="44.08965" lon="6.91971">
        <ele>1677.19</ele>
        <time>2018-08-26T07:28:50Z</time>
      </trkpt>
      <trkpt lat="44.08955" lon="6.91924">
        <ele>1678.22</ele>
        <time>2018-08-26T07:28:52Z</time>
      </trkpt>
      <trkpt lat="44.08944" lon="6.91884">
        <ele>1678.52</ele>
        <time>2018-08-26T07:28:54Z</time>
      </trkpt>
      <trkpt lat="44.0894" lon="6.91845">
        <ele>1677.64</ele>
        <time>2018-08-26T07:28:56Z</time>
      </trkpt>
      <trkpt lat="44.08944" lon="6.91812">
        <ele>1674.34</ele>
        <time>2018-08-26T07:28:58Z</time>
      </trkpt>
      <trkpt lat="44.08937" lon="6.91785">
        <ele>1672.01</ele>
        <time>2018-08-26T07:29:00Z</time>
      </trkpt>
      <trkpt lat="44.08916" lon="6.91768">
        <ele>1669.98</ele>
        <time>2018-08-26T07:29:02Z</time>
      </trkpt>
      <trkpt lat="44.0889" lon="6.91754">
        <ele>1667.28</ele>
        <time>2018-08-26T07:29:04Z</time>
      </trkpt>
      <trkpt lat="44.08864" lon="6.91734">
        <ele>1665.91</ele>
        <time>2018-08-26T07:29:06Z</time>
      </trkpt>
      <trkpt lat="44.08857" lon="6.91691">
        <ele>1664.88</ele>
        <time>2018-08-26T07:29:08Z</time>
      </trkpt>
      <trkpt lat="44.08846" lon="6.91647">
        <ele>1662.97</ele>
        <time>2018-08-26T07:29:10Z</time>
      </trkpt>
      <trkpt lat="44.08832" lon="6.91603">
        <ele>1660.98</ele>
        <time>2018-08-26T07:29:12Z</time>
      </trkpt>
      <trkpt lat="44.08822" lon="6.91559">
        <ele>1658.07</ele>
        <time>2018-08-26T07:29:14Z</time>
      </trkpt>
      <trkpt lat="44.08816" lon="6.91514">
        <ele>1655.98</ele>
        <time>2018-08-26T07:29:16Z</time>
      </trkpt>
      <trkpt lat="44.08806" lon="6.91474">
        <ele>1653.98</ele>
        <time>2018-08-26T07:29:18Z</time>
      </trkpt>
      <trkpt lat="44.08784" lon="6.91453">
        <ele>1650.37</ele>
        <time>2018-08-26T07:29:20Z</time>
      </trkpt>
      <trkpt lat="44.08757" lon="6.91453">
        <ele>1647.31</ele>
        <time>2018-08-26T07:29:22Z</time>
      </trkpt>
      <trkpt lat="44.08724" lon="6.91458">
        <ele>1644.31</ele>
        <time>2018-08-26T07:29:24Z</time>
      </trkpt>
      <trkpt lat="44.08706" lon="6.91461">
        <ele>1642.38</ele>
        <time>2018-08-26T07:29:25Z</time>
      </trkpt>
      <trkpt lat="44.08687" lon="6.91463">
        <ele>1640.4</ele>
        <time>2018-08-26T07:29:26Z</time>
      </trkpt>
      <trkpt lat="44.08669" lon="6.91466">
        <ele>1639.1</ele>
        <time>2018-08-26T07:29:27Z</time>
      </trkpt>
      <trkpt lat="44.08651" lon="6.91469">
        <ele>1637.31</ele>
        <time>2018-08-26T07:29:28Z</time>
      </trkpt>
      <trkpt lat="44.08619" lon="6.91475">
        <ele>1635.71</ele>
        <time>2018-08-26T07:29:30Z</time>
      </trkpt>
      <trkpt lat="44.08595" lon="6.91489">
        <ele>1634.65</ele>
        <time>2018-08-26T07:29:32Z</time>
      </trkpt>
      <trkpt lat="44.08575" lon="6.91514">
        <ele>1633.86</ele>
        <time>2018-08-26T07:29:34Z</time>
      </trkpt>
      <trkpt lat="44.08572" lon="6.91561">
        <ele>1633.58</ele>
        <time>2018-08-26T07:29:36Z</time>
      </trkpt>
      <trkpt lat="44.0858" lon="6.91592">
        <ele>1633.56</ele>
        <time>2018-08-26T07:29:37Z</time>
      </trkpt>
      <trkpt lat="44.08586" lon="6.91623">
        <ele>1633.55</ele>
        <time>2018-08-26T07:29:38Z</time>
      </trkpt>
      <trkpt lat="44.0859" lon="6.91652">
        <ele>1633.55</ele>
        <time>2018-08-26T07:29:39Z</time>
      </trkpt>
      <trkpt lat="44.08592" lon="6.9168">
        <ele>1632.15</ele>
        <time>2018-08-26T07:29:40Z</time>
      </trkpt>
      <trkpt lat="44.08594" lon="6.91706">
        <ele>1630.33</ele>
        <time>2018-08-26T07:29:41Z</time>
      </trkpt>
      <trkpt lat="44.08593" lon="6.91753">
        <ele>1627.31</ele>
        <time>2018-08-26T07:29:43Z</time>
      </trkpt>
      <trkpt lat="44.08601" lon="6.91794">
        <ele>1623.61</ele>
        <time>2018-08-26T07:29:45Z</time>
      </trkpt>
      <trkpt lat="44.08613" lon="6.91832">
        <ele>1621.03</ele>
        <time>2018-08-26T07:29:47Z</time>
      </trkpt>
      <trkpt lat="44.08623" lon="6.91862">
        <ele>1619.89</ele>
        <time>2018-08-26T07:29:49Z</time>
      </trkpt>
      <trkpt lat="44.08626" lon="6.91891">
        <ele>1615.57</ele>
        <time>2018-08-26T07:29:52Z</time>
      </trkpt>
      <trkpt lat="44.08609" lon="6.91876">
        <ele>1609.89</ele>
        <time>2018-08-26T07:29:57Z</time>
      </trkpt>
      <trkpt lat="44.08598" lon="6.91843">
        <ele>1607.55</ele>
        <time>2018-08-26T07:29:58Z</time>
      </trkpt>
      <trkpt lat="44.08581" lon="6.91804">
        <ele>1603.42</ele>
        <time>2018-08-26T07:30:00Z</time>
      </trkpt>
      <trkpt lat="44.08565" lon="6.91766">
        <ele>1601.02</ele>
        <time>2018-08-26T07:30:02Z</time>
      </trkpt>
      <trkpt lat="44.08556" lon="6.91721">
        <ele>1598.98</ele>
        <time>2018-08-26T07:30:04Z</time>
      </trkpt>
      <trkpt lat="44.08546" lon="6.91676">
        <ele>1596.98</ele>
        <time>2018-08-26T07:30:06Z</time>
      </trkpt>
      <trkpt lat="44.08536" lon="6.91634">
        <ele>1596.59</ele>
        <time>2018-08-26T07:30:08Z</time>
      </trkpt>
      <trkpt lat="44.08522" lon="6.91603">
        <ele>1593.33</ele>
        <time>2018-08-26T07:30:10Z</time>
      </trkpt>
      <trkpt lat="44.08499" lon="6.91581">
        <ele>1588.49</ele>
        <time>2018-08-26T07:30:12Z</time>
      </trkpt>
      <trkpt lat="44.08475" lon="6.9156">
        <ele>1583.92</ele>
        <time>2018-08-26T07:30:14Z</time>
      </trkpt>
      <trkpt lat="44.08458" lon="6.91534">
        <ele>1580.85</ele>
        <time>2018-08-26T07:30:16Z</time>
      </trkpt>
      <trkpt lat="44.08457" lon="6.91489">
        <ele>1578.76</ele>
        <time>2018-08-26T07:30:18Z</time>
      </trkpt>
      <trkpt lat="44.08453" lon="6.91444">
        <ele>1576.05</ele>
        <time>2018-08-26T07:30:20Z</time>
      </trkpt>
      <trkpt lat="44.08452" lon="6.914">
        <ele>1574.68</ele>
        <time>2018-08-26T07:30:22Z</time>
      </trkpt>
      <trkpt lat="44.08456" lon="6.91354">
        <ele>1571.13</ele>
        <time>2018-08-26T07:30:24Z</time>
      </trkpt>
      <trkpt lat="44.08466" lon="6.91311">
        <ele>1567.17</ele>
        <time>2018-08-26T07:30:26Z</time>
      </trkpt>
      <trkpt lat="44.08478" lon="6.91275">
        <ele>1563.38</ele>
        <time>2018-08-26T07:30:28Z</time>
      </trkpt>
      <trkpt lat="44.0849" lon="6.91249">
        <ele>1560.1</ele>
        <time>2018-08-26T07:30:30Z</time>
      </trkpt>
      <trkpt lat="44.0851" lon="6.91235">
        <ele>1557.99</ele>
        <time>2018-08-26T07:30:32Z</time>
      </trkpt>
      <trkpt lat="44.08536" lon="6.91217">
        <ele>1555.98</ele>
        <time>2018-08-26T07:30:34Z</time>
      </trkpt>
      <trkpt lat="44.08559" lon="6.91199">
        <ele>1554.19</ele>
        <time>2018-08-26T07:30:36Z</time>
      </trkpt>
      <trkpt lat="44.08576" lon="6.91168">
        <ele>1551.3</ele>
        <time>2018-08-26T07:30:38Z</time>
      </trkpt>
      <trkpt lat="44.08589" lon="6.91129">
        <ele>1548.31</ele>
        <time>2018-08-26T07:30:40Z</time>
      </trkpt>
      <trkpt lat="44.08609" lon="6.91097">
        <ele>1545.31</ele>
        <time>2018-08-26T07:30:42Z</time>
      </trkpt>
      <trkpt lat="44.08634" lon="6.91077">
        <ele>1543.92</ele>
        <time>2018-08-26T07:30:44Z</time>
      </trkpt>
      <trkpt lat="44.08667" lon="6.91075">
        <ele>1544.28</ele>
        <time>2018-08-26T07:30:46Z</time>
      </trkpt>
      <trkpt lat="44.08685" lon="6.91088">
        <ele>1544.47</ele>
        <time>2018-08-26T07:30:47Z</time>
      </trkpt>
      <trkpt lat="44.08718" lon="6.91098">
        <ele>1541.11</ele>
        <time>2018-08-26T07:30:49Z</time>
      </trkpt>
      <trkpt lat="44.0875" lon="6.91097">
        <ele>1538.5</ele>
        <time>2018-08-26T07:30:51Z</time>
      </trkpt>
      <trkpt lat="44.0878" lon="6.91108">
        <ele>1535.11</ele>
        <time>2018-08-26T07:30:53Z</time>
      </trkpt>
      <trkpt lat="44.08801" lon="6.91126">
        <ele>1532.08</ele>
        <time>2018-08-26T07:30:55Z</time>
      </trkpt>
      <trkpt lat="44.08819" lon="6.91135">
        <ele>1531.6</ele>
        <time>2018-08-26T07:30:57Z</time>
      </trkpt>
      <trkpt lat="44.08815" lon="6.91105">
        <ele>1528.36</ele>
        <time>2018-08-26T07:31:02Z</time>
      </trkpt>
      <trkpt lat="44.08799" lon="6.9109">
        <ele>1527.09</ele>
        <time>2018-08-26T07:31:03Z</time>
      </trkpt>
      <trkpt lat="44.08769" lon="6.91074">
        <ele>1526.71</ele>
        <time>2018-08-26T07:31:04Z</time>
      </trkpt>
      <trkpt lat="44.08751" lon="6.91059">
        <ele>1525.9</ele>
        <time>2018-08-26T07:31:05Z</time>
      </trkpt>
      <trkpt lat="44.08735" lon="6.91043">
        <ele>1524.95</ele>
        <time>2018-08-26T07:31:06Z</time>
      </trkpt>
      <trkpt lat="44.08722" lon="6.91025">
        <ele>1523.97</ele>
        <time>2018-08-26T07:31:07Z</time>
      </trkpt>
      <trkpt lat="44.08699" lon="6.90995">
        <ele>1523.59</ele>
        <time>2018-08-26T07:31:09Z</time>
      </trkpt>
      <trkpt lat="44.08671" lon="6.90983">
        <ele>1523.55</ele>
        <time>2018-08-26T07:31:11Z</time>
      </trkpt>
      <trkpt lat="44.08636" lon="6.9098">
        <ele>1521.94</ele>
        <time>2018-08-26T07:31:13Z</time>
      </trkpt>
      <trkpt lat="44.086" lon="6.90977">
        <ele>1518.15</ele>
        <time>2018-08-26T07:31:15Z</time>
      </trkpt>
      <trkpt lat="44.08582" lon="6.90975">
        <ele>1516.33</ele>
        <time>2018-08-26T07:31:16Z</time>
      </trkpt>
      <trkpt lat="44.08547" lon="6.90967">
        <ele>1511.91</ele>
        <time>2018-08-26T07:31:18Z</time>
      </trkpt>
      <trkpt lat="44.08518" lon="6.90946">
        <ele>1506.54</ele>
        <time>2018-08-26T07:31:20Z</time>
      </trkpt>
      <trkpt lat="44.0849" lon="6.90926">
        <ele>1502.42</ele>
        <time>2018-08-26T07:31:22Z</time>
      </trkpt>
      <trkpt lat="44.0847" lon="6.90895">
        <ele>1500.02</ele>
        <time>2018-08-26T07:31:24Z</time>
      </trkpt>
      <trkpt lat="44.08452" lon="6.90858">
        <ele>1497.98</ele>
        <time>2018-08-26T07:31:26Z</time>
      </trkpt>
      <trkpt lat="44.08428" lon="6.90835">
        <ele>1496.89</ele>
        <time>2018-08-26T07:31:28Z</time>
      </trkpt>
      <trkpt lat="44.084" lon="6.9083">
        <ele>1495.67</ele>
        <time>2018-08-26T07:31:30Z</time>
      </trkpt>
      <trkpt lat="44.08377" lon="6.90835">
        <ele>1493.04</ele>
        <time>2018-08-26T07:31:32Z</time>
      </trkpt>
      <trkpt lat="44.08358" lon="6.90834">
        <ele>1491.68</ele>
        <time>2018-08-26T07:31:34Z</time>
      </trkpt>
      <trkpt lat="44.08375" lon="6.9081">
        <ele>1487.83</ele>
        <time>2018-08-26T07:31:38Z</time>
      </trkpt>
      <trkpt lat="44.08413" lon="6.90811">
        <ele>1486.17</ele>
        <time>2018-08-26T07:31:40Z</time>
      </trkpt>
      <trkpt lat="44.08431" lon="6.90815">
        <ele>1485.04</ele>
        <time>2018-08-26T07:31:41Z</time>
      </trkpt>
      <trkpt lat="44.08463" lon="6.90831">
        <ele>1482.77</ele>
        <time>2018-08-26T07:31:43Z</time>
      </trkpt>
      <trkpt lat="44.08492" lon="6.90854">
        <ele>1480.96</ele>
        <time>2018-08-26T07:31:45Z</time>
      </trkpt>
      <trkpt lat="44.0852" lon="6.90872">
        <ele>1478.97</ele>
        <time>2018-08-26T07:31:47Z</time>
      </trkpt>
      <trkpt lat="44.08545" lon="6.90879">
        <ele>1477.89</ele>
        <time>2018-08-26T07:31:49Z</time>
      </trkpt>
      <trkpt lat="44.08562" lon="6.90853">
        <ele>1475.97</ele>
        <time>2018-08-26T07:31:51Z</time>
      </trkpt>
      <trkpt lat="44.08571" lon="6.90824">
        <ele>1475.59</ele>
        <time>2018-08-26T07:31:53Z</time>
      </trkpt>
      <trkpt lat="44.0857" lon="6.90799">
        <ele>1475.56</ele>
        <time>2018-08-26T07:31:54Z</time>
      </trkpt>
      <trkpt lat="44.08558" lon="6.90763">
        <ele>1474.85</ele>
        <time>2018-08-26T07:31:55Z</time>
      </trkpt>
      <trkpt lat="44.08558" lon="6.90731">
        <ele>1471.84</ele>
        <time>2018-08-26T07:31:56Z</time>
      </trkpt>
      <trkpt lat="44.08557" lon="6.90703">
        <ele>1469.54</ele>
        <time>2018-08-26T07:31:57Z</time>
      </trkpt>
      <trkpt lat="44.08554" lon="6.90674">
        <ele>1466.74</ele>
        <time>2018-08-26T07:31:58Z</time>
      </trkpt>
      <trkpt lat="44.08554" lon="6.90648">
        <ele>1464.51</ele>
        <time>2018-08-26T07:31:59Z</time>
      </trkpt>
      <trkpt lat="44.08556" lon="6.90603">
        <ele>1460.41</ele>
        <time>2018-08-26T07:32:01Z</time>
      </trkpt>
      <trkpt lat="44.08566" lon="6.9057">
        <ele>1458.72</ele>
        <time>2018-08-26T07:32:03Z</time>
      </trkpt>
      <trkpt lat="44.08589" lon="6.90549">
        <ele>1457.65</ele>
        <time>2018-08-26T07:32:05Z</time>
      </trkpt>
      <trkpt lat="44.08624" lon="6.90539">
        <ele>1457.35</ele>
        <time>2018-08-26T07:32:07Z</time>
      </trkpt>
      <trkpt lat="44.08646" lon="6.90539">
        <ele>1456.79</ele>
        <time>2018-08-26T07:32:08Z</time>
      </trkpt>
      <trkpt lat="44.08668" lon="6.90552">
        <ele>1453.12</ele>
        <time>2018-08-26T07:32:09Z</time>
      </trkpt>
      <trkpt lat="44.08689" lon="6.90557">
        <ele>1451.32</ele>
        <time>2018-08-26T07:32:10Z</time>
      </trkpt>
      <trkpt lat="44.08709" lon="6.90562">
        <ele>1449.38</ele>
        <time>2018-08-26T07:32:11Z</time>
      </trkpt>
      <trkpt lat="44.08728" lon="6.90567">
        <ele>1448.1</ele>
        <time>2018-08-26T07:32:12Z</time>
      </trkpt>
      <trkpt lat="44.0876" lon="6.9057">
        <ele>1445.99</ele>
        <time>2018-08-26T07:32:14Z</time>
      </trkpt>
      <trkpt lat="44.08783" lon="6.90562">
        <ele>1443.28</ele>
        <time>2018-08-26T07:32:16Z</time>
      </trkpt>
      <trkpt lat="44.088" lon="6.90539">
        <ele>1442.4</ele>
        <time>2018-08-26T07:32:18Z</time>
      </trkpt>
      <trkpt lat="44.08795" lon="6.90494">
        <ele>1439.81</ele>
        <time>2018-08-26T07:32:20Z</time>
      </trkpt>
      <trkpt lat="44.08794" lon="6.90468">
        <ele>1438.93</ele>
        <time>2018-08-26T07:32:21Z</time>
      </trkpt>
      <trkpt lat="44.08789" lon="6.9044">
        <ele>1437.26</ele>
        <time>2018-08-26T07:32:22Z</time>
      </trkpt>
      <trkpt lat="44.0878" lon="6.90402">
        <ele>1432.27</ele>
        <time>2018-08-26T07:32:24Z</time>
      </trkpt>
      <trkpt lat="44.08762" lon="6.90368">
        <ele>1429.79</ele>
        <time>2018-08-26T07:32:26Z</time>
      </trkpt>
      <trkpt lat="44.08743" lon="6.90359">
        <ele>1428.92</ele>
        <time>2018-08-26T07:32:27Z</time>
      </trkpt>
      <trkpt lat="44.0872" lon="6.90324">
        <ele>1422.84</ele>
        <time>2018-08-26T07:32:29Z</time>
      </trkpt>
      <trkpt lat="44.0871" lon="6.90302">
        <ele>1419.84</ele>
        <time>2018-08-26T07:32:30Z</time>
      </trkpt>
      <trkpt lat="44.08701" lon="6.90278">
        <ele>1418.23</ele>
        <time>2018-08-26T07:32:31Z</time>
      </trkpt>
      <trkpt lat="44.08692" lon="6.90254">
        <ele>1417.05</ele>
        <time>2018-08-26T07:32:32Z</time>
      </trkpt>
      <trkpt lat="44.08682" lon="6.90232">
        <ele>1416</ele>
        <time>2018-08-26T07:32:33Z</time>
      </trkpt>
      <trkpt lat="44.08672" lon="6.90209">
        <ele>1414.28</ele>
        <time>2018-08-26T07:32:34Z</time>
      </trkpt>
      <trkpt lat="44.08663" lon="6.90187">
        <ele>1412.37</ele>
        <time>2018-08-26T07:32:35Z</time>
      </trkpt>
      <trkpt lat="44.08647" lon="6.90148">
        <ele>1409.31</ele>
        <time>2018-08-26T07:32:37Z</time>
      </trkpt>
      <trkpt lat="44.08641" lon="6.90112">
        <ele>1408.41</ele>
        <time>2018-08-26T07:32:39Z</time>
      </trkpt>
      <trkpt lat="44.08646" lon="6.90067">
        <ele>1407.63</ele>
        <time>2018-08-26T07:32:41Z</time>
      </trkpt>
      <trkpt lat="44.08659" lon="6.90043">
        <ele>1406.87</ele>
        <time>2018-08-26T07:32:42Z</time>
      </trkpt>
      <trkpt lat="44.08673" lon="6.90023">
        <ele>1405.24</ele>
        <time>2018-08-26T07:32:43Z</time>
      </trkpt>
      <trkpt lat="44.08691" lon="6.89985">
        <ele>1402.51</ele>
        <time>2018-08-26T07:32:45Z</time>
      </trkpt>
      <trkpt lat="44.08703" lon="6.89951">
        <ele>1398.41</ele>
        <time>2018-08-26T07:32:47Z</time>
      </trkpt>
      <trkpt lat="44.08708" lon="6.89917">
        <ele>1395.81</ele>
        <time>2018-08-26T07:32:49Z</time>
      </trkpt>
      <trkpt lat="44.08702" lon="6.89886">
        <ele>1394.66</ele>
        <time>2018-08-26T07:32:51Z</time>
      </trkpt>
      <trkpt lat="44.0869" lon="6.89854">
        <ele>1393.86</ele>
        <time>2018-08-26T07:32:53Z</time>
      </trkpt>
      <trkpt lat="44.08677" lon="6.89824">
        <ele>1393.58</ele>
        <time>2018-08-26T07:32:55Z</time>
      </trkpt>
      <trkpt lat="44.08673" lon="6.8979">
        <ele>1391.94</ele>
        <time>2018-08-26T07:32:57Z</time>
      </trkpt>
      <trkpt lat="44.08668" lon="6.89752">
        <ele>1389.76</ele>
        <time>2018-08-26T07:32:59Z</time>
      </trkpt>
      <trkpt lat="44.08668" lon="6.8971">
        <ele>1387.05</ele>
        <time>2018-08-26T07:33:01Z</time>
      </trkpt>
      <trkpt lat="44.08673" lon="6.89666">
        <ele>1385.68</ele>
        <time>2018-08-26T07:33:03Z</time>
      </trkpt>
      <trkpt lat="44.0868" lon="6.8962">
        <ele>1384.65</ele>
        <time>2018-08-26T07:33:05Z</time>
      </trkpt>
      <trkpt lat="44.0869" lon="6.89579">
        <ele>1382.95</ele>
        <time>2018-08-26T07:33:07Z</time>
      </trkpt>
      <trkpt lat="44.08706" lon="6.89548">
        <ele>1380.06</ele>
        <time>2018-08-26T07:33:09Z</time>
      </trkpt>
      <trkpt lat="44.08722" lon="6.89515">
        <ele>1378.89</ele>
        <time>2018-08-26T07:33:11Z</time>
      </trkpt>
      <trkpt lat="44.08729" lon="6.89471">
        <ele>1376.97</ele>
        <time>2018-08-26T07:33:13Z</time>
      </trkpt>
      <trkpt lat="44.08742" lon="6.89429">
        <ele>1373.16</ele>
        <time>2018-08-26T07:33:15Z</time>
      </trkpt>
      <trkpt lat="44.08753" lon="6.89394">
        <ele>1370.99</ele>
        <time>2018-08-26T07:33:17Z</time>
      </trkpt>
      <trkpt lat="44.08741" lon="6.89357">
        <ele>1368.28</ele>
        <time>2018-08-26T07:33:19Z</time>
      </trkpt>
      <trkpt lat="44.08722" lon="6.89324">
        <ele>1365.3</ele>
        <time>2018-08-26T07:33:21Z</time>
      </trkpt>
      <trkpt lat="44.08694" lon="6.89299">
        <ele>1362.31</ele>
        <time>2018-08-26T07:33:23Z</time>
      </trkpt>
      <trkpt lat="44.0866" lon="6.89284">
        <ele>1360.01</ele>
        <time>2018-08-26T07:33:25Z</time>
      </trkpt>
      <trkpt lat="44.08641" lon="6.89281">
        <ele>1358.29</ele>
        <time>2018-08-26T07:33:26Z</time>
      </trkpt>
      <trkpt lat="44.08623" lon="6.89277">
        <ele>1357.07</ele>
        <time>2018-08-26T07:33:27Z</time>
      </trkpt>
      <trkpt lat="44.08591" lon="6.89273">
        <ele>1354.98</ele>
        <time>2018-08-26T07:33:29Z</time>
      </trkpt>
      <trkpt lat="44.08566" lon="6.89287">
        <ele>1352.98</ele>
        <time>2018-08-26T07:33:31Z</time>
      </trkpt>
      <trkpt lat="44.0854" lon="6.89304">
        <ele>1349.16</ele>
        <time>2018-08-26T07:33:33Z</time>
      </trkpt>
      <trkpt lat="44.08512" lon="6.89302">
        <ele>1346.08</ele>
        <time>2018-08-26T07:33:35Z</time>
      </trkpt>
      <trkpt lat="44.08488" lon="6.89284">
        <ele>1343.99</ele>
        <time>2018-08-26T07:33:37Z</time>
      </trkpt>
      <trkpt lat="44.0846" lon="6.89273">
        <ele>1341.07</ele>
        <time>2018-08-26T07:33:39Z</time>
      </trkpt>
      <trkpt lat="44.08439" lon="6.89256">
        <ele>1337.37</ele>
        <time>2018-08-26T07:33:41Z</time>
      </trkpt>
      <trkpt lat="44.08421" lon="6.89228">
        <ele>1335.71</ele>
        <time>2018-08-26T07:33:43Z</time>
      </trkpt>
      <trkpt lat="44.08412" lon="6.89204">
        <ele>1334.2</ele>
        <time>2018-08-26T07:33:44Z</time>
      </trkpt>
      <trkpt lat="44.08389" lon="6.89166">
        <ele>1332</ele>
        <time>2018-08-26T07:33:46Z</time>
      </trkpt>
      <trkpt lat="44.08378" lon="6.89119">
        <ele>1332.5</ele>
        <time>2018-08-26T07:33:48Z</time>
      </trkpt>
      <trkpt lat="44.08384" lon="6.89076">
        <ele>1330.02</ele>
        <time>2018-08-26T07:33:50Z</time>
      </trkpt>
      <trkpt lat="44.08378" lon="6.89035">
        <ele>1328.89</ele>
        <time>2018-08-26T07:33:52Z</time>
      </trkpt>
      <trkpt lat="44.08365" lon="6.88993">
        <ele>1327.67</ele>
        <time>2018-08-26T07:33:54Z</time>
      </trkpt>
      <trkpt lat="44.08363" lon="6.88949">
        <ele>1325.74</ele>
        <time>2018-08-26T07:33:56Z</time>
      </trkpt>
      <trkpt lat="44.08364" lon="6.88899">
        <ele>1323.26</ele>
        <time>2018-08-26T07:33:58Z</time>
      </trkpt>
      <trkpt lat="44.08365" lon="6.88851">
        <ele>1320.09</ele>
        <time>2018-08-26T07:34:00Z</time>
      </trkpt>
      <trkpt lat="44.08372" lon="6.88808">
        <ele>1316.59</ele>
        <time>2018-08-26T07:34:02Z</time>
      </trkpt>
      <trkpt lat="44.08378" lon="6.88778">
        <ele>1314.03</ele>
        <time>2018-08-26T07:34:04Z</time>
      </trkpt>
      <trkpt lat="44.08376" lon="6.8875">
        <ele>1310.98</ele>
        <time>2018-08-26T07:34:07Z</time>
      </trkpt>
      <trkpt lat="44.08363" lon="6.88779">
        <ele>1308.89</ele>
        <time>2018-08-26T07:34:10Z</time>
      </trkpt>
      <trkpt lat="44.08355" lon="6.88812">
        <ele>1307.67</ele>
        <time>2018-08-26T07:34:12Z</time>
      </trkpt>
      <trkpt lat="44.08343" lon="6.88853">
        <ele>1306.16</ele>
        <time>2018-08-26T07:34:14Z</time>
      </trkpt>
      <trkpt lat="44.08331" lon="6.88899">
        <ele>1306.3</ele>
        <time>2018-08-26T07:34:16Z</time>
      </trkpt>
      <trkpt lat="44.08325" lon="6.88941">
        <ele>1304.92</ele>
        <time>2018-08-26T07:34:18Z</time>
      </trkpt>
      <trkpt lat="44.08323" lon="6.88985">
        <ele>1304.58</ele>
        <time>2018-08-26T07:34:20Z</time>
      </trkpt>
      <trkpt lat="44.08334" lon="6.8903">
        <ele>1303.64</ele>
        <time>2018-08-26T07:34:22Z</time>
      </trkpt>
      <trkpt lat="44.0834" lon="6.89071">
        <ele>1301.95</ele>
        <time>2018-08-26T07:34:24Z</time>
      </trkpt>
      <trkpt lat="44.08332" lon="6.89111">
        <ele>1299.06</ele>
        <time>2018-08-26T07:34:26Z</time>
      </trkpt>
      <trkpt lat="44.08321" lon="6.89148">
        <ele>1297.68</ele>
        <time>2018-08-26T07:34:28Z</time>
      </trkpt>
      <trkpt lat="44.08321" lon="6.89194">
        <ele>1294.76</ele>
        <time>2018-08-26T07:34:30Z</time>
      </trkpt>
      <trkpt lat="44.08325" lon="6.89237">
        <ele>1289.95</ele>
        <time>2018-08-26T07:34:32Z</time>
      </trkpt>
      <trkpt lat="44.08343" lon="6.89267">
        <ele>1288.18</ele>
        <time>2018-08-26T07:34:34Z</time>
      </trkpt>
      <trkpt lat="44.08356" lon="6.89303">
        <ele>1286</ele>
        <time>2018-08-26T07:34:36Z</time>
      </trkpt>
      <trkpt lat="44.08357" lon="6.89339">
        <ele>1284.68</ele>
        <time>2018-08-26T07:34:38Z</time>
      </trkpt>
      <trkpt lat="44.08376" lon="6.89369">
        <ele>1282.25</ele>
        <time>2018-08-26T07:34:40Z</time>
      </trkpt>
      <trkpt lat="44.08399" lon="6.89396">
        <ele>1279.3</ele>
        <time>2018-08-26T07:34:42Z</time>
      </trkpt>
      <trkpt lat="44.0843" lon="6.89413">
        <ele>1276.52</ele>
        <time>2018-08-26T07:34:44Z</time>
      </trkpt>
      <trkpt lat="44.08457" lon="6.89442">
        <ele>1274.03</ele>
        <time>2018-08-26T07:34:46Z</time>
      </trkpt>
      <trkpt lat="44.0848" lon="6.89468">
        <ele>1270.37</ele>
        <time>2018-08-26T07:34:48Z</time>
      </trkpt>
      <trkpt lat="44.08493" lon="6.89495">
        <ele>1268.01</ele>
        <time>2018-08-26T07:34:50Z</time>
      </trkpt>
      <trkpt lat="44.08489" lon="6.89523">
        <ele>1264.86</ele>
        <time>2018-08-26T07:34:52Z</time>
      </trkpt>
      <trkpt lat="44.08472" lon="6.89545">
        <ele>1262.97</ele>
        <time>2018-08-26T07:34:54Z</time>
      </trkpt>
      <trkpt lat="44.08431" lon="6.8956">
        <ele>1261.89</ele>
        <time>2018-08-26T07:34:56Z</time>
      </trkpt>
      <trkpt lat="44.08407" lon="6.89564">
        <ele>1260.95</ele>
        <time>2018-08-26T07:34:57Z</time>
      </trkpt>
      <trkpt lat="44.0839" lon="6.8957">
        <ele>1259.97</ele>
        <time>2018-08-26T07:34:58Z</time>
      </trkpt>
      <trkpt lat="44.08358" lon="6.89589">
        <ele>1257.07</ele>
        <time>2018-08-26T07:35:00Z</time>
      </trkpt>
      <trkpt lat="44.08329" lon="6.89617">
        <ele>1254.28</ele>
        <time>2018-08-26T07:35:02Z</time>
      </trkpt>
      <trkpt lat="44.08302" lon="6.89649">
        <ele>1251.09</ele>
        <time>2018-08-26T07:35:04Z</time>
      </trkpt>
      <trkpt lat="44.08288" lon="6.89665">
        <ele>1249.31</ele>
        <time>2018-08-26T07:35:05Z</time>
      </trkpt>
      <trkpt lat="44.08274" lon="6.89683">
        <ele>1248.78</ele>
        <time>2018-08-26T07:35:06Z</time>
      </trkpt>
      <trkpt lat="44.08261" lon="6.897">
        <ele>1247.92</ele>
        <time>2018-08-26T07:35:07Z</time>
      </trkpt>
      <trkpt lat="44.08248" lon="6.8972">
        <ele>1246.26</ele>
        <time>2018-08-26T07:35:08Z</time>
      </trkpt>
      <trkpt lat="44.08234" lon="6.8974">
        <ele>1243.66</ele>
        <time>2018-08-26T07:35:09Z</time>
      </trkpt>
      <trkpt lat="44.08221" lon="6.89758">
        <ele>1242.18</ele>
        <time>2018-08-26T07:35:10Z</time>
      </trkpt>
      <trkpt lat="44.08206" lon="6.89773">
        <ele>1241.04</ele>
        <time>2018-08-26T07:35:11Z</time>
      </trkpt>
      <trkpt lat="44.08191" lon="6.89789">
        <ele>1239.99</ele>
        <time>2018-08-26T07:35:12Z</time>
      </trkpt>
      <trkpt lat="44.08176" lon="6.89803">
        <ele>1238.98</ele>
        <time>2018-08-26T07:35:13Z</time>
      </trkpt>
      <trkpt lat="44.08145" lon="6.89826">
        <ele>1233.76</ele>
        <time>2018-08-26T07:35:15Z</time>
      </trkpt>
      <trkpt lat="44.08119" lon="6.89844">
        <ele>1230.35</ele>
        <time>2018-08-26T07:35:17Z</time>
      </trkpt>
      <trkpt lat="44.08103" lon="6.89869">
        <ele>1228.43</ele>
        <time>2018-08-26T07:35:19Z</time>
      </trkpt>
      <trkpt lat="44.081" lon="6.89901">
        <ele>1224.2</ele>
        <time>2018-08-26T07:35:21Z</time>
      </trkpt>
      <trkpt lat="44.08098" lon="6.89931">
        <ele>1221.89</ele>
        <time>2018-08-26T07:35:24Z</time>
      </trkpt>
      <trkpt lat="44.08089" lon="6.89909">
        <ele>1219.38</ele>
        <time>2018-08-26T07:35:28Z</time>
      </trkpt>
      <trkpt lat="44.08087" lon="6.89879">
        <ele>1217.4</ele>
        <time>2018-08-26T07:35:29Z</time>
      </trkpt>
      <trkpt lat="44.08089" lon="6.89837">
        <ele>1215.01</ele>
        <time>2018-08-26T07:35:31Z</time>
      </trkpt>
      <trkpt lat="44.08091" lon="6.89797">
        <ele>1212.28</ele>
        <time>2018-08-26T07:35:33Z</time>
      </trkpt>
      <trkpt lat="44.08088" lon="6.89757">
        <ele>1210.21</ele>
        <time>2018-08-26T07:35:35Z</time>
      </trkpt>
      <trkpt lat="44.08094" lon="6.89721">
        <ele>1206.39</ele>
        <time>2018-08-26T07:35:37Z</time>
      </trkpt>
      <trkpt lat="44.0811" lon="6.89695">
        <ele>1203.1</ele>
        <time>2018-08-26T07:35:39Z</time>
      </trkpt>
      <trkpt lat="44.08133" lon="6.89673">
        <ele>1201.2</ele>
        <time>2018-08-26T07:35:41Z</time>
      </trkpt>
      <trkpt lat="44.08155" lon="6.89643">
        <ele>1198.09</ele>
        <time>2018-08-26T07:35:43Z</time>
      </trkpt>
      <trkpt lat="44.08171" lon="6.89603">
        <ele>1195.29</ele>
        <time>2018-08-26T07:35:45Z</time>
      </trkpt>
      <trkpt lat="44.08187" lon="6.89563">
        <ele>1191.18</ele>
        <time>2018-08-26T07:35:47Z</time>
      </trkpt>
      <trkpt lat="44.08199" lon="6.89524">
        <ele>1188.3</ele>
        <time>2018-08-26T07:35:49Z</time>
      </trkpt>
      <trkpt lat="44.08204" lon="6.89481">
        <ele>1186.01</ele>
        <time>2018-08-26T07:35:51Z</time>
      </trkpt>
      <trkpt lat="44.082" lon="6.89435">
        <ele>1182.37</ele>
        <time>2018-08-26T07:35:53Z</time>
      </trkpt>
      <trkpt lat="44.08189" lon="6.89394">
        <ele>1178.61</ele>
        <time>2018-08-26T07:35:55Z</time>
      </trkpt>
      <trkpt lat="44.08171" lon="6.89357">
        <ele>1176.03</ele>
        <time>2018-08-26T07:35:57Z</time>
      </trkpt>
      <trkpt lat="44.08152" lon="6.8933">
        <ele>1173.28</ele>
        <time>2018-08-26T07:35:59Z</time>
      </trkpt>
      <trkpt lat="44.08139" lon="6.893">
        <ele>1171.7</ele>
        <time>2018-08-26T07:36:01Z</time>
      </trkpt>
      <trkpt lat="44.08143" lon="6.8926">
        <ele>1169.95</ele>
        <time>2018-08-26T07:36:03Z</time>
      </trkpt>
      <trkpt lat="44.0815" lon="6.89236">
        <ele>1169.67</ele>
        <time>2018-08-26T07:36:04Z</time>
      </trkpt>
      <trkpt lat="44.08149" lon="6.89191">
        <ele>1168.65</ele>
        <time>2018-08-26T07:36:06Z</time>
      </trkpt>
      <trkpt lat="44.08148" lon="6.89144">
        <ele>1167.65</ele>
        <time>2018-08-26T07:36:08Z</time>
      </trkpt>
      <trkpt lat="44.08147" lon="6.89099">
        <ele>1165.04</ele>
        <time>2018-08-26T07:36:10Z</time>
      </trkpt>
      <trkpt lat="44.08146" lon="6.89056">
        <ele>1163.19</ele>
        <time>2018-08-26T07:36:12Z</time>
      </trkpt>
      <trkpt lat="44.08139" lon="6.89018">
        <ele>1161.7</ele>
        <time>2018-08-26T07:36:14Z</time>
      </trkpt>
      <trkpt lat="44.08128" lon="6.88979">
        <ele>1159.95</ele>
        <time>2018-08-26T07:36:16Z</time>
      </trkpt>
      <trkpt lat="44.08118" lon="6.88942">
        <ele>1158.88</ele>
        <time>2018-08-26T07:36:18Z</time>
      </trkpt>
      <trkpt lat="44.08101" lon="6.88913">
        <ele>1155.85</ele>
        <time>2018-08-26T07:36:20Z</time>
      </trkpt>
      <trkpt lat="44.08078" lon="6.88888">
        <ele>1151.66</ele>
        <time>2018-08-26T07:36:22Z</time>
      </trkpt>
      <trkpt lat="44.08055" lon="6.88861">
        <ele>1149.25</ele>
        <time>2018-08-26T07:36:24Z</time>
      </trkpt>
      <trkpt lat="44.08034" lon="6.88836">
        <ele>1147.91</ele>
        <time>2018-08-26T07:36:26Z</time>
      </trkpt>
      <trkpt lat="44.08018" lon="6.88808">
        <ele>1146.67</ele>
        <time>2018-08-26T07:36:28Z</time>
      </trkpt>
      <trkpt lat="44.0802" lon="6.88767">
        <ele>1145.65</ele>
        <time>2018-08-26T07:36:30Z</time>
      </trkpt>
      <trkpt lat="44.08021" lon="6.8872">
        <ele>1141.43</ele>
        <time>2018-08-26T07:36:32Z</time>
      </trkpt>
      <trkpt lat="44.08024" lon="6.88672">
        <ele>1138.32</ele>
        <time>2018-08-26T07:36:34Z</time>
      </trkpt>
      <trkpt lat="44.08026" lon="6.88626">
        <ele>1133.49</ele>
        <time>2018-08-26T07:36:36Z</time>
      </trkpt>
      <trkpt lat="44.08031" lon="6.88583">
        <ele>1128.92</ele>
        <time>2018-08-26T07:36:38Z</time>
      </trkpt>
      <trkpt lat="44.08043" lon="6.88545">
        <ele>1124.24</ele>
        <time>2018-08-26T07:36:40Z</time>
      </trkpt>
      <trkpt lat="44.08045" lon="6.88509">
        <ele>1120.39</ele>
        <time>2018-08-26T07:36:42Z</time>
      </trkpt>
      <trkpt lat="44.08034" lon="6.88478">
        <ele>1117.8</ele>
        <time>2018-08-26T07:36:44Z</time>
      </trkpt>
      <trkpt lat="44.08018" lon="6.88437">
        <ele>1115.96</ele>
        <time>2018-08-26T07:36:46Z</time>
      </trkpt>
      <trkpt lat="44.08011" lon="6.88393">
        <ele>1111.46</ele>
        <time>2018-08-26T07:36:48Z</time>
      </trkpt>
      <trkpt lat="44.08012" lon="6.88347">
        <ele>1109.02</ele>
        <time>2018-08-26T07:36:50Z</time>
      </trkpt>
      <trkpt lat="44.08026" lon="6.88305">
        <ele>1108.8</ele>
        <time>2018-08-26T07:36:52Z</time>
      </trkpt>
      <trkpt lat="44.08048" lon="6.88272">
        <ele>1105.35</ele>
        <time>2018-08-26T07:36:54Z</time>
      </trkpt>
      <trkpt lat="44.08054" lon="6.88233">
        <ele>1103.01</ele>
        <time>2018-08-26T07:36:56Z</time>
      </trkpt>
      <trkpt lat="44.08049" lon="6.88194">
        <ele>1101.68</ele>
        <time>2018-08-26T07:36:58Z</time>
      </trkpt>
      <trkpt lat="44.08063" lon="6.88148">
        <ele>1097.64</ele>
        <time>2018-08-26T07:37:00Z</time>
      </trkpt>
      <trkpt lat="44.08074" lon="6.88102">
        <ele>1094.13</ele>
        <time>2018-08-26T07:37:02Z</time>
      </trkpt>
      <trkpt lat="44.08083" lon="6.88062">
        <ele>1088.98</ele>
        <time>2018-08-26T07:37:04Z</time>
      </trkpt>
      <trkpt lat="44.08101" lon="6.88029">
        <ele>1086.07</ele>
        <time>2018-08-26T07:37:06Z</time>
      </trkpt>
      <trkpt lat="44.08117" lon="6.88016">
        <ele>1086.4</ele>
        <time>2018-08-26T07:37:07Z</time>
      </trkpt>
      <trkpt lat="44.0813" lon="6.87998">
        <ele>1086.5</ele>
        <time>2018-08-26T07:37:08Z</time>
      </trkpt>
      <trkpt lat="44.08151" lon="6.87961">
        <ele>1081.71</ele>
        <time>2018-08-26T07:37:10Z</time>
      </trkpt>
      <trkpt lat="44.08173" lon="6.87927">
        <ele>1077.64</ele>
        <time>2018-08-26T07:37:12Z</time>
      </trkpt>
      <trkpt lat="44.08202" lon="6.87901">
        <ele>1075.95</ele>
        <time>2018-08-26T07:37:14Z</time>
      </trkpt>
      <trkpt lat="44.08232" lon="6.87882">
        <ele>1073.97</ele>
        <time>2018-08-26T07:37:16Z</time>
      </trkpt>
      <trkpt lat="44.08258" lon="6.87872">
        <ele>1072.19</ele>
        <time>2018-08-26T07:37:18Z</time>
      </trkpt>
      <trkpt lat="44.08276" lon="6.8787">
        <ele>1071.61</ele>
        <time>2018-08-26T07:37:20Z</time>
      </trkpt>
      <trkpt lat="44.08292" lon="6.87853">
        <ele>1069.88</ele>
        <time>2018-08-26T07:37:23Z</time>
      </trkpt>
      <trkpt lat="44.08301" lon="6.8783">
        <ele>1066.97</ele>
        <time>2018-08-26T07:37:26Z</time>
      </trkpt>
      <trkpt lat="44.08314" lon="6.87804">
        <ele>1063.28</ele>
        <time>2018-08-26T07:37:29Z</time>
      </trkpt>
      <trkpt lat="44.08325" lon="6.87783">
        <ele>1062.61</ele>
        <time>2018-08-26T07:37:31Z</time>
      </trkpt>
      <trkpt lat="44.08339" lon="6.8776">
        <ele>1060.03</ele>
        <time>2018-08-26T07:37:33Z</time>
      </trkpt>
      <trkpt lat="44.08356" lon="6.87735">
        <ele>1056.37</ele>
        <time>2018-08-26T07:37:35Z</time>
      </trkpt>
      <trkpt lat="44.08369" lon="6.87706">
        <ele>1052.4</ele>
        <time>2018-08-26T07:37:37Z</time>
      </trkpt>
      <trkpt lat="44.08376" lon="6.87672">
        <ele>1050.01</ele>
        <time>2018-08-26T07:37:39Z</time>
      </trkpt>
      <trkpt lat="44.08377" lon="6.87636">
        <ele>1047.28</ele>
        <time>2018-08-26T07:37:41Z</time>
      </trkpt>
      <trkpt lat="44.08382" lon="6.87598">
        <ele>1044.3</ele>
        <time>2018-08-26T07:37:43Z</time>
      </trkpt>
      <trkpt lat="44.08392" lon="6.87562">
        <ele>1041.31</ele>
        <time>2018-08-26T07:37:45Z</time>
      </trkpt>
      <trkpt lat="44.08407" lon="6.87527">
        <ele>1038.31</ele>
        <time>2018-08-26T07:37:47Z</time>
      </trkpt>
      <trkpt lat="44.08422" lon="6.87502">
        <ele>1035.1</ele>
        <time>2018-08-26T07:37:49Z</time>
      </trkpt>
      <trkpt lat="44.08442" lon="6.87493">
        <ele>1033.69</ele>
        <time>2018-08-26T07:37:51Z</time>
      </trkpt>
      <trkpt lat="44.08463" lon="6.87483">
        <ele>1032.65</ele>
        <time>2018-08-26T07:37:53Z</time>
      </trkpt>
      <trkpt lat="44.08481" lon="6.87468">
        <ele>1031.65</ele>
        <time>2018-08-26T07:37:55Z</time>
      </trkpt>
      <trkpt lat="44.08488" lon="6.87433">
        <ele>1030.86</ele>
        <time>2018-08-26T07:37:57Z</time>
      </trkpt>
      <trkpt lat="44.08492" lon="6.87401">
        <ele>1028.27</ele>
        <time>2018-08-26T07:37:59Z</time>
      </trkpt>
      <trkpt lat="44.08506" lon="6.87382">
        <ele>1026.91</ele>
        <time>2018-08-26T07:38:01Z</time>
      </trkpt>
      <trkpt lat="44.08516" lon="6.87358">
        <ele>1025.67</ele>
        <time>2018-08-26T07:38:03Z</time>
      </trkpt>
      <trkpt lat="44.08507" lon="6.87324">
        <ele>1022.13</ele>
        <time>2018-08-26T07:38:05Z</time>
      </trkpt>
      <trkpt lat="44.08497" lon="6.87298">
        <ele>1019.99</ele>
        <time>2018-08-26T07:38:07Z</time>
      </trkpt>
      <trkpt lat="44.08505" lon="6.87268">
        <ele>1017.77</ele>
        <time>2018-08-26T07:38:09Z</time>
      </trkpt>
      <trkpt lat="44.08506" lon="6.87232">
        <ele>1015.96</ele>
        <time>2018-08-26T07:38:11Z</time>
      </trkpt>
      <trkpt lat="44.08509" lon="6.87199">
        <ele>1015.79</ele>
        <time>2018-08-26T07:38:13Z</time>
      </trkpt>
      <trkpt lat="44.08516" lon="6.87165">
        <ele>1013.96</ele>
        <time>2018-08-26T07:38:15Z</time>
      </trkpt>
      <trkpt lat="44.08513" lon="6.87131">
        <ele>1011.77</ele>
        <time>2018-08-26T07:38:17Z</time>
      </trkpt>
      <trkpt lat="44.08508" lon="6.87096">
        <ele>1009.05</ele>
        <time>2018-08-26T07:38:19Z</time>
      </trkpt>
      <trkpt lat="44.08508" lon="6.87061">
        <ele>1007.19</ele>
        <time>2018-08-26T07:38:21Z</time>
      </trkpt>
      <trkpt lat="44.0851" lon="6.87024">
        <ele>1004.09</ele>
        <time>2018-08-26T07:38:23Z</time>
      </trkpt>
      <trkpt lat="44.08505" lon="6.86982">
        <ele>1001.78</ele>
        <time>2018-08-26T07:38:25Z</time>
      </trkpt>
      <trkpt lat="44.08499" lon="6.86939">
        <ele>999.96</ele>
        <time>2018-08-26T07:38:27Z</time>
      </trkpt>
      <trkpt lat="44.08493" lon="6.86894">
        <ele>996.36</ele>
        <time>2018-08-26T07:38:29Z</time>
      </trkpt>
      <trkpt lat="44.08482" lon="6.86853">
        <ele>994.01</ele>
        <time>2018-08-26T07:38:31Z</time>
      </trkpt>
      <trkpt lat="44.08469" lon="6.86813">
        <ele>991.98</ele>
        <time>2018-08-26T07:38:33Z</time>
      </trkpt>
      <trkpt lat="44.08458" lon="6.8677">
        <ele>989.07</ele>
        <time>2018-08-26T07:38:35Z</time>
      </trkpt>
      <trkpt lat="44.08446" lon="6.86725">
        <ele>985.58</ele>
        <time>2018-08-26T07:38:37Z</time>
      </trkpt>
      <trkpt lat="44.08434" lon="6.86681">
        <ele>983.24</ele>
        <time>2018-08-26T07:38:39Z</time>
      </trkpt>
      <trkpt lat="44.08428" lon="6.86637">
        <ele>981</ele>
        <time>2018-08-26T07:38:41Z</time>
      </trkpt>
      <trkpt lat="44.08428" lon="6.86612">
        <ele>979.98</ele>
        <time>2018-08-26T07:38:42Z</time>
      </trkpt>
      <trkpt lat="44.08429" lon="6.86585">
        <ele>978.28</ele>
        <time>2018-08-26T07:38:43Z</time>
      </trkpt>
      <trkpt lat="44.08431" lon="6.86558">
        <ele>976.37</ele>
        <time>2018-08-26T07:38:44Z</time>
      </trkpt>
      <trkpt lat="44.08431" lon="6.8653">
        <ele>973.69</ele>
        <time>2018-08-26T07:38:45Z</time>
      </trkpt>
      <trkpt lat="44.08429" lon="6.86502">
        <ele>970.79</ele>
        <time>2018-08-26T07:38:46Z</time>
      </trkpt>
      <trkpt lat="44.08428" lon="6.86475">
        <ele>969.22</ele>
        <time>2018-08-26T07:38:47Z</time>
      </trkpt>
      <trkpt lat="44.08426" lon="6.86448">
        <ele>967.35</ele>
        <time>2018-08-26T07:38:48Z</time>
      </trkpt>
      <trkpt lat="44.08424" lon="6.86421">
        <ele>965.39</ele>
        <time>2018-08-26T07:38:49Z</time>
      </trkpt>
      <trkpt lat="44.08423" lon="6.86375">
        <ele>962.1</ele>
        <time>2018-08-26T07:38:51Z</time>
      </trkpt>
      <trkpt lat="44.08414" lon="6.86333">
        <ele>959.29</ele>
        <time>2018-08-26T07:38:53Z</time>
      </trkpt>
      <trkpt lat="44.08399" lon="6.86291">
        <ele>956.3</ele>
        <time>2018-08-26T07:38:55Z</time>
      </trkpt>
      <trkpt lat="44.0839" lon="6.86268">
        <ele>954.38</ele>
        <time>2018-08-26T07:38:56Z</time>
      </trkpt>
      <trkpt lat="44.08383" lon="6.86244">
        <ele>953.1</ele>
        <time>2018-08-26T07:38:57Z</time>
      </trkpt>
      <trkpt lat="44.08376" lon="6.8622">
        <ele>952.01</ele>
        <time>2018-08-26T07:38:58Z</time>
      </trkpt>
      <trkpt lat="44.08369" lon="6.86196">
        <ele>951.69</ele>
        <time>2018-08-26T07:38:59Z</time>
      </trkpt>
      <trkpt lat="44.08356" lon="6.86152">
        <ele>950.65</ele>
        <time>2018-08-26T07:39:01Z</time>
      </trkpt>
      <trkpt lat="44.08349" lon="6.8612">
        <ele>950.77</ele>
        <time>2018-08-26T07:39:03Z</time>
      </trkpt>
      <trkpt lat="44.08351" lon="6.86091">
        <ele>948.96</ele>
        <time>2018-08-26T07:39:05Z</time>
      </trkpt>
      <trkpt lat="44.08367" lon="6.8606">
        <ele>945.36</ele>
        <time>2018-08-26T07:39:07Z</time>
      </trkpt>
      <trkpt lat="44.08383" lon="6.86027">
        <ele>941.19</ele>
        <time>2018-08-26T07:39:09Z</time>
      </trkpt>
      <trkpt lat="44.084" lon="6.86004">
        <ele>939.91</ele>
        <time>2018-08-26T07:39:11Z</time>
      </trkpt>
      <trkpt lat="44.0842" lon="6.8599">
        <ele>939.58</ele>
        <time>2018-08-26T07:39:13Z</time>
      </trkpt>
      <trkpt lat="44.08443" lon="6.85978">
        <ele>939.55</ele>
        <time>2018-08-26T07:39:15Z</time>
      </trkpt>
      <trkpt lat="44.08467" lon="6.85958">
        <ele>939.55</ele>
        <time>2018-08-26T07:39:17Z</time>
      </trkpt>
      <trkpt lat="44.08491" lon="6.85939">
        <ele>937.66</ele>
        <time>2018-08-26T07:39:19Z</time>
      </trkpt>
      <trkpt lat="44.08517" lon="6.85919">
        <ele>937.35</ele>
        <time>2018-08-26T07:39:21Z</time>
      </trkpt>
      <trkpt lat="44.08543" lon="6.859">
        <ele>936.83</ele>
        <time>2018-08-26T07:39:23Z</time>
      </trkpt>
      <trkpt lat="44.08573" lon="6.85894">
        <ele>935.87</ele>
        <time>2018-08-26T07:39:25Z</time>
      </trkpt>
      <trkpt lat="44.08603" lon="6.85879">
        <ele>933.06</ele>
        <time>2018-08-26T07:39:27Z</time>
      </trkpt>
      <trkpt lat="44.08631" lon="6.85856">
        <ele>931.68</ele>
        <time>2018-08-26T07:39:29Z</time>
      </trkpt>
      <trkpt lat="44.08655" lon="6.85829">
        <ele>929.04</ele>
        <time>2018-08-26T07:39:31Z</time>
      </trkpt>
      <trkpt lat="44.08676" lon="6.85796">
        <ele>927.68</ele>
        <time>2018-08-26T07:39:33Z</time>
      </trkpt>
      <trkpt lat="44.08697" lon="6.85774">
        <ele>927.56</ele>
        <time>2018-08-26T07:39:35Z</time>
      </trkpt>
      <trkpt lat="44.0872" lon="6.85766">
        <ele>925.24</ele>
        <time>2018-08-26T07:39:37Z</time>
      </trkpt>
      <trkpt lat="44.08744" lon="6.85762">
        <ele>924.4</ele>
        <time>2018-08-26T07:39:39Z</time>
      </trkpt>
      <trkpt lat="44.08774" lon="6.85765">
        <ele>923.83</ele>
        <time>2018-08-26T07:39:41Z</time>
      </trkpt>
      <trkpt lat="44.08807" lon="6.8577">
        <ele>920.14</ele>
        <time>2018-08-26T07:39:43Z</time>
      </trkpt>
      <trkpt lat="44.08837" lon="6.8577">
        <ele>917.08</ele>
        <time>2018-08-26T07:39:45Z</time>
      </trkpt>
      <trkpt lat="44.08864" lon="6.85778">
        <ele>913.17</ele>
        <time>2018-08-26T07:39:47Z</time>
      </trkpt>
      <trkpt lat="44.08883" lon="6.85805">
        <ele>904.76</ele>
        <time>2018-08-26T07:39:49Z</time>
      </trkpt>
      <trkpt lat="44.08901" lon="6.85833">
        <ele>897.92</ele>
        <time>2018-08-26T07:39:51Z</time>
      </trkpt>
      <trkpt lat="44.0892" lon="6.85843">
        <ele>894.97</ele>
        <time>2018-08-26T07:39:54Z</time>
      </trkpt>
      <trkpt lat="44.08907" lon="6.85814">
        <ele>891.7</ele>
        <time>2018-08-26T07:39:58Z</time>
      </trkpt>
      <trkpt lat="44.08894" lon="6.85794">
        <ele>890.65</ele>
        <time>2018-08-26T07:40:00Z</time>
      </trkpt>
      <trkpt lat="44.08884" lon="6.85763">
        <ele>890.56</ele>
        <time>2018-08-26T07:40:02Z</time>
      </trkpt>
      <trkpt lat="44.08867" lon="6.85743">
        <ele>885.3</ele>
        <time>2018-08-26T07:40:04Z</time>
      </trkpt>
      <trkpt lat="44.08844" lon="6.8573">
        <ele>882.31</ele>
        <time>2018-08-26T07:40:06Z</time>
      </trkpt>
      <trkpt lat="44.0882" lon="6.85712">
        <ele>882.53</ele>
        <time>2018-08-26T07:40:08Z</time>
      </trkpt>
      <trkpt lat="44.088" lon="6.85682">
        <ele>881.85</ele>
        <time>2018-08-26T07:40:10Z</time>
      </trkpt>
      <trkpt lat="44.08779" lon="6.85657">
        <ele>879.75</ele>
        <time>2018-08-26T07:40:12Z</time>
      </trkpt>
      <trkpt lat="44.08751" lon="6.8564">
        <ele>876.35</ele>
        <time>2018-08-26T07:40:14Z</time>
      </trkpt>
      <trkpt lat="44.08723" lon="6.85627">
        <ele>874.71</ele>
        <time>2018-08-26T07:40:16Z</time>
      </trkpt>
      <trkpt lat="44.08693" lon="6.85624">
        <ele>873.65</ele>
        <time>2018-08-26T07:40:18Z</time>
      </trkpt>
      <trkpt lat="44.08665" lon="6.85616">
        <ele>871.95</ele>
        <time>2018-08-26T07:40:20Z</time>
      </trkpt>
      <trkpt lat="44.08637" lon="6.85614">
        <ele>870.88</ele>
        <time>2018-08-26T07:40:22Z</time>
      </trkpt>
      <trkpt lat="44.0861" lon="6.85625">
        <ele>868.76</ele>
        <time>2018-08-26T07:40:24Z</time>
      </trkpt>
      <trkpt lat="44.08587" lon="6.85643">
        <ele>867.87</ele>
        <time>2018-08-26T07:40:26Z</time>
      </trkpt>
      <trkpt lat="44.08566" lon="6.85671">
        <ele>864.36</ele>
        <time>2018-08-26T07:40:28Z</time>
      </trkpt>
      <trkpt lat="44.08541" lon="6.85695">
        <ele>862.71</ele>
        <time>2018-08-26T07:40:30Z</time>
      </trkpt>
      <trkpt lat="44.08521" lon="6.85721">
        <ele>862.56</ele>
        <time>2018-08-26T07:40:32Z</time>
      </trkpt>
      <trkpt lat="44.08506" lon="6.85757">
        <ele>860.94</ele>
        <time>2018-08-26T07:40:34Z</time>
      </trkpt>
      <trkpt lat="44.08491" lon="6.85793">
        <ele>858.06</ele>
        <time>2018-08-26T07:40:36Z</time>
      </trkpt>
      <trkpt lat="44.0848" lon="6.85821">
        <ele>855.07</ele>
        <time>2018-08-26T07:40:38Z</time>
      </trkpt>
      <trkpt lat="44.08468" lon="6.85847">
        <ele>852.46</ele>
        <time>2018-08-26T07:40:41Z</time>
      </trkpt>
      <trkpt lat="44.08482" lon="6.85808">
        <ele>849.25</ele>
        <time>2018-08-26T07:40:45Z</time>
      </trkpt>
      <trkpt lat="44.08494" lon="6.85771">
        <ele>846.09</ele>
        <time>2018-08-26T07:40:47Z</time>
      </trkpt>
      <trkpt lat="44.08504" lon="6.85733">
        <ele>843.08</ele>
        <time>2018-08-26T07:40:49Z</time>
      </trkpt>
      <trkpt lat="44.08514" lon="6.85697">
        <ele>840.29</ele>
        <time>2018-08-26T07:40:51Z</time>
      </trkpt>
      <trkpt lat="44.0853" lon="6.85665">
        <ele>837.09</ele>
        <time>2018-08-26T07:40:53Z</time>
      </trkpt>
      <trkpt lat="44.08546" lon="6.85634">
        <ele>833.38</ele>
        <time>2018-08-26T07:40:55Z</time>
      </trkpt>
      <trkpt lat="44.0856" lon="6.856">
        <ele>831.01</ele>
        <time>2018-08-26T07:40:57Z</time>
      </trkpt>
      <trkpt lat="44.08577" lon="6.85568">
        <ele>828.77</ele>
        <time>2018-08-26T07:40:59Z</time>
      </trkpt>
      <trkpt lat="44.08592" lon="6.8554">
        <ele>826.05</ele>
        <time>2018-08-26T07:41:01Z</time>
      </trkpt>
      <trkpt lat="44.0861" lon="6.85512">
        <ele>823.77</ele>
        <time>2018-08-26T07:41:03Z</time>
      </trkpt>
      <trkpt lat="44.08632" lon="6.85493">
        <ele>821.26</ele>
        <time>2018-08-26T07:41:05Z</time>
      </trkpt>
      <trkpt lat="44.08654" lon="6.85478">
        <ele>820.61</ele>
        <time>2018-08-26T07:41:07Z</time>
      </trkpt>
      <trkpt lat="44.08677" lon="6.85473">
        <ele>818.03</ele>
        <time>2018-08-26T07:41:09Z</time>
      </trkpt>
      <trkpt lat="44.08698" lon="6.8546">
        <ele>816.89</ele>
        <time>2018-08-26T07:41:11Z</time>
      </trkpt>
      <trkpt lat="44.08713" lon="6.85437">
        <ele>815.67</ele>
        <time>2018-08-26T07:41:13Z</time>
      </trkpt>
      <trkpt lat="44.08719" lon="6.85411">
        <ele>813.95</ele>
        <time>2018-08-26T07:41:15Z</time>
      </trkpt>
      <trkpt lat="44.08729" lon="6.85385">
        <ele>811.06</ele>
        <time>2018-08-26T07:41:17Z</time>
      </trkpt>
      <trkpt lat="44.08747" lon="6.85368">
        <ele>809.89</ele>
        <time>2018-08-26T07:41:19Z</time>
      </trkpt>
      <trkpt lat="44.08767" lon="6.85358">
        <ele>808.67</ele>
        <time>2018-08-26T07:41:21Z</time>
      </trkpt>
      <trkpt lat="44.08782" lon="6.85375">
        <ele>806.74</ele>
        <time>2018-08-26T07:41:23Z</time>
      </trkpt>
      <trkpt lat="44.08803" lon="6.8539">
        <ele>804.03</ele>
        <time>2018-08-26T07:41:26Z</time>
      </trkpt>
      <trkpt lat="44.08822" lon="6.85386">
        <ele>802.56</ele>
        <time>2018-08-26T07:41:30Z</time>
      </trkpt>
      <trkpt lat="44.08839" lon="6.85381">
        <ele>801.85</ele>
        <time>2018-08-26T07:41:33Z</time>
      </trkpt>
      <trkpt lat="44.08863" lon="6.85375">
        <ele>800.64</ele>
        <time>2018-08-26T07:41:37Z</time>
      </trkpt>
      <trkpt lat="44.08881" lon="6.85371">
        <ele>800.34</ele>
        <time>2018-08-26T07:41:40Z</time>
      </trkpt>
      <trkpt lat="44.089" lon="6.85366">
        <ele>799.57</ele>
        <time>2018-08-26T07:41:43Z</time>
      </trkpt>
      <trkpt lat="44.08921" lon="6.8536">
        <ele>798.58</ele>
        <time>2018-08-26T07:41:46Z</time>
      </trkpt>
      <trkpt lat="44.08946" lon="6.85353">
        <ele>797.58</ele>
        <time>2018-08-26T07:41:49Z</time>
      </trkpt>
      <trkpt lat="44.08966" lon="6.85352">
        <ele>797.76</ele>
        <time>2018-08-26T07:41:52Z</time>
      </trkpt>
      <trkpt lat="44.08986" lon="6.85344">
        <ele>796.85</ele>
        <time>2018-08-26T07:41:55Z</time>
      </trkpt>
      <trkpt lat="44.09008" lon="6.85339">
        <ele>796.56</ele>
        <time>2018-08-26T07:41:58Z</time>
      </trkpt>
      <trkpt lat="44.09027" lon="6.85333">
        <ele>797.46</ele>
        <time>2018-08-26T07:42:01Z</time>
      </trkpt>
      <trkpt lat="44.09046" lon="6.85322">
        <ele>798.53</ele>
        <time>2018-08-26T07:42:08Z</time>
      </trkpt>
      <trkpt lat="44.09064" lon="6.8531">
        <ele>801.42</ele>
        <time>2018-08-26T07:42:12Z</time>
      </trkpt>
      <trkpt lat="44.09083" lon="6.853">
        <ele>801.82</ele>
        <time>2018-08-26T07:42:15Z</time>
      </trkpt>
      <trkpt lat="44.09107" lon="6.85285">
        <ele>801.56</ele>
        <time>2018-08-26T07:42:18Z</time>
      </trkpt>
      <trkpt lat="44.09124" lon="6.85278">
        <ele>801.55</ele>
        <time>2018-08-26T07:42:20Z</time>
      </trkpt>
      <trkpt lat="44.09142" lon="6.8527">
        <ele>802.95</ele>
        <time>2018-08-26T07:42:22Z</time>
      </trkpt>
      <trkpt lat="44.0916" lon="6.85261">
        <ele>802.09</ele>
        <time>2018-08-26T07:42:24Z</time>
      </trkpt>
      <trkpt lat="44.09185" lon="6.85247">
        <ele>802.26</ele>
        <time>2018-08-26T07:42:27Z</time>
      </trkpt>
      <trkpt lat="44.09202" lon="6.85239">
        <ele>803.22</ele>
        <time>2018-08-26T07:42:29Z</time>
      </trkpt>
      <trkpt lat="44.09221" lon="6.85231">
        <ele>803.52</ele>
        <time>2018-08-26T07:42:31Z</time>
      </trkpt>
      <trkpt lat="44.09247" lon="6.85221">
        <ele>805.49</ele>
        <time>2018-08-26T07:42:34Z</time>
      </trkpt>
      <trkpt lat="44.09273" lon="6.85225">
        <ele>805.55</ele>
        <time>2018-08-26T07:42:37Z</time>
      </trkpt>
      <trkpt lat="44.09297" lon="6.85242">
        <ele>806.39</ele>
        <time>2018-08-26T07:42:40Z</time>
      </trkpt>
      <trkpt lat="44.09317" lon="6.85249">
        <ele>806.53</ele>
        <time>2018-08-26T07:42:42Z</time>
      </trkpt>
      <trkpt lat="44.09343" lon="6.8525">
        <ele>808.37</ele>
        <time>2018-08-26T07:42:45Z</time>
      </trkpt>
      <trkpt lat="44.09361" lon="6.85247">
        <ele>808.53</ele>
        <time>2018-08-26T07:42:47Z</time>
      </trkpt>
      <trkpt lat="44.0938" lon="6.85246">
        <ele>808.06</ele>
        <time>2018-08-26T07:42:49Z</time>
      </trkpt>
      <trkpt lat="44.09406" lon="6.85247">
        <ele>808.26</ele>
        <time>2018-08-26T07:42:52Z</time>
      </trkpt>
      <trkpt lat="44.09423" lon="6.85236">
        <ele>810.13</ele>
        <time>2018-08-26T07:42:54Z</time>
      </trkpt>
      <trkpt lat="44.09447" lon="6.8522">
        <ele>812.12</ele>
        <time>2018-08-26T07:42:56Z</time>
      </trkpt>
      <trkpt lat="44.09476" lon="6.85209">
        <ele>809.71</ele>
        <time>2018-08-26T07:42:58Z</time>
      </trkpt>
      <trkpt lat="44.09505" lon="6.85195">
        <ele>809.35</ele>
        <time>2018-08-26T07:43:00Z</time>
      </trkpt>
      <trkpt lat="44.09533" lon="6.85171">
        <ele>810.23</ele>
        <time>2018-08-26T07:43:02Z</time>
      </trkpt>
      <trkpt lat="44.09561" lon="6.85149">
        <ele>810.52</ele>
        <time>2018-08-26T07:43:04Z</time>
      </trkpt>
      <trkpt lat="44.09588" lon="6.85126">
        <ele>810.55</ele>
        <time>2018-08-26T07:43:06Z</time>
      </trkpt>
      <trkpt lat="44.0962" lon="6.85089">
        <ele>811.46</ele>
        <time>2018-08-26T07:43:08Z</time>
      </trkpt>
      <trkpt lat="44.09636" lon="6.85072">
        <ele>812.92</ele>
        <time>2018-08-26T07:43:09Z</time>
      </trkpt>
      <trkpt lat="44.0965" lon="6.85055">
        <ele>814.76</ele>
        <time>2018-08-26T07:43:10Z</time>
      </trkpt>
      <trkpt lat="44.09663" lon="6.85036">
        <ele>815.31</ele>
        <time>2018-08-26T07:43:11Z</time>
      </trkpt>
      <trkpt lat="44.09677" lon="6.85017">
        <ele>816.18</ele>
        <time>2018-08-26T07:43:12Z</time>
      </trkpt>
      <trkpt lat="44.09693" lon="6.85005">
        <ele>815.74</ele>
        <time>2018-08-26T07:43:13Z</time>
      </trkpt>
      <trkpt lat="44.0971" lon="6.84993">
        <ele>816.3</ele>
        <time>2018-08-26T07:43:14Z</time>
      </trkpt>
      <trkpt lat="44.09729" lon="6.8498">
        <ele>819.27</ele>
        <time>2018-08-26T07:43:15Z</time>
      </trkpt>
      <trkpt lat="44.09746" lon="6.84969">
        <ele>820.17</ele>
        <time>2018-08-26T07:43:16Z</time>
      </trkpt>
      <trkpt lat="44.09765" lon="6.8496">
        <ele>821.83</ele>
        <time>2018-08-26T07:43:17Z</time>
      </trkpt>
      <trkpt lat="44.09784" lon="6.8495">
        <ele>823.73</ele>
        <time>2018-08-26T07:43:18Z</time>
      </trkpt>
      <trkpt lat="44.09802" lon="6.84942">
        <ele>825</ele>
        <time>2018-08-26T07:43:19Z</time>
      </trkpt>
      <trkpt lat="44.09819" lon="6.84931">
        <ele>824.68</ele>
        <time>2018-08-26T07:43:20Z</time>
      </trkpt>
      <trkpt lat="44.09852" lon="6.84921">
        <ele>825.47</ele>
        <time>2018-08-26T07:43:22Z</time>
      </trkpt>
      <trkpt lat="44.09888" lon="6.84917">
        <ele>826.45</ele>
        <time>2018-08-26T07:43:24Z</time>
      </trkpt>
      <trkpt lat="44.09906" lon="6.8491">
        <ele>827.22</ele>
        <time>2018-08-26T07:43:25Z</time>
      </trkpt>
      <trkpt lat="44.09925" lon="6.84904">
        <ele>827.45</ele>
        <time>2018-08-26T07:43:26Z</time>
      </trkpt>
      <trkpt lat="44.09944" lon="6.84898">
        <ele>828.22</ele>
        <time>2018-08-26T07:43:27Z</time>
      </trkpt>
      <trkpt lat="44.09964" lon="6.84893">
        <ele>829.15</ele>
        <time>2018-08-26T07:43:28Z</time>
      </trkpt>
      <trkpt lat="44.09981" lon="6.84885">
        <ele>830.13</ele>
        <time>2018-08-26T07:43:29Z</time>
      </trkpt>
      <trkpt lat="44.10012" lon="6.84879">
        <ele>832.12</ele>
        <time>2018-08-26T07:43:31Z</time>
      </trkpt>
      <trkpt lat="44.1004" lon="6.84865">
        <ele>834.12</ele>
        <time>2018-08-26T07:43:33Z</time>
      </trkpt>
      <trkpt lat="44.10067" lon="6.8485">
        <ele>836.12</ele>
        <time>2018-08-26T07:43:35Z</time>
      </trkpt>
      <trkpt lat="44.10096" lon="6.84843">
        <ele>835.81</ele>
        <time>2018-08-26T07:43:37Z</time>
      </trkpt>
      <trkpt lat="44.10124" lon="6.84861">
        <ele>836.27</ele>
        <time>2018-08-26T07:43:39Z</time>
      </trkpt>
      <trkpt lat="44.10139" lon="6.84878">
        <ele>837.87</ele>
        <time>2018-08-26T07:43:40Z</time>
      </trkpt>
      <trkpt lat="44.10158" lon="6.84889">
        <ele>838.34</ele>
        <time>2018-08-26T07:43:41Z</time>
      </trkpt>
      <trkpt lat="44.10176" lon="6.84898">
        <ele>838.49</ele>
        <time>2018-08-26T07:43:42Z</time>
      </trkpt>
      <trkpt lat="44.10193" lon="6.84907">
        <ele>838.53</ele>
        <time>2018-08-26T07:43:43Z</time>
      </trkpt>
      <trkpt lat="44.10211" lon="6.84914">
        <ele>839.24</ele>
        <time>2018-08-26T07:43:44Z</time>
      </trkpt>
      <trkpt lat="44.10231" lon="6.84919">
        <ele>839.46</ele>
        <time>2018-08-26T07:43:45Z</time>
      </trkpt>
      <trkpt lat="44.10252" lon="6.84924">
        <ele>839.52</ele>
        <time>2018-08-26T07:43:46Z</time>
      </trkpt>
      <trkpt lat="44.10272" lon="6.84928">
        <ele>840.24</ele>
        <time>2018-08-26T07:43:47Z</time>
      </trkpt>
      <trkpt lat="44.10292" lon="6.84931">
        <ele>841.16</ele>
        <time>2018-08-26T07:43:48Z</time>
      </trkpt>
      <trkpt lat="44.10312" lon="6.84934">
        <ele>842.13</ele>
        <time>2018-08-26T07:43:49Z</time>
      </trkpt>
      <trkpt lat="44.10346" lon="6.84941">
        <ele>844.12</ele>
        <time>2018-08-26T07:43:51Z</time>
      </trkpt>
      <trkpt lat="44.10372" lon="6.84944">
        <ele>846.12</ele>
        <time>2018-08-26T07:43:53Z</time>
      </trkpt>
      <trkpt lat="44.10392" lon="6.84941">
        <ele>846.51</ele>
        <time>2018-08-26T07:43:55Z</time>
      </trkpt>
      <trkpt lat="44.10413" lon="6.84921">
        <ele>848.16</ele>
        <time>2018-08-26T07:43:58Z</time>
      </trkpt>
      <trkpt lat="44.10409" lon="6.8489">
        <ele>849.13</ele>
        <time>2018-08-26T07:43:59Z</time>
      </trkpt>
      <trkpt lat="44.1042" lon="6.84857">
        <ele>851.12</ele>
        <time>2018-08-26T07:44:01Z</time>
      </trkpt>
      <trkpt lat="44.10437" lon="6.8483">
        <ele>852.42</ele>
        <time>2018-08-26T07:44:03Z</time>
      </trkpt>
      <trkpt lat="44.10457" lon="6.84797">
        <ele>853.94</ele>
        <time>2018-08-26T07:44:05Z</time>
      </trkpt>
      <trkpt lat="44.10477" lon="6.84762">
        <ele>856.1</ele>
        <time>2018-08-26T07:44:07Z</time>
      </trkpt>
      <trkpt lat="44.10499" lon="6.84731">
        <ele>857.21</ele>
        <time>2018-08-26T07:44:09Z</time>
      </trkpt>
      <trkpt lat="44.1052" lon="6.84701">
        <ele>857.52</ele>
        <time>2018-08-26T07:44:11Z</time>
      </trkpt>
      <trkpt lat="44.1054" lon="6.84672">
        <ele>860.07</ele>
        <time>2018-08-26T07:44:13Z</time>
      </trkpt>
      <trkpt lat="44.10562" lon="6.84646">
        <ele>862.6</ele>
        <time>2018-08-26T07:44:15Z</time>
      </trkpt>
      <trkpt lat="44.10584" lon="6.8462">
        <ele>865.28</ele>
        <time>2018-08-26T07:44:17Z</time>
      </trkpt>
      <trkpt lat="44.10603" lon="6.84596">
        <ele>867.34</ele>
        <time>2018-08-26T07:44:19Z</time>
      </trkpt>
      <trkpt lat="44.10618" lon="6.84561">
        <ele>867.74</ele>
        <time>2018-08-26T07:44:21Z</time>
      </trkpt>
      <trkpt lat="44.10631" lon="6.84522">
        <ele>866.66</ele>
        <time>2018-08-26T07:44:23Z</time>
      </trkpt>
      <trkpt lat="44.10644" lon="6.84482">
        <ele>867.26</ele>
        <time>2018-08-26T07:44:25Z</time>
      </trkpt>
      <trkpt lat="44.10649" lon="6.84449">
        <ele>867.73</ele>
        <time>2018-08-26T07:44:27Z</time>
      </trkpt>
      <trkpt lat="44.10659" lon="6.8442">
        <ele>866.44</ele>
        <time>2018-08-26T07:44:29Z</time>
      </trkpt>
      <trkpt lat="44.10672" lon="6.84389">
        <ele>865.57</ele>
        <time>2018-08-26T07:44:32Z</time>
      </trkpt>
      <trkpt lat="44.10666" lon="6.84356">
        <ele>865.55</ele>
        <time>2018-08-26T07:44:34Z</time>
      </trkpt>
      <trkpt lat="44.10675" lon="6.84323">
        <ele>865.55</ele>
        <time>2018-08-26T07:44:36Z</time>
      </trkpt>
      <trkpt lat="44.10688" lon="6.84284">
        <ele>865.55</ele>
        <time>2018-08-26T07:44:38Z</time>
      </trkpt>
      <trkpt lat="44.10704" lon="6.84238">
        <ele>866.25</ele>
        <time>2018-08-26T07:44:40Z</time>
      </trkpt>
      <trkpt lat="44.10712" lon="6.84215">
        <ele>866.46</ele>
        <time>2018-08-26T07:44:41Z</time>
      </trkpt>
      <trkpt lat="44.10719" lon="6.8419">
        <ele>866.52</ele>
        <time>2018-08-26T07:44:42Z</time>
      </trkpt>
      <trkpt lat="44.10725" lon="6.84144">
        <ele>868.16</ele>
        <time>2018-08-26T07:44:44Z</time>
      </trkpt>
      <trkpt lat="44.10737" lon="6.84107">
        <ele>869.42</ele>
        <time>2018-08-26T07:44:46Z</time>
      </trkpt>
      <trkpt lat="44.10753" lon="6.84071">
        <ele>870.45</ele>
        <time>2018-08-26T07:44:48Z</time>
      </trkpt>
      <trkpt lat="44.10767" lon="6.84036">
        <ele>870.33</ele>
        <time>2018-08-26T07:44:50Z</time>
      </trkpt>
      <trkpt lat="44.10779" lon="6.84005">
        <ele>871.23</ele>
        <time>2018-08-26T07:44:52Z</time>
      </trkpt>
      <trkpt lat="44.10783" lon="6.83968">
        <ele>870.82</ele>
        <time>2018-08-26T07:44:54Z</time>
      </trkpt>
      <trkpt lat="44.10787" lon="6.83935">
        <ele>870.78</ele>
        <time>2018-08-26T07:44:56Z</time>
      </trkpt>
      <trkpt lat="44.10799" lon="6.839">
        <ele>870.78</ele>
        <time>2018-08-26T07:44:58Z</time>
      </trkpt>
      <trkpt lat="44.10809" lon="6.83865">
        <ele>871.27</ele>
        <time>2018-08-26T07:45:00Z</time>
      </trkpt>
      <trkpt lat="44.10821" lon="6.83837">
        <ele>872.22</ele>
        <time>2018-08-26T07:45:02Z</time>
      </trkpt>
      <trkpt lat="44.10843" lon="6.83817">
        <ele>873.22</ele>
        <time>2018-08-26T07:45:04Z</time>
      </trkpt>
      <trkpt lat="44.10868" lon="6.83797">
        <ele>874.22</ele>
        <time>2018-08-26T07:45:06Z</time>
      </trkpt>
      <trkpt lat="44.10896" lon="6.83784">
        <ele>874.73</ele>
        <time>2018-08-26T07:45:08Z</time>
      </trkpt>
      <trkpt lat="44.10924" lon="6.83777">
        <ele>874.56</ele>
        <time>2018-08-26T07:45:10Z</time>
      </trkpt>
      <trkpt lat="44.10953" lon="6.83764">
        <ele>873.64</ele>
        <time>2018-08-26T07:45:12Z</time>
      </trkpt>
      <trkpt lat="44.10986" lon="6.83742">
        <ele>872.86</ele>
        <time>2018-08-26T07:45:14Z</time>
      </trkpt>
      <trkpt lat="44.11002" lon="6.8373">
        <ele>872.64</ele>
        <time>2018-08-26T07:45:15Z</time>
      </trkpt>
      <trkpt lat="44.11019" lon="6.83721">
        <ele>872.58</ele>
        <time>2018-08-26T07:45:16Z</time>
      </trkpt>
      <trkpt lat="44.11053" lon="6.83705">
        <ele>871.64</ele>
        <time>2018-08-26T07:45:18Z</time>
      </trkpt>
      <trkpt lat="44.11088" lon="6.83698">
        <ele>870.65</ele>
        <time>2018-08-26T07:45:20Z</time>
      </trkpt>
      <trkpt lat="44.11124" lon="6.83696">
        <ele>870.56</ele>
        <time>2018-08-26T07:45:22Z</time>
      </trkpt>
      <trkpt lat="44.11142" lon="6.83694">
        <ele>870.55</ele>
        <time>2018-08-26T07:45:23Z</time>
      </trkpt>
      <trkpt lat="44.11173" lon="6.83688">
        <ele>871.25</ele>
        <time>2018-08-26T07:45:25Z</time>
      </trkpt>
      <trkpt lat="44.11199" lon="6.83682">
        <ele>871.52</ele>
        <time>2018-08-26T07:45:27Z</time>
      </trkpt>
      <trkpt lat="44.11219" lon="6.83658">
        <ele>872.25</ele>
        <time>2018-08-26T07:45:30Z</time>
      </trkpt>
      <trkpt lat="44.11225" lon="6.83631">
        <ele>874.83</ele>
        <time>2018-08-26T07:45:32Z</time>
      </trkpt>
      <trkpt lat="44.11224" lon="6.83606">
        <ele>875.33</ele>
        <time>2018-08-26T07:45:33Z</time>
      </trkpt>
      <trkpt lat="44.11223" lon="6.8357">
        <ele>876.44</ele>
        <time>2018-08-26T07:45:35Z</time>
      </trkpt>
      <trkpt lat="44.11216" lon="6.83543">
        <ele>877.24</ele>
        <time>2018-08-26T07:45:37Z</time>
      </trkpt>
      <trkpt lat="44.11194" lon="6.83518">
        <ele>879.13</ele>
        <time>2018-08-26T07:45:39Z</time>
      </trkpt>
      <trkpt lat="44.1117" lon="6.83489">
        <ele>879.51</ele>
        <time>2018-08-26T07:45:41Z</time>
      </trkpt>
      <trkpt lat="44.11156" lon="6.83473">
        <ele>880.24</ele>
        <time>2018-08-26T07:45:42Z</time>
      </trkpt>
      <trkpt lat="44.1114" lon="6.83458">
        <ele>881.85</ele>
        <time>2018-08-26T07:45:43Z</time>
      </trkpt>
      <trkpt lat="44.11124" lon="6.83443">
        <ele>882.34</ele>
        <time>2018-08-26T07:45:44Z</time>
      </trkpt>
      <trkpt lat="44.11107" lon="6.83429">
        <ele>881.79</ele>
        <time>2018-08-26T07:45:45Z</time>
      </trkpt>
      <trkpt lat="44.11091" lon="6.83416">
        <ele>881.62</ele>
        <time>2018-08-26T07:45:46Z</time>
      </trkpt>
      <trkpt lat="44.11057" lon="6.83402">
        <ele>881.55</ele>
        <time>2018-08-26T07:45:48Z</time>
      </trkpt>
      <trkpt lat="44.11037" lon="6.83403">
        <ele>882.25</ele>
        <time>2018-08-26T07:45:49Z</time>
      </trkpt>
      <trkpt lat="44.11003" lon="6.83397">
        <ele>883.43</ele>
        <time>2018-08-26T07:45:51Z</time>
      </trkpt>
      <trkpt lat="44.10971" lon="6.83382">
        <ele>885.15</ele>
        <time>2018-08-26T07:45:53Z</time>
      </trkpt>
      <trkpt lat="44.10944" lon="6.83361">
        <ele>886.42</ele>
        <time>2018-08-26T07:45:55Z</time>
      </trkpt>
      <trkpt lat="44.10921" lon="6.83334">
        <ele>887.24</ele>
        <time>2018-08-26T07:45:57Z</time>
      </trkpt>
      <trkpt lat="44.10908" lon="6.83297">
        <ele>888.22</ele>
        <time>2018-08-26T07:45:59Z</time>
      </trkpt>
      <trkpt lat="44.10898" lon="6.83254">
        <ele>888.52</ele>
        <time>2018-08-26T07:46:01Z</time>
      </trkpt>
      <trkpt lat="44.10894" lon="6.83229">
        <ele>889.24</ele>
        <time>2018-08-26T07:46:02Z</time>
      </trkpt>
      <trkpt lat="44.10891" lon="6.83202">
        <ele>888.76</ele>
        <time>2018-08-26T07:46:03Z</time>
      </trkpt>
      <trkpt lat="44.10888" lon="6.83177">
        <ele>888.61</ele>
        <time>2018-08-26T07:46:04Z</time>
      </trkpt>
      <trkpt lat="44.10884" lon="6.83128">
        <ele>888.55</ele>
        <time>2018-08-26T07:46:06Z</time>
      </trkpt>
      <trkpt lat="44.10886" lon="6.8308">
        <ele>889.46</ele>
        <time>2018-08-26T07:46:08Z</time>
      </trkpt>
      <trkpt lat="44.10891" lon="6.83037">
        <ele>889.75</ele>
        <time>2018-08-26T07:46:10Z</time>
      </trkpt>
      <trkpt lat="44.10891" lon="6.82996">
        <ele>888.87</ele>
        <time>2018-08-26T07:46:12Z</time>
      </trkpt>
      <trkpt lat="44.10888" lon="6.82953">
        <ele>889.28</ele>
        <time>2018-08-26T07:46:14Z</time>
      </trkpt>
      <trkpt lat="44.10882" lon="6.82908">
        <ele>890.43</ele>
        <time>2018-08-26T07:46:16Z</time>
      </trkpt>
      <trkpt lat="44.10885" lon="6.82858">
        <ele>890.54</ele>
        <time>2018-08-26T07:46:18Z</time>
      </trkpt>
      <trkpt lat="44.10887" lon="6.8281">
        <ele>889.85</ele>
        <time>2018-08-26T07:46:20Z</time>
      </trkpt>
      <trkpt lat="44.10893" lon="6.82767">
        <ele>891.18</ele>
        <time>2018-08-26T07:46:22Z</time>
      </trkpt>
      <trkpt lat="44.10905" lon="6.82726">
        <ele>892.43</ele>
        <time>2018-08-26T07:46:24Z</time>
      </trkpt>
      <trkpt lat="44.10918" lon="6.82687">
        <ele>892.54</ele>
        <time>2018-08-26T07:46:26Z</time>
      </trkpt>
      <trkpt lat="44.10921" lon="6.82647">
        <ele>891.64</ele>
        <time>2018-08-26T07:46:28Z</time>
      </trkpt>
      <trkpt lat="44.10918" lon="6.82606">
        <ele>891.56</ele>
        <time>2018-08-26T07:46:30Z</time>
      </trkpt>
      <trkpt lat="44.10913" lon="6.82561">
        <ele>890.85</ele>
        <time>2018-08-26T07:46:32Z</time>
      </trkpt>
      <trkpt lat="44.10913" lon="6.82512">
        <ele>890.79</ele>
        <time>2018-08-26T07:46:34Z</time>
      </trkpt>
      <trkpt lat="44.10914" lon="6.82461">
        <ele>890.57</ele>
        <time>2018-08-26T07:46:36Z</time>
      </trkpt>
      <trkpt lat="44.10916" lon="6.82436">
        <ele>891.25</ele>
        <time>2018-08-26T07:46:37Z</time>
      </trkpt>
      <trkpt lat="44.10921" lon="6.82411">
        <ele>890.76</ele>
        <time>2018-08-26T07:46:38Z</time>
      </trkpt>
      <trkpt lat="44.1093" lon="6.82369">
        <ele>891.97</ele>
        <time>2018-08-26T07:46:40Z</time>
      </trkpt>
      <trkpt lat="44.10944" lon="6.82334">
        <ele>892.71</ele>
        <time>2018-08-26T07:46:42Z</time>
      </trkpt>
      <trkpt lat="44.10968" lon="6.82303">
        <ele>893.26</ele>
        <time>2018-08-26T07:46:44Z</time>
      </trkpt>
      <trkpt lat="44.1099" lon="6.82275">
        <ele>893.31</ele>
        <time>2018-08-26T07:46:46Z</time>
      </trkpt>
      <trkpt lat="44.11009" lon="6.82256">
        <ele>893.53</ele>
        <time>2018-08-26T07:46:48Z</time>
      </trkpt>
      <trkpt lat="44.11028" lon="6.82231">
        <ele>895.16</ele>
        <time>2018-08-26T07:46:50Z</time>
      </trkpt>
      <trkpt lat="44.11033" lon="6.82203">
        <ele>896.13</ele>
        <time>2018-08-26T07:46:51Z</time>
      </trkpt>
      <trkpt lat="44.11047" lon="6.82164">
        <ele>894.69</ele>
        <time>2018-08-26T07:46:53Z</time>
      </trkpt>
      <trkpt lat="44.11063" lon="6.82126">
        <ele>892.95</ele>
        <time>2018-08-26T07:46:55Z</time>
      </trkpt>
      <trkpt lat="44.11087" lon="6.82089">
        <ele>890.97</ele>
        <time>2018-08-26T07:46:57Z</time>
      </trkpt>
      <trkpt lat="44.11112" lon="6.8206">
        <ele>889.68</ele>
        <time>2018-08-26T07:46:59Z</time>
      </trkpt>
      <trkpt lat="44.11142" lon="6.82046">
        <ele>889.77</ele>
        <time>2018-08-26T07:47:01Z</time>
      </trkpt>
      <trkpt lat="44.11171" lon="6.82037">
        <ele>886.84</ele>
        <time>2018-08-26T07:47:03Z</time>
      </trkpt>
      <trkpt lat="44.11192" lon="6.82024">
        <ele>885.66</ele>
        <time>2018-08-26T07:47:05Z</time>
      </trkpt>
      <trkpt lat="44.11202" lon="6.81996">
        <ele>883.95</ele>
        <time>2018-08-26T07:47:07Z</time>
      </trkpt>
      <trkpt lat="44.11198" lon="6.81965">
        <ele>882.88</ele>
        <time>2018-08-26T07:47:09Z</time>
      </trkpt>
      <trkpt lat="44.11188" lon="6.81933">
        <ele>881.88</ele>
        <time>2018-08-26T07:47:11Z</time>
      </trkpt>
      <trkpt lat="44.11189" lon="6.81902">
        <ele>882.28</ele>
        <time>2018-08-26T07:47:13Z</time>
      </trkpt>
      <trkpt lat="44.11198" lon="6.81867">
        <ele>884.13</ele>
        <time>2018-08-26T07:47:15Z</time>
      </trkpt>
      <trkpt lat="44.11229" lon="6.81835">
        <ele>884.51</ele>
        <time>2018-08-26T07:47:17Z</time>
      </trkpt>
      <trkpt lat="44.11245" lon="6.81817">
        <ele>885.24</ele>
        <time>2018-08-26T07:47:18Z</time>
      </trkpt>
      <trkpt lat="44.11262" lon="6.81797">
        <ele>886.15</ele>
        <time>2018-08-26T07:47:19Z</time>
      </trkpt>
      <trkpt lat="44.1128" lon="6.81777">
        <ele>885.73</ele>
        <time>2018-08-26T07:47:20Z</time>
      </trkpt>
      <trkpt lat="44.11296" lon="6.81755">
        <ele>887.7</ele>
        <time>2018-08-26T07:47:21Z</time>
      </trkpt>
      <trkpt lat="44.11311" lon="6.81733">
        <ele>887.59</ele>
        <time>2018-08-26T07:47:22Z</time>
      </trkpt>
      <trkpt lat="44.11324" lon="6.8171">
        <ele>886.16</ele>
        <time>2018-08-26T07:47:23Z</time>
      </trkpt>
      <trkpt lat="44.11338" lon="6.81688">
        <ele>885.73</ele>
        <time>2018-08-26T07:47:24Z</time>
      </trkpt>
      <trkpt lat="44.11349" lon="6.81665">
        <ele>885.6</ele>
        <time>2018-08-26T07:47:25Z</time>
      </trkpt>
      <trkpt lat="44.1136" lon="6.81639">
        <ele>884.86</ele>
        <time>2018-08-26T07:47:26Z</time>
      </trkpt>
      <trkpt lat="44.11369" lon="6.8161">
        <ele>883.94</ele>
        <time>2018-08-26T07:47:27Z</time>
      </trkpt>
      <trkpt lat="44.11377" lon="6.81581">
        <ele>883.67</ele>
        <time>2018-08-26T07:47:28Z</time>
      </trkpt>
      <trkpt lat="44.11385" lon="6.81551">
        <ele>883.58</ele>
        <time>2018-08-26T07:47:29Z</time>
      </trkpt>
      <trkpt lat="44.11393" lon="6.81522">
        <ele>883.56</ele>
        <time>2018-08-26T07:47:30Z</time>
      </trkpt>
      <trkpt lat="44.114" lon="6.81494">
        <ele>884.25</ele>
        <time>2018-08-26T07:47:31Z</time>
      </trkpt>
      <trkpt lat="44.11408" lon="6.81466">
        <ele>884.46</ele>
        <time>2018-08-26T07:47:32Z</time>
      </trkpt>
      <trkpt lat="44.11416" lon="6.81439">
        <ele>885.22</ele>
        <time>2018-08-26T07:47:33Z</time>
      </trkpt>
      <trkpt lat="44.11424" lon="6.81412">
        <ele>885.45</ele>
        <time>2018-08-26T07:47:34Z</time>
      </trkpt>
      <trkpt lat="44.11432" lon="6.81384">
        <ele>886.22</ele>
        <time>2018-08-26T07:47:35Z</time>
      </trkpt>
      <trkpt lat="44.1144" lon="6.81357">
        <ele>886.45</ele>
        <time>2018-08-26T07:47:36Z</time>
      </trkpt>
      <trkpt lat="44.11447" lon="6.81329">
        <ele>887.92</ele>
        <time>2018-08-26T07:47:37Z</time>
      </trkpt>
      <trkpt lat="44.11454" lon="6.81301">
        <ele>889.76</ele>
        <time>2018-08-26T07:47:38Z</time>
      </trkpt>
      <trkpt lat="44.11461" lon="6.81274">
        <ele>891.01</ele>
        <time>2018-08-26T07:47:39Z</time>
      </trkpt>
      <trkpt lat="44.11467" lon="6.81248">
        <ele>892.09</ele>
        <time>2018-08-26T07:47:40Z</time>
      </trkpt>
      <trkpt lat="44.11474" lon="6.81221">
        <ele>893.81</ele>
        <time>2018-08-26T07:47:41Z</time>
      </trkpt>
      <trkpt lat="44.1148" lon="6.81194">
        <ele>895.73</ele>
        <time>2018-08-26T07:47:42Z</time>
      </trkpt>
      <trkpt lat="44.11487" lon="6.81168">
        <ele>897</ele>
        <time>2018-08-26T07:47:43Z</time>
      </trkpt>
      <trkpt lat="44.11492" lon="6.81142">
        <ele>898.08</ele>
        <time>2018-08-26T07:47:44Z</time>
      </trkpt>
      <trkpt lat="44.11498" lon="6.81115">
        <ele>898.41</ele>
        <time>2018-08-26T07:47:45Z</time>
      </trkpt>
      <trkpt lat="44.11501" lon="6.81086">
        <ele>899.21</ele>
        <time>2018-08-26T07:47:46Z</time>
      </trkpt>
      <trkpt lat="44.11504" lon="6.81057">
        <ele>899.45</ele>
        <time>2018-08-26T07:47:47Z</time>
      </trkpt>
      <trkpt lat="44.11506" lon="6.81028">
        <ele>900.22</ele>
        <time>2018-08-26T07:47:48Z</time>
      </trkpt>
      <trkpt lat="44.11509" lon="6.81">
        <ele>901.15</ele>
        <time>2018-08-26T07:47:49Z</time>
      </trkpt>
      <trkpt lat="44.11511" lon="6.80974">
        <ele>902.13</ele>
        <time>2018-08-26T07:47:50Z</time>
      </trkpt>
      <trkpt lat="44.11519" lon="6.8093">
        <ele>904.12</ele>
        <time>2018-08-26T07:47:52Z</time>
      </trkpt>
      <trkpt lat="44.11533" lon="6.80887">
        <ele>904.51</ele>
        <time>2018-08-26T07:47:54Z</time>
      </trkpt>
      <trkpt lat="44.11547" lon="6.80871">
        <ele>905.24</ele>
        <time>2018-08-26T07:47:55Z</time>
      </trkpt>
      <trkpt lat="44.11569" lon="6.80831">
        <ele>906.43</ele>
        <time>2018-08-26T07:47:57Z</time>
      </trkpt>
      <trkpt lat="44.11577" lon="6.80807">
        <ele>907.21</ele>
        <time>2018-08-26T07:47:58Z</time>
      </trkpt>
      <trkpt lat="44.11584" lon="6.80782">
        <ele>907.45</ele>
        <time>2018-08-26T07:47:59Z</time>
      </trkpt>
      <trkpt lat="44.11589" lon="6.80756">
        <ele>908.22</ele>
        <time>2018-08-26T07:48:00Z</time>
      </trkpt>
      <trkpt lat="44.11595" lon="6.80731">
        <ele>909.15</ele>
        <time>2018-08-26T07:48:01Z</time>
      </trkpt>
      <trkpt lat="44.11602" lon="6.80706">
        <ele>910.13</ele>
        <time>2018-08-26T07:48:02Z</time>
      </trkpt>
      <trkpt lat="44.1161" lon="6.80681">
        <ele>910.42</ele>
        <time>2018-08-26T07:48:03Z</time>
      </trkpt>
      <trkpt lat="44.1162" lon="6.80658">
        <ele>910.51</ele>
        <time>2018-08-26T07:48:04Z</time>
      </trkpt>
      <trkpt lat="44.11628" lon="6.80635">
        <ele>910.54</ele>
        <time>2018-08-26T07:48:05Z</time>
      </trkpt>
      <trkpt lat="44.11643" lon="6.80594">
        <ele>911.46</ele>
        <time>2018-08-26T07:48:07Z</time>
      </trkpt>
      <trkpt lat="44.11664" lon="6.80556">
        <ele>911.54</ele>
        <time>2018-08-26T07:48:09Z</time>
      </trkpt>
      <trkpt lat="44.11686" lon="6.80522">
        <ele>912.25</ele>
        <time>2018-08-26T07:48:11Z</time>
      </trkpt>
      <trkpt lat="44.11703" lon="6.80487">
        <ele>912.52</ele>
        <time>2018-08-26T07:48:13Z</time>
      </trkpt>
      <trkpt lat="44.11721" lon="6.8046">
        <ele>913.25</ele>
        <time>2018-08-26T07:48:15Z</time>
      </trkpt>
      <trkpt lat="44.11747" lon="6.80435">
        <ele>914.43</ele>
        <time>2018-08-26T07:48:17Z</time>
      </trkpt>
      <trkpt lat="44.11778" lon="6.80411">
        <ele>913.63</ele>
        <time>2018-08-26T07:48:19Z</time>
      </trkpt>
      <trkpt lat="44.11796" lon="6.80409">
        <ele>914.27</ele>
        <time>2018-08-26T07:48:20Z</time>
      </trkpt>
      <trkpt lat="44.11827" lon="6.804">
        <ele>915.92</ele>
        <time>2018-08-26T07:48:22Z</time>
      </trkpt>
      <trkpt lat="44.11851" lon="6.80385">
        <ele>916.49</ele>
        <time>2018-08-26T07:48:24Z</time>
      </trkpt>
      <trkpt lat="44.1187" lon="6.80362">
        <ele>916.33</ele>
        <time>2018-08-26T07:48:26Z</time>
      </trkpt>
      <trkpt lat="44.11874" lon="6.80334">
        <ele>917.93</ele>
        <time>2018-08-26T07:48:28Z</time>
      </trkpt>
      <trkpt lat="44.11862" lon="6.80311">
        <ele>917.66</ele>
        <time>2018-08-26T07:48:29Z</time>
      </trkpt>
      <trkpt lat="44.11845" lon="6.80296">
        <ele>918.28</ele>
        <time>2018-08-26T07:48:30Z</time>
      </trkpt>
      <trkpt lat="44.11819" lon="6.80278">
        <ele>919.22</ele>
        <time>2018-08-26T07:48:32Z</time>
      </trkpt>
      <trkpt lat="44.11797" lon="6.80259">
        <ele>920.22</ele>
        <time>2018-08-26T07:48:34Z</time>
      </trkpt>
      <trkpt lat="44.1178" lon="6.80237">
        <ele>920.31</ele>
        <time>2018-08-26T07:48:36Z</time>
      </trkpt>
      <trkpt lat="44.11777" lon="6.80208">
        <ele>922.14</ele>
        <time>2018-08-26T07:48:38Z</time>
      </trkpt>
      <trkpt lat="44.11791" lon="6.80173">
        <ele>922.51</ele>
        <time>2018-08-26T07:48:40Z</time>
      </trkpt>
      <trkpt lat="44.11804" lon="6.80152">
        <ele>924.64</ele>
        <time>2018-08-26T07:48:41Z</time>
      </trkpt>
      <trkpt lat="44.11822" lon="6.80118">
        <ele>926.87</ele>
        <time>2018-08-26T07:48:43Z</time>
      </trkpt>
      <trkpt lat="44.11829" lon="6.80086">
        <ele>930.01</ele>
        <time>2018-08-26T07:48:45Z</time>
      </trkpt>
      <trkpt lat="44.11823" lon="6.8005">
        <ele>932.11</ele>
        <time>2018-08-26T07:48:47Z</time>
      </trkpt>
      <trkpt lat="44.11814" lon="6.80013">
        <ele>933.42</ele>
        <time>2018-08-26T07:48:49Z</time>
      </trkpt>
      <trkpt lat="44.11813" lon="6.79973">
        <ele>936.06</ele>
        <time>2018-08-26T07:48:51Z</time>
      </trkpt>
      <trkpt lat="44.11817" lon="6.79933">
        <ele>937.2</ele>
        <time>2018-08-26T07:48:53Z</time>
      </trkpt>
      <trkpt lat="44.11822" lon="6.79895">
        <ele>940.04</ele>
        <time>2018-08-26T07:48:55Z</time>
      </trkpt>
      <trkpt lat="44.1183" lon="6.79857">
        <ele>942.11</ele>
        <time>2018-08-26T07:48:57Z</time>
      </trkpt>
      <trkpt lat="44.1184" lon="6.79821">
        <ele>944.12</ele>
        <time>2018-08-26T07:48:59Z</time>
      </trkpt>
      <trkpt lat="44.11853" lon="6.79788">
        <ele>945.42</ele>
        <time>2018-08-26T07:49:01Z</time>
      </trkpt>
      <trkpt lat="44.11869" lon="6.79759">
        <ele>945.54</ele>
        <time>2018-08-26T07:49:03Z</time>
      </trkpt>
      <trkpt lat="44.11887" lon="6.79731">
        <ele>945.55</ele>
        <time>2018-08-26T07:49:05Z</time>
      </trkpt>
      <trkpt lat="44.11907" lon="6.79706">
        <ele>945.55</ele>
        <time>2018-08-26T07:49:07Z</time>
      </trkpt>
      <trkpt lat="44.11927" lon="6.79682">
        <ele>946.46</ele>
        <time>2018-08-26T07:49:09Z</time>
      </trkpt>
      <trkpt lat="44.11946" lon="6.79657">
        <ele>947.24</ele>
        <time>2018-08-26T07:49:11Z</time>
      </trkpt>
      <trkpt lat="44.11963" lon="6.79634">
        <ele>949.13</ele>
        <time>2018-08-26T07:49:13Z</time>
      </trkpt>
      <trkpt lat="44.11977" lon="6.79616">
        <ele>950.21</ele>
        <time>2018-08-26T07:49:15Z</time>
      </trkpt>
      <trkpt lat="44.11992" lon="6.79596">
        <ele>950.54</ele>
        <time>2018-08-26T07:49:18Z</time>
      </trkpt>
      <trkpt lat="44.12007" lon="6.79569">
        <ele>952.22</ele>
        <time>2018-08-26T07:49:21Z</time>
      </trkpt>
      <trkpt lat="44.12018" lon="6.79548">
        <ele>951.82</ele>
        <time>2018-08-26T07:49:23Z</time>
      </trkpt>
      <trkpt lat="44.12029" lon="6.79526">
        <ele>951.57</ele>
        <time>2018-08-26T07:49:25Z</time>
      </trkpt>
      <trkpt lat="44.12044" lon="6.79507">
        <ele>952.25</ele>
        <time>2018-08-26T07:49:27Z</time>
      </trkpt>
      <trkpt lat="44.12059" lon="6.79493">
        <ele>953.22</ele>
        <time>2018-08-26T07:49:29Z</time>
      </trkpt>
      <trkpt lat="44.12075" lon="6.7947">
        <ele>954.43</ele>
        <time>2018-08-26T07:49:31Z</time>
      </trkpt>
      <trkpt lat="44.12092" lon="6.79443">
        <ele>954.54</ele>
        <time>2018-08-26T07:49:33Z</time>
      </trkpt>
      <trkpt lat="44.12111" lon="6.79411">
        <ele>955.04</ele>
        <time>2018-08-26T07:49:35Z</time>
      </trkpt>
      <trkpt lat="44.12131" lon="6.79379">
        <ele>956.2</ele>
        <time>2018-08-26T07:49:37Z</time>
      </trkpt>
      <trkpt lat="44.12151" lon="6.79347">
        <ele>956.52</ele>
        <time>2018-08-26T07:49:39Z</time>
      </trkpt>
      <trkpt lat="44.12173" lon="6.79317">
        <ele>956.55</ele>
        <time>2018-08-26T07:49:41Z</time>
      </trkpt>
      <trkpt lat="44.12196" lon="6.79291">
        <ele>956.55</ele>
        <time>2018-08-26T07:49:43Z</time>
      </trkpt>
      <trkpt lat="44.12212" lon="6.79263">
        <ele>957.25</ele>
        <time>2018-08-26T07:49:45Z</time>
      </trkpt>
      <trkpt lat="44.12219" lon="6.79231">
        <ele>956.4</ele>
        <time>2018-08-26T07:49:47Z</time>
      </trkpt>
      <trkpt lat="44.1222" lon="6.79192">
        <ele>956.53</ele>
        <time>2018-08-26T07:49:49Z</time>
      </trkpt>
      <trkpt lat="44.12227" lon="6.79152">
        <ele>955.85</ele>
        <time>2018-08-26T07:49:51Z</time>
      </trkpt>
      <trkpt lat="44.12243" lon="6.79111">
        <ele>954.87</ele>
        <time>2018-08-26T07:49:53Z</time>
      </trkpt>
      <trkpt lat="44.1225" lon="6.79087">
        <ele>954.65</ele>
        <time>2018-08-26T07:49:54Z</time>
      </trkpt>
      <trkpt lat="44.12262" lon="6.7904">
        <ele>956.38</ele>
        <time>2018-08-26T07:49:56Z</time>
      </trkpt>
      <trkpt lat="44.12269" lon="6.79016">
        <ele>955.8</ele>
        <time>2018-08-26T07:49:57Z</time>
      </trkpt>
      <trkpt lat="44.12279" lon="6.78993">
        <ele>955.62</ele>
        <time>2018-08-26T07:49:58Z</time>
      </trkpt>
      <trkpt lat="44.12289" lon="6.78971">
        <ele>955.57</ele>
        <time>2018-08-26T07:49:59Z</time>
      </trkpt>
      <trkpt lat="44.12301" lon="6.78932">
        <ele>955.55</ele>
        <time>2018-08-26T07:50:01Z</time>
      </trkpt>
      <trkpt lat="44.12301" lon="6.78891">
        <ele>954.43</ele>
        <time>2018-08-26T07:50:03Z</time>
      </trkpt>
      <trkpt lat="44.12293" lon="6.78866">
        <ele>954.51</ele>
        <time>2018-08-26T07:50:04Z</time>
      </trkpt>
      <trkpt lat="44.12283" lon="6.78823">
        <ele>953.63</ele>
        <time>2018-08-26T07:50:06Z</time>
      </trkpt>
      <trkpt lat="44.12288" lon="6.78782">
        <ele>954.47</ele>
        <time>2018-08-26T07:50:08Z</time>
      </trkpt>
      <trkpt lat="44.12295" lon="6.78745">
        <ele>955.24</ele>
        <time>2018-08-26T07:50:10Z</time>
      </trkpt>
      <trkpt lat="44.12312" lon="6.78714">
        <ele>954.82</ele>
        <time>2018-08-26T07:50:12Z</time>
      </trkpt>
      <trkpt lat="44.1233" lon="6.78721">
        <ele>955.33</ele>
        <time>2018-08-26T07:50:13Z</time>
      </trkpt>
      <trkpt lat="44.12357" lon="6.78719">
        <ele>955.32</ele>
        <time>2018-08-26T07:50:15Z</time>
      </trkpt>
      <trkpt lat="44.12372" lon="6.78697">
        <ele>956.44</ele>
        <time>2018-08-26T07:50:17Z</time>
      </trkpt>
      <trkpt lat="44.12374" lon="6.78657">
        <ele>956.75</ele>
        <time>2018-08-26T07:50:19Z</time>
      </trkpt>
      <trkpt lat="44.12379" lon="6.78609">
        <ele>958.18</ele>
        <time>2018-08-26T07:50:21Z</time>
      </trkpt>
      <trkpt lat="44.1238" lon="6.7858">
        <ele>958.44</ele>
        <time>2018-08-26T07:50:22Z</time>
      </trkpt>
      <trkpt lat="44.12392" lon="6.78538">
        <ele>960.85</ele>
        <time>2018-08-26T07:50:24Z</time>
      </trkpt>
      <trkpt lat="44.12403" lon="6.78516">
        <ele>960.64</ele>
        <time>2018-08-26T07:50:25Z</time>
      </trkpt>
      <trkpt lat="44.12415" lon="6.78495">
        <ele>960.58</ele>
        <time>2018-08-26T07:50:26Z</time>
      </trkpt>
      <trkpt lat="44.12426" lon="6.78475">
        <ele>960.56</ele>
        <time>2018-08-26T07:50:27Z</time>
      </trkpt>
      <trkpt lat="44.12456" lon="6.78451">
        <ele>963.07</ele>
        <time>2018-08-26T07:50:29Z</time>
      </trkpt>
      <trkpt lat="44.12474" lon="6.78453">
        <ele>964.8</ele>
        <time>2018-08-26T07:50:30Z</time>
      </trkpt>
      <trkpt lat="44.12504" lon="6.78443">
        <ele>965.48</ele>
        <time>2018-08-26T07:50:32Z</time>
      </trkpt>
      <trkpt lat="44.12526" lon="6.78412">
        <ele>967.15</ele>
        <time>2018-08-26T07:50:34Z</time>
      </trkpt>
      <trkpt lat="44.12532" lon="6.78383">
        <ele>967.43</ele>
        <time>2018-08-26T07:50:35Z</time>
      </trkpt>
      <trkpt lat="44.1255" lon="6.78345">
        <ele>966.63</ele>
        <time>2018-08-26T07:50:37Z</time>
      </trkpt>
      <trkpt lat="44.12575" lon="6.78316">
        <ele>966.77</ele>
        <time>2018-08-26T07:50:39Z</time>
      </trkpt>
      <trkpt lat="44.12587" lon="6.78296">
        <ele>966.61</ele>
        <time>2018-08-26T07:50:40Z</time>
      </trkpt>
      <trkpt lat="44.1261" lon="6.78259">
        <ele>966.55</ele>
        <time>2018-08-26T07:50:42Z</time>
      </trkpt>
      <trkpt lat="44.12635" lon="6.78229">
        <ele>967.46</ele>
        <time>2018-08-26T07:50:44Z</time>
      </trkpt>
      <trkpt lat="44.12658" lon="6.78213">
        <ele>970.06</ele>
        <time>2018-08-26T07:50:46Z</time>
      </trkpt>
      <trkpt lat="44.1268" lon="6.78194">
        <ele>970.71</ele>
        <time>2018-08-26T07:50:48Z</time>
      </trkpt>
      <trkpt lat="44.12689" lon="6.78169">
        <ele>970.35</ele>
        <time>2018-08-26T07:50:50Z</time>
      </trkpt>
      <trkpt lat="44.12682" lon="6.78125">
        <ele>971.02</ele>
        <time>2018-08-26T07:50:52Z</time>
      </trkpt>
      <trkpt lat="44.12689" lon="6.78088">
        <ele>971.5</ele>
        <time>2018-08-26T07:50:54Z</time>
      </trkpt>
      <trkpt lat="44.12708" lon="6.7805">
        <ele>973.64</ele>
        <time>2018-08-26T07:50:56Z</time>
      </trkpt>
      <trkpt lat="44.12718" lon="6.78005">
        <ele>975.17</ele>
        <time>2018-08-26T07:50:58Z</time>
      </trkpt>
      <trkpt lat="44.12721" lon="6.7798">
        <ele>976.13</ele>
        <time>2018-08-26T07:50:59Z</time>
      </trkpt>
      <trkpt lat="44.12722" lon="6.77954">
        <ele>977.12</ele>
        <time>2018-08-26T07:51:00Z</time>
      </trkpt>
      <trkpt lat="44.12725" lon="6.77926">
        <ele>978.12</ele>
        <time>2018-08-26T07:51:01Z</time>
      </trkpt>
      <trkpt lat="44.12728" lon="6.77898">
        <ele>978.42</ele>
        <time>2018-08-26T07:51:02Z</time>
      </trkpt>
      <trkpt lat="44.1273" lon="6.7787">
        <ele>978.51</ele>
        <time>2018-08-26T07:51:03Z</time>
      </trkpt>
      <trkpt lat="44.12733" lon="6.77845">
        <ele>978.54</ele>
        <time>2018-08-26T07:51:04Z</time>
      </trkpt>
      <trkpt lat="44.12741" lon="6.77822">
        <ele>977.84</ele>
        <time>2018-08-26T07:51:05Z</time>
      </trkpt>
      <trkpt lat="44.12752" lon="6.77801">
        <ele>978.34</ele>
        <time>2018-08-26T07:51:06Z</time>
      </trkpt>
      <trkpt lat="44.12763" lon="6.7778">
        <ele>979.18</ele>
        <time>2018-08-26T07:51:07Z</time>
      </trkpt>
      <trkpt lat="44.12774" lon="6.77759">
        <ele>978.74</ele>
        <time>2018-08-26T07:51:08Z</time>
      </trkpt>
      <trkpt lat="44.12797" lon="6.77725">
        <ele>980.18</ele>
        <time>2018-08-26T07:51:10Z</time>
      </trkpt>
      <trkpt lat="44.12825" lon="6.77695">
        <ele>981.42</ele>
        <time>2018-08-26T07:51:12Z</time>
      </trkpt>
      <trkpt lat="44.12839" lon="6.77675">
        <ele>982.21</ele>
        <time>2018-08-26T07:51:13Z</time>
      </trkpt>
      <trkpt lat="44.12851" lon="6.77651">
        <ele>983.15</ele>
        <time>2018-08-26T07:51:14Z</time>
      </trkpt>
      <trkpt lat="44.12864" lon="6.77627">
        <ele>984.13</ele>
        <time>2018-08-26T07:51:15Z</time>
      </trkpt>
      <trkpt lat="44.12875" lon="6.77604">
        <ele>984.42</ele>
        <time>2018-08-26T07:51:16Z</time>
      </trkpt>
      <trkpt lat="44.12888" lon="6.7758">
        <ele>984.51</ele>
        <time>2018-08-26T07:51:17Z</time>
      </trkpt>
      <trkpt lat="44.12904" lon="6.77561">
        <ele>985.24</ele>
        <time>2018-08-26T07:51:18Z</time>
      </trkpt>
      <trkpt lat="44.12919" lon="6.77544">
        <ele>985.45</ele>
        <time>2018-08-26T07:51:19Z</time>
      </trkpt>
      <trkpt lat="44.12943" lon="6.77509">
        <ele>985.54</ele>
        <time>2018-08-26T07:51:21Z</time>
      </trkpt>
      <trkpt lat="44.12959" lon="6.7747">
        <ele>986.25</ele>
        <time>2018-08-26T07:51:23Z</time>
      </trkpt>
      <trkpt lat="44.12958" lon="6.7744">
        <ele>986.46</ele>
        <time>2018-08-26T07:51:24Z</time>
      </trkpt>
      <trkpt lat="44.12975" lon="6.77402">
        <ele>986.54</ele>
        <time>2018-08-26T07:51:26Z</time>
      </trkpt>
      <trkpt lat="44.12998" lon="6.77371">
        <ele>986.55</ele>
        <time>2018-08-26T07:51:28Z</time>
      </trkpt>
      <trkpt lat="44.13017" lon="6.77369">
        <ele>985.85</ele>
        <time>2018-08-26T07:51:29Z</time>
      </trkpt>
      <trkpt lat="44.13051" lon="6.77356">
        <ele>986.27</ele>
        <time>2018-08-26T07:51:31Z</time>
      </trkpt>
      <trkpt lat="44.1307" lon="6.77356">
        <ele>986.47</ele>
        <time>2018-08-26T07:51:32Z</time>
      </trkpt>
      <trkpt lat="44.13093" lon="6.77363">
        <ele>987.22</ele>
        <time>2018-08-26T07:51:33Z</time>
      </trkpt>
      <trkpt lat="44.13125" lon="6.77388">
        <ele>987.45</ele>
        <time>2018-08-26T07:51:34Z</time>
      </trkpt>
      <trkpt lat="44.13146" lon="6.77389">
        <ele>987.52</ele>
        <time>2018-08-26T07:51:35Z</time>
      </trkpt>
      <trkpt lat="44.13165" lon="6.77378">
        <ele>988.24</ele>
        <time>2018-08-26T07:51:36Z</time>
      </trkpt>
      <trkpt lat="44.13185" lon="6.77366">
        <ele>987.76</ele>
        <time>2018-08-26T07:51:37Z</time>
      </trkpt>
      <trkpt lat="44.13205" lon="6.7735">
        <ele>988.31</ele>
        <time>2018-08-26T07:51:38Z</time>
      </trkpt>
      <trkpt lat="44.13222" lon="6.77327">
        <ele>988.48</ele>
        <time>2018-08-26T07:51:39Z</time>
      </trkpt>
      <trkpt lat="44.13229" lon="6.77282">
        <ele>990.63</ele>
        <time>2018-08-26T07:51:40Z</time>
      </trkpt>
      <trkpt lat="44.13243" lon="6.77251">
        <ele>992.67</ele>
        <time>2018-08-26T07:51:41Z</time>
      </trkpt>
      <trkpt lat="44.13256" lon="6.77215">
        <ele>994.69</ele>
        <time>2018-08-26T07:51:42Z</time>
      </trkpt>
      <trkpt lat="44.13268" lon="6.77178">
        <ele>996.69</ele>
        <time>2018-08-26T07:51:43Z</time>
      </trkpt>
      <trkpt lat="44.13281" lon="6.7714">
        <ele>998.69</ele>
        <time>2018-08-26T07:51:44Z</time>
      </trkpt>
      <trkpt lat="44.13296" lon="6.77104">
        <ele>999.99</ele>
        <time>2018-08-26T07:51:45Z</time>
      </trkpt>
      <trkpt lat="44.13311" lon="6.77072">
        <ele>1001.08</ele>
        <time>2018-08-26T07:51:46Z</time>
      </trkpt>
      <trkpt lat="44.13327" lon="6.77044">
        <ele>1002.81</ele>
        <time>2018-08-26T07:51:47Z</time>
      </trkpt>
      <trkpt lat="44.13339" lon="6.77019">
        <ele>1004.03</ele>
        <time>2018-08-26T07:51:48Z</time>
      </trkpt>
      <trkpt lat="44.1335" lon="6.76996">
        <ele>1005.09</ele>
        <time>2018-08-26T07:51:49Z</time>
      </trkpt>
      <trkpt lat="44.1337" lon="6.76957">
        <ele>1005.3</ele>
        <time>2018-08-26T07:51:51Z</time>
      </trkpt>
      <trkpt lat="44.13396" lon="6.76937">
        <ele>1008.05</ele>
        <time>2018-08-26T07:51:53Z</time>
      </trkpt>
      <trkpt lat="44.13431" lon="6.76918">
        <ele>1009.2</ele>
        <time>2018-08-26T07:51:55Z</time>
      </trkpt>
      <trkpt lat="44.13454" lon="6.7691">
        <ele>1009.44</ele>
        <time>2018-08-26T07:51:56Z</time>
      </trkpt>
      <trkpt lat="44.13478" lon="6.76896">
        <ele>1009.52</ele>
        <time>2018-08-26T07:51:57Z</time>
      </trkpt>
      <trkpt lat="44.13501" lon="6.76883">
        <ele>1010.24</ele>
        <time>2018-08-26T07:51:58Z</time>
      </trkpt>
      <trkpt lat="44.1352" lon="6.76863">
        <ele>1009.06</ele>
        <time>2018-08-26T07:51:59Z</time>
      </trkpt>
      <trkpt lat="44.13539" lon="6.76843">
        <ele>1008.7</ele>
        <time>2018-08-26T07:52:00Z</time>
      </trkpt>
      <trkpt lat="44.13558" lon="6.76828">
        <ele>1008.59</ele>
        <time>2018-08-26T07:52:01Z</time>
      </trkpt>
      <trkpt lat="44.13577" lon="6.76813">
        <ele>1009.26</ele>
        <time>2018-08-26T07:52:02Z</time>
      </trkpt>
      <trkpt lat="44.13595" lon="6.76802">
        <ele>1009.46</ele>
        <time>2018-08-26T07:52:03Z</time>
      </trkpt>
      <trkpt lat="44.13612" lon="6.76791">
        <ele>1010.22</ele>
        <time>2018-08-26T07:52:04Z</time>
      </trkpt>
      <trkpt lat="44.13629" lon="6.76778">
        <ele>1010.45</ele>
        <time>2018-08-26T07:52:05Z</time>
      </trkpt>
      <trkpt lat="44.13642" lon="6.76758">
        <ele>1009.12</ele>
        <time>2018-08-26T07:52:06Z</time>
      </trkpt>
      <trkpt lat="44.13654" lon="6.76736">
        <ele>1009.42</ele>
        <time>2018-08-26T07:52:07Z</time>
      </trkpt>
      <trkpt lat="44.13665" lon="6.76704">
        <ele>1010.21</ele>
        <time>2018-08-26T07:52:08Z</time>
      </trkpt>
      <trkpt lat="44.13676" lon="6.76676">
        <ele>1011.15</ele>
        <time>2018-08-26T07:52:09Z</time>
      </trkpt>
      <trkpt lat="44.13687" lon="6.76651">
        <ele>1012.13</ele>
        <time>2018-08-26T07:52:10Z</time>
      </trkpt>
      <trkpt lat="44.13699" lon="6.76628">
        <ele>1013.12</ele>
        <time>2018-08-26T07:52:11Z</time>
      </trkpt>
      <trkpt lat="44.13713" lon="6.7661">
        <ele>1013.42</ele>
        <time>2018-08-26T07:52:12Z</time>
      </trkpt>
      <trkpt lat="44.13727" lon="6.76593">
        <ele>1013.51</ele>
        <time>2018-08-26T07:52:13Z</time>
      </trkpt>
      <trkpt lat="44.13742" lon="6.76577">
        <ele>1014.24</ele>
        <time>2018-08-26T07:52:14Z</time>
      </trkpt>
      <trkpt lat="44.13759" lon="6.7656">
        <ele>1013.75</ele>
        <time>2018-08-26T07:52:15Z</time>
      </trkpt>
      <trkpt lat="44.13776" lon="6.76542">
        <ele>1013.61</ele>
        <time>2018-08-26T07:52:16Z</time>
      </trkpt>
      <trkpt lat="44.13793" lon="6.76524">
        <ele>1014.27</ele>
        <time>2018-08-26T07:52:17Z</time>
      </trkpt>
      <trkpt lat="44.13811" lon="6.76508">
        <ele>1015.16</ele>
        <time>2018-08-26T07:52:18Z</time>
      </trkpt>
      <trkpt lat="44.13829" lon="6.76494">
        <ele>1015.43</ele>
        <time>2018-08-26T07:52:19Z</time>
      </trkpt>
      <trkpt lat="44.13848" lon="6.7648">
        <ele>1016.21</ele>
        <time>2018-08-26T07:52:20Z</time>
      </trkpt>
      <trkpt lat="44.13867" lon="6.76465">
        <ele>1016.45</ele>
        <time>2018-08-26T07:52:21Z</time>
      </trkpt>
      <trkpt lat="44.13885" lon="6.76448">
        <ele>1017.22</ele>
        <time>2018-08-26T07:52:22Z</time>
      </trkpt>
      <trkpt lat="44.13904" lon="6.76432">
        <ele>1018.15</ele>
        <time>2018-08-26T07:52:23Z</time>
      </trkpt>
      <trkpt lat="44.13921" lon="6.76415">
        <ele>1017.73</ele>
        <time>2018-08-26T07:52:24Z</time>
      </trkpt>
      <trkpt lat="44.13938" lon="6.76396">
        <ele>1019</ele>
        <time>2018-08-26T07:52:25Z</time>
      </trkpt>
      <trkpt lat="44.13956" lon="6.76378">
        <ele>1019.38</ele>
        <time>2018-08-26T07:52:26Z</time>
      </trkpt>
      <trkpt lat="44.13972" lon="6.76364">
        <ele>1020.2</ele>
        <time>2018-08-26T07:52:27Z</time>
      </trkpt>
      <trkpt lat="44.14003" lon="6.76347">
        <ele>1019.82</ele>
        <time>2018-08-26T07:52:29Z</time>
      </trkpt>
      <trkpt lat="44.14027" lon="6.76331">
        <ele>1020.48</ele>
        <time>2018-08-26T07:52:31Z</time>
      </trkpt>
      <trkpt lat="44.14041" lon="6.76308">
        <ele>1021.45</ele>
        <time>2018-08-26T07:52:33Z</time>
      </trkpt>
      <trkpt lat="44.14046" lon="6.76275">
        <ele>1024.06</ele>
        <time>2018-08-26T07:52:35Z</time>
      </trkpt>
      <trkpt lat="44.14041" lon="6.76231">
        <ele>1025.41</ele>
        <time>2018-08-26T07:52:37Z</time>
      </trkpt>
      <trkpt lat="44.14042" lon="6.76191">
        <ele>1027.15</ele>
        <time>2018-08-26T07:52:39Z</time>
      </trkpt>
      <trkpt lat="44.14056" lon="6.76152">
        <ele>1027.51</ele>
        <time>2018-08-26T07:52:41Z</time>
      </trkpt>
      <trkpt lat="44.14069" lon="6.76132">
        <ele>1028.24</ele>
        <time>2018-08-26T07:52:42Z</time>
      </trkpt>
      <trkpt lat="44.14094" lon="6.76105">
        <ele>1029.22</ele>
        <time>2018-08-26T07:52:44Z</time>
      </trkpt>
      <trkpt lat="44.14119" lon="6.76113">
        <ele>1030.15</ele>
        <time>2018-08-26T07:52:45Z</time>
      </trkpt>
      <trkpt lat="44.14148" lon="6.761">
        <ele>1031.21</ele>
        <time>2018-08-26T07:52:47Z</time>
      </trkpt>
      <trkpt lat="44.14168" lon="6.76077">
        <ele>1031.52</ele>
        <time>2018-08-26T07:52:49Z</time>
      </trkpt>
      <trkpt lat="44.14183" lon="6.76056">
        <ele>1033.16</ele>
        <time>2018-08-26T07:52:51Z</time>
      </trkpt>
      <trkpt lat="44.142" lon="6.7604">
        <ele>1034.21</ele>
        <time>2018-08-26T07:52:53Z</time>
      </trkpt>
      <trkpt lat="44.14219" lon="6.76042">
        <ele>1034.52</ele>
        <time>2018-08-26T07:52:55Z</time>
      </trkpt>
      <trkpt lat="44.14237" lon="6.76051">
        <ele>1035.46</ele>
        <time>2018-08-26T07:52:57Z</time>
      </trkpt>
      <trkpt lat="44.14246" lon="6.76074">
        <ele>1035.33</ele>
        <time>2018-08-26T07:52:59Z</time>
      </trkpt>
      <trkpt lat="44.14238" lon="6.76107">
        <ele>1037.14</ele>
        <time>2018-08-26T07:53:01Z</time>
      </trkpt>
      <trkpt lat="44.14229" lon="6.76131">
        <ele>1040.03</ele>
        <time>2018-08-26T07:53:03Z</time>
      </trkpt>
      <trkpt lat="44.14214" lon="6.76149">
        <ele>1042.81</ele>
        <time>2018-08-26T07:53:05Z</time>
      </trkpt>
      <trkpt lat="44.14201" lon="6.76169">
        <ele>1044.18</ele>
        <time>2018-08-26T07:53:07Z</time>
      </trkpt>
      <trkpt lat="44.14185" lon="6.76189">
        <ele>1046.83</ele>
        <time>2018-08-26T07:53:09Z</time>
      </trkpt>
      <trkpt lat="44.1417" lon="6.76204">
        <ele>1047.48</ele>
        <time>2018-08-26T07:53:11Z</time>
      </trkpt>
      <trkpt lat="44.14153" lon="6.76232">
        <ele>1048.25</ele>
        <time>2018-08-26T07:53:14Z</time>
      </trkpt>
      <trkpt lat="44.14139" lon="6.76253">
        <ele>1049.24</ele>
        <time>2018-08-26T07:53:17Z</time>
      </trkpt>
      <trkpt lat="44.14158" lon="6.76247">
        <ele>1049.74</ele>
        <time>2018-08-26T07:53:23Z</time>
      </trkpt>
      <trkpt lat="44.14169" lon="6.76223">
        <ele>1048.64</ele>
        <time>2018-08-26T07:53:26Z</time>
      </trkpt>
      <trkpt lat="44.14184" lon="6.762">
        <ele>1051.13</ele>
        <time>2018-08-26T07:53:29Z</time>
      </trkpt>
      <trkpt lat="44.14199" lon="6.76185">
        <ele>1051.51</ele>
        <time>2018-08-26T07:53:31Z</time>
      </trkpt>
      <trkpt lat="44.1422" lon="6.76165">
        <ele>1049.94</ele>
        <time>2018-08-26T07:53:34Z</time>
      </trkpt>
      <trkpt lat="44.14236" lon="6.76146">
        <ele>1049.83</ele>
        <time>2018-08-26T07:53:37Z</time>
      </trkpt>
      <trkpt lat="44.14254" lon="6.76126">
        <ele>1049.84</ele>
        <time>2018-08-26T07:53:41Z</time>
      </trkpt>
      <trkpt lat="44.14267" lon="6.76106">
        <ele>1050.37</ele>
        <time>2018-08-26T07:53:46Z</time>
      </trkpt>
      <trkpt lat="44.14276" lon="6.76075">
        <ele>1053.49</ele>
        <time>2018-08-26T07:53:51Z</time>
      </trkpt>
      <trkpt lat="44.14286" lon="6.76042">
        <ele>1054.52</ele>
        <time>2018-08-26T07:53:54Z</time>
      </trkpt>
      <trkpt lat="44.14294" lon="6.76018">
        <ele>1056.16</ele>
        <time>2018-08-26T07:53:56Z</time>
      </trkpt>
      <trkpt lat="44.14301" lon="6.75994">
        <ele>1057.42</ele>
        <time>2018-08-26T07:53:58Z</time>
      </trkpt>
      <trkpt lat="44.14308" lon="6.7597">
        <ele>1058.45</ele>
        <time>2018-08-26T07:54:00Z</time>
      </trkpt>
      <trkpt lat="44.14316" lon="6.75943">
        <ele>1060.15</ele>
        <time>2018-08-26T07:54:02Z</time>
      </trkpt>
      <trkpt lat="44.14325" lon="6.75915">
        <ele>1060.51</ele>
        <time>2018-08-26T07:54:04Z</time>
      </trkpt>
      <trkpt lat="44.14331" lon="6.75887">
        <ele>1061.24</ele>
        <time>2018-08-26T07:54:06Z</time>
      </trkpt>
      <trkpt lat="44.14327" lon="6.75861">
        <ele>1062.43</ele>
        <time>2018-08-26T07:54:08Z</time>
      </trkpt>
      <trkpt lat="44.14311" lon="6.75845">
        <ele>1063.24</ele>
        <time>2018-08-26T07:54:10Z</time>
      </trkpt>
      <trkpt lat="44.14285" lon="6.75839">
        <ele>1060.89</ele>
        <time>2018-08-26T07:54:13Z</time>
      </trkpt>
      <trkpt lat="44.14252" lon="6.7587">
        <ele>1061.98</ele>
        <time>2018-08-26T07:54:15Z</time>
      </trkpt>
      <trkpt lat="44.14225" lon="6.75894">
        <ele>1063.41</ele>
        <time>2018-08-26T07:54:17Z</time>
      </trkpt>
      <trkpt lat="44.14198" lon="6.75915">
        <ele>1064.24</ele>
        <time>2018-08-26T07:54:19Z</time>
      </trkpt>
      <trkpt lat="44.14167" lon="6.75923">
        <ele>1066.34</ele>
        <time>2018-08-26T07:54:21Z</time>
      </trkpt>
      <trkpt lat="44.14137" lon="6.75931">
        <ele>1067.44</ele>
        <time>2018-08-26T07:54:23Z</time>
      </trkpt>
      <trkpt lat="44.14107" lon="6.75951">
        <ele>1068.45</ele>
        <time>2018-08-26T07:54:25Z</time>
      </trkpt>
      <trkpt lat="44.14092" lon="6.75965">
        <ele>1069.22</ele>
        <time>2018-08-26T07:54:26Z</time>
      </trkpt>
      <trkpt lat="44.14074" lon="6.7598">
        <ele>1069.45</ele>
        <time>2018-08-26T07:54:27Z</time>
      </trkpt>
      <trkpt lat="44.14057" lon="6.76">
        <ele>1070.22</ele>
        <time>2018-08-26T07:54:28Z</time>
      </trkpt>
      <trkpt lat="44.14036" lon="6.76036">
        <ele>1073.25</ele>
        <time>2018-08-26T07:54:30Z</time>
      </trkpt>
      <trkpt lat="44.14023" lon="6.76055">
        <ele>1074.16</ele>
        <time>2018-08-26T07:54:31Z</time>
      </trkpt>
      <trkpt lat="44.14007" lon="6.76071">
        <ele>1075.13</ele>
        <time>2018-08-26T07:54:32Z</time>
      </trkpt>
      <trkpt lat="44.13992" lon="6.76089">
        <ele>1075.42</ele>
        <time>2018-08-26T07:54:33Z</time>
      </trkpt>
      <trkpt lat="44.13973" lon="6.76108">
        <ele>1076.91</ele>
        <time>2018-08-26T07:54:34Z</time>
      </trkpt>
      <trkpt lat="44.13956" lon="6.76126">
        <ele>1078.76</ele>
        <time>2018-08-26T07:54:35Z</time>
      </trkpt>
      <trkpt lat="44.13943" lon="6.76145">
        <ele>1080.71</ele>
        <time>2018-08-26T07:54:36Z</time>
      </trkpt>
      <trkpt lat="44.13929" lon="6.76162">
        <ele>1082</ele>
        <time>2018-08-26T07:54:37Z</time>
      </trkpt>
      <trkpt lat="44.13913" lon="6.76175">
        <ele>1083.78</ele>
        <time>2018-08-26T07:54:38Z</time>
      </trkpt>
      <trkpt lat="44.13894" lon="6.7619">
        <ele>1085.02</ele>
        <time>2018-08-26T07:54:39Z</time>
      </trkpt>
      <trkpt lat="44.13868" lon="6.7622">
        <ele>1088.51</ele>
        <time>2018-08-26T07:54:41Z</time>
      </trkpt>
      <trkpt lat="44.13853" lon="6.76233">
        <ele>1090.64</ele>
        <time>2018-08-26T07:54:42Z</time>
      </trkpt>
      <trkpt lat="44.13836" lon="6.76243">
        <ele>1091.97</ele>
        <time>2018-08-26T07:54:43Z</time>
      </trkpt>
      <trkpt lat="44.13818" lon="6.76252">
        <ele>1093.08</ele>
        <time>2018-08-26T07:54:44Z</time>
      </trkpt>
      <trkpt lat="44.13783" lon="6.76267">
        <ele>1096.73</ele>
        <time>2018-08-26T07:54:46Z</time>
      </trkpt>
      <trkpt lat="44.13763" lon="6.76275">
        <ele>1096.6</ele>
        <time>2018-08-26T07:54:47Z</time>
      </trkpt>
      <trkpt lat="44.13744" lon="6.76273">
        <ele>1097.26</ele>
        <time>2018-08-26T07:54:48Z</time>
      </trkpt>
      <trkpt lat="44.13725" lon="6.76275">
        <ele>1098.86</ele>
        <time>2018-08-26T07:54:49Z</time>
      </trkpt>
      <trkpt lat="44.13707" lon="6.76278">
        <ele>1100.74</ele>
        <time>2018-08-26T07:54:50Z</time>
      </trkpt>
      <trkpt lat="44.13688" lon="6.76284">
        <ele>1102.01</ele>
        <time>2018-08-26T07:54:51Z</time>
      </trkpt>
      <trkpt lat="44.13669" lon="6.7629">
        <ele>1103.79</ele>
        <time>2018-08-26T07:54:52Z</time>
      </trkpt>
      <trkpt lat="44.13651" lon="6.76298">
        <ele>1105.72</ele>
        <time>2018-08-26T07:54:53Z</time>
      </trkpt>
      <trkpt lat="44.13624" lon="6.76309">
        <ele>1109.69</ele>
        <time>2018-08-26T07:54:55Z</time>
      </trkpt>
      <trkpt lat="44.13592" lon="6.76304">
        <ele>1112.99</ele>
        <time>2018-08-26T07:54:57Z</time>
      </trkpt>
      <trkpt lat="44.13557" lon="6.76297">
        <ele>1115.81</ele>
        <time>2018-08-26T07:54:59Z</time>
      </trkpt>
      <trkpt lat="44.13539" lon="6.76292">
        <ele>1117.73</ele>
        <time>2018-08-26T07:55:00Z</time>
      </trkpt>
      <trkpt lat="44.13521" lon="6.76287">
        <ele>1119</ele>
        <time>2018-08-26T07:55:01Z</time>
      </trkpt>
      <trkpt lat="44.13502" lon="6.76285">
        <ele>1119.38</ele>
        <time>2018-08-26T07:55:02Z</time>
      </trkpt>
      <trkpt lat="44.13483" lon="6.76282">
        <ele>1121.6</ele>
        <time>2018-08-26T07:55:03Z</time>
      </trkpt>
      <trkpt lat="44.13448" lon="6.76278">
        <ele>1123.16</ele>
        <time>2018-08-26T07:55:05Z</time>
      </trkpt>
      <trkpt lat="44.13415" lon="6.76282">
        <ele>1123.72</ele>
        <time>2018-08-26T07:55:07Z</time>
      </trkpt>
      <trkpt lat="44.13384" lon="6.76298">
        <ele>1128.39</ele>
        <time>2018-08-26T07:55:09Z</time>
      </trkpt>
      <trkpt lat="44.13359" lon="6.76301">
        <ele>1132.87</ele>
        <time>2018-08-26T07:55:11Z</time>
      </trkpt>
      <trkpt lat="44.13342" lon="6.76296">
        <ele>1135.41</ele>
        <time>2018-08-26T07:55:14Z</time>
      </trkpt>
      <trkpt lat="44.13359" lon="6.76289">
        <ele>1137.15</ele>
        <time>2018-08-26T07:55:16Z</time>
      </trkpt>
      <trkpt lat="44.13382" lon="6.76291">
        <ele>1138.91</ele>
        <time>2018-08-26T07:55:18Z</time>
      </trkpt>
      <trkpt lat="44.13404" lon="6.76278">
        <ele>1139.49</ele>
        <time>2018-08-26T07:55:20Z</time>
      </trkpt>
      <trkpt lat="44.13428" lon="6.76265">
        <ele>1141.15</ele>
        <time>2018-08-26T07:55:22Z</time>
      </trkpt>
      <trkpt lat="44.13444" lon="6.76249">
        <ele>1141.47</ele>
        <time>2018-08-26T07:55:25Z</time>
      </trkpt>
      <trkpt lat="44.13423" lon="6.76239">
        <ele>1140.91</ele>
        <time>2018-08-26T07:55:29Z</time>
      </trkpt>
      <trkpt lat="44.13398" lon="6.76257">
        <ele>1141.98</ele>
        <time>2018-08-26T07:55:31Z</time>
      </trkpt>
      <trkpt lat="44.13372" lon="6.76264">
        <ele>1144.11</ele>
        <time>2018-08-26T07:55:33Z</time>
      </trkpt>
      <trkpt lat="44.13352" lon="6.76266">
        <ele>1148.64</ele>
        <time>2018-08-26T07:55:35Z</time>
      </trkpt>
      <trkpt lat="44.13381" lon="6.76251">
        <ele>1151.04</ele>
        <time>2018-08-26T07:55:42Z</time>
      </trkpt>
      <trkpt lat="44.13401" lon="6.7624">
        <ele>1152.2</ele>
        <time>2018-08-26T07:55:44Z</time>
      </trkpt>
      <trkpt lat="44.13411" lon="6.76218">
        <ele>1153.45</ele>
        <time>2018-08-26T07:55:47Z</time>
      </trkpt>
      <trkpt lat="44.13395" lon="6.76202">
        <ele>1153.61</ele>
        <time>2018-08-26T07:55:50Z</time>
      </trkpt>
      <trkpt lat="44.13371" lon="6.76223">
        <ele>1153.57</ele>
        <time>2018-08-26T07:55:51Z</time>
      </trkpt>
      <trkpt lat="44.13347" lon="6.76227">
        <ele>1155.86</ele>
        <time>2018-08-26T07:55:53Z</time>
      </trkpt>
      <trkpt lat="44.13326" lon="6.76219">
        <ele>1157.4</ele>
        <time>2018-08-26T07:55:55Z</time>
      </trkpt>
      <trkpt lat="44.1334" lon="6.76198">
        <ele>1163.18</ele>
        <time>2018-08-26T07:56:00Z</time>
      </trkpt>
      <trkpt lat="44.13357" lon="6.76209">
        <ele>1164.21</ele>
        <time>2018-08-26T07:56:02Z</time>
      </trkpt>
      <trkpt lat="44.13375" lon="6.76207">
        <ele>1165.43</ele>
        <time>2018-08-26T07:56:04Z</time>
      </trkpt>
      <trkpt lat="44.13406" lon="6.76195">
        <ele>1166.94</ele>
        <time>2018-08-26T07:56:06Z</time>
      </trkpt>
      <trkpt lat="44.13436" lon="6.76193">
        <ele>1169.1</ele>
        <time>2018-08-26T07:56:08Z</time>
      </trkpt>
      <trkpt lat="44.13462" lon="6.76197">
        <ele>1170.42</ele>
        <time>2018-08-26T07:56:10Z</time>
      </trkpt>
      <trkpt lat="44.13494" lon="6.76186">
        <ele>1172.85</ele>
        <time>2018-08-26T07:56:12Z</time>
      </trkpt>
      <trkpt lat="44.13529" lon="6.76179">
        <ele>1176</ele>
        <time>2018-08-26T07:56:14Z</time>
      </trkpt>
      <trkpt lat="44.13547" lon="6.76181">
        <ele>1177.09</ele>
        <time>2018-08-26T07:56:15Z</time>
      </trkpt>
      <trkpt lat="44.13579" lon="6.76184">
        <ele>1179.82</ele>
        <time>2018-08-26T07:56:17Z</time>
      </trkpt>
      <trkpt lat="44.13604" lon="6.76177">
        <ele>1182.09</ele>
        <time>2018-08-26T07:56:19Z</time>
      </trkpt>
      <trkpt lat="44.13603" lon="6.76147">
        <ele>1184.32</ele>
        <time>2018-08-26T07:56:23Z</time>
      </trkpt>
      <trkpt lat="44.13573" lon="6.76124">
        <ele>1184.53</ele>
        <time>2018-08-26T07:56:25Z</time>
      </trkpt>
      <trkpt lat="44.13555" lon="6.76115">
        <ele>1185.24</ele>
        <time>2018-08-26T07:56:26Z</time>
      </trkpt>
      <trkpt lat="44.13536" lon="6.76106">
        <ele>1186.86</ele>
        <time>2018-08-26T07:56:27Z</time>
      </trkpt>
      <trkpt lat="44.13517" lon="6.76099">
        <ele>1188.04</ele>
        <time>2018-08-26T07:56:28Z</time>
      </trkpt>
      <trkpt lat="44.13499" lon="6.76094">
        <ele>1188.4</ele>
        <time>2018-08-26T07:56:29Z</time>
      </trkpt>
      <trkpt lat="44.13478" lon="6.76096">
        <ele>1187.1</ele>
        <time>2018-08-26T07:56:30Z</time>
      </trkpt>
      <trkpt lat="44.13454" lon="6.76101">
        <ele>1188.91</ele>
        <time>2018-08-26T07:56:32Z</time>
      </trkpt>
      <trkpt lat="44.13431" lon="6.76099">
        <ele>1189.49</ele>
        <time>2018-08-26T07:56:34Z</time>
      </trkpt>
      <trkpt lat="44.13443" lon="6.76076">
        <ele>1196.06</ele>
        <time>2018-08-26T07:56:38Z</time>
      </trkpt>
      <trkpt lat="44.13466" lon="6.76073">
        <ele>1197.1</ele>
        <time>2018-08-26T07:56:39Z</time>
      </trkpt>
      <trkpt lat="44.1349" lon="6.76079">
        <ele>1197.41</ele>
        <time>2018-08-26T07:56:40Z</time>
      </trkpt>
      <trkpt lat="44.13522" lon="6.76068">
        <ele>1197.51</ele>
        <time>2018-08-26T07:56:41Z</time>
      </trkpt>
      <trkpt lat="44.13543" lon="6.76068">
        <ele>1199.64</ele>
        <time>2018-08-26T07:56:42Z</time>
      </trkpt>
      <trkpt lat="44.13561" lon="6.76066">
        <ele>1200.97</ele>
        <time>2018-08-26T07:56:43Z</time>
      </trkpt>
      <trkpt lat="44.13593" lon="6.76051">
        <ele>1204.02</ele>
        <time>2018-08-26T07:56:45Z</time>
      </trkpt>
      <trkpt lat="44.13622" lon="6.76028">
        <ele>1205.9</ele>
        <time>2018-08-26T07:56:47Z</time>
      </trkpt>
      <trkpt lat="44.13646" lon="6.75994">
        <ele>1208.1</ele>
        <time>2018-08-26T07:56:49Z</time>
      </trkpt>
      <trkpt lat="44.13676" lon="6.75974">
        <ele>1209.91</ele>
        <time>2018-08-26T07:56:51Z</time>
      </trkpt>
      <trkpt lat="44.13702" lon="6.75966">
        <ele>1210.98</ele>
        <time>2018-08-26T07:56:53Z</time>
      </trkpt>
      <trkpt lat="44.13722" lon="6.75951">
        <ele>1216.7</ele>
        <time>2018-08-26T07:56:56Z</time>
      </trkpt>
      <trkpt lat="44.13691" lon="6.75948">
        <ele>1224.69</ele>
        <time>2018-08-26T07:57:00Z</time>
      </trkpt>
      <trkpt lat="44.13664" lon="6.75951">
        <ele>1227.08</ele>
        <time>2018-08-26T07:57:02Z</time>
      </trkpt>
      <trkpt lat="44.13631" lon="6.75959">
        <ele>1227.51</ele>
        <time>2018-08-26T07:57:04Z</time>
      </trkpt>
      <trkpt lat="44.13604" lon="6.75974">
        <ele>1227.75</ele>
        <time>2018-08-26T07:57:06Z</time>
      </trkpt>
      <trkpt lat="44.13581" lon="6.75986">
        <ele>1228.48</ele>
        <time>2018-08-26T07:57:08Z</time>
      </trkpt>
      <trkpt lat="44.13561" lon="6.75979">
        <ele>1229.46</ele>
        <time>2018-08-26T07:57:11Z</time>
      </trkpt>
      <trkpt lat="44.13583" lon="6.75954">
        <ele>1230.46</ele>
        <time>2018-08-26T07:57:15Z</time>
      </trkpt>
      <trkpt lat="44.13619" lon="6.7594">
        <ele>1234.02</ele>
        <time>2018-08-26T07:57:16Z</time>
      </trkpt>
      <trkpt lat="44.13635" lon="6.7593">
        <ele>1235.09</ele>
        <time>2018-08-26T07:57:17Z</time>
      </trkpt>
      <trkpt lat="44.13667" lon="6.75908">
        <ele>1236.42</ele>
        <time>2018-08-26T07:57:19Z</time>
      </trkpt>
      <trkpt lat="44.13686" lon="6.75898">
        <ele>1237.21</ele>
        <time>2018-08-26T07:57:20Z</time>
      </trkpt>
      <trkpt lat="44.13707" lon="6.75887">
        <ele>1240.95</ele>
        <time>2018-08-26T07:57:21Z</time>
      </trkpt>
      <trkpt lat="44.13725" lon="6.75873">
        <ele>1243.47</ele>
        <time>2018-08-26T07:57:22Z</time>
      </trkpt>
      <trkpt lat="44.13743" lon="6.75857">
        <ele>1245.62</ele>
        <time>2018-08-26T07:57:23Z</time>
      </trkpt>
      <trkpt lat="44.13759" lon="6.75841">
        <ele>1246.97</ele>
        <time>2018-08-26T07:57:24Z</time>
      </trkpt>
      <trkpt lat="44.13776" lon="6.75825">
        <ele>1247.37</ele>
        <time>2018-08-26T07:57:25Z</time>
      </trkpt>
      <trkpt lat="44.13794" lon="6.75813">
        <ele>1248.9</ele>
        <time>2018-08-26T07:57:26Z</time>
      </trkpt>
      <trkpt lat="44.13825" lon="6.75794">
        <ele>1251.1</ele>
        <time>2018-08-26T07:57:28Z</time>
      </trkpt>
      <trkpt lat="44.13844" lon="6.75769">
        <ele>1254.52</ele>
        <time>2018-08-26T07:57:30Z</time>
      </trkpt>
      <trkpt lat="44.13864" lon="6.75737">
        <ele>1257.28</ele>
        <time>2018-08-26T07:57:32Z</time>
      </trkpt>
      <trkpt lat="44.13878" lon="6.75682">
        <ele>1259.83</ele>
        <time>2018-08-26T07:57:34Z</time>
      </trkpt>
      <trkpt lat="44.13887" lon="6.75653">
        <ele>1261.73</ele>
        <time>2018-08-26T07:57:35Z</time>
      </trkpt>
      <trkpt lat="44.13897" lon="6.75624">
        <ele>1263.7</ele>
        <time>2018-08-26T07:57:36Z</time>
      </trkpt>
      <trkpt lat="44.13908" lon="6.75594">
        <ele>1265.69</ele>
        <time>2018-08-26T07:57:37Z</time>
      </trkpt>
      <trkpt lat="44.1392" lon="6.75564">
        <ele>1268.39</ele>
        <time>2018-08-26T07:57:38Z</time>
      </trkpt>
      <trkpt lat="44.13933" lon="6.75536">
        <ele>1271.3</ele>
        <time>2018-08-26T07:57:39Z</time>
      </trkpt>
      <trkpt lat="44.13947" lon="6.75508">
        <ele>1273.57</ele>
        <time>2018-08-26T07:57:40Z</time>
      </trkpt>
      <trkpt lat="44.13962" lon="6.75483">
        <ele>1275.66</ele>
        <time>2018-08-26T07:57:41Z</time>
      </trkpt>
      <trkpt lat="44.13979" lon="6.75459">
        <ele>1276.98</ele>
        <time>2018-08-26T07:57:42Z</time>
      </trkpt>
      <trkpt lat="44.13997" lon="6.75437">
        <ele>1278.08</ele>
        <time>2018-08-26T07:57:43Z</time>
      </trkpt>
      <trkpt lat="44.14014" lon="6.75413">
        <ele>1279.11</ele>
        <time>2018-08-26T07:57:44Z</time>
      </trkpt>
      <trkpt lat="44.14032" lon="6.7539">
        <ele>1279.42</ele>
        <time>2018-08-26T07:57:45Z</time>
      </trkpt>
      <trkpt lat="44.14051" lon="6.75374">
        <ele>1279.51</ele>
        <time>2018-08-26T07:57:46Z</time>
      </trkpt>
      <trkpt lat="44.14068" lon="6.75357">
        <ele>1280.24</ele>
        <time>2018-08-26T07:57:47Z</time>
      </trkpt>
      <trkpt lat="44.14083" lon="6.75341">
        <ele>1280.45</ele>
        <time>2018-08-26T07:57:48Z</time>
      </trkpt>
      <trkpt lat="44.14105" lon="6.75316">
        <ele>1282.64</ele>
        <time>2018-08-26T07:57:50Z</time>
      </trkpt>
      <trkpt lat="44.14122" lon="6.75275">
        <ele>1286.69</ele>
        <time>2018-08-26T07:57:52Z</time>
      </trkpt>
      <trkpt lat="44.14138" lon="6.75235">
        <ele>1289.08</ele>
        <time>2018-08-26T07:57:54Z</time>
      </trkpt>
      <trkpt lat="44.14152" lon="6.75214">
        <ele>1293.43</ele>
        <time>2018-08-26T07:57:56Z</time>
      </trkpt>
      <trkpt lat="44.14116" lon="6.7525">
        <ele>1300.21</ele>
        <time>2018-08-26T07:58:03Z</time>
      </trkpt>
      <trkpt lat="44.14104" lon="6.7527">
        <ele>1302.55</ele>
        <time>2018-08-26T07:58:04Z</time>
      </trkpt>
      <trkpt lat="44.14091" lon="6.75289">
        <ele>1304.65</ele>
        <time>2018-08-26T07:58:05Z</time>
      </trkpt>
      <trkpt lat="44.1406" lon="6.75311">
        <ele>1307.78</ele>
        <time>2018-08-26T07:58:07Z</time>
      </trkpt>
      <trkpt lat="44.14028" lon="6.75326">
        <ele>1309.18</ele>
        <time>2018-08-26T07:58:09Z</time>
      </trkpt>
      <trkpt lat="44.14009" lon="6.75334">
        <ele>1309.44</ele>
        <time>2018-08-26T07:58:10Z</time>
      </trkpt>
      <trkpt lat="44.13988" lon="6.75348">
        <ele>1309.51</ele>
        <time>2018-08-26T07:58:11Z</time>
      </trkpt>
      <trkpt lat="44.1397" lon="6.75362">
        <ele>1312.34</ele>
        <time>2018-08-26T07:58:12Z</time>
      </trkpt>
      <trkpt lat="44.13953" lon="6.75376">
        <ele>1313.89</ele>
        <time>2018-08-26T07:58:13Z</time>
      </trkpt>
      <trkpt lat="44.13926" lon="6.75402">
        <ele>1317.01</ele>
        <time>2018-08-26T07:58:15Z</time>
      </trkpt>
      <trkpt lat="44.13915" lon="6.75427">
        <ele>1319.11</ele>
        <time>2018-08-26T07:58:17Z</time>
      </trkpt>
      <trkpt lat="44.13894" lon="6.75425">
        <ele>1319.61</ele>
        <time>2018-08-26T07:58:21Z</time>
      </trkpt>
      <trkpt lat="44.13905" lon="6.75404">
        <ele>1319.55</ele>
        <time>2018-08-26T07:58:23Z</time>
      </trkpt>
      <trkpt lat="44.13925" lon="6.75381">
        <ele>1322.77</ele>
        <time>2018-08-26T07:58:25Z</time>
      </trkpt>
      <trkpt lat="44.13942" lon="6.7536">
        <ele>1325.41</ele>
        <time>2018-08-26T07:58:26Z</time>
      </trkpt>
      <trkpt lat="44.13963" lon="6.75345">
        <ele>1328.31</ele>
        <time>2018-08-26T07:58:27Z</time>
      </trkpt>
      <trkpt lat="44.13981" lon="6.75325">
        <ele>1329.18</ele>
        <time>2018-08-26T07:58:28Z</time>
      </trkpt>
      <trkpt lat="44.13998" lon="6.75311">
        <ele>1330.84</ele>
        <time>2018-08-26T07:58:29Z</time>
      </trkpt>
      <trkpt lat="44.14025" lon="6.75288">
        <ele>1334.28</ele>
        <time>2018-08-26T07:58:31Z</time>
      </trkpt>
      <trkpt lat="44.14038" lon="6.75266">
        <ele>1338.03</ele>
        <time>2018-08-26T07:58:34Z</time>
      </trkpt>
      <trkpt lat="44.1402" lon="6.75259">
        <ele>1340.08</ele>
        <time>2018-08-26T07:58:37Z</time>
      </trkpt>
      <trkpt lat="44.14004" lon="6.75282">
        <ele>1341.21</ele>
        <time>2018-08-26T07:58:39Z</time>
      </trkpt>
      <trkpt lat="44.13966" lon="6.75305">
        <ele>1340.05</ele>
        <time>2018-08-26T07:58:40Z</time>
      </trkpt>
      <trkpt lat="44.1395" lon="6.75318">
        <ele>1342.5</ele>
        <time>2018-08-26T07:58:41Z</time>
      </trkpt>
      <trkpt lat="44.13934" lon="6.75333">
        <ele>1343.93</ele>
        <time>2018-08-26T07:58:42Z</time>
      </trkpt>
      <trkpt lat="44.13917" lon="6.7535">
        <ele>1345.76</ele>
        <time>2018-08-26T07:58:43Z</time>
      </trkpt>
      <trkpt lat="44.13899" lon="6.75368">
        <ele>1347.01</ele>
        <time>2018-08-26T07:58:44Z</time>
      </trkpt>
      <trkpt lat="44.13883" lon="6.75387">
        <ele>1348.09</ele>
        <time>2018-08-26T07:58:45Z</time>
      </trkpt>
      <trkpt lat="44.13865" lon="6.75404">
        <ele>1349.11</ele>
        <time>2018-08-26T07:58:46Z</time>
      </trkpt>
      <trkpt lat="44.13849" lon="6.75424">
        <ele>1350.12</ele>
        <time>2018-08-26T07:58:47Z</time>
      </trkpt>
      <trkpt lat="44.13832" lon="6.75441">
        <ele>1350.42</ele>
        <time>2018-08-26T07:58:48Z</time>
      </trkpt>
      <trkpt lat="44.13818" lon="6.75461">
        <ele>1352.61</ele>
        <time>2018-08-26T07:58:49Z</time>
      </trkpt>
      <trkpt lat="44.13791" lon="6.75486">
        <ele>1357.59</ele>
        <time>2018-08-26T07:58:51Z</time>
      </trkpt>
      <trkpt lat="44.13774" lon="6.75497">
        <ele>1358.96</ele>
        <time>2018-08-26T07:58:52Z</time>
      </trkpt>
      <trkpt lat="44.13746" lon="6.75519">
        <ele>1359.5</ele>
        <time>2018-08-26T07:58:54Z</time>
      </trkpt>
      <trkpt lat="44.1372" lon="6.75532">
        <ele>1362.97</ele>
        <time>2018-08-26T07:58:56Z</time>
      </trkpt>
      <trkpt lat="44.13697" lon="6.75531">
        <ele>1366.02</ele>
        <time>2018-08-26T07:58:58Z</time>
      </trkpt>
      <trkpt lat="44.13673" lon="6.75554">
        <ele>1369.93</ele>
        <time>2018-08-26T07:59:00Z</time>
      </trkpt>
      <trkpt lat="44.13652" lon="6.75588">
        <ele>1372.1</ele>
        <time>2018-08-26T07:59:02Z</time>
      </trkpt>
      <trkpt lat="44.13628" lon="6.75621">
        <ele>1374.82</ele>
        <time>2018-08-26T07:59:04Z</time>
      </trkpt>
      <trkpt lat="44.13606" lon="6.7565">
        <ele>1377.09</ele>
        <time>2018-08-26T07:59:06Z</time>
      </trkpt>
      <trkpt lat="44.13585" lon="6.75672">
        <ele>1379.12</ele>
        <time>2018-08-26T07:59:08Z</time>
      </trkpt>
      <trkpt lat="44.1356" lon="6.75684">
        <ele>1384.55</ele>
        <time>2018-08-26T07:59:10Z</time>
      </trkpt>
      <trkpt lat="44.13537" lon="6.757">
        <ele>1388.47</ele>
        <time>2018-08-26T07:59:12Z</time>
      </trkpt>
      <trkpt lat="44.13522" lon="6.75715">
        <ele>1391.06</ele>
        <time>2018-08-26T07:59:14Z</time>
      </trkpt>
      <trkpt lat="44.13523" lon="6.75689">
        <ele>1396.13</ele>
        <time>2018-08-26T07:59:20Z</time>
      </trkpt>
      <trkpt lat="44.13538" lon="6.75662">
        <ele>1399.03</ele>
        <time>2018-08-26T07:59:22Z</time>
      </trkpt>
      <trkpt lat="44.13554" lon="6.75629">
        <ele>1402.72</ele>
        <time>2018-08-26T07:59:24Z</time>
      </trkpt>
      <trkpt lat="44.1357" lon="6.756">
        <ele>1405.99</ele>
        <time>2018-08-26T07:59:26Z</time>
      </trkpt>
      <trkpt lat="44.13581" lon="6.75574">
        <ele>1409.72</ele>
        <time>2018-08-26T07:59:28Z</time>
      </trkpt>
      <trkpt lat="44.13587" lon="6.75544">
        <ele>1411.17</ele>
        <time>2018-08-26T07:59:30Z</time>
      </trkpt>
      <trkpt lat="44.13597" lon="6.75512">
        <ele>1412.21</ele>
        <time>2018-08-26T07:59:32Z</time>
      </trkpt>
      <trkpt lat="44.13618" lon="6.75494">
        <ele>1413.92</ele>
        <time>2018-08-26T07:59:34Z</time>
      </trkpt>
      <trkpt lat="44.13632" lon="6.75471">
        <ele>1417.01</ele>
        <time>2018-08-26T07:59:36Z</time>
      </trkpt>
      <trkpt lat="44.13641" lon="6.75441">
        <ele>1419.11</ele>
        <time>2018-08-26T07:59:38Z</time>
      </trkpt>
      <trkpt lat="44.13659" lon="6.75421">
        <ele>1419.02</ele>
        <time>2018-08-26T07:59:40Z</time>
      </trkpt>
      <trkpt lat="44.13685" lon="6.75398">
        <ele>1418.59</ele>
        <time>2018-08-26T07:59:42Z</time>
      </trkpt>
      <trkpt lat="44.13707" lon="6.75382">
        <ele>1419.46</ele>
        <time>2018-08-26T07:59:44Z</time>
      </trkpt>
      <trkpt lat="44.13724" lon="6.75358">
        <ele>1419.05</ele>
        <time>2018-08-26T07:59:46Z</time>
      </trkpt>
      <trkpt lat="44.13727" lon="6.75322">
        <ele>1420.9</ele>
        <time>2018-08-26T07:59:48Z</time>
      </trkpt>
      <trkpt lat="44.13734" lon="6.75283">
        <ele>1426.53</ele>
        <time>2018-08-26T07:59:50Z</time>
      </trkpt>
      <trkpt lat="44.13753" lon="6.75246">
        <ele>1429.07</ele>
        <time>2018-08-26T07:59:52Z</time>
      </trkpt>
      <trkpt lat="44.13766" lon="6.75228">
        <ele>1429.4</ele>
        <time>2018-08-26T07:59:53Z</time>
      </trkpt>
      <trkpt lat="44.13785" lon="6.75218">
        <ele>1431.6</ele>
        <time>2018-08-26T07:59:54Z</time>
      </trkpt>
      <trkpt lat="44.13815" lon="6.75186">
        <ele>1433.86</ele>
        <time>2018-08-26T07:59:56Z</time>
      </trkpt>
      <trkpt lat="44.13831" lon="6.75168">
        <ele>1435.04</ele>
        <time>2018-08-26T07:59:57Z</time>
      </trkpt>
      <trkpt lat="44.13854" lon="6.75136">
        <ele>1436.41</ele>
        <time>2018-08-26T07:59:59Z</time>
      </trkpt>
      <trkpt lat="44.13874" lon="6.75113">
        <ele>1438.36</ele>
        <time>2018-08-26T08:00:01Z</time>
      </trkpt>
      <trkpt lat="44.13885" lon="6.75071">
        <ele>1441.96</ele>
        <time>2018-08-26T08:00:03Z</time>
      </trkpt>
      <trkpt lat="44.13895" lon="6.75027">
        <ele>1444.11</ele>
        <time>2018-08-26T08:00:05Z</time>
      </trkpt>
      <trkpt lat="44.13908" lon="6.74991">
        <ele>1447.3</ele>
        <time>2018-08-26T08:00:07Z</time>
      </trkpt>
      <trkpt lat="44.13928" lon="6.74958">
        <ele>1446.75</ele>
        <time>2018-08-26T08:00:09Z</time>
      </trkpt>
      <trkpt lat="44.13951" lon="6.74944">
        <ele>1449.22</ele>
        <time>2018-08-26T08:00:11Z</time>
      </trkpt>
      <trkpt lat="44.1397" lon="6.74954">
        <ele>1451.12</ele>
        <time>2018-08-26T08:00:12Z</time>
      </trkpt>
      <trkpt lat="44.13997" lon="6.74958">
        <ele>1452.35</ele>
        <time>2018-08-26T08:00:14Z</time>
      </trkpt>
      <trkpt lat="44.14022" lon="6.74942">
        <ele>1455.4</ele>
        <time>2018-08-26T08:00:16Z</time>
      </trkpt>
      <trkpt lat="44.1404" lon="6.74927">
        <ele>1455.07</ele>
        <time>2018-08-26T08:00:17Z</time>
      </trkpt>
      <trkpt lat="44.14071" lon="6.74905">
        <ele>1455.64</ele>
        <time>2018-08-26T08:00:19Z</time>
      </trkpt>
      <trkpt lat="44.14088" lon="6.74894">
        <ele>1455.14</ele>
        <time>2018-08-26T08:00:20Z</time>
      </trkpt>
      <trkpt lat="44.14103" lon="6.7488">
        <ele>1455.69</ele>
        <time>2018-08-26T08:00:21Z</time>
      </trkpt>
      <trkpt lat="44.14119" lon="6.74864">
        <ele>1454.46</ele>
        <time>2018-08-26T08:00:22Z</time>
      </trkpt>
      <trkpt lat="44.14134" lon="6.74848">
        <ele>1454.09</ele>
        <time>2018-08-26T08:00:23Z</time>
      </trkpt>
      <trkpt lat="44.14149" lon="6.74834">
        <ele>1453.98</ele>
        <time>2018-08-26T08:00:24Z</time>
      </trkpt>
      <trkpt lat="44.14181" lon="6.74811">
        <ele>1454.63</ele>
        <time>2018-08-26T08:00:26Z</time>
      </trkpt>
      <trkpt lat="44.14212" lon="6.748">
        <ele>1454.9</ele>
        <time>2018-08-26T08:00:28Z</time>
      </trkpt>
      <trkpt lat="44.14241" lon="6.74787">
        <ele>1457.24</ele>
        <time>2018-08-26T08:00:30Z</time>
      </trkpt>
      <trkpt lat="44.14272" lon="6.74775">
        <ele>1458.36</ele>
        <time>2018-08-26T08:00:32Z</time>
      </trkpt>
      <trkpt lat="44.14305" lon="6.74765">
        <ele>1458.88</ele>
        <time>2018-08-26T08:00:34Z</time>
      </trkpt>
      <trkpt lat="44.14343" lon="6.74767">
        <ele>1459.14</ele>
        <time>2018-08-26T08:00:36Z</time>
      </trkpt>
      <trkpt lat="44.14362" lon="6.74763">
        <ele>1459.69</ele>
        <time>2018-08-26T08:00:37Z</time>
      </trkpt>
      <trkpt lat="44.14397" lon="6.74752">
        <ele>1462.22</ele>
        <time>2018-08-26T08:00:39Z</time>
      </trkpt>
      <trkpt lat="44.14414" lon="6.74741">
        <ele>1463.42</ele>
        <time>2018-08-26T08:00:40Z</time>
      </trkpt>
      <trkpt lat="44.14432" lon="6.74723">
        <ele>1464.48</ele>
        <time>2018-08-26T08:00:41Z</time>
      </trkpt>
      <trkpt lat="44.14448" lon="6.7471">
        <ele>1464.79</ele>
        <time>2018-08-26T08:00:42Z</time>
      </trkpt>
      <trkpt lat="44.14463" lon="6.74694">
        <ele>1466.99</ele>
        <time>2018-08-26T08:00:43Z</time>
      </trkpt>
      <trkpt lat="44.14477" lon="6.74679">
        <ele>1468.35</ele>
        <time>2018-08-26T08:00:44Z</time>
      </trkpt>
      <trkpt lat="44.14506" lon="6.74658">
        <ele>1470.49</ele>
        <time>2018-08-26T08:00:46Z</time>
      </trkpt>
      <trkpt lat="44.14528" lon="6.74642">
        <ele>1473.2</ele>
        <time>2018-08-26T08:00:48Z</time>
      </trkpt>
      <trkpt lat="44.14552" lon="6.74642">
        <ele>1477.4</ele>
        <time>2018-08-26T08:00:51Z</time>
      </trkpt>
      <trkpt lat="44.14535" lon="6.74667">
        <ele>1477.23</ele>
        <time>2018-08-26T08:00:55Z</time>
      </trkpt>
      <trkpt lat="44.14506" lon="6.74687">
        <ele>1480.39</ele>
        <time>2018-08-26T08:00:57Z</time>
      </trkpt>
      <trkpt lat="44.14491" lon="6.74706">
        <ele>1482.49</ele>
        <time>2018-08-26T08:00:59Z</time>
      </trkpt>
      <trkpt lat="44.14511" lon="6.74704">
        <ele>1485.1</ele>
        <time>2018-08-26T08:01:05Z</time>
      </trkpt>
      <trkpt lat="44.14537" lon="6.74711">
        <ele>1485.68</ele>
        <time>2018-08-26T08:01:06Z</time>
      </trkpt>
      <trkpt lat="44.14559" lon="6.74714">
        <ele>1487.96</ele>
        <time>2018-08-26T08:01:07Z</time>
      </trkpt>
      <trkpt lat="44.1459" lon="6.74712">
        <ele>1491.36</ele>
        <time>2018-08-26T08:01:09Z</time>
      </trkpt>
      <trkpt lat="44.14622" lon="6.74688">
        <ele>1495.8</ele>
        <time>2018-08-26T08:01:11Z</time>
      </trkpt>
      <trkpt lat="44.1465" lon="6.74668">
        <ele>1498.23</ele>
        <time>2018-08-26T08:01:13Z</time>
      </trkpt>
      <trkpt lat="44.14679" lon="6.74659">
        <ele>1500.48</ele>
        <time>2018-08-26T08:01:15Z</time>
      </trkpt>
      <trkpt lat="44.14708" lon="6.74661">
        <ele>1502.5</ele>
        <time>2018-08-26T08:01:17Z</time>
      </trkpt>
      <trkpt lat="44.14724" lon="6.74645">
        <ele>1504.26</ele>
        <time>2018-08-26T08:01:20Z</time>
      </trkpt>
      <trkpt lat="44.14702" lon="6.7463">
        <ele>1506.89</ele>
        <time>2018-08-26T08:01:24Z</time>
      </trkpt>
      <trkpt lat="44.14679" lon="6.74626">
        <ele>1507.63</ele>
        <time>2018-08-26T08:01:26Z</time>
      </trkpt>
      <trkpt lat="44.14657" lon="6.74619">
        <ele>1511.82</ele>
        <time>2018-08-26T08:01:28Z</time>
      </trkpt>
      <trkpt lat="44.14677" lon="6.74592">
        <ele>1515.29</ele>
        <time>2018-08-26T08:01:32Z</time>
      </trkpt>
      <trkpt lat="44.14694" lon="6.7458">
        <ele>1515.74</ele>
        <time>2018-08-26T08:01:33Z</time>
      </trkpt>
      <trkpt lat="44.14719" lon="6.74567">
        <ele>1515.87</ele>
        <time>2018-08-26T08:01:34Z</time>
      </trkpt>
      <trkpt lat="44.14754" lon="6.74557">
        <ele>1518.01</ele>
        <time>2018-08-26T08:01:35Z</time>
      </trkpt>
      <trkpt lat="44.14776" lon="6.74545">
        <ele>1520.75</ele>
        <time>2018-08-26T08:01:36Z</time>
      </trkpt>
      <trkpt lat="44.148" lon="6.74534">
        <ele>1522.98</ele>
        <time>2018-08-26T08:01:37Z</time>
      </trkpt>
      <trkpt lat="44.14823" lon="6.74524">
        <ele>1525.74</ele>
        <time>2018-08-26T08:01:38Z</time>
      </trkpt>
      <trkpt lat="44.14846" lon="6.74512">
        <ele>1527.27</ele>
        <time>2018-08-26T08:01:39Z</time>
      </trkpt>
      <trkpt lat="44.14869" lon="6.74497">
        <ele>1531.23</ele>
        <time>2018-08-26T08:01:40Z</time>
      </trkpt>
      <trkpt lat="44.14892" lon="6.74485">
        <ele>1533.82</ele>
        <time>2018-08-26T08:01:41Z</time>
      </trkpt>
      <trkpt lat="44.14914" lon="6.74472">
        <ele>1536</ele>
        <time>2018-08-26T08:01:42Z</time>
      </trkpt>
      <trkpt lat="44.14937" lon="6.74458">
        <ele>1538.05</ele>
        <time>2018-08-26T08:01:43Z</time>
      </trkpt>
      <trkpt lat="44.14961" lon="6.74442">
        <ele>1539.37</ele>
        <time>2018-08-26T08:01:44Z</time>
      </trkpt>
      <trkpt lat="44.14986" lon="6.74426">
        <ele>1541.16</ele>
        <time>2018-08-26T08:01:45Z</time>
      </trkpt>
      <trkpt lat="44.15008" lon="6.7441">
        <ele>1543.1</ele>
        <time>2018-08-26T08:01:46Z</time>
      </trkpt>
      <trkpt lat="44.1503" lon="6.74394">
        <ele>1544.38</ele>
        <time>2018-08-26T08:01:47Z</time>
      </trkpt>
      <trkpt lat="44.15051" lon="6.74379">
        <ele>1545.47</ele>
        <time>2018-08-26T08:01:48Z</time>
      </trkpt>
      <trkpt lat="44.15071" lon="6.74366">
        <ele>1547.19</ele>
        <time>2018-08-26T08:01:49Z</time>
      </trkpt>
      <trkpt lat="44.15092" lon="6.7435">
        <ele>1548.41</ele>
        <time>2018-08-26T08:01:50Z</time>
      </trkpt>
      <trkpt lat="44.1511" lon="6.74338">
        <ele>1550.87</ele>
        <time>2018-08-26T08:01:51Z</time>
      </trkpt>
      <trkpt lat="44.15129" lon="6.74325">
        <ele>1553.01</ele>
        <time>2018-08-26T08:01:52Z</time>
      </trkpt>
      <trkpt lat="44.15149" lon="6.74314">
        <ele>1555.75</ele>
        <time>2018-08-26T08:01:53Z</time>
      </trkpt>
      <trkpt lat="44.15169" lon="6.74304">
        <ele>1558.68</ele>
        <time>2018-08-26T08:01:54Z</time>
      </trkpt>
      <trkpt lat="44.1519" lon="6.74293">
        <ele>1561.65</ele>
        <time>2018-08-26T08:01:55Z</time>
      </trkpt>
      <trkpt lat="44.15209" lon="6.7428">
        <ele>1563.95</ele>
        <time>2018-08-26T08:01:56Z</time>
      </trkpt>
      <trkpt lat="44.15226" lon="6.74268">
        <ele>1565.34</ele>
        <time>2018-08-26T08:01:57Z</time>
      </trkpt>
      <trkpt lat="44.15244" lon="6.74257">
        <ele>1567.15</ele>
        <time>2018-08-26T08:01:58Z</time>
      </trkpt>
      <trkpt lat="44.15263" lon="6.7425">
        <ele>1569.1</ele>
        <time>2018-08-26T08:01:59Z</time>
      </trkpt>
      <trkpt lat="44.15282" lon="6.74247">
        <ele>1571.78</ele>
        <time>2018-08-26T08:02:00Z</time>
      </trkpt>
      <trkpt lat="44.153" lon="6.74242">
        <ele>1573.29</ele>
        <time>2018-08-26T08:02:01Z</time>
      </trkpt>
      <trkpt lat="44.15333" lon="6.7423">
        <ele>1575.69</ele>
        <time>2018-08-26T08:02:03Z</time>
      </trkpt>
      <trkpt lat="44.15349" lon="6.74219">
        <ele>1576.56</ele>
        <time>2018-08-26T08:02:04Z</time>
      </trkpt>
      <trkpt lat="44.15366" lon="6.74208">
        <ele>1578.22</ele>
        <time>2018-08-26T08:02:05Z</time>
      </trkpt>
      <trkpt lat="44.15383" lon="6.742">
        <ele>1579.42</ele>
        <time>2018-08-26T08:02:06Z</time>
      </trkpt>
      <trkpt lat="44.15402" lon="6.74191">
        <ele>1580.48</ele>
        <time>2018-08-26T08:02:07Z</time>
      </trkpt>
      <trkpt lat="44.1542" lon="6.74186">
        <ele>1580.79</ele>
        <time>2018-08-26T08:02:08Z</time>
      </trkpt>
      <trkpt lat="44.1544" lon="6.74178">
        <ele>1581.59</ele>
        <time>2018-08-26T08:02:09Z</time>
      </trkpt>
      <trkpt lat="44.15458" lon="6.74169">
        <ele>1583.93</ele>
        <time>2018-08-26T08:02:10Z</time>
      </trkpt>
      <trkpt lat="44.15477" lon="6.74157">
        <ele>1586.03</ele>
        <time>2018-08-26T08:02:11Z</time>
      </trkpt>
      <trkpt lat="44.15496" lon="6.74145">
        <ele>1588.06</ele>
        <time>2018-08-26T08:02:12Z</time>
      </trkpt>
      <trkpt lat="44.15514" lon="6.74132">
        <ele>1588.67</ele>
        <time>2018-08-26T08:02:13Z</time>
      </trkpt>
      <trkpt lat="44.15533" lon="6.74118">
        <ele>1588.85</ele>
        <time>2018-08-26T08:02:14Z</time>
      </trkpt>
      <trkpt lat="44.15552" lon="6.74105">
        <ele>1589.61</ele>
        <time>2018-08-26T08:02:15Z</time>
      </trkpt>
      <trkpt lat="44.15571" lon="6.74093">
        <ele>1590.53</ele>
        <time>2018-08-26T08:02:16Z</time>
      </trkpt>
      <trkpt lat="44.1559" lon="6.74082">
        <ele>1590.81</ele>
        <time>2018-08-26T08:02:17Z</time>
      </trkpt>
      <trkpt lat="44.15609" lon="6.7407">
        <ele>1592.29</ele>
        <time>2018-08-26T08:02:18Z</time>
      </trkpt>
      <trkpt lat="44.15627" lon="6.74058">
        <ele>1593.44</ele>
        <time>2018-08-26T08:02:19Z</time>
      </trkpt>
      <trkpt lat="44.15642" lon="6.74037">
        <ele>1596.58</ele>
        <time>2018-08-26T08:02:20Z</time>
      </trkpt>
      <trkpt lat="44.15658" lon="6.74016">
        <ele>1599.63</ele>
        <time>2018-08-26T08:02:21Z</time>
      </trkpt>
      <trkpt lat="44.15672" lon="6.73998">
        <ele>1601.24</ele>
        <time>2018-08-26T08:02:22Z</time>
      </trkpt>
      <trkpt lat="44.15696" lon="6.73967">
        <ele>1602.78</ele>
        <time>2018-08-26T08:02:24Z</time>
      </trkpt>
      <trkpt lat="44.15711" lon="6.73937">
        <ele>1603.62</ele>
        <time>2018-08-26T08:02:26Z</time>
      </trkpt>
      <trkpt lat="44.15715" lon="6.73902">
        <ele>1607.12</ele>
        <time>2018-08-26T08:02:28Z</time>
      </trkpt>
      <trkpt lat="44.15709" lon="6.73864">
        <ele>1607.65</ele>
        <time>2018-08-26T08:02:30Z</time>
      </trkpt>
      <trkpt lat="44.15694" lon="6.73839">
        <ele>1609.72</ele>
        <time>2018-08-26T08:02:32Z</time>
      </trkpt>
      <trkpt lat="44.1567" lon="6.73817">
        <ele>1610.82</ele>
        <time>2018-08-26T08:02:34Z</time>
      </trkpt>
      <trkpt lat="44.15651" lon="6.73787">
        <ele>1610.92</ele>
        <time>2018-08-26T08:02:36Z</time>
      </trkpt>
      <trkpt lat="44.15636" lon="6.7375">
        <ele>1611.14</ele>
        <time>2018-08-26T08:02:38Z</time>
      </trkpt>
      <trkpt lat="44.15629" lon="6.7371">
        <ele>1611.65</ele>
        <time>2018-08-26T08:02:40Z</time>
      </trkpt>
      <trkpt lat="44.1562" lon="6.7367">
        <ele>1611.9</ele>
        <time>2018-08-26T08:02:42Z</time>
      </trkpt>
      <trkpt lat="44.15611" lon="6.73639">
        <ele>1611.93</ele>
        <time>2018-08-26T08:02:44Z</time>
      </trkpt>
      <trkpt lat="44.15594" lon="6.73611">
        <ele>1611.93</ele>
        <time>2018-08-26T08:02:46Z</time>
      </trkpt>
      <trkpt lat="44.15581" lon="6.73579">
        <ele>1611.93</ele>
        <time>2018-08-26T08:02:48Z</time>
      </trkpt>
      <trkpt lat="44.15569" lon="6.73557">
        <ele>1610.32</ele>
        <time>2018-08-26T08:02:50Z</time>
      </trkpt>
      <trkpt lat="44.15552" lon="6.7354">
        <ele>1610.67</ele>
        <time>2018-08-26T08:02:52Z</time>
      </trkpt>
      <trkpt lat="44.15542" lon="6.73517">
        <ele>1610</ele>
        <time>2018-08-26T08:02:54Z</time>
      </trkpt>
      <trkpt lat="44.1553" lon="6.73494">
        <ele>1609.24</ele>
        <time>2018-08-26T08:02:56Z</time>
      </trkpt>
      <trkpt lat="44.1551" lon="6.73477">
        <ele>1608.47</ele>
        <time>2018-08-26T08:02:58Z</time>
      </trkpt>
      <trkpt lat="44.15489" lon="6.73471">
        <ele>1606.37</ele>
        <time>2018-08-26T08:03:00Z</time>
      </trkpt>
      <trkpt lat="44.15466" lon="6.73468">
        <ele>1605.27</ele>
        <time>2018-08-26T08:03:02Z</time>
      </trkpt>
      <trkpt lat="44.15452" lon="6.73451">
        <ele>1604.05</ele>
        <time>2018-08-26T08:03:04Z</time>
      </trkpt>
      <trkpt lat="44.15441" lon="6.7342">
        <ele>1604.85</ele>
        <time>2018-08-26T08:03:06Z</time>
      </trkpt>
      <trkpt lat="44.15444" lon="6.73392">
        <ele>1604.91</ele>
        <time>2018-08-26T08:03:07Z</time>
      </trkpt>
      <trkpt lat="44.15444" lon="6.73349">
        <ele>1604.02</ele>
        <time>2018-08-26T08:03:09Z</time>
      </trkpt>
      <trkpt lat="44.15443" lon="6.73314">
        <ele>1603.94</ele>
        <time>2018-08-26T08:03:11Z</time>
      </trkpt>
      <trkpt lat="44.15432" lon="6.73288">
        <ele>1605.54</ele>
        <time>2018-08-26T08:03:13Z</time>
      </trkpt>
      <trkpt lat="44.15411" lon="6.73267">
        <ele>1605.19</ele>
        <time>2018-08-26T08:03:15Z</time>
      </trkpt>
      <trkpt lat="44.15391" lon="6.73243">
        <ele>1605.86</ele>
        <time>2018-08-26T08:03:17Z</time>
      </trkpt>
      <trkpt lat="44.15375" lon="6.73222">
        <ele>1605.71</ele>
        <time>2018-08-26T08:03:19Z</time>
      </trkpt>
      <trkpt lat="44.15389" lon="6.7318">
        <ele>1604.31</ele>
        <time>2018-08-26T08:03:22Z</time>
      </trkpt>
      <trkpt lat="44.15412" lon="6.73156">
        <ele>1605.57</ele>
        <time>2018-08-26T08:03:24Z</time>
      </trkpt>
      <trkpt lat="44.15443" lon="6.73145">
        <ele>1606.81</ele>
        <time>2018-08-26T08:03:26Z</time>
      </trkpt>
      <trkpt lat="44.15471" lon="6.73138">
        <ele>1606.92</ele>
        <time>2018-08-26T08:03:28Z</time>
      </trkpt>
      <trkpt lat="44.15498" lon="6.73118">
        <ele>1606.02</ele>
        <time>2018-08-26T08:03:30Z</time>
      </trkpt>
      <trkpt lat="44.15526" lon="6.73105">
        <ele>1605.94</ele>
        <time>2018-08-26T08:03:32Z</time>
      </trkpt>
      <trkpt lat="44.15554" lon="6.73098">
        <ele>1605.72</ele>
        <time>2018-08-26T08:03:34Z</time>
      </trkpt>
      <trkpt lat="44.15584" lon="6.7311">
        <ele>1605.91</ele>
        <time>2018-08-26T08:03:36Z</time>
      </trkpt>
      <trkpt lat="44.15618" lon="6.73105">
        <ele>1607.54</ele>
        <time>2018-08-26T08:03:38Z</time>
      </trkpt>
      <trkpt lat="44.15653" lon="6.73095">
        <ele>1611.81</ele>
        <time>2018-08-26T08:03:40Z</time>
      </trkpt>
      <trkpt lat="44.15671" lon="6.73089">
        <ele>1612.6</ele>
        <time>2018-08-26T08:03:41Z</time>
      </trkpt>
      <trkpt lat="44.15705" lon="6.73079">
        <ele>1615.21</ele>
        <time>2018-08-26T08:03:43Z</time>
      </trkpt>
      <trkpt lat="44.15723" lon="6.73075">
        <ele>1617.48</ele>
        <time>2018-08-26T08:03:45Z</time>
      </trkpt>
      <trkpt lat="44.15707" lon="6.73049">
        <ele>1620.72</ele>
        <time>2018-08-26T08:03:50Z</time>
      </trkpt>
      <trkpt lat="44.15673" lon="6.73056">
        <ele>1623.92</ele>
        <time>2018-08-26T08:03:52Z</time>
      </trkpt>
      <trkpt lat="44.15637" lon="6.7306">
        <ele>1626.45</ele>
        <time>2018-08-26T08:03:54Z</time>
      </trkpt>
      <trkpt lat="44.15619" lon="6.7306">
        <ele>1628.19</ele>
        <time>2018-08-26T08:03:55Z</time>
      </trkpt>
      <trkpt lat="44.15585" lon="6.73054">
        <ele>1632.08</ele>
        <time>2018-08-26T08:03:57Z</time>
      </trkpt>
      <trkpt lat="44.15557" lon="6.73048">
        <ele>1634.46</ele>
        <time>2018-08-26T08:03:59Z</time>
      </trkpt>
      <trkpt lat="44.15541" lon="6.73036">
        <ele>1631.36</ele>
        <time>2018-08-26T08:04:02Z</time>
      </trkpt>
      <trkpt lat="44.15573" lon="6.73039">
        <ele>1633.25</ele>
        <time>2018-08-26T08:04:05Z</time>
      </trkpt>
      <trkpt lat="44.156" lon="6.73039">
        <ele>1637.3</ele>
        <time>2018-08-26T08:04:07Z</time>
      </trkpt>
      <trkpt lat="44.1563" lon="6.73037">
        <ele>1641.3</ele>
        <time>2018-08-26T08:04:09Z</time>
      </trkpt>
      <trkpt lat="44.15656" lon="6.73025">
        <ele>1644.39</ele>
        <time>2018-08-26T08:04:11Z</time>
      </trkpt>
      <trkpt lat="44.15671" lon="6.73008">
        <ele>1644.88</ele>
        <time>2018-08-26T08:04:13Z</time>
      </trkpt>
      <trkpt lat="44.15683" lon="6.72981">
        <ele>1645.63</ele>
        <time>2018-08-26T08:04:15Z</time>
      </trkpt>
      <trkpt lat="44.15681" lon="6.72952">
        <ele>1646.54</ele>
        <time>2018-08-26T08:04:16Z</time>
      </trkpt>
      <trkpt lat="44.15685" lon="6.72905">
        <ele>1648.5</ele>
        <time>2018-08-26T08:04:18Z</time>
      </trkpt>
      <trkpt lat="44.1569" lon="6.72871">
        <ele>1649.59</ele>
        <time>2018-08-26T08:04:20Z</time>
      </trkpt>
      <trkpt lat="44.15688" lon="6.72843">
        <ele>1650.63</ele>
        <time>2018-08-26T08:04:24Z</time>
      </trkpt>
      <trkpt lat="44.15675" lon="6.72873">
        <ele>1651.89</ele>
        <time>2018-08-26T08:04:27Z</time>
      </trkpt>
      <trkpt lat="44.15662" lon="6.729">
        <ele>1653.32</ele>
        <time>2018-08-26T08:04:28Z</time>
      </trkpt>
      <trkpt lat="44.15656" lon="6.72928">
        <ele>1655.15</ele>
        <time>2018-08-26T08:04:29Z</time>
      </trkpt>
      <trkpt lat="44.15646" lon="6.72964">
        <ele>1656.56</ele>
        <time>2018-08-26T08:04:31Z</time>
      </trkpt>
      <trkpt lat="44.15628" lon="6.72954">
        <ele>1656.82</ele>
        <time>2018-08-26T08:04:36Z</time>
      </trkpt>
      <trkpt lat="44.15637" lon="6.72919">
        <ele>1658.74</ele>
        <time>2018-08-26T08:04:38Z</time>
      </trkpt>
      <trkpt lat="44.15643" lon="6.72875">
        <ele>1659.82</ele>
        <time>2018-08-26T08:04:40Z</time>
      </trkpt>
      <trkpt lat="44.15646" lon="6.7285">
        <ele>1660.6</ele>
        <time>2018-08-26T08:04:41Z</time>
      </trkpt>
      <trkpt lat="44.15651" lon="6.72824">
        <ele>1663.63</ele>
        <time>2018-08-26T08:04:42Z</time>
      </trkpt>
      <trkpt lat="44.15655" lon="6.72773">
        <ele>1663.9</ele>
        <time>2018-08-26T08:04:44Z</time>
      </trkpt>
      <trkpt lat="44.15659" lon="6.72746">
        <ele>1663.92</ele>
        <time>2018-08-26T08:04:45Z</time>
      </trkpt>
      <trkpt lat="44.15663" lon="6.72701">
        <ele>1664.84</ele>
        <time>2018-08-26T08:04:47Z</time>
      </trkpt>
      <trkpt lat="44.1567" lon="6.72672">
        <ele>1665.83</ele>
        <time>2018-08-26T08:04:49Z</time>
      </trkpt>
      <trkpt lat="44.1569" lon="6.72666">
        <ele>1668.44</ele>
        <time>2018-08-26T08:04:51Z</time>
      </trkpt>
      <trkpt lat="44.15716" lon="6.72681">
        <ele>1668.89</ele>
        <time>2018-08-26T08:04:53Z</time>
      </trkpt>
      <trkpt lat="44.15748" lon="6.72704">
        <ele>1675.37</ele>
        <time>2018-08-26T08:04:55Z</time>
      </trkpt>
      <trkpt lat="44.15769" lon="6.72719">
        <ele>1678.56</ele>
        <time>2018-08-26T08:04:56Z</time>
      </trkpt>
      <trkpt lat="44.15785" lon="6.72733">
        <ele>1680.92</ele>
        <time>2018-08-26T08:04:57Z</time>
      </trkpt>
      <trkpt lat="44.158" lon="6.72746">
        <ele>1682.33</ele>
        <time>2018-08-26T08:04:58Z</time>
      </trkpt>
      <trkpt lat="44.15817" lon="6.72784">
        <ele>1687.92</ele>
        <time>2018-08-26T08:05:00Z</time>
      </trkpt>
      <trkpt lat="44.1583" lon="6.72803">
        <ele>1690.66</ele>
        <time>2018-08-26T08:05:02Z</time>
      </trkpt>
      <trkpt lat="44.15849" lon="6.72795">
        <ele>1694.23</ele>
        <time>2018-08-26T08:05:06Z</time>
      </trkpt>
      <trkpt lat="44.15827" lon="6.72762">
        <ele>1696.48</ele>
        <time>2018-08-26T08:05:08Z</time>
      </trkpt>
      <trkpt lat="44.15814" lon="6.72739">
        <ele>1697.49</ele>
        <time>2018-08-26T08:05:09Z</time>
      </trkpt>
      <trkpt lat="44.15803" lon="6.72717">
        <ele>1698.5</ele>
        <time>2018-08-26T08:05:10Z</time>
      </trkpt>
      <trkpt lat="44.15791" lon="6.72697">
        <ele>1702.3</ele>
        <time>2018-08-26T08:05:11Z</time>
      </trkpt>
      <trkpt lat="44.15766" lon="6.72662">
        <ele>1707.7</ele>
        <time>2018-08-26T08:05:13Z</time>
      </trkpt>
      <trkpt lat="44.15753" lon="6.72643">
        <ele>1710.66</ele>
        <time>2018-08-26T08:05:14Z</time>
      </trkpt>
      <trkpt lat="44.1574" lon="6.72622">
        <ele>1712.95</ele>
        <time>2018-08-26T08:05:15Z</time>
      </trkpt>
      <trkpt lat="44.15726" lon="6.72601">
        <ele>1715.04</ele>
        <time>2018-08-26T08:05:16Z</time>
      </trkpt>
      <trkpt lat="44.15713" lon="6.7258">
        <ele>1716.36</ele>
        <time>2018-08-26T08:05:17Z</time>
      </trkpt>
      <trkpt lat="44.157" lon="6.72559">
        <ele>1717.46</ele>
        <time>2018-08-26T08:05:18Z</time>
      </trkpt>
      <trkpt lat="44.15687" lon="6.72537">
        <ele>1719.89</ele>
        <time>2018-08-26T08:05:19Z</time>
      </trkpt>
      <trkpt lat="44.15674" lon="6.72515">
        <ele>1721.32</ele>
        <time>2018-08-26T08:05:20Z</time>
      </trkpt>
      <trkpt lat="44.15649" lon="6.72481">
        <ele>1722.78</ele>
        <time>2018-08-26T08:05:22Z</time>
      </trkpt>
      <trkpt lat="44.15633" lon="6.72454">
        <ele>1724.74</ele>
        <time>2018-08-26T08:05:24Z</time>
      </trkpt>
      <trkpt lat="44.15655" lon="6.72455">
        <ele>1725.31</ele>
        <time>2018-08-26T08:05:29Z</time>
      </trkpt>
      <trkpt lat="44.15669" lon="6.72471">
        <ele>1725.74</ele>
        <time>2018-08-26T08:05:30Z</time>
      </trkpt>
      <trkpt lat="44.15684" lon="6.72485">
        <ele>1727.27</ele>
        <time>2018-08-26T08:05:31Z</time>
      </trkpt>
      <trkpt lat="44.15699" lon="6.725">
        <ele>1727.73</ele>
        <time>2018-08-26T08:05:32Z</time>
      </trkpt>
      <trkpt lat="44.15714" lon="6.72517">
        <ele>1729.27</ele>
        <time>2018-08-26T08:05:33Z</time>
      </trkpt>
      <trkpt lat="44.1573" lon="6.72534">
        <ele>1731.83</ele>
        <time>2018-08-26T08:05:34Z</time>
      </trkpt>
      <trkpt lat="44.15746" lon="6.7255">
        <ele>1734</ele>
        <time>2018-08-26T08:05:35Z</time>
      </trkpt>
      <trkpt lat="44.1576" lon="6.72565">
        <ele>1736.75</ele>
        <time>2018-08-26T08:05:36Z</time>
      </trkpt>
      <trkpt lat="44.15791" lon="6.72593">
        <ele>1740.83</ele>
        <time>2018-08-26T08:05:38Z</time>
      </trkpt>
      <trkpt lat="44.15808" lon="6.72604">
        <ele>1742.3</ele>
        <time>2018-08-26T08:05:39Z</time>
      </trkpt>
      <trkpt lat="44.15836" lon="6.72625">
        <ele>1745.18</ele>
        <time>2018-08-26T08:05:41Z</time>
      </trkpt>
      <trkpt lat="44.15856" lon="6.72641">
        <ele>1744.95</ele>
        <time>2018-08-26T08:05:43Z</time>
      </trkpt>
      <trkpt lat="44.15881" lon="6.72635">
        <ele>1746.39</ele>
        <time>2018-08-26T08:05:46Z</time>
      </trkpt>
      <trkpt lat="44.15891" lon="6.72592">
        <ele>1747.79</ele>
        <time>2018-08-26T08:05:48Z</time>
      </trkpt>
      <trkpt lat="44.15894" lon="6.72548">
        <ele>1750.44</ele>
        <time>2018-08-26T08:05:50Z</time>
      </trkpt>
      <trkpt lat="44.15891" lon="6.72522">
        <ele>1751.48</ele>
        <time>2018-08-26T08:05:51Z</time>
      </trkpt>
      <trkpt lat="44.15887" lon="6.72496">
        <ele>1753.2</ele>
        <time>2018-08-26T08:05:52Z</time>
      </trkpt>
      <trkpt lat="44.15884" lon="6.7247">
        <ele>1755.11</ele>
        <time>2018-08-26T08:05:53Z</time>
      </trkpt>
      <trkpt lat="44.1588" lon="6.72443">
        <ele>1756.38</ele>
        <time>2018-08-26T08:05:54Z</time>
      </trkpt>
      <trkpt lat="44.15877" lon="6.72416">
        <ele>1756.77</ele>
        <time>2018-08-26T08:05:55Z</time>
      </trkpt>
      <trkpt lat="44.15875" lon="6.72388">
        <ele>1757.58</ele>
        <time>2018-08-26T08:05:56Z</time>
      </trkpt>
      <trkpt lat="44.15873" lon="6.72359">
        <ele>1757.83</ele>
        <time>2018-08-26T08:05:57Z</time>
      </trkpt>
      <trkpt lat="44.15874" lon="6.72329">
        <ele>1757.9</ele>
        <time>2018-08-26T08:05:58Z</time>
      </trkpt>
      <trkpt lat="44.15876" lon="6.72299">
        <ele>1758.62</ele>
        <time>2018-08-26T08:05:59Z</time>
      </trkpt>
      <trkpt lat="44.15879" lon="6.72269">
        <ele>1758.84</ele>
        <time>2018-08-26T08:06:00Z</time>
      </trkpt>
      <trkpt lat="44.15882" lon="6.7224">
        <ele>1758.9</ele>
        <time>2018-08-26T08:06:01Z</time>
      </trkpt>
      <trkpt lat="44.15884" lon="6.7221">
        <ele>1758.22</ele>
        <time>2018-08-26T08:06:02Z</time>
      </trkpt>
      <trkpt lat="44.15885" lon="6.72178">
        <ele>1758.72</ele>
        <time>2018-08-26T08:06:03Z</time>
      </trkpt>
      <trkpt lat="44.15883" lon="6.72149">
        <ele>1760.27</ele>
        <time>2018-08-26T08:06:04Z</time>
      </trkpt>
      <trkpt lat="44.15882" lon="6.7212">
        <ele>1761.43</ele>
        <time>2018-08-26T08:06:05Z</time>
      </trkpt>
      <trkpt lat="44.15883" lon="6.72092">
        <ele>1761.78</ele>
        <time>2018-08-26T08:06:06Z</time>
      </trkpt>
      <trkpt lat="44.15882" lon="6.72065">
        <ele>1762.59</ele>
        <time>2018-08-26T08:06:07Z</time>
      </trkpt>
      <trkpt lat="44.15881" lon="6.72037">
        <ele>1763.53</ele>
        <time>2018-08-26T08:06:08Z</time>
      </trkpt>
      <trkpt lat="44.1588" lon="6.72009">
        <ele>1763.81</ele>
        <time>2018-08-26T08:06:09Z</time>
      </trkpt>
      <trkpt lat="44.15878" lon="6.71984">
        <ele>1763.89</ele>
        <time>2018-08-26T08:06:10Z</time>
      </trkpt>
      <trkpt lat="44.15875" lon="6.71958">
        <ele>1763.92</ele>
        <time>2018-08-26T08:06:11Z</time>
      </trkpt>
      <trkpt lat="44.15873" lon="6.71932">
        <ele>1764.63</ele>
        <time>2018-08-26T08:06:12Z</time>
      </trkpt>
      <trkpt lat="44.15869" lon="6.71906">
        <ele>1766.24</ele>
        <time>2018-08-26T08:06:13Z</time>
      </trkpt>
      <trkpt lat="44.15864" lon="6.71879">
        <ele>1766.02</ele>
        <time>2018-08-26T08:06:14Z</time>
      </trkpt>
      <trkpt lat="44.15856" lon="6.71854">
        <ele>1766.66</ele>
        <time>2018-08-26T08:06:15Z</time>
      </trkpt>
      <trkpt lat="44.1585" lon="6.71826">
        <ele>1767.55</ele>
        <time>2018-08-26T08:06:16Z</time>
      </trkpt>
      <trkpt lat="44.1584" lon="6.71799">
        <ele>1768.52</ele>
        <time>2018-08-26T08:06:17Z</time>
      </trkpt>
      <trkpt lat="44.15833" lon="6.71773">
        <ele>1771.61</ele>
        <time>2018-08-26T08:06:18Z</time>
      </trkpt>
      <trkpt lat="44.15826" lon="6.71745">
        <ele>1773.93</ele>
        <time>2018-08-26T08:06:19Z</time>
      </trkpt>
      <trkpt lat="44.15818" lon="6.71718">
        <ele>1775.33</ele>
        <time>2018-08-26T08:06:20Z</time>
      </trkpt>
      <trkpt lat="44.15819" lon="6.71672">
        <ele>1782.53</ele>
        <time>2018-08-26T08:06:22Z</time>
      </trkpt>
      <trkpt lat="44.15823" lon="6.71633">
        <ele>1786.32</ele>
        <time>2018-08-26T08:06:24Z</time>
      </trkpt>
      <trkpt lat="44.15824" lon="6.71603">
        <ele>1790.1</ele>
        <time>2018-08-26T08:06:26Z</time>
      </trkpt>
      <trkpt lat="44.15824" lon="6.71571">
        <ele>1793.37</ele>
        <time>2018-08-26T08:06:28Z</time>
      </trkpt>
      <trkpt lat="44.15842" lon="6.71534">
        <ele>1794.58</ele>
        <time>2018-08-26T08:06:30Z</time>
      </trkpt>
      <trkpt lat="44.15866" lon="6.71501">
        <ele>1798.33</ele>
        <time>2018-08-26T08:06:32Z</time>
      </trkpt>
      <trkpt lat="44.15895" lon="6.71482">
        <ele>1804.41</ele>
        <time>2018-08-26T08:06:34Z</time>
      </trkpt>
      <trkpt lat="44.15927" lon="6.71479">
        <ele>1807.4</ele>
        <time>2018-08-26T08:06:36Z</time>
      </trkpt>
      <trkpt lat="44.15945" lon="6.71485">
        <ele>1809.17</ele>
        <time>2018-08-26T08:06:37Z</time>
      </trkpt>
      <trkpt lat="44.1597" lon="6.71502">
        <ele>1814.69</ele>
        <time>2018-08-26T08:06:39Z</time>
      </trkpt>
      <trkpt lat="44.15997" lon="6.71497">
        <ele>1816.73</ele>
        <time>2018-08-26T08:06:41Z</time>
      </trkpt>
      <trkpt lat="44.16024" lon="6.71486">
        <ele>1818.52</ele>
        <time>2018-08-26T08:06:43Z</time>
      </trkpt>
      <trkpt lat="44.16041" lon="6.71463">
        <ele>1819.59</ele>
        <time>2018-08-26T08:06:45Z</time>
      </trkpt>
      <trkpt lat="44.16048" lon="6.71427">
        <ele>1820.6</ele>
        <time>2018-08-26T08:06:47Z</time>
      </trkpt>
      <trkpt lat="44.16048" lon="6.7139">
        <ele>1820.9</ele>
        <time>2018-08-26T08:06:49Z</time>
      </trkpt>
      <trkpt lat="44.16039" lon="6.71348">
        <ele>1822.54</ele>
        <time>2018-08-26T08:06:51Z</time>
      </trkpt>
      <trkpt lat="44.16041" lon="6.71307">
        <ele>1822.89</ele>
        <time>2018-08-26T08:06:53Z</time>
      </trkpt>
      <trkpt lat="44.16055" lon="6.71288">
        <ele>1823.62</ele>
        <time>2018-08-26T08:06:54Z</time>
      </trkpt>
      <trkpt lat="44.16077" lon="6.7125">
        <ele>1823.9</ele>
        <time>2018-08-26T08:06:56Z</time>
      </trkpt>
      <trkpt lat="44.16102" lon="6.71221">
        <ele>1826.45</ele>
        <time>2018-08-26T08:06:58Z</time>
      </trkpt>
      <trkpt lat="44.16134" lon="6.712">
        <ele>1825.98</ele>
        <time>2018-08-26T08:07:00Z</time>
      </trkpt>
      <trkpt lat="44.16151" lon="6.7119">
        <ele>1826.64</ele>
        <time>2018-08-26T08:07:01Z</time>
      </trkpt>
      <trkpt lat="44.16183" lon="6.71173">
        <ele>1827.6</ele>
        <time>2018-08-26T08:07:03Z</time>
      </trkpt>
      <trkpt lat="44.16211" lon="6.71149">
        <ele>1827.9</ele>
        <time>2018-08-26T08:07:05Z</time>
      </trkpt>
      <trkpt lat="44.16221" lon="6.71122">
        <ele>1828.42</ele>
        <time>2018-08-26T08:07:07Z</time>
      </trkpt>
      <trkpt lat="44.16238" lon="6.7111">
        <ele>1828.88</ele>
        <time>2018-08-26T08:07:09Z</time>
      </trkpt>
      <trkpt lat="44.16261" lon="6.71138">
        <ele>1827.81</ele>
        <time>2018-08-26T08:07:12Z</time>
      </trkpt>
      <trkpt lat="44.16279" lon="6.71166">
        <ele>1829.29</ele>
        <time>2018-08-26T08:07:13Z</time>
      </trkpt>
      <trkpt lat="44.16291" lon="6.71187">
        <ele>1831.14</ele>
        <time>2018-08-26T08:07:14Z</time>
      </trkpt>
      <trkpt lat="44.16307" lon="6.71222">
        <ele>1833.68</ele>
        <time>2018-08-26T08:07:16Z</time>
      </trkpt>
      <trkpt lat="44.16322" lon="6.71238">
        <ele>1836.43</ele>
        <time>2018-08-26T08:07:18Z</time>
      </trkpt>
      <trkpt lat="44.16346" lon="6.71229">
        <ele>1837.89</ele>
        <time>2018-08-26T08:07:21Z</time>
      </trkpt>
      <trkpt lat="44.1636" lon="6.71212">
        <ele>1837.92</ele>
        <time>2018-08-26T08:07:22Z</time>
      </trkpt>
      <trkpt lat="44.16391" lon="6.71203">
        <ele>1839.54</ele>
        <time>2018-08-26T08:07:24Z</time>
      </trkpt>
      <trkpt lat="44.16416" lon="6.7121">
        <ele>1841.5</ele>
        <time>2018-08-26T08:07:26Z</time>
      </trkpt>
      <trkpt lat="44.1643" lon="6.71241">
        <ele>1843.5</ele>
        <time>2018-08-26T08:07:28Z</time>
      </trkpt>
      <trkpt lat="44.16444" lon="6.71269">
        <ele>1845.5</ele>
        <time>2018-08-26T08:07:30Z</time>
      </trkpt>
      <trkpt lat="44.16466" lon="6.71286">
        <ele>1849.11</ele>
        <time>2018-08-26T08:07:32Z</time>
      </trkpt>
      <trkpt lat="44.16496" lon="6.71305">
        <ele>1852.87</ele>
        <time>2018-08-26T08:07:34Z</time>
      </trkpt>
      <trkpt lat="44.16521" lon="6.71319">
        <ele>1855.44</ele>
        <time>2018-08-26T08:07:36Z</time>
      </trkpt>
      <trkpt lat="44.16541" lon="6.71317">
        <ele>1857.5</ele>
        <time>2018-08-26T08:07:38Z</time>
      </trkpt>
      <trkpt lat="44.1657" lon="6.71301">
        <ele>1859.29</ele>
        <time>2018-08-26T08:07:40Z</time>
      </trkpt>
      <trkpt lat="44.16591" lon="6.71292">
        <ele>1861.48</ele>
        <time>2018-08-26T08:07:42Z</time>
      </trkpt>
      <trkpt lat="44.16597" lon="6.71266">
        <ele>1864.78</ele>
        <time>2018-08-26T08:07:46Z</time>
      </trkpt>
      <trkpt lat="44.16568" lon="6.7127">
        <ele>1865.83</ele>
        <time>2018-08-26T08:07:48Z</time>
      </trkpt>
      <trkpt lat="44.16549" lon="6.71278">
        <ele>1868</ele>
        <time>2018-08-26T08:07:49Z</time>
      </trkpt>
      <trkpt lat="44.16528" lon="6.71278">
        <ele>1872.07</ele>
        <time>2018-08-26T08:07:51Z</time>
      </trkpt>
      <trkpt lat="44.16509" lon="6.71258">
        <ele>1874.46</ele>
        <time>2018-08-26T08:07:53Z</time>
      </trkpt>
      <trkpt lat="44.16494" lon="6.71232">
        <ele>1876.29</ele>
        <time>2018-08-26T08:07:55Z</time>
      </trkpt>
      <trkpt lat="44.16486" lon="6.71198">
        <ele>1878.48</ele>
        <time>2018-08-26T08:07:57Z</time>
      </trkpt>
      <trkpt lat="44.16481" lon="6.71163">
        <ele>1881.41</ele>
        <time>2018-08-26T08:07:59Z</time>
      </trkpt>
      <trkpt lat="44.1648" lon="6.71135">
        <ele>1883.49</ele>
        <time>2018-08-26T08:08:01Z</time>
      </trkpt>
      <trkpt lat="44.16504" lon="6.71147">
        <ele>1885.38</ele>
        <time>2018-08-26T08:08:04Z</time>
      </trkpt>
      <trkpt lat="44.16525" lon="6.71154">
        <ele>1888.19</ele>
        <time>2018-08-26T08:08:06Z</time>
      </trkpt>
      <trkpt lat="44.16546" lon="6.71143">
        <ele>1889.77</ele>
        <time>2018-08-26T08:08:08Z</time>
      </trkpt>
      <trkpt lat="44.16563" lon="6.71109">
        <ele>1892.02</ele>
        <time>2018-08-26T08:08:10Z</time>
      </trkpt>
      <trkpt lat="44.16576" lon="6.71067">
        <ele>1896.07</ele>
        <time>2018-08-26T08:08:12Z</time>
      </trkpt>
      <trkpt lat="44.16587" lon="6.71024">
        <ele>1898.67</ele>
        <time>2018-08-26T08:08:14Z</time>
      </trkpt>
      <trkpt lat="44.16603" lon="6.70983">
        <ele>1904.86</ele>
        <time>2018-08-26T08:08:16Z</time>
      </trkpt>
      <trkpt lat="44.16624" lon="6.70943">
        <ele>1909.26</ele>
        <time>2018-08-26T08:08:18Z</time>
      </trkpt>
      <trkpt lat="44.16632" lon="6.7092">
        <ele>1911.13</ele>
        <time>2018-08-26T08:08:19Z</time>
      </trkpt>
      <trkpt lat="44.1664" lon="6.70874">
        <ele>1915.08</ele>
        <time>2018-08-26T08:08:21Z</time>
      </trkpt>
      <trkpt lat="44.16654" lon="6.70837">
        <ele>1918.16</ele>
        <time>2018-08-26T08:08:23Z</time>
      </trkpt>
      <trkpt lat="44.16663" lon="6.7081">
        <ele>1919.77</ele>
        <time>2018-08-26T08:08:25Z</time>
      </trkpt>
      <trkpt lat="44.16644" lon="6.70782">
        <ele>1920.84</ele>
        <time>2018-08-26T08:08:28Z</time>
      </trkpt>
      <trkpt lat="44.16618" lon="6.70772">
        <ele>1920.92</ele>
        <time>2018-08-26T08:08:30Z</time>
      </trkpt>
      <trkpt lat="44.1658" lon="6.70785">
        <ele>1921.84</ele>
        <time>2018-08-26T08:08:32Z</time>
      </trkpt>
      <trkpt lat="44.16547" lon="6.7079">
        <ele>1923.53</ele>
        <time>2018-08-26T08:08:34Z</time>
      </trkpt>
      <trkpt lat="44.16519" lon="6.70786">
        <ele>1925.5</ele>
        <time>2018-08-26T08:08:36Z</time>
      </trkpt>
      <trkpt lat="44.165" lon="6.70764">
        <ele>1928.77</ele>
        <time>2018-08-26T08:08:39Z</time>
      </trkpt>
      <trkpt lat="44.16491" lon="6.70736">
        <ele>1931.44</ele>
        <time>2018-08-26T08:08:41Z</time>
      </trkpt>
      <trkpt lat="44.1646" lon="6.70728">
        <ele>1935.2</ele>
        <time>2018-08-26T08:08:44Z</time>
      </trkpt>
      <trkpt lat="44.16433" lon="6.70725">
        <ele>1936.56</ele>
        <time>2018-08-26T08:08:46Z</time>
      </trkpt>
      <trkpt lat="44.16414" lon="6.70723">
        <ele>1939.42</ele>
        <time>2018-08-26T08:08:48Z</time>
      </trkpt>
      <trkpt lat="44.16428" lon="6.70699">
        <ele>1940.63</ele>
        <time>2018-08-26T08:08:53Z</time>
      </trkpt>
      <trkpt lat="44.16455" lon="6.70692">
        <ele>1943.21</ele>
        <time>2018-08-26T08:08:55Z</time>
      </trkpt>
      <trkpt lat="44.16476" lon="6.70673">
        <ele>1947.09</ele>
        <time>2018-08-26T08:08:57Z</time>
      </trkpt>
      <trkpt lat="44.16497" lon="6.70658">
        <ele>1949.46</ele>
        <time>2018-08-26T08:08:59Z</time>
      </trkpt>
      <trkpt lat="44.16528" lon="6.70663">
        <ele>1952.41</ele>
        <time>2018-08-26T08:09:01Z</time>
      </trkpt>
      <trkpt lat="44.1656" lon="6.70665">
        <ele>1955.4</ele>
        <time>2018-08-26T08:09:03Z</time>
      </trkpt>
      <trkpt lat="44.16584" lon="6.70657">
        <ele>1958.19</ele>
        <time>2018-08-26T08:09:05Z</time>
      </trkpt>
      <trkpt lat="44.16601" lon="6.70634">
        <ele>1960.47</ele>
        <time>2018-08-26T08:09:07Z</time>
      </trkpt>
      <trkpt lat="44.16611" lon="6.7061">
        <ele>1962.19</ele>
        <time>2018-08-26T08:09:08Z</time>
      </trkpt>
      <trkpt lat="44.16632" lon="6.70569">
        <ele>1968.39</ele>
        <time>2018-08-26T08:09:10Z</time>
      </trkpt>
      <trkpt lat="44.16645" lon="6.70546">
        <ele>1971.57</ele>
        <time>2018-08-26T08:09:11Z</time>
      </trkpt>
      <trkpt lat="44.16658" lon="6.70523">
        <ele>1973.92</ele>
        <time>2018-08-26T08:09:12Z</time>
      </trkpt>
      <trkpt lat="44.16671" lon="6.70502">
        <ele>1976.03</ele>
        <time>2018-08-26T08:09:13Z</time>
      </trkpt>
      <trkpt lat="44.16685" lon="6.70485">
        <ele>1977.36</ele>
        <time>2018-08-26T08:09:14Z</time>
      </trkpt>
      <trkpt lat="44.167" lon="6.70469">
        <ele>1978.46</ele>
        <time>2018-08-26T08:09:15Z</time>
      </trkpt>
      <trkpt lat="44.16719" lon="6.70457">
        <ele>1979.49</ele>
        <time>2018-08-26T08:09:16Z</time>
      </trkpt>
      <trkpt lat="44.16737" lon="6.70451">
        <ele>1980.5</ele>
        <time>2018-08-26T08:09:17Z</time>
      </trkpt>
      <trkpt lat="44.16764" lon="6.70431">
        <ele>1985.51</ele>
        <time>2018-08-26T08:09:19Z</time>
      </trkpt>
      <trkpt lat="44.16791" lon="6.70401">
        <ele>1988.41</ele>
        <time>2018-08-26T08:09:21Z</time>
      </trkpt>
      <trkpt lat="44.16818" lon="6.70385">
        <ele>1993.01</ele>
        <time>2018-08-26T08:09:23Z</time>
      </trkpt>
      <trkpt lat="44.16842" lon="6.70392">
        <ele>1997.07</ele>
        <time>2018-08-26T08:09:25Z</time>
      </trkpt>
      <trkpt lat="44.16859" lon="6.70416">
        <ele>2001.07</ele>
        <time>2018-08-26T08:09:27Z</time>
      </trkpt>
      <trkpt lat="44.16874" lon="6.70437">
        <ele>2002.76</ele>
        <time>2018-08-26T08:09:29Z</time>
      </trkpt>
      <trkpt lat="44.16885" lon="6.70416">
        <ele>2004.52</ele>
        <time>2018-08-26T08:09:31Z</time>
      </trkpt>
      <trkpt lat="44.16893" lon="6.70392">
        <ele>2007.2</ele>
        <time>2018-08-26T08:09:33Z</time>
      </trkpt>
      <trkpt lat="44.16885" lon="6.70352">
        <ele>2008.35</ele>
        <time>2018-08-26T08:09:35Z</time>
      </trkpt>
      <trkpt lat="44.16881" lon="6.70308">
        <ele>2010.49</ele>
        <time>2018-08-26T08:09:37Z</time>
      </trkpt>
      <trkpt lat="44.16875" lon="6.7027">
        <ele>2013.41</ele>
        <time>2018-08-26T08:09:39Z</time>
      </trkpt>
      <trkpt lat="44.16864" lon="6.70238">
        <ele>2016.19</ele>
        <time>2018-08-26T08:09:41Z</time>
      </trkpt>
      <trkpt lat="44.1685" lon="6.70218">
        <ele>2017.77</ele>
        <time>2018-08-26T08:09:43Z</time>
      </trkpt>
      <trkpt lat="44.1683" lon="6.70212">
        <ele>2019.04</ele>
        <time>2018-08-26T08:09:45Z</time>
      </trkpt>
      <trkpt lat="44.168" lon="6.70238">
        <ele>2021.74</ele>
        <time>2018-08-26T08:09:47Z</time>
      </trkpt>
      <trkpt lat="44.16772" lon="6.70254">
        <ele>2026.04</ele>
        <time>2018-08-26T08:09:49Z</time>
      </trkpt>
      <trkpt lat="44.16738" lon="6.70263">
        <ele>2030.77</ele>
        <time>2018-08-26T08:09:51Z</time>
      </trkpt>
      <trkpt lat="44.16706" lon="6.70272">
        <ele>2035.75</ele>
        <time>2018-08-26T08:09:53Z</time>
      </trkpt>
      <trkpt lat="44.16682" lon="6.70279">
        <ele>2040.04</ele>
        <time>2018-08-26T08:09:55Z</time>
      </trkpt>
      <trkpt lat="44.16659" lon="6.70267">
        <ele>2043.76</ele>
        <time>2018-08-26T08:09:58Z</time>
      </trkpt>
      <trkpt lat="44.16672" lon="6.70241">
        <ele>2046.22</ele>
        <time>2018-08-26T08:10:00Z</time>
      </trkpt>
      <trkpt lat="44.16693" lon="6.70222">
        <ele>2050.09</ele>
        <time>2018-08-26T08:10:02Z</time>
      </trkpt>
      <trkpt lat="44.16719" lon="6.7022">
        <ele>2051.76</ele>
        <time>2018-08-26T08:10:04Z</time>
      </trkpt>
      <trkpt lat="44.16747" lon="6.70221">
        <ele>2053.32</ele>
        <time>2018-08-26T08:10:06Z</time>
      </trkpt>
      <trkpt lat="44.16773" lon="6.70204">
        <ele>2054.78</ele>
        <time>2018-08-26T08:10:08Z</time>
      </trkpt>
      <trkpt lat="44.16796" lon="6.70174">
        <ele>2058.14</ele>
        <time>2018-08-26T08:10:10Z</time>
      </trkpt>
      <trkpt lat="44.16813" lon="6.70134">
        <ele>2062.08</ele>
        <time>2018-08-26T08:10:12Z</time>
      </trkpt>
      <trkpt lat="44.16833" lon="6.70098">
        <ele>2065.16</ele>
        <time>2018-08-26T08:10:14Z</time>
      </trkpt>
      <trkpt lat="44.16861" lon="6.70077">
        <ele>2066.56</ele>
        <time>2018-08-26T08:10:16Z</time>
      </trkpt>
      <trkpt lat="44.16893" lon="6.70063">
        <ele>2068.51</ele>
        <time>2018-08-26T08:10:18Z</time>
      </trkpt>
      <trkpt lat="44.1691" lon="6.70053">
        <ele>2070.2</ele>
        <time>2018-08-26T08:10:19Z</time>
      </trkpt>
      <trkpt lat="44.16943" lon="6.70037">
        <ele>2074.08</ele>
        <time>2018-08-26T08:10:21Z</time>
      </trkpt>
      <trkpt lat="44.16971" lon="6.70033">
        <ele>2076.46</ele>
        <time>2018-08-26T08:10:23Z</time>
      </trkpt>
      <trkpt lat="44.16991" lon="6.70021">
        <ele>2077.8</ele>
        <time>2018-08-26T08:10:25Z</time>
      </trkpt>
      <trkpt lat="44.17014" lon="6.70002">
        <ele>2081.35</ele>
        <time>2018-08-26T08:10:27Z</time>
      </trkpt>
      <trkpt lat="44.17045" lon="6.70017">
        <ele>2084.4</ele>
        <time>2018-08-26T08:10:29Z</time>
      </trkpt>
      <trkpt lat="44.17072" lon="6.70039">
        <ele>2085.79</ele>
        <time>2018-08-26T08:10:31Z</time>
      </trkpt>
      <trkpt lat="44.17094" lon="6.70053">
        <ele>2087.32</ele>
        <time>2018-08-26T08:10:33Z</time>
      </trkpt>
      <trkpt lat="44.17115" lon="6.7005">
        <ele>2088.57</ele>
        <time>2018-08-26T08:10:35Z</time>
      </trkpt>
      <trkpt lat="44.17139" lon="6.70045">
        <ele>2087.99</ele>
        <time>2018-08-26T08:10:37Z</time>
      </trkpt>
      <trkpt lat="44.17161" lon="6.70045">
        <ele>2087.03</ele>
        <time>2018-08-26T08:10:39Z</time>
      </trkpt>
      <trkpt lat="44.17186" lon="6.7003">
        <ele>2086.24</ele>
        <time>2018-08-26T08:10:41Z</time>
      </trkpt>
      <trkpt lat="44.17213" lon="6.70006">
        <ele>2086.87</ele>
        <time>2018-08-26T08:10:43Z</time>
      </trkpt>
      <trkpt lat="44.17243" lon="6.6999">
        <ele>2087.83</ele>
        <time>2018-08-26T08:10:45Z</time>
      </trkpt>
      <trkpt lat="44.17271" lon="6.69993">
        <ele>2088.83</ele>
        <time>2018-08-26T08:10:47Z</time>
      </trkpt>
      <trkpt lat="44.17298" lon="6.69991">
        <ele>2089.83</ele>
        <time>2018-08-26T08:10:49Z</time>
      </trkpt>
      <trkpt lat="44.1732" lon="6.69975">
        <ele>2089.92</ele>
        <time>2018-08-26T08:10:51Z</time>
      </trkpt>
      <trkpt lat="44.17335" lon="6.69936">
        <ele>2089.44</ele>
        <time>2018-08-26T08:10:53Z</time>
      </trkpt>
      <trkpt lat="44.17351" lon="6.69905">
        <ele>2089.89</ele>
        <time>2018-08-26T08:10:55Z</time>
      </trkpt>
      <trkpt lat="44.17375" lon="6.69883">
        <ele>2089.93</ele>
        <time>2018-08-26T08:10:57Z</time>
      </trkpt>
      <trkpt lat="44.17393" lon="6.69877">
        <ele>2089.23</ele>
        <time>2018-08-26T08:10:58Z</time>
      </trkpt>
      <trkpt lat="44.17421" lon="6.69857">
        <ele>2088.96</ele>
        <time>2018-08-26T08:11:00Z</time>
      </trkpt>
      <trkpt lat="44.17433" lon="6.69833">
        <ele>2088.23</ele>
        <time>2018-08-26T08:11:02Z</time>
      </trkpt>
      <trkpt lat="44.17441" lon="6.69808">
        <ele>2088.17</ele>
        <time>2018-08-26T08:11:04Z</time>
      </trkpt>
      <trkpt lat="44.17465" lon="6.69805">
        <ele>2089.12</ele>
        <time>2018-08-26T08:11:07Z</time>
      </trkpt>
      <trkpt lat="44.17489" lon="6.69806">
        <ele>2088.94</ele>
        <time>2018-08-26T08:11:10Z</time>
      </trkpt>
      <trkpt lat="44.17504" lon="6.69791">
        <ele>2089.9</ele>
        <time>2018-08-26T08:11:25Z</time>
      </trkpt>
      <trkpt lat="44.17524" lon="6.69775">
        <ele>2095.93</ele>
        <time>2018-08-26T08:25:50Z</time>
      </trkpt>
      <trkpt lat="44.17522" lon="6.69749">
        <ele>2095.93</ele>
        <time>2018-08-26T08:25:54Z</time>
      </trkpt>
      <trkpt lat="44.1752" lon="6.6972">
        <ele>2095.93</ele>
        <time>2018-08-26T08:25:58Z</time>
      </trkpt>
      <trkpt lat="44.17525" lon="6.69689">
        <ele>2095.93</ele>
        <time>2018-08-26T08:26:02Z</time>
      </trkpt>
      <trkpt lat="44.17532" lon="6.69657">
        <ele>2097.6</ele>
        <time>2018-08-26T08:26:05Z</time>
      </trkpt>
      <trkpt lat="44.17529" lon="6.69626">
        <ele>2097.92</ele>
        <time>2018-08-26T08:26:08Z</time>
      </trkpt>
      <trkpt lat="44.17521" lon="6.696">
        <ele>2096.11</ele>
        <time>2018-08-26T08:26:10Z</time>
      </trkpt>
      <trkpt lat="44.17519" lon="6.69569">
        <ele>2095.95</ele>
        <time>2018-08-26T08:26:12Z</time>
      </trkpt>
      <trkpt lat="44.17519" lon="6.69536">
        <ele>2095.23</ele>
        <time>2018-08-26T08:26:14Z</time>
      </trkpt>
      <trkpt lat="44.17521" lon="6.69502">
        <ele>2094.26</ele>
        <time>2018-08-26T08:26:16Z</time>
      </trkpt>
      <trkpt lat="44.17525" lon="6.69472">
        <ele>2094.66</ele>
        <time>2018-08-26T08:26:18Z</time>
      </trkpt>
      <trkpt lat="44.1754" lon="6.69449">
        <ele>2094.22</ele>
        <time>2018-08-26T08:26:21Z</time>
      </trkpt>
      <trkpt lat="44.17562" lon="6.69443">
        <ele>2092.96</ele>
        <time>2018-08-26T08:26:24Z</time>
      </trkpt>
      <trkpt lat="44.17576" lon="6.69426">
        <ele>2092.93</ele>
        <time>2018-08-26T08:26:26Z</time>
      </trkpt>
      <trkpt lat="44.17589" lon="6.69402">
        <ele>2092.23</ele>
        <time>2018-08-26T08:26:28Z</time>
      </trkpt>
      <trkpt lat="44.17599" lon="6.69378">
        <ele>2092.87</ele>
        <time>2018-08-26T08:26:30Z</time>
      </trkpt>
      <trkpt lat="44.17606" lon="6.69346">
        <ele>2092.22</ele>
        <time>2018-08-26T08:26:32Z</time>
      </trkpt>
      <trkpt lat="44.17611" lon="6.69311">
        <ele>2091.96</ele>
        <time>2018-08-26T08:26:34Z</time>
      </trkpt>
      <trkpt lat="44.17622" lon="6.6928">
        <ele>2091.23</ele>
        <time>2018-08-26T08:26:36Z</time>
      </trkpt>
      <trkpt lat="44.17633" lon="6.69253">
        <ele>2090.26</ele>
        <time>2018-08-26T08:26:38Z</time>
      </trkpt>
      <trkpt lat="44.17639" lon="6.69218">
        <ele>2091.61</ele>
        <time>2018-08-26T08:26:41Z</time>
      </trkpt>
      <trkpt lat="44.17633" lon="6.69193">
        <ele>2092.81</ele>
        <time>2018-08-26T08:26:43Z</time>
      </trkpt>
      <trkpt lat="44.17626" lon="6.6917">
        <ele>2092.92</ele>
        <time>2018-08-26T08:26:45Z</time>
      </trkpt>
      <trkpt lat="44.17626" lon="6.69139">
        <ele>2093.63</ele>
        <time>2018-08-26T08:26:48Z</time>
      </trkpt>
      <trkpt lat="44.17617" lon="6.69114">
        <ele>2093.94</ele>
        <time>2018-08-26T08:26:53Z</time>
      </trkpt>
      <trkpt lat="44.17597" lon="6.69111">
        <ele>2092.05</ele>
        <time>2018-08-26T08:26:56Z</time>
      </trkpt>
      <trkpt lat="44.17577" lon="6.69118">
        <ele>2090.32</ele>
        <time>2018-08-26T08:26:59Z</time>
      </trkpt>
      <trkpt lat="44.17555" lon="6.69104">
        <ele>2089.73</ele>
        <time>2018-08-26T08:27:02Z</time>
      </trkpt>
      <trkpt lat="44.17544" lon="6.69078">
        <ele>2088.25</ele>
        <time>2018-08-26T08:27:05Z</time>
      </trkpt>
      <trkpt lat="44.17526" lon="6.69071">
        <ele>2092.32</ele>
        <time>2018-08-26T08:27:50Z</time>
      </trkpt>
      <trkpt lat="44.1751" lon="6.69056">
        <ele>2090.35</ele>
        <time>2018-08-26T08:27:52Z</time>
      </trkpt>
      <trkpt lat="44.17498" lon="6.69025">
        <ele>2086.11</ele>
        <time>2018-08-26T08:27:55Z</time>
      </trkpt>
      <trkpt lat="44.17506" lon="6.68988">
        <ele>2083.93</ele>
        <time>2018-08-26T08:27:58Z</time>
      </trkpt>
      <trkpt lat="44.1752" lon="6.68969">
        <ele>2083.02</ele>
        <time>2018-08-26T08:28:00Z</time>
      </trkpt>
      <trkpt lat="44.17537" lon="6.68956">
        <ele>2082.94</ele>
        <time>2018-08-26T08:28:02Z</time>
      </trkpt>
      <trkpt lat="44.17553" lon="6.68937">
        <ele>2082.02</ele>
        <time>2018-08-26T08:28:04Z</time>
      </trkpt>
      <trkpt lat="44.17571" lon="6.68918">
        <ele>2079.63</ele>
        <time>2018-08-26T08:28:06Z</time>
      </trkpt>
      <trkpt lat="44.17582" lon="6.68886">
        <ele>2076.43</ele>
        <time>2018-08-26T08:28:09Z</time>
      </trkpt>
      <trkpt lat="44.17582" lon="6.68857">
        <ele>2075.27</ele>
        <time>2018-08-26T08:28:11Z</time>
      </trkpt>
      <trkpt lat="44.17589" lon="6.68832">
        <ele>2074.96</ele>
        <time>2018-08-26T08:28:13Z</time>
      </trkpt>
      <trkpt lat="44.17584" lon="6.68805">
        <ele>2072.14</ele>
        <time>2018-08-26T08:28:16Z</time>
      </trkpt>
      <trkpt lat="44.17573" lon="6.6878">
        <ele>2070.34</ele>
        <time>2018-08-26T08:28:18Z</time>
      </trkpt>
      <trkpt lat="44.17568" lon="6.68746">
        <ele>2068.36</ele>
        <time>2018-08-26T08:28:20Z</time>
      </trkpt>
      <trkpt lat="44.17568" lon="6.68711">
        <ele>2067.27</ele>
        <time>2018-08-26T08:28:22Z</time>
      </trkpt>
      <trkpt lat="44.17576" lon="6.68672">
        <ele>2063.74</ele>
        <time>2018-08-26T08:28:24Z</time>
      </trkpt>
      <trkpt lat="44.17582" lon="6.68639">
        <ele>2061.39</ele>
        <time>2018-08-26T08:28:26Z</time>
      </trkpt>
      <trkpt lat="44.17596" lon="6.68609">
        <ele>2061.18</ele>
        <time>2018-08-26T08:28:28Z</time>
      </trkpt>
      <trkpt lat="44.17615" lon="6.68586">
        <ele>2060.04</ele>
        <time>2018-08-26T08:28:30Z</time>
      </trkpt>
      <trkpt lat="44.17635" lon="6.68585">
        <ele>2056.72</ele>
        <time>2018-08-26T08:28:32Z</time>
      </trkpt>
      <trkpt lat="44.17656" lon="6.6861">
        <ele>2055.46</ele>
        <time>2018-08-26T08:28:35Z</time>
      </trkpt>
      <trkpt lat="44.17676" lon="6.68619">
        <ele>2053.37</ele>
        <time>2018-08-26T08:28:37Z</time>
      </trkpt>
      <trkpt lat="44.17699" lon="6.68622">
        <ele>2051.57</ele>
        <time>2018-08-26T08:28:39Z</time>
      </trkpt>
      <trkpt lat="44.1772" lon="6.68612">
        <ele>2048.43</ele>
        <time>2018-08-26T08:28:42Z</time>
      </trkpt>
      <trkpt lat="44.17721" lon="6.68586">
        <ele>2046.57</ele>
        <time>2018-08-26T08:28:44Z</time>
      </trkpt>
      <trkpt lat="44.17724" lon="6.68561">
        <ele>2042.45</ele>
        <time>2018-08-26T08:28:47Z</time>
      </trkpt>
      <trkpt lat="44.17733" lon="6.68586">
        <ele>2041.85</ele>
        <time>2018-08-26T08:28:52Z</time>
      </trkpt>
      <trkpt lat="44.17735" lon="6.68615">
        <ele>2039.61</ele>
        <time>2018-08-26T08:28:54Z</time>
      </trkpt>
      <trkpt lat="44.17742" lon="6.68649">
        <ele>2038.29</ele>
        <time>2018-08-26T08:28:56Z</time>
      </trkpt>
      <trkpt lat="44.17744" lon="6.6868">
        <ele>2034.95</ele>
        <time>2018-08-26T08:28:58Z</time>
      </trkpt>
      <trkpt lat="44.17738" lon="6.68713">
        <ele>2032.2</ele>
        <time>2018-08-26T08:29:01Z</time>
      </trkpt>
      <trkpt lat="44.17752" lon="6.68731">
        <ele>2029.69</ele>
        <time>2018-08-26T08:29:05Z</time>
      </trkpt>
      <trkpt lat="44.17764" lon="6.68696">
        <ele>2028.09</ele>
        <time>2018-08-26T08:29:07Z</time>
      </trkpt>
      <trkpt lat="44.17772" lon="6.68668">
        <ele>2025.42</ele>
        <time>2018-08-26T08:29:09Z</time>
      </trkpt>
      <trkpt lat="44.17777" lon="6.68636">
        <ele>2024.06</ele>
        <time>2018-08-26T08:29:11Z</time>
      </trkpt>
      <trkpt lat="44.17775" lon="6.68608">
        <ele>2021.63</ele>
        <time>2018-08-26T08:29:13Z</time>
      </trkpt>
      <trkpt lat="44.17767" lon="6.68579">
        <ele>2021.9</ele>
        <time>2018-08-26T08:29:15Z</time>
      </trkpt>
      <trkpt lat="44.17758" lon="6.68544">
        <ele>2020.32</ele>
        <time>2018-08-26T08:29:17Z</time>
      </trkpt>
      <trkpt lat="44.17756" lon="6.68508">
        <ele>2019.26</ele>
        <time>2018-08-26T08:29:19Z</time>
      </trkpt>
      <trkpt lat="44.17758" lon="6.68479">
        <ele>2017.56</ele>
        <time>2018-08-26T08:29:21Z</time>
      </trkpt>
      <trkpt lat="44.17777" lon="6.68458">
        <ele>2016.78</ele>
        <time>2018-08-26T08:29:23Z</time>
      </trkpt>
      <trkpt lat="44.17801" lon="6.6845">
        <ele>2016.92</ele>
        <time>2018-08-26T08:29:25Z</time>
      </trkpt>
      <trkpt lat="44.17816" lon="6.68431">
        <ele>2011.89</ele>
        <time>2018-08-26T08:29:27Z</time>
      </trkpt>
      <trkpt lat="44.17815" lon="6.68404">
        <ele>2009.82</ele>
        <time>2018-08-26T08:29:28Z</time>
      </trkpt>
      <trkpt lat="44.17821" lon="6.68369">
        <ele>2008.31</ele>
        <time>2018-08-26T08:29:30Z</time>
      </trkpt>
      <trkpt lat="44.17823" lon="6.68336">
        <ele>2005.44</ele>
        <time>2018-08-26T08:29:32Z</time>
      </trkpt>
      <trkpt lat="44.17841" lon="6.6831">
        <ele>2002.63</ele>
        <time>2018-08-26T08:29:35Z</time>
      </trkpt>
      <trkpt lat="44.17859" lon="6.68292">
        <ele>1999.47</ele>
        <time>2018-08-26T08:29:37Z</time>
      </trkpt>
      <trkpt lat="44.17871" lon="6.6827">
        <ele>1997.37</ele>
        <time>2018-08-26T08:29:39Z</time>
      </trkpt>
      <trkpt lat="44.1787" lon="6.68241">
        <ele>1995.36</ele>
        <time>2018-08-26T08:29:41Z</time>
      </trkpt>
      <trkpt lat="44.17872" lon="6.6821">
        <ele>1992.45</ele>
        <time>2018-08-26T08:29:43Z</time>
      </trkpt>
      <trkpt lat="44.17876" lon="6.68178">
        <ele>1991.07</ele>
        <time>2018-08-26T08:29:45Z</time>
      </trkpt>
      <trkpt lat="44.17878" lon="6.68148">
        <ele>1990.03</ele>
        <time>2018-08-26T08:29:47Z</time>
      </trkpt>
      <trkpt lat="44.17884" lon="6.68113">
        <ele>1988.11</ele>
        <time>2018-08-26T08:29:50Z</time>
      </trkpt>
      <trkpt lat="44.17878" lon="6.68081">
        <ele>1983.34</ele>
        <time>2018-08-26T08:29:53Z</time>
      </trkpt>
      <trkpt lat="44.17886" lon="6.68051">
        <ele>1981.57</ele>
        <time>2018-08-26T08:29:55Z</time>
      </trkpt>
      <trkpt lat="44.17895" lon="6.68019">
        <ele>1979.17</ele>
        <time>2018-08-26T08:29:57Z</time>
      </trkpt>
      <trkpt lat="44.17909" lon="6.67992">
        <ele>1976.64</ele>
        <time>2018-08-26T08:29:59Z</time>
      </trkpt>
      <trkpt lat="44.17929" lon="6.67979">
        <ele>1975.08</ele>
        <time>2018-08-26T08:30:01Z</time>
      </trkpt>
      <trkpt lat="44.17951" lon="6.67975">
        <ele>1973.33</ele>
        <time>2018-08-26T08:30:03Z</time>
      </trkpt>
      <trkpt lat="44.17974" lon="6.67978">
        <ele>1972.27</ele>
        <time>2018-08-26T08:30:05Z</time>
      </trkpt>
      <trkpt lat="44.17998" lon="6.67981">
        <ele>1971.96</ele>
        <time>2018-08-26T08:30:07Z</time>
      </trkpt>
      <trkpt lat="44.1802" lon="6.67976">
        <ele>1971.93</ele>
        <time>2018-08-26T08:30:09Z</time>
      </trkpt>
      <trkpt lat="44.18036" lon="6.67961">
        <ele>1968.5</ele>
        <time>2018-08-26T08:30:11Z</time>
      </trkpt>
      <trkpt lat="44.1805" lon="6.67934">
        <ele>1967.07</ele>
        <time>2018-08-26T08:30:13Z</time>
      </trkpt>
      <trkpt lat="44.18064" lon="6.67903">
        <ele>1962.6</ele>
        <time>2018-08-26T08:30:15Z</time>
      </trkpt>
      <trkpt lat="44.18069" lon="6.67874">
        <ele>1959.68</ele>
        <time>2018-08-26T08:30:17Z</time>
      </trkpt>
      <trkpt lat="44.18068" lon="6.67845">
        <ele>1957.6</ele>
        <time>2018-08-26T08:30:19Z</time>
      </trkpt>
      <trkpt lat="44.18056" lon="6.67815">
        <ele>1956.29</ele>
        <time>2018-08-26T08:30:21Z</time>
      </trkpt>
      <trkpt lat="44.18054" lon="6.67784">
        <ele>1955.26</ele>
        <time>2018-08-26T08:30:23Z</time>
      </trkpt>
      <trkpt lat="44.18059" lon="6.67752">
        <ele>1954.05</ele>
        <time>2018-08-26T08:30:25Z</time>
      </trkpt>
      <trkpt lat="44.18075" lon="6.67722">
        <ele>1953.94</ele>
        <time>2018-08-26T08:30:27Z</time>
      </trkpt>
      <trkpt lat="44.18093" lon="6.67688">
        <ele>1953.02</ele>
        <time>2018-08-26T08:30:29Z</time>
      </trkpt>
      <trkpt lat="44.18098" lon="6.6765">
        <ele>1949.02</ele>
        <time>2018-08-26T08:30:31Z</time>
      </trkpt>
      <trkpt lat="44.18098" lon="6.67612">
        <ele>1942.99</ele>
        <time>2018-08-26T08:30:33Z</time>
      </trkpt>
      <trkpt lat="44.18098" lon="6.67573">
        <ele>1938.6</ele>
        <time>2018-08-26T08:30:35Z</time>
      </trkpt>
      <trkpt lat="44.18102" lon="6.67537">
        <ele>1936.17</ele>
        <time>2018-08-26T08:30:37Z</time>
      </trkpt>
      <trkpt lat="44.18113" lon="6.67503">
        <ele>1931.82</ele>
        <time>2018-08-26T08:30:39Z</time>
      </trkpt>
      <trkpt lat="44.18118" lon="6.67466">
        <ele>1928.7</ele>
        <time>2018-08-26T08:30:41Z</time>
      </trkpt>
      <trkpt lat="44.18128" lon="6.67431">
        <ele>1927.09</ele>
        <time>2018-08-26T08:30:43Z</time>
      </trkpt>
      <trkpt lat="44.1814" lon="6.67398">
        <ele>1926.03</ele>
        <time>2018-08-26T08:30:45Z</time>
      </trkpt>
      <trkpt lat="44.18153" lon="6.6737">
        <ele>1925.94</ele>
        <time>2018-08-26T08:30:47Z</time>
      </trkpt>
      <trkpt lat="44.18165" lon="6.67339">
        <ele>1925.93</ele>
        <time>2018-08-26T08:30:49Z</time>
      </trkpt>
      <trkpt lat="44.18172" lon="6.67306">
        <ele>1925.93</ele>
        <time>2018-08-26T08:30:51Z</time>
      </trkpt>
      <trkpt lat="44.18178" lon="6.67278">
        <ele>1923.41</ele>
        <time>2018-08-26T08:30:53Z</time>
      </trkpt>
      <trkpt lat="44.18194" lon="6.67256">
        <ele>1922.03</ele>
        <time>2018-08-26T08:30:56Z</time>
      </trkpt>
      <trkpt lat="44.1822" lon="6.67268">
        <ele>1922.14</ele>
        <time>2018-08-26T08:30:59Z</time>
      </trkpt>
      <trkpt lat="44.18238" lon="6.67265">
        <ele>1921.95</ele>
        <time>2018-08-26T08:31:01Z</time>
      </trkpt>
      <trkpt lat="44.1826" lon="6.67252">
        <ele>1920.32</ele>
        <time>2018-08-26T08:31:03Z</time>
      </trkpt>
      <trkpt lat="44.18287" lon="6.67241">
        <ele>1919.97</ele>
        <time>2018-08-26T08:31:05Z</time>
      </trkpt>
      <trkpt lat="44.18314" lon="6.67231">
        <ele>1917.83</ele>
        <time>2018-08-26T08:31:07Z</time>
      </trkpt>
      <trkpt lat="44.18339" lon="6.67215">
        <ele>1913.79</ele>
        <time>2018-08-26T08:31:09Z</time>
      </trkpt>
      <trkpt lat="44.18358" lon="6.67193">
        <ele>1913.92</ele>
        <time>2018-08-26T08:31:11Z</time>
      </trkpt>
      <trkpt lat="44.18379" lon="6.67169">
        <ele>1914.63</ele>
        <time>2018-08-26T08:31:13Z</time>
      </trkpt>
      <trkpt lat="44.18403" lon="6.67157">
        <ele>1915.81</ele>
        <time>2018-08-26T08:31:15Z</time>
      </trkpt>
      <trkpt lat="44.18431" lon="6.67144">
        <ele>1913.82</ele>
        <time>2018-08-26T08:31:17Z</time>
      </trkpt>
      <trkpt lat="44.18455" lon="6.67125">
        <ele>1910.7</ele>
        <time>2018-08-26T08:31:19Z</time>
      </trkpt>
      <trkpt lat="44.18478" lon="6.67096">
        <ele>1905.87</ele>
        <time>2018-08-26T08:31:21Z</time>
      </trkpt>
      <trkpt lat="44.18501" lon="6.67077">
        <ele>1904.31</ele>
        <time>2018-08-26T08:31:23Z</time>
      </trkpt>
      <trkpt lat="44.18515" lon="6.67048">
        <ele>1899.55</ele>
        <time>2018-08-26T08:31:25Z</time>
      </trkpt>
      <trkpt lat="44.18527" lon="6.67016">
        <ele>1895.77</ele>
        <time>2018-08-26T08:31:27Z</time>
      </trkpt>
      <trkpt lat="44.18532" lon="6.66981">
        <ele>1893.4</ele>
        <time>2018-08-26T08:31:29Z</time>
      </trkpt>
      <trkpt lat="44.1853" lon="6.66945">
        <ele>1889.54</ele>
        <time>2018-08-26T08:31:31Z</time>
      </trkpt>
      <trkpt lat="44.18524" lon="6.66912">
        <ele>1887.38</ele>
        <time>2018-08-26T08:31:33Z</time>
      </trkpt>
      <trkpt lat="44.18514" lon="6.66875">
        <ele>1886.06</ele>
        <time>2018-08-26T08:31:35Z</time>
      </trkpt>
      <trkpt lat="44.18507" lon="6.66837">
        <ele>1885.03</ele>
        <time>2018-08-26T08:31:37Z</time>
      </trkpt>
      <trkpt lat="44.18504" lon="6.66804">
        <ele>1883.54</ele>
        <time>2018-08-26T08:31:39Z</time>
      </trkpt>
      <trkpt lat="44.18493" lon="6.66773">
        <ele>1882.49</ele>
        <time>2018-08-26T08:31:41Z</time>
      </trkpt>
      <trkpt lat="44.18479" lon="6.66743">
        <ele>1880.58</ele>
        <time>2018-08-26T08:31:43Z</time>
      </trkpt>
      <trkpt lat="44.1847" lon="6.66707">
        <ele>1879.29</ele>
        <time>2018-08-26T08:31:45Z</time>
      </trkpt>
      <trkpt lat="44.18467" lon="6.66672">
        <ele>1876.65</ele>
        <time>2018-08-26T08:31:47Z</time>
      </trkpt>
      <trkpt lat="44.18469" lon="6.66638">
        <ele>1875.3</ele>
        <time>2018-08-26T08:31:49Z</time>
      </trkpt>
      <trkpt lat="44.1848" lon="6.66605">
        <ele>1871.74</ele>
        <time>2018-08-26T08:31:51Z</time>
      </trkpt>
      <trkpt lat="44.18491" lon="6.66577">
        <ele>1867.08</ele>
        <time>2018-08-26T08:31:53Z</time>
      </trkpt>
      <trkpt lat="44.18493" lon="6.66544">
        <ele>1863.72</ele>
        <time>2018-08-26T08:31:55Z</time>
      </trkpt>
      <trkpt lat="44.18493" lon="6.66505">
        <ele>1859.78</ele>
        <time>2018-08-26T08:31:57Z</time>
      </trkpt>
      <trkpt lat="44.18492" lon="6.66468">
        <ele>1858.31</ele>
        <time>2018-08-26T08:31:59Z</time>
      </trkpt>
      <trkpt lat="44.18498" lon="6.66439">
        <ele>1855.44</ele>
        <time>2018-08-26T08:32:01Z</time>
      </trkpt>
      <trkpt lat="44.18511" lon="6.6642">
        <ele>1853.37</ele>
        <time>2018-08-26T08:32:03Z</time>
      </trkpt>
      <trkpt lat="44.18523" lon="6.66392">
        <ele>1851.06</ele>
        <time>2018-08-26T08:32:06Z</time>
      </trkpt>
      <trkpt lat="44.18511" lon="6.66363">
        <ele>1849.96</ele>
        <time>2018-08-26T08:32:09Z</time>
      </trkpt>
      <trkpt lat="44.18497" lon="6.66336">
        <ele>1846.5</ele>
        <time>2018-08-26T08:32:11Z</time>
      </trkpt>
      <trkpt lat="44.1849" lon="6.66302">
        <ele>1845.07</ele>
        <time>2018-08-26T08:32:13Z</time>
      </trkpt>
      <trkpt lat="44.18486" lon="6.66261">
        <ele>1844.24</ele>
        <time>2018-08-26T08:32:15Z</time>
      </trkpt>
      <trkpt lat="44.18483" lon="6.66222">
        <ele>1841.65</ele>
        <time>2018-08-26T08:32:17Z</time>
      </trkpt>
      <trkpt lat="44.18485" lon="6.66184">
        <ele>1839.38</ele>
        <time>2018-08-26T08:32:19Z</time>
      </trkpt>
      <trkpt lat="44.18489" lon="6.6615">
        <ele>1835.75</ele>
        <time>2018-08-26T08:32:21Z</time>
      </trkpt>
      <trkpt lat="44.1849" lon="6.66116">
        <ele>1832.69</ele>
        <time>2018-08-26T08:32:23Z</time>
      </trkpt>
      <trkpt lat="44.18486" lon="6.66082">
        <ele>1830.18</ele>
        <time>2018-08-26T08:32:25Z</time>
      </trkpt>
      <trkpt lat="44.18487" lon="6.66045">
        <ele>1827.43</ele>
        <time>2018-08-26T08:32:27Z</time>
      </trkpt>
      <trkpt lat="44.18486" lon="6.66008">
        <ele>1826.28</ele>
        <time>2018-08-26T08:32:29Z</time>
      </trkpt>
      <trkpt lat="44.18481" lon="6.65979">
        <ele>1825.05</ele>
        <time>2018-08-26T08:32:31Z</time>
      </trkpt>
      <trkpt lat="44.18479" lon="6.65951">
        <ele>1823.26</ele>
        <time>2018-08-26T08:32:35Z</time>
      </trkpt>
      <trkpt lat="44.18488" lon="6.65987">
        <ele>1824.81</ele>
        <time>2018-08-26T08:32:40Z</time>
      </trkpt>
      <trkpt lat="44.18498" lon="6.66013">
        <ele>1824.2</ele>
        <time>2018-08-26T08:32:41Z</time>
      </trkpt>
      <trkpt lat="44.18512" lon="6.66052">
        <ele>1820.73</ele>
        <time>2018-08-26T08:32:43Z</time>
      </trkpt>
      <trkpt lat="44.18526" lon="6.66088">
        <ele>1820.21</ele>
        <time>2018-08-26T08:32:45Z</time>
      </trkpt>
      <trkpt lat="44.18542" lon="6.66126">
        <ele>1816.74</ele>
        <time>2018-08-26T08:32:47Z</time>
      </trkpt>
      <trkpt lat="44.18552" lon="6.66168">
        <ele>1814.39</ele>
        <time>2018-08-26T08:32:49Z</time>
      </trkpt>
      <trkpt lat="44.18563" lon="6.66207">
        <ele>1812.57</ele>
        <time>2018-08-26T08:32:51Z</time>
      </trkpt>
      <trkpt lat="44.18577" lon="6.66239">
        <ele>1806.46</ele>
        <time>2018-08-26T08:32:53Z</time>
      </trkpt>
      <trkpt lat="44.1859" lon="6.66274">
        <ele>1802.55</ele>
        <time>2018-08-26T08:32:55Z</time>
      </trkpt>
      <trkpt lat="44.18608" lon="6.663">
        <ele>1799.47</ele>
        <time>2018-08-26T08:32:57Z</time>
      </trkpt>
      <trkpt lat="44.18627" lon="6.6632">
        <ele>1798.98</ele>
        <time>2018-08-26T08:32:59Z</time>
      </trkpt>
      <trkpt lat="44.18653" lon="6.66307">
        <ele>1796.62</ele>
        <time>2018-08-26T08:33:01Z</time>
      </trkpt>
      <trkpt lat="44.18684" lon="6.663">
        <ele>1794.38</ele>
        <time>2018-08-26T08:33:03Z</time>
      </trkpt>
      <trkpt lat="44.1871" lon="6.66302">
        <ele>1792.15</ele>
        <time>2018-08-26T08:33:05Z</time>
      </trkpt>
      <trkpt lat="44.18729" lon="6.66313">
        <ele>1791.04</ele>
        <time>2018-08-26T08:33:07Z</time>
      </trkpt>
      <trkpt lat="44.18741" lon="6.66335">
        <ele>1790.94</ele>
        <time>2018-08-26T08:33:09Z</time>
      </trkpt>
      <trkpt lat="44.1875" lon="6.66365">
        <ele>1789.32</ele>
        <time>2018-08-26T08:33:11Z</time>
      </trkpt>
      <trkpt lat="44.18762" lon="6.66401">
        <ele>1787.57</ele>
        <time>2018-08-26T08:33:13Z</time>
      </trkpt>
      <trkpt lat="44.18775" lon="6.66438">
        <ele>1785.38</ele>
        <time>2018-08-26T08:33:15Z</time>
      </trkpt>
      <trkpt lat="44.18782" lon="6.66474">
        <ele>1782.66</ele>
        <time>2018-08-26T08:33:17Z</time>
      </trkpt>
      <trkpt lat="44.18796" lon="6.6651">
        <ele>1781.3</ele>
        <time>2018-08-26T08:33:19Z</time>
      </trkpt>
      <trkpt lat="44.18808" lon="6.6654">
        <ele>1780.26</ele>
        <time>2018-08-26T08:33:21Z</time>
      </trkpt>
      <trkpt lat="44.18823" lon="6.6656">
        <ele>1774.71</ele>
        <time>2018-08-26T08:33:24Z</time>
      </trkpt>
      <trkpt lat="44.18842" lon="6.6656">
        <ele>1770.61</ele>
        <time>2018-08-26T08:33:27Z</time>
      </trkpt>
      <trkpt lat="44.18851" lon="6.66523">
        <ele>1770.9</ele>
        <time>2018-08-26T08:33:29Z</time>
      </trkpt>
      <trkpt lat="44.18866" lon="6.66496">
        <ele>1769.11</ele>
        <time>2018-08-26T08:33:31Z</time>
      </trkpt>
      <trkpt lat="44.18878" lon="6.66476">
        <ele>1765.73</ele>
        <time>2018-08-26T08:33:33Z</time>
      </trkpt>
      <trkpt lat="44.1887" lon="6.66436">
        <ele>1760.12</ele>
        <time>2018-08-26T08:33:36Z</time>
      </trkpt>
      <trkpt lat="44.18855" lon="6.66409">
        <ele>1757.43</ele>
        <time>2018-08-26T08:33:38Z</time>
      </trkpt>
      <trkpt lat="44.18842" lon="6.6638">
        <ele>1756.27</ele>
        <time>2018-08-26T08:33:40Z</time>
      </trkpt>
      <trkpt lat="44.18834" lon="6.66342">
        <ele>1754.35</ele>
        <time>2018-08-26T08:33:42Z</time>
      </trkpt>
      <trkpt lat="44.18829" lon="6.66303">
        <ele>1754.18</ele>
        <time>2018-08-26T08:33:44Z</time>
      </trkpt>
      <trkpt lat="44.18828" lon="6.66263">
        <ele>1753.46</ele>
        <time>2018-08-26T08:33:46Z</time>
      </trkpt>
      <trkpt lat="44.18825" lon="6.66231">
        <ele>1750.46</ele>
        <time>2018-08-26T08:33:48Z</time>
      </trkpt>
      <trkpt lat="44.18817" lon="6.66202">
        <ele>1746.55</ele>
        <time>2018-08-26T08:33:50Z</time>
      </trkpt>
      <trkpt lat="44.18815" lon="6.66169">
        <ele>1742.56</ele>
        <time>2018-08-26T08:33:52Z</time>
      </trkpt>
      <trkpt lat="44.18819" lon="6.66136">
        <ele>1741.99</ele>
        <time>2018-08-26T08:33:54Z</time>
      </trkpt>
      <trkpt lat="44.18819" lon="6.66101">
        <ele>1739.21</ele>
        <time>2018-08-26T08:33:56Z</time>
      </trkpt>
      <trkpt lat="44.18813" lon="6.66066">
        <ele>1736.64</ele>
        <time>2018-08-26T08:33:58Z</time>
      </trkpt>
      <trkpt lat="44.18805" lon="6.66037">
        <ele>1735.29</ele>
        <time>2018-08-26T08:34:00Z</time>
      </trkpt>
      <trkpt lat="44.18787" lon="6.66005">
        <ele>1733.06</ele>
        <time>2018-08-26T08:34:03Z</time>
      </trkpt>
      <trkpt lat="44.18785" lon="6.65978">
        <ele>1730.21</ele>
        <time>2018-08-26T08:34:05Z</time>
      </trkpt>
      <trkpt lat="44.18782" lon="6.65949">
        <ele>1726.95</ele>
        <time>2018-08-26T08:34:07Z</time>
      </trkpt>
      <trkpt lat="44.18771" lon="6.6592">
        <ele>1725.53</ele>
        <time>2018-08-26T08:34:09Z</time>
      </trkpt>
      <trkpt lat="44.1876" lon="6.65887">
        <ele>1723.37</ele>
        <time>2018-08-26T08:34:11Z</time>
      </trkpt>
      <trkpt lat="44.18756" lon="6.65849">
        <ele>1722.06</ele>
        <time>2018-08-26T08:34:13Z</time>
      </trkpt>
      <trkpt lat="44.18753" lon="6.65809">
        <ele>1720.12</ele>
        <time>2018-08-26T08:34:15Z</time>
      </trkpt>
      <trkpt lat="44.18752" lon="6.65769">
        <ele>1719.04</ele>
        <time>2018-08-26T08:34:17Z</time>
      </trkpt>
      <trkpt lat="44.18754" lon="6.6573">
        <ele>1718.94</ele>
        <time>2018-08-26T08:34:19Z</time>
      </trkpt>
      <trkpt lat="44.18761" lon="6.65696">
        <ele>1718.02</ele>
        <time>2018-08-26T08:34:21Z</time>
      </trkpt>
      <trkpt lat="44.1877" lon="6.65663">
        <ele>1713.6</ele>
        <time>2018-08-26T08:34:23Z</time>
      </trkpt>
      <trkpt lat="44.18775" lon="6.65629">
        <ele>1711.59</ele>
        <time>2018-08-26T08:34:25Z</time>
      </trkpt>
      <trkpt lat="44.18775" lon="6.656">
        <ele>1708.47</ele>
        <time>2018-08-26T08:34:27Z</time>
      </trkpt>
      <trkpt lat="44.18785" lon="6.65567">
        <ele>1704.54</ele>
        <time>2018-08-26T08:34:30Z</time>
      </trkpt>
      <trkpt lat="44.1879" lon="6.65537">
        <ele>1706.02</ele>
        <time>2018-08-26T08:34:32Z</time>
      </trkpt>
      <trkpt lat="44.18783" lon="6.65505">
        <ele>1705.94</ele>
        <time>2018-08-26T08:34:34Z</time>
      </trkpt>
      <trkpt lat="44.18775" lon="6.65483">
        <ele>1704.32</ele>
        <time>2018-08-26T08:34:36Z</time>
      </trkpt>
      <trkpt lat="44.18763" lon="6.65461">
        <ele>1701.66</ele>
        <time>2018-08-26T08:34:38Z</time>
      </trkpt>
      <trkpt lat="44.18756" lon="6.65429">
        <ele>1699.39</ele>
        <time>2018-08-26T08:34:40Z</time>
      </trkpt>
      <trkpt lat="44.18747" lon="6.65398">
        <ele>1696.45</ele>
        <time>2018-08-26T08:34:42Z</time>
      </trkpt>
      <trkpt lat="44.18732" lon="6.65373">
        <ele>1695.28</ele>
        <time>2018-08-26T08:34:44Z</time>
      </trkpt>
      <trkpt lat="44.18719" lon="6.65353">
        <ele>1693.14</ele>
        <time>2018-08-26T08:34:46Z</time>
      </trkpt>
      <trkpt lat="44.18715" lon="6.65325">
        <ele>1692.95</ele>
        <time>2018-08-26T08:34:48Z</time>
      </trkpt>
      <trkpt lat="44.18714" lon="6.65293">
        <ele>1689.71</ele>
        <time>2018-08-26T08:34:50Z</time>
      </trkpt>
      <trkpt lat="44.18713" lon="6.65258">
        <ele>1687.39</ele>
        <time>2018-08-26T08:34:52Z</time>
      </trkpt>
      <trkpt lat="44.18706" lon="6.65224">
        <ele>1687.18</ele>
        <time>2018-08-26T08:34:54Z</time>
      </trkpt>
      <trkpt lat="44.18701" lon="6.65188">
        <ele>1686.04</ele>
        <time>2018-08-26T08:34:56Z</time>
      </trkpt>
      <trkpt lat="44.18694" lon="6.65152">
        <ele>1684.33</ele>
        <time>2018-08-26T08:34:58Z</time>
      </trkpt>
      <trkpt lat="44.18697" lon="6.65122">
        <ele>1684.67</ele>
        <time>2018-08-26T08:35:00Z</time>
      </trkpt>
      <trkpt lat="44.18694" lon="6.65097">
        <ele>1685.12</ele>
        <time>2018-08-26T08:35:02Z</time>
      </trkpt>
      <trkpt lat="44.18684" lon="6.65071">
        <ele>1682.64</ele>
        <time>2018-08-26T08:35:04Z</time>
      </trkpt>
      <trkpt lat="44.1867" lon="6.65045">
        <ele>1679.89</ele>
        <time>2018-08-26T08:35:06Z</time>
      </trkpt>
      <trkpt lat="44.18659" lon="6.65016">
        <ele>1678.11</ele>
        <time>2018-08-26T08:35:08Z</time>
      </trkpt>
      <trkpt lat="44.18642" lon="6.64997">
        <ele>1674.52</ele>
        <time>2018-08-26T08:35:10Z</time>
      </trkpt>
      <trkpt lat="44.18621" lon="6.64981">
        <ele>1673.07</ele>
        <time>2018-08-26T08:35:12Z</time>
      </trkpt>
      <trkpt lat="44.18598" lon="6.64968">
        <ele>1671.33</ele>
        <time>2018-08-26T08:35:14Z</time>
      </trkpt>
      <trkpt lat="44.18586" lon="6.64949">
        <ele>1669.57</ele>
        <time>2018-08-26T08:35:16Z</time>
      </trkpt>
      <trkpt lat="44.18583" lon="6.64923">
        <ele>1668.99</ele>
        <time>2018-08-26T08:35:18Z</time>
      </trkpt>
      <trkpt lat="44.18582" lon="6.64889">
        <ele>1668.03</ele>
        <time>2018-08-26T08:35:20Z</time>
      </trkpt>
      <trkpt lat="44.18586" lon="6.64856">
        <ele>1668</ele>
        <time>2018-08-26T08:35:23Z</time>
      </trkpt>
      <trkpt lat="44.1857" lon="6.6483">
        <ele>1668.69</ele>
        <time>2018-08-26T08:35:26Z</time>
      </trkpt>
      <trkpt lat="44.18562" lon="6.64807">
        <ele>1669.4</ele>
        <time>2018-08-26T08:35:28Z</time>
      </trkpt>
      <trkpt lat="44.18558" lon="6.64773">
        <ele>1670.09</ele>
        <time>2018-08-26T08:35:30Z</time>
      </trkpt>
      <trkpt lat="44.18555" lon="6.64737">
        <ele>1667.42</ele>
        <time>2018-08-26T08:35:32Z</time>
      </trkpt>
      <trkpt lat="44.18554" lon="6.64696">
        <ele>1662.84</ele>
        <time>2018-08-26T08:35:34Z</time>
      </trkpt>
      <trkpt lat="44.18557" lon="6.64656">
        <ele>1661.52</ele>
        <time>2018-08-26T08:35:36Z</time>
      </trkpt>
      <trkpt lat="44.18558" lon="6.64612">
        <ele>1658.67</ele>
        <time>2018-08-26T08:35:38Z</time>
      </trkpt>
      <trkpt lat="44.18557" lon="6.64566">
        <ele>1657.3</ele>
        <time>2018-08-26T08:35:40Z</time>
      </trkpt>
      <trkpt lat="44.18556" lon="6.6452">
        <ele>1655.14</ele>
        <time>2018-08-26T08:35:42Z</time>
      </trkpt>
      <trkpt lat="44.18561" lon="6.64482">
        <ele>1654.95</ele>
        <time>2018-08-26T08:35:44Z</time>
      </trkpt>
      <trkpt lat="44.1856" lon="6.64451">
        <ele>1654.02</ele>
        <time>2018-08-26T08:35:46Z</time>
      </trkpt>
      <trkpt lat="44.18535" lon="6.64437">
        <ele>1651.83</ele>
        <time>2018-08-26T08:35:49Z</time>
      </trkpt>
      <trkpt lat="44.18515" lon="6.64445">
        <ele>1645.48</ele>
        <time>2018-08-26T08:35:51Z</time>
      </trkpt>
      <trkpt lat="44.18492" lon="6.64446">
        <ele>1640.64</ele>
        <time>2018-08-26T08:35:53Z</time>
      </trkpt>
      <trkpt lat="44.18472" lon="6.64438">
        <ele>1638.38</ele>
        <time>2018-08-26T08:35:55Z</time>
      </trkpt>
      <trkpt lat="44.18458" lon="6.64416">
        <ele>1635.87</ele>
        <time>2018-08-26T08:35:57Z</time>
      </trkpt>
      <trkpt lat="44.18445" lon="6.64393">
        <ele>1627.8</ele>
        <time>2018-08-26T08:35:59Z</time>
      </trkpt>
      <trkpt lat="44.1844" lon="6.64363">
        <ele>1620.15</ele>
        <time>2018-08-26T08:36:01Z</time>
      </trkpt>
      <trkpt lat="44.1844" lon="6.64328">
        <ele>1619.25</ele>
        <time>2018-08-26T08:36:03Z</time>
      </trkpt>
      <trkpt lat="44.18437" lon="6.64299">
        <ele>1619.45</ele>
        <time>2018-08-26T08:36:05Z</time>
      </trkpt>
      <trkpt lat="44.18426" lon="6.64279">
        <ele>1618.98</ele>
        <time>2018-08-26T08:36:07Z</time>
      </trkpt>
      <trkpt lat="44.18405" lon="6.64275">
        <ele>1618.23</ele>
        <time>2018-08-26T08:36:09Z</time>
      </trkpt>
      <trkpt lat="44.18386" lon="6.6427">
        <ele>1614.74</ele>
        <time>2018-08-26T08:36:11Z</time>
      </trkpt>
      <trkpt lat="44.18362" lon="6.64272">
        <ele>1614</ele>
        <time>2018-08-26T08:36:13Z</time>
      </trkpt>
      <trkpt lat="44.18342" lon="6.64284">
        <ele>1613.24</ele>
        <time>2018-08-26T08:36:15Z</time>
      </trkpt>
      <trkpt lat="44.18321" lon="6.64297">
        <ele>1612.96</ele>
        <time>2018-08-26T08:36:17Z</time>
      </trkpt>
      <trkpt lat="44.183" lon="6.64301">
        <ele>1608.59</ele>
        <time>2018-08-26T08:36:19Z</time>
      </trkpt>
      <trkpt lat="44.18281" lon="6.6428">
        <ele>1605.68</ele>
        <time>2018-08-26T08:36:21Z</time>
      </trkpt>
      <trkpt lat="44.18262" lon="6.64254">
        <ele>1604.09</ele>
        <time>2018-08-26T08:36:23Z</time>
      </trkpt>
      <trkpt lat="44.18248" lon="6.64236">
        <ele>1603.45</ele>
        <time>2018-08-26T08:36:25Z</time>
      </trkpt>
      <trkpt lat="44.18224" lon="6.6422">
        <ele>1601.37</ele>
        <time>2018-08-26T08:36:27Z</time>
      </trkpt>
      <trkpt lat="44.18199" lon="6.642">
        <ele>1600.27</ele>
        <time>2018-08-26T08:36:29Z</time>
      </trkpt>
      <trkpt lat="44.18181" lon="6.64173">
        <ele>1599.26</ele>
        <time>2018-08-26T08:36:31Z</time>
      </trkpt>
      <trkpt lat="44.18165" lon="6.64137">
        <ele>1598.26</ele>
        <time>2018-08-26T08:36:33Z</time>
      </trkpt>
      <trkpt lat="44.18151" lon="6.64102">
        <ele>1597.96</ele>
        <time>2018-08-26T08:36:35Z</time>
      </trkpt>
      <trkpt lat="44.18137" lon="6.64079">
        <ele>1596.32</ele>
        <time>2018-08-26T08:36:37Z</time>
      </trkpt>
      <trkpt lat="44.18121" lon="6.64053">
        <ele>1589.32</ele>
        <time>2018-08-26T08:36:39Z</time>
      </trkpt>
      <trkpt lat="44.18118" lon="6.64016">
        <ele>1581.12</ele>
        <time>2018-08-26T08:36:41Z</time>
      </trkpt>
      <trkpt lat="44.18115" lon="6.63983">
        <ele>1578.22</ele>
        <time>2018-08-26T08:36:43Z</time>
      </trkpt>
      <trkpt lat="44.18107" lon="6.63956">
        <ele>1575.44</ele>
        <time>2018-08-26T08:36:45Z</time>
      </trkpt>
      <trkpt lat="44.18095" lon="6.6393">
        <ele>1575.92</ele>
        <time>2018-08-26T08:36:48Z</time>
      </trkpt>
      <trkpt lat="44.18116" lon="6.63935">
        <ele>1573.74</ele>
        <time>2018-08-26T08:36:53Z</time>
      </trkpt>
      <trkpt lat="44.18134" lon="6.63947">
        <ele>1574.82</ele>
        <time>2018-08-26T08:36:55Z</time>
      </trkpt>
      <trkpt lat="44.18152" lon="6.63968">
        <ele>1573.52</ele>
        <time>2018-08-26T08:36:57Z</time>
      </trkpt>
      <trkpt lat="44.18161" lon="6.63999">
        <ele>1573.89</ele>
        <time>2018-08-26T08:36:59Z</time>
      </trkpt>
      <trkpt lat="44.18167" lon="6.64032">
        <ele>1570.16</ele>
        <time>2018-08-26T08:37:02Z</time>
      </trkpt>
      <trkpt lat="44.18183" lon="6.64046">
        <ele>1567.14</ele>
        <time>2018-08-26T08:37:06Z</time>
      </trkpt>
      <trkpt lat="44.18189" lon="6.64002">
        <ele>1566.93</ele>
        <time>2018-08-26T08:37:10Z</time>
      </trkpt>
      <trkpt lat="44.18189" lon="6.63971">
        <ele>1565.11</ele>
        <time>2018-08-26T08:37:12Z</time>
      </trkpt>
      <trkpt lat="44.18177" lon="6.63946">
        <ele>1563.76</ele>
        <time>2018-08-26T08:37:14Z</time>
      </trkpt>
      <trkpt lat="44.18163" lon="6.6392">
        <ele>1561.6</ele>
        <time>2018-08-26T08:37:16Z</time>
      </trkpt>
      <trkpt lat="44.18144" lon="6.639">
        <ele>1560.78</ele>
        <time>2018-08-26T08:37:18Z</time>
      </trkpt>
      <trkpt lat="44.18121" lon="6.63884">
        <ele>1558.4</ele>
        <time>2018-08-26T08:37:20Z</time>
      </trkpt>
      <trkpt lat="44.18094" lon="6.6387">
        <ele>1557.27</ele>
        <time>2018-08-26T08:37:22Z</time>
      </trkpt>
      <trkpt lat="44.18069" lon="6.63849">
        <ele>1556.26</ele>
        <time>2018-08-26T08:37:24Z</time>
      </trkpt>
      <trkpt lat="44.18054" lon="6.63828">
        <ele>1555.05</ele>
        <time>2018-08-26T08:37:26Z</time>
      </trkpt>
      <trkpt lat="44.18047" lon="6.63794">
        <ele>1549.9</ele>
        <time>2018-08-26T08:37:28Z</time>
      </trkpt>
      <trkpt lat="44.18041" lon="6.63757">
        <ele>1545.1</ele>
        <time>2018-08-26T08:37:30Z</time>
      </trkpt>
      <trkpt lat="44.18037" lon="6.63722">
        <ele>1542.43</ele>
        <time>2018-08-26T08:37:32Z</time>
      </trkpt>
      <trkpt lat="44.18045" lon="6.63695">
        <ele>1537.41</ele>
        <time>2018-08-26T08:37:35Z</time>
      </trkpt>
      <trkpt lat="44.18068" lon="6.63701">
        <ele>1531.38</ele>
        <time>2018-08-26T08:37:39Z</time>
      </trkpt>
      <trkpt lat="44.18095" lon="6.63713">
        <ele>1529.36</ele>
        <time>2018-08-26T08:37:41Z</time>
      </trkpt>
      <trkpt lat="44.18119" lon="6.63719">
        <ele>1527.36</ele>
        <time>2018-08-26T08:37:43Z</time>
      </trkpt>
      <trkpt lat="44.18142" lon="6.63726">
        <ele>1526.97</ele>
        <time>2018-08-26T08:37:45Z</time>
      </trkpt>
      <trkpt lat="44.18168" lon="6.63734">
        <ele>1525.32</ele>
        <time>2018-08-26T08:37:47Z</time>
      </trkpt>
      <trkpt lat="44.18189" lon="6.63745">
        <ele>1521.75</ele>
        <time>2018-08-26T08:37:49Z</time>
      </trkpt>
      <trkpt lat="44.18207" lon="6.63766">
        <ele>1519.6</ele>
        <time>2018-08-26T08:37:51Z</time>
      </trkpt>
      <trkpt lat="44.18222" lon="6.63785">
        <ele>1518.29</ele>
        <time>2018-08-26T08:37:53Z</time>
      </trkpt>
      <trkpt lat="44.18243" lon="6.63797">
        <ele>1517.05</ele>
        <time>2018-08-26T08:37:55Z</time>
      </trkpt>
      <trkpt lat="44.18274" lon="6.6378">
        <ele>1516.24</ele>
        <time>2018-08-26T08:37:57Z</time>
      </trkpt>
      <trkpt lat="44.18306" lon="6.6377">
        <ele>1512.32</ele>
        <time>2018-08-26T08:37:59Z</time>
      </trkpt>
      <trkpt lat="44.18334" lon="6.63758">
        <ele>1510.14</ele>
        <time>2018-08-26T08:38:01Z</time>
      </trkpt>
      <trkpt lat="44.18357" lon="6.63751">
        <ele>1509.04</ele>
        <time>2018-08-26T08:38:03Z</time>
      </trkpt>
      <trkpt lat="44.18377" lon="6.63756">
        <ele>1508.94</ele>
        <time>2018-08-26T08:38:05Z</time>
      </trkpt>
      <trkpt lat="44.18392" lon="6.63773">
        <ele>1506.06</ele>
        <time>2018-08-26T08:38:10Z</time>
      </trkpt>
      <trkpt lat="44.18376" lon="6.63759">
        <ele>1505.24</ele>
        <time>2018-08-26T08:38:12Z</time>
      </trkpt>
      <trkpt lat="44.18362" lon="6.6374">
        <ele>1503.62</ele>
        <time>2018-08-26T08:38:13Z</time>
      </trkpt>
      <trkpt lat="44.18342" lon="6.63726">
        <ele>1501.38</ele>
        <time>2018-08-26T08:38:15Z</time>
      </trkpt>
      <trkpt lat="44.18309" lon="6.6372">
        <ele>1500.06</ele>
        <time>2018-08-26T08:38:17Z</time>
      </trkpt>
      <trkpt lat="44.18277" lon="6.63713">
        <ele>1497.63</ele>
        <time>2018-08-26T08:38:19Z</time>
      </trkpt>
      <trkpt lat="44.18246" lon="6.63702">
        <ele>1496.29</ele>
        <time>2018-08-26T08:38:21Z</time>
      </trkpt>
      <trkpt lat="44.18221" lon="6.63694">
        <ele>1495.96</ele>
        <time>2018-08-26T08:38:23Z</time>
      </trkpt>
      <trkpt lat="44.18198" lon="6.63678">
        <ele>1495.02</ele>
        <time>2018-08-26T08:38:26Z</time>
      </trkpt>
      <trkpt lat="44.18215" lon="6.63683">
        <ele>1490.53</ele>
        <time>2018-08-26T08:38:28Z</time>
      </trkpt>
      <trkpt lat="44.18238" lon="6.6369">
        <ele>1485.32</ele>
        <time>2018-08-26T08:38:32Z</time>
      </trkpt>
      <trkpt lat="44.18267" lon="6.63685">
        <ele>1483.15</ele>
        <time>2018-08-26T08:38:34Z</time>
      </trkpt>
      <trkpt lat="44.18292" lon="6.63663">
        <ele>1483.16</ele>
        <time>2018-08-26T08:38:36Z</time>
      </trkpt>
      <trkpt lat="44.18318" lon="6.63656">
        <ele>1483.65</ele>
        <time>2018-08-26T08:38:38Z</time>
      </trkpt>
      <trkpt lat="44.18343" lon="6.63654">
        <ele>1483.9</ele>
        <time>2018-08-26T08:38:40Z</time>
      </trkpt>
      <trkpt lat="44.18372" lon="6.63658">
        <ele>1477.98</ele>
        <time>2018-08-26T08:38:42Z</time>
      </trkpt>
      <trkpt lat="44.18399" lon="6.63656">
        <ele>1474.92</ele>
        <time>2018-08-26T08:38:44Z</time>
      </trkpt>
      <trkpt lat="44.18424" lon="6.63667">
        <ele>1468.77</ele>
        <time>2018-08-26T08:38:46Z</time>
      </trkpt>
      <trkpt lat="44.18451" lon="6.63668">
        <ele>1468.01</ele>
        <time>2018-08-26T08:38:48Z</time>
      </trkpt>
      <trkpt lat="44.18474" lon="6.63662">
        <ele>1466.33</ele>
        <time>2018-08-26T08:38:50Z</time>
      </trkpt>
      <trkpt lat="44.18497" lon="6.63662">
        <ele>1465.06</ele>
        <time>2018-08-26T08:38:52Z</time>
      </trkpt>
      <trkpt lat="44.18518" lon="6.63669">
        <ele>1462.01</ele>
        <time>2018-08-26T08:38:55Z</time>
      </trkpt>
      <trkpt lat="44.18512" lon="6.63635">
        <ele>1457.24</ele>
        <time>2018-08-26T08:39:02Z</time>
      </trkpt>
      <trkpt lat="44.18491" lon="6.63629">
        <ele>1453.53</ele>
        <time>2018-08-26T08:39:04Z</time>
      </trkpt>
      <trkpt lat="44.18465" lon="6.63619">
        <ele>1452.07</ele>
        <time>2018-08-26T08:39:06Z</time>
      </trkpt>
      <trkpt lat="44.18436" lon="6.63605">
        <ele>1451.03</ele>
        <time>2018-08-26T08:39:08Z</time>
      </trkpt>
      <trkpt lat="44.18405" lon="6.63592">
        <ele>1450.94</ele>
        <time>2018-08-26T08:39:10Z</time>
      </trkpt>
      <trkpt lat="44.18375" lon="6.6358">
        <ele>1450.93</ele>
        <time>2018-08-26T08:39:12Z</time>
      </trkpt>
      <trkpt lat="44.18346" lon="6.63569">
        <ele>1450.02</ele>
        <time>2018-08-26T08:39:14Z</time>
      </trkpt>
      <trkpt lat="44.18326" lon="6.63552">
        <ele>1445.04</ele>
        <time>2018-08-26T08:39:16Z</time>
      </trkpt>
      <trkpt lat="44.18311" lon="6.63525">
        <ele>1440.6</ele>
        <time>2018-08-26T08:39:18Z</time>
      </trkpt>
      <trkpt lat="44.18291" lon="6.63502">
        <ele>1437.47</ele>
        <time>2018-08-26T08:39:20Z</time>
      </trkpt>
      <trkpt lat="44.18267" lon="6.63491">
        <ele>1434.46</ele>
        <time>2018-08-26T08:39:22Z</time>
      </trkpt>
      <trkpt lat="44.1824" lon="6.63489">
        <ele>1428.94</ele>
        <time>2018-08-26T08:39:24Z</time>
      </trkpt>
      <trkpt lat="44.18214" lon="6.63476">
        <ele>1425.71</ele>
        <time>2018-08-26T08:39:26Z</time>
      </trkpt>
      <trkpt lat="44.18198" lon="6.63458">
        <ele>1419.05</ele>
        <time>2018-08-26T08:39:28Z</time>
      </trkpt>
      <trkpt lat="44.18177" lon="6.63448">
        <ele>1417.33</ele>
        <time>2018-08-26T08:39:30Z</time>
      </trkpt>
      <trkpt lat="44.18157" lon="6.63443">
        <ele>1416.06</ele>
        <time>2018-08-26T08:39:32Z</time>
      </trkpt>
      <trkpt lat="44.18141" lon="6.63458">
        <ele>1415.02</ele>
        <time>2018-08-26T08:39:35Z</time>
      </trkpt>
      <trkpt lat="44.18161" lon="6.63442">
        <ele>1408.53</ele>
        <time>2018-08-26T08:39:41Z</time>
      </trkpt>
      <trkpt lat="44.18186" lon="6.63426">
        <ele>1406.16</ele>
        <time>2018-08-26T08:39:43Z</time>
      </trkpt>
      <trkpt lat="44.18209" lon="6.63419">
        <ele>1405.04</ele>
        <time>2018-08-26T08:39:45Z</time>
      </trkpt>
      <trkpt lat="44.18233" lon="6.63421">
        <ele>1404.03</ele>
        <time>2018-08-26T08:39:47Z</time>
      </trkpt>
      <trkpt lat="44.18256" lon="6.63423">
        <ele>1403.94</ele>
        <time>2018-08-26T08:39:49Z</time>
      </trkpt>
      <trkpt lat="44.18281" lon="6.63434">
        <ele>1399.52</ele>
        <time>2018-08-26T08:39:51Z</time>
      </trkpt>
      <trkpt lat="44.18309" lon="6.63446">
        <ele>1394.64</ele>
        <time>2018-08-26T08:39:53Z</time>
      </trkpt>
      <trkpt lat="44.18335" lon="6.63449">
        <ele>1391.47</ele>
        <time>2018-08-26T08:39:55Z</time>
      </trkpt>
      <trkpt lat="44.18363" lon="6.63455">
        <ele>1386.57</ele>
        <time>2018-08-26T08:39:57Z</time>
      </trkpt>
      <trkpt lat="44.18391" lon="6.63457">
        <ele>1383.47</ele>
        <time>2018-08-26T08:39:59Z</time>
      </trkpt>
      <trkpt lat="44.18422" lon="6.6345">
        <ele>1382.98</ele>
        <time>2018-08-26T08:40:01Z</time>
      </trkpt>
      <trkpt lat="44.18446" lon="6.63427">
        <ele>1382.02</ele>
        <time>2018-08-26T08:40:03Z</time>
      </trkpt>
      <trkpt lat="44.18472" lon="6.63413">
        <ele>1379.84</ele>
        <time>2018-08-26T08:40:05Z</time>
      </trkpt>
      <trkpt lat="44.18492" lon="6.63395">
        <ele>1379.01</ele>
        <time>2018-08-26T08:40:07Z</time>
      </trkpt>
      <trkpt lat="44.1852" lon="6.6339">
        <ele>1375.72</ele>
        <time>2018-08-26T08:40:09Z</time>
      </trkpt>
      <trkpt lat="44.18546" lon="6.63391">
        <ele>1376.61</ele>
        <time>2018-08-26T08:40:11Z</time>
      </trkpt>
      <trkpt lat="44.18565" lon="6.63396">
        <ele>1374.59</ele>
        <time>2018-08-26T08:40:13Z</time>
      </trkpt>
      <trkpt lat="44.18588" lon="6.63401">
        <ele>1370.12</ele>
        <time>2018-08-26T08:40:16Z</time>
      </trkpt>
      <trkpt lat="44.18568" lon="6.63379">
        <ele>1368.09</ele>
        <time>2018-08-26T08:40:22Z</time>
      </trkpt>
      <trkpt lat="44.18548" lon="6.63374">
        <ele>1363.6</ele>
        <time>2018-08-26T08:40:24Z</time>
      </trkpt>
      <trkpt lat="44.18523" lon="6.63361">
        <ele>1357.04</ele>
        <time>2018-08-26T08:40:26Z</time>
      </trkpt>
      <trkpt lat="44.18497" lon="6.63354">
        <ele>1355.12</ele>
        <time>2018-08-26T08:40:28Z</time>
      </trkpt>
      <trkpt lat="44.18468" lon="6.63356">
        <ele>1354.95</ele>
        <time>2018-08-26T08:40:30Z</time>
      </trkpt>
      <trkpt lat="44.18442" lon="6.63358">
        <ele>1354.02</ele>
        <time>2018-08-26T08:40:32Z</time>
      </trkpt>
      <trkpt lat="44.18417" lon="6.63355">
        <ele>1353.24</ele>
        <time>2018-08-26T08:40:34Z</time>
      </trkpt>
      <trkpt lat="44.18397" lon="6.63343">
        <ele>1350.65</ele>
        <time>2018-08-26T08:40:36Z</time>
      </trkpt>
      <trkpt lat="44.18378" lon="6.63324">
        <ele>1350.2</ele>
        <time>2018-08-26T08:40:38Z</time>
      </trkpt>
      <trkpt lat="44.18359" lon="6.63312">
        <ele>1349.25</ele>
        <time>2018-08-26T08:40:40Z</time>
      </trkpt>
      <trkpt lat="44.18341" lon="6.63312">
        <ele>1345.74</ele>
        <time>2018-08-26T08:40:42Z</time>
      </trkpt>
      <trkpt lat="44.18319" lon="6.63308">
        <ele>1344.09</ele>
        <time>2018-08-26T08:40:44Z</time>
      </trkpt>
      <trkpt lat="44.18296" lon="6.63307">
        <ele>1343.73</ele>
        <time>2018-08-26T08:40:46Z</time>
      </trkpt>
      <trkpt lat="44.18274" lon="6.6331">
        <ele>1343</ele>
        <time>2018-08-26T08:40:48Z</time>
      </trkpt>
      <trkpt lat="44.18247" lon="6.633">
        <ele>1342.94</ele>
        <time>2018-08-26T08:40:50Z</time>
      </trkpt>
      <trkpt lat="44.1822" lon="6.63292">
        <ele>1340.2</ele>
        <time>2018-08-26T08:40:52Z</time>
      </trkpt>
      <trkpt lat="44.18188" lon="6.63283">
        <ele>1338.34</ele>
        <time>2018-08-26T08:40:54Z</time>
      </trkpt>
      <trkpt lat="44.18159" lon="6.63276">
        <ele>1333.42</ele>
        <time>2018-08-26T08:40:56Z</time>
      </trkpt>
      <trkpt lat="44.18131" lon="6.63269">
        <ele>1332.97</ele>
        <time>2018-08-26T08:40:58Z</time>
      </trkpt>
      <trkpt lat="44.18112" lon="6.63251">
        <ele>1334.05</ele>
        <time>2018-08-26T08:41:00Z</time>
      </trkpt>
      <trkpt lat="44.18133" lon="6.63258">
        <ele>1329.43</ele>
        <time>2018-08-26T08:41:07Z</time>
      </trkpt>
      <trkpt lat="44.18156" lon="6.63259">
        <ele>1327.27</ele>
        <time>2018-08-26T08:41:10Z</time>
      </trkpt>
      <trkpt lat="44.18133" lon="6.6325">
        <ele>1323.2</ele>
        <time>2018-08-26T08:41:16Z</time>
      </trkpt>
      <trkpt lat="44.18109" lon="6.6325">
        <ele>1320.64</ele>
        <time>2018-08-26T08:41:18Z</time>
      </trkpt>
      <trkpt lat="44.18088" lon="6.63257">
        <ele>1319.08</ele>
        <time>2018-08-26T08:41:20Z</time>
      </trkpt>
      <trkpt lat="44.18063" lon="6.63262">
        <ele>1319.85</ele>
        <time>2018-08-26T08:41:22Z</time>
      </trkpt>
      <trkpt lat="44.18042" lon="6.63268">
        <ele>1319.71</ele>
        <time>2018-08-26T08:41:24Z</time>
      </trkpt>
      <trkpt lat="44.18021" lon="6.63266">
        <ele>1315.57</ele>
        <time>2018-08-26T08:41:26Z</time>
      </trkpt>
      <trkpt lat="44.17998" lon="6.63258">
        <ele>1314.99</ele>
        <time>2018-08-26T08:41:28Z</time>
      </trkpt>
      <trkpt lat="44.17981" lon="6.63249">
        <ele>1314.03</ele>
        <time>2018-08-26T08:41:30Z</time>
      </trkpt>
      <trkpt lat="44.18002" lon="6.63248">
        <ele>1309.03</ele>
        <time>2018-08-26T08:41:35Z</time>
      </trkpt>
      <trkpt lat="44.18022" lon="6.63243">
        <ele>1309.15</ele>
        <time>2018-08-26T08:41:37Z</time>
      </trkpt>
      <trkpt lat="44.18044" lon="6.63235">
        <ele>1306.85</ele>
        <time>2018-08-26T08:41:39Z</time>
      </trkpt>
      <trkpt lat="44.18065" lon="6.6322">
        <ele>1306.71</ele>
        <time>2018-08-26T08:41:41Z</time>
      </trkpt>
      <trkpt lat="44.18087" lon="6.63201">
        <ele>1304.81</ele>
        <time>2018-08-26T08:41:43Z</time>
      </trkpt>
      <trkpt lat="44.18109" lon="6.63189">
        <ele>1302.4</ele>
        <time>2018-08-26T08:41:45Z</time>
      </trkpt>
      <trkpt lat="44.18135" lon="6.63187">
        <ele>1301.97</ele>
        <time>2018-08-26T08:41:47Z</time>
      </trkpt>
      <trkpt lat="44.18159" lon="6.63183">
        <ele>1301.93</ele>
        <time>2018-08-26T08:41:49Z</time>
      </trkpt>
      <trkpt lat="44.18182" lon="6.63177">
        <ele>1301.93</ele>
        <time>2018-08-26T08:41:51Z</time>
      </trkpt>
      <trkpt lat="44.18205" lon="6.63177">
        <ele>1301.23</ele>
        <time>2018-08-26T08:41:53Z</time>
      </trkpt>
      <trkpt lat="44.18229" lon="6.6317">
        <ele>1300.26</ele>
        <time>2018-08-26T08:41:55Z</time>
      </trkpt>
      <trkpt lat="44.18251" lon="6.63158">
        <ele>1299.96</ele>
        <time>2018-08-26T08:41:57Z</time>
      </trkpt>
      <trkpt lat="44.18273" lon="6.63149">
        <ele>1299.02</ele>
        <time>2018-08-26T08:41:59Z</time>
      </trkpt>
      <trkpt lat="44.18293" lon="6.63139">
        <ele>1298.94</ele>
        <time>2018-08-26T08:42:01Z</time>
      </trkpt>
      <trkpt lat="44.18311" lon="6.63123">
        <ele>1298.93</ele>
        <time>2018-08-26T08:42:03Z</time>
      </trkpt>
      <trkpt lat="44.18325" lon="6.63106">
        <ele>1297.81</ele>
        <time>2018-08-26T08:42:05Z</time>
      </trkpt>
      <trkpt lat="44.18334" lon="6.63081">
        <ele>1297.22</ele>
        <time>2018-08-26T08:42:07Z</time>
      </trkpt>
      <trkpt lat="44.18341" lon="6.63051">
        <ele>1292.68</ele>
        <time>2018-08-26T08:42:10Z</time>
      </trkpt>
      <trkpt lat="44.1834" lon="6.63023">
        <ele>1288.54</ele>
        <time>2018-08-26T08:42:15Z</time>
      </trkpt>
      <trkpt lat="44.1836" lon="6.6302">
        <ele>1277.03</ele>
        <time>2018-08-26T08:42:21Z</time>
      </trkpt>
      <trkpt lat="44.18375" lon="6.63048">
        <ele>1274.67</ele>
        <time>2018-08-26T08:42:25Z</time>
      </trkpt>
      <trkpt lat="44.18385" lon="6.63077">
        <ele>1275.61</ele>
        <time>2018-08-26T08:42:27Z</time>
      </trkpt>
      <trkpt lat="44.18396" lon="6.6311">
        <ele>1275.9</ele>
        <time>2018-08-26T08:42:29Z</time>
      </trkpt>
      <trkpt lat="44.18407" lon="6.63147">
        <ele>1275.93</ele>
        <time>2018-08-26T08:42:31Z</time>
      </trkpt>
      <trkpt lat="44.18426" lon="6.63175">
        <ele>1275.02</ele>
        <time>2018-08-26T08:42:33Z</time>
      </trkpt>
      <trkpt lat="44.18451" lon="6.63192">
        <ele>1275.64</ele>
        <time>2018-08-26T08:42:35Z</time>
      </trkpt>
      <trkpt lat="44.18487" lon="6.6319">
        <ele>1276.6</ele>
        <time>2018-08-26T08:42:37Z</time>
      </trkpt>
      <trkpt lat="44.18522" lon="6.6319">
        <ele>1276.69</ele>
        <time>2018-08-26T08:42:39Z</time>
      </trkpt>
      <trkpt lat="44.18542" lon="6.63192">
        <ele>1276.16</ele>
        <time>2018-08-26T08:42:40Z</time>
      </trkpt>
      <trkpt lat="44.18561" lon="6.63187">
        <ele>1276.7</ele>
        <time>2018-08-26T08:42:41Z</time>
      </trkpt>
      <trkpt lat="44.1858" lon="6.63183">
        <ele>1277.56</ele>
        <time>2018-08-26T08:42:42Z</time>
      </trkpt>
      <trkpt lat="44.186" lon="6.63181">
        <ele>1277.12</ele>
        <time>2018-08-26T08:42:43Z</time>
      </trkpt>
      <trkpt lat="44.18618" lon="6.63182">
        <ele>1276.99</ele>
        <time>2018-08-26T08:42:44Z</time>
      </trkpt>
      <trkpt lat="44.18637" lon="6.63182">
        <ele>1276.25</ele>
        <time>2018-08-26T08:42:45Z</time>
      </trkpt>
      <trkpt lat="44.18657" lon="6.63184">
        <ele>1276.03</ele>
        <time>2018-08-26T08:42:46Z</time>
      </trkpt>
      <trkpt lat="44.18687" lon="6.6321">
        <ele>1276.85</ele>
        <time>2018-08-26T08:42:48Z</time>
      </trkpt>
      <trkpt lat="44.18716" lon="6.63238">
        <ele>1277.83</ele>
        <time>2018-08-26T08:42:50Z</time>
      </trkpt>
      <trkpt lat="44.18746" lon="6.63274">
        <ele>1277.92</ele>
        <time>2018-08-26T08:42:52Z</time>
      </trkpt>
      <trkpt lat="44.18763" lon="6.63299">
        <ele>1275.13</ele>
        <time>2018-08-26T08:42:53Z</time>
      </trkpt>
      <trkpt lat="44.1878" lon="6.63322">
        <ele>1274.29</ele>
        <time>2018-08-26T08:42:54Z</time>
      </trkpt>
      <trkpt lat="44.18801" lon="6.63348">
        <ele>1274.74</ele>
        <time>2018-08-26T08:42:55Z</time>
      </trkpt>
      <trkpt lat="44.18824" lon="6.63375">
        <ele>1274.87</ele>
        <time>2018-08-26T08:42:56Z</time>
      </trkpt>
      <trkpt lat="44.18845" lon="6.63405">
        <ele>1274.91</ele>
        <time>2018-08-26T08:42:57Z</time>
      </trkpt>
      <trkpt lat="44.18864" lon="6.6343">
        <ele>1274.92</ele>
        <time>2018-08-26T08:42:58Z</time>
      </trkpt>
      <trkpt lat="44.18882" lon="6.63453">
        <ele>1274.93</ele>
        <time>2018-08-26T08:42:59Z</time>
      </trkpt>
      <trkpt lat="44.18896" lon="6.6347">
        <ele>1274.93</ele>
        <time>2018-08-26T08:43:00Z</time>
      </trkpt>
      <trkpt lat="44.18912" lon="6.63487">
        <ele>1274.93</ele>
        <time>2018-08-26T08:43:01Z</time>
      </trkpt>
      <trkpt lat="44.18931" lon="6.63503">
        <ele>1274.93</ele>
        <time>2018-08-26T08:43:02Z</time>
      </trkpt>
      <trkpt lat="44.18948" lon="6.63516">
        <ele>1274.93</ele>
        <time>2018-08-26T08:43:03Z</time>
      </trkpt>
      <trkpt lat="44.18973" lon="6.63528">
        <ele>1274.93</ele>
        <time>2018-08-26T08:43:04Z</time>
      </trkpt>
      <trkpt lat="44.18994" lon="6.63528">
        <ele>1274.93</ele>
        <time>2018-08-26T08:43:05Z</time>
      </trkpt>
      <trkpt lat="44.19016" lon="6.63528">
        <ele>1274.93</ele>
        <time>2018-08-26T08:43:06Z</time>
      </trkpt>
      <trkpt lat="44.19038" lon="6.63535">
        <ele>1275.63</ele>
        <time>2018-08-26T08:43:07Z</time>
      </trkpt>
      <trkpt lat="44.1906" lon="6.6354">
        <ele>1275.84</ele>
        <time>2018-08-26T08:43:08Z</time>
      </trkpt>
      <trkpt lat="44.19081" lon="6.63544">
        <ele>1275.9</ele>
        <time>2018-08-26T08:43:09Z</time>
      </trkpt>
      <trkpt lat="44.19104" lon="6.63536">
        <ele>1276.62</ele>
        <time>2018-08-26T08:43:10Z</time>
      </trkpt>
      <trkpt lat="44.19127" lon="6.63532">
        <ele>1276.84</ele>
        <time>2018-08-26T08:43:11Z</time>
      </trkpt>
      <trkpt lat="44.19149" lon="6.63524">
        <ele>1277.6</ele>
        <time>2018-08-26T08:43:12Z</time>
      </trkpt>
      <trkpt lat="44.19172" lon="6.63515">
        <ele>1277.83</ele>
        <time>2018-08-26T08:43:13Z</time>
      </trkpt>
      <trkpt lat="44.19195" lon="6.63507">
        <ele>1279.3</ele>
        <time>2018-08-26T08:43:14Z</time>
      </trkpt>
      <trkpt lat="44.19218" lon="6.63499">
        <ele>1279.74</ele>
        <time>2018-08-26T08:43:15Z</time>
      </trkpt>
      <trkpt lat="44.1924" lon="6.63491">
        <ele>1282.67</ele>
        <time>2018-08-26T08:43:16Z</time>
      </trkpt>
      <trkpt lat="44.1926" lon="6.63487">
        <ele>1287.05</ele>
        <time>2018-08-26T08:43:17Z</time>
      </trkpt>
      <trkpt lat="44.19281" lon="6.63489">
        <ele>1290.47</ele>
        <time>2018-08-26T08:43:18Z</time>
      </trkpt>
      <trkpt lat="44.19302" lon="6.63494">
        <ele>1292.89</ele>
        <time>2018-08-26T08:43:19Z</time>
      </trkpt>
      <trkpt lat="44.19324" lon="6.63505">
        <ele>1295.02</ele>
        <time>2018-08-26T08:43:20Z</time>
      </trkpt>
      <trkpt lat="44.19346" lon="6.63517">
        <ele>1296.36</ele>
        <time>2018-08-26T08:43:21Z</time>
      </trkpt>
      <trkpt lat="44.19367" lon="6.63536">
        <ele>1296.76</ele>
        <time>2018-08-26T08:43:22Z</time>
      </trkpt>
      <trkpt lat="44.19385" lon="6.63556">
        <ele>1298.98</ele>
        <time>2018-08-26T08:43:23Z</time>
      </trkpt>
      <trkpt lat="44.19404" lon="6.63573">
        <ele>1300.34</ele>
        <time>2018-08-26T08:43:24Z</time>
      </trkpt>
      <trkpt lat="44.19423" lon="6.63589">
        <ele>1300.75</ele>
        <time>2018-08-26T08:43:25Z</time>
      </trkpt>
      <trkpt lat="44.19443" lon="6.636">
        <ele>1300.88</ele>
        <time>2018-08-26T08:43:26Z</time>
      </trkpt>
      <trkpt lat="44.19463" lon="6.6361">
        <ele>1300.91</ele>
        <time>2018-08-26T08:43:27Z</time>
      </trkpt>
      <trkpt lat="44.19487" lon="6.63613">
        <ele>1302.33</ele>
        <time>2018-08-26T08:43:28Z</time>
      </trkpt>
      <trkpt lat="44.1951" lon="6.63615">
        <ele>1304.15</ele>
        <time>2018-08-26T08:43:29Z</time>
      </trkpt>
      <trkpt lat="44.19534" lon="6.63614">
        <ele>1305.4</ele>
        <time>2018-08-26T08:43:30Z</time>
      </trkpt>
      <trkpt lat="44.19555" lon="6.63611">
        <ele>1306.47</ele>
        <time>2018-08-26T08:43:31Z</time>
      </trkpt>
      <trkpt lat="44.19577" lon="6.63603">
        <ele>1306.79</ele>
        <time>2018-08-26T08:43:32Z</time>
      </trkpt>
      <trkpt lat="44.19598" lon="6.63596">
        <ele>1307.59</ele>
        <time>2018-08-26T08:43:33Z</time>
      </trkpt>
      <trkpt lat="44.1962" lon="6.63589">
        <ele>1307.83</ele>
        <time>2018-08-26T08:43:34Z</time>
      </trkpt>
      <trkpt lat="44.19638" lon="6.63587">
        <ele>1307.9</ele>
        <time>2018-08-26T08:43:35Z</time>
      </trkpt>
      <trkpt lat="44.19656" lon="6.63586">
        <ele>1307.92</ele>
        <time>2018-08-26T08:43:36Z</time>
      </trkpt>
      <trkpt lat="44.19692" lon="6.63601">
        <ele>1307.93</ele>
        <time>2018-08-26T08:43:38Z</time>
      </trkpt>
      <trkpt lat="44.19711" lon="6.63614">
        <ele>1307.93</ele>
        <time>2018-08-26T08:43:39Z</time>
      </trkpt>
      <trkpt lat="44.1973" lon="6.63626">
        <ele>1308.63</ele>
        <time>2018-08-26T08:43:40Z</time>
      </trkpt>
      <trkpt lat="44.1975" lon="6.63634">
        <ele>1308.84</ele>
        <time>2018-08-26T08:43:41Z</time>
      </trkpt>
      <trkpt lat="44.19769" lon="6.63642">
        <ele>1308.9</ele>
        <time>2018-08-26T08:43:42Z</time>
      </trkpt>
      <trkpt lat="44.19787" lon="6.63651">
        <ele>1308.22</ele>
        <time>2018-08-26T08:43:43Z</time>
      </trkpt>
      <trkpt lat="44.19803" lon="6.63664">
        <ele>1308.72</ele>
        <time>2018-08-26T08:43:44Z</time>
      </trkpt>
      <trkpt lat="44.19832" lon="6.63686">
        <ele>1309.82</ele>
        <time>2018-08-26T08:43:46Z</time>
      </trkpt>
      <trkpt lat="44.19863" lon="6.63689">
        <ele>1312.02</ele>
        <time>2018-08-26T08:43:48Z</time>
      </trkpt>
      <trkpt lat="44.1989" lon="6.63683">
        <ele>1311.94</ele>
        <time>2018-08-26T08:43:50Z</time>
      </trkpt>
      <trkpt lat="44.19914" lon="6.63657">
        <ele>1312.63</ele>
        <time>2018-08-26T08:43:52Z</time>
      </trkpt>
      <trkpt lat="44.19923" lon="6.63629">
        <ele>1314.94</ele>
        <time>2018-08-26T08:43:53Z</time>
      </trkpt>
      <trkpt lat="44.19944" lon="6.63596">
        <ele>1316.05</ele>
        <time>2018-08-26T08:43:55Z</time>
      </trkpt>
      <trkpt lat="44.19974" lon="6.63582">
        <ele>1315.03</ele>
        <time>2018-08-26T08:43:57Z</time>
      </trkpt>
      <trkpt lat="44.20008" lon="6.63573">
        <ele>1316.55</ele>
        <time>2018-08-26T08:43:59Z</time>
      </trkpt>
      <trkpt lat="44.20029" lon="6.63567">
        <ele>1316.82</ele>
        <time>2018-08-26T08:44:00Z</time>
      </trkpt>
      <trkpt lat="44.20048" lon="6.63566">
        <ele>1316.9</ele>
        <time>2018-08-26T08:44:01Z</time>
      </trkpt>
      <trkpt lat="44.20086" lon="6.63573">
        <ele>1318.75</ele>
        <time>2018-08-26T08:44:03Z</time>
      </trkpt>
      <trkpt lat="44.20104" lon="6.6358">
        <ele>1319.58</ele>
        <time>2018-08-26T08:44:04Z</time>
      </trkpt>
      <trkpt lat="44.2012" lon="6.63594">
        <ele>1319.82</ele>
        <time>2018-08-26T08:44:05Z</time>
      </trkpt>
      <trkpt lat="44.20152" lon="6.63611">
        <ele>1321.53</ele>
        <time>2018-08-26T08:44:07Z</time>
      </trkpt>
      <trkpt lat="44.20169" lon="6.63617">
        <ele>1321.81</ele>
        <time>2018-08-26T08:44:08Z</time>
      </trkpt>
      <trkpt lat="44.20188" lon="6.63625">
        <ele>1322.59</ele>
        <time>2018-08-26T08:44:09Z</time>
      </trkpt>
      <trkpt lat="44.20207" lon="6.63635">
        <ele>1322.83</ele>
        <time>2018-08-26T08:44:10Z</time>
      </trkpt>
      <trkpt lat="44.20225" lon="6.63645">
        <ele>1322.9</ele>
        <time>2018-08-26T08:44:11Z</time>
      </trkpt>
      <trkpt lat="44.20243" lon="6.63656">
        <ele>1323.62</ele>
        <time>2018-08-26T08:44:12Z</time>
      </trkpt>
      <trkpt lat="44.20273" lon="6.6367">
        <ele>1324.6</ele>
        <time>2018-08-26T08:44:14Z</time>
      </trkpt>
      <trkpt lat="44.20304" lon="6.63669">
        <ele>1324.9</ele>
        <time>2018-08-26T08:44:16Z</time>
      </trkpt>
      <trkpt lat="44.20333" lon="6.63651">
        <ele>1325.63</ele>
        <time>2018-08-26T08:44:18Z</time>
      </trkpt>
      <trkpt lat="44.20367" lon="6.63643">
        <ele>1324.99</ele>
        <time>2018-08-26T08:44:20Z</time>
      </trkpt>
      <trkpt lat="44.20386" lon="6.63648">
        <ele>1325.65</ele>
        <time>2018-08-26T08:44:21Z</time>
      </trkpt>
      <trkpt lat="44.20407" lon="6.63652">
        <ele>1326.55</ele>
        <time>2018-08-26T08:44:22Z</time>
      </trkpt>
      <trkpt lat="44.20433" lon="6.63655">
        <ele>1326.81</ele>
        <time>2018-08-26T08:44:23Z</time>
      </trkpt>
      <trkpt lat="44.2046" lon="6.63659">
        <ele>1327.6</ele>
        <time>2018-08-26T08:44:24Z</time>
      </trkpt>
      <trkpt lat="44.20488" lon="6.63666">
        <ele>1327.13</ele>
        <time>2018-08-26T08:44:25Z</time>
      </trkpt>
      <trkpt lat="44.20513" lon="6.63677">
        <ele>1327.69</ele>
        <time>2018-08-26T08:44:26Z</time>
      </trkpt>
      <trkpt lat="44.20536" lon="6.63686">
        <ele>1328.56</ele>
        <time>2018-08-26T08:44:27Z</time>
      </trkpt>
      <trkpt lat="44.2056" lon="6.63687">
        <ele>1328.12</ele>
        <time>2018-08-26T08:44:28Z</time>
      </trkpt>
      <trkpt lat="44.20584" lon="6.63689">
        <ele>1327.99</ele>
        <time>2018-08-26T08:44:29Z</time>
      </trkpt>
      <trkpt lat="44.20609" lon="6.63688">
        <ele>1328.65</ele>
        <time>2018-08-26T08:44:30Z</time>
      </trkpt>
      <trkpt lat="44.20632" lon="6.63679">
        <ele>1329.55</ele>
        <time>2018-08-26T08:44:31Z</time>
      </trkpt>
      <trkpt lat="44.20654" lon="6.63674">
        <ele>1329.11</ele>
        <time>2018-08-26T08:44:32Z</time>
      </trkpt>
      <trkpt lat="44.20678" lon="6.63668">
        <ele>1326.89</ele>
        <time>2018-08-26T08:44:33Z</time>
      </trkpt>
      <trkpt lat="44.20701" lon="6.63668">
        <ele>1326.92</ele>
        <time>2018-08-26T08:44:34Z</time>
      </trkpt>
      <trkpt lat="44.20722" lon="6.63674">
        <ele>1326.23</ele>
        <time>2018-08-26T08:44:35Z</time>
      </trkpt>
      <trkpt lat="44.20739" lon="6.63688">
        <ele>1326.02</ele>
        <time>2018-08-26T08:44:36Z</time>
      </trkpt>
      <trkpt lat="44.2076" lon="6.63727">
        <ele>1325.96</ele>
        <time>2018-08-26T08:44:37Z</time>
      </trkpt>
      <trkpt lat="44.20782" lon="6.63745">
        <ele>1326.64</ele>
        <time>2018-08-26T08:44:38Z</time>
      </trkpt>
      <trkpt lat="44.20804" lon="6.6376">
        <ele>1326.84</ele>
        <time>2018-08-26T08:44:39Z</time>
      </trkpt>
      <trkpt lat="44.20827" lon="6.63772">
        <ele>1326.9</ele>
        <time>2018-08-26T08:44:40Z</time>
      </trkpt>
      <trkpt lat="44.2085" lon="6.63782">
        <ele>1326.92</ele>
        <time>2018-08-26T08:44:41Z</time>
      </trkpt>
      <trkpt lat="44.20872" lon="6.63787">
        <ele>1326.93</ele>
        <time>2018-08-26T08:44:42Z</time>
      </trkpt>
      <trkpt lat="44.20895" lon="6.63784">
        <ele>1327.63</ele>
        <time>2018-08-26T08:44:43Z</time>
      </trkpt>
      <trkpt lat="44.20919" lon="6.63781">
        <ele>1327.84</ele>
        <time>2018-08-26T08:44:44Z</time>
      </trkpt>
      <trkpt lat="44.20943" lon="6.6378">
        <ele>1328.6</ele>
        <time>2018-08-26T08:44:45Z</time>
      </trkpt>
      <trkpt lat="44.20969" lon="6.63778">
        <ele>1328.13</ele>
        <time>2018-08-26T08:44:46Z</time>
      </trkpt>
      <trkpt lat="44.20996" lon="6.63774">
        <ele>1328.69</ele>
        <time>2018-08-26T08:44:47Z</time>
      </trkpt>
      <trkpt lat="44.21024" lon="6.63767">
        <ele>1329.56</ele>
        <time>2018-08-26T08:44:48Z</time>
      </trkpt>
      <trkpt lat="44.21052" lon="6.6376">
        <ele>1329.82</ele>
        <time>2018-08-26T08:44:49Z</time>
      </trkpt>
      <trkpt lat="44.2108" lon="6.63753">
        <ele>1330.6</ele>
        <time>2018-08-26T08:44:50Z</time>
      </trkpt>
      <trkpt lat="44.21108" lon="6.63747">
        <ele>1330.83</ele>
        <time>2018-08-26T08:44:51Z</time>
      </trkpt>
      <trkpt lat="44.21134" lon="6.63737">
        <ele>1331.6</ele>
        <time>2018-08-26T08:44:52Z</time>
      </trkpt>
      <trkpt lat="44.2116" lon="6.63732">
        <ele>1331.83</ele>
        <time>2018-08-26T08:44:53Z</time>
      </trkpt>
      <trkpt lat="44.21184" lon="6.63728">
        <ele>1331.9</ele>
        <time>2018-08-26T08:44:54Z</time>
      </trkpt>
      <trkpt lat="44.21209" lon="6.63726">
        <ele>1331.92</ele>
        <time>2018-08-26T08:44:55Z</time>
      </trkpt>
      <trkpt lat="44.21234" lon="6.63722">
        <ele>1332.63</ele>
        <time>2018-08-26T08:44:56Z</time>
      </trkpt>
      <trkpt lat="44.21259" lon="6.63715">
        <ele>1333.54</ele>
        <time>2018-08-26T08:44:57Z</time>
      </trkpt>
      <trkpt lat="44.21284" lon="6.63703">
        <ele>1333.81</ele>
        <time>2018-08-26T08:44:58Z</time>
      </trkpt>
      <trkpt lat="44.21307" lon="6.63689">
        <ele>1335.29</ele>
        <time>2018-08-26T08:44:59Z</time>
      </trkpt>
      <trkpt lat="44.2133" lon="6.63679">
        <ele>1335.74</ele>
        <time>2018-08-26T08:45:00Z</time>
      </trkpt>
      <trkpt lat="44.21353" lon="6.63671">
        <ele>1336.57</ele>
        <time>2018-08-26T08:45:01Z</time>
      </trkpt>
      <trkpt lat="44.21376" lon="6.63663">
        <ele>1336.82</ele>
        <time>2018-08-26T08:45:02Z</time>
      </trkpt>
      <trkpt lat="44.21397" lon="6.63652">
        <ele>1336.9</ele>
        <time>2018-08-26T08:45:03Z</time>
      </trkpt>
      <trkpt lat="44.21418" lon="6.63639">
        <ele>1336.92</ele>
        <time>2018-08-26T08:45:04Z</time>
      </trkpt>
      <trkpt lat="44.21436" lon="6.63626">
        <ele>1338.33</ele>
        <time>2018-08-26T08:45:05Z</time>
      </trkpt>
      <trkpt lat="44.21456" lon="6.63615">
        <ele>1338.75</ele>
        <time>2018-08-26T08:45:06Z</time>
      </trkpt>
      <trkpt lat="44.21474" lon="6.63607">
        <ele>1338.18</ele>
        <time>2018-08-26T08:45:07Z</time>
      </trkpt>
      <trkpt lat="44.21511" lon="6.63605">
        <ele>1338.16</ele>
        <time>2018-08-26T08:45:09Z</time>
      </trkpt>
      <trkpt lat="44.21547" lon="6.63607">
        <ele>1338.86</ele>
        <time>2018-08-26T08:45:11Z</time>
      </trkpt>
      <trkpt lat="44.21583" lon="6.636">
        <ele>1340.53</ele>
        <time>2018-08-26T08:45:13Z</time>
      </trkpt>
      <trkpt lat="44.216" lon="6.6359">
        <ele>1340.81</ele>
        <time>2018-08-26T08:45:14Z</time>
      </trkpt>
      <trkpt lat="44.21617" lon="6.63573">
        <ele>1340.89</ele>
        <time>2018-08-26T08:45:15Z</time>
      </trkpt>
      <trkpt lat="44.21639" lon="6.63551">
        <ele>1340.92</ele>
        <time>2018-08-26T08:45:16Z</time>
      </trkpt>
      <trkpt lat="44.21662" lon="6.63523">
        <ele>1341.63</ele>
        <time>2018-08-26T08:45:17Z</time>
      </trkpt>
      <trkpt lat="44.21687" lon="6.63505">
        <ele>1341.84</ele>
        <time>2018-08-26T08:45:18Z</time>
      </trkpt>
      <trkpt lat="44.21712" lon="6.63483">
        <ele>1341.2</ele>
        <time>2018-08-26T08:45:19Z</time>
      </trkpt>
      <trkpt lat="44.21738" lon="6.63464">
        <ele>1341.01</ele>
        <time>2018-08-26T08:45:20Z</time>
      </trkpt>
      <trkpt lat="44.21772" lon="6.63455">
        <ele>1340.95</ele>
        <time>2018-08-26T08:45:21Z</time>
      </trkpt>
      <trkpt lat="44.21804" lon="6.63448">
        <ele>1340.94</ele>
        <time>2018-08-26T08:45:22Z</time>
      </trkpt>
      <trkpt lat="44.2184" lon="6.63453">
        <ele>1341.63</ele>
        <time>2018-08-26T08:45:23Z</time>
      </trkpt>
      <trkpt lat="44.21872" lon="6.63449">
        <ele>1342.54</ele>
        <time>2018-08-26T08:45:24Z</time>
      </trkpt>
      <trkpt lat="44.21902" lon="6.63444">
        <ele>1343.51</ele>
        <time>2018-08-26T08:45:25Z</time>
      </trkpt>
      <trkpt lat="44.21932" lon="6.63443">
        <ele>1344.51</ele>
        <time>2018-08-26T08:45:26Z</time>
      </trkpt>
      <trkpt lat="44.2196" lon="6.63438">
        <ele>1344.8</ele>
        <time>2018-08-26T08:45:27Z</time>
      </trkpt>
      <trkpt lat="44.21989" lon="6.63434">
        <ele>1345.59</ele>
        <time>2018-08-26T08:45:28Z</time>
      </trkpt>
      <trkpt lat="44.22017" lon="6.6343">
        <ele>1346.53</ele>
        <time>2018-08-26T08:45:29Z</time>
      </trkpt>
      <trkpt lat="44.22046" lon="6.63425">
        <ele>1347.51</ele>
        <time>2018-08-26T08:45:30Z</time>
      </trkpt>
      <trkpt lat="44.22076" lon="6.63421">
        <ele>1347.8</ele>
        <time>2018-08-26T08:45:31Z</time>
      </trkpt>
      <trkpt lat="44.22105" lon="6.63417">
        <ele>1347.89</ele>
        <time>2018-08-26T08:45:32Z</time>
      </trkpt>
      <trkpt lat="44.22133" lon="6.63413">
        <ele>1348.62</ele>
        <time>2018-08-26T08:45:33Z</time>
      </trkpt>
      <trkpt lat="44.22161" lon="6.63408">
        <ele>1348.84</ele>
        <time>2018-08-26T08:45:34Z</time>
      </trkpt>
      <trkpt lat="44.22189" lon="6.63404">
        <ele>1349.6</ele>
        <time>2018-08-26T08:45:35Z</time>
      </trkpt>
      <trkpt lat="44.22218" lon="6.63399">
        <ele>1350.53</ele>
        <time>2018-08-26T08:45:36Z</time>
      </trkpt>
      <trkpt lat="44.22247" lon="6.63395">
        <ele>1352.21</ele>
        <time>2018-08-26T08:45:37Z</time>
      </trkpt>
      <trkpt lat="44.22275" lon="6.63391">
        <ele>1352.71</ele>
        <time>2018-08-26T08:45:38Z</time>
      </trkpt>
      <trkpt lat="44.22305" lon="6.63386">
        <ele>1353.57</ele>
        <time>2018-08-26T08:45:39Z</time>
      </trkpt>
      <trkpt lat="44.22333" lon="6.63382">
        <ele>1354.52</ele>
        <time>2018-08-26T08:45:40Z</time>
      </trkpt>
      <trkpt lat="44.22363" lon="6.63378">
        <ele>1355.51</ele>
        <time>2018-08-26T08:45:41Z</time>
      </trkpt>
      <trkpt lat="44.22391" lon="6.63374">
        <ele>1356.5</ele>
        <time>2018-08-26T08:45:42Z</time>
      </trkpt>
      <trkpt lat="44.2242" lon="6.63369">
        <ele>1357.5</ele>
        <time>2018-08-26T08:45:43Z</time>
      </trkpt>
      <trkpt lat="44.22448" lon="6.63365">
        <ele>1358.5</ele>
        <time>2018-08-26T08:45:44Z</time>
      </trkpt>
      <trkpt lat="44.22475" lon="6.63359">
        <ele>1359.5</ele>
        <time>2018-08-26T08:45:45Z</time>
      </trkpt>
      <trkpt lat="44.22501" lon="6.63352">
        <ele>1359.8</ele>
        <time>2018-08-26T08:45:46Z</time>
      </trkpt>
      <trkpt lat="44.22527" lon="6.63344">
        <ele>1361.29</ele>
        <time>2018-08-26T08:45:47Z</time>
      </trkpt>
      <trkpt lat="44.22553" lon="6.63337">
        <ele>1361.74</ele>
        <time>2018-08-26T08:45:48Z</time>
      </trkpt>
      <trkpt lat="44.22577" lon="6.63326">
        <ele>1363.27</ele>
        <time>2018-08-26T08:45:49Z</time>
      </trkpt>
      <trkpt lat="44.226" lon="6.63314">
        <ele>1364.43</ele>
        <time>2018-08-26T08:45:50Z</time>
      </trkpt>
      <trkpt lat="44.22623" lon="6.633">
        <ele>1365.48</ele>
        <time>2018-08-26T08:45:51Z</time>
      </trkpt>
      <trkpt lat="44.22646" lon="6.63284">
        <ele>1367.2</ele>
        <time>2018-08-26T08:45:52Z</time>
      </trkpt>
      <trkpt lat="44.2267" lon="6.63265">
        <ele>1368.41</ele>
        <time>2018-08-26T08:45:53Z</time>
      </trkpt>
      <trkpt lat="44.22693" lon="6.63246">
        <ele>1369.47</ele>
        <time>2018-08-26T08:45:54Z</time>
      </trkpt>
      <trkpt lat="44.22712" lon="6.63223">
        <ele>1370.49</ele>
        <time>2018-08-26T08:45:55Z</time>
      </trkpt>
      <trkpt lat="44.22729" lon="6.632">
        <ele>1370.8</ele>
        <time>2018-08-26T08:45:56Z</time>
      </trkpt>
      <trkpt lat="44.22745" lon="6.63178">
        <ele>1372.29</ele>
        <time>2018-08-26T08:45:57Z</time>
      </trkpt>
      <trkpt lat="44.22761" lon="6.63157">
        <ele>1372.74</ele>
        <time>2018-08-26T08:45:58Z</time>
      </trkpt>
      <trkpt lat="44.22776" lon="6.63138">
        <ele>1374.27</ele>
        <time>2018-08-26T08:45:59Z</time>
      </trkpt>
      <trkpt lat="44.22791" lon="6.63121">
        <ele>1374.73</ele>
        <time>2018-08-26T08:46:00Z</time>
      </trkpt>
      <trkpt lat="44.22807" lon="6.631">
        <ele>1375.57</ele>
        <time>2018-08-26T08:46:01Z</time>
      </trkpt>
      <trkpt lat="44.22828" lon="6.63082">
        <ele>1376.52</ele>
        <time>2018-08-26T08:46:02Z</time>
      </trkpt>
      <trkpt lat="44.22857" lon="6.63079">
        <ele>1377.51</ele>
        <time>2018-08-26T08:46:03Z</time>
      </trkpt>
      <trkpt lat="44.22881" lon="6.63067">
        <ele>1378.5</ele>
        <time>2018-08-26T08:46:04Z</time>
      </trkpt>
      <trkpt lat="44.22904" lon="6.63054">
        <ele>1379.5</ele>
        <time>2018-08-26T08:46:05Z</time>
      </trkpt>
      <trkpt lat="44.22927" lon="6.63038">
        <ele>1381.2</ele>
        <time>2018-08-26T08:46:06Z</time>
      </trkpt>
      <trkpt lat="44.22949" lon="6.63019">
        <ele>1382.41</ele>
        <time>2018-08-26T08:46:07Z</time>
      </trkpt>
      <trkpt lat="44.2297" lon="6.63">
        <ele>1383.47</ele>
        <time>2018-08-26T08:46:08Z</time>
      </trkpt>
      <trkpt lat="44.22991" lon="6.62982">
        <ele>1385.19</ele>
        <time>2018-08-26T08:46:09Z</time>
      </trkpt>
      <trkpt lat="44.2301" lon="6.62968">
        <ele>1386.41</ele>
        <time>2018-08-26T08:46:10Z</time>
      </trkpt>
      <trkpt lat="44.2303" lon="6.62956">
        <ele>1388.17</ele>
        <time>2018-08-26T08:46:11Z</time>
      </trkpt>
      <trkpt lat="44.23051" lon="6.6295">
        <ele>1389.4</ele>
        <time>2018-08-26T08:46:12Z</time>
      </trkpt>
      <trkpt lat="44.23072" lon="6.62948">
        <ele>1390.47</ele>
        <time>2018-08-26T08:46:13Z</time>
      </trkpt>
      <trkpt lat="44.23093" lon="6.62947">
        <ele>1392.19</ele>
        <time>2018-08-26T08:46:14Z</time>
      </trkpt>
      <trkpt lat="44.23115" lon="6.62944">
        <ele>1392.71</ele>
        <time>2018-08-26T08:46:15Z</time>
      </trkpt>
      <trkpt lat="44.23135" lon="6.62938">
        <ele>1393.56</ele>
        <time>2018-08-26T08:46:16Z</time>
      </trkpt>
      <trkpt lat="44.23154" lon="6.6293">
        <ele>1395.22</ele>
        <time>2018-08-26T08:46:17Z</time>
      </trkpt>
      <trkpt lat="44.23171" lon="6.62921">
        <ele>1396.42</ele>
        <time>2018-08-26T08:46:18Z</time>
      </trkpt>
      <trkpt lat="44.23189" lon="6.62913">
        <ele>1396.78</ele>
        <time>2018-08-26T08:46:19Z</time>
      </trkpt>
      <trkpt lat="44.23207" lon="6.62906">
        <ele>1396.88</ele>
        <time>2018-08-26T08:46:20Z</time>
      </trkpt>
      <trkpt lat="44.23227" lon="6.62899">
        <ele>1397.62</ele>
        <time>2018-08-26T08:46:21Z</time>
      </trkpt>
      <trkpt lat="44.23247" lon="6.62894">
        <ele>1398.54</ele>
        <time>2018-08-26T08:46:22Z</time>
      </trkpt>
      <trkpt lat="44.23269" lon="6.62894">
        <ele>1399.51</ele>
        <time>2018-08-26T08:46:23Z</time>
      </trkpt>
      <trkpt lat="44.23292" lon="6.62898">
        <ele>1399.8</ele>
        <time>2018-08-26T08:46:24Z</time>
      </trkpt>
      <trkpt lat="44.23315" lon="6.62905">
        <ele>1400.59</ele>
        <time>2018-08-26T08:46:25Z</time>
      </trkpt>
      <trkpt lat="44.23339" lon="6.62911">
        <ele>1400.83</ele>
        <time>2018-08-26T08:46:26Z</time>
      </trkpt>
      <trkpt lat="44.23362" lon="6.62918">
        <ele>1400.9</ele>
        <time>2018-08-26T08:46:27Z</time>
      </trkpt>
      <trkpt lat="44.23386" lon="6.62923">
        <ele>1400.92</ele>
        <time>2018-08-26T08:46:28Z</time>
      </trkpt>
      <trkpt lat="44.23409" lon="6.62927">
        <ele>1400.93</ele>
        <time>2018-08-26T08:46:29Z</time>
      </trkpt>
      <trkpt lat="44.23431" lon="6.62928">
        <ele>1400.93</ele>
        <time>2018-08-26T08:46:30Z</time>
      </trkpt>
      <trkpt lat="44.23455" lon="6.62928">
        <ele>1400.93</ele>
        <time>2018-08-26T08:46:31Z</time>
      </trkpt>
      <trkpt lat="44.23477" lon="6.62929">
        <ele>1401.63</ele>
        <time>2018-08-26T08:46:32Z</time>
      </trkpt>
      <trkpt lat="44.235" lon="6.6293">
        <ele>1401.14</ele>
        <time>2018-08-26T08:46:33Z</time>
      </trkpt>
      <trkpt lat="44.23522" lon="6.6293">
        <ele>1401.69</ele>
        <time>2018-08-26T08:46:34Z</time>
      </trkpt>
      <trkpt lat="44.23545" lon="6.6293">
        <ele>1401.86</ele>
        <time>2018-08-26T08:46:35Z</time>
      </trkpt>
      <trkpt lat="44.23566" lon="6.62928">
        <ele>1401.91</ele>
        <time>2018-08-26T08:46:36Z</time>
      </trkpt>
      <trkpt lat="44.23588" lon="6.62925">
        <ele>1401.92</ele>
        <time>2018-08-26T08:46:37Z</time>
      </trkpt>
      <trkpt lat="44.23609" lon="6.62921">
        <ele>1401.93</ele>
        <time>2018-08-26T08:46:38Z</time>
      </trkpt>
      <trkpt lat="44.23628" lon="6.62903">
        <ele>1401.93</ele>
        <time>2018-08-26T08:46:39Z</time>
      </trkpt>
      <trkpt lat="44.23647" lon="6.62892">
        <ele>1402.63</ele>
        <time>2018-08-26T08:46:40Z</time>
      </trkpt>
      <trkpt lat="44.23666" lon="6.62886">
        <ele>1402.84</ele>
        <time>2018-08-26T08:46:41Z</time>
      </trkpt>
      <trkpt lat="44.23684" lon="6.62883">
        <ele>1403.6</ele>
        <time>2018-08-26T08:46:42Z</time>
      </trkpt>
      <trkpt lat="44.23721" lon="6.62888">
        <ele>1404.6</ele>
        <time>2018-08-26T08:46:44Z</time>
      </trkpt>
      <trkpt lat="44.23739" lon="6.62893">
        <ele>1404.83</ele>
        <time>2018-08-26T08:46:45Z</time>
      </trkpt>
      <trkpt lat="44.23773" lon="6.62893">
        <ele>1405.83</ele>
        <time>2018-08-26T08:46:47Z</time>
      </trkpt>
      <trkpt lat="44.23805" lon="6.62889">
        <ele>1406.13</ele>
        <time>2018-08-26T08:46:49Z</time>
      </trkpt>
      <trkpt lat="44.23831" lon="6.62899">
        <ele>1406.86</ele>
        <time>2018-08-26T08:46:51Z</time>
      </trkpt>
      <trkpt lat="44.23849" lon="6.62909">
        <ele>1407.9</ele>
        <time>2018-08-26T08:46:55Z</time>
      </trkpt>
      <trkpt lat="44.23866" lon="6.62926">
        <ele>1408.2</ele>
        <time>2018-08-26T08:46:58Z</time>
      </trkpt>
      <trkpt lat="44.23883" lon="6.62943">
        <ele>1408.65</ele>
        <time>2018-08-26T08:47:00Z</time>
      </trkpt>
      <trkpt lat="44.23903" lon="6.6296">
        <ele>1409.61</ele>
        <time>2018-08-26T08:47:02Z</time>
      </trkpt>
      <trkpt lat="44.23926" lon="6.62973">
        <ele>1410.6</ele>
        <time>2018-08-26T08:47:04Z</time>
      </trkpt>
      <trkpt lat="44.2395" lon="6.62979">
        <ele>1410.9</ele>
        <time>2018-08-26T08:47:06Z</time>
      </trkpt>
      <trkpt lat="44.23973" lon="6.62985">
        <ele>1411.84</ele>
        <time>2018-08-26T08:47:08Z</time>
      </trkpt>
      <trkpt lat="44.23996" lon="6.62987">
        <ele>1412.62</ele>
        <time>2018-08-26T08:47:10Z</time>
      </trkpt>
      <trkpt lat="44.24018" lon="6.62978">
        <ele>1414.3</ele>
        <time>2018-08-26T08:47:12Z</time>
      </trkpt>
      <trkpt lat="44.24036" lon="6.62956">
        <ele>1417.18</ele>
        <time>2018-08-26T08:47:14Z</time>
      </trkpt>
      <trkpt lat="44.24052" lon="6.62933">
        <ele>1421.29</ele>
        <time>2018-08-26T08:47:16Z</time>
      </trkpt>
      <trkpt lat="44.24065" lon="6.6291">
        <ele>1423.69</ele>
        <time>2018-08-26T08:47:18Z</time>
      </trkpt>
      <trkpt lat="44.24079" lon="6.62889">
        <ele>1424.82</ele>
        <time>2018-08-26T08:47:20Z</time>
      </trkpt>
      <trkpt lat="44.24092" lon="6.6287">
        <ele>1427.23</ele>
        <time>2018-08-26T08:47:22Z</time>
      </trkpt>
      <trkpt lat="44.24104" lon="6.6285">
        <ele>1429.48</ele>
        <time>2018-08-26T08:47:24Z</time>
      </trkpt>
      <trkpt lat="44.24121" lon="6.62823">
        <ele>1430.83</ele>
        <time>2018-08-26T08:47:27Z</time>
      </trkpt>
      <trkpt lat="44.24135" lon="6.62802">
        <ele>1432.91</ele>
        <time>2018-08-26T08:47:31Z</time>
      </trkpt>
      <trkpt lat="44.24149" lon="6.62779">
        <ele>1434.65</ele>
        <time>2018-08-26T08:47:42Z</time>
      </trkpt>
      <trkpt lat="44.24165" lon="6.62755">
        <ele>1436.81</ele>
        <time>2018-08-26T08:47:46Z</time>
      </trkpt>
      <trkpt lat="44.24177" lon="6.62734">
        <ele>1437.9</ele>
        <time>2018-08-26T08:47:49Z</time>
      </trkpt>
      <trkpt lat="44.24191" lon="6.62709">
        <ele>1438.63</ele>
        <time>2018-08-26T08:47:52Z</time>
      </trkpt>
      <trkpt lat="44.24206" lon="6.6268">
        <ele>1439.62</ele>
        <time>2018-08-26T08:47:55Z</time>
      </trkpt>
      <trkpt lat="44.24217" lon="6.62659">
        <ele>1438.99</ele>
        <time>2018-08-26T08:47:57Z</time>
      </trkpt>
      <trkpt lat="44.24229" lon="6.6264">
        <ele>1439.64</ele>
        <time>2018-08-26T08:47:59Z</time>
      </trkpt>
      <trkpt lat="44.2425" lon="6.62616">
        <ele>1440.9</ele>
        <time>2018-08-26T08:48:02Z</time>
      </trkpt>
      <trkpt lat="44.24267" lon="6.62599">
        <ele>1440.02</ele>
        <time>2018-08-26T08:48:04Z</time>
      </trkpt>
      <trkpt lat="44.24287" lon="6.62585">
        <ele>1440.85</ele>
        <time>2018-08-26T08:48:06Z</time>
      </trkpt>
      <trkpt lat="44.24309" lon="6.62569">
        <ele>1440.22</ele>
        <time>2018-08-26T08:48:08Z</time>
      </trkpt>
      <trkpt lat="44.24331" lon="6.62553">
        <ele>1440.66</ele>
        <time>2018-08-26T08:48:10Z</time>
      </trkpt>
      <trkpt lat="44.24353" lon="6.62537">
        <ele>1440.21</ele>
        <time>2018-08-26T08:48:12Z</time>
      </trkpt>
      <trkpt lat="44.24377" lon="6.6252">
        <ele>1440.86</ele>
        <time>2018-08-26T08:48:14Z</time>
      </trkpt>
      <trkpt lat="44.24401" lon="6.62503">
        <ele>1440.92</ele>
        <time>2018-08-26T08:48:16Z</time>
      </trkpt>
      <trkpt lat="44.24421" lon="6.6249">
        <ele>1440.93</ele>
        <time>2018-08-26T08:48:18Z</time>
      </trkpt>
      <trkpt lat="44.24444" lon="6.62475">
        <ele>1440.66</ele>
        <time>2018-08-26T08:48:21Z</time>
      </trkpt>
      <trkpt lat="44.24471" lon="6.62469">
        <ele>1441.9</ele>
        <time>2018-08-26T08:48:24Z</time>
      </trkpt>
      <trkpt lat="44.24493" lon="6.62466">
        <ele>1442.63</ele>
        <time>2018-08-26T08:48:26Z</time>
      </trkpt>
      <trkpt lat="44.24512" lon="6.62459">
        <ele>1442.2</ele>
        <time>2018-08-26T08:48:28Z</time>
      </trkpt>
      <trkpt lat="44.24526" lon="6.62441">
        <ele>1441.95</ele>
        <time>2018-08-26T08:48:30Z</time>
      </trkpt>
      <trkpt lat="44.24535" lon="6.62413">
        <ele>1442.63</ele>
        <time>2018-08-26T08:48:32Z</time>
      </trkpt>
      <trkpt lat="44.24542" lon="6.62379">
        <ele>1442.69</ele>
        <time>2018-08-26T08:48:34Z</time>
      </trkpt>
      <trkpt lat="44.2455" lon="6.62346">
        <ele>1442.91</ele>
        <time>2018-08-26T08:48:36Z</time>
      </trkpt>
      <trkpt lat="44.24558" lon="6.62315">
        <ele>1442.02</ele>
        <time>2018-08-26T08:48:38Z</time>
      </trkpt>
      <trkpt lat="44.24563" lon="6.62287">
        <ele>1439.91</ele>
        <time>2018-08-26T08:48:40Z</time>
      </trkpt>
      <trkpt lat="44.24554" lon="6.62259">
        <ele>1441.33</ele>
        <time>2018-08-26T08:48:42Z</time>
      </trkpt>
      <trkpt lat="44.24542" lon="6.62233">
        <ele>1441.88</ele>
        <time>2018-08-26T08:48:44Z</time>
      </trkpt>
      <trkpt lat="44.24535" lon="6.62206">
        <ele>1442.63</ele>
        <time>2018-08-26T08:48:46Z</time>
      </trkpt>
      <trkpt lat="44.24532" lon="6.62174">
        <ele>1442.9</ele>
        <time>2018-08-26T08:48:48Z</time>
      </trkpt>
      <trkpt lat="44.24527" lon="6.62141">
        <ele>1442.72</ele>
        <time>2018-08-26T08:48:50Z</time>
      </trkpt>
      <trkpt lat="44.24518" lon="6.62111">
        <ele>1442.91</ele>
        <time>2018-08-26T08:48:52Z</time>
      </trkpt>
      <trkpt lat="44.24505" lon="6.6209">
        <ele>1442.93</ele>
        <time>2018-08-26T08:48:54Z</time>
      </trkpt>
      <trkpt lat="44.24493" lon="6.62069">
        <ele>1442.93</ele>
        <time>2018-08-26T08:48:56Z</time>
      </trkpt>
      <trkpt lat="44.24483" lon="6.62042">
        <ele>1442.02</ele>
        <time>2018-08-26T08:48:58Z</time>
      </trkpt>
      <trkpt lat="44.24474" lon="6.62012">
        <ele>1442.64</ele>
        <time>2018-08-26T08:49:00Z</time>
      </trkpt>
      <trkpt lat="44.24471" lon="6.61977">
        <ele>1442.9</ele>
        <time>2018-08-26T08:49:02Z</time>
      </trkpt>
      <trkpt lat="44.24471" lon="6.61939">
        <ele>1442.72</ele>
        <time>2018-08-26T08:49:04Z</time>
      </trkpt>
      <trkpt lat="44.24472" lon="6.61908">
        <ele>1442.91</ele>
        <time>2018-08-26T08:49:06Z</time>
      </trkpt>
      <trkpt lat="44.24478" lon="6.61878">
        <ele>1442.93</ele>
        <time>2018-08-26T08:49:08Z</time>
      </trkpt>
      <trkpt lat="44.24495" lon="6.61857">
        <ele>1444.75</ele>
        <time>2018-08-26T08:49:10Z</time>
      </trkpt>
      <trkpt lat="44.24512" lon="6.6184">
        <ele>1444.91</ele>
        <time>2018-08-26T08:49:12Z</time>
      </trkpt>
      <trkpt lat="44.24527" lon="6.61811">
        <ele>1446.54</ele>
        <time>2018-08-26T08:49:14Z</time>
      </trkpt>
      <trkpt lat="44.24526" lon="6.61779">
        <ele>1446.81</ele>
        <time>2018-08-26T08:49:15Z</time>
      </trkpt>
      <trkpt lat="44.24523" lon="6.6173">
        <ele>1448.53</ele>
        <time>2018-08-26T08:49:17Z</time>
      </trkpt>
      <trkpt lat="44.24512" lon="6.6169">
        <ele>1448.89</ele>
        <time>2018-08-26T08:49:19Z</time>
      </trkpt>
      <trkpt lat="44.24492" lon="6.61663">
        <ele>1448.93</ele>
        <time>2018-08-26T08:49:21Z</time>
      </trkpt>
      <trkpt lat="44.24477" lon="6.6163">
        <ele>1449.63</ele>
        <time>2018-08-26T08:49:23Z</time>
      </trkpt>
      <trkpt lat="44.24473" lon="6.6159">
        <ele>1449.9</ele>
        <time>2018-08-26T08:49:25Z</time>
      </trkpt>
      <trkpt lat="44.24472" lon="6.61554">
        <ele>1449.44</ele>
        <time>2018-08-26T08:49:27Z</time>
      </trkpt>
      <trkpt lat="44.24478" lon="6.61515">
        <ele>1450.59</ele>
        <time>2018-08-26T08:49:29Z</time>
      </trkpt>
      <trkpt lat="44.24482" lon="6.61463">
        <ele>1453.21</ele>
        <time>2018-08-26T08:49:31Z</time>
      </trkpt>
      <trkpt lat="44.24485" lon="6.61434">
        <ele>1454.41</ele>
        <time>2018-08-26T08:49:32Z</time>
      </trkpt>
      <trkpt lat="44.2449" lon="6.61403">
        <ele>1454.78</ele>
        <time>2018-08-26T08:49:33Z</time>
      </trkpt>
      <trkpt lat="44.24499" lon="6.61372">
        <ele>1455.58</ele>
        <time>2018-08-26T08:49:34Z</time>
      </trkpt>
      <trkpt lat="44.24513" lon="6.6134">
        <ele>1455.83</ele>
        <time>2018-08-26T08:49:35Z</time>
      </trkpt>
      <trkpt lat="44.24523" lon="6.61309">
        <ele>1456.6</ele>
        <time>2018-08-26T08:49:36Z</time>
      </trkpt>
      <trkpt lat="44.24534" lon="6.61281">
        <ele>1457.53</ele>
        <time>2018-08-26T08:49:37Z</time>
      </trkpt>
      <trkpt lat="44.24544" lon="6.61252">
        <ele>1457.81</ele>
        <time>2018-08-26T08:49:38Z</time>
      </trkpt>
      <trkpt lat="44.24557" lon="6.61226">
        <ele>1458.59</ele>
        <time>2018-08-26T08:49:39Z</time>
      </trkpt>
      <trkpt lat="44.24569" lon="6.612">
        <ele>1459.53</ele>
        <time>2018-08-26T08:49:40Z</time>
      </trkpt>
      <trkpt lat="44.2458" lon="6.61173">
        <ele>1461.21</ele>
        <time>2018-08-26T08:49:41Z</time>
      </trkpt>
      <trkpt lat="44.24588" lon="6.61144">
        <ele>1462.41</ele>
        <time>2018-08-26T08:49:42Z</time>
      </trkpt>
      <trkpt lat="44.24595" lon="6.61115">
        <ele>1463.48</ele>
        <time>2018-08-26T08:49:43Z</time>
      </trkpt>
      <trkpt lat="44.24601" lon="6.61084">
        <ele>1464.49</ele>
        <time>2018-08-26T08:49:44Z</time>
      </trkpt>
      <trkpt lat="44.24608" lon="6.61053">
        <ele>1465.5</ele>
        <time>2018-08-26T08:49:45Z</time>
      </trkpt>
      <trkpt lat="44.24616" lon="6.61021">
        <ele>1466.5</ele>
        <time>2018-08-26T08:49:46Z</time>
      </trkpt>
      <trkpt lat="44.24623" lon="6.60989">
        <ele>1468.2</ele>
        <time>2018-08-26T08:49:47Z</time>
      </trkpt>
      <trkpt lat="44.24632" lon="6.60957">
        <ele>1469.41</ele>
        <time>2018-08-26T08:49:48Z</time>
      </trkpt>
      <trkpt lat="44.24642" lon="6.60926">
        <ele>1470.47</ele>
        <time>2018-08-26T08:49:49Z</time>
      </trkpt>
      <trkpt lat="44.24653" lon="6.60894">
        <ele>1470.79</ele>
        <time>2018-08-26T08:49:50Z</time>
      </trkpt>
      <trkpt lat="44.24663" lon="6.60863">
        <ele>1471.59</ele>
        <time>2018-08-26T08:49:51Z</time>
      </trkpt>
      <trkpt lat="44.24674" lon="6.60832">
        <ele>1472.53</ele>
        <time>2018-08-26T08:49:52Z</time>
      </trkpt>
      <trkpt lat="44.24684" lon="6.60802">
        <ele>1473.51</ele>
        <time>2018-08-26T08:49:53Z</time>
      </trkpt>
      <trkpt lat="44.24691" lon="6.60773">
        <ele>1474.5</ele>
        <time>2018-08-26T08:49:54Z</time>
      </trkpt>
      <trkpt lat="44.24696" lon="6.60743">
        <ele>1476.2</ele>
        <time>2018-08-26T08:49:55Z</time>
      </trkpt>
      <trkpt lat="44.24698" lon="6.60713">
        <ele>1477.41</ele>
        <time>2018-08-26T08:49:56Z</time>
      </trkpt>
      <trkpt lat="44.24699" lon="6.60685">
        <ele>1478.47</ele>
        <time>2018-08-26T08:49:57Z</time>
      </trkpt>
      <trkpt lat="44.24696" lon="6.60657">
        <ele>1479.49</ele>
        <time>2018-08-26T08:49:58Z</time>
      </trkpt>
      <trkpt lat="44.24692" lon="6.60628">
        <ele>1480.5</ele>
        <time>2018-08-26T08:49:59Z</time>
      </trkpt>
      <trkpt lat="44.24688" lon="6.60602">
        <ele>1482.2</ele>
        <time>2018-08-26T08:50:00Z</time>
      </trkpt>
      <trkpt lat="44.24688" lon="6.60575">
        <ele>1482.71</ele>
        <time>2018-08-26T08:50:01Z</time>
      </trkpt>
      <trkpt lat="44.24694" lon="6.60549">
        <ele>1484.26</ele>
        <time>2018-08-26T08:50:02Z</time>
      </trkpt>
      <trkpt lat="44.24699" lon="6.60525">
        <ele>1485.43</ele>
        <time>2018-08-26T08:50:03Z</time>
      </trkpt>
      <trkpt lat="44.24707" lon="6.60501">
        <ele>1486.48</ele>
        <time>2018-08-26T08:50:04Z</time>
      </trkpt>
      <trkpt lat="44.2472" lon="6.60482">
        <ele>1488.2</ele>
        <time>2018-08-26T08:50:05Z</time>
      </trkpt>
      <trkpt lat="44.24734" lon="6.60461">
        <ele>1488.71</ele>
        <time>2018-08-26T08:50:06Z</time>
      </trkpt>
      <trkpt lat="44.24753" lon="6.60447">
        <ele>1489.56</ele>
        <time>2018-08-26T08:50:07Z</time>
      </trkpt>
      <trkpt lat="44.24768" lon="6.60431">
        <ele>1490.52</ele>
        <time>2018-08-26T08:50:08Z</time>
      </trkpt>
      <trkpt lat="44.24785" lon="6.60416">
        <ele>1489.41</ele>
        <time>2018-08-26T08:50:09Z</time>
      </trkpt>
      <trkpt lat="44.24807" lon="6.60388">
        <ele>1490.79</ele>
        <time>2018-08-26T08:50:11Z</time>
      </trkpt>
      <trkpt lat="44.24827" lon="6.60364">
        <ele>1492.74</ele>
        <time>2018-08-26T08:50:13Z</time>
      </trkpt>
      <trkpt lat="44.24844" lon="6.6034">
        <ele>1494.52</ele>
        <time>2018-08-26T08:50:15Z</time>
      </trkpt>
      <trkpt lat="44.24862" lon="6.60325">
        <ele>1497.41</ele>
        <time>2018-08-26T08:50:17Z</time>
      </trkpt>
      <trkpt lat="44.2488" lon="6.6031">
        <ele>1499.7</ele>
        <time>2018-08-26T08:50:19Z</time>
      </trkpt>
      <trkpt lat="44.24892" lon="6.6029">
        <ele>1500.61</ele>
        <time>2018-08-26T08:50:21Z</time>
      </trkpt>
      <trkpt lat="44.24893" lon="6.60262">
        <ele>1502.3</ele>
        <time>2018-08-26T08:50:23Z</time>
      </trkpt>
      <trkpt lat="44.24898" lon="6.60231">
        <ele>1503.57</ele>
        <time>2018-08-26T08:50:25Z</time>
      </trkpt>
      <trkpt lat="44.24911" lon="6.60206">
        <ele>1505.3</ele>
        <time>2018-08-26T08:50:27Z</time>
      </trkpt>
      <trkpt lat="44.24926" lon="6.60183">
        <ele>1506.78</ele>
        <time>2018-08-26T08:50:29Z</time>
      </trkpt>
      <trkpt lat="44.24938" lon="6.60157">
        <ele>1506.92</ele>
        <time>2018-08-26T08:50:31Z</time>
      </trkpt>
      <trkpt lat="44.24953" lon="6.60139">
        <ele>1506.93</ele>
        <time>2018-08-26T08:50:33Z</time>
      </trkpt>
      <trkpt lat="44.24972" lon="6.60131">
        <ele>1507.42</ele>
        <time>2018-08-26T08:50:35Z</time>
      </trkpt>
      <trkpt lat="44.24998" lon="6.60118">
        <ele>1508.09</ele>
        <time>2018-08-26T08:50:37Z</time>
      </trkpt>
      <trkpt lat="44.25034" lon="6.60099">
        <ele>1508.18</ele>
        <time>2018-08-26T08:50:39Z</time>
      </trkpt>
      <trkpt lat="44.25051" lon="6.60089">
        <ele>1509.05</ele>
        <time>2018-08-26T08:50:40Z</time>
      </trkpt>
      <trkpt lat="44.25073" lon="6.60079">
        <ele>1509.31</ele>
        <time>2018-08-26T08:50:41Z</time>
      </trkpt>
      <trkpt lat="44.25093" lon="6.60068">
        <ele>1509.39</ele>
        <time>2018-08-26T08:50:42Z</time>
      </trkpt>
      <trkpt lat="44.25111" lon="6.60055">
        <ele>1509.41</ele>
        <time>2018-08-26T08:50:43Z</time>
      </trkpt>
      <trkpt lat="44.25127" lon="6.60042">
        <ele>1509.42</ele>
        <time>2018-08-26T08:50:44Z</time>
      </trkpt>
      <trkpt lat="44.25154" lon="6.60018">
        <ele>1510.33</ele>
        <time>2018-08-26T08:50:46Z</time>
      </trkpt>
      <trkpt lat="44.25176" lon="6.59982">
        <ele>1511.11</ele>
        <time>2018-08-26T08:50:48Z</time>
      </trkpt>
      <trkpt lat="44.25182" lon="6.59954">
        <ele>1511.33</ele>
        <time>2018-08-26T08:50:49Z</time>
      </trkpt>
      <trkpt lat="44.25205" lon="6.59918">
        <ele>1513.02</ele>
        <time>2018-08-26T08:50:51Z</time>
      </trkpt>
      <trkpt lat="44.2523" lon="6.59888">
        <ele>1514.3</ele>
        <time>2018-08-26T08:50:53Z</time>
      </trkpt>
      <trkpt lat="44.25252" lon="6.59858">
        <ele>1516.02</ele>
        <time>2018-08-26T08:50:55Z</time>
      </trkpt>
      <trkpt lat="44.25274" lon="6.59836">
        <ele>1515.19</ele>
        <time>2018-08-26T08:50:57Z</time>
      </trkpt>
      <trkpt lat="44.25294" lon="6.59824">
        <ele>1514.28</ele>
        <time>2018-08-26T08:50:59Z</time>
      </trkpt>
      <trkpt lat="44.25317" lon="6.59838">
        <ele>1514.2</ele>
        <time>2018-08-26T08:51:01Z</time>
      </trkpt>
      <trkpt lat="44.25335" lon="6.59848">
        <ele>1516.22</ele>
        <time>2018-08-26T08:51:03Z</time>
      </trkpt>
      <trkpt lat="44.25355" lon="6.59841">
        <ele>1519</ele>
        <time>2018-08-26T08:51:07Z</time>
      </trkpt>
      <trkpt lat="44.25345" lon="6.59807">
        <ele>1522.2</ele>
        <time>2018-08-26T08:51:10Z</time>
      </trkpt>
      <trkpt lat="44.25335" lon="6.59785">
        <ele>1524.22</ele>
        <time>2018-08-26T08:51:12Z</time>
      </trkpt>
      <trkpt lat="44.2533" lon="6.59754">
        <ele>1524.4</ele>
        <time>2018-08-26T08:51:14Z</time>
      </trkpt>
      <trkpt lat="44.25341" lon="6.59719">
        <ele>1527.28</ele>
        <time>2018-08-26T08:51:17Z</time>
      </trkpt>
      <trkpt lat="44.25369" lon="6.59687">
        <ele>1528.11</ele>
        <time>2018-08-26T08:51:19Z</time>
      </trkpt>
      <trkpt lat="44.25383" lon="6.59663">
        <ele>1529.03</ele>
        <time>2018-08-26T08:51:20Z</time>
      </trkpt>
      <trkpt lat="44.25397" lon="6.59638">
        <ele>1530.7</ele>
        <time>2018-08-26T08:51:21Z</time>
      </trkpt>
      <trkpt lat="44.25426" lon="6.59605">
        <ele>1531.57</ele>
        <time>2018-08-26T08:51:23Z</time>
      </trkpt>
      <trkpt lat="44.25442" lon="6.5959">
        <ele>1532.16</ele>
        <time>2018-08-26T08:51:24Z</time>
      </trkpt>
      <trkpt lat="44.2546" lon="6.59573">
        <ele>1532.34</ele>
        <time>2018-08-26T08:51:25Z</time>
      </trkpt>
      <trkpt lat="44.25479" lon="6.59552">
        <ele>1533.1</ele>
        <time>2018-08-26T08:51:26Z</time>
      </trkpt>
      <trkpt lat="44.25495" lon="6.59527">
        <ele>1534.02</ele>
        <time>2018-08-26T08:51:27Z</time>
      </trkpt>
      <trkpt lat="44.25512" lon="6.59501">
        <ele>1535.7</ele>
        <time>2018-08-26T08:51:28Z</time>
      </trkpt>
      <trkpt lat="44.25528" lon="6.59476">
        <ele>1536.91</ele>
        <time>2018-08-26T08:51:29Z</time>
      </trkpt>
      <trkpt lat="44.25545" lon="6.59453">
        <ele>1537.27</ele>
        <time>2018-08-26T08:51:30Z</time>
      </trkpt>
      <trkpt lat="44.25562" lon="6.59433">
        <ele>1538.07</ele>
        <time>2018-08-26T08:51:31Z</time>
      </trkpt>
      <trkpt lat="44.25579" lon="6.59411">
        <ele>1539.02</ele>
        <time>2018-08-26T08:51:32Z</time>
      </trkpt>
      <trkpt lat="44.25596" lon="6.59385">
        <ele>1540</ele>
        <time>2018-08-26T08:51:33Z</time>
      </trkpt>
      <trkpt lat="44.25613" lon="6.59359">
        <ele>1541.69</ele>
        <time>2018-08-26T08:51:34Z</time>
      </trkpt>
      <trkpt lat="44.25631" lon="6.59334">
        <ele>1542.9</ele>
        <time>2018-08-26T08:51:35Z</time>
      </trkpt>
      <trkpt lat="44.25646" lon="6.59306">
        <ele>1543.97</ele>
        <time>2018-08-26T08:51:36Z</time>
      </trkpt>
      <trkpt lat="44.25662" lon="6.59278">
        <ele>1544.98</ele>
        <time>2018-08-26T08:51:37Z</time>
      </trkpt>
      <trkpt lat="44.25676" lon="6.59252">
        <ele>1545.99</ele>
        <time>2018-08-26T08:51:38Z</time>
      </trkpt>
      <trkpt lat="44.25694" lon="6.5921">
        <ele>1548.9</ele>
        <time>2018-08-26T08:51:40Z</time>
      </trkpt>
      <trkpt lat="44.25722" lon="6.59173">
        <ele>1550.98</ele>
        <time>2018-08-26T08:51:42Z</time>
      </trkpt>
      <trkpt lat="44.25744" lon="6.59147">
        <ele>1551.29</ele>
        <time>2018-08-26T08:51:43Z</time>
      </trkpt>
      <trkpt lat="44.25763" lon="6.59122">
        <ele>1552.08</ele>
        <time>2018-08-26T08:51:44Z</time>
      </trkpt>
      <trkpt lat="44.25784" lon="6.59089">
        <ele>1554.42</ele>
        <time>2018-08-26T08:51:45Z</time>
      </trkpt>
      <trkpt lat="44.25802" lon="6.5906">
        <ele>1555.82</ele>
        <time>2018-08-26T08:51:46Z</time>
      </trkpt>
      <trkpt lat="44.25818" lon="6.59032">
        <ele>1557.64</ele>
        <time>2018-08-26T08:51:47Z</time>
      </trkpt>
      <trkpt lat="44.25832" lon="6.59002">
        <ele>1558.89</ele>
        <time>2018-08-26T08:51:48Z</time>
      </trkpt>
      <trkpt lat="44.25844" lon="6.58976">
        <ele>1559.26</ele>
        <time>2018-08-26T08:51:49Z</time>
      </trkpt>
      <trkpt lat="44.25852" lon="6.58946">
        <ele>1560.07</ele>
        <time>2018-08-26T08:51:50Z</time>
      </trkpt>
      <trkpt lat="44.25861" lon="6.58922">
        <ele>1561.02</ele>
        <time>2018-08-26T08:51:51Z</time>
      </trkpt>
      <trkpt lat="44.2587" lon="6.58899">
        <ele>1562.7</ele>
        <time>2018-08-26T08:51:52Z</time>
      </trkpt>
      <trkpt lat="44.2588" lon="6.58877">
        <ele>1564.6</ele>
        <time>2018-08-26T08:51:53Z</time>
      </trkpt>
      <trkpt lat="44.25892" lon="6.58859">
        <ele>1565.88</ele>
        <time>2018-08-26T08:51:54Z</time>
      </trkpt>
      <trkpt lat="44.25908" lon="6.58844">
        <ele>1565.56</ele>
        <time>2018-08-26T08:51:55Z</time>
      </trkpt>
      <trkpt lat="44.25941" lon="6.58829">
        <ele>1567.04</ele>
        <time>2018-08-26T08:51:57Z</time>
      </trkpt>
      <trkpt lat="44.2596" lon="6.58822">
        <ele>1567.31</ele>
        <time>2018-08-26T08:51:58Z</time>
      </trkpt>
      <trkpt lat="44.25976" lon="6.58809">
        <ele>1568.09</ele>
        <time>2018-08-26T08:51:59Z</time>
      </trkpt>
      <trkpt lat="44.25993" lon="6.588">
        <ele>1569.72</ele>
        <time>2018-08-26T08:52:00Z</time>
      </trkpt>
      <trkpt lat="44.26017" lon="6.58769">
        <ele>1572.67</ele>
        <time>2018-08-26T08:52:02Z</time>
      </trkpt>
      <trkpt lat="44.26012" lon="6.58731">
        <ele>1577.4</ele>
        <time>2018-08-26T08:52:03Z</time>
      </trkpt>
      <trkpt lat="44.26019" lon="6.58704">
        <ele>1580.21</ele>
        <time>2018-08-26T08:52:04Z</time>
      </trkpt>
      <trkpt lat="44.26029" lon="6.58679">
        <ele>1581.76</ele>
        <time>2018-08-26T08:52:05Z</time>
      </trkpt>
      <trkpt lat="44.26045" lon="6.58663">
        <ele>1584.32</ele>
        <time>2018-08-26T08:52:06Z</time>
      </trkpt>
      <trkpt lat="44.26066" lon="6.58639">
        <ele>1585.79</ele>
        <time>2018-08-26T08:52:07Z</time>
      </trkpt>
      <trkpt lat="44.26085" lon="6.58614">
        <ele>1586.93</ele>
        <time>2018-08-26T08:52:08Z</time>
      </trkpt>
      <trkpt lat="44.26102" lon="6.58593">
        <ele>1588.67</ele>
        <time>2018-08-26T08:52:09Z</time>
      </trkpt>
      <trkpt lat="44.26119" lon="6.58577">
        <ele>1589.9</ele>
        <time>2018-08-26T08:52:10Z</time>
      </trkpt>
      <trkpt lat="44.26138" lon="6.58563">
        <ele>1592.36</ele>
        <time>2018-08-26T08:52:11Z</time>
      </trkpt>
      <trkpt lat="44.26157" lon="6.58546">
        <ele>1594.5</ele>
        <time>2018-08-26T08:52:12Z</time>
      </trkpt>
      <trkpt lat="44.26179" lon="6.5853">
        <ele>1595.85</ele>
        <time>2018-08-26T08:52:13Z</time>
      </trkpt>
      <trkpt lat="44.262" lon="6.58513">
        <ele>1596.95</ele>
        <time>2018-08-26T08:52:14Z</time>
      </trkpt>
      <trkpt lat="44.26221" lon="6.58499">
        <ele>1598.68</ele>
        <time>2018-08-26T08:52:15Z</time>
      </trkpt>
      <trkpt lat="44.26241" lon="6.58487">
        <ele>1600.6</ele>
        <time>2018-08-26T08:52:16Z</time>
      </trkpt>
      <trkpt lat="44.26258" lon="6.5847">
        <ele>1602.57</ele>
        <time>2018-08-26T08:52:17Z</time>
      </trkpt>
      <trkpt lat="44.26275" lon="6.58451">
        <ele>1604.57</ele>
        <time>2018-08-26T08:52:18Z</time>
      </trkpt>
      <trkpt lat="44.26292" lon="6.58433">
        <ele>1606.56</ele>
        <time>2018-08-26T08:52:19Z</time>
      </trkpt>
      <trkpt lat="44.26307" lon="6.58415">
        <ele>1607.86</ele>
        <time>2018-08-26T08:52:20Z</time>
      </trkpt>
      <trkpt lat="44.26329" lon="6.58388">
        <ele>1610.4</ele>
        <time>2018-08-26T08:52:22Z</time>
      </trkpt>
      <trkpt lat="44.26339" lon="6.58363">
        <ele>1612.03</ele>
        <time>2018-08-26T08:52:24Z</time>
      </trkpt>
      <trkpt lat="44.26329" lon="6.58322">
        <ele>1612.18</ele>
        <time>2018-08-26T08:52:26Z</time>
      </trkpt>
      <trkpt lat="44.26328" lon="6.58286">
        <ele>1613.1</ele>
        <time>2018-08-26T08:52:28Z</time>
      </trkpt>
      <trkpt lat="44.26341" lon="6.58257">
        <ele>1615.7</ele>
        <time>2018-08-26T08:52:30Z</time>
      </trkpt>
      <trkpt lat="44.26372" lon="6.58239">
        <ele>1616.36</ele>
        <time>2018-08-26T08:52:32Z</time>
      </trkpt>
      <trkpt lat="44.26401" lon="6.58242">
        <ele>1616.4</ele>
        <time>2018-08-26T08:52:33Z</time>
      </trkpt>
      <trkpt lat="44.26427" lon="6.58241">
        <ele>1616.42</ele>
        <time>2018-08-26T08:52:34Z</time>
      </trkpt>
      <trkpt lat="44.26458" lon="6.58241">
        <ele>1617.82</ele>
        <time>2018-08-26T08:52:35Z</time>
      </trkpt>
      <trkpt lat="44.26487" lon="6.58235">
        <ele>1618.94</ele>
        <time>2018-08-26T08:52:36Z</time>
      </trkpt>
      <trkpt lat="44.26513" lon="6.58228">
        <ele>1619.98</ele>
        <time>2018-08-26T08:52:37Z</time>
      </trkpt>
      <trkpt lat="44.26537" lon="6.58218">
        <ele>1621.69</ele>
        <time>2018-08-26T08:52:38Z</time>
      </trkpt>
      <trkpt lat="44.26559" lon="6.58204">
        <ele>1623.6</ele>
        <time>2018-08-26T08:52:39Z</time>
      </trkpt>
      <trkpt lat="44.26583" lon="6.58185">
        <ele>1626.97</ele>
        <time>2018-08-26T08:52:40Z</time>
      </trkpt>
      <trkpt lat="44.26605" lon="6.5817">
        <ele>1630.79</ele>
        <time>2018-08-26T08:52:41Z</time>
      </trkpt>
      <trkpt lat="44.26627" lon="6.58156">
        <ele>1634.03</ele>
        <time>2018-08-26T08:52:42Z</time>
      </trkpt>
      <trkpt lat="44.26644" lon="6.58144">
        <ele>1636.4</ele>
        <time>2018-08-26T08:52:43Z</time>
      </trkpt>
      <trkpt lat="44.26675" lon="6.58122">
        <ele>1639.85</ele>
        <time>2018-08-26T08:52:45Z</time>
      </trkpt>
      <trkpt lat="44.26702" lon="6.58102">
        <ele>1642.89</ele>
        <time>2018-08-26T08:52:47Z</time>
      </trkpt>
      <trkpt lat="44.26725" lon="6.58087">
        <ele>1644.98</ele>
        <time>2018-08-26T08:52:49Z</time>
      </trkpt>
      <trkpt lat="44.2675" lon="6.58078">
        <ele>1647.69</ele>
        <time>2018-08-26T08:52:51Z</time>
      </trkpt>
      <trkpt lat="44.26773" lon="6.58077">
        <ele>1648.36</ele>
        <time>2018-08-26T08:52:53Z</time>
      </trkpt>
      <trkpt lat="44.26796" lon="6.58078">
        <ele>1649.33</ele>
        <time>2018-08-26T08:52:55Z</time>
      </trkpt>
      <trkpt lat="44.26823" lon="6.58073">
        <ele>1650.32</ele>
        <time>2018-08-26T08:52:57Z</time>
      </trkpt>
      <trkpt lat="44.26851" lon="6.58066">
        <ele>1652.02</ele>
        <time>2018-08-26T08:52:59Z</time>
      </trkpt>
      <trkpt lat="44.26888" lon="6.58059">
        <ele>1654.7</ele>
        <time>2018-08-26T08:53:01Z</time>
      </trkpt>
      <trkpt lat="44.26911" lon="6.58057">
        <ele>1655.9</ele>
        <time>2018-08-26T08:53:02Z</time>
      </trkpt>
      <trkpt lat="44.26935" lon="6.58057">
        <ele>1656.97</ele>
        <time>2018-08-26T08:53:03Z</time>
      </trkpt>
      <trkpt lat="44.26963" lon="6.58056">
        <ele>1657.98</ele>
        <time>2018-08-26T08:53:04Z</time>
      </trkpt>
      <trkpt lat="44.26992" lon="6.5806">
        <ele>1658.99</ele>
        <time>2018-08-26T08:53:05Z</time>
      </trkpt>
      <trkpt lat="44.27029" lon="6.5805">
        <ele>1659.29</ele>
        <time>2018-08-26T08:53:06Z</time>
      </trkpt>
      <trkpt lat="44.27059" lon="6.58045">
        <ele>1660.08</ele>
        <time>2018-08-26T08:53:07Z</time>
      </trkpt>
      <trkpt lat="44.27087" lon="6.58041">
        <ele>1661.72</ele>
        <time>2018-08-26T08:53:08Z</time>
      </trkpt>
      <trkpt lat="44.27111" lon="6.58031">
        <ele>1664.31</ele>
        <time>2018-08-26T08:53:09Z</time>
      </trkpt>
      <trkpt lat="44.27135" lon="6.58025">
        <ele>1666.49</ele>
        <time>2018-08-26T08:53:10Z</time>
      </trkpt>
      <trkpt lat="44.27155" lon="6.58021">
        <ele>1667.14</ele>
        <time>2018-08-26T08:53:11Z</time>
      </trkpt>
      <trkpt lat="44.27173" lon="6.58011">
        <ele>1667.34</ele>
        <time>2018-08-26T08:53:12Z</time>
      </trkpt>
      <trkpt lat="44.27192" lon="6.5799">
        <ele>1668.8</ele>
        <time>2018-08-26T08:53:13Z</time>
      </trkpt>
      <trkpt lat="44.27203" lon="6.57961">
        <ele>1670.63</ele>
        <time>2018-08-26T08:53:14Z</time>
      </trkpt>
      <trkpt lat="44.27218" lon="6.57944">
        <ele>1672.58</ele>
        <time>2018-08-26T08:53:15Z</time>
      </trkpt>
      <trkpt lat="44.27236" lon="6.5793">
        <ele>1674.57</ele>
        <time>2018-08-26T08:53:16Z</time>
      </trkpt>
      <trkpt lat="44.27255" lon="6.5792">
        <ele>1675.87</ele>
        <time>2018-08-26T08:53:17Z</time>
      </trkpt>
      <trkpt lat="44.27273" lon="6.57908">
        <ele>1676.95</ele>
        <time>2018-08-26T08:53:18Z</time>
      </trkpt>
      <trkpt lat="44.27291" lon="6.57901">
        <ele>1677.98</ele>
        <time>2018-08-26T08:53:19Z</time>
      </trkpt>
      <trkpt lat="44.27309" lon="6.57897">
        <ele>1678.29</ele>
        <time>2018-08-26T08:53:20Z</time>
      </trkpt>
      <trkpt lat="44.27331" lon="6.57924">
        <ele>1678.41</ele>
        <time>2018-08-26T08:53:22Z</time>
      </trkpt>
      <trkpt lat="44.27342" lon="6.57945">
        <ele>1679.12</ele>
        <time>2018-08-26T08:53:23Z</time>
      </trkpt>
      <trkpt lat="44.27365" lon="6.57968">
        <ele>1683.52</ele>
        <time>2018-08-26T08:53:25Z</time>
      </trkpt>
      <trkpt lat="44.27398" lon="6.57974">
        <ele>1684.13</ele>
        <time>2018-08-26T08:53:27Z</time>
      </trkpt>
      <trkpt lat="44.27432" lon="6.57968">
        <ele>1686.21</ele>
        <time>2018-08-26T08:53:29Z</time>
      </trkpt>
      <trkpt lat="44.27464" lon="6.57957">
        <ele>1687.31</ele>
        <time>2018-08-26T08:53:31Z</time>
      </trkpt>
      <trkpt lat="44.2748" lon="6.57942">
        <ele>1688.09</ele>
        <time>2018-08-26T08:53:32Z</time>
      </trkpt>
      <trkpt lat="44.27489" lon="6.57914">
        <ele>1690.42</ele>
        <time>2018-08-26T08:53:33Z</time>
      </trkpt>
      <trkpt lat="44.27503" lon="6.57896">
        <ele>1690.42</ele>
        <time>2018-08-26T08:53:34Z</time>
      </trkpt>
      <trkpt lat="44.2753" lon="6.57876">
        <ele>1692.94</ele>
        <time>2018-08-26T08:53:36Z</time>
      </trkpt>
      <trkpt lat="44.27561" lon="6.57864">
        <ele>1694.29</ele>
        <time>2018-08-26T08:53:38Z</time>
      </trkpt>
      <trkpt lat="44.27594" lon="6.57863">
        <ele>1695.32</ele>
        <time>2018-08-26T08:53:40Z</time>
      </trkpt>
      <trkpt lat="44.27602" lon="6.57886">
        <ele>1695.39</ele>
        <time>2018-08-26T08:53:41Z</time>
      </trkpt>
      <trkpt lat="44.27621" lon="6.5791">
        <ele>1698.43</ele>
        <time>2018-08-26T08:53:43Z</time>
      </trkpt>
      <trkpt lat="44.27643" lon="6.5792">
        <ele>1700.03</ele>
        <time>2018-08-26T08:53:45Z</time>
      </trkpt>
      <trkpt lat="44.27664" lon="6.57904">
        <ele>1702.21</ele>
        <time>2018-08-26T08:53:47Z</time>
      </trkpt>
      <trkpt lat="44.27671" lon="6.57872">
        <ele>1703.1</ele>
        <time>2018-08-26T08:53:49Z</time>
      </trkpt>
      <trkpt lat="44.27693" lon="6.57865">
        <ele>1704.09</ele>
        <time>2018-08-26T08:53:51Z</time>
      </trkpt>
      <trkpt lat="44.2772" lon="6.57858">
        <ele>1705.79</ele>
        <time>2018-08-26T08:53:53Z</time>
      </trkpt>
      <trkpt lat="44.27745" lon="6.57836">
        <ele>1707.76</ele>
        <time>2018-08-26T08:53:55Z</time>
      </trkpt>
      <trkpt lat="44.27769" lon="6.57804">
        <ele>1710.88</ele>
        <time>2018-08-26T08:53:57Z</time>
      </trkpt>
      <trkpt lat="44.27794" lon="6.57781">
        <ele>1712.98</ele>
        <time>2018-08-26T08:53:59Z</time>
      </trkpt>
      <trkpt lat="44.27814" lon="6.57746">
        <ele>1714.08</ele>
        <time>2018-08-26T08:54:01Z</time>
      </trkpt>
      <trkpt lat="44.27834" lon="6.57706">
        <ele>1716.91</ele>
        <time>2018-08-26T08:54:03Z</time>
      </trkpt>
      <trkpt lat="44.27847" lon="6.57687">
        <ele>1717.97</ele>
        <time>2018-08-26T08:54:04Z</time>
      </trkpt>
      <trkpt lat="44.27859" lon="6.57668">
        <ele>1718.99</ele>
        <time>2018-08-26T08:54:05Z</time>
      </trkpt>
      <trkpt lat="44.27873" lon="6.57649">
        <ele>1719.99</ele>
        <time>2018-08-26T08:54:06Z</time>
      </trkpt>
      <trkpt lat="44.27885" lon="6.5763">
        <ele>1720.99</ele>
        <time>2018-08-26T08:54:07Z</time>
      </trkpt>
      <trkpt lat="44.27898" lon="6.57611">
        <ele>1722.69</ele>
        <time>2018-08-26T08:54:08Z</time>
      </trkpt>
      <trkpt lat="44.27911" lon="6.57593">
        <ele>1723.9</ele>
        <time>2018-08-26T08:54:09Z</time>
      </trkpt>
      <trkpt lat="44.27923" lon="6.57574">
        <ele>1724.97</ele>
        <time>2018-08-26T08:54:10Z</time>
      </trkpt>
      <trkpt lat="44.27949" lon="6.57538">
        <ele>1727.69</ele>
        <time>2018-08-26T08:54:12Z</time>
      </trkpt>
      <trkpt lat="44.27966" lon="6.57521">
        <ele>1729.6</ele>
        <time>2018-08-26T08:54:13Z</time>
      </trkpt>
      <trkpt lat="44.27985" lon="6.57503">
        <ele>1730.88</ele>
        <time>2018-08-26T08:54:14Z</time>
      </trkpt>
      <trkpt lat="44.28005" lon="6.57483">
        <ele>1731.96</ele>
        <time>2018-08-26T08:54:15Z</time>
      </trkpt>
      <trkpt lat="44.28022" lon="6.57462">
        <ele>1732.28</ele>
        <time>2018-08-26T08:54:16Z</time>
      </trkpt>
      <trkpt lat="44.28038" lon="6.57445">
        <ele>1733.78</ele>
        <time>2018-08-26T08:54:17Z</time>
      </trkpt>
      <trkpt lat="44.28055" lon="6.57431">
        <ele>1736.33</ele>
        <time>2018-08-26T08:54:18Z</time>
      </trkpt>
      <trkpt lat="44.28075" lon="6.57422">
        <ele>1737.79</ele>
        <time>2018-08-26T08:54:19Z</time>
      </trkpt>
      <trkpt lat="44.28095" lon="6.57412">
        <ele>1738.93</ele>
        <time>2018-08-26T08:54:20Z</time>
      </trkpt>
      <trkpt lat="44.28118" lon="6.57404">
        <ele>1739.97</ele>
        <time>2018-08-26T08:54:21Z</time>
      </trkpt>
      <trkpt lat="44.28144" lon="6.57396">
        <ele>1740.99</ele>
        <time>2018-08-26T08:54:22Z</time>
      </trkpt>
      <trkpt lat="44.2817" lon="6.57391">
        <ele>1741.99</ele>
        <time>2018-08-26T08:54:23Z</time>
      </trkpt>
      <trkpt lat="44.28192" lon="6.57383">
        <ele>1742.99</ele>
        <time>2018-08-26T08:54:24Z</time>
      </trkpt>
      <trkpt lat="44.28211" lon="6.57373">
        <ele>1746.09</ele>
        <time>2018-08-26T08:54:25Z</time>
      </trkpt>
      <trkpt lat="44.28229" lon="6.57366">
        <ele>1747.72</ele>
        <time>2018-08-26T08:54:26Z</time>
      </trkpt>
      <trkpt lat="44.2826" lon="6.57352">
        <ele>1750.67</ele>
        <time>2018-08-26T08:54:28Z</time>
      </trkpt>
      <trkpt lat="44.28286" lon="6.57341">
        <ele>1752.26</ele>
        <time>2018-08-26T08:54:30Z</time>
      </trkpt>
      <trkpt lat="44.28311" lon="6.57336">
        <ele>1753.32</ele>
        <time>2018-08-26T08:54:32Z</time>
      </trkpt>
      <trkpt lat="44.28336" lon="6.57337">
        <ele>1753.62</ele>
        <time>2018-08-26T08:54:34Z</time>
      </trkpt>
      <trkpt lat="44.28362" lon="6.57342">
        <ele>1753.65</ele>
        <time>2018-08-26T08:54:36Z</time>
      </trkpt>
      <trkpt lat="44.28388" lon="6.57345">
        <ele>1753.44</ele>
        <time>2018-08-26T08:54:38Z</time>
      </trkpt>
      <trkpt lat="44.28412" lon="6.57356">
        <ele>1753.42</ele>
        <time>2018-08-26T08:54:40Z</time>
      </trkpt>
      <trkpt lat="44.28428" lon="6.5738">
        <ele>1754.12</ele>
        <time>2018-08-26T08:54:42Z</time>
      </trkpt>
      <trkpt lat="44.28435" lon="6.57419">
        <ele>1755.3</ele>
        <time>2018-08-26T08:54:44Z</time>
      </trkpt>
      <trkpt lat="44.28444" lon="6.57449">
        <ele>1757.23</ele>
        <time>2018-08-26T08:54:46Z</time>
      </trkpt>
      <trkpt lat="44.28466" lon="6.57463">
        <ele>1758.31</ele>
        <time>2018-08-26T08:54:48Z</time>
      </trkpt>
      <trkpt lat="44.28488" lon="6.57446">
        <ele>1759.32</ele>
        <time>2018-08-26T08:54:50Z</time>
      </trkpt>
      <trkpt lat="44.28491" lon="6.57406">
        <ele>1760.79</ele>
        <time>2018-08-26T08:54:51Z</time>
      </trkpt>
      <trkpt lat="44.28509" lon="6.57393">
        <ele>1763.88</ele>
        <time>2018-08-26T08:54:53Z</time>
      </trkpt>
      <trkpt lat="44.28533" lon="6.57387">
        <ele>1765.98</ele>
        <time>2018-08-26T08:54:55Z</time>
      </trkpt>
      <trkpt lat="44.28555" lon="6.57371">
        <ele>1768.9</ele>
        <time>2018-08-26T08:54:57Z</time>
      </trkpt>
      <trkpt lat="44.28577" lon="6.57348">
        <ele>1770.98</ele>
        <time>2018-08-26T08:54:59Z</time>
      </trkpt>
      <trkpt lat="44.28602" lon="6.57331">
        <ele>1773.69</ele>
        <time>2018-08-26T08:55:01Z</time>
      </trkpt>
      <trkpt lat="44.28628" lon="6.57317">
        <ele>1775.27</ele>
        <time>2018-08-26T08:55:03Z</time>
      </trkpt>
      <trkpt lat="44.28656" lon="6.5731">
        <ele>1777.23</ele>
        <time>2018-08-26T08:55:05Z</time>
      </trkpt>
      <trkpt lat="44.28686" lon="6.57308">
        <ele>1778.31</ele>
        <time>2018-08-26T08:55:07Z</time>
      </trkpt>
      <trkpt lat="44.28714" lon="6.57305">
        <ele>1778.41</ele>
        <time>2018-08-26T08:55:09Z</time>
      </trkpt>
      <trkpt lat="44.28743" lon="6.57299">
        <ele>1779.33</ele>
        <time>2018-08-26T08:55:11Z</time>
      </trkpt>
      <trkpt lat="44.28769" lon="6.57284">
        <ele>1781.72</ele>
        <time>2018-08-26T08:55:13Z</time>
      </trkpt>
      <trkpt lat="44.28799" lon="6.57272">
        <ele>1783.27</ele>
        <time>2018-08-26T08:55:15Z</time>
      </trkpt>
      <trkpt lat="44.28828" lon="6.57265">
        <ele>1784.32</ele>
        <time>2018-08-26T08:55:17Z</time>
      </trkpt>
      <trkpt lat="44.28857" lon="6.57258">
        <ele>1784.62</ele>
        <time>2018-08-26T08:55:19Z</time>
      </trkpt>
      <trkpt lat="44.28885" lon="6.57249">
        <ele>1785.14</ele>
        <time>2018-08-26T08:55:21Z</time>
      </trkpt>
      <trkpt lat="44.2891" lon="6.57241">
        <ele>1785.19</ele>
        <time>2018-08-26T08:55:23Z</time>
      </trkpt>
      <trkpt lat="44.28929" lon="6.57243">
        <ele>1785.4</ele>
        <time>2018-08-26T08:55:25Z</time>
      </trkpt>
      <trkpt lat="44.2895" lon="6.57244">
        <ele>1786.39</ele>
        <time>2018-08-26T08:55:28Z</time>
      </trkpt>
      <trkpt lat="44.28965" lon="6.57222">
        <ele>1789.21</ele>
        <time>2018-08-26T08:55:31Z</time>
      </trkpt>
      <trkpt lat="44.28985" lon="6.57208">
        <ele>1789.35</ele>
        <time>2018-08-26T08:55:34Z</time>
      </trkpt>
      <trkpt lat="44.29008" lon="6.57201">
        <ele>1791.3</ele>
        <time>2018-08-26T08:55:37Z</time>
      </trkpt>
      <trkpt lat="44.2903" lon="6.57197">
        <ele>1792.39</ele>
        <time>2018-08-26T08:55:40Z</time>
      </trkpt>
      <trkpt lat="44.29053" lon="6.57192">
        <ele>1791.51</ele>
        <time>2018-08-26T08:55:43Z</time>
      </trkpt>
      <trkpt lat="44.29075" lon="6.57176">
        <ele>1792.06</ele>
        <time>2018-08-26T08:55:46Z</time>
      </trkpt>
      <trkpt lat="44.29095" lon="6.57157">
        <ele>1794.02</ele>
        <time>2018-08-26T08:55:49Z</time>
      </trkpt>
      <trkpt lat="44.29113" lon="6.57135">
        <ele>1796.99</ele>
        <time>2018-08-26T08:55:52Z</time>
      </trkpt>
      <trkpt lat="44.29132" lon="6.57109">
        <ele>1799.99</ele>
        <time>2018-08-26T08:55:55Z</time>
      </trkpt>
      <trkpt lat="44.29151" lon="6.57084">
        <ele>1802.02</ele>
        <time>2018-08-26T08:55:58Z</time>
      </trkpt>
      <trkpt lat="44.29169" lon="6.57059">
        <ele>1805.69</ele>
        <time>2018-08-26T08:56:01Z</time>
      </trkpt>
      <trkpt lat="44.29189" lon="6.57035">
        <ele>1808.01</ele>
        <time>2018-08-26T08:56:04Z</time>
      </trkpt>
      <trkpt lat="44.29205" lon="6.57018">
        <ele>1809.99</ele>
        <time>2018-08-26T08:56:06Z</time>
      </trkpt>
      <trkpt lat="44.29227" lon="6.57011">
        <ele>1811.29</ele>
        <time>2018-08-26T08:56:08Z</time>
      </trkpt>
      <trkpt lat="44.29252" lon="6.57015">
        <ele>1812.32</ele>
        <time>2018-08-26T08:56:10Z</time>
      </trkpt>
      <trkpt lat="44.29277" lon="6.57012">
        <ele>1813.32</ele>
        <time>2018-08-26T08:56:12Z</time>
      </trkpt>
      <trkpt lat="44.29303" lon="6.57001">
        <ele>1814.11</ele>
        <time>2018-08-26T08:56:14Z</time>
      </trkpt>
      <trkpt lat="44.29306" lon="6.56975">
        <ele>1817.13</ele>
        <time>2018-08-26T08:56:15Z</time>
      </trkpt>
      <trkpt lat="44.29324" lon="6.56954">
        <ele>1819.91</ele>
        <time>2018-08-26T08:56:17Z</time>
      </trkpt>
      <trkpt lat="44.29347" lon="6.56951">
        <ele>1821.99</ele>
        <time>2018-08-26T08:56:19Z</time>
      </trkpt>
      <trkpt lat="44.29377" lon="6.56951">
        <ele>1823.99</ele>
        <time>2018-08-26T08:56:21Z</time>
      </trkpt>
      <trkpt lat="44.29408" lon="6.56949">
        <ele>1825.08</ele>
        <time>2018-08-26T08:56:23Z</time>
      </trkpt>
      <trkpt lat="44.2944" lon="6.5695">
        <ele>1826.79</ele>
        <time>2018-08-26T08:56:25Z</time>
      </trkpt>
      <trkpt lat="44.29469" lon="6.5695">
        <ele>1828.27</ele>
        <time>2018-08-26T08:56:27Z</time>
      </trkpt>
      <trkpt lat="44.29496" lon="6.5695">
        <ele>1829.32</ele>
        <time>2018-08-26T08:56:29Z</time>
      </trkpt>
      <trkpt lat="44.29523" lon="6.56944">
        <ele>1831.23</ele>
        <time>2018-08-26T08:56:31Z</time>
      </trkpt>
      <trkpt lat="44.29549" lon="6.56935">
        <ele>1831.4</ele>
        <time>2018-08-26T08:56:33Z</time>
      </trkpt>
      <trkpt lat="44.29573" lon="6.56928">
        <ele>1831.42</ele>
        <time>2018-08-26T08:56:35Z</time>
      </trkpt>
      <trkpt lat="44.29598" lon="6.56936">
        <ele>1831.42</ele>
        <time>2018-08-26T08:56:38Z</time>
      </trkpt>
      <trkpt lat="44.29614" lon="6.56964">
        <ele>1833.52</ele>
        <time>2018-08-26T08:56:40Z</time>
      </trkpt>
      <trkpt lat="44.29639" lon="6.56976">
        <ele>1836.28</ele>
        <time>2018-08-26T08:56:43Z</time>
      </trkpt>
      <trkpt lat="44.2966" lon="6.56949">
        <ele>1838.02</ele>
        <time>2018-08-26T08:56:45Z</time>
      </trkpt>
      <trkpt lat="44.29683" lon="6.56935">
        <ele>1841.6</ele>
        <time>2018-08-26T08:56:47Z</time>
      </trkpt>
      <trkpt lat="44.29709" lon="6.56923">
        <ele>1844.66</ele>
        <time>2018-08-26T08:56:49Z</time>
      </trkpt>
      <trkpt lat="44.29736" lon="6.56909">
        <ele>1847.87</ele>
        <time>2018-08-26T08:56:51Z</time>
      </trkpt>
      <trkpt lat="44.29763" lon="6.56894">
        <ele>1849.98</ele>
        <time>2018-08-26T08:56:53Z</time>
      </trkpt>
      <trkpt lat="44.29786" lon="6.56873">
        <ele>1851.99</ele>
        <time>2018-08-26T08:56:55Z</time>
      </trkpt>
      <trkpt lat="44.2981" lon="6.56849">
        <ele>1854.9</ele>
        <time>2018-08-26T08:56:57Z</time>
      </trkpt>
      <trkpt lat="44.29834" lon="6.56826">
        <ele>1856.98</ele>
        <time>2018-08-26T08:56:59Z</time>
      </trkpt>
      <trkpt lat="44.29862" lon="6.56806">
        <ele>1860.6</ele>
        <time>2018-08-26T08:57:01Z</time>
      </trkpt>
      <trkpt lat="44.29889" lon="6.56791">
        <ele>1863.66</ele>
        <time>2018-08-26T08:57:03Z</time>
      </trkpt>
      <trkpt lat="44.29914" lon="6.56772">
        <ele>1864.35</ele>
        <time>2018-08-26T08:57:05Z</time>
      </trkpt>
      <trkpt lat="44.2993" lon="6.56746">
        <ele>1866.93</ele>
        <time>2018-08-26T08:57:07Z</time>
      </trkpt>
      <trkpt lat="44.29943" lon="6.56724">
        <ele>1868.29</ele>
        <time>2018-08-26T08:57:09Z</time>
      </trkpt>
      <trkpt lat="44.29961" lon="6.56728">
        <ele>1869.33</ele>
        <time>2018-08-26T08:57:12Z</time>
      </trkpt>
      <trkpt lat="44.29956" lon="6.56772">
        <ele>1870.12</ele>
        <time>2018-08-26T08:57:15Z</time>
      </trkpt>
      <trkpt lat="44.29945" lon="6.56819">
        <ele>1873.61</ele>
        <time>2018-08-26T08:57:17Z</time>
      </trkpt>
      <trkpt lat="44.29938" lon="6.56844">
        <ele>1874.18</ele>
        <time>2018-08-26T08:57:18Z</time>
      </trkpt>
      <trkpt lat="44.29928" lon="6.56866">
        <ele>1875.05</ele>
        <time>2018-08-26T08:57:19Z</time>
      </trkpt>
      <trkpt lat="44.29915" lon="6.5689">
        <ele>1876.01</ele>
        <time>2018-08-26T08:57:20Z</time>
      </trkpt>
      <trkpt lat="44.29901" lon="6.56907">
        <ele>1877</ele>
        <time>2018-08-26T08:57:21Z</time>
      </trkpt>
      <trkpt lat="44.29887" lon="6.56925">
        <ele>1878.69</ele>
        <time>2018-08-26T08:57:22Z</time>
      </trkpt>
      <trkpt lat="44.29865" lon="6.56958">
        <ele>1881.88</ele>
        <time>2018-08-26T08:57:24Z</time>
      </trkpt>
      <trkpt lat="44.29849" lon="6.56981">
        <ele>1883.98</ele>
        <time>2018-08-26T08:57:26Z</time>
      </trkpt>
      <trkpt lat="44.29842" lon="6.57014">
        <ele>1885.99</ele>
        <time>2018-08-26T08:57:28Z</time>
      </trkpt>
      <trkpt lat="44.29829" lon="6.57055">
        <ele>1888.48</ele>
        <time>2018-08-26T08:57:30Z</time>
      </trkpt>
      <trkpt lat="44.29817" lon="6.57098">
        <ele>1890.95</ele>
        <time>2018-08-26T08:57:32Z</time>
      </trkpt>
      <trkpt lat="44.29803" lon="6.57135">
        <ele>1893.9</ele>
        <time>2018-08-26T08:57:34Z</time>
      </trkpt>
      <trkpt lat="44.29793" lon="6.57169">
        <ele>1896.89</ele>
        <time>2018-08-26T08:57:36Z</time>
      </trkpt>
      <trkpt lat="44.29785" lon="6.572">
        <ele>1899.89</ele>
        <time>2018-08-26T08:57:38Z</time>
      </trkpt>
      <trkpt lat="44.29778" lon="6.57231">
        <ele>1900.37</ele>
        <time>2018-08-26T08:57:40Z</time>
      </trkpt>
      <trkpt lat="44.29766" lon="6.5725">
        <ele>1902.94</ele>
        <time>2018-08-26T08:57:42Z</time>
      </trkpt>
      <trkpt lat="44.29741" lon="6.57261">
        <ele>1903.41</ele>
        <time>2018-08-26T08:57:45Z</time>
      </trkpt>
      <trkpt lat="44.29759" lon="6.57276">
        <ele>1909.08</ele>
        <time>2018-08-26T08:57:52Z</time>
      </trkpt>
      <trkpt lat="44.29782" lon="6.5727">
        <ele>1910.12</ele>
        <time>2018-08-26T08:57:56Z</time>
      </trkpt>
      <trkpt lat="44.29802" lon="6.57275">
        <ele>1914.4</ele>
        <time>2018-08-26T08:58:03Z</time>
      </trkpt>
      <trkpt lat="44.29786" lon="6.5729">
        <ele>1914.36</ele>
        <time>2018-08-26T08:58:08Z</time>
      </trkpt>
      <trkpt lat="44.29763" lon="6.57296">
        <ele>1915.06</ele>
        <time>2018-08-26T08:58:12Z</time>
      </trkpt>
      <trkpt lat="44.29749" lon="6.57311">
        <ele>1920</ele>
        <time>2018-08-26T08:58:17Z</time>
      </trkpt>
      <trkpt lat="44.29767" lon="6.57316">
        <ele>1919.65</ele>
        <time>2018-08-26T08:58:20Z</time>
      </trkpt>
      <trkpt lat="44.29793" lon="6.57315">
        <ele>1920.34</ele>
        <time>2018-08-26T08:58:23Z</time>
      </trkpt>
      <trkpt lat="44.29818" lon="6.57301">
        <ele>1923.7</ele>
        <time>2018-08-26T08:58:26Z</time>
      </trkpt>
      <trkpt lat="44.29831" lon="6.57279">
        <ele>1925.27</ele>
        <time>2018-08-26T08:58:28Z</time>
      </trkpt>
      <trkpt lat="44.29844" lon="6.57257">
        <ele>1929.97</ele>
        <time>2018-08-26T08:58:32Z</time>
      </trkpt>
      <trkpt lat="44.29831" lon="6.5729">
        <ele>1929.72</ele>
        <time>2018-08-26T08:58:36Z</time>
      </trkpt>
      <trkpt lat="44.29822" lon="6.57318">
        <ele>1931.61</ele>
        <time>2018-08-26T08:58:37Z</time>
      </trkpt>
      <trkpt lat="44.29804" lon="6.57346">
        <ele>1934.17</ele>
        <time>2018-08-26T08:58:39Z</time>
      </trkpt>
      <trkpt lat="44.29788" lon="6.57358">
        <ele>1936.01</ele>
        <time>2018-08-26T08:58:41Z</time>
      </trkpt>
      <trkpt lat="44.29785" lon="6.57388">
        <ele>1937.78</ele>
        <time>2018-08-26T08:58:43Z</time>
      </trkpt>
      <trkpt lat="44.29792" lon="6.5742">
        <ele>1937.24</ele>
        <time>2018-08-26T08:58:45Z</time>
      </trkpt>
      <trkpt lat="44.29808" lon="6.57461">
        <ele>1938.6</ele>
        <time>2018-08-26T08:58:47Z</time>
      </trkpt>
      <trkpt lat="44.29823" lon="6.57502">
        <ele>1941.87</ele>
        <time>2018-08-26T08:58:49Z</time>
      </trkpt>
      <trkpt lat="44.29821" lon="6.57537">
        <ele>1944.19</ele>
        <time>2018-08-26T08:58:51Z</time>
      </trkpt>
      <trkpt lat="44.29815" lon="6.57562">
        <ele>1945.05</ele>
        <time>2018-08-26T08:58:52Z</time>
      </trkpt>
      <trkpt lat="44.29814" lon="6.57589">
        <ele>1946.71</ele>
        <time>2018-08-26T08:58:53Z</time>
      </trkpt>
      <trkpt lat="44.29806" lon="6.57635">
        <ele>1949.67</ele>
        <time>2018-08-26T08:58:55Z</time>
      </trkpt>
      <trkpt lat="44.29798" lon="6.57669">
        <ele>1952.17</ele>
        <time>2018-08-26T08:58:57Z</time>
      </trkpt>
      <trkpt lat="44.29796" lon="6.57696">
        <ele>1953.52</ele>
        <time>2018-08-26T08:58:59Z</time>
      </trkpt>
      <trkpt lat="44.29814" lon="6.5772">
        <ele>1956.09</ele>
        <time>2018-08-26T08:59:03Z</time>
      </trkpt>
      <trkpt lat="44.29823" lon="6.57693">
        <ele>1957.02</ele>
        <time>2018-08-26T08:59:04Z</time>
      </trkpt>
      <trkpt lat="44.29825" lon="6.5765">
        <ele>1958.51</ele>
        <time>2018-08-26T08:59:06Z</time>
      </trkpt>
      <trkpt lat="44.29844" lon="6.57614">
        <ele>1960.74</ele>
        <time>2018-08-26T08:59:08Z</time>
      </trkpt>
      <trkpt lat="44.29854" lon="6.57592">
        <ele>1962.62</ele>
        <time>2018-08-26T08:59:09Z</time>
      </trkpt>
      <trkpt lat="44.29863" lon="6.57569">
        <ele>1963.88</ele>
        <time>2018-08-26T08:59:10Z</time>
      </trkpt>
      <trkpt lat="44.29868" lon="6.57542">
        <ele>1965.66</ele>
        <time>2018-08-26T08:59:11Z</time>
      </trkpt>
      <trkpt lat="44.29875" lon="6.57496">
        <ele>1968.17</ele>
        <time>2018-08-26T08:59:13Z</time>
      </trkpt>
      <trkpt lat="44.29875" lon="6.57456">
        <ele>1971.62</ele>
        <time>2018-08-26T08:59:15Z</time>
      </trkpt>
      <trkpt lat="44.29879" lon="6.57431">
        <ele>1974.66</ele>
        <time>2018-08-26T08:59:17Z</time>
      </trkpt>
      <trkpt lat="44.29884" lon="6.57462">
        <ele>1979.2</ele>
        <time>2018-08-26T08:59:24Z</time>
      </trkpt>
      <trkpt lat="44.29889" lon="6.57502">
        <ele>1981.3</ele>
        <time>2018-08-26T08:59:27Z</time>
      </trkpt>
      <trkpt lat="44.29899" lon="6.57551">
        <ele>1982.32</ele>
        <time>2018-08-26T08:59:29Z</time>
      </trkpt>
      <trkpt lat="44.29902" lon="6.57589">
        <ele>1984.49</ele>
        <time>2018-08-26T08:59:30Z</time>
      </trkpt>
      <trkpt lat="44.29905" lon="6.5762">
        <ele>1987.24</ele>
        <time>2018-08-26T08:59:31Z</time>
      </trkpt>
      <trkpt lat="44.29905" lon="6.57646">
        <ele>1989.47</ele>
        <time>2018-08-26T08:59:32Z</time>
      </trkpt>
      <trkpt lat="44.29906" lon="6.5769">
        <ele>1992.16</ele>
        <time>2018-08-26T08:59:34Z</time>
      </trkpt>
      <trkpt lat="44.2991" lon="6.57723">
        <ele>1994.71</ele>
        <time>2018-08-26T08:59:36Z</time>
      </trkpt>
      <trkpt lat="44.2991" lon="6.57761">
        <ele>1998.58</ele>
        <time>2018-08-26T08:59:38Z</time>
      </trkpt>
      <trkpt lat="44.29914" lon="6.57805">
        <ele>2000.96</ele>
        <time>2018-08-26T08:59:40Z</time>
      </trkpt>
      <trkpt lat="44.29916" lon="6.57837">
        <ele>2003.08</ele>
        <time>2018-08-26T08:59:43Z</time>
      </trkpt>
      <trkpt lat="44.29922" lon="6.5787">
        <ele>2005.99</ele>
        <time>2018-08-26T08:59:46Z</time>
      </trkpt>
      <trkpt lat="44.29926" lon="6.57907">
        <ele>2007.99</ele>
        <time>2018-08-26T08:59:48Z</time>
      </trkpt>
      <trkpt lat="44.29927" lon="6.57943">
        <ele>2009.99</ele>
        <time>2018-08-26T08:59:50Z</time>
      </trkpt>
      <trkpt lat="44.29925" lon="6.57973">
        <ele>2011.99</ele>
        <time>2018-08-26T08:59:52Z</time>
      </trkpt>
      <trkpt lat="44.2994" lon="6.57992">
        <ele>2014.3</ele>
        <time>2018-08-26T08:59:56Z</time>
      </trkpt>
      <trkpt lat="44.29941" lon="6.57957">
        <ele>2015.11</ele>
        <time>2018-08-26T08:59:58Z</time>
      </trkpt>
      <trkpt lat="44.29936" lon="6.57923">
        <ele>2017</ele>
        <time>2018-08-26T09:00:00Z</time>
      </trkpt>
      <trkpt lat="44.29942" lon="6.57889">
        <ele>2018.99</ele>
        <time>2018-08-26T09:00:02Z</time>
      </trkpt>
      <trkpt lat="44.29948" lon="6.5785">
        <ele>2020.99</ele>
        <time>2018-08-26T09:00:04Z</time>
      </trkpt>
      <trkpt lat="44.29958" lon="6.57809">
        <ele>2023.9</ele>
        <time>2018-08-26T09:00:06Z</time>
      </trkpt>
      <trkpt lat="44.29966" lon="6.57768">
        <ele>2025.98</ele>
        <time>2018-08-26T09:00:08Z</time>
      </trkpt>
      <trkpt lat="44.29977" lon="6.57732">
        <ele>2028.2</ele>
        <time>2018-08-26T09:00:10Z</time>
      </trkpt>
      <trkpt lat="44.29985" lon="6.5769">
        <ele>2028.4</ele>
        <time>2018-08-26T09:00:12Z</time>
      </trkpt>
      <trkpt lat="44.29991" lon="6.57646">
        <ele>2030.94</ele>
        <time>2018-08-26T09:00:14Z</time>
      </trkpt>
      <trkpt lat="44.3" lon="6.57614">
        <ele>2032.29</ele>
        <time>2018-08-26T09:00:16Z</time>
      </trkpt>
      <trkpt lat="44.30015" lon="6.57582">
        <ele>2034.02</ele>
        <time>2018-08-26T09:00:18Z</time>
      </trkpt>
      <trkpt lat="44.30027" lon="6.57561">
        <ele>2035.99</ele>
        <time>2018-08-26T09:00:20Z</time>
      </trkpt>
      <trkpt lat="44.3003" lon="6.57588">
        <ele>2040.97</ele>
        <time>2018-08-26T09:00:25Z</time>
      </trkpt>
      <trkpt lat="44.30018" lon="6.57612">
        <ele>2042.99</ele>
        <time>2018-08-26T09:00:27Z</time>
      </trkpt>
      <trkpt lat="44.30012" lon="6.57641">
        <ele>2044.99</ele>
        <time>2018-08-26T09:00:29Z</time>
      </trkpt>
      <trkpt lat="44.30016" lon="6.57692">
        <ele>2047.48</ele>
        <time>2018-08-26T09:00:31Z</time>
      </trkpt>
      <trkpt lat="44.30018" lon="6.57721">
        <ele>2048.84</ele>
        <time>2018-08-26T09:00:32Z</time>
      </trkpt>
      <trkpt lat="44.30021" lon="6.57752">
        <ele>2049.95</ele>
        <time>2018-08-26T09:00:33Z</time>
      </trkpt>
      <trkpt lat="44.30024" lon="6.57785">
        <ele>2051.68</ele>
        <time>2018-08-26T09:00:34Z</time>
      </trkpt>
      <trkpt lat="44.30027" lon="6.57818">
        <ele>2052.9</ele>
        <time>2018-08-26T09:00:35Z</time>
      </trkpt>
      <trkpt lat="44.3003" lon="6.57849">
        <ele>2055.36</ele>
        <time>2018-08-26T09:00:36Z</time>
      </trkpt>
      <trkpt lat="44.30032" lon="6.57877">
        <ele>2057.5</ele>
        <time>2018-08-26T09:00:37Z</time>
      </trkpt>
      <trkpt lat="44.30034" lon="6.57904">
        <ele>2058.85</ele>
        <time>2018-08-26T09:00:38Z</time>
      </trkpt>
      <trkpt lat="44.30042" lon="6.5795">
        <ele>2060.98</ele>
        <time>2018-08-26T09:00:40Z</time>
      </trkpt>
      <trkpt lat="44.30054" lon="6.57991">
        <ele>2063.9</ele>
        <time>2018-08-26T09:00:42Z</time>
      </trkpt>
      <trkpt lat="44.30074" lon="6.58024">
        <ele>2065.98</ele>
        <time>2018-08-26T09:00:44Z</time>
      </trkpt>
      <trkpt lat="44.30098" lon="6.58058">
        <ele>2067.99</ele>
        <time>2018-08-26T09:00:46Z</time>
      </trkpt>
      <trkpt lat="44.30112" lon="6.58074">
        <ele>2069.69</ele>
        <time>2018-08-26T09:00:47Z</time>
      </trkpt>
      <trkpt lat="44.30128" lon="6.58089">
        <ele>2070.9</ele>
        <time>2018-08-26T09:00:48Z</time>
      </trkpt>
      <trkpt lat="44.3016" lon="6.58109">
        <ele>2074.59</ele>
        <time>2018-08-26T09:00:50Z</time>
      </trkpt>
      <trkpt lat="44.30187" lon="6.58133">
        <ele>2076.05</ele>
        <time>2018-08-26T09:00:52Z</time>
      </trkpt>
      <trkpt lat="44.30213" lon="6.58156">
        <ele>2076.39</ele>
        <time>2018-08-26T09:00:54Z</time>
      </trkpt>
      <trkpt lat="44.30234" lon="6.58162">
        <ele>2077.81</ele>
        <time>2018-08-26T09:00:55Z</time>
      </trkpt>
      <trkpt lat="44.30263" lon="6.5817">
        <ele>2079.98</ele>
        <time>2018-08-26T09:00:57Z</time>
      </trkpt>
      <trkpt lat="44.3028" lon="6.58185">
        <ele>2080.38</ele>
        <time>2018-08-26T09:00:59Z</time>
      </trkpt>
      <trkpt lat="44.30276" lon="6.5821">
        <ele>2083.64</ele>
        <time>2018-08-26T09:01:01Z</time>
      </trkpt>
      <trkpt lat="44.30256" lon="6.58218">
        <ele>2083.65</ele>
        <time>2018-08-26T09:01:03Z</time>
      </trkpt>
      <trkpt lat="44.30232" lon="6.58223">
        <ele>2084.56</ele>
        <time>2018-08-26T09:01:05Z</time>
      </trkpt>
      <trkpt lat="44.30209" lon="6.5825">
        <ele>2086.74</ele>
        <time>2018-08-26T09:01:07Z</time>
      </trkpt>
      <trkpt lat="44.30192" lon="6.58275">
        <ele>2089.18</ele>
        <time>2018-08-26T09:01:09Z</time>
      </trkpt>
      <trkpt lat="44.30177" lon="6.58303">
        <ele>2092.27</ele>
        <time>2018-08-26T09:01:12Z</time>
      </trkpt>
      <trkpt lat="44.30157" lon="6.58306">
        <ele>2094.02</ele>
        <time>2018-08-26T09:01:14Z</time>
      </trkpt>
      <trkpt lat="44.30141" lon="6.58326">
        <ele>2096.69</ele>
        <time>2018-08-26T09:01:16Z</time>
      </trkpt>
      <trkpt lat="44.30121" lon="6.58352">
        <ele>2098.97</ele>
        <time>2018-08-26T09:01:18Z</time>
      </trkpt>
      <trkpt lat="44.301" lon="6.58378">
        <ele>2101.9</ele>
        <time>2018-08-26T09:01:20Z</time>
      </trkpt>
      <trkpt lat="44.30085" lon="6.58409">
        <ele>2104.89</ele>
        <time>2018-08-26T09:01:22Z</time>
      </trkpt>
      <trkpt lat="44.3008" lon="6.58436">
        <ele>2106.77</ele>
        <time>2018-08-26T09:01:24Z</time>
      </trkpt>
      <trkpt lat="44.30083" lon="6.58471">
        <ele>2108.06</ele>
        <time>2018-08-26T09:01:26Z</time>
      </trkpt>
      <trkpt lat="44.30091" lon="6.58505">
        <ele>2109.51</ele>
        <time>2018-08-26T09:01:28Z</time>
      </trkpt>
      <trkpt lat="44.30087" lon="6.58536">
        <ele>2110.83</ele>
        <time>2018-08-26T09:01:30Z</time>
      </trkpt>
      <trkpt lat="44.30071" lon="6.58555">
        <ele>2112.98</ele>
        <time>2018-08-26T09:01:32Z</time>
      </trkpt>
      <trkpt lat="44.30054" lon="6.58574">
        <ele>2114.08</ele>
        <time>2018-08-26T09:01:34Z</time>
      </trkpt>
      <trkpt lat="44.30053" lon="6.58606">
        <ele>2115.09</ele>
        <time>2018-08-26T09:01:36Z</time>
      </trkpt>
      <trkpt lat="44.30035" lon="6.58621">
        <ele>2117.7</ele>
        <time>2018-08-26T09:01:38Z</time>
      </trkpt>
      <trkpt lat="44.30017" lon="6.58645">
        <ele>2120.67</ele>
        <time>2018-08-26T09:01:40Z</time>
      </trkpt>
      <trkpt lat="44.30004" lon="6.58677">
        <ele>2124.57</ele>
        <time>2018-08-26T09:01:42Z</time>
      </trkpt>
      <trkpt lat="44.29983" lon="6.58701">
        <ele>2127.65</ele>
        <time>2018-08-26T09:01:44Z</time>
      </trkpt>
      <trkpt lat="44.29958" lon="6.58724">
        <ele>2129.05</ele>
        <time>2018-08-26T09:01:46Z</time>
      </trkpt>
      <trkpt lat="44.29936" lon="6.58746">
        <ele>2131</ele>
        <time>2018-08-26T09:01:48Z</time>
      </trkpt>
      <trkpt lat="44.29918" lon="6.5875">
        <ele>2130.47</ele>
        <time>2018-08-26T09:01:50Z</time>
      </trkpt>
      <trkpt lat="44.29906" lon="6.58769">
        <ele>2129.41</ele>
        <time>2018-08-26T09:01:54Z</time>
      </trkpt>
      <trkpt lat="44.29928" lon="6.58756">
        <ele>2130.82</ele>
        <time>2018-08-26T09:01:57Z</time>
      </trkpt>
      <trkpt lat="44.2995" lon="6.58744">
        <ele>2132.98</ele>
        <time>2018-08-26T09:01:59Z</time>
      </trkpt>
      <trkpt lat="44.29979" lon="6.58728">
        <ele>2134.99</ele>
        <time>2018-08-26T09:02:01Z</time>
      </trkpt>
      <trkpt lat="44.30008" lon="6.58709">
        <ele>2137.9</ele>
        <time>2018-08-26T09:02:03Z</time>
      </trkpt>
      <trkpt lat="44.30037" lon="6.58688">
        <ele>2140.89</ele>
        <time>2018-08-26T09:02:05Z</time>
      </trkpt>
      <trkpt lat="44.30065" lon="6.58671">
        <ele>2143.89</ele>
        <time>2018-08-26T09:02:07Z</time>
      </trkpt>
      <trkpt lat="44.30095" lon="6.58663">
        <ele>2145.98</ele>
        <time>2018-08-26T09:02:09Z</time>
      </trkpt>
      <trkpt lat="44.30125" lon="6.58653">
        <ele>2147.29</ele>
        <time>2018-08-26T09:02:11Z</time>
      </trkpt>
      <trkpt lat="44.30152" lon="6.58644">
        <ele>2148.11</ele>
        <time>2018-08-26T09:02:13Z</time>
      </trkpt>
      <trkpt lat="44.30168" lon="6.58623">
        <ele>2151.4</ele>
        <time>2018-08-26T09:02:15Z</time>
      </trkpt>
      <trkpt lat="44.30189" lon="6.58603">
        <ele>2154.98</ele>
        <time>2018-08-26T09:02:18Z</time>
      </trkpt>
      <trkpt lat="44.30197" lon="6.58569">
        <ele>2157.99</ele>
        <time>2018-08-26T09:02:21Z</time>
      </trkpt>
      <trkpt lat="44.30204" lon="6.58544">
        <ele>2159.99</ele>
        <time>2018-08-26T09:02:23Z</time>
      </trkpt>
      <trkpt lat="44.30214" lon="6.58518">
        <ele>2161.99</ele>
        <time>2018-08-26T09:02:25Z</time>
      </trkpt>
      <trkpt lat="44.30221" lon="6.58494">
        <ele>2163.99</ele>
        <time>2018-08-26T09:02:27Z</time>
      </trkpt>
      <trkpt lat="44.30234" lon="6.58469">
        <ele>2165.11</ele>
        <time>2018-08-26T09:02:30Z</time>
      </trkpt>
      <trkpt lat="44.30243" lon="6.58493">
        <ele>2166.12</ele>
        <time>2018-08-26T09:02:34Z</time>
      </trkpt>
      <trkpt lat="44.30231" lon="6.58517">
        <ele>2168.91</ele>
        <time>2018-08-26T09:02:36Z</time>
      </trkpt>
      <trkpt lat="44.30221" lon="6.58547">
        <ele>2171.69</ele>
        <time>2018-08-26T09:02:38Z</time>
      </trkpt>
      <trkpt lat="44.30221" lon="6.58585">
        <ele>2173.26</ele>
        <time>2018-08-26T09:02:40Z</time>
      </trkpt>
      <trkpt lat="44.30217" lon="6.58619">
        <ele>2174.32</ele>
        <time>2018-08-26T09:02:42Z</time>
      </trkpt>
      <trkpt lat="44.30205" lon="6.58641">
        <ele>2176.02</ele>
        <time>2018-08-26T09:02:44Z</time>
      </trkpt>
      <trkpt lat="44.30193" lon="6.58665">
        <ele>2177.3</ele>
        <time>2018-08-26T09:02:46Z</time>
      </trkpt>
      <trkpt lat="44.30178" lon="6.58689">
        <ele>2178.32</ele>
        <time>2018-08-26T09:02:48Z</time>
      </trkpt>
      <trkpt lat="44.30157" lon="6.58708">
        <ele>2180.02</ele>
        <time>2018-08-26T09:02:50Z</time>
      </trkpt>
      <trkpt lat="44.30138" lon="6.58721">
        <ele>2181.08</ele>
        <time>2018-08-26T09:02:52Z</time>
      </trkpt>
      <trkpt lat="44.30122" lon="6.58734">
        <ele>2183</ele>
        <time>2018-08-26T09:02:54Z</time>
      </trkpt>
      <trkpt lat="44.30104" lon="6.58741">
        <ele>2183.38</ele>
        <time>2018-08-26T09:02:56Z</time>
      </trkpt>
      <trkpt lat="44.30081" lon="6.58748">
        <ele>2185.09</ele>
        <time>2018-08-26T09:02:59Z</time>
      </trkpt>
      <trkpt lat="44.30066" lon="6.58769">
        <ele>2188.05</ele>
        <time>2018-08-26T09:03:08Z</time>
      </trkpt>
      <trkpt lat="44.30052" lon="6.58805">
        <ele>2190.02</ele>
        <time>2018-08-26T09:03:11Z</time>
      </trkpt>
      <trkpt lat="44.30038" lon="6.58826">
        <ele>2191.78</ele>
        <time>2018-08-26T09:03:13Z</time>
      </trkpt>
      <trkpt lat="44.30018" lon="6.58835">
        <ele>2193.06</ele>
        <time>2018-08-26T09:03:15Z</time>
      </trkpt>
      <trkpt lat="44.30001" lon="6.5886">
        <ele>2195.99</ele>
        <time>2018-08-26T09:03:18Z</time>
      </trkpt>
      <trkpt lat="44.29983" lon="6.5888">
        <ele>2197.99</ele>
        <time>2018-08-26T09:03:20Z</time>
      </trkpt>
      <trkpt lat="44.29956" lon="6.58894">
        <ele>2199.99</ele>
        <time>2018-08-26T09:03:22Z</time>
      </trkpt>
      <trkpt lat="44.29929" lon="6.58911">
        <ele>2202.69</ele>
        <time>2018-08-26T09:03:24Z</time>
      </trkpt>
      <trkpt lat="44.29906" lon="6.5893">
        <ele>2204.97</ele>
        <time>2018-08-26T09:03:26Z</time>
      </trkpt>
      <trkpt lat="44.29889" lon="6.58948">
        <ele>2206.99</ele>
        <time>2018-08-26T09:03:28Z</time>
      </trkpt>
      <trkpt lat="44.29876" lon="6.58966">
        <ele>2209.3</ele>
        <time>2018-08-26T09:03:32Z</time>
      </trkpt>
      <trkpt lat="44.29873" lon="6.58997">
        <ele>2211.52</ele>
        <time>2018-08-26T09:04:05Z</time>
      </trkpt>
      <trkpt lat="44.29872" lon="6.59027">
        <ele>2213.95</ele>
        <time>2018-08-26T09:04:07Z</time>
      </trkpt>
      <trkpt lat="44.29862" lon="6.5906">
        <ele>2215.08</ele>
        <time>2018-08-26T09:04:09Z</time>
      </trkpt>
      <trkpt lat="44.29839" lon="6.5909">
        <ele>2217.7</ele>
        <time>2018-08-26T09:04:11Z</time>
      </trkpt>
      <trkpt lat="44.29817" lon="6.59117">
        <ele>2219.97</ele>
        <time>2018-08-26T09:04:13Z</time>
      </trkpt>
      <trkpt lat="44.29804" lon="6.59141">
        <ele>2221.78</ele>
        <time>2018-08-26T09:04:15Z</time>
      </trkpt>
      <trkpt lat="44.29812" lon="6.59174">
        <ele>2224.08</ele>
        <time>2018-08-26T09:04:18Z</time>
      </trkpt>
      <trkpt lat="44.29831" lon="6.59189">
        <ele>2226</ele>
        <time>2018-08-26T09:04:20Z</time>
      </trkpt>
      <trkpt lat="44.2985" lon="6.59211">
        <ele>2227.08</ele>
        <time>2018-08-26T09:04:22Z</time>
      </trkpt>
      <trkpt lat="44.29855" lon="6.59241">
        <ele>2229</ele>
        <time>2018-08-26T09:04:24Z</time>
      </trkpt>
      <trkpt lat="44.29845" lon="6.59268">
        <ele>2231.9</ele>
        <time>2018-08-26T09:04:26Z</time>
      </trkpt>
      <trkpt lat="44.29824" lon="6.59292">
        <ele>2232.37</ele>
        <time>2018-08-26T09:04:28Z</time>
      </trkpt>
      <trkpt lat="44.29799" lon="6.59318">
        <ele>2233.33</ele>
        <time>2018-08-26T09:04:30Z</time>
      </trkpt>
      <trkpt lat="44.29771" lon="6.59335">
        <ele>2234.32</ele>
        <time>2018-08-26T09:04:32Z</time>
      </trkpt>
      <trkpt lat="44.29747" lon="6.59346">
        <ele>2234.41</ele>
        <time>2018-08-26T09:04:34Z</time>
      </trkpt>
      <trkpt lat="44.29725" lon="6.59363">
        <ele>2236.03</ele>
        <time>2018-08-26T09:04:37Z</time>
      </trkpt>
      <trkpt lat="44.29725" lon="6.59394">
        <ele>2237.39</ele>
        <time>2018-08-26T09:04:41Z</time>
      </trkpt>
      <trkpt lat="44.2973" lon="6.59419">
        <ele>2235.75</ele>
        <time>2018-08-26T09:04:47Z</time>
      </trkpt>
      <trkpt lat="44.29719" lon="6.5944">
        <ele>2230.75</ele>
        <time>2018-08-26T09:22:32Z</time>
      </trkpt>
      <trkpt lat="44.29696" lon="6.5945">
        <ele>2228.54</ele>
        <time>2018-08-26T09:22:36Z</time>
      </trkpt>
      <trkpt lat="44.29677" lon="6.59463">
        <ele>2226.46</ele>
        <time>2018-08-26T09:22:40Z</time>
      </trkpt>
      <trkpt lat="44.29669" lon="6.59487">
        <ele>2225.45</ele>
        <time>2018-08-26T09:22:44Z</time>
      </trkpt>
      <trkpt lat="44.29679" lon="6.59513">
        <ele>2223.81</ele>
        <time>2018-08-26T09:22:47Z</time>
      </trkpt>
      <trkpt lat="44.29693" lon="6.59531">
        <ele>2223.46</ele>
        <time>2018-08-26T09:22:49Z</time>
      </trkpt>
      <trkpt lat="44.29709" lon="6.59546">
        <ele>2222.51</ele>
        <time>2018-08-26T09:22:51Z</time>
      </trkpt>
      <trkpt lat="44.29725" lon="6.59562">
        <ele>2220.12</ele>
        <time>2018-08-26T09:22:53Z</time>
      </trkpt>
      <trkpt lat="44.2974" lon="6.59576">
        <ele>2218.78</ele>
        <time>2018-08-26T09:22:55Z</time>
      </trkpt>
      <trkpt lat="44.29756" lon="6.59591">
        <ele>2217.05</ele>
        <time>2018-08-26T09:22:57Z</time>
      </trkpt>
      <trkpt lat="44.29773" lon="6.59607">
        <ele>2216.48</ele>
        <time>2018-08-26T09:22:59Z</time>
      </trkpt>
      <trkpt lat="44.29794" lon="6.59621">
        <ele>2215.73</ele>
        <time>2018-08-26T09:23:01Z</time>
      </trkpt>
      <trkpt lat="44.29817" lon="6.59629">
        <ele>2213.84</ele>
        <time>2018-08-26T09:23:03Z</time>
      </trkpt>
      <trkpt lat="44.29837" lon="6.59634">
        <ele>2211.64</ele>
        <time>2018-08-26T09:23:05Z</time>
      </trkpt>
      <trkpt lat="44.29859" lon="6.59631">
        <ele>2208.92</ele>
        <time>2018-08-26T09:23:07Z</time>
      </trkpt>
      <trkpt lat="44.29884" lon="6.59625">
        <ele>2206.86</ele>
        <time>2018-08-26T09:23:09Z</time>
      </trkpt>
      <trkpt lat="44.29906" lon="6.59615">
        <ele>2204.15</ele>
        <time>2018-08-26T09:23:11Z</time>
      </trkpt>
      <trkpt lat="44.29931" lon="6.596">
        <ele>2202.58</ele>
        <time>2018-08-26T09:23:13Z</time>
      </trkpt>
      <trkpt lat="44.29958" lon="6.59591">
        <ele>2202.23</ele>
        <time>2018-08-26T09:23:15Z</time>
      </trkpt>
      <trkpt lat="44.2998" lon="6.59577">
        <ele>2200.37</ele>
        <time>2018-08-26T09:23:17Z</time>
      </trkpt>
      <trkpt lat="44.30006" lon="6.59583">
        <ele>2200.42</ele>
        <time>2018-08-26T09:23:19Z</time>
      </trkpt>
      <trkpt lat="44.30036" lon="6.5959">
        <ele>2199.51</ele>
        <time>2018-08-26T09:23:21Z</time>
      </trkpt>
      <trkpt lat="44.30064" lon="6.59606">
        <ele>2196.91</ele>
        <time>2018-08-26T09:23:23Z</time>
      </trkpt>
      <trkpt lat="44.30093" lon="6.59626">
        <ele>2194.85</ele>
        <time>2018-08-26T09:23:25Z</time>
      </trkpt>
      <trkpt lat="44.30124" lon="6.59648">
        <ele>2194.46</ele>
        <time>2018-08-26T09:23:27Z</time>
      </trkpt>
      <trkpt lat="44.30148" lon="6.59662">
        <ele>2191.9</ele>
        <time>2018-08-26T09:23:29Z</time>
      </trkpt>
      <trkpt lat="44.30172" lon="6.59668">
        <ele>2189.36</ele>
        <time>2018-08-26T09:23:31Z</time>
      </trkpt>
      <trkpt lat="44.30201" lon="6.59665">
        <ele>2185.99</ele>
        <time>2018-08-26T09:23:33Z</time>
      </trkpt>
      <trkpt lat="44.30233" lon="6.59656">
        <ele>2183.86</ele>
        <time>2018-08-26T09:23:35Z</time>
      </trkpt>
      <trkpt lat="44.30266" lon="6.59638">
        <ele>2180.94</ele>
        <time>2018-08-26T09:23:37Z</time>
      </trkpt>
      <trkpt lat="44.30284" lon="6.59627">
        <ele>2179.88</ele>
        <time>2018-08-26T09:23:38Z</time>
      </trkpt>
      <trkpt lat="44.30302" lon="6.59614">
        <ele>2178.16</ele>
        <time>2018-08-26T09:23:39Z</time>
      </trkpt>
      <trkpt lat="44.30318" lon="6.59602">
        <ele>2176.94</ele>
        <time>2018-08-26T09:23:40Z</time>
      </trkpt>
      <trkpt lat="44.30346" lon="6.59578">
        <ele>2174.16</ele>
        <time>2018-08-26T09:23:42Z</time>
      </trkpt>
      <trkpt lat="44.3037" lon="6.59549">
        <ele>2171.88</ele>
        <time>2018-08-26T09:23:44Z</time>
      </trkpt>
      <trkpt lat="44.30391" lon="6.59527">
        <ele>2169.85</ele>
        <time>2018-08-26T09:23:46Z</time>
      </trkpt>
      <trkpt lat="44.30414" lon="6.59524">
        <ele>2168.76</ele>
        <time>2018-08-26T09:23:48Z</time>
      </trkpt>
      <trkpt lat="44.30435" lon="6.59515">
        <ele>2167.05</ele>
        <time>2018-08-26T09:23:50Z</time>
      </trkpt>
      <trkpt lat="44.3046" lon="6.59507">
        <ele>2164.87</ele>
        <time>2018-08-26T09:23:52Z</time>
      </trkpt>
      <trkpt lat="44.30486" lon="6.59511">
        <ele>2161.94</ele>
        <time>2018-08-26T09:23:54Z</time>
      </trkpt>
      <trkpt lat="44.30507" lon="6.59507">
        <ele>2160.07</ele>
        <time>2018-08-26T09:23:56Z</time>
      </trkpt>
      <trkpt lat="44.30526" lon="6.59499">
        <ele>2159.48</ele>
        <time>2018-08-26T09:23:58Z</time>
      </trkpt>
      <trkpt lat="44.30543" lon="6.5947">
        <ele>2158.03</ele>
        <time>2018-08-26T09:24:00Z</time>
      </trkpt>
      <trkpt lat="44.30564" lon="6.59449">
        <ele>2156.78</ele>
        <time>2018-08-26T09:24:02Z</time>
      </trkpt>
      <trkpt lat="44.30591" lon="6.59442">
        <ele>2153.93</ele>
        <time>2018-08-26T09:24:04Z</time>
      </trkpt>
      <trkpt lat="44.30618" lon="6.5945">
        <ele>2150.25</ele>
        <time>2018-08-26T09:24:06Z</time>
      </trkpt>
      <trkpt lat="44.30646" lon="6.59469">
        <ele>2148.8</ele>
        <time>2018-08-26T09:24:08Z</time>
      </trkpt>
      <trkpt lat="44.3067" lon="6.59494">
        <ele>2146.84</ele>
        <time>2018-08-26T09:24:10Z</time>
      </trkpt>
      <trkpt lat="44.30689" lon="6.59527">
        <ele>2143.24</ele>
        <time>2018-08-26T09:24:12Z</time>
      </trkpt>
      <trkpt lat="44.30702" lon="6.59562">
        <ele>2141.58</ele>
        <time>2018-08-26T09:24:14Z</time>
      </trkpt>
      <trkpt lat="44.30723" lon="6.59588">
        <ele>2140.04</ele>
        <time>2018-08-26T09:24:16Z</time>
      </trkpt>
      <trkpt lat="44.3075" lon="6.59606">
        <ele>2137.66</ele>
        <time>2018-08-26T09:24:18Z</time>
      </trkpt>
      <trkpt lat="44.30779" lon="6.5962">
        <ele>2135.83</ele>
        <time>2018-08-26T09:24:20Z</time>
      </trkpt>
      <trkpt lat="44.30807" lon="6.59632">
        <ele>2133.15</ele>
        <time>2018-08-26T09:24:22Z</time>
      </trkpt>
      <trkpt lat="44.30835" lon="6.59636">
        <ele>2129.97</ele>
        <time>2018-08-26T09:24:24Z</time>
      </trkpt>
      <trkpt lat="44.30859" lon="6.5965">
        <ele>2126.95</ele>
        <time>2018-08-26T09:24:26Z</time>
      </trkpt>
      <trkpt lat="44.30881" lon="6.59677">
        <ele>2124.65</ele>
        <time>2018-08-26T09:24:28Z</time>
      </trkpt>
      <trkpt lat="44.30905" lon="6.59698">
        <ele>2123.74</ele>
        <time>2018-08-26T09:24:30Z</time>
      </trkpt>
      <trkpt lat="44.30932" lon="6.5971">
        <ele>2121.84</ele>
        <time>2018-08-26T09:24:32Z</time>
      </trkpt>
      <trkpt lat="44.3096" lon="6.59725">
        <ele>2119.15</ele>
        <time>2018-08-26T09:24:34Z</time>
      </trkpt>
      <trkpt lat="44.30984" lon="6.59745">
        <ele>2117.79</ele>
        <time>2018-08-26T09:24:36Z</time>
      </trkpt>
      <trkpt lat="44.31012" lon="6.59756">
        <ele>2116.54</ele>
        <time>2018-08-26T09:24:38Z</time>
      </trkpt>
      <trkpt lat="44.31039" lon="6.59757">
        <ele>2115.03</ele>
        <time>2018-08-26T09:24:40Z</time>
      </trkpt>
      <trkpt lat="44.3106" lon="6.5975">
        <ele>2113.78</ele>
        <time>2018-08-26T09:24:42Z</time>
      </trkpt>
      <trkpt lat="44.31068" lon="6.59727">
        <ele>2113.45</ele>
        <time>2018-08-26T09:24:44Z</time>
      </trkpt>
      <trkpt lat="44.31064" lon="6.59698">
        <ele>2113.42</ele>
        <time>2018-08-26T09:24:46Z</time>
      </trkpt>
      <trkpt lat="44.31057" lon="6.59665">
        <ele>2110.9</ele>
        <time>2018-08-26T09:24:48Z</time>
      </trkpt>
      <trkpt lat="44.31046" lon="6.59625">
        <ele>2107.73</ele>
        <time>2018-08-26T09:24:50Z</time>
      </trkpt>
      <trkpt lat="44.31033" lon="6.5958">
        <ele>2104.23</ele>
        <time>2018-08-26T09:24:52Z</time>
      </trkpt>
      <trkpt lat="44.31022" lon="6.59535">
        <ele>2101.88</ele>
        <time>2018-08-26T09:24:54Z</time>
      </trkpt>
      <trkpt lat="44.31013" lon="6.59491">
        <ele>2098.03</ele>
        <time>2018-08-26T09:24:56Z</time>
      </trkpt>
      <trkpt lat="44.31011" lon="6.59442">
        <ele>2094.05</ele>
        <time>2018-08-26T09:24:58Z</time>
      </trkpt>
      <trkpt lat="44.31014" lon="6.59416">
        <ele>2093.61</ele>
        <time>2018-08-26T09:24:59Z</time>
      </trkpt>
      <trkpt lat="44.31017" lon="6.59391">
        <ele>2092.08</ele>
        <time>2018-08-26T09:25:00Z</time>
      </trkpt>
      <trkpt lat="44.3102" lon="6.59364">
        <ele>2090.22</ele>
        <time>2018-08-26T09:25:01Z</time>
      </trkpt>
      <trkpt lat="44.31022" lon="6.59338">
        <ele>2088.26</ele>
        <time>2018-08-26T09:25:02Z</time>
      </trkpt>
      <trkpt lat="44.31025" lon="6.59294">
        <ele>2084.28</ele>
        <time>2018-08-26T09:25:04Z</time>
      </trkpt>
      <trkpt lat="44.31036" lon="6.59264">
        <ele>2081.89</ele>
        <time>2018-08-26T09:25:06Z</time>
      </trkpt>
      <trkpt lat="44.31055" lon="6.59241">
        <ele>2080.55</ele>
        <time>2018-08-26T09:25:08Z</time>
      </trkpt>
      <trkpt lat="44.31089" lon="6.59238">
        <ele>2079.03</ele>
        <time>2018-08-26T09:25:10Z</time>
      </trkpt>
      <trkpt lat="44.31123" lon="6.59235">
        <ele>2076.17</ele>
        <time>2018-08-26T09:25:12Z</time>
      </trkpt>
      <trkpt lat="44.31156" lon="6.59247">
        <ele>2073.88</ele>
        <time>2018-08-26T09:25:14Z</time>
      </trkpt>
      <trkpt lat="44.31189" lon="6.59268">
        <ele>2070.94</ele>
        <time>2018-08-26T09:25:16Z</time>
      </trkpt>
      <trkpt lat="44.31206" lon="6.59276">
        <ele>2069.88</ele>
        <time>2018-08-26T09:25:17Z</time>
      </trkpt>
      <trkpt lat="44.31239" lon="6.59291">
        <ele>2067.85</ele>
        <time>2018-08-26T09:25:19Z</time>
      </trkpt>
      <trkpt lat="44.31267" lon="6.5931">
        <ele>2066.76</ele>
        <time>2018-08-26T09:25:21Z</time>
      </trkpt>
      <trkpt lat="44.31296" lon="6.59322">
        <ele>2063.44</ele>
        <time>2018-08-26T09:25:23Z</time>
      </trkpt>
      <trkpt lat="44.31329" lon="6.59329">
        <ele>2060.2</ele>
        <time>2018-08-26T09:25:25Z</time>
      </trkpt>
      <trkpt lat="44.31358" lon="6.5933">
        <ele>2057.18</ele>
        <time>2018-08-26T09:25:27Z</time>
      </trkpt>
      <trkpt lat="44.31386" lon="6.59318">
        <ele>2053.97</ele>
        <time>2018-08-26T09:25:29Z</time>
      </trkpt>
      <trkpt lat="44.31416" lon="6.59295">
        <ele>2051.16</ele>
        <time>2018-08-26T09:25:31Z</time>
      </trkpt>
      <trkpt lat="44.31447" lon="6.59271">
        <ele>2048.88</ele>
        <time>2018-08-26T09:25:33Z</time>
      </trkpt>
      <trkpt lat="44.31476" lon="6.59252">
        <ele>2047.76</ele>
        <time>2018-08-26T09:25:35Z</time>
      </trkpt>
      <trkpt lat="44.31501" lon="6.59244">
        <ele>2045.84</ele>
        <time>2018-08-26T09:25:37Z</time>
      </trkpt>
      <trkpt lat="44.31523" lon="6.59247">
        <ele>2043.85</ele>
        <time>2018-08-26T09:25:39Z</time>
      </trkpt>
      <trkpt lat="44.3155" lon="6.59252">
        <ele>2041.85</ele>
        <time>2018-08-26T09:25:41Z</time>
      </trkpt>
      <trkpt lat="44.3158" lon="6.59257">
        <ele>2039.85</ele>
        <time>2018-08-26T09:25:43Z</time>
      </trkpt>
      <trkpt lat="44.31614" lon="6.59257">
        <ele>2036.94</ele>
        <time>2018-08-26T09:25:45Z</time>
      </trkpt>
      <trkpt lat="44.31647" lon="6.59263">
        <ele>2034.86</ele>
        <time>2018-08-26T09:25:47Z</time>
      </trkpt>
      <trkpt lat="44.31677" lon="6.59262">
        <ele>2032.85</ele>
        <time>2018-08-26T09:25:49Z</time>
      </trkpt>
      <trkpt lat="44.31701" lon="6.59268">
        <ele>2029.94</ele>
        <time>2018-08-26T09:25:51Z</time>
      </trkpt>
      <trkpt lat="44.31716" lon="6.59287">
        <ele>2027.86</ele>
        <time>2018-08-26T09:25:53Z</time>
      </trkpt>
      <trkpt lat="44.31731" lon="6.59308">
        <ele>2025.64</ele>
        <time>2018-08-26T09:25:55Z</time>
      </trkpt>
      <trkpt lat="44.31753" lon="6.59313">
        <ele>2023.83</ele>
        <time>2018-08-26T09:25:57Z</time>
      </trkpt>
      <trkpt lat="44.31777" lon="6.59314">
        <ele>2020.94</ele>
        <time>2018-08-26T09:25:59Z</time>
      </trkpt>
      <trkpt lat="44.31799" lon="6.59327">
        <ele>2018.86</ele>
        <time>2018-08-26T09:26:01Z</time>
      </trkpt>
      <trkpt lat="44.31818" lon="6.59346">
        <ele>2017.76</ele>
        <time>2018-08-26T09:26:03Z</time>
      </trkpt>
      <trkpt lat="44.31821" lon="6.59377">
        <ele>2015.97</ele>
        <time>2018-08-26T09:26:06Z</time>
      </trkpt>
      <trkpt lat="44.31795" lon="6.5937">
        <ele>2011.07</ele>
        <time>2018-08-26T09:26:10Z</time>
      </trkpt>
      <trkpt lat="44.31776" lon="6.5935">
        <ele>2008.87</ele>
        <time>2018-08-26T09:26:12Z</time>
      </trkpt>
      <trkpt lat="44.31753" lon="6.59343">
        <ele>2006.85</ele>
        <time>2018-08-26T09:26:14Z</time>
      </trkpt>
      <trkpt lat="44.31729" lon="6.59359">
        <ele>2003.94</ele>
        <time>2018-08-26T09:26:16Z</time>
      </trkpt>
      <trkpt lat="44.31706" lon="6.59358">
        <ele>2001.86</ele>
        <time>2018-08-26T09:26:18Z</time>
      </trkpt>
      <trkpt lat="44.31689" lon="6.59345">
        <ele>1999.85</ele>
        <time>2018-08-26T09:26:20Z</time>
      </trkpt>
      <trkpt lat="44.31666" lon="6.5933">
        <ele>1997.76</ele>
        <time>2018-08-26T09:26:23Z</time>
      </trkpt>
      <trkpt lat="44.31643" lon="6.59337">
        <ele>1996.05</ele>
        <time>2018-08-26T09:26:25Z</time>
      </trkpt>
      <trkpt lat="44.31615" lon="6.59342">
        <ele>1993.87</ele>
        <time>2018-08-26T09:26:27Z</time>
      </trkpt>
      <trkpt lat="44.31587" lon="6.59355">
        <ele>1991.15</ele>
        <time>2018-08-26T09:26:29Z</time>
      </trkpt>
      <trkpt lat="44.31565" lon="6.59362">
        <ele>1987.97</ele>
        <time>2018-08-26T09:26:31Z</time>
      </trkpt>
      <trkpt lat="44.31542" lon="6.59365">
        <ele>1987.47</ele>
        <time>2018-08-26T09:26:33Z</time>
      </trkpt>
      <trkpt lat="44.31529" lon="6.59386">
        <ele>1987.43</ele>
        <time>2018-08-26T09:26:35Z</time>
      </trkpt>
      <trkpt lat="44.31521" lon="6.59417">
        <ele>1985.81</ele>
        <time>2018-08-26T09:26:37Z</time>
      </trkpt>
      <trkpt lat="44.31506" lon="6.59441">
        <ele>1985.46</ele>
        <time>2018-08-26T09:26:39Z</time>
      </trkpt>
      <trkpt lat="44.31485" lon="6.5946">
        <ele>1986.12</ele>
        <time>2018-08-26T09:26:41Z</time>
      </trkpt>
      <trkpt lat="44.31467" lon="6.59473">
        <ele>1987.09</ele>
        <time>2018-08-26T09:26:43Z</time>
      </trkpt>
      <trkpt lat="44.31488" lon="6.59481">
        <ele>1984.75</ele>
        <time>2018-08-26T09:26:48Z</time>
      </trkpt>
      <trkpt lat="44.31511" lon="6.59462">
        <ele>1981.93</ele>
        <time>2018-08-26T09:26:50Z</time>
      </trkpt>
      <trkpt lat="44.31531" lon="6.59442">
        <ele>1980.56</ele>
        <time>2018-08-26T09:26:52Z</time>
      </trkpt>
      <trkpt lat="44.31542" lon="6.59416">
        <ele>1979.03</ele>
        <time>2018-08-26T09:26:54Z</time>
      </trkpt>
      <trkpt lat="44.31556" lon="6.59387">
        <ele>1977.46</ele>
        <time>2018-08-26T09:26:57Z</time>
      </trkpt>
      <trkpt lat="44.3158" lon="6.59402">
        <ele>1977.7</ele>
        <time>2018-08-26T09:27:00Z</time>
      </trkpt>
      <trkpt lat="44.31604" lon="6.59405">
        <ele>1976.75</ele>
        <time>2018-08-26T09:27:02Z</time>
      </trkpt>
      <trkpt lat="44.31631" lon="6.594">
        <ele>1973.93</ele>
        <time>2018-08-26T09:27:04Z</time>
      </trkpt>
      <trkpt lat="44.31656" lon="6.59411">
        <ele>1971.65</ele>
        <time>2018-08-26T09:27:06Z</time>
      </trkpt>
      <trkpt lat="44.31677" lon="6.59438">
        <ele>1969.83</ele>
        <time>2018-08-26T09:27:08Z</time>
      </trkpt>
      <trkpt lat="44.31703" lon="6.59466">
        <ele>1967.15</ele>
        <time>2018-08-26T09:27:10Z</time>
      </trkpt>
      <trkpt lat="44.3173" lon="6.59493">
        <ele>1965.79</ele>
        <time>2018-08-26T09:27:12Z</time>
      </trkpt>
      <trkpt lat="44.31755" lon="6.59522">
        <ele>1962.23</ele>
        <time>2018-08-26T09:27:14Z</time>
      </trkpt>
      <trkpt lat="44.31779" lon="6.59551">
        <ele>1959.88</ele>
        <time>2018-08-26T09:27:16Z</time>
      </trkpt>
      <trkpt lat="44.31799" lon="6.59584">
        <ele>1957.15</ele>
        <time>2018-08-26T09:27:18Z</time>
      </trkpt>
      <trkpt lat="44.31815" lon="6.59625">
        <ele>1954.18</ele>
        <time>2018-08-26T09:27:20Z</time>
      </trkpt>
      <trkpt lat="44.31828" lon="6.59666">
        <ele>1951.67</ele>
        <time>2018-08-26T09:27:22Z</time>
      </trkpt>
      <trkpt lat="44.31835" lon="6.59708">
        <ele>1948.92</ele>
        <time>2018-08-26T09:27:24Z</time>
      </trkpt>
      <trkpt lat="44.31833" lon="6.5974">
        <ele>1946.65</ele>
        <time>2018-08-26T09:27:26Z</time>
      </trkpt>
      <trkpt lat="44.3184" lon="6.59764">
        <ele>1945.45</ele>
        <time>2018-08-26T09:27:29Z</time>
      </trkpt>
      <trkpt lat="44.31866" lon="6.5977">
        <ele>1944.72</ele>
        <time>2018-08-26T09:27:31Z</time>
      </trkpt>
      <trkpt lat="44.31893" lon="6.59775">
        <ele>1941.93</ele>
        <time>2018-08-26T09:27:33Z</time>
      </trkpt>
      <trkpt lat="44.3192" lon="6.59787">
        <ele>1940.56</ele>
        <time>2018-08-26T09:27:35Z</time>
      </trkpt>
      <trkpt lat="44.31944" lon="6.59789">
        <ele>1939.52</ele>
        <time>2018-08-26T09:27:37Z</time>
      </trkpt>
      <trkpt lat="44.31974" lon="6.59782">
        <ele>1937.82</ele>
        <time>2018-08-26T09:27:39Z</time>
      </trkpt>
      <trkpt lat="44.31999" lon="6.59781">
        <ele>1936.06</ele>
        <time>2018-08-26T09:27:41Z</time>
      </trkpt>
      <trkpt lat="44.32014" lon="6.59801">
        <ele>1932.65</ele>
        <time>2018-08-26T09:27:44Z</time>
      </trkpt>
      <trkpt lat="44.32014" lon="6.5984">
        <ele>1928.72</ele>
        <time>2018-08-26T09:27:47Z</time>
      </trkpt>
      <trkpt lat="44.32024" lon="6.59874">
        <ele>1926.14</ele>
        <time>2018-08-26T09:27:49Z</time>
      </trkpt>
      <trkpt lat="44.32027" lon="6.59909">
        <ele>1922.97</ele>
        <time>2018-08-26T09:27:51Z</time>
      </trkpt>
      <trkpt lat="44.32024" lon="6.59944">
        <ele>1920.16</ele>
        <time>2018-08-26T09:27:53Z</time>
      </trkpt>
      <trkpt lat="44.32027" lon="6.59984">
        <ele>1918.79</ele>
        <time>2018-08-26T09:27:55Z</time>
      </trkpt>
      <trkpt lat="44.32033" lon="6.60025">
        <ele>1916.84</ele>
        <time>2018-08-26T09:27:57Z</time>
      </trkpt>
      <trkpt lat="44.32041" lon="6.60058">
        <ele>1913.94</ele>
        <time>2018-08-26T09:27:59Z</time>
      </trkpt>
      <trkpt lat="44.32058" lon="6.60079">
        <ele>1912.77</ele>
        <time>2018-08-26T09:28:01Z</time>
      </trkpt>
      <trkpt lat="44.32081" lon="6.60086">
        <ele>1911.75</ele>
        <time>2018-08-26T09:28:03Z</time>
      </trkpt>
      <trkpt lat="44.32108" lon="6.60092">
        <ele>1909.84</ele>
        <time>2018-08-26T09:28:05Z</time>
      </trkpt>
      <trkpt lat="44.32135" lon="6.60101">
        <ele>1908.55</ele>
        <time>2018-08-26T09:28:07Z</time>
      </trkpt>
      <trkpt lat="44.32158" lon="6.601">
        <ele>1906.61</ele>
        <time>2018-08-26T09:28:09Z</time>
      </trkpt>
      <trkpt lat="44.32179" lon="6.601">
        <ele>1904.75</ele>
        <time>2018-08-26T09:28:12Z</time>
      </trkpt>
      <trkpt lat="44.32189" lon="6.60123">
        <ele>1902.73</ele>
        <time>2018-08-26T09:28:16Z</time>
      </trkpt>
      <trkpt lat="44.32187" lon="6.60155">
        <ele>1900.75</ele>
        <time>2018-08-26T09:28:20Z</time>
      </trkpt>
      <trkpt lat="44.32188" lon="6.60184">
        <ele>1898.75</ele>
        <time>2018-08-26T09:28:24Z</time>
      </trkpt>
      <trkpt lat="44.32203" lon="6.60206">
        <ele>1896.73</ele>
        <time>2018-08-26T09:28:28Z</time>
      </trkpt>
      <trkpt lat="44.3222" lon="6.6022">
        <ele>1896.45</ele>
        <time>2018-08-26T09:28:30Z</time>
      </trkpt>
      <trkpt lat="44.3224" lon="6.60238">
        <ele>1895.51</ele>
        <time>2018-08-26T09:28:32Z</time>
      </trkpt>
      <trkpt lat="44.32263" lon="6.60259">
        <ele>1893.33</ele>
        <time>2018-08-26T09:28:34Z</time>
      </trkpt>
      <trkpt lat="44.32291" lon="6.60272">
        <ele>1891.59</ele>
        <time>2018-08-26T09:28:36Z</time>
      </trkpt>
      <trkpt lat="44.32323" lon="6.60277">
        <ele>1890.53</ele>
        <time>2018-08-26T09:28:38Z</time>
      </trkpt>
      <trkpt lat="44.32348" lon="6.60289">
        <ele>1890.43</ele>
        <time>2018-08-26T09:28:40Z</time>
      </trkpt>
      <trkpt lat="44.32372" lon="6.60304">
        <ele>1888.81</ele>
        <time>2018-08-26T09:28:42Z</time>
      </trkpt>
      <trkpt lat="44.32388" lon="6.60323">
        <ele>1886.64</ele>
        <time>2018-08-26T09:28:44Z</time>
      </trkpt>
      <trkpt lat="44.32391" lon="6.60356">
        <ele>1884.83</ele>
        <time>2018-08-26T09:28:46Z</time>
      </trkpt>
      <trkpt lat="44.324" lon="6.60386">
        <ele>1883.76</ele>
        <time>2018-08-26T09:28:48Z</time>
      </trkpt>
      <trkpt lat="44.32417" lon="6.60402">
        <ele>1881.63</ele>
        <time>2018-08-26T09:28:50Z</time>
      </trkpt>
      <trkpt lat="44.32442" lon="6.60405">
        <ele>1880.53</ele>
        <time>2018-08-26T09:28:52Z</time>
      </trkpt>
      <trkpt lat="44.32472" lon="6.604">
        <ele>1878.82</ele>
        <time>2018-08-26T09:28:54Z</time>
      </trkpt>
      <trkpt lat="44.32503" lon="6.60396">
        <ele>1876.85</ele>
        <time>2018-08-26T09:28:56Z</time>
      </trkpt>
      <trkpt lat="44.3253" lon="6.60395">
        <ele>1875.76</ele>
        <time>2018-08-26T09:28:58Z</time>
      </trkpt>
      <trkpt lat="44.32553" lon="6.6038">
        <ele>1872.44</ele>
        <time>2018-08-26T09:29:00Z</time>
      </trkpt>
      <trkpt lat="44.32579" lon="6.60359">
        <ele>1869.9</ele>
        <time>2018-08-26T09:29:02Z</time>
      </trkpt>
      <trkpt lat="44.32603" lon="6.60333">
        <ele>1867.85</ele>
        <time>2018-08-26T09:29:04Z</time>
      </trkpt>
      <trkpt lat="44.32622" lon="6.6031">
        <ele>1866.76</ele>
        <time>2018-08-26T09:29:06Z</time>
      </trkpt>
      <trkpt lat="44.32637" lon="6.60278">
        <ele>1864.84</ele>
        <time>2018-08-26T09:29:08Z</time>
      </trkpt>
      <trkpt lat="44.32651" lon="6.60245">
        <ele>1862.85</ele>
        <time>2018-08-26T09:29:10Z</time>
      </trkpt>
      <trkpt lat="44.3266" lon="6.6021">
        <ele>1859.24</ele>
        <time>2018-08-26T09:29:12Z</time>
      </trkpt>
      <trkpt lat="44.32675" lon="6.60176">
        <ele>1855.76</ele>
        <time>2018-08-26T09:29:14Z</time>
      </trkpt>
      <trkpt lat="44.32691" lon="6.60146">
        <ele>1853.84</ele>
        <time>2018-08-26T09:29:16Z</time>
      </trkpt>
      <trkpt lat="44.32711" lon="6.60125">
        <ele>1850.94</ele>
        <time>2018-08-26T09:29:18Z</time>
      </trkpt>
      <trkpt lat="44.32724" lon="6.60102">
        <ele>1849.77</ele>
        <time>2018-08-26T09:29:20Z</time>
      </trkpt>
      <trkpt lat="44.3273" lon="6.60072">
        <ele>1849.45</ele>
        <time>2018-08-26T09:29:22Z</time>
      </trkpt>
      <trkpt lat="44.32738" lon="6.60043">
        <ele>1847.11</ele>
        <time>2018-08-26T09:29:24Z</time>
      </trkpt>
      <trkpt lat="44.32754" lon="6.60023">
        <ele>1845.57</ele>
        <time>2018-08-26T09:29:26Z</time>
      </trkpt>
      <trkpt lat="44.32773" lon="6.60013">
        <ele>1845.43</ele>
        <time>2018-08-26T09:29:28Z</time>
      </trkpt>
      <trkpt lat="44.32794" lon="6.60017">
        <ele>1842.69</ele>
        <time>2018-08-26T09:29:30Z</time>
      </trkpt>
      <trkpt lat="44.32803" lon="6.59988">
        <ele>1838.94</ele>
        <time>2018-08-26T09:29:33Z</time>
      </trkpt>
      <trkpt lat="44.32803" lon="6.59951">
        <ele>1836.86</ele>
        <time>2018-08-26T09:29:35Z</time>
      </trkpt>
      <trkpt lat="44.32802" lon="6.59914">
        <ele>1834.15</ele>
        <time>2018-08-26T09:29:37Z</time>
      </trkpt>
      <trkpt lat="44.32806" lon="6.59883">
        <ele>1832.58</ele>
        <time>2018-08-26T09:29:39Z</time>
      </trkpt>
      <trkpt lat="44.3282" lon="6.59857">
        <ele>1831.53</ele>
        <time>2018-08-26T09:29:41Z</time>
      </trkpt>
      <trkpt lat="44.32836" lon="6.59829">
        <ele>1830.73</ele>
        <time>2018-08-26T09:29:43Z</time>
      </trkpt>
      <trkpt lat="44.32845" lon="6.59794">
        <ele>1830.45</ele>
        <time>2018-08-26T09:29:45Z</time>
      </trkpt>
      <trkpt lat="44.32844" lon="6.59755">
        <ele>1826.29</ele>
        <time>2018-08-26T09:29:47Z</time>
      </trkpt>
      <trkpt lat="44.32842" lon="6.59716">
        <ele>1823.19</ele>
        <time>2018-08-26T09:29:49Z</time>
      </trkpt>
      <trkpt lat="44.32837" lon="6.59688">
        <ele>1822.28</ele>
        <time>2018-08-26T09:29:51Z</time>
      </trkpt>
      <trkpt lat="44.32814" lon="6.59673">
        <ele>1818.92</ele>
        <time>2018-08-26T09:29:54Z</time>
      </trkpt>
      <trkpt lat="44.32806" lon="6.59638">
        <ele>1817.73</ele>
        <time>2018-08-26T09:29:57Z</time>
      </trkpt>
      <trkpt lat="44.32813" lon="6.59603">
        <ele>1815.84</ele>
        <time>2018-08-26T09:29:59Z</time>
      </trkpt>
      <trkpt lat="44.32818" lon="6.59563">
        <ele>1811.33</ele>
        <time>2018-08-26T09:30:01Z</time>
      </trkpt>
      <trkpt lat="44.3283" lon="6.59525">
        <ele>1808.89</ele>
        <time>2018-08-26T09:30:03Z</time>
      </trkpt>
      <trkpt lat="44.32831" lon="6.59485">
        <ele>1806.85</ele>
        <time>2018-08-26T09:30:05Z</time>
      </trkpt>
      <trkpt lat="44.32826" lon="6.59444">
        <ele>1805.06</ele>
        <time>2018-08-26T09:30:07Z</time>
      </trkpt>
      <trkpt lat="44.32819" lon="6.59405">
        <ele>1803.78</ele>
        <time>2018-08-26T09:30:09Z</time>
      </trkpt>
      <trkpt lat="44.32814" lon="6.59368">
        <ele>1799.11</ele>
        <time>2018-08-26T09:30:11Z</time>
      </trkpt>
      <trkpt lat="44.32813" lon="6.59338">
        <ele>1798.48</ele>
        <time>2018-08-26T09:30:13Z</time>
      </trkpt>
      <trkpt lat="44.32805" lon="6.5931">
        <ele>1797.03</ele>
        <time>2018-08-26T09:30:15Z</time>
      </trkpt>
      <trkpt lat="44.3279" lon="6.59278">
        <ele>1794.66</ele>
        <time>2018-08-26T09:30:17Z</time>
      </trkpt>
      <trkpt lat="44.32782" lon="6.59246">
        <ele>1791.22</ele>
        <time>2018-08-26T09:30:19Z</time>
      </trkpt>
      <trkpt lat="44.32794" lon="6.59212">
        <ele>1786.89</ele>
        <time>2018-08-26T09:30:22Z</time>
      </trkpt>
      <trkpt lat="44.32821" lon="6.59201">
        <ele>1786.25</ele>
        <time>2018-08-26T09:30:24Z</time>
      </trkpt>
      <trkpt lat="44.32843" lon="6.59172">
        <ele>1786.2</ele>
        <time>2018-08-26T09:30:26Z</time>
      </trkpt>
      <trkpt lat="44.32862" lon="6.59136">
        <ele>1786.4</ele>
        <time>2018-08-26T09:30:28Z</time>
      </trkpt>
      <trkpt lat="44.32873" lon="6.59097">
        <ele>1784.32</ele>
        <time>2018-08-26T09:30:30Z</time>
      </trkpt>
      <trkpt lat="44.32872" lon="6.59064">
        <ele>1781.07</ele>
        <time>2018-08-26T09:30:33Z</time>
      </trkpt>
      <trkpt lat="44.32898" lon="6.59079">
        <ele>1778.75</ele>
        <time>2018-08-26T09:30:39Z</time>
      </trkpt>
      <trkpt lat="44.329" lon="6.59105">
        <ele>1775.72</ele>
        <time>2018-08-26T09:30:40Z</time>
      </trkpt>
      <trkpt lat="44.32897" lon="6.59132">
        <ele>1774.81</ele>
        <time>2018-08-26T09:30:41Z</time>
      </trkpt>
      <trkpt lat="44.32893" lon="6.59178">
        <ele>1770.75</ele>
        <time>2018-08-26T09:30:43Z</time>
      </trkpt>
      <trkpt lat="44.32892" lon="6.59222">
        <ele>1767.02</ele>
        <time>2018-08-26T09:30:45Z</time>
      </trkpt>
      <trkpt lat="44.32885" lon="6.59253">
        <ele>1764.86</ele>
        <time>2018-08-26T09:30:47Z</time>
      </trkpt>
      <trkpt lat="44.32873" lon="6.59286">
        <ele>1761.45</ele>
        <time>2018-08-26T09:30:49Z</time>
      </trkpt>
      <trkpt lat="44.32867" lon="6.59311">
        <ele>1758.9</ele>
        <time>2018-08-26T09:30:51Z</time>
      </trkpt>
      <trkpt lat="44.32896" lon="6.59321">
        <ele>1755.82</ele>
        <time>2018-08-26T09:30:56Z</time>
      </trkpt>
      <trkpt lat="44.32911" lon="6.59293">
        <ele>1755.54</ele>
        <time>2018-08-26T09:30:57Z</time>
      </trkpt>
      <trkpt lat="44.32931" lon="6.59273">
        <ele>1756.13</ele>
        <time>2018-08-26T09:30:59Z</time>
      </trkpt>
      <trkpt lat="44.32933" lon="6.59244">
        <ele>1754.51</ele>
        <time>2018-08-26T09:31:01Z</time>
      </trkpt>
      <trkpt lat="44.32932" lon="6.59217">
        <ele>1751</ele>
        <time>2018-08-26T09:31:03Z</time>
      </trkpt>
      <trkpt lat="44.32944" lon="6.59189">
        <ele>1748.76</ele>
        <time>2018-08-26T09:31:06Z</time>
      </trkpt>
      <trkpt lat="44.32958" lon="6.59161">
        <ele>1747.25</ele>
        <time>2018-08-26T09:31:09Z</time>
      </trkpt>
      <trkpt lat="44.32958" lon="6.59135">
        <ele>1741.88</ele>
        <time>2018-08-26T09:31:11Z</time>
      </trkpt>
      <trkpt lat="44.32966" lon="6.59103">
        <ele>1737.33</ele>
        <time>2018-08-26T09:31:13Z</time>
      </trkpt>
      <trkpt lat="44.32982" lon="6.59069">
        <ele>1735.59</ele>
        <time>2018-08-26T09:31:15Z</time>
      </trkpt>
      <trkpt lat="44.32996" lon="6.59032">
        <ele>1734.74</ele>
        <time>2018-08-26T09:31:17Z</time>
      </trkpt>
      <trkpt lat="44.33018" lon="6.5901">
        <ele>1733.54</ele>
        <time>2018-08-26T09:31:19Z</time>
      </trkpt>
      <trkpt lat="44.33044" lon="6.58997">
        <ele>1733.64</ele>
        <time>2018-08-26T09:31:21Z</time>
      </trkpt>
      <trkpt lat="44.3307" lon="6.58991">
        <ele>1732.74</ele>
        <time>2018-08-26T09:31:23Z</time>
      </trkpt>
      <trkpt lat="44.33093" lon="6.58976">
        <ele>1732.45</ele>
        <time>2018-08-26T09:31:25Z</time>
      </trkpt>
      <trkpt lat="44.3311" lon="6.58954">
        <ele>1729.69</ele>
        <time>2018-08-26T09:31:27Z</time>
      </trkpt>
      <trkpt lat="44.33119" lon="6.58925">
        <ele>1727.14</ele>
        <time>2018-08-26T09:31:29Z</time>
      </trkpt>
      <trkpt lat="44.33114" lon="6.58891">
        <ele>1726.49</ele>
        <time>2018-08-26T09:31:31Z</time>
      </trkpt>
      <trkpt lat="44.33102" lon="6.58867">
        <ele>1725.03</ele>
        <time>2018-08-26T09:31:33Z</time>
      </trkpt>
      <trkpt lat="44.33088" lon="6.58847">
        <ele>1724.27</ele>
        <time>2018-08-26T09:31:35Z</time>
      </trkpt>
      <trkpt lat="44.33075" lon="6.58829">
        <ele>1722.53</ele>
        <time>2018-08-26T09:31:38Z</time>
      </trkpt>
      <trkpt lat="44.33059" lon="6.58811">
        <ele>1722.48</ele>
        <time>2018-08-26T09:32:17Z</time>
      </trkpt>
      <trkpt lat="44.33036" lon="6.58798">
        <ele>1719.42</ele>
        <time>2018-08-26T09:32:19Z</time>
      </trkpt>
      <trkpt lat="44.33019" lon="6.58782">
        <ele>1718.3</ele>
        <time>2018-08-26T09:32:21Z</time>
      </trkpt>
      <trkpt lat="44.3301" lon="6.58758">
        <ele>1718.54</ele>
        <time>2018-08-26T09:32:24Z</time>
      </trkpt>
      <trkpt lat="44.33027" lon="6.58743">
        <ele>1714.93</ele>
        <time>2018-08-26T09:32:27Z</time>
      </trkpt>
      <trkpt lat="44.33062" lon="6.58739">
        <ele>1716.08</ele>
        <time>2018-08-26T09:32:29Z</time>
      </trkpt>
      <trkpt lat="44.33086" lon="6.58724">
        <ele>1712.26</ele>
        <time>2018-08-26T09:32:31Z</time>
      </trkpt>
      <trkpt lat="44.33105" lon="6.58709">
        <ele>1711.5</ele>
        <time>2018-08-26T09:32:33Z</time>
      </trkpt>
      <trkpt lat="44.33119" lon="6.58682">
        <ele>1710.73</ele>
        <time>2018-08-26T09:32:35Z</time>
      </trkpt>
      <trkpt lat="44.33132" lon="6.58637">
        <ele>1708.84</ele>
        <time>2018-08-26T09:32:37Z</time>
      </trkpt>
      <trkpt lat="44.33152" lon="6.58602">
        <ele>1706.85</ele>
        <time>2018-08-26T09:32:39Z</time>
      </trkpt>
      <trkpt lat="44.33173" lon="6.58575">
        <ele>1706.46</ele>
        <time>2018-08-26T09:32:41Z</time>
      </trkpt>
      <trkpt lat="44.33189" lon="6.58545">
        <ele>1704.81</ele>
        <time>2018-08-26T09:32:43Z</time>
      </trkpt>
      <trkpt lat="44.33198" lon="6.58513">
        <ele>1702.15</ele>
        <time>2018-08-26T09:32:45Z</time>
      </trkpt>
      <trkpt lat="44.33197" lon="6.58477">
        <ele>1698.65</ele>
        <time>2018-08-26T09:32:48Z</time>
      </trkpt>
      <trkpt lat="44.33185" lon="6.58456">
        <ele>1695.22</ele>
        <time>2018-08-26T09:32:50Z</time>
      </trkpt>
      <trkpt lat="44.33202" lon="6.58437">
        <ele>1692.82</ele>
        <time>2018-08-26T09:32:54Z</time>
      </trkpt>
      <trkpt lat="44.33223" lon="6.58448">
        <ele>1689.64</ele>
        <time>2018-08-26T09:32:57Z</time>
      </trkpt>
      <trkpt lat="44.33239" lon="6.58461">
        <ele>1689.44</ele>
        <time>2018-08-26T09:32:59Z</time>
      </trkpt>
      <trkpt lat="44.33251" lon="6.58484">
        <ele>1691.24</ele>
        <time>2018-08-26T09:33:01Z</time>
      </trkpt>
      <trkpt lat="44.33263" lon="6.58503">
        <ele>1690.49</ele>
        <time>2018-08-26T09:33:03Z</time>
      </trkpt>
      <trkpt lat="44.33281" lon="6.58513">
        <ele>1688.82</ele>
        <time>2018-08-26T09:33:05Z</time>
      </trkpt>
      <trkpt lat="44.33302" lon="6.58512">
        <ele>1687.55</ele>
        <time>2018-08-26T09:33:07Z</time>
      </trkpt>
      <trkpt lat="44.33326" lon="6.58509">
        <ele>1686.52</ele>
        <time>2018-08-26T09:33:09Z</time>
      </trkpt>
      <trkpt lat="44.33352" lon="6.58505">
        <ele>1686.43</ele>
        <time>2018-08-26T09:33:11Z</time>
      </trkpt>
      <trkpt lat="44.33372" lon="6.58492">
        <ele>1683.41</ele>
        <time>2018-08-26T09:33:13Z</time>
      </trkpt>
      <trkpt lat="44.33394" lon="6.58471">
        <ele>1682.51</ele>
        <time>2018-08-26T09:33:15Z</time>
      </trkpt>
      <trkpt lat="44.3342" lon="6.58455">
        <ele>1682.43</ele>
        <time>2018-08-26T09:33:17Z</time>
      </trkpt>
      <trkpt lat="44.33448" lon="6.58448">
        <ele>1679.69</ele>
        <time>2018-08-26T09:33:19Z</time>
      </trkpt>
      <trkpt lat="44.33473" lon="6.58451">
        <ele>1677.84</ele>
        <time>2018-08-26T09:33:21Z</time>
      </trkpt>
      <trkpt lat="44.33494" lon="6.58445">
        <ele>1676.55</ele>
        <time>2018-08-26T09:33:23Z</time>
      </trkpt>
      <trkpt lat="44.3351" lon="6.5842">
        <ele>1675.73</ele>
        <time>2018-08-26T09:33:25Z</time>
      </trkpt>
      <trkpt lat="44.33525" lon="6.58393">
        <ele>1672.93</ele>
        <time>2018-08-26T09:33:27Z</time>
      </trkpt>
      <trkpt lat="44.33542" lon="6.58364">
        <ele>1671.56</ele>
        <time>2018-08-26T09:33:29Z</time>
      </trkpt>
      <trkpt lat="44.33557" lon="6.58335">
        <ele>1670.03</ele>
        <time>2018-08-26T09:33:31Z</time>
      </trkpt>
      <trkpt lat="44.33579" lon="6.58321">
        <ele>1669.69</ele>
        <time>2018-08-26T09:33:33Z</time>
      </trkpt>
      <trkpt lat="44.33602" lon="6.58317">
        <ele>1668.74</ele>
        <time>2018-08-26T09:33:35Z</time>
      </trkpt>
      <trkpt lat="44.33622" lon="6.58304">
        <ele>1667.05</ele>
        <time>2018-08-26T09:33:37Z</time>
      </trkpt>
      <trkpt lat="44.33638" lon="6.58293">
        <ele>1665.78</ele>
        <time>2018-08-26T09:33:39Z</time>
      </trkpt>
      <trkpt lat="44.33653" lon="6.58313">
        <ele>1665.22</ele>
        <time>2018-08-26T09:33:42Z</time>
      </trkpt>
      <trkpt lat="44.33651" lon="6.58342">
        <ele>1662.67</ele>
        <time>2018-08-26T09:33:44Z</time>
      </trkpt>
      <trkpt lat="44.33638" lon="6.58368">
        <ele>1660.62</ele>
        <time>2018-08-26T09:33:46Z</time>
      </trkpt>
      <trkpt lat="44.33623" lon="6.58397">
        <ele>1658.83</ele>
        <time>2018-08-26T09:33:48Z</time>
      </trkpt>
      <trkpt lat="44.33619" lon="6.58439">
        <ele>1657.76</ele>
        <time>2018-08-26T09:33:50Z</time>
      </trkpt>
      <trkpt lat="44.33617" lon="6.58483">
        <ele>1655.84</ele>
        <time>2018-08-26T09:33:52Z</time>
      </trkpt>
      <trkpt lat="44.33615" lon="6.58521">
        <ele>1653.85</ele>
        <time>2018-08-26T09:33:54Z</time>
      </trkpt>
      <trkpt lat="44.33602" lon="6.58556">
        <ele>1652.76</ele>
        <time>2018-08-26T09:33:56Z</time>
      </trkpt>
      <trkpt lat="44.33578" lon="6.58597">
        <ele>1651.75</ele>
        <time>2018-08-26T09:33:58Z</time>
      </trkpt>
      <trkpt lat="44.33568" lon="6.58619">
        <ele>1650.12</ele>
        <time>2018-08-26T09:33:59Z</time>
      </trkpt>
      <trkpt lat="44.33558" lon="6.58642">
        <ele>1650.33</ele>
        <time>2018-08-26T09:34:00Z</time>
      </trkpt>
      <trkpt lat="44.33547" lon="6.58666">
        <ele>1649.69</ele>
        <time>2018-08-26T09:34:01Z</time>
      </trkpt>
      <trkpt lat="44.33536" lon="6.58689">
        <ele>1648.1</ele>
        <time>2018-08-26T09:34:02Z</time>
      </trkpt>
      <trkpt lat="44.33515" lon="6.5872">
        <ele>1646.57</ele>
        <time>2018-08-26T09:34:04Z</time>
      </trkpt>
      <trkpt lat="44.33504" lon="6.58754">
        <ele>1645.52</ele>
        <time>2018-08-26T09:34:06Z</time>
      </trkpt>
      <trkpt lat="44.33492" lon="6.58803">
        <ele>1641.93</ele>
        <time>2018-08-26T09:34:08Z</time>
      </trkpt>
      <trkpt lat="44.33488" lon="6.58832">
        <ele>1639.47</ele>
        <time>2018-08-26T09:34:09Z</time>
      </trkpt>
      <trkpt lat="44.33486" lon="6.58862">
        <ele>1638.04</ele>
        <time>2018-08-26T09:34:10Z</time>
      </trkpt>
      <trkpt lat="44.33483" lon="6.58892">
        <ele>1636.21</ele>
        <time>2018-08-26T09:34:11Z</time>
      </trkpt>
      <trkpt lat="44.33481" lon="6.58919">
        <ele>1633.56</ele>
        <time>2018-08-26T09:34:12Z</time>
      </trkpt>
      <trkpt lat="44.33481" lon="6.58967">
        <ele>1630.21</ele>
        <time>2018-08-26T09:34:14Z</time>
      </trkpt>
      <trkpt lat="44.3349" lon="6.59013">
        <ele>1629.28</ele>
        <time>2018-08-26T09:34:16Z</time>
      </trkpt>
      <trkpt lat="44.33507" lon="6.59055">
        <ele>1626.89</ele>
        <time>2018-08-26T09:34:18Z</time>
      </trkpt>
      <trkpt lat="44.33523" lon="6.59094">
        <ele>1624.85</ele>
        <time>2018-08-26T09:34:20Z</time>
      </trkpt>
      <trkpt lat="44.33536" lon="6.59118">
        <ele>1623.76</ele>
        <time>2018-08-26T09:34:22Z</time>
      </trkpt>
      <trkpt lat="44.33559" lon="6.5912">
        <ele>1624.15</ele>
        <time>2018-08-26T09:34:24Z</time>
      </trkpt>
      <trkpt lat="44.33582" lon="6.59132">
        <ele>1624.41</ele>
        <time>2018-08-26T09:34:27Z</time>
      </trkpt>
      <trkpt lat="44.33603" lon="6.59147">
        <ele>1623.66</ele>
        <time>2018-08-26T09:34:30Z</time>
      </trkpt>
      <trkpt lat="44.33599" lon="6.59176">
        <ele>1623.43</ele>
        <time>2018-08-26T09:34:33Z</time>
      </trkpt>
      <trkpt lat="44.3359" lon="6.592">
        <ele>1622.74</ele>
        <time>2018-08-26T09:34:37Z</time>
      </trkpt>
      <trkpt lat="44.33567" lon="6.59215">
        <ele>1621.73</ele>
        <time>2018-08-26T09:34:40Z</time>
      </trkpt>
      <trkpt lat="44.33549" lon="6.5923">
        <ele>1618.93</ele>
        <time>2018-08-26T09:34:42Z</time>
      </trkpt>
      <trkpt lat="44.33532" lon="6.59246">
        <ele>1616.86</ele>
        <time>2018-08-26T09:34:44Z</time>
      </trkpt>
      <trkpt lat="44.33519" lon="6.59275">
        <ele>1614.55</ele>
        <time>2018-08-26T09:34:47Z</time>
      </trkpt>
      <trkpt lat="44.3352" lon="6.59315">
        <ele>1612.12</ele>
        <time>2018-08-26T09:34:49Z</time>
      </trkpt>
      <trkpt lat="44.33515" lon="6.59354">
        <ele>1610.08</ele>
        <time>2018-08-26T09:34:51Z</time>
      </trkpt>
      <trkpt lat="44.33508" lon="6.59386">
        <ele>1607.87</ele>
        <time>2018-08-26T09:34:53Z</time>
      </trkpt>
      <trkpt lat="44.33511" lon="6.59421">
        <ele>1604.64</ele>
        <time>2018-08-26T09:34:56Z</time>
      </trkpt>
      <trkpt lat="44.33517" lon="6.59446">
        <ele>1604.44</ele>
        <time>2018-08-26T09:34:58Z</time>
      </trkpt>
      <trkpt lat="44.33519" lon="6.59476">
        <ele>1603.72</ele>
        <time>2018-08-26T09:35:00Z</time>
      </trkpt>
      <trkpt lat="44.33532" lon="6.59507">
        <ele>1603.43</ele>
        <time>2018-08-26T09:35:03Z</time>
      </trkpt>
      <trkpt lat="44.33532" lon="6.59547">
        <ele>1604.12</ele>
        <time>2018-08-26T09:35:06Z</time>
      </trkpt>
      <trkpt lat="44.33519" lon="6.5958">
        <ele>1603.48</ele>
        <time>2018-08-26T09:35:08Z</time>
      </trkpt>
      <trkpt lat="44.3351" lon="6.59622">
        <ele>1602.73</ele>
        <time>2018-08-26T09:35:10Z</time>
      </trkpt>
      <trkpt lat="44.33507" lon="6.59659">
        <ele>1601.54</ele>
        <time>2018-08-26T09:35:12Z</time>
      </trkpt>
      <trkpt lat="44.33514" lon="6.59683">
        <ele>1599.82</ele>
        <time>2018-08-26T09:35:14Z</time>
      </trkpt>
      <trkpt lat="44.33513" lon="6.59714">
        <ele>1598.73</ele>
        <time>2018-08-26T09:35:17Z</time>
      </trkpt>
      <trkpt lat="44.33492" lon="6.59747">
        <ele>1607.99</ele>
        <time>2018-08-26T09:37:24Z</time>
      </trkpt>
      <trkpt lat="44.33481" lon="6.59781">
        <ele>1604.79</ele>
        <time>2018-08-26T09:37:27Z</time>
      </trkpt>
      <trkpt lat="44.33478" lon="6.59808">
        <ele>1602.63</ele>
        <time>2018-08-26T09:37:29Z</time>
      </trkpt>
      <trkpt lat="44.33457" lon="6.59837">
        <ele>1599.08</ele>
        <time>2018-08-26T09:37:32Z</time>
      </trkpt>
      <trkpt lat="44.33434" lon="6.59856">
        <ele>1597.99</ele>
        <time>2018-08-26T09:37:34Z</time>
      </trkpt>
      <trkpt lat="44.33417" lon="6.59878">
        <ele>1595.65</ele>
        <time>2018-08-26T09:37:36Z</time>
      </trkpt>
      <trkpt lat="44.33415" lon="6.59918">
        <ele>1591.87</ele>
        <time>2018-08-26T09:37:39Z</time>
      </trkpt>
      <trkpt lat="44.33415" lon="6.59948">
        <ele>1589.64</ele>
        <time>2018-08-26T09:37:41Z</time>
      </trkpt>
      <trkpt lat="44.33412" lon="6.5998">
        <ele>1588.53</ele>
        <time>2018-08-26T09:37:43Z</time>
      </trkpt>
      <trkpt lat="44.33424" lon="6.60005">
        <ele>1585.21</ele>
        <time>2018-08-26T09:37:45Z</time>
      </trkpt>
      <trkpt lat="44.33444" lon="6.6002">
        <ele>1583.58</ele>
        <time>2018-08-26T09:37:47Z</time>
      </trkpt>
      <trkpt lat="44.33471" lon="6.60026">
        <ele>1581.83</ele>
        <time>2018-08-26T09:37:49Z</time>
      </trkpt>
      <trkpt lat="44.33495" lon="6.60021">
        <ele>1580.55</ele>
        <time>2018-08-26T09:37:51Z</time>
      </trkpt>
      <trkpt lat="44.33521" lon="6.60005">
        <ele>1578.61</ele>
        <time>2018-08-26T09:37:53Z</time>
      </trkpt>
      <trkpt lat="44.33542" lon="6.60005">
        <ele>1576.83</ele>
        <time>2018-08-26T09:37:55Z</time>
      </trkpt>
      <trkpt lat="44.33561" lon="6.60017">
        <ele>1575.55</ele>
        <time>2018-08-26T09:37:57Z</time>
      </trkpt>
      <trkpt lat="44.33584" lon="6.60017">
        <ele>1575.64</ele>
        <time>2018-08-26T09:37:59Z</time>
      </trkpt>
      <trkpt lat="44.33602" lon="6.60022">
        <ele>1575.44</ele>
        <time>2018-08-26T09:38:01Z</time>
      </trkpt>
      <trkpt lat="44.33618" lon="6.60008">
        <ele>1575.42</ele>
        <time>2018-08-26T09:38:03Z</time>
      </trkpt>
      <trkpt lat="44.33634" lon="6.59997">
        <ele>1575.42</ele>
        <time>2018-08-26T09:38:05Z</time>
      </trkpt>
      <trkpt lat="44.33656" lon="6.60004">
        <ele>1576.33</ele>
        <time>2018-08-26T09:38:08Z</time>
      </trkpt>
      <trkpt lat="44.33664" lon="6.60027">
        <ele>1577.11</ele>
        <time>2018-08-26T09:38:10Z</time>
      </trkpt>
      <trkpt lat="44.33653" lon="6.60057">
        <ele>1578.09</ele>
        <time>2018-08-26T09:38:12Z</time>
      </trkpt>
      <trkpt lat="44.33644" lon="6.60086">
        <ele>1579.3</ele>
        <time>2018-08-26T09:38:14Z</time>
      </trkpt>
      <trkpt lat="44.33633" lon="6.60115">
        <ele>1579.62</ele>
        <time>2018-08-26T09:38:16Z</time>
      </trkpt>
      <trkpt lat="44.33626" lon="6.60143">
        <ele>1579.65</ele>
        <time>2018-08-26T09:38:18Z</time>
      </trkpt>
      <trkpt lat="44.33606" lon="6.60164">
        <ele>1579.43</ele>
        <time>2018-08-26T09:38:21Z</time>
      </trkpt>
      <trkpt lat="44.33594" lon="6.60197">
        <ele>1579.42</ele>
        <time>2018-08-26T09:38:24Z</time>
      </trkpt>
      <trkpt lat="44.33587" lon="6.6023">
        <ele>1576.9</ele>
        <time>2018-08-26T09:38:26Z</time>
      </trkpt>
      <trkpt lat="44.33577" lon="6.60258">
        <ele>1574.85</ele>
        <time>2018-08-26T09:38:28Z</time>
      </trkpt>
      <trkpt lat="44.33572" lon="6.60286">
        <ele>1573.76</ele>
        <time>2018-08-26T09:38:30Z</time>
      </trkpt>
      <trkpt lat="44.33577" lon="6.60318">
        <ele>1571.84</ele>
        <time>2018-08-26T09:38:32Z</time>
      </trkpt>
      <trkpt lat="44.33572" lon="6.60348">
        <ele>1570.76</ele>
        <time>2018-08-26T09:38:34Z</time>
      </trkpt>
      <trkpt lat="44.3356" lon="6.60367">
        <ele>1571.15</ele>
        <time>2018-08-26T09:38:36Z</time>
      </trkpt>
      <trkpt lat="44.3356" lon="6.60394">
        <ele>1569.79</ele>
        <time>2018-08-26T09:38:38Z</time>
      </trkpt>
      <trkpt lat="44.3355" lon="6.60422">
        <ele>1567.55</ele>
        <time>2018-08-26T09:38:41Z</time>
      </trkpt>
      <trkpt lat="44.3354" lon="6.60446">
        <ele>1565.75</ele>
        <time>2018-08-26T09:38:45Z</time>
      </trkpt>
      <trkpt lat="44.33539" lon="6.60477">
        <ele>1564.53</ele>
        <time>2018-08-26T09:38:49Z</time>
      </trkpt>
      <trkpt lat="44.33534" lon="6.60502">
        <ele>1562.82</ele>
        <time>2018-08-26T09:38:51Z</time>
      </trkpt>
      <trkpt lat="44.33523" lon="6.60523">
        <ele>1562.67</ele>
        <time>2018-08-26T09:38:53Z</time>
      </trkpt>
      <trkpt lat="44.33519" lon="6.6055">
        <ele>1560.13</ele>
        <time>2018-08-26T09:38:55Z</time>
      </trkpt>
      <trkpt lat="44.33505" lon="6.60577">
        <ele>1556.86</ele>
        <time>2018-08-26T09:38:58Z</time>
      </trkpt>
      <trkpt lat="44.33486" lon="6.60589">
        <ele>1556.46</ele>
        <time>2018-08-26T09:39:00Z</time>
      </trkpt>
      <trkpt lat="44.33472" lon="6.60612">
        <ele>1555.72</ele>
        <time>2018-08-26T09:39:03Z</time>
      </trkpt>
      <trkpt lat="44.33477" lon="6.60645">
        <ele>1555.45</ele>
        <time>2018-08-26T09:39:05Z</time>
      </trkpt>
      <trkpt lat="44.33481" lon="6.6067">
        <ele>1555.43</ele>
        <time>2018-08-26T09:39:06Z</time>
      </trkpt>
      <trkpt lat="44.3348" lon="6.60708">
        <ele>1554.51</ele>
        <time>2018-08-26T09:39:08Z</time>
      </trkpt>
      <trkpt lat="44.33465" lon="6.60735">
        <ele>1551.91</ele>
        <time>2018-08-26T09:39:10Z</time>
      </trkpt>
      <trkpt lat="44.33446" lon="6.60748">
        <ele>1549.85</ele>
        <time>2018-08-26T09:39:12Z</time>
      </trkpt>
      <trkpt lat="44.33426" lon="6.6075">
        <ele>1548.06</ele>
        <time>2018-08-26T09:39:14Z</time>
      </trkpt>
      <trkpt lat="44.33402" lon="6.60766">
        <ele>1545.77</ele>
        <time>2018-08-26T09:39:17Z</time>
      </trkpt>
      <trkpt lat="44.334" lon="6.60808">
        <ele>1543.84</ele>
        <time>2018-08-26T09:39:19Z</time>
      </trkpt>
      <trkpt lat="44.33387" lon="6.60844">
        <ele>1541.64</ele>
        <time>2018-08-26T09:39:21Z</time>
      </trkpt>
      <trkpt lat="44.33374" lon="6.60862">
        <ele>1539.13</ele>
        <time>2018-08-26T09:39:23Z</time>
      </trkpt>
      <trkpt lat="44.33349" lon="6.60876">
        <ele>1535.79</ele>
        <time>2018-08-26T09:39:26Z</time>
      </trkpt>
      <trkpt lat="44.33341" lon="6.609">
        <ele>1535.24</ele>
        <time>2018-08-26T09:39:28Z</time>
      </trkpt>
      <trkpt lat="44.33328" lon="6.60929">
        <ele>1532.89</ele>
        <time>2018-08-26T09:39:30Z</time>
      </trkpt>
      <trkpt lat="44.33311" lon="6.60958">
        <ele>1530.15</ele>
        <time>2018-08-26T09:39:32Z</time>
      </trkpt>
      <trkpt lat="44.333" lon="6.6098">
        <ele>1526.97</ele>
        <time>2018-08-26T09:39:34Z</time>
      </trkpt>
      <trkpt lat="44.33316" lon="6.61011">
        <ele>1524.55</ele>
        <time>2018-08-26T09:39:37Z</time>
      </trkpt>
      <trkpt lat="44.33345" lon="6.61029">
        <ele>1522.12</ele>
        <time>2018-08-26T09:39:39Z</time>
      </trkpt>
      <trkpt lat="44.33372" lon="6.61051">
        <ele>1519.17</ele>
        <time>2018-08-26T09:39:41Z</time>
      </trkpt>
      <trkpt lat="44.33395" lon="6.61085">
        <ele>1516.18</ele>
        <time>2018-08-26T09:39:43Z</time>
      </trkpt>
      <trkpt lat="44.3342" lon="6.61119">
        <ele>1513.67</ele>
        <time>2018-08-26T09:39:45Z</time>
      </trkpt>
      <trkpt lat="44.33443" lon="6.61139">
        <ele>1511.83</ele>
        <time>2018-08-26T09:39:47Z</time>
      </trkpt>
      <trkpt lat="44.33468" lon="6.61144">
        <ele>1511.46</ele>
        <time>2018-08-26T09:39:49Z</time>
      </trkpt>
      <trkpt lat="44.33502" lon="6.6114">
        <ele>1510.51</ele>
        <time>2018-08-26T09:39:51Z</time>
      </trkpt>
      <trkpt lat="44.33538" lon="6.61137">
        <ele>1507.91</ele>
        <time>2018-08-26T09:39:53Z</time>
      </trkpt>
      <trkpt lat="44.33573" lon="6.61137">
        <ele>1506.55</ele>
        <time>2018-08-26T09:39:55Z</time>
      </trkpt>
      <trkpt lat="44.33608" lon="6.61142">
        <ele>1503.91</ele>
        <time>2018-08-26T09:39:57Z</time>
      </trkpt>
      <trkpt lat="44.33643" lon="6.61153">
        <ele>1499.13</ele>
        <time>2018-08-26T09:39:59Z</time>
      </trkpt>
      <trkpt lat="44.33661" lon="6.61161">
        <ele>1497.23</ele>
        <time>2018-08-26T09:40:00Z</time>
      </trkpt>
      <trkpt lat="44.33677" lon="6.61173">
        <ele>1496.66</ele>
        <time>2018-08-26T09:40:01Z</time>
      </trkpt>
      <trkpt lat="44.33703" lon="6.61196">
        <ele>1494.62</ele>
        <time>2018-08-26T09:40:03Z</time>
      </trkpt>
      <trkpt lat="44.33725" lon="6.61206">
        <ele>1493.74</ele>
        <time>2018-08-26T09:40:05Z</time>
      </trkpt>
      <trkpt lat="44.33755" lon="6.61215">
        <ele>1490.72</ele>
        <time>2018-08-26T09:40:07Z</time>
      </trkpt>
      <trkpt lat="44.33788" lon="6.61219">
        <ele>1488.42</ele>
        <time>2018-08-26T09:40:09Z</time>
      </trkpt>
      <trkpt lat="44.3382" lon="6.6122">
        <ele>1486.6</ele>
        <time>2018-08-26T09:40:11Z</time>
      </trkpt>
      <trkpt lat="44.33844" lon="6.61233">
        <ele>1483.92</ele>
        <time>2018-08-26T09:40:13Z</time>
      </trkpt>
      <trkpt lat="44.33867" lon="6.6123">
        <ele>1481.86</ele>
        <time>2018-08-26T09:40:15Z</time>
      </trkpt>
      <trkpt lat="44.33891" lon="6.61225">
        <ele>1480.55</ele>
        <time>2018-08-26T09:40:17Z</time>
      </trkpt>
      <trkpt lat="44.33914" lon="6.61243">
        <ele>1479.52</ele>
        <time>2018-08-26T09:40:19Z</time>
      </trkpt>
      <trkpt lat="44.33937" lon="6.61274">
        <ele>1476.91</ele>
        <time>2018-08-26T09:40:21Z</time>
      </trkpt>
      <trkpt lat="44.33954" lon="6.61308">
        <ele>1472.34</ele>
        <time>2018-08-26T09:40:23Z</time>
      </trkpt>
      <trkpt lat="44.33967" lon="6.61345">
        <ele>1470.8</ele>
        <time>2018-08-26T09:40:25Z</time>
      </trkpt>
      <trkpt lat="44.33986" lon="6.61378">
        <ele>1468.85</ele>
        <time>2018-08-26T09:40:27Z</time>
      </trkpt>
      <trkpt lat="44.34004" lon="6.61402">
        <ele>1466.85</ele>
        <time>2018-08-26T09:40:29Z</time>
      </trkpt>
      <trkpt lat="44.34029" lon="6.61416">
        <ele>1465.06</ele>
        <time>2018-08-26T09:40:31Z</time>
      </trkpt>
      <trkpt lat="44.34059" lon="6.61424">
        <ele>1461.96</ele>
        <time>2018-08-26T09:40:33Z</time>
      </trkpt>
      <trkpt lat="44.34086" lon="6.61435">
        <ele>1458.25</ele>
        <time>2018-08-26T09:40:35Z</time>
      </trkpt>
      <trkpt lat="44.34103" lon="6.61452">
        <ele>1454.98</ele>
        <time>2018-08-26T09:40:37Z</time>
      </trkpt>
      <trkpt lat="44.34107" lon="6.61478">
        <ele>1453.07</ele>
        <time>2018-08-26T09:40:39Z</time>
      </trkpt>
      <trkpt lat="44.34121" lon="6.61501">
        <ele>1451.78</ele>
        <time>2018-08-26T09:40:41Z</time>
      </trkpt>
      <trkpt lat="44.34146" lon="6.61523">
        <ele>1451.45</ele>
        <time>2018-08-26T09:40:43Z</time>
      </trkpt>
      <trkpt lat="44.3417" lon="6.61536">
        <ele>1450.72</ele>
        <time>2018-08-26T09:40:45Z</time>
      </trkpt>
      <trkpt lat="44.34196" lon="6.61533">
        <ele>1450.45</ele>
        <time>2018-08-26T09:40:47Z</time>
      </trkpt>
      <trkpt lat="44.34219" lon="6.61537">
        <ele>1448.81</ele>
        <time>2018-08-26T09:40:49Z</time>
      </trkpt>
      <trkpt lat="44.3424" lon="6.61552">
        <ele>1446.15</ele>
        <time>2018-08-26T09:40:51Z</time>
      </trkpt>
      <trkpt lat="44.34264" lon="6.61557">
        <ele>1441.78</ele>
        <time>2018-08-26T09:40:53Z</time>
      </trkpt>
      <trkpt lat="44.34293" lon="6.6156">
        <ele>1438.93</ele>
        <time>2018-08-26T09:40:55Z</time>
      </trkpt>
      <trkpt lat="44.3432" lon="6.61582">
        <ele>1437.56</ele>
        <time>2018-08-26T09:40:57Z</time>
      </trkpt>
      <trkpt lat="44.34347" lon="6.6161">
        <ele>1436.52</ele>
        <time>2018-08-26T09:40:59Z</time>
      </trkpt>
      <trkpt lat="44.3437" lon="6.61631">
        <ele>1435.73</ele>
        <time>2018-08-26T09:41:01Z</time>
      </trkpt>
      <trkpt lat="44.34393" lon="6.61641">
        <ele>1434.54</ele>
        <time>2018-08-26T09:41:03Z</time>
      </trkpt>
      <trkpt lat="44.34417" lon="6.61636">
        <ele>1431.21</ele>
        <time>2018-08-26T09:41:05Z</time>
      </trkpt>
      <trkpt lat="44.3444" lon="6.61621">
        <ele>1428.67</ele>
        <time>2018-08-26T09:41:07Z</time>
      </trkpt>
      <trkpt lat="44.34459" lon="6.61603">
        <ele>1427.74</ele>
        <time>2018-08-26T09:41:09Z</time>
      </trkpt>
      <trkpt lat="44.34484" lon="6.61611">
        <ele>1424.85</ele>
        <time>2018-08-26T09:41:12Z</time>
      </trkpt>
      <trkpt lat="44.34505" lon="6.61619">
        <ele>1423.76</ele>
        <time>2018-08-26T09:41:14Z</time>
      </trkpt>
      <trkpt lat="44.34522" lon="6.61633">
        <ele>1422.54</ele>
        <time>2018-08-26T09:41:16Z</time>
      </trkpt>
      <trkpt lat="44.34534" lon="6.61655">
        <ele>1422.43</ele>
        <time>2018-08-26T09:41:18Z</time>
      </trkpt>
      <trkpt lat="44.34567" lon="6.61668">
        <ele>1419.9</ele>
        <time>2018-08-26T09:41:21Z</time>
      </trkpt>
      <trkpt lat="44.34597" lon="6.61677">
        <ele>1416.03</ele>
        <time>2018-08-26T09:41:23Z</time>
      </trkpt>
      <trkpt lat="44.34622" lon="6.61687">
        <ele>1412.96</ele>
        <time>2018-08-26T09:41:25Z</time>
      </trkpt>
      <trkpt lat="44.34648" lon="6.61682">
        <ele>1409.95</ele>
        <time>2018-08-26T09:41:27Z</time>
      </trkpt>
      <trkpt lat="44.34678" lon="6.61672">
        <ele>1408.77</ele>
        <time>2018-08-26T09:41:29Z</time>
      </trkpt>
      <trkpt lat="44.34712" lon="6.61659">
        <ele>1407.54</ele>
        <time>2018-08-26T09:41:31Z</time>
      </trkpt>
      <trkpt lat="44.3473" lon="6.6165">
        <ele>1406.76</ele>
        <time>2018-08-26T09:41:32Z</time>
      </trkpt>
      <trkpt lat="44.34746" lon="6.6164">
        <ele>1406.52</ele>
        <time>2018-08-26T09:41:33Z</time>
      </trkpt>
      <trkpt lat="44.34776" lon="6.61621">
        <ele>1403.42</ele>
        <time>2018-08-26T09:41:35Z</time>
      </trkpt>
      <trkpt lat="44.34805" lon="6.61626">
        <ele>1399.5</ele>
        <time>2018-08-26T09:41:37Z</time>
      </trkpt>
      <trkpt lat="44.3483" lon="6.61637">
        <ele>1398.52</ele>
        <time>2018-08-26T09:41:39Z</time>
      </trkpt>
      <trkpt lat="44.34853" lon="6.61639">
        <ele>1395.49</ele>
        <time>2018-08-26T09:41:41Z</time>
      </trkpt>
      <trkpt lat="44.34881" lon="6.61635">
        <ele>1395.43</ele>
        <time>2018-08-26T09:41:43Z</time>
      </trkpt>
      <trkpt lat="44.34904" lon="6.6163">
        <ele>1395.42</ele>
        <time>2018-08-26T09:41:44Z</time>
      </trkpt>
      <trkpt lat="44.34923" lon="6.61626">
        <ele>1395.42</ele>
        <time>2018-08-26T09:41:45Z</time>
      </trkpt>
      <trkpt lat="44.34958" lon="6.61623">
        <ele>1393.11</ele>
        <time>2018-08-26T09:41:47Z</time>
      </trkpt>
      <trkpt lat="44.34988" lon="6.61613">
        <ele>1389.26</ele>
        <time>2018-08-26T09:41:49Z</time>
      </trkpt>
      <trkpt lat="44.35011" lon="6.61607">
        <ele>1384.58</ele>
        <time>2018-08-26T09:41:51Z</time>
      </trkpt>
      <trkpt lat="44.35036" lon="6.61604">
        <ele>1381.91</ele>
        <time>2018-08-26T09:41:54Z</time>
      </trkpt>
      <trkpt lat="44.35057" lon="6.61598">
        <ele>1380.73</ele>
        <time>2018-08-26T09:41:57Z</time>
      </trkpt>
      <trkpt lat="44.35066" lon="6.6157">
        <ele>1375.94</ele>
        <time>2018-08-26T09:42:01Z</time>
      </trkpt>
      <trkpt lat="44.35068" lon="6.61545">
        <ele>1373.16</ele>
        <time>2018-08-26T09:42:03Z</time>
      </trkpt>
      <trkpt lat="44.35073" lon="6.61516">
        <ele>1369.27</ele>
        <time>2018-08-26T09:42:05Z</time>
      </trkpt>
      <trkpt lat="44.35082" lon="6.61488">
        <ele>1367.59</ele>
        <time>2018-08-26T09:42:07Z</time>
      </trkpt>
      <trkpt lat="44.35091" lon="6.61465">
        <ele>1365.83</ele>
        <time>2018-08-26T09:42:09Z</time>
      </trkpt>
      <trkpt lat="44.351" lon="6.61442">
        <ele>1363.36</ele>
        <time>2018-08-26T09:42:11Z</time>
      </trkpt>
      <trkpt lat="44.35117" lon="6.61431">
        <ele>1360.9</ele>
        <time>2018-08-26T09:42:13Z</time>
      </trkpt>
      <trkpt lat="44.35139" lon="6.61426">
        <ele>1359.97</ele>
        <time>2018-08-26T09:42:15Z</time>
      </trkpt>
      <trkpt lat="44.35161" lon="6.61424">
        <ele>1358.77</ele>
        <time>2018-08-26T09:42:17Z</time>
      </trkpt>
      <trkpt lat="44.35182" lon="6.61421">
        <ele>1359.36</ele>
        <time>2018-08-26T09:42:19Z</time>
      </trkpt>
      <trkpt lat="44.35203" lon="6.61416">
        <ele>1357.11</ele>
        <time>2018-08-26T09:42:21Z</time>
      </trkpt>
      <trkpt lat="44.35226" lon="6.61419">
        <ele>1355.47</ele>
        <time>2018-08-26T09:42:24Z</time>
      </trkpt>
      <trkpt lat="44.35235" lon="6.61443">
        <ele>1354.51</ele>
        <time>2018-08-26T09:42:27Z</time>
      </trkpt>
      <trkpt lat="44.35246" lon="6.61466">
        <ele>1354.64</ele>
        <time>2018-08-26T09:42:29Z</time>
      </trkpt>
      <trkpt lat="44.3526" lon="6.61492">
        <ele>1354.44</ele>
        <time>2018-08-26T09:42:31Z</time>
      </trkpt>
      <trkpt lat="44.35263" lon="6.61522">
        <ele>1353.72</ele>
        <time>2018-08-26T09:42:33Z</time>
      </trkpt>
      <trkpt lat="44.35262" lon="6.61556">
        <ele>1351.84</ele>
        <time>2018-08-26T09:42:35Z</time>
      </trkpt>
      <trkpt lat="44.35271" lon="6.61591">
        <ele>1349.85</ele>
        <time>2018-08-26T09:42:37Z</time>
      </trkpt>
      <trkpt lat="44.35281" lon="6.61618">
        <ele>1348.06</ele>
        <time>2018-08-26T09:42:39Z</time>
      </trkpt>
      <trkpt lat="44.35301" lon="6.61653">
        <ele>1344.96</ele>
        <time>2018-08-26T09:42:41Z</time>
      </trkpt>
      <trkpt lat="44.35322" lon="6.61689">
        <ele>1341.95</ele>
        <time>2018-08-26T09:42:43Z</time>
      </trkpt>
      <trkpt lat="44.35345" lon="6.6172">
        <ele>1338.04</ele>
        <time>2018-08-26T09:42:45Z</time>
      </trkpt>
      <trkpt lat="44.35374" lon="6.61742">
        <ele>1335.17</ele>
        <time>2018-08-26T09:42:47Z</time>
      </trkpt>
      <trkpt lat="44.35408" lon="6.6176">
        <ele>1331.97</ele>
        <time>2018-08-26T09:42:49Z</time>
      </trkpt>
      <trkpt lat="44.35426" lon="6.61771">
        <ele>1330.89</ele>
        <time>2018-08-26T09:42:50Z</time>
      </trkpt>
      <trkpt lat="44.35457" lon="6.61795">
        <ele>1328.85</ele>
        <time>2018-08-26T09:42:52Z</time>
      </trkpt>
      <trkpt lat="44.35484" lon="6.61827">
        <ele>1328.46</ele>
        <time>2018-08-26T09:42:54Z</time>
      </trkpt>
      <trkpt lat="44.35498" lon="6.61846">
        <ele>1328.43</ele>
        <time>2018-08-26T09:42:55Z</time>
      </trkpt>
      <trkpt lat="44.35513" lon="6.61866">
        <ele>1324.92</ele>
        <time>2018-08-26T09:42:56Z</time>
      </trkpt>
      <trkpt lat="44.35528" lon="6.61885">
        <ele>1323.87</ele>
        <time>2018-08-26T09:42:57Z</time>
      </trkpt>
      <trkpt lat="44.35543" lon="6.61906">
        <ele>1322.16</ele>
        <time>2018-08-26T09:42:58Z</time>
      </trkpt>
      <trkpt lat="44.35557" lon="6.61926">
        <ele>1318.14</ele>
        <time>2018-08-26T09:42:59Z</time>
      </trkpt>
      <trkpt lat="44.35571" lon="6.61944">
        <ele>1314.14</ele>
        <time>2018-08-26T09:43:00Z</time>
      </trkpt>
      <trkpt lat="44.3559" lon="6.61973">
        <ele>1310.97</ele>
        <time>2018-08-26T09:43:02Z</time>
      </trkpt>
      <trkpt lat="44.35604" lon="6.62002">
        <ele>1307.46</ele>
        <time>2018-08-26T09:43:04Z</time>
      </trkpt>
      <trkpt lat="44.3562" lon="6.62026">
        <ele>1304.9</ele>
        <time>2018-08-26T09:43:06Z</time>
      </trkpt>
      <trkpt lat="44.35641" lon="6.6203">
        <ele>1302.85</ele>
        <time>2018-08-26T09:43:08Z</time>
      </trkpt>
      <trkpt lat="44.35665" lon="6.62012">
        <ele>1301.55</ele>
        <time>2018-08-26T09:43:10Z</time>
      </trkpt>
      <trkpt lat="44.35686" lon="6.61981">
        <ele>1299.82</ele>
        <time>2018-08-26T09:43:12Z</time>
      </trkpt>
      <trkpt lat="44.357" lon="6.61951">
        <ele>1298.55</ele>
        <time>2018-08-26T09:43:14Z</time>
      </trkpt>
      <trkpt lat="44.35721" lon="6.61946">
        <ele>1295.14</ele>
        <time>2018-08-26T09:43:18Z</time>
      </trkpt>
      <trkpt lat="44.35735" lon="6.61965">
        <ele>1295.4</ele>
        <time>2018-08-26T09:43:20Z</time>
      </trkpt>
      <trkpt lat="44.35748" lon="6.61991">
        <ele>1293.81</ele>
        <time>2018-08-26T09:43:22Z</time>
      </trkpt>
      <trkpt lat="44.35768" lon="6.62009">
        <ele>1292.76</ele>
        <time>2018-08-26T09:43:24Z</time>
      </trkpt>
      <trkpt lat="44.35784" lon="6.62035">
        <ele>1292.66</ele>
        <time>2018-08-26T09:43:26Z</time>
      </trkpt>
      <trkpt lat="44.35801" lon="6.62063">
        <ele>1290.83</ele>
        <time>2018-08-26T09:43:28Z</time>
      </trkpt>
      <trkpt lat="44.35811" lon="6.62095">
        <ele>1288.85</ele>
        <time>2018-08-26T09:43:30Z</time>
      </trkpt>
      <trkpt lat="44.35823" lon="6.6212">
        <ele>1286.64</ele>
        <time>2018-08-26T09:43:32Z</time>
      </trkpt>
      <trkpt lat="44.35835" lon="6.62144">
        <ele>1284.62</ele>
        <time>2018-08-26T09:43:34Z</time>
      </trkpt>
      <trkpt lat="44.35856" lon="6.62164">
        <ele>1282.54</ele>
        <time>2018-08-26T09:43:37Z</time>
      </trkpt>
      <trkpt lat="44.35883" lon="6.62181">
        <ele>1282.43</ele>
        <time>2018-08-26T09:43:39Z</time>
      </trkpt>
      <trkpt lat="44.35901" lon="6.62184">
        <ele>1282.42</ele>
        <time>2018-08-26T09:43:40Z</time>
      </trkpt>
      <trkpt lat="44.3593" lon="6.62195">
        <ele>1280.81</ele>
        <time>2018-08-26T09:43:42Z</time>
      </trkpt>
      <trkpt lat="44.35952" lon="6.62216">
        <ele>1280.25</ele>
        <time>2018-08-26T09:43:44Z</time>
      </trkpt>
      <trkpt lat="44.35967" lon="6.62238">
        <ele>1278.59</ele>
        <time>2018-08-26T09:43:46Z</time>
      </trkpt>
      <trkpt lat="44.35995" lon="6.62229">
        <ele>1275.84</ele>
        <time>2018-08-26T09:43:49Z</time>
      </trkpt>
      <trkpt lat="44.36014" lon="6.62204">
        <ele>1273.85</ele>
        <time>2018-08-26T09:43:51Z</time>
      </trkpt>
      <trkpt lat="44.36037" lon="6.62213">
        <ele>1271.55</ele>
        <time>2018-08-26T09:43:54Z</time>
      </trkpt>
      <trkpt lat="44.36043" lon="6.6224">
        <ele>1268.91</ele>
        <time>2018-08-26T09:43:56Z</time>
      </trkpt>
      <trkpt lat="44.36056" lon="6.6226">
        <ele>1265.95</ele>
        <time>2018-08-26T09:43:58Z</time>
      </trkpt>
      <trkpt lat="44.36082" lon="6.62265">
        <ele>1264.77</ele>
        <time>2018-08-26T09:44:00Z</time>
      </trkpt>
      <trkpt lat="44.36115" lon="6.6227">
        <ele>1262.14</ele>
        <time>2018-08-26T09:44:02Z</time>
      </trkpt>
      <trkpt lat="44.36145" lon="6.6227">
        <ele>1259.18</ele>
        <time>2018-08-26T09:44:04Z</time>
      </trkpt>
      <trkpt lat="44.36175" lon="6.62261">
        <ele>1257.58</ele>
        <time>2018-08-26T09:44:06Z</time>
      </trkpt>
      <trkpt lat="44.36198" lon="6.62246">
        <ele>1254.01</ele>
        <time>2018-08-26T09:44:08Z</time>
      </trkpt>
      <trkpt lat="44.3623" lon="6.62258">
        <ele>1252.77</ele>
        <time>2018-08-26T09:44:10Z</time>
      </trkpt>
      <trkpt lat="44.36261" lon="6.62262">
        <ele>1249.93</ele>
        <time>2018-08-26T09:44:12Z</time>
      </trkpt>
      <trkpt lat="44.36287" lon="6.62262">
        <ele>1245.34</ele>
        <time>2018-08-26T09:44:14Z</time>
      </trkpt>
      <trkpt lat="44.36303" lon="6.62283">
        <ele>1242.89</ele>
        <time>2018-08-26T09:44:16Z</time>
      </trkpt>
      <trkpt lat="44.36315" lon="6.6232">
        <ele>1240.15</ele>
        <time>2018-08-26T09:44:18Z</time>
      </trkpt>
      <trkpt lat="44.36332" lon="6.62351">
        <ele>1236.27</ele>
        <time>2018-08-26T09:44:20Z</time>
      </trkpt>
      <trkpt lat="44.36357" lon="6.62372">
        <ele>1233.19</ele>
        <time>2018-08-26T09:44:22Z</time>
      </trkpt>
      <trkpt lat="44.36393" lon="6.62382">
        <ele>1231.09</ele>
        <time>2018-08-26T09:44:24Z</time>
      </trkpt>
      <trkpt lat="44.36412" lon="6.62385">
        <ele>1229.92</ele>
        <time>2018-08-26T09:44:25Z</time>
      </trkpt>
      <trkpt lat="44.36432" lon="6.62389">
        <ele>1228.87</ele>
        <time>2018-08-26T09:44:26Z</time>
      </trkpt>
      <trkpt lat="44.36452" lon="6.62394">
        <ele>1227.16</ele>
        <time>2018-08-26T09:44:27Z</time>
      </trkpt>
      <trkpt lat="44.36472" lon="6.624">
        <ele>1226.64</ele>
        <time>2018-08-26T09:44:28Z</time>
      </trkpt>
      <trkpt lat="44.36491" lon="6.62406">
        <ele>1225.79</ele>
        <time>2018-08-26T09:44:29Z</time>
      </trkpt>
      <trkpt lat="44.36509" lon="6.62414">
        <ele>1224.13</ele>
        <time>2018-08-26T09:44:30Z</time>
      </trkpt>
      <trkpt lat="44.36527" lon="6.62422">
        <ele>1222.23</ele>
        <time>2018-08-26T09:44:31Z</time>
      </trkpt>
      <trkpt lat="44.36555" lon="6.62437">
        <ele>1218.27</ele>
        <time>2018-08-26T09:44:33Z</time>
      </trkpt>
      <trkpt lat="44.36586" lon="6.62458">
        <ele>1216.1</ele>
        <time>2018-08-26T09:44:35Z</time>
      </trkpt>
      <trkpt lat="44.36603" lon="6.62468">
        <ele>1214.92</ele>
        <time>2018-08-26T09:44:36Z</time>
      </trkpt>
      <trkpt lat="44.36634" lon="6.62485">
        <ele>1212.86</ele>
        <time>2018-08-26T09:44:38Z</time>
      </trkpt>
      <trkpt lat="44.36666" lon="6.62499">
        <ele>1209.24</ele>
        <time>2018-08-26T09:44:40Z</time>
      </trkpt>
      <trkpt lat="44.36685" lon="6.62505">
        <ele>1207.27</ele>
        <time>2018-08-26T09:44:41Z</time>
      </trkpt>
      <trkpt lat="44.36704" lon="6.62509">
        <ele>1205.97</ele>
        <time>2018-08-26T09:44:42Z</time>
      </trkpt>
      <trkpt lat="44.36725" lon="6.62507">
        <ele>1204.89</ele>
        <time>2018-08-26T09:44:43Z</time>
      </trkpt>
      <trkpt lat="44.36747" lon="6.62503">
        <ele>1203.16</ele>
        <time>2018-08-26T09:44:44Z</time>
      </trkpt>
      <trkpt lat="44.36769" lon="6.62495">
        <ele>1202.64</ele>
        <time>2018-08-26T09:44:45Z</time>
      </trkpt>
      <trkpt lat="44.36793" lon="6.62485">
        <ele>1201.79</ele>
        <time>2018-08-26T09:44:46Z</time>
      </trkpt>
      <trkpt lat="44.36816" lon="6.62467">
        <ele>1198.73</ele>
        <time>2018-08-26T09:44:47Z</time>
      </trkpt>
      <trkpt lat="44.36839" lon="6.62454">
        <ele>1196.41</ele>
        <time>2018-08-26T09:44:48Z</time>
      </trkpt>
      <trkpt lat="44.3686" lon="6.62444">
        <ele>1194.32</ele>
        <time>2018-08-26T09:44:49Z</time>
      </trkpt>
      <trkpt lat="44.36882" lon="6.62434">
        <ele>1192.99</ele>
        <time>2018-08-26T09:44:50Z</time>
      </trkpt>
      <trkpt lat="44.36908" lon="6.62435">
        <ele>1190.49</ele>
        <time>2018-08-26T09:44:51Z</time>
      </trkpt>
      <trkpt lat="44.36933" lon="6.62435">
        <ele>1187.64</ele>
        <time>2018-08-26T09:44:52Z</time>
      </trkpt>
      <trkpt lat="44.3696" lon="6.62435">
        <ele>1184.69</ele>
        <time>2018-08-26T09:44:53Z</time>
      </trkpt>
      <trkpt lat="44.36986" lon="6.62436">
        <ele>1182.4</ele>
        <time>2018-08-26T09:44:54Z</time>
      </trkpt>
      <trkpt lat="44.37012" lon="6.62437">
        <ele>1180.31</ele>
        <time>2018-08-26T09:44:55Z</time>
      </trkpt>
      <trkpt lat="44.37036" lon="6.62437">
        <ele>1178.29</ele>
        <time>2018-08-26T09:44:56Z</time>
      </trkpt>
      <trkpt lat="44.3706" lon="6.62436">
        <ele>1176.28</ele>
        <time>2018-08-26T09:44:57Z</time>
      </trkpt>
      <trkpt lat="44.37082" lon="6.62433">
        <ele>1174.28</ele>
        <time>2018-08-26T09:44:58Z</time>
      </trkpt>
      <trkpt lat="44.37105" lon="6.62429">
        <ele>1172.98</ele>
        <time>2018-08-26T09:44:59Z</time>
      </trkpt>
      <trkpt lat="44.37127" lon="6.6242">
        <ele>1171.89</ele>
        <time>2018-08-26T09:45:00Z</time>
      </trkpt>
      <trkpt lat="44.37147" lon="6.62404">
        <ele>1169.46</ele>
        <time>2018-08-26T09:45:01Z</time>
      </trkpt>
      <trkpt lat="44.37168" lon="6.62388">
        <ele>1167.33</ele>
        <time>2018-08-26T09:45:02Z</time>
      </trkpt>
      <trkpt lat="44.37189" lon="6.62369">
        <ele>1164.59</ele>
        <time>2018-08-26T09:45:03Z</time>
      </trkpt>
      <trkpt lat="44.37208" lon="6.62344">
        <ele>1162.37</ele>
        <time>2018-08-26T09:45:04Z</time>
      </trkpt>
      <trkpt lat="44.37226" lon="6.6232">
        <ele>1161.01</ele>
        <time>2018-08-26T09:45:05Z</time>
      </trkpt>
      <trkpt lat="44.37244" lon="6.62295">
        <ele>1159.2</ele>
        <time>2018-08-26T09:45:06Z</time>
      </trkpt>
      <trkpt lat="44.37259" lon="6.62271">
        <ele>1157.25</ele>
        <time>2018-08-26T09:45:07Z</time>
      </trkpt>
      <trkpt lat="44.3727" lon="6.62249">
        <ele>1155.97</ele>
        <time>2018-08-26T09:45:08Z</time>
      </trkpt>
      <trkpt lat="44.37292" lon="6.62223">
        <ele>1152.95</ele>
        <time>2018-08-26T09:45:10Z</time>
      </trkpt>
      <trkpt lat="44.37316" lon="6.62224">
        <ele>1150.86</ele>
        <time>2018-08-26T09:45:12Z</time>
      </trkpt>
      <trkpt lat="44.37343" lon="6.62247">
        <ele>1148.15</ele>
        <time>2018-08-26T09:45:14Z</time>
      </trkpt>
      <trkpt lat="44.37357" lon="6.62263">
        <ele>1146.94</ele>
        <time>2018-08-26T09:45:15Z</time>
      </trkpt>
      <trkpt lat="44.37374" lon="6.62279">
        <ele>1145.18</ele>
        <time>2018-08-26T09:45:16Z</time>
      </trkpt>
      <trkpt lat="44.37391" lon="6.62295">
        <ele>1143.95</ele>
        <time>2018-08-26T09:45:17Z</time>
      </trkpt>
      <trkpt lat="44.37408" lon="6.62312">
        <ele>1142.88</ele>
        <time>2018-08-26T09:45:18Z</time>
      </trkpt>
      <trkpt lat="44.37425" lon="6.62328">
        <ele>1141.16</ele>
        <time>2018-08-26T09:45:19Z</time>
      </trkpt>
      <trkpt lat="44.37441" lon="6.62347">
        <ele>1139.24</ele>
        <time>2018-08-26T09:45:20Z</time>
      </trkpt>
      <trkpt lat="44.37456" lon="6.62367">
        <ele>1137.97</ele>
        <time>2018-08-26T09:45:21Z</time>
      </trkpt>
      <trkpt lat="44.3747" lon="6.62389">
        <ele>1136.88</ele>
        <time>2018-08-26T09:45:22Z</time>
      </trkpt>
      <trkpt lat="44.37481" lon="6.62414">
        <ele>1136.56</ele>
        <time>2018-08-26T09:45:23Z</time>
      </trkpt>
      <trkpt lat="44.37491" lon="6.62442">
        <ele>1135.06</ele>
        <time>2018-08-26T09:45:24Z</time>
      </trkpt>
      <trkpt lat="44.37498" lon="6.62471">
        <ele>1134.61</ele>
        <time>2018-08-26T09:45:25Z</time>
      </trkpt>
      <trkpt lat="44.37502" lon="6.62501">
        <ele>1134.48</ele>
        <time>2018-08-26T09:45:26Z</time>
      </trkpt>
      <trkpt lat="44.37506" lon="6.62531">
        <ele>1135.14</ele>
        <time>2018-08-26T09:45:27Z</time>
      </trkpt>
      <trkpt lat="44.37511" lon="6.62562">
        <ele>1135.34</ele>
        <time>2018-08-26T09:45:28Z</time>
      </trkpt>
      <trkpt lat="44.37515" lon="6.62593">
        <ele>1134.7</ele>
        <time>2018-08-26T09:45:29Z</time>
      </trkpt>
      <trkpt lat="44.37519" lon="6.62623">
        <ele>1134.5</ele>
        <time>2018-08-26T09:45:30Z</time>
      </trkpt>
      <trkpt lat="44.37522" lon="6.62651">
        <ele>1134.45</ele>
        <time>2018-08-26T09:45:31Z</time>
      </trkpt>
      <trkpt lat="44.37526" lon="6.62678">
        <ele>1134.43</ele>
        <time>2018-08-26T09:45:32Z</time>
      </trkpt>
      <trkpt lat="44.37538" lon="6.62723">
        <ele>1134.42</ele>
        <time>2018-08-26T09:45:34Z</time>
      </trkpt>
      <trkpt lat="44.37562" lon="6.62756">
        <ele>1132.11</ele>
        <time>2018-08-26T09:45:36Z</time>
      </trkpt>
      <trkpt lat="44.37597" lon="6.62775">
        <ele>1131.48</ele>
        <time>2018-08-26T09:45:38Z</time>
      </trkpt>
      <trkpt lat="44.37617" lon="6.62782">
        <ele>1131.44</ele>
        <time>2018-08-26T09:45:39Z</time>
      </trkpt>
      <trkpt lat="44.37638" lon="6.62788">
        <ele>1130.73</ele>
        <time>2018-08-26T09:45:40Z</time>
      </trkpt>
      <trkpt lat="44.37659" lon="6.62794">
        <ele>1129.81</ele>
        <time>2018-08-26T09:45:41Z</time>
      </trkpt>
      <trkpt lat="44.3768" lon="6.62799">
        <ele>1128.84</ele>
        <time>2018-08-26T09:45:42Z</time>
      </trkpt>
      <trkpt lat="44.377" lon="6.62805">
        <ele>1128.55</ele>
        <time>2018-08-26T09:45:43Z</time>
      </trkpt>
      <trkpt lat="44.3772" lon="6.6281">
        <ele>1127.76</ele>
        <time>2018-08-26T09:45:44Z</time>
      </trkpt>
      <trkpt lat="44.3774" lon="6.62816">
        <ele>1127.52</ele>
        <time>2018-08-26T09:45:45Z</time>
      </trkpt>
      <trkpt lat="44.3776" lon="6.62822">
        <ele>1126.75</ele>
        <time>2018-08-26T09:45:46Z</time>
      </trkpt>
      <trkpt lat="44.3778" lon="6.62827">
        <ele>1125.82</ele>
        <time>2018-08-26T09:45:47Z</time>
      </trkpt>
      <trkpt lat="44.378" lon="6.62832">
        <ele>1125.54</ele>
        <time>2018-08-26T09:45:48Z</time>
      </trkpt>
      <trkpt lat="44.37831" lon="6.62841">
        <ele>1125.43</ele>
        <time>2018-08-26T09:45:50Z</time>
      </trkpt>
      <trkpt lat="44.3786" lon="6.62847">
        <ele>1124.51</ele>
        <time>2018-08-26T09:45:52Z</time>
      </trkpt>
      <trkpt lat="44.3789" lon="6.62856">
        <ele>1123.52</ele>
        <time>2018-08-26T09:45:54Z</time>
      </trkpt>
      <trkpt lat="44.37919" lon="6.62869">
        <ele>1122.73</ele>
        <time>2018-08-26T09:45:56Z</time>
      </trkpt>
      <trkpt lat="44.37949" lon="6.62884">
        <ele>1122.45</ele>
        <time>2018-08-26T09:45:58Z</time>
      </trkpt>
      <trkpt lat="44.37979" lon="6.62901">
        <ele>1121.72</ele>
        <time>2018-08-26T09:46:00Z</time>
      </trkpt>
      <trkpt lat="44.38009" lon="6.62917">
        <ele>1120.75</ele>
        <time>2018-08-26T09:46:02Z</time>
      </trkpt>
      <trkpt lat="44.38041" lon="6.62935">
        <ele>1120.45</ele>
        <time>2018-08-26T09:46:04Z</time>
      </trkpt>
      <trkpt lat="44.38071" lon="6.62956">
        <ele>1119.51</ele>
        <time>2018-08-26T09:46:06Z</time>
      </trkpt>
      <trkpt lat="44.38101" lon="6.62985">
        <ele>1118.73</ele>
        <time>2018-08-26T09:46:08Z</time>
      </trkpt>
      <trkpt lat="44.38115" lon="6.63001">
        <ele>1118.51</ele>
        <time>2018-08-26T09:46:09Z</time>
      </trkpt>
      <trkpt lat="44.3813" lon="6.63018">
        <ele>1117.75</ele>
        <time>2018-08-26T09:46:10Z</time>
      </trkpt>
      <trkpt lat="44.38144" lon="6.63035">
        <ele>1116.82</ele>
        <time>2018-08-26T09:46:11Z</time>
      </trkpt>
      <trkpt lat="44.38158" lon="6.63051">
        <ele>1116.54</ele>
        <time>2018-08-26T09:46:12Z</time>
      </trkpt>
      <trkpt lat="44.38173" lon="6.63068">
        <ele>1115.76</ele>
        <time>2018-08-26T09:46:13Z</time>
      </trkpt>
      <trkpt lat="44.38187" lon="6.63087">
        <ele>1115.52</ele>
        <time>2018-08-26T09:46:14Z</time>
      </trkpt>
      <trkpt lat="44.382" lon="6.63105">
        <ele>1115.45</ele>
        <time>2018-08-26T09:46:15Z</time>
      </trkpt>
      <trkpt lat="44.38212" lon="6.63125">
        <ele>1114.73</ele>
        <time>2018-08-26T09:46:16Z</time>
      </trkpt>
      <trkpt lat="44.38228" lon="6.63167">
        <ele>1114.45</ele>
        <time>2018-08-26T09:46:18Z</time>
      </trkpt>
      <trkpt lat="44.38241" lon="6.63212">
        <ele>1113.51</ele>
        <time>2018-08-26T09:46:20Z</time>
      </trkpt>
      <trkpt lat="44.38254" lon="6.63257">
        <ele>1113.43</ele>
        <time>2018-08-26T09:46:22Z</time>
      </trkpt>
      <trkpt lat="44.38266" lon="6.63301">
        <ele>1112.51</ele>
        <time>2018-08-26T09:46:24Z</time>
      </trkpt>
      <trkpt lat="44.3828" lon="6.63346">
        <ele>1112.43</ele>
        <time>2018-08-26T09:46:26Z</time>
      </trkpt>
      <trkpt lat="44.38289" lon="6.63391">
        <ele>1110.6</ele>
        <time>2018-08-26T09:46:28Z</time>
      </trkpt>
      <trkpt lat="44.38294" lon="6.63439">
        <ele>1108.83</ele>
        <time>2018-08-26T09:46:30Z</time>
      </trkpt>
      <trkpt lat="44.38298" lon="6.63489">
        <ele>1110.07</ele>
        <time>2018-08-26T09:46:32Z</time>
      </trkpt>
      <trkpt lat="44.38299" lon="6.63514">
        <ele>1111.02</ele>
        <time>2018-08-26T09:46:33Z</time>
      </trkpt>
      <trkpt lat="44.383" lon="6.6354">
        <ele>1110.6</ele>
        <time>2018-08-26T09:46:34Z</time>
      </trkpt>
      <trkpt lat="44.38301" lon="6.63567">
        <ele>1111.17</ele>
        <time>2018-08-26T09:46:35Z</time>
      </trkpt>
      <trkpt lat="44.38302" lon="6.63593">
        <ele>1112.05</ele>
        <time>2018-08-26T09:46:36Z</time>
      </trkpt>
      <trkpt lat="44.38303" lon="6.63618">
        <ele>1112.31</ele>
        <time>2018-08-26T09:46:37Z</time>
      </trkpt>
      <trkpt lat="44.38304" lon="6.63643">
        <ele>1113.09</ele>
        <time>2018-08-26T09:46:38Z</time>
      </trkpt>
      <trkpt lat="44.38308" lon="6.63693">
        <ele>1113.39</ele>
        <time>2018-08-26T09:46:40Z</time>
      </trkpt>
      <trkpt lat="44.38314" lon="6.63742">
        <ele>1113.42</ele>
        <time>2018-08-26T09:46:42Z</time>
      </trkpt>
      <trkpt lat="44.38322" lon="6.6379">
        <ele>1111.81</ele>
        <time>2018-08-26T09:46:44Z</time>
      </trkpt>
      <trkpt lat="44.38328" lon="6.63839">
        <ele>1112.16</ele>
        <time>2018-08-26T09:46:46Z</time>
      </trkpt>
      <trkpt lat="44.38337" lon="6.63888">
        <ele>1113.31</ele>
        <time>2018-08-26T09:46:48Z</time>
      </trkpt>
      <trkpt lat="44.38341" lon="6.63914">
        <ele>1114.09</ele>
        <time>2018-08-26T09:46:49Z</time>
      </trkpt>
      <trkpt lat="44.38344" lon="6.63939">
        <ele>1115.02</ele>
        <time>2018-08-26T09:46:50Z</time>
      </trkpt>
      <trkpt lat="44.38347" lon="6.63964">
        <ele>1115.3</ele>
        <time>2018-08-26T09:46:51Z</time>
      </trkpt>
      <trkpt lat="44.38354" lon="6.64013">
        <ele>1116.53</ele>
        <time>2018-08-26T09:46:53Z</time>
      </trkpt>
      <trkpt lat="44.38362" lon="6.6406">
        <ele>1116.43</ele>
        <time>2018-08-26T09:46:55Z</time>
      </trkpt>
      <trkpt lat="44.38368" lon="6.641">
        <ele>1115.72</ele>
        <time>2018-08-26T09:46:57Z</time>
      </trkpt>
      <trkpt lat="44.38373" lon="6.64138">
        <ele>1117.27</ele>
        <time>2018-08-26T09:46:59Z</time>
      </trkpt>
      <trkpt lat="44.38378" lon="6.64176">
        <ele>1116.71</ele>
        <time>2018-08-26T09:47:01Z</time>
      </trkpt>
      <trkpt lat="44.38384" lon="6.64214">
        <ele>1116.45</ele>
        <time>2018-08-26T09:47:03Z</time>
      </trkpt>
      <trkpt lat="44.38389" lon="6.64253">
        <ele>1116.42</ele>
        <time>2018-08-26T09:47:05Z</time>
      </trkpt>
      <trkpt lat="44.38394" lon="6.64295">
        <ele>1116.42</ele>
        <time>2018-08-26T09:47:07Z</time>
      </trkpt>
      <trkpt lat="44.384" lon="6.64336">
        <ele>1118.03</ele>
        <time>2018-08-26T09:47:09Z</time>
      </trkpt>
      <trkpt lat="44.38407" lon="6.64378">
        <ele>1118.39</ele>
        <time>2018-08-26T09:47:11Z</time>
      </trkpt>
      <trkpt lat="44.38415" lon="6.64419">
        <ele>1118.42</ele>
        <time>2018-08-26T09:47:13Z</time>
      </trkpt>
      <trkpt lat="44.38421" lon="6.64461">
        <ele>1118.42</ele>
        <time>2018-08-26T09:47:15Z</time>
      </trkpt>
      <trkpt lat="44.38429" lon="6.64504">
        <ele>1117.72</ele>
        <time>2018-08-26T09:47:17Z</time>
      </trkpt>
      <trkpt lat="44.38435" lon="6.64547">
        <ele>1118.15</ele>
        <time>2018-08-26T09:47:19Z</time>
      </trkpt>
      <trkpt lat="44.3844" lon="6.64589">
        <ele>1117.7</ele>
        <time>2018-08-26T09:47:21Z</time>
      </trkpt>
      <trkpt lat="44.38446" lon="6.64632">
        <ele>1119.06</ele>
        <time>2018-08-26T09:47:23Z</time>
      </trkpt>
      <trkpt lat="44.3845" lon="6.64675">
        <ele>1119.18</ele>
        <time>2018-08-26T09:47:25Z</time>
      </trkpt>
      <trkpt lat="44.38453" lon="6.6472">
        <ele>1120.31</ele>
        <time>2018-08-26T09:47:27Z</time>
      </trkpt>
      <trkpt lat="44.38453" lon="6.64764">
        <ele>1120.41</ele>
        <time>2018-08-26T09:47:29Z</time>
      </trkpt>
      <trkpt lat="44.38448" lon="6.64803">
        <ele>1121.33</ele>
        <time>2018-08-26T09:47:31Z</time>
      </trkpt>
      <trkpt lat="44.38451" lon="6.64835">
        <ele>1121.41</ele>
        <time>2018-08-26T09:47:33Z</time>
      </trkpt>
      <trkpt lat="44.38465" lon="6.64854">
        <ele>1121.42</ele>
        <time>2018-08-26T09:47:35Z</time>
      </trkpt>
      <trkpt lat="44.38482" lon="6.64864">
        <ele>1120.72</ele>
        <time>2018-08-26T09:47:37Z</time>
      </trkpt>
      <trkpt lat="44.38501" lon="6.64879">
        <ele>1121.21</ele>
        <time>2018-08-26T09:47:41Z</time>
      </trkpt>
      <trkpt lat="44.38516" lon="6.64901">
        <ele>1121.12</ele>
        <time>2018-08-26T09:47:58Z</time>
      </trkpt>
      <trkpt lat="44.3853" lon="6.64927">
        <ele>1121.14</ele>
        <time>2018-08-26T09:48:01Z</time>
      </trkpt>
      <trkpt lat="44.38544" lon="6.64956">
        <ele>1120.44</ele>
        <time>2018-08-26T09:48:04Z</time>
      </trkpt>
      <trkpt lat="44.38556" lon="6.64984">
        <ele>1120.42</ele>
        <time>2018-08-26T09:48:07Z</time>
      </trkpt>
      <trkpt lat="44.38568" lon="6.65011">
        <ele>1120.42</ele>
        <time>2018-08-26T09:48:10Z</time>
      </trkpt>
      <trkpt lat="44.38577" lon="6.65039">
        <ele>1121.33</ele>
        <time>2018-08-26T09:48:13Z</time>
      </trkpt>
      <trkpt lat="44.38583" lon="6.65066">
        <ele>1121.42</ele>
        <time>2018-08-26T09:48:16Z</time>
      </trkpt>
      <trkpt lat="44.38581" lon="6.65092">
        <ele>1123.09</ele>
        <time>2018-08-26T09:48:20Z</time>
      </trkpt>
      <trkpt lat="44.38571" lon="6.65115">
        <ele>1123.42</ele>
        <time>2018-08-26T09:48:27Z</time>
      </trkpt>
      <trkpt lat="44.3859" lon="6.65108">
        <ele>1130.72</ele>
        <time>2018-08-26T09:55:43Z</time>
      </trkpt>
      <trkpt lat="44.38594" lon="6.65083">
        <ele>1129.66</ele>
        <time>2018-08-26T09:55:51Z</time>
      </trkpt>
      <trkpt lat="44.38587" lon="6.65059">
        <ele>1127.82</ele>
        <time>2018-08-26T09:55:54Z</time>
      </trkpt>
      <trkpt lat="44.38578" lon="6.65033">
        <ele>1123.73</ele>
        <time>2018-08-26T09:55:57Z</time>
      </trkpt>
      <trkpt lat="44.38568" lon="6.65003">
        <ele>1123.43</ele>
        <time>2018-08-26T09:56:00Z</time>
      </trkpt>
      <trkpt lat="44.38555" lon="6.64975">
        <ele>1124.18</ele>
        <time>2018-08-26T09:56:03Z</time>
      </trkpt>
      <trkpt lat="44.38542" lon="6.64946">
        <ele>1126.02</ele>
        <time>2018-08-26T09:56:06Z</time>
      </trkpt>
      <trkpt lat="44.38529" lon="6.64917">
        <ele>1126.35</ele>
        <time>2018-08-26T09:56:09Z</time>
      </trkpt>
      <trkpt lat="44.38517" lon="6.64893">
        <ele>1127.12</ele>
        <time>2018-08-26T09:56:12Z</time>
      </trkpt>
      <trkpt lat="44.38507" lon="6.64869">
        <ele>1129.09</ele>
        <time>2018-08-26T09:56:15Z</time>
      </trkpt>
      <trkpt lat="44.38505" lon="6.64836">
        <ele>1128.44</ele>
        <time>2018-08-26T09:56:18Z</time>
      </trkpt>
      <trkpt lat="44.38511" lon="6.64809">
        <ele>1128.42</ele>
        <time>2018-08-26T09:56:20Z</time>
      </trkpt>
      <trkpt lat="44.38518" lon="6.64781">
        <ele>1128.42</ele>
        <time>2018-08-26T09:56:22Z</time>
      </trkpt>
      <trkpt lat="44.38526" lon="6.64751">
        <ele>1128.42</ele>
        <time>2018-08-26T09:56:24Z</time>
      </trkpt>
      <trkpt lat="44.38534" lon="6.64718">
        <ele>1128.42</ele>
        <time>2018-08-26T09:56:26Z</time>
      </trkpt>
      <trkpt lat="44.38542" lon="6.64684">
        <ele>1128.42</ele>
        <time>2018-08-26T09:56:28Z</time>
      </trkpt>
      <trkpt lat="44.3855" lon="6.64648">
        <ele>1128.42</ele>
        <time>2018-08-26T09:56:30Z</time>
      </trkpt>
      <trkpt lat="44.38559" lon="6.6461">
        <ele>1129.12</ele>
        <time>2018-08-26T09:56:32Z</time>
      </trkpt>
      <trkpt lat="44.38565" lon="6.64572">
        <ele>1129.39</ele>
        <time>2018-08-26T09:56:34Z</time>
      </trkpt>
      <trkpt lat="44.38572" lon="6.64532">
        <ele>1129.42</ele>
        <time>2018-08-26T09:56:36Z</time>
      </trkpt>
      <trkpt lat="44.38579" lon="6.64494">
        <ele>1129.21</ele>
        <time>2018-08-26T09:56:38Z</time>
      </trkpt>
      <trkpt lat="44.38587" lon="6.64456">
        <ele>1129.4</ele>
        <time>2018-08-26T09:56:40Z</time>
      </trkpt>
      <trkpt lat="44.38593" lon="6.64418">
        <ele>1130.12</ele>
        <time>2018-08-26T09:56:42Z</time>
      </trkpt>
      <trkpt lat="44.38599" lon="6.64382">
        <ele>1130.39</ele>
        <time>2018-08-26T09:56:44Z</time>
      </trkpt>
      <trkpt lat="44.38605" lon="6.64349">
        <ele>1130.42</ele>
        <time>2018-08-26T09:56:46Z</time>
      </trkpt>
      <trkpt lat="44.38611" lon="6.64318">
        <ele>1130.42</ele>
        <time>2018-08-26T09:56:48Z</time>
      </trkpt>
      <trkpt lat="44.3862" lon="6.64286">
        <ele>1129.78</ele>
        <time>2018-08-26T09:56:51Z</time>
      </trkpt>
      <trkpt lat="44.38632" lon="6.64263">
        <ele>1129.43</ele>
        <time>2018-08-26T09:56:54Z</time>
      </trkpt>
      <trkpt lat="44.38631" lon="6.64226">
        <ele>1128.45</ele>
        <time>2018-08-26T09:56:57Z</time>
      </trkpt>
      <trkpt lat="44.38632" lon="6.64194">
        <ele>1128.42</ele>
        <time>2018-08-26T09:56:59Z</time>
      </trkpt>
      <trkpt lat="44.38633" lon="6.64155">
        <ele>1128.42</ele>
        <time>2018-08-26T09:57:01Z</time>
      </trkpt>
      <trkpt lat="44.38634" lon="6.64116">
        <ele>1128.42</ele>
        <time>2018-08-26T09:57:03Z</time>
      </trkpt>
      <trkpt lat="44.38634" lon="6.64076">
        <ele>1128.42</ele>
        <time>2018-08-26T09:57:05Z</time>
      </trkpt>
      <trkpt lat="44.38635" lon="6.64036">
        <ele>1127.51</ele>
        <time>2018-08-26T09:57:07Z</time>
      </trkpt>
      <trkpt lat="44.38636" lon="6.63996">
        <ele>1127.43</ele>
        <time>2018-08-26T09:57:09Z</time>
      </trkpt>
      <trkpt lat="44.38637" lon="6.63953">
        <ele>1127.63</ele>
        <time>2018-08-26T09:57:11Z</time>
      </trkpt>
      <trkpt lat="44.38636" lon="6.6391">
        <ele>1128.35</ele>
        <time>2018-08-26T09:57:13Z</time>
      </trkpt>
      <trkpt lat="44.38635" lon="6.63865">
        <ele>1128.41</ele>
        <time>2018-08-26T09:57:15Z</time>
      </trkpt>
      <trkpt lat="44.38635" lon="6.63821">
        <ele>1128.42</ele>
        <time>2018-08-26T09:57:17Z</time>
      </trkpt>
      <trkpt lat="44.38633" lon="6.63778">
        <ele>1128.21</ele>
        <time>2018-08-26T09:57:19Z</time>
      </trkpt>
      <trkpt lat="44.38632" lon="6.63733">
        <ele>1127.49</ele>
        <time>2018-08-26T09:57:21Z</time>
      </trkpt>
      <trkpt lat="44.38632" lon="6.63687">
        <ele>1128.13</ele>
        <time>2018-08-26T09:57:23Z</time>
      </trkpt>
      <trkpt lat="44.38633" lon="6.63642">
        <ele>1127.69</ele>
        <time>2018-08-26T09:57:25Z</time>
      </trkpt>
      <trkpt lat="44.38633" lon="6.63596">
        <ele>1126.75</ele>
        <time>2018-08-26T09:57:27Z</time>
      </trkpt>
      <trkpt lat="44.38633" lon="6.6355">
        <ele>1126.45</ele>
        <time>2018-08-26T09:57:29Z</time>
      </trkpt>
      <trkpt lat="44.38633" lon="6.63504">
        <ele>1126.42</ele>
        <time>2018-08-26T09:57:31Z</time>
      </trkpt>
      <trkpt lat="44.38632" lon="6.63458">
        <ele>1126.42</ele>
        <time>2018-08-26T09:57:33Z</time>
      </trkpt>
      <trkpt lat="44.38633" lon="6.63412">
        <ele>1126.42</ele>
        <time>2018-08-26T09:57:35Z</time>
      </trkpt>
      <trkpt lat="44.38633" lon="6.63364">
        <ele>1126.42</ele>
        <time>2018-08-26T09:57:37Z</time>
      </trkpt>
      <trkpt lat="44.38633" lon="6.63318">
        <ele>1125.72</ele>
        <time>2018-08-26T09:57:39Z</time>
      </trkpt>
      <trkpt lat="44.38633" lon="6.63272">
        <ele>1124.75</ele>
        <time>2018-08-26T09:57:41Z</time>
      </trkpt>
      <trkpt lat="44.38632" lon="6.63226">
        <ele>1123.54</ele>
        <time>2018-08-26T09:57:43Z</time>
      </trkpt>
      <trkpt lat="44.38633" lon="6.6318">
        <ele>1123.43</ele>
        <time>2018-08-26T09:57:45Z</time>
      </trkpt>
      <trkpt lat="44.38633" lon="6.63133">
        <ele>1122.72</ele>
        <time>2018-08-26T09:57:47Z</time>
      </trkpt>
      <trkpt lat="44.38633" lon="6.63086">
        <ele>1122.45</ele>
        <time>2018-08-26T09:57:49Z</time>
      </trkpt>
      <trkpt lat="44.38633" lon="6.63041">
        <ele>1121.72</ele>
        <time>2018-08-26T09:57:51Z</time>
      </trkpt>
      <trkpt lat="44.38636" lon="6.62999">
        <ele>1121.45</ele>
        <time>2018-08-26T09:57:53Z</time>
      </trkpt>
      <trkpt lat="44.38642" lon="6.62965">
        <ele>1121.42</ele>
        <time>2018-08-26T09:57:55Z</time>
      </trkpt>
      <trkpt lat="44.38653" lon="6.62939">
        <ele>1119.81</ele>
        <time>2018-08-26T09:57:57Z</time>
      </trkpt>
      <trkpt lat="44.38653" lon="6.62907">
        <ele>1118.73</ele>
        <time>2018-08-26T09:58:00Z</time>
      </trkpt>
      <trkpt lat="44.38643" lon="6.62872">
        <ele>1119.4</ele>
        <time>2018-08-26T09:58:03Z</time>
      </trkpt>
      <trkpt lat="44.38638" lon="6.6284">
        <ele>1118.72</ele>
        <time>2018-08-26T09:58:05Z</time>
      </trkpt>
      <trkpt lat="44.38635" lon="6.62802">
        <ele>1118.45</ele>
        <time>2018-08-26T09:58:07Z</time>
      </trkpt>
      <trkpt lat="44.38634" lon="6.62757">
        <ele>1117.51</ele>
        <time>2018-08-26T09:58:09Z</time>
      </trkpt>
      <trkpt lat="44.38633" lon="6.62708">
        <ele>1117.43</ele>
        <time>2018-08-26T09:58:11Z</time>
      </trkpt>
      <trkpt lat="44.38633" lon="6.62658">
        <ele>1117.63</ele>
        <time>2018-08-26T09:58:13Z</time>
      </trkpt>
      <trkpt lat="44.38633" lon="6.62632">
        <ele>1116.78</ele>
        <time>2018-08-26T09:58:14Z</time>
      </trkpt>
      <trkpt lat="44.38632" lon="6.62581">
        <ele>1117.15</ele>
        <time>2018-08-26T09:58:16Z</time>
      </trkpt>
      <trkpt lat="44.38633" lon="6.62554">
        <ele>1116.64</ele>
        <time>2018-08-26T09:58:17Z</time>
      </trkpt>
      <trkpt lat="44.38632" lon="6.62528">
        <ele>1116.49</ele>
        <time>2018-08-26T09:58:18Z</time>
      </trkpt>
      <trkpt lat="44.38633" lon="6.625">
        <ele>1115.74</ele>
        <time>2018-08-26T09:58:19Z</time>
      </trkpt>
      <trkpt lat="44.38633" lon="6.62473">
        <ele>1115.52</ele>
        <time>2018-08-26T09:58:20Z</time>
      </trkpt>
      <trkpt lat="44.38633" lon="6.62445">
        <ele>1115.45</ele>
        <time>2018-08-26T09:58:21Z</time>
      </trkpt>
      <trkpt lat="44.38632" lon="6.62418">
        <ele>1114.73</ele>
        <time>2018-08-26T09:58:22Z</time>
      </trkpt>
      <trkpt lat="44.38632" lon="6.6239">
        <ele>1114.51</ele>
        <time>2018-08-26T09:58:23Z</time>
      </trkpt>
      <trkpt lat="44.38632" lon="6.62363">
        <ele>1115.15</ele>
        <time>2018-08-26T09:58:24Z</time>
      </trkpt>
      <trkpt lat="44.38632" lon="6.62335">
        <ele>1115.34</ele>
        <time>2018-08-26T09:58:25Z</time>
      </trkpt>
      <trkpt lat="44.38633" lon="6.62308">
        <ele>1115.4</ele>
        <time>2018-08-26T09:58:26Z</time>
      </trkpt>
      <trkpt lat="44.38633" lon="6.62281">
        <ele>1115.41</ele>
        <time>2018-08-26T09:58:27Z</time>
      </trkpt>
      <trkpt lat="44.38633" lon="6.62254">
        <ele>1115.42</ele>
        <time>2018-08-26T09:58:28Z</time>
      </trkpt>
      <trkpt lat="44.38632" lon="6.62226">
        <ele>1115.42</ele>
        <time>2018-08-26T09:58:29Z</time>
      </trkpt>
      <trkpt lat="44.38632" lon="6.62198">
        <ele>1114.72</ele>
        <time>2018-08-26T09:58:30Z</time>
      </trkpt>
      <trkpt lat="44.38632" lon="6.6217">
        <ele>1114.51</ele>
        <time>2018-08-26T09:58:31Z</time>
      </trkpt>
      <trkpt lat="44.38632" lon="6.62142">
        <ele>1114.45</ele>
        <time>2018-08-26T09:58:32Z</time>
      </trkpt>
      <trkpt lat="44.38632" lon="6.62114">
        <ele>1114.43</ele>
        <time>2018-08-26T09:58:33Z</time>
      </trkpt>
      <trkpt lat="44.38632" lon="6.62086">
        <ele>1114.42</ele>
        <time>2018-08-26T09:58:34Z</time>
      </trkpt>
      <trkpt lat="44.38632" lon="6.62057">
        <ele>1114.42</ele>
        <time>2018-08-26T09:58:35Z</time>
      </trkpt>
      <trkpt lat="44.38632" lon="6.62029">
        <ele>1114.42</ele>
        <time>2018-08-26T09:58:36Z</time>
      </trkpt>
      <trkpt lat="44.38632" lon="6.62">
        <ele>1114.42</ele>
        <time>2018-08-26T09:58:37Z</time>
      </trkpt>
      <trkpt lat="44.38633" lon="6.61972">
        <ele>1114.42</ele>
        <time>2018-08-26T09:58:38Z</time>
      </trkpt>
      <trkpt lat="44.38633" lon="6.61944">
        <ele>1114.42</ele>
        <time>2018-08-26T09:58:39Z</time>
      </trkpt>
      <trkpt lat="44.38633" lon="6.61915">
        <ele>1114.42</ele>
        <time>2018-08-26T09:58:40Z</time>
      </trkpt>
      <trkpt lat="44.38633" lon="6.61888">
        <ele>1114.42</ele>
        <time>2018-08-26T09:58:41Z</time>
      </trkpt>
      <trkpt lat="44.38633" lon="6.6186">
        <ele>1113.72</ele>
        <time>2018-08-26T09:58:42Z</time>
      </trkpt>
      <trkpt lat="44.38633" lon="6.61832">
        <ele>1113.51</ele>
        <time>2018-08-26T09:58:43Z</time>
      </trkpt>
      <trkpt lat="44.38633" lon="6.61804">
        <ele>1113.45</ele>
        <time>2018-08-26T09:58:44Z</time>
      </trkpt>
      <trkpt lat="44.38633" lon="6.61777">
        <ele>1113.43</ele>
        <time>2018-08-26T09:58:45Z</time>
      </trkpt>
      <trkpt lat="44.38632" lon="6.61749">
        <ele>1113.42</ele>
        <time>2018-08-26T09:58:46Z</time>
      </trkpt>
      <trkpt lat="44.38632" lon="6.61721">
        <ele>1113.42</ele>
        <time>2018-08-26T09:58:47Z</time>
      </trkpt>
      <trkpt lat="44.38632" lon="6.61694">
        <ele>1113.42</ele>
        <time>2018-08-26T09:58:48Z</time>
      </trkpt>
      <trkpt lat="44.38632" lon="6.61666">
        <ele>1113.42</ele>
        <time>2018-08-26T09:58:49Z</time>
      </trkpt>
      <trkpt lat="44.38632" lon="6.61638">
        <ele>1114.12</ele>
        <time>2018-08-26T09:58:50Z</time>
      </trkpt>
      <trkpt lat="44.38632" lon="6.6161">
        <ele>1114.33</ele>
        <time>2018-08-26T09:58:51Z</time>
      </trkpt>
      <trkpt lat="44.38632" lon="6.61582">
        <ele>1114.39</ele>
        <time>2018-08-26T09:58:52Z</time>
      </trkpt>
      <trkpt lat="44.38632" lon="6.61553">
        <ele>1114.41</ele>
        <time>2018-08-26T09:58:53Z</time>
      </trkpt>
      <trkpt lat="44.3863" lon="6.61526">
        <ele>1114.42</ele>
        <time>2018-08-26T09:58:54Z</time>
      </trkpt>
      <trkpt lat="44.38627" lon="6.61499">
        <ele>1115.12</ele>
        <time>2018-08-26T09:58:55Z</time>
      </trkpt>
      <trkpt lat="44.38622" lon="6.61472">
        <ele>1115.33</ele>
        <time>2018-08-26T09:58:56Z</time>
      </trkpt>
      <trkpt lat="44.38617" lon="6.61445">
        <ele>1115.39</ele>
        <time>2018-08-26T09:58:57Z</time>
      </trkpt>
      <trkpt lat="44.3861" lon="6.61418">
        <ele>1116.11</ele>
        <time>2018-08-26T09:58:58Z</time>
      </trkpt>
      <trkpt lat="44.38603" lon="6.61391">
        <ele>1116.33</ele>
        <time>2018-08-26T09:58:59Z</time>
      </trkpt>
      <trkpt lat="44.38597" lon="6.61364">
        <ele>1117.09</ele>
        <time>2018-08-26T09:59:00Z</time>
      </trkpt>
      <trkpt lat="44.38591" lon="6.61337">
        <ele>1117.32</ele>
        <time>2018-08-26T09:59:01Z</time>
      </trkpt>
      <trkpt lat="44.38585" lon="6.61311">
        <ele>1117.39</ele>
        <time>2018-08-26T09:59:02Z</time>
      </trkpt>
      <trkpt lat="44.38579" lon="6.61284">
        <ele>1117.41</ele>
        <time>2018-08-26T09:59:03Z</time>
      </trkpt>
      <trkpt lat="44.38574" lon="6.61258">
        <ele>1117.42</ele>
        <time>2018-08-26T09:59:04Z</time>
      </trkpt>
      <trkpt lat="44.38568" lon="6.61232">
        <ele>1117.42</ele>
        <time>2018-08-26T09:59:05Z</time>
      </trkpt>
      <trkpt lat="44.38564" lon="6.61204">
        <ele>1117.42</ele>
        <time>2018-08-26T09:59:06Z</time>
      </trkpt>
      <trkpt lat="44.38561" lon="6.61177">
        <ele>1117.42</ele>
        <time>2018-08-26T09:59:07Z</time>
      </trkpt>
      <trkpt lat="44.38558" lon="6.6115">
        <ele>1117.42</ele>
        <time>2018-08-26T09:59:08Z</time>
      </trkpt>
      <trkpt lat="44.38556" lon="6.61122">
        <ele>1117.42</ele>
        <time>2018-08-26T09:59:09Z</time>
      </trkpt>
      <trkpt lat="44.38554" lon="6.61095">
        <ele>1117.42</ele>
        <time>2018-08-26T09:59:10Z</time>
      </trkpt>
      <trkpt lat="44.38551" lon="6.61069">
        <ele>1117.42</ele>
        <time>2018-08-26T09:59:11Z</time>
      </trkpt>
      <trkpt lat="44.3855" lon="6.61042">
        <ele>1117.42</ele>
        <time>2018-08-26T09:59:12Z</time>
      </trkpt>
      <trkpt lat="44.38548" lon="6.61015">
        <ele>1116.72</ele>
        <time>2018-08-26T09:59:13Z</time>
      </trkpt>
      <trkpt lat="44.38545" lon="6.60988">
        <ele>1117.21</ele>
        <time>2018-08-26T09:59:14Z</time>
      </trkpt>
      <trkpt lat="44.38544" lon="6.6096">
        <ele>1116.66</ele>
        <time>2018-08-26T09:59:15Z</time>
      </trkpt>
      <trkpt lat="44.38541" lon="6.60932">
        <ele>1116.49</ele>
        <time>2018-08-26T09:59:16Z</time>
      </trkpt>
      <trkpt lat="44.3854" lon="6.60903">
        <ele>1116.44</ele>
        <time>2018-08-26T09:59:17Z</time>
      </trkpt>
      <trkpt lat="44.38539" lon="6.60875">
        <ele>1117.13</ele>
        <time>2018-08-26T09:59:18Z</time>
      </trkpt>
      <trkpt lat="44.38538" lon="6.60846">
        <ele>1117.33</ele>
        <time>2018-08-26T09:59:19Z</time>
      </trkpt>
      <trkpt lat="44.38538" lon="6.60818">
        <ele>1117.39</ele>
        <time>2018-08-26T09:59:20Z</time>
      </trkpt>
      <trkpt lat="44.3854" lon="6.60789">
        <ele>1117.41</ele>
        <time>2018-08-26T09:59:21Z</time>
      </trkpt>
      <trkpt lat="44.38542" lon="6.60761">
        <ele>1117.42</ele>
        <time>2018-08-26T09:59:22Z</time>
      </trkpt>
      <trkpt lat="44.38544" lon="6.60733">
        <ele>1117.42</ele>
        <time>2018-08-26T09:59:23Z</time>
      </trkpt>
      <trkpt lat="44.38547" lon="6.60705">
        <ele>1117.42</ele>
        <time>2018-08-26T09:59:24Z</time>
      </trkpt>
      <trkpt lat="44.3855" lon="6.60678">
        <ele>1118.12</ele>
        <time>2018-08-26T09:59:25Z</time>
      </trkpt>
      <trkpt lat="44.38554" lon="6.6065">
        <ele>1117.63</ele>
        <time>2018-08-26T09:59:26Z</time>
      </trkpt>
      <trkpt lat="44.38558" lon="6.60624">
        <ele>1117.48</ele>
        <time>2018-08-26T09:59:27Z</time>
      </trkpt>
      <trkpt lat="44.38562" lon="6.60598">
        <ele>1117.44</ele>
        <time>2018-08-26T09:59:28Z</time>
      </trkpt>
      <trkpt lat="44.38566" lon="6.60571">
        <ele>1117.43</ele>
        <time>2018-08-26T09:59:29Z</time>
      </trkpt>
      <trkpt lat="44.3857" lon="6.60545">
        <ele>1117.42</ele>
        <time>2018-08-26T09:59:30Z</time>
      </trkpt>
      <trkpt lat="44.38576" lon="6.60518">
        <ele>1117.42</ele>
        <time>2018-08-26T09:59:31Z</time>
      </trkpt>
      <trkpt lat="44.38582" lon="6.60492">
        <ele>1117.42</ele>
        <time>2018-08-26T09:59:32Z</time>
      </trkpt>
      <trkpt lat="44.38588" lon="6.60466">
        <ele>1117.42</ele>
        <time>2018-08-26T09:59:33Z</time>
      </trkpt>
      <trkpt lat="44.38595" lon="6.6044">
        <ele>1117.42</ele>
        <time>2018-08-26T09:59:34Z</time>
      </trkpt>
      <trkpt lat="44.38602" lon="6.60415">
        <ele>1117.42</ele>
        <time>2018-08-26T09:59:35Z</time>
      </trkpt>
      <trkpt lat="44.3861" lon="6.6039">
        <ele>1117.42</ele>
        <time>2018-08-26T09:59:36Z</time>
      </trkpt>
      <trkpt lat="44.38617" lon="6.60365">
        <ele>1117.42</ele>
        <time>2018-08-26T09:59:37Z</time>
      </trkpt>
      <trkpt lat="44.38624" lon="6.6034">
        <ele>1117.42</ele>
        <time>2018-08-26T09:59:38Z</time>
      </trkpt>
      <trkpt lat="44.38632" lon="6.60315">
        <ele>1117.42</ele>
        <time>2018-08-26T09:59:39Z</time>
      </trkpt>
      <trkpt lat="44.3864" lon="6.6029">
        <ele>1117.42</ele>
        <time>2018-08-26T09:59:40Z</time>
      </trkpt>
      <trkpt lat="44.38647" lon="6.60264">
        <ele>1116.72</ele>
        <time>2018-08-26T09:59:41Z</time>
      </trkpt>
      <trkpt lat="44.38654" lon="6.60239">
        <ele>1116.51</ele>
        <time>2018-08-26T09:59:42Z</time>
      </trkpt>
      <trkpt lat="44.38662" lon="6.60214">
        <ele>1116.45</ele>
        <time>2018-08-26T09:59:43Z</time>
      </trkpt>
      <trkpt lat="44.3867" lon="6.60189">
        <ele>1115.73</ele>
        <time>2018-08-26T09:59:44Z</time>
      </trkpt>
      <trkpt lat="44.38678" lon="6.60164">
        <ele>1115.51</ele>
        <time>2018-08-26T09:59:45Z</time>
      </trkpt>
      <trkpt lat="44.38685" lon="6.60139">
        <ele>1115.45</ele>
        <time>2018-08-26T09:59:46Z</time>
      </trkpt>
      <trkpt lat="44.38693" lon="6.60113">
        <ele>1115.43</ele>
        <time>2018-08-26T09:59:47Z</time>
      </trkpt>
      <trkpt lat="44.387" lon="6.60087">
        <ele>1115.42</ele>
        <time>2018-08-26T09:59:48Z</time>
      </trkpt>
      <trkpt lat="44.38708" lon="6.60062">
        <ele>1115.42</ele>
        <time>2018-08-26T09:59:49Z</time>
      </trkpt>
      <trkpt lat="44.38716" lon="6.60036">
        <ele>1115.42</ele>
        <time>2018-08-26T09:59:50Z</time>
      </trkpt>
      <trkpt lat="44.38723" lon="6.6001">
        <ele>1115.42</ele>
        <time>2018-08-26T09:59:51Z</time>
      </trkpt>
      <trkpt lat="44.38731" lon="6.59984">
        <ele>1115.42</ele>
        <time>2018-08-26T09:59:52Z</time>
      </trkpt>
      <trkpt lat="44.3874" lon="6.59958">
        <ele>1114.72</ele>
        <time>2018-08-26T09:59:53Z</time>
      </trkpt>
      <trkpt lat="44.38748" lon="6.59932">
        <ele>1114.51</ele>
        <time>2018-08-26T09:59:54Z</time>
      </trkpt>
      <trkpt lat="44.38756" lon="6.59906">
        <ele>1114.45</ele>
        <time>2018-08-26T09:59:55Z</time>
      </trkpt>
      <trkpt lat="44.38763" lon="6.5988">
        <ele>1114.43</ele>
        <time>2018-08-26T09:59:56Z</time>
      </trkpt>
      <trkpt lat="44.38771" lon="6.59853">
        <ele>1114.42</ele>
        <time>2018-08-26T09:59:57Z</time>
      </trkpt>
      <trkpt lat="44.38779" lon="6.59827">
        <ele>1113.72</ele>
        <time>2018-08-26T09:59:58Z</time>
      </trkpt>
      <trkpt lat="44.38786" lon="6.598">
        <ele>1113.51</ele>
        <time>2018-08-26T09:59:59Z</time>
      </trkpt>
      <trkpt lat="44.38795" lon="6.59774">
        <ele>1113.45</ele>
        <time>2018-08-26T10:00:00Z</time>
      </trkpt>
      <trkpt lat="44.38803" lon="6.59749">
        <ele>1112.73</ele>
        <time>2018-08-26T10:00:01Z</time>
      </trkpt>
      <trkpt lat="44.38811" lon="6.59722">
        <ele>1112.51</ele>
        <time>2018-08-26T10:00:02Z</time>
      </trkpt>
      <trkpt lat="44.38819" lon="6.59695">
        <ele>1111.75</ele>
        <time>2018-08-26T10:00:03Z</time>
      </trkpt>
      <trkpt lat="44.38827" lon="6.59669">
        <ele>1111.52</ele>
        <time>2018-08-26T10:00:04Z</time>
      </trkpt>
      <trkpt lat="44.38835" lon="6.59642">
        <ele>1111.45</ele>
        <time>2018-08-26T10:00:05Z</time>
      </trkpt>
      <trkpt lat="44.38843" lon="6.59614">
        <ele>1110.73</ele>
        <time>2018-08-26T10:00:06Z</time>
      </trkpt>
      <trkpt lat="44.38852" lon="6.59588">
        <ele>1110.51</ele>
        <time>2018-08-26T10:00:07Z</time>
      </trkpt>
      <trkpt lat="44.38861" lon="6.59561">
        <ele>1110.45</ele>
        <time>2018-08-26T10:00:08Z</time>
      </trkpt>
      <trkpt lat="44.38871" lon="6.59535">
        <ele>1110.43</ele>
        <time>2018-08-26T10:00:09Z</time>
      </trkpt>
      <trkpt lat="44.38881" lon="6.5951">
        <ele>1110.42</ele>
        <time>2018-08-26T10:00:10Z</time>
      </trkpt>
      <trkpt lat="44.38891" lon="6.59485">
        <ele>1109.72</ele>
        <time>2018-08-26T10:00:11Z</time>
      </trkpt>
      <trkpt lat="44.38901" lon="6.59459">
        <ele>1109.51</ele>
        <time>2018-08-26T10:00:12Z</time>
      </trkpt>
      <trkpt lat="44.38911" lon="6.59434">
        <ele>1108.75</ele>
        <time>2018-08-26T10:00:13Z</time>
      </trkpt>
      <trkpt lat="44.38921" lon="6.59409">
        <ele>1108.52</ele>
        <time>2018-08-26T10:00:14Z</time>
      </trkpt>
      <trkpt lat="44.38931" lon="6.59384">
        <ele>1107.75</ele>
        <time>2018-08-26T10:00:15Z</time>
      </trkpt>
      <trkpt lat="44.38941" lon="6.5936">
        <ele>1106.82</ele>
        <time>2018-08-26T10:00:16Z</time>
      </trkpt>
      <trkpt lat="44.38952" lon="6.59335">
        <ele>1105.14</ele>
        <time>2018-08-26T10:00:17Z</time>
      </trkpt>
      <trkpt lat="44.38962" lon="6.5931">
        <ele>1104.64</ele>
        <time>2018-08-26T10:00:18Z</time>
      </trkpt>
      <trkpt lat="44.38973" lon="6.59284">
        <ele>1103.79</ele>
        <time>2018-08-26T10:00:19Z</time>
      </trkpt>
      <trkpt lat="44.38983" lon="6.59258">
        <ele>1102.83</ele>
        <time>2018-08-26T10:00:20Z</time>
      </trkpt>
      <trkpt lat="44.38994" lon="6.59232">
        <ele>1101.84</ele>
        <time>2018-08-26T10:00:21Z</time>
      </trkpt>
      <trkpt lat="44.39004" lon="6.59206">
        <ele>1100.85</ele>
        <time>2018-08-26T10:00:22Z</time>
      </trkpt>
      <trkpt lat="44.39014" lon="6.5918">
        <ele>1099.85</ele>
        <time>2018-08-26T10:00:23Z</time>
      </trkpt>
      <trkpt lat="44.39024" lon="6.59153">
        <ele>1099.55</ele>
        <time>2018-08-26T10:00:24Z</time>
      </trkpt>
      <trkpt lat="44.39034" lon="6.59127">
        <ele>1098.76</ele>
        <time>2018-08-26T10:00:25Z</time>
      </trkpt>
      <trkpt lat="44.39044" lon="6.591">
        <ele>1098.52</ele>
        <time>2018-08-26T10:00:26Z</time>
      </trkpt>
      <trkpt lat="44.39055" lon="6.59074">
        <ele>1097.75</ele>
        <time>2018-08-26T10:00:27Z</time>
      </trkpt>
      <trkpt lat="44.39064" lon="6.59047">
        <ele>1097.52</ele>
        <time>2018-08-26T10:00:28Z</time>
      </trkpt>
      <trkpt lat="44.39072" lon="6.59019">
        <ele>1097.45</ele>
        <time>2018-08-26T10:00:29Z</time>
      </trkpt>
      <trkpt lat="44.39079" lon="6.5899">
        <ele>1097.43</ele>
        <time>2018-08-26T10:00:30Z</time>
      </trkpt>
      <trkpt lat="44.39082" lon="6.58962">
        <ele>1096.72</ele>
        <time>2018-08-26T10:00:31Z</time>
      </trkpt>
      <trkpt lat="44.39084" lon="6.58931">
        <ele>1097.21</ele>
        <time>2018-08-26T10:00:32Z</time>
      </trkpt>
      <trkpt lat="44.39082" lon="6.58901">
        <ele>1097.36</ele>
        <time>2018-08-26T10:00:33Z</time>
      </trkpt>
      <trkpt lat="44.3908" lon="6.58871">
        <ele>1096.7</ele>
        <time>2018-08-26T10:00:34Z</time>
      </trkpt>
      <trkpt lat="44.39076" lon="6.58841">
        <ele>1096.51</ele>
        <time>2018-08-26T10:00:35Z</time>
      </trkpt>
      <trkpt lat="44.39072" lon="6.58813">
        <ele>1097.15</ele>
        <time>2018-08-26T10:00:36Z</time>
      </trkpt>
      <trkpt lat="44.39066" lon="6.58784">
        <ele>1097.34</ele>
        <time>2018-08-26T10:00:37Z</time>
      </trkpt>
      <trkpt lat="44.3906" lon="6.58757">
        <ele>1098.1</ele>
        <time>2018-08-26T10:00:38Z</time>
      </trkpt>
      <trkpt lat="44.39053" lon="6.58731">
        <ele>1098.32</ele>
        <time>2018-08-26T10:00:39Z</time>
      </trkpt>
      <trkpt lat="44.39047" lon="6.58704">
        <ele>1098.39</ele>
        <time>2018-08-26T10:00:40Z</time>
      </trkpt>
      <trkpt lat="44.3904" lon="6.58678">
        <ele>1098.41</ele>
        <time>2018-08-26T10:00:41Z</time>
      </trkpt>
      <trkpt lat="44.39033" lon="6.58652">
        <ele>1099.12</ele>
        <time>2018-08-26T10:00:42Z</time>
      </trkpt>
      <trkpt lat="44.39026" lon="6.58625">
        <ele>1100.03</ele>
        <time>2018-08-26T10:00:43Z</time>
      </trkpt>
      <trkpt lat="44.39019" lon="6.58599">
        <ele>1100.3</ele>
        <time>2018-08-26T10:00:44Z</time>
      </trkpt>
      <trkpt lat="44.39013" lon="6.58572">
        <ele>1101.09</ele>
        <time>2018-08-26T10:00:45Z</time>
      </trkpt>
      <trkpt lat="44.39009" lon="6.58544">
        <ele>1101.32</ele>
        <time>2018-08-26T10:00:46Z</time>
      </trkpt>
      <trkpt lat="44.39005" lon="6.58517">
        <ele>1101.39</ele>
        <time>2018-08-26T10:00:47Z</time>
      </trkpt>
      <trkpt lat="44.39002" lon="6.58488">
        <ele>1102.11</ele>
        <time>2018-08-26T10:00:48Z</time>
      </trkpt>
      <trkpt lat="44.38999" lon="6.5846">
        <ele>1103.03</ele>
        <time>2018-08-26T10:00:49Z</time>
      </trkpt>
      <trkpt lat="44.38996" lon="6.58432">
        <ele>1104</ele>
        <time>2018-08-26T10:00:50Z</time>
      </trkpt>
      <trkpt lat="44.38994" lon="6.58404">
        <ele>1104.3</ele>
        <time>2018-08-26T10:00:51Z</time>
      </trkpt>
      <trkpt lat="44.38994" lon="6.58376">
        <ele>1104.38</ele>
        <time>2018-08-26T10:00:52Z</time>
      </trkpt>
      <trkpt lat="44.38995" lon="6.58347">
        <ele>1104.41</ele>
        <time>2018-08-26T10:00:53Z</time>
      </trkpt>
      <trkpt lat="44.38997" lon="6.58318">
        <ele>1104.42</ele>
        <time>2018-08-26T10:00:54Z</time>
      </trkpt>
      <trkpt lat="44.38999" lon="6.58289">
        <ele>1104.42</ele>
        <time>2018-08-26T10:00:55Z</time>
      </trkpt>
      <trkpt lat="44.39001" lon="6.58259">
        <ele>1104.42</ele>
        <time>2018-08-26T10:00:56Z</time>
      </trkpt>
      <trkpt lat="44.39002" lon="6.5823">
        <ele>1104.42</ele>
        <time>2018-08-26T10:00:57Z</time>
      </trkpt>
      <trkpt lat="44.39004" lon="6.58201">
        <ele>1104.42</ele>
        <time>2018-08-26T10:00:58Z</time>
      </trkpt>
      <trkpt lat="44.39007" lon="6.58173">
        <ele>1104.42</ele>
        <time>2018-08-26T10:00:59Z</time>
      </trkpt>
      <trkpt lat="44.39011" lon="6.58143">
        <ele>1104.42</ele>
        <time>2018-08-26T10:01:00Z</time>
      </trkpt>
      <trkpt lat="44.39019" lon="6.58116">
        <ele>1104.42</ele>
        <time>2018-08-26T10:01:01Z</time>
      </trkpt>
      <trkpt lat="44.39029" lon="6.58089">
        <ele>1105.12</ele>
        <time>2018-08-26T10:01:02Z</time>
      </trkpt>
      <trkpt lat="44.39043" lon="6.58066">
        <ele>1104.63</ele>
        <time>2018-08-26T10:01:03Z</time>
      </trkpt>
      <trkpt lat="44.39057" lon="6.58043">
        <ele>1104.48</ele>
        <time>2018-08-26T10:01:04Z</time>
      </trkpt>
      <trkpt lat="44.3907" lon="6.58019">
        <ele>1104.44</ele>
        <time>2018-08-26T10:01:05Z</time>
      </trkpt>
      <trkpt lat="44.39084" lon="6.57996">
        <ele>1103.73</ele>
        <time>2018-08-26T10:01:06Z</time>
      </trkpt>
      <trkpt lat="44.39097" lon="6.57972">
        <ele>1103.51</ele>
        <time>2018-08-26T10:01:07Z</time>
      </trkpt>
      <trkpt lat="44.39111" lon="6.57948">
        <ele>1103.45</ele>
        <time>2018-08-26T10:01:08Z</time>
      </trkpt>
      <trkpt lat="44.39124" lon="6.57923">
        <ele>1103.43</ele>
        <time>2018-08-26T10:01:09Z</time>
      </trkpt>
      <trkpt lat="44.39137" lon="6.57899">
        <ele>1102.72</ele>
        <time>2018-08-26T10:01:10Z</time>
      </trkpt>
      <trkpt lat="44.3915" lon="6.57876">
        <ele>1102.51</ele>
        <time>2018-08-26T10:01:11Z</time>
      </trkpt>
      <trkpt lat="44.39163" lon="6.57851">
        <ele>1101.75</ele>
        <time>2018-08-26T10:01:12Z</time>
      </trkpt>
      <trkpt lat="44.39175" lon="6.57827">
        <ele>1101.52</ele>
        <time>2018-08-26T10:01:13Z</time>
      </trkpt>
      <trkpt lat="44.39188" lon="6.57803">
        <ele>1100.75</ele>
        <time>2018-08-26T10:01:14Z</time>
      </trkpt>
      <trkpt lat="44.392" lon="6.57778">
        <ele>1099.82</ele>
        <time>2018-08-26T10:01:15Z</time>
      </trkpt>
      <trkpt lat="44.39211" lon="6.57753">
        <ele>1099.54</ele>
        <time>2018-08-26T10:01:16Z</time>
      </trkpt>
      <trkpt lat="44.39223" lon="6.57729">
        <ele>1099.46</ele>
        <time>2018-08-26T10:01:17Z</time>
      </trkpt>
      <trkpt lat="44.39235" lon="6.57704">
        <ele>1098.73</ele>
        <time>2018-08-26T10:01:18Z</time>
      </trkpt>
      <trkpt lat="44.39246" lon="6.5768">
        <ele>1098.51</ele>
        <time>2018-08-26T10:01:19Z</time>
      </trkpt>
      <trkpt lat="44.39258" lon="6.57656">
        <ele>1097.75</ele>
        <time>2018-08-26T10:01:20Z</time>
      </trkpt>
      <trkpt lat="44.39269" lon="6.57632">
        <ele>1097.52</ele>
        <time>2018-08-26T10:01:21Z</time>
      </trkpt>
      <trkpt lat="44.3928" lon="6.57608">
        <ele>1098.15</ele>
        <time>2018-08-26T10:01:22Z</time>
      </trkpt>
      <trkpt lat="44.3929" lon="6.57584">
        <ele>1098.34</ele>
        <time>2018-08-26T10:01:23Z</time>
      </trkpt>
      <trkpt lat="44.39298" lon="6.5756">
        <ele>1098.4</ele>
        <time>2018-08-26T10:01:24Z</time>
      </trkpt>
      <trkpt lat="44.39309" lon="6.57519">
        <ele>1098.42</ele>
        <time>2018-08-26T10:01:26Z</time>
      </trkpt>
      <trkpt lat="44.39316" lon="6.57478">
        <ele>1098.42</ele>
        <time>2018-08-26T10:01:28Z</time>
      </trkpt>
      <trkpt lat="44.39322" lon="6.57438">
        <ele>1099.12</ele>
        <time>2018-08-26T10:01:30Z</time>
      </trkpt>
      <trkpt lat="44.39329" lon="6.57397">
        <ele>1100.09</ele>
        <time>2018-08-26T10:01:32Z</time>
      </trkpt>
      <trkpt lat="44.39337" lon="6.57354">
        <ele>1101.09</ele>
        <time>2018-08-26T10:01:34Z</time>
      </trkpt>
      <trkpt lat="44.39343" lon="6.57312">
        <ele>1101.39</ele>
        <time>2018-08-26T10:01:36Z</time>
      </trkpt>
      <trkpt lat="44.3935" lon="6.57271">
        <ele>1102.12</ele>
        <time>2018-08-26T10:01:38Z</time>
      </trkpt>
      <trkpt lat="44.39356" lon="6.5723">
        <ele>1102.39</ele>
        <time>2018-08-26T10:01:40Z</time>
      </trkpt>
      <trkpt lat="44.39357" lon="6.57189">
        <ele>1103.12</ele>
        <time>2018-08-26T10:01:42Z</time>
      </trkpt>
      <trkpt lat="44.39351" lon="6.5715">
        <ele>1103.39</ele>
        <time>2018-08-26T10:01:44Z</time>
      </trkpt>
      <trkpt lat="44.39344" lon="6.57112">
        <ele>1104.12</ele>
        <time>2018-08-26T10:01:46Z</time>
      </trkpt>
      <trkpt lat="44.39337" lon="6.57072">
        <ele>1105.09</ele>
        <time>2018-08-26T10:01:48Z</time>
      </trkpt>
      <trkpt lat="44.39331" lon="6.57034">
        <ele>1106.3</ele>
        <time>2018-08-26T10:01:50Z</time>
      </trkpt>
      <trkpt lat="44.39324" lon="6.56995">
        <ele>1107.32</ele>
        <time>2018-08-26T10:01:52Z</time>
      </trkpt>
      <trkpt lat="44.39317" lon="6.56955">
        <ele>1109.02</ele>
        <time>2018-08-26T10:01:54Z</time>
      </trkpt>
      <trkpt lat="44.39311" lon="6.56913">
        <ele>1109.39</ele>
        <time>2018-08-26T10:01:56Z</time>
      </trkpt>
      <trkpt lat="44.39305" lon="6.56869">
        <ele>1108.72</ele>
        <time>2018-08-26T10:01:58Z</time>
      </trkpt>
      <trkpt lat="44.39297" lon="6.56823">
        <ele>1109.15</ele>
        <time>2018-08-26T10:02:00Z</time>
      </trkpt>
      <trkpt lat="44.39293" lon="6.56798">
        <ele>1109.34</ele>
        <time>2018-08-26T10:02:01Z</time>
      </trkpt>
      <trkpt lat="44.39285" lon="6.56751">
        <ele>1109.41</ele>
        <time>2018-08-26T10:02:03Z</time>
      </trkpt>
      <trkpt lat="44.39277" lon="6.56705">
        <ele>1108.72</ele>
        <time>2018-08-26T10:02:05Z</time>
      </trkpt>
      <trkpt lat="44.3927" lon="6.56662">
        <ele>1108.45</ele>
        <time>2018-08-26T10:02:07Z</time>
      </trkpt>
      <trkpt lat="44.39263" lon="6.56618">
        <ele>1107.72</ele>
        <time>2018-08-26T10:02:09Z</time>
      </trkpt>
      <trkpt lat="44.39256" lon="6.56576">
        <ele>1107.45</ele>
        <time>2018-08-26T10:02:11Z</time>
      </trkpt>
      <trkpt lat="44.3925" lon="6.56535">
        <ele>1107.42</ele>
        <time>2018-08-26T10:02:13Z</time>
      </trkpt>
      <trkpt lat="44.39248" lon="6.56493">
        <ele>1106.51</ele>
        <time>2018-08-26T10:02:15Z</time>
      </trkpt>
      <trkpt lat="44.39251" lon="6.56441">
        <ele>1105.73</ele>
        <time>2018-08-26T10:02:17Z</time>
      </trkpt>
      <trkpt lat="44.39254" lon="6.56412">
        <ele>1105.51</ele>
        <time>2018-08-26T10:02:18Z</time>
      </trkpt>
      <trkpt lat="44.39256" lon="6.56383">
        <ele>1104.75</ele>
        <time>2018-08-26T10:02:19Z</time>
      </trkpt>
      <trkpt lat="44.3926" lon="6.56352">
        <ele>1103.82</ele>
        <time>2018-08-26T10:02:20Z</time>
      </trkpt>
      <trkpt lat="44.39266" lon="6.56324">
        <ele>1102.84</ele>
        <time>2018-08-26T10:02:21Z</time>
      </trkpt>
      <trkpt lat="44.39273" lon="6.56295">
        <ele>1102.55</ele>
        <time>2018-08-26T10:02:22Z</time>
      </trkpt>
      <trkpt lat="44.3928" lon="6.56266">
        <ele>1101.76</ele>
        <time>2018-08-26T10:02:23Z</time>
      </trkpt>
      <trkpt lat="44.39287" lon="6.56237">
        <ele>1100.82</ele>
        <time>2018-08-26T10:02:24Z</time>
      </trkpt>
      <trkpt lat="44.39294" lon="6.56208">
        <ele>1099.84</ele>
        <time>2018-08-26T10:02:25Z</time>
      </trkpt>
      <trkpt lat="44.39301" lon="6.5618">
        <ele>1099.55</ele>
        <time>2018-08-26T10:02:26Z</time>
      </trkpt>
      <trkpt lat="44.39307" lon="6.56151">
        <ele>1098.76</ele>
        <time>2018-08-26T10:02:27Z</time>
      </trkpt>
      <trkpt lat="44.39314" lon="6.56123">
        <ele>1098.52</ele>
        <time>2018-08-26T10:02:28Z</time>
      </trkpt>
      <trkpt lat="44.3932" lon="6.56096">
        <ele>1097.75</ele>
        <time>2018-08-26T10:02:29Z</time>
      </trkpt>
      <trkpt lat="44.39326" lon="6.56068">
        <ele>1096.82</ele>
        <time>2018-08-26T10:02:30Z</time>
      </trkpt>
      <trkpt lat="44.39332" lon="6.5604">
        <ele>1095.84</ele>
        <time>2018-08-26T10:02:31Z</time>
      </trkpt>
      <trkpt lat="44.39338" lon="6.56013">
        <ele>1094.85</ele>
        <time>2018-08-26T10:02:32Z</time>
      </trkpt>
      <trkpt lat="44.39345" lon="6.55986">
        <ele>1093.85</ele>
        <time>2018-08-26T10:02:33Z</time>
      </trkpt>
      <trkpt lat="44.39351" lon="6.5596">
        <ele>1092.85</ele>
        <time>2018-08-26T10:02:34Z</time>
      </trkpt>
      <trkpt lat="44.39357" lon="6.55933">
        <ele>1091.85</ele>
        <time>2018-08-26T10:02:35Z</time>
      </trkpt>
      <trkpt lat="44.39362" lon="6.55906">
        <ele>1091.55</ele>
        <time>2018-08-26T10:02:36Z</time>
      </trkpt>
      <trkpt lat="44.39364" lon="6.55879">
        <ele>1091.46</ele>
        <time>2018-08-26T10:02:37Z</time>
      </trkpt>
      <trkpt lat="44.3936" lon="6.55851">
        <ele>1090.73</ele>
        <time>2018-08-26T10:02:38Z</time>
      </trkpt>
      <trkpt lat="44.39354" lon="6.55823">
        <ele>1090.51</ele>
        <time>2018-08-26T10:02:39Z</time>
      </trkpt>
      <trkpt lat="44.39347" lon="6.55795">
        <ele>1089.75</ele>
        <time>2018-08-26T10:02:40Z</time>
      </trkpt>
      <trkpt lat="44.3934" lon="6.55767">
        <ele>1089.52</ele>
        <time>2018-08-26T10:02:41Z</time>
      </trkpt>
      <trkpt lat="44.39333" lon="6.55737">
        <ele>1088.75</ele>
        <time>2018-08-26T10:02:42Z</time>
      </trkpt>
      <trkpt lat="44.39327" lon="6.55708">
        <ele>1087.82</ele>
        <time>2018-08-26T10:02:43Z</time>
      </trkpt>
      <trkpt lat="44.39323" lon="6.55677">
        <ele>1087.54</ele>
        <time>2018-08-26T10:02:44Z</time>
      </trkpt>
      <trkpt lat="44.39319" lon="6.55648">
        <ele>1086.76</ele>
        <time>2018-08-26T10:02:45Z</time>
      </trkpt>
      <trkpt lat="44.39316" lon="6.55618">
        <ele>1085.82</ele>
        <time>2018-08-26T10:02:46Z</time>
      </trkpt>
      <trkpt lat="44.39316" lon="6.55588">
        <ele>1085.54</ele>
        <time>2018-08-26T10:02:47Z</time>
      </trkpt>
      <trkpt lat="44.3932" lon="6.5556">
        <ele>1084.76</ele>
        <time>2018-08-26T10:02:48Z</time>
      </trkpt>
      <trkpt lat="44.39326" lon="6.55532">
        <ele>1084.52</ele>
        <time>2018-08-26T10:02:49Z</time>
      </trkpt>
      <trkpt lat="44.39334" lon="6.55505">
        <ele>1084.45</ele>
        <time>2018-08-26T10:02:50Z</time>
      </trkpt>
      <trkpt lat="44.39341" lon="6.55477">
        <ele>1083.73</ele>
        <time>2018-08-26T10:02:51Z</time>
      </trkpt>
      <trkpt lat="44.39348" lon="6.55449">
        <ele>1082.81</ele>
        <time>2018-08-26T10:02:52Z</time>
      </trkpt>
      <trkpt lat="44.39355" lon="6.55421">
        <ele>1081.84</ele>
        <time>2018-08-26T10:02:53Z</time>
      </trkpt>
      <trkpt lat="44.39362" lon="6.55392">
        <ele>1081.55</ele>
        <time>2018-08-26T10:02:54Z</time>
      </trkpt>
      <trkpt lat="44.3937" lon="6.55363">
        <ele>1080.76</ele>
        <time>2018-08-26T10:02:55Z</time>
      </trkpt>
      <trkpt lat="44.39376" lon="6.55334">
        <ele>1080.52</ele>
        <time>2018-08-26T10:02:56Z</time>
      </trkpt>
      <trkpt lat="44.39381" lon="6.55305">
        <ele>1080.45</ele>
        <time>2018-08-26T10:02:57Z</time>
      </trkpt>
      <trkpt lat="44.39383" lon="6.55275">
        <ele>1081.13</ele>
        <time>2018-08-26T10:02:58Z</time>
      </trkpt>
      <trkpt lat="44.39384" lon="6.55244">
        <ele>1081.33</ele>
        <time>2018-08-26T10:02:59Z</time>
      </trkpt>
      <trkpt lat="44.39385" lon="6.55214">
        <ele>1081.39</ele>
        <time>2018-08-26T10:03:00Z</time>
      </trkpt>
      <trkpt lat="44.39386" lon="6.55184">
        <ele>1082.11</ele>
        <time>2018-08-26T10:03:01Z</time>
      </trkpt>
      <trkpt lat="44.3939" lon="6.55156">
        <ele>1082.33</ele>
        <time>2018-08-26T10:03:02Z</time>
      </trkpt>
      <trkpt lat="44.39397" lon="6.5513">
        <ele>1083.09</ele>
        <time>2018-08-26T10:03:03Z</time>
      </trkpt>
      <trkpt lat="44.39407" lon="6.55105">
        <ele>1083.32</ele>
        <time>2018-08-26T10:03:04Z</time>
      </trkpt>
      <trkpt lat="44.3942" lon="6.55082">
        <ele>1083.39</ele>
        <time>2018-08-26T10:03:05Z</time>
      </trkpt>
      <trkpt lat="44.39433" lon="6.55058">
        <ele>1083.41</ele>
        <time>2018-08-26T10:03:06Z</time>
      </trkpt>
      <trkpt lat="44.39446" lon="6.55034">
        <ele>1083.42</ele>
        <time>2018-08-26T10:03:07Z</time>
      </trkpt>
      <trkpt lat="44.39457" lon="6.55009">
        <ele>1082.72</ele>
        <time>2018-08-26T10:03:08Z</time>
      </trkpt>
      <trkpt lat="44.39468" lon="6.54984">
        <ele>1082.51</ele>
        <time>2018-08-26T10:03:09Z</time>
      </trkpt>
      <trkpt lat="44.39479" lon="6.54959">
        <ele>1083.15</ele>
        <time>2018-08-26T10:03:10Z</time>
      </trkpt>
      <trkpt lat="44.39492" lon="6.54935">
        <ele>1083.34</ele>
        <time>2018-08-26T10:03:11Z</time>
      </trkpt>
      <trkpt lat="44.39507" lon="6.54912">
        <ele>1083.4</ele>
        <time>2018-08-26T10:03:12Z</time>
      </trkpt>
      <trkpt lat="44.39522" lon="6.5489">
        <ele>1082.71</ele>
        <time>2018-08-26T10:03:13Z</time>
      </trkpt>
      <trkpt lat="44.39538" lon="6.5487">
        <ele>1082.51</ele>
        <time>2018-08-26T10:03:14Z</time>
      </trkpt>
      <trkpt lat="44.39554" lon="6.5485">
        <ele>1082.45</ele>
        <time>2018-08-26T10:03:15Z</time>
      </trkpt>
      <trkpt lat="44.39569" lon="6.54829">
        <ele>1081.73</ele>
        <time>2018-08-26T10:03:16Z</time>
      </trkpt>
      <trkpt lat="44.39585" lon="6.54808">
        <ele>1081.51</ele>
        <time>2018-08-26T10:03:17Z</time>
      </trkpt>
      <trkpt lat="44.396" lon="6.54788">
        <ele>1081.45</ele>
        <time>2018-08-26T10:03:18Z</time>
      </trkpt>
      <trkpt lat="44.39614" lon="6.54765">
        <ele>1081.43</ele>
        <time>2018-08-26T10:03:19Z</time>
      </trkpt>
      <trkpt lat="44.39628" lon="6.54742">
        <ele>1080.72</ele>
        <time>2018-08-26T10:03:20Z</time>
      </trkpt>
      <trkpt lat="44.3964" lon="6.54717">
        <ele>1080.51</ele>
        <time>2018-08-26T10:03:21Z</time>
      </trkpt>
      <trkpt lat="44.39651" lon="6.54691">
        <ele>1080.45</ele>
        <time>2018-08-26T10:03:22Z</time>
      </trkpt>
      <trkpt lat="44.39661" lon="6.54663">
        <ele>1080.43</ele>
        <time>2018-08-26T10:03:23Z</time>
      </trkpt>
      <trkpt lat="44.3967" lon="6.54635">
        <ele>1079.72</ele>
        <time>2018-08-26T10:03:24Z</time>
      </trkpt>
      <trkpt lat="44.3968" lon="6.54609">
        <ele>1079.51</ele>
        <time>2018-08-26T10:03:25Z</time>
      </trkpt>
      <trkpt lat="44.39693" lon="6.54585">
        <ele>1078.75</ele>
        <time>2018-08-26T10:03:26Z</time>
      </trkpt>
      <trkpt lat="44.39708" lon="6.54563">
        <ele>1078.52</ele>
        <time>2018-08-26T10:03:27Z</time>
      </trkpt>
      <trkpt lat="44.39725" lon="6.54544">
        <ele>1077.75</ele>
        <time>2018-08-26T10:03:28Z</time>
      </trkpt>
      <trkpt lat="44.39743" lon="6.54528">
        <ele>1077.52</ele>
        <time>2018-08-26T10:03:29Z</time>
      </trkpt>
      <trkpt lat="44.39762" lon="6.54517">
        <ele>1076.75</ele>
        <time>2018-08-26T10:03:30Z</time>
      </trkpt>
      <trkpt lat="44.39783" lon="6.54509">
        <ele>1076.52</ele>
        <time>2018-08-26T10:03:31Z</time>
      </trkpt>
      <trkpt lat="44.39802" lon="6.54499">
        <ele>1076.45</ele>
        <time>2018-08-26T10:03:32Z</time>
      </trkpt>
      <trkpt lat="44.39821" lon="6.54484">
        <ele>1075.73</ele>
        <time>2018-08-26T10:03:33Z</time>
      </trkpt>
      <trkpt lat="44.39837" lon="6.54465">
        <ele>1075.51</ele>
        <time>2018-08-26T10:03:34Z</time>
      </trkpt>
      <trkpt lat="44.39852" lon="6.54443">
        <ele>1075.45</ele>
        <time>2018-08-26T10:03:35Z</time>
      </trkpt>
      <trkpt lat="44.39865" lon="6.54419">
        <ele>1074.73</ele>
        <time>2018-08-26T10:03:36Z</time>
      </trkpt>
      <trkpt lat="44.39877" lon="6.54393">
        <ele>1073.81</ele>
        <time>2018-08-26T10:03:37Z</time>
      </trkpt>
      <trkpt lat="44.39888" lon="6.54365">
        <ele>1073.54</ele>
        <time>2018-08-26T10:03:38Z</time>
      </trkpt>
      <trkpt lat="44.39898" lon="6.54337">
        <ele>1072.76</ele>
        <time>2018-08-26T10:03:39Z</time>
      </trkpt>
      <trkpt lat="44.3991" lon="6.54311">
        <ele>1072.52</ele>
        <time>2018-08-26T10:03:40Z</time>
      </trkpt>
      <trkpt lat="44.39924" lon="6.54288">
        <ele>1072.45</ele>
        <time>2018-08-26T10:03:41Z</time>
      </trkpt>
      <trkpt lat="44.39939" lon="6.54267">
        <ele>1072.43</ele>
        <time>2018-08-26T10:03:42Z</time>
      </trkpt>
      <trkpt lat="44.39953" lon="6.54243">
        <ele>1071.72</ele>
        <time>2018-08-26T10:03:43Z</time>
      </trkpt>
      <trkpt lat="44.39964" lon="6.54217">
        <ele>1071.51</ele>
        <time>2018-08-26T10:03:44Z</time>
      </trkpt>
      <trkpt lat="44.39973" lon="6.54189">
        <ele>1070.75</ele>
        <time>2018-08-26T10:03:45Z</time>
      </trkpt>
      <trkpt lat="44.39979" lon="6.54159">
        <ele>1070.52</ele>
        <time>2018-08-26T10:03:46Z</time>
      </trkpt>
      <trkpt lat="44.39981" lon="6.54127">
        <ele>1070.45</ele>
        <time>2018-08-26T10:03:47Z</time>
      </trkpt>
      <trkpt lat="44.39982" lon="6.54095">
        <ele>1069.73</ele>
        <time>2018-08-26T10:03:48Z</time>
      </trkpt>
      <trkpt lat="44.39982" lon="6.54062">
        <ele>1069.51</ele>
        <time>2018-08-26T10:03:49Z</time>
      </trkpt>
      <trkpt lat="44.39983" lon="6.54029">
        <ele>1069.45</ele>
        <time>2018-08-26T10:03:50Z</time>
      </trkpt>
      <trkpt lat="44.39983" lon="6.53997">
        <ele>1068.73</ele>
        <time>2018-08-26T10:03:51Z</time>
      </trkpt>
      <trkpt lat="44.39983" lon="6.53964">
        <ele>1068.51</ele>
        <time>2018-08-26T10:03:52Z</time>
      </trkpt>
      <trkpt lat="44.39983" lon="6.53931">
        <ele>1068.45</ele>
        <time>2018-08-26T10:03:53Z</time>
      </trkpt>
      <trkpt lat="44.39983" lon="6.53898">
        <ele>1068.43</ele>
        <time>2018-08-26T10:03:54Z</time>
      </trkpt>
      <trkpt lat="44.39982" lon="6.53866">
        <ele>1068.42</ele>
        <time>2018-08-26T10:03:55Z</time>
      </trkpt>
      <trkpt lat="44.39979" lon="6.53834">
        <ele>1067.72</ele>
        <time>2018-08-26T10:03:56Z</time>
      </trkpt>
      <trkpt lat="44.39974" lon="6.53803">
        <ele>1067.51</ele>
        <time>2018-08-26T10:03:57Z</time>
      </trkpt>
      <trkpt lat="44.39967" lon="6.53773">
        <ele>1067.45</ele>
        <time>2018-08-26T10:03:58Z</time>
      </trkpt>
      <trkpt lat="44.39959" lon="6.53742">
        <ele>1067.43</ele>
        <time>2018-08-26T10:03:59Z</time>
      </trkpt>
      <trkpt lat="44.3995" lon="6.53714">
        <ele>1067.42</ele>
        <time>2018-08-26T10:04:00Z</time>
      </trkpt>
      <trkpt lat="44.39941" lon="6.53684">
        <ele>1067.42</ele>
        <time>2018-08-26T10:04:01Z</time>
      </trkpt>
      <trkpt lat="44.39932" lon="6.53656">
        <ele>1066.72</ele>
        <time>2018-08-26T10:04:02Z</time>
      </trkpt>
      <trkpt lat="44.39923" lon="6.53628">
        <ele>1066.51</ele>
        <time>2018-08-26T10:04:03Z</time>
      </trkpt>
      <trkpt lat="44.39915" lon="6.53598">
        <ele>1065.75</ele>
        <time>2018-08-26T10:04:04Z</time>
      </trkpt>
      <trkpt lat="44.39907" lon="6.53568">
        <ele>1065.52</ele>
        <time>2018-08-26T10:04:05Z</time>
      </trkpt>
      <trkpt lat="44.39901" lon="6.53539">
        <ele>1065.45</ele>
        <time>2018-08-26T10:04:06Z</time>
      </trkpt>
      <trkpt lat="44.39895" lon="6.53509">
        <ele>1065.43</ele>
        <time>2018-08-26T10:04:07Z</time>
      </trkpt>
      <trkpt lat="44.39889" lon="6.53479">
        <ele>1065.42</ele>
        <time>2018-08-26T10:04:08Z</time>
      </trkpt>
      <trkpt lat="44.39885" lon="6.53449">
        <ele>1065.42</ele>
        <time>2018-08-26T10:04:09Z</time>
      </trkpt>
      <trkpt lat="44.39885" lon="6.53419">
        <ele>1066.12</ele>
        <time>2018-08-26T10:04:10Z</time>
      </trkpt>
      <trkpt lat="44.39889" lon="6.53391">
        <ele>1066.33</ele>
        <time>2018-08-26T10:04:11Z</time>
      </trkpt>
      <trkpt lat="44.39897" lon="6.53365">
        <ele>1067.09</ele>
        <time>2018-08-26T10:04:12Z</time>
      </trkpt>
      <trkpt lat="44.39909" lon="6.53341">
        <ele>1067.32</ele>
        <time>2018-08-26T10:04:13Z</time>
      </trkpt>
      <trkpt lat="44.39922" lon="6.5332">
        <ele>1068.09</ele>
        <time>2018-08-26T10:04:14Z</time>
      </trkpt>
      <trkpt lat="44.39936" lon="6.533">
        <ele>1069.02</ele>
        <time>2018-08-26T10:04:15Z</time>
      </trkpt>
      <trkpt lat="44.39948" lon="6.53278">
        <ele>1069.3</ele>
        <time>2018-08-26T10:04:16Z</time>
      </trkpt>
      <trkpt lat="44.39957" lon="6.53254">
        <ele>1069.39</ele>
        <time>2018-08-26T10:04:17Z</time>
      </trkpt>
      <trkpt lat="44.39964" lon="6.53229">
        <ele>1070.11</ele>
        <time>2018-08-26T10:04:18Z</time>
      </trkpt>
      <trkpt lat="44.39969" lon="6.53203">
        <ele>1070.33</ele>
        <time>2018-08-26T10:04:19Z</time>
      </trkpt>
      <trkpt lat="44.39972" lon="6.53175">
        <ele>1071.09</ele>
        <time>2018-08-26T10:04:20Z</time>
      </trkpt>
      <trkpt lat="44.39973" lon="6.53147">
        <ele>1071.32</ele>
        <time>2018-08-26T10:04:21Z</time>
      </trkpt>
      <trkpt lat="44.39975" lon="6.53119">
        <ele>1072.09</ele>
        <time>2018-08-26T10:04:22Z</time>
      </trkpt>
      <trkpt lat="44.39977" lon="6.5309">
        <ele>1072.32</ele>
        <time>2018-08-26T10:04:23Z</time>
      </trkpt>
      <trkpt lat="44.3998" lon="6.53063">
        <ele>1073.09</ele>
        <time>2018-08-26T10:04:24Z</time>
      </trkpt>
      <trkpt lat="44.39986" lon="6.53038">
        <ele>1072.62</ele>
        <time>2018-08-26T10:04:25Z</time>
      </trkpt>
      <trkpt lat="44.39995" lon="6.53015">
        <ele>1073.18</ele>
        <time>2018-08-26T10:04:26Z</time>
      </trkpt>
      <trkpt lat="44.40008" lon="6.52995">
        <ele>1073.35</ele>
        <time>2018-08-26T10:04:27Z</time>
      </trkpt>
      <trkpt lat="44.40023" lon="6.52975">
        <ele>1072.7</ele>
        <time>2018-08-26T10:04:28Z</time>
      </trkpt>
      <trkpt lat="44.40038" lon="6.52954">
        <ele>1072.5</ele>
        <time>2018-08-26T10:04:29Z</time>
      </trkpt>
      <trkpt lat="44.40053" lon="6.52932">
        <ele>1071.75</ele>
        <time>2018-08-26T10:04:30Z</time>
      </trkpt>
      <trkpt lat="44.40068" lon="6.52909">
        <ele>1071.52</ele>
        <time>2018-08-26T10:04:31Z</time>
      </trkpt>
      <trkpt lat="44.40081" lon="6.52884">
        <ele>1070.75</ele>
        <time>2018-08-26T10:04:32Z</time>
      </trkpt>
      <trkpt lat="44.40095" lon="6.5286">
        <ele>1070.52</ele>
        <time>2018-08-26T10:04:33Z</time>
      </trkpt>
      <trkpt lat="44.40107" lon="6.52836">
        <ele>1069.75</ele>
        <time>2018-08-26T10:04:34Z</time>
      </trkpt>
      <trkpt lat="44.40119" lon="6.52811">
        <ele>1068.82</ele>
        <time>2018-08-26T10:04:35Z</time>
      </trkpt>
      <trkpt lat="44.40129" lon="6.52784">
        <ele>1068.54</ele>
        <time>2018-08-26T10:04:36Z</time>
      </trkpt>
      <trkpt lat="44.40138" lon="6.52755">
        <ele>1067.76</ele>
        <time>2018-08-26T10:04:37Z</time>
      </trkpt>
      <trkpt lat="44.40143" lon="6.52726">
        <ele>1066.82</ele>
        <time>2018-08-26T10:04:38Z</time>
      </trkpt>
      <trkpt lat="44.40146" lon="6.52695">
        <ele>1065.84</ele>
        <time>2018-08-26T10:04:39Z</time>
      </trkpt>
      <trkpt lat="44.40147" lon="6.52663">
        <ele>1064.85</ele>
        <time>2018-08-26T10:04:40Z</time>
      </trkpt>
      <trkpt lat="44.40145" lon="6.52631">
        <ele>1063.85</ele>
        <time>2018-08-26T10:04:41Z</time>
      </trkpt>
      <trkpt lat="44.40141" lon="6.52599">
        <ele>1062.15</ele>
        <time>2018-08-26T10:04:42Z</time>
      </trkpt>
      <trkpt lat="44.40136" lon="6.52567">
        <ele>1060.94</ele>
        <time>2018-08-26T10:04:43Z</time>
      </trkpt>
      <trkpt lat="44.4013" lon="6.52535">
        <ele>1059.18</ele>
        <time>2018-08-26T10:04:44Z</time>
      </trkpt>
      <trkpt lat="44.40123" lon="6.52503">
        <ele>1059.35</ele>
        <time>2018-08-26T10:04:45Z</time>
      </trkpt>
      <trkpt lat="44.40117" lon="6.52472">
        <ele>1058</ele>
        <time>2018-08-26T10:04:46Z</time>
      </trkpt>
      <trkpt lat="44.4011" lon="6.52442">
        <ele>1056.89</ele>
        <time>2018-08-26T10:04:47Z</time>
      </trkpt>
      <trkpt lat="44.40104" lon="6.52412">
        <ele>1055.86</ele>
        <time>2018-08-26T10:04:48Z</time>
      </trkpt>
      <trkpt lat="44.40097" lon="6.52384">
        <ele>1055.55</ele>
        <time>2018-08-26T10:04:49Z</time>
      </trkpt>
      <trkpt lat="44.4009" lon="6.52356">
        <ele>1054.76</ele>
        <time>2018-08-26T10:04:50Z</time>
      </trkpt>
      <trkpt lat="44.40082" lon="6.52329">
        <ele>1053.82</ele>
        <time>2018-08-26T10:04:51Z</time>
      </trkpt>
      <trkpt lat="44.40074" lon="6.52303">
        <ele>1052.84</ele>
        <time>2018-08-26T10:04:52Z</time>
      </trkpt>
      <trkpt lat="44.40067" lon="6.52275">
        <ele>1051.85</ele>
        <time>2018-08-26T10:04:53Z</time>
      </trkpt>
      <trkpt lat="44.40063" lon="6.52246">
        <ele>1051.55</ele>
        <time>2018-08-26T10:04:54Z</time>
      </trkpt>
      <trkpt lat="44.4006" lon="6.52217">
        <ele>1051.46</ele>
        <time>2018-08-26T10:04:55Z</time>
      </trkpt>
      <trkpt lat="44.40058" lon="6.52189">
        <ele>1050.73</ele>
        <time>2018-08-26T10:04:56Z</time>
      </trkpt>
      <trkpt lat="44.40056" lon="6.5216">
        <ele>1050.51</ele>
        <time>2018-08-26T10:04:57Z</time>
      </trkpt>
      <trkpt lat="44.40055" lon="6.52131">
        <ele>1050.45</ele>
        <time>2018-08-26T10:04:58Z</time>
      </trkpt>
      <trkpt lat="44.40056" lon="6.52102">
        <ele>1049.73</ele>
        <time>2018-08-26T10:04:59Z</time>
      </trkpt>
      <trkpt lat="44.40058" lon="6.52073">
        <ele>1049.51</ele>
        <time>2018-08-26T10:05:00Z</time>
      </trkpt>
      <trkpt lat="44.40062" lon="6.52044">
        <ele>1049.45</ele>
        <time>2018-08-26T10:05:01Z</time>
      </trkpt>
      <trkpt lat="44.40067" lon="6.52016">
        <ele>1049.43</ele>
        <time>2018-08-26T10:05:02Z</time>
      </trkpt>
      <trkpt lat="44.40072" lon="6.51988">
        <ele>1049.42</ele>
        <time>2018-08-26T10:05:03Z</time>
      </trkpt>
      <trkpt lat="44.40077" lon="6.51959">
        <ele>1049.42</ele>
        <time>2018-08-26T10:05:04Z</time>
      </trkpt>
      <trkpt lat="44.40082" lon="6.51931">
        <ele>1048.72</ele>
        <time>2018-08-26T10:05:05Z</time>
      </trkpt>
      <trkpt lat="44.40085" lon="6.51903">
        <ele>1048.51</ele>
        <time>2018-08-26T10:05:06Z</time>
      </trkpt>
      <trkpt lat="44.40086" lon="6.51874">
        <ele>1047.75</ele>
        <time>2018-08-26T10:05:07Z</time>
      </trkpt>
      <trkpt lat="44.40086" lon="6.51845">
        <ele>1047.52</ele>
        <time>2018-08-26T10:05:08Z</time>
      </trkpt>
      <trkpt lat="44.40084" lon="6.51817">
        <ele>1046.75</ele>
        <time>2018-08-26T10:05:09Z</time>
      </trkpt>
      <trkpt lat="44.40081" lon="6.51788">
        <ele>1046.52</ele>
        <time>2018-08-26T10:05:10Z</time>
      </trkpt>
      <trkpt lat="44.40077" lon="6.51759">
        <ele>1046.45</ele>
        <time>2018-08-26T10:05:11Z</time>
      </trkpt>
      <trkpt lat="44.40074" lon="6.51731">
        <ele>1045.73</ele>
        <time>2018-08-26T10:05:12Z</time>
      </trkpt>
      <trkpt lat="44.40072" lon="6.51703">
        <ele>1045.51</ele>
        <time>2018-08-26T10:05:13Z</time>
      </trkpt>
      <trkpt lat="44.40071" lon="6.51677">
        <ele>1045.45</ele>
        <time>2018-08-26T10:05:14Z</time>
      </trkpt>
      <trkpt lat="44.40082" lon="6.51629">
        <ele>1046.12</ele>
        <time>2018-08-26T10:05:16Z</time>
      </trkpt>
      <trkpt lat="44.4009" lon="6.51605">
        <ele>1046.33</ele>
        <time>2018-08-26T10:05:17Z</time>
      </trkpt>
      <trkpt lat="44.40098" lon="6.5158">
        <ele>1045.69</ele>
        <time>2018-08-26T10:05:18Z</time>
      </trkpt>
      <trkpt lat="44.40103" lon="6.51555">
        <ele>1045.5</ele>
        <time>2018-08-26T10:05:19Z</time>
      </trkpt>
      <trkpt lat="44.40106" lon="6.51527">
        <ele>1044.75</ele>
        <time>2018-08-26T10:05:20Z</time>
      </trkpt>
      <trkpt lat="44.40105" lon="6.515">
        <ele>1044.52</ele>
        <time>2018-08-26T10:05:21Z</time>
      </trkpt>
      <trkpt lat="44.40103" lon="6.51473">
        <ele>1044.45</ele>
        <time>2018-08-26T10:05:22Z</time>
      </trkpt>
      <trkpt lat="44.40102" lon="6.51446">
        <ele>1044.43</ele>
        <time>2018-08-26T10:05:23Z</time>
      </trkpt>
      <trkpt lat="44.40108" lon="6.514">
        <ele>1042.81</ele>
        <time>2018-08-26T10:05:25Z</time>
      </trkpt>
      <trkpt lat="44.40119" lon="6.51362">
        <ele>1042.46</ele>
        <time>2018-08-26T10:05:27Z</time>
      </trkpt>
      <trkpt lat="44.40128" lon="6.51329">
        <ele>1041.51</ele>
        <time>2018-08-26T10:05:29Z</time>
      </trkpt>
      <trkpt lat="44.40136" lon="6.51293">
        <ele>1041.43</ele>
        <time>2018-08-26T10:05:31Z</time>
      </trkpt>
      <trkpt lat="44.40146" lon="6.51254">
        <ele>1041.42</ele>
        <time>2018-08-26T10:05:33Z</time>
      </trkpt>
      <trkpt lat="44.40155" lon="6.51214">
        <ele>1041.42</ele>
        <time>2018-08-26T10:05:35Z</time>
      </trkpt>
      <trkpt lat="44.40164" lon="6.51175">
        <ele>1041.42</ele>
        <time>2018-08-26T10:05:37Z</time>
      </trkpt>
      <trkpt lat="44.40169" lon="6.51136">
        <ele>1041.42</ele>
        <time>2018-08-26T10:05:39Z</time>
      </trkpt>
      <trkpt lat="44.40168" lon="6.51094">
        <ele>1040.51</ele>
        <time>2018-08-26T10:05:41Z</time>
      </trkpt>
      <trkpt lat="44.40165" lon="6.51052">
        <ele>1040.43</ele>
        <time>2018-08-26T10:05:43Z</time>
      </trkpt>
      <trkpt lat="44.40162" lon="6.51011">
        <ele>1040.21</ele>
        <time>2018-08-26T10:05:45Z</time>
      </trkpt>
      <trkpt lat="44.4016" lon="6.50969">
        <ele>1040.4</ele>
        <time>2018-08-26T10:05:47Z</time>
      </trkpt>
      <trkpt lat="44.40161" lon="6.50926">
        <ele>1039.51</ele>
        <time>2018-08-26T10:05:49Z</time>
      </trkpt>
      <trkpt lat="44.40169" lon="6.50885">
        <ele>1039.43</ele>
        <time>2018-08-26T10:05:51Z</time>
      </trkpt>
      <trkpt lat="44.40173" lon="6.50838">
        <ele>1038.51</ele>
        <time>2018-08-26T10:05:53Z</time>
      </trkpt>
      <trkpt lat="44.4017" lon="6.50812">
        <ele>1037.75</ele>
        <time>2018-08-26T10:05:54Z</time>
      </trkpt>
      <trkpt lat="44.40166" lon="6.50787">
        <ele>1037.52</ele>
        <time>2018-08-26T10:05:55Z</time>
      </trkpt>
      <trkpt lat="44.40158" lon="6.50761">
        <ele>1037.45</ele>
        <time>2018-08-26T10:05:56Z</time>
      </trkpt>
      <trkpt lat="44.40151" lon="6.50736">
        <ele>1037.43</ele>
        <time>2018-08-26T10:05:57Z</time>
      </trkpt>
      <trkpt lat="44.40147" lon="6.50709">
        <ele>1036.72</ele>
        <time>2018-08-26T10:05:58Z</time>
      </trkpt>
      <trkpt lat="44.40147" lon="6.50679">
        <ele>1035.11</ele>
        <time>2018-08-26T10:05:59Z</time>
      </trkpt>
      <trkpt lat="44.40144" lon="6.50649">
        <ele>1033.93</ele>
        <time>2018-08-26T10:06:00Z</time>
      </trkpt>
      <trkpt lat="44.40136" lon="6.50622">
        <ele>1033.57</ele>
        <time>2018-08-26T10:06:01Z</time>
      </trkpt>
      <trkpt lat="44.40126" lon="6.50596">
        <ele>1032.77</ele>
        <time>2018-08-26T10:06:02Z</time>
      </trkpt>
      <trkpt lat="44.40114" lon="6.50572">
        <ele>1032.52</ele>
        <time>2018-08-26T10:06:03Z</time>
      </trkpt>
      <trkpt lat="44.40102" lon="6.50551">
        <ele>1032.45</ele>
        <time>2018-08-26T10:06:04Z</time>
      </trkpt>
      <trkpt lat="44.4009" lon="6.5053">
        <ele>1032.43</ele>
        <time>2018-08-26T10:06:05Z</time>
      </trkpt>
      <trkpt lat="44.40077" lon="6.50511">
        <ele>1031.72</ele>
        <time>2018-08-26T10:06:06Z</time>
      </trkpt>
      <trkpt lat="44.40062" lon="6.50495">
        <ele>1031.51</ele>
        <time>2018-08-26T10:06:07Z</time>
      </trkpt>
      <trkpt lat="44.40046" lon="6.50483">
        <ele>1030.75</ele>
        <time>2018-08-26T10:06:08Z</time>
      </trkpt>
      <trkpt lat="44.40029" lon="6.50473">
        <ele>1030.52</ele>
        <time>2018-08-26T10:06:09Z</time>
      </trkpt>
      <trkpt lat="44.39999" lon="6.50455">
        <ele>1029.73</ele>
        <time>2018-08-26T10:06:11Z</time>
      </trkpt>
      <trkpt lat="44.39982" lon="6.50428">
        <ele>1028.75</ele>
        <time>2018-08-26T10:06:13Z</time>
      </trkpt>
      <trkpt lat="44.39974" lon="6.50391">
        <ele>1027.54</ele>
        <time>2018-08-26T10:06:15Z</time>
      </trkpt>
      <trkpt lat="44.39984" lon="6.50367">
        <ele>1027.46</ele>
        <time>2018-08-26T10:06:16Z</time>
      </trkpt>
      <trkpt lat="44.39993" lon="6.50326">
        <ele>1026.51</ele>
        <time>2018-08-26T10:06:18Z</time>
      </trkpt>
      <trkpt lat="44.40016" lon="6.50287">
        <ele>1025.73</ele>
        <time>2018-08-26T10:06:20Z</time>
      </trkpt>
      <trkpt lat="44.4003" lon="6.50267">
        <ele>1024.81</ele>
        <time>2018-08-26T10:06:21Z</time>
      </trkpt>
      <trkpt lat="44.40043" lon="6.50247">
        <ele>1023.84</ele>
        <time>2018-08-26T10:06:22Z</time>
      </trkpt>
      <trkpt lat="44.40055" lon="6.50226">
        <ele>1023.55</ele>
        <time>2018-08-26T10:06:23Z</time>
      </trkpt>
      <trkpt lat="44.40072" lon="6.50182">
        <ele>1021.82</ele>
        <time>2018-08-26T10:06:25Z</time>
      </trkpt>
      <trkpt lat="44.40076" lon="6.50155">
        <ele>1020.84</ele>
        <time>2018-08-26T10:06:26Z</time>
      </trkpt>
      <trkpt lat="44.40078" lon="6.50126">
        <ele>1019.85</ele>
        <time>2018-08-26T10:06:27Z</time>
      </trkpt>
      <trkpt lat="44.4008" lon="6.50095">
        <ele>1018.85</ele>
        <time>2018-08-26T10:06:28Z</time>
      </trkpt>
      <trkpt lat="44.40081" lon="6.50064">
        <ele>1017.85</ele>
        <time>2018-08-26T10:06:29Z</time>
      </trkpt>
      <trkpt lat="44.40082" lon="6.50033">
        <ele>1016.85</ele>
        <time>2018-08-26T10:06:30Z</time>
      </trkpt>
      <trkpt lat="44.4008" lon="6.50002">
        <ele>1015.85</ele>
        <time>2018-08-26T10:06:31Z</time>
      </trkpt>
      <trkpt lat="44.40075" lon="6.49971">
        <ele>1014.85</ele>
        <time>2018-08-26T10:06:32Z</time>
      </trkpt>
      <trkpt lat="44.40068" lon="6.49942">
        <ele>1013.85</ele>
        <time>2018-08-26T10:06:33Z</time>
      </trkpt>
      <trkpt lat="44.40064" lon="6.49911">
        <ele>1013.55</ele>
        <time>2018-08-26T10:06:34Z</time>
      </trkpt>
      <trkpt lat="44.40063" lon="6.49879">
        <ele>1012.06</ele>
        <time>2018-08-26T10:06:35Z</time>
      </trkpt>
      <trkpt lat="44.40064" lon="6.49847">
        <ele>1010.91</ele>
        <time>2018-08-26T10:06:36Z</time>
      </trkpt>
      <trkpt lat="44.40064" lon="6.49816">
        <ele>1009.87</ele>
        <time>2018-08-26T10:06:37Z</time>
      </trkpt>
      <trkpt lat="44.40064" lon="6.49783">
        <ele>1008.86</ele>
        <time>2018-08-26T10:06:38Z</time>
      </trkpt>
      <trkpt lat="44.40063" lon="6.49752">
        <ele>1007.85</ele>
        <time>2018-08-26T10:06:39Z</time>
      </trkpt>
      <trkpt lat="44.40062" lon="6.4972">
        <ele>1006.15</ele>
        <time>2018-08-26T10:06:40Z</time>
      </trkpt>
      <trkpt lat="44.4006" lon="6.4969">
        <ele>1005.64</ele>
        <time>2018-08-26T10:06:41Z</time>
      </trkpt>
      <trkpt lat="44.40058" lon="6.49659">
        <ele>1004.09</ele>
        <time>2018-08-26T10:06:42Z</time>
      </trkpt>
      <trkpt lat="44.40054" lon="6.4963">
        <ele>1003.62</ele>
        <time>2018-08-26T10:06:43Z</time>
      </trkpt>
      <trkpt lat="44.40047" lon="6.49601">
        <ele>1002.78</ele>
        <time>2018-08-26T10:06:44Z</time>
      </trkpt>
      <trkpt lat="44.40034" lon="6.49575">
        <ele>1001.83</ele>
        <time>2018-08-26T10:06:45Z</time>
      </trkpt>
      <trkpt lat="44.40022" lon="6.49548">
        <ele>1000.84</ele>
        <time>2018-08-26T10:06:46Z</time>
      </trkpt>
      <trkpt lat="44.4001" lon="6.49521">
        <ele>999.15</ele>
        <time>2018-08-26T10:06:47Z</time>
      </trkpt>
      <trkpt lat="44.39998" lon="6.49495">
        <ele>997.24</ele>
        <time>2018-08-26T10:06:48Z</time>
      </trkpt>
      <trkpt lat="44.39983" lon="6.49474">
        <ele>995.97</ele>
        <time>2018-08-26T10:06:49Z</time>
      </trkpt>
      <trkpt lat="44.39967" lon="6.49456">
        <ele>994.88</ele>
        <time>2018-08-26T10:06:50Z</time>
      </trkpt>
      <trkpt lat="44.39949" lon="6.49443">
        <ele>993.86</ele>
        <time>2018-08-26T10:06:51Z</time>
      </trkpt>
      <trkpt lat="44.39931" lon="6.49433">
        <ele>992.85</ele>
        <time>2018-08-26T10:06:52Z</time>
      </trkpt>
      <trkpt lat="44.39913" lon="6.49419">
        <ele>991.15</ele>
        <time>2018-08-26T10:06:53Z</time>
      </trkpt>
      <trkpt lat="44.39894" lon="6.49404">
        <ele>990.64</ele>
        <time>2018-08-26T10:06:54Z</time>
      </trkpt>
      <trkpt lat="44.39878" lon="6.49387">
        <ele>990.49</ele>
        <time>2018-08-26T10:06:55Z</time>
      </trkpt>
      <trkpt lat="44.39867" lon="6.49365">
        <ele>989.74</ele>
        <time>2018-08-26T10:06:56Z</time>
      </trkpt>
      <trkpt lat="44.39858" lon="6.49341">
        <ele>989.52</ele>
        <time>2018-08-26T10:06:57Z</time>
      </trkpt>
      <trkpt lat="44.39861" lon="6.49309">
        <ele>989.45</ele>
        <time>2018-08-26T10:06:58Z</time>
      </trkpt>
      <trkpt lat="44.39868" lon="6.49269">
        <ele>988.73</ele>
        <time>2018-08-26T10:06:59Z</time>
      </trkpt>
      <trkpt lat="44.39866" lon="6.49238">
        <ele>987.81</ele>
        <time>2018-08-26T10:07:00Z</time>
      </trkpt>
      <trkpt lat="44.39862" lon="6.49206">
        <ele>986.84</ele>
        <time>2018-08-26T10:07:01Z</time>
      </trkpt>
      <trkpt lat="44.39858" lon="6.49174">
        <ele>986.55</ele>
        <time>2018-08-26T10:07:02Z</time>
      </trkpt>
      <trkpt lat="44.39855" lon="6.49141">
        <ele>985.06</ele>
        <time>2018-08-26T10:07:03Z</time>
      </trkpt>
      <trkpt lat="44.39852" lon="6.49109">
        <ele>983.91</ele>
        <time>2018-08-26T10:07:04Z</time>
      </trkpt>
      <trkpt lat="44.39849" lon="6.49077">
        <ele>982.87</ele>
        <time>2018-08-26T10:07:05Z</time>
      </trkpt>
      <trkpt lat="44.39845" lon="6.49044">
        <ele>981.86</ele>
        <time>2018-08-26T10:07:06Z</time>
      </trkpt>
      <trkpt lat="44.39842" lon="6.49012">
        <ele>980.15</ele>
        <time>2018-08-26T10:07:07Z</time>
      </trkpt>
      <trkpt lat="44.39839" lon="6.4898">
        <ele>978.94</ele>
        <time>2018-08-26T10:07:08Z</time>
      </trkpt>
      <trkpt lat="44.39836" lon="6.48948">
        <ele>977.18</ele>
        <time>2018-08-26T10:07:09Z</time>
      </trkpt>
      <trkpt lat="44.39833" lon="6.48916">
        <ele>975.95</ele>
        <time>2018-08-26T10:07:10Z</time>
      </trkpt>
      <trkpt lat="44.39831" lon="6.48886">
        <ele>974.88</ele>
        <time>2018-08-26T10:07:11Z</time>
      </trkpt>
      <trkpt lat="44.39828" lon="6.48855">
        <ele>973.16</ele>
        <time>2018-08-26T10:07:12Z</time>
      </trkpt>
      <trkpt lat="44.39825" lon="6.48825">
        <ele>971.94</ele>
        <time>2018-08-26T10:07:13Z</time>
      </trkpt>
      <trkpt lat="44.39819" lon="6.48797">
        <ele>970.88</ele>
        <time>2018-08-26T10:07:14Z</time>
      </trkpt>
      <trkpt lat="44.39812" lon="6.48771">
        <ele>969.86</ele>
        <time>2018-08-26T10:07:15Z</time>
      </trkpt>
      <trkpt lat="44.39802" lon="6.48745">
        <ele>968.15</ele>
        <time>2018-08-26T10:07:16Z</time>
      </trkpt>
      <trkpt lat="44.39791" lon="6.48721">
        <ele>966.94</ele>
        <time>2018-08-26T10:07:17Z</time>
      </trkpt>
      <trkpt lat="44.39777" lon="6.48697">
        <ele>965.88</ele>
        <time>2018-08-26T10:07:18Z</time>
      </trkpt>
      <trkpt lat="44.39761" lon="6.48676">
        <ele>964.16</ele>
        <time>2018-08-26T10:07:19Z</time>
      </trkpt>
      <trkpt lat="44.39745" lon="6.48655">
        <ele>962.24</ele>
        <time>2018-08-26T10:07:20Z</time>
      </trkpt>
      <trkpt lat="44.39729" lon="6.48633">
        <ele>960.27</ele>
        <time>2018-08-26T10:07:21Z</time>
      </trkpt>
      <trkpt lat="44.39714" lon="6.4861">
        <ele>959.67</ele>
        <time>2018-08-26T10:07:22Z</time>
      </trkpt>
      <trkpt lat="44.397" lon="6.48586">
        <ele>958.8</ele>
        <time>2018-08-26T10:07:23Z</time>
      </trkpt>
      <trkpt lat="44.39691" lon="6.48558">
        <ele>957.83</ele>
        <time>2018-08-26T10:07:24Z</time>
      </trkpt>
      <trkpt lat="44.39683" lon="6.48529">
        <ele>957.54</ele>
        <time>2018-08-26T10:07:25Z</time>
      </trkpt>
      <trkpt lat="44.39679" lon="6.48499">
        <ele>957.46</ele>
        <time>2018-08-26T10:07:26Z</time>
      </trkpt>
      <trkpt lat="44.39677" lon="6.4847">
        <ele>957.43</ele>
        <time>2018-08-26T10:07:27Z</time>
      </trkpt>
      <trkpt lat="44.39677" lon="6.48439">
        <ele>957.42</ele>
        <time>2018-08-26T10:07:28Z</time>
      </trkpt>
      <trkpt lat="44.3968" lon="6.4841">
        <ele>957.42</ele>
        <time>2018-08-26T10:07:29Z</time>
      </trkpt>
      <trkpt lat="44.39684" lon="6.48381">
        <ele>958.12</ele>
        <time>2018-08-26T10:07:30Z</time>
      </trkpt>
      <trkpt lat="44.39691" lon="6.48353">
        <ele>958.33</ele>
        <time>2018-08-26T10:07:31Z</time>
      </trkpt>
      <trkpt lat="44.39698" lon="6.48326">
        <ele>958.39</ele>
        <time>2018-08-26T10:07:32Z</time>
      </trkpt>
      <trkpt lat="44.39706" lon="6.48298">
        <ele>958.41</ele>
        <time>2018-08-26T10:07:33Z</time>
      </trkpt>
      <trkpt lat="44.39713" lon="6.48271">
        <ele>958.42</ele>
        <time>2018-08-26T10:07:34Z</time>
      </trkpt>
      <trkpt lat="44.39719" lon="6.48243">
        <ele>958.42</ele>
        <time>2018-08-26T10:07:35Z</time>
      </trkpt>
      <trkpt lat="44.39723" lon="6.48214">
        <ele>958.42</ele>
        <time>2018-08-26T10:07:36Z</time>
      </trkpt>
      <trkpt lat="44.39724" lon="6.48186">
        <ele>958.42</ele>
        <time>2018-08-26T10:07:37Z</time>
      </trkpt>
      <trkpt lat="44.39724" lon="6.48157">
        <ele>958.42</ele>
        <time>2018-08-26T10:07:38Z</time>
      </trkpt>
      <trkpt lat="44.39724" lon="6.48129">
        <ele>958.42</ele>
        <time>2018-08-26T10:07:39Z</time>
      </trkpt>
      <trkpt lat="44.39722" lon="6.481">
        <ele>958.42</ele>
        <time>2018-08-26T10:07:40Z</time>
      </trkpt>
      <trkpt lat="44.39719" lon="6.48072">
        <ele>957.72</ele>
        <time>2018-08-26T10:07:41Z</time>
      </trkpt>
      <trkpt lat="44.39716" lon="6.48044">
        <ele>957.51</ele>
        <time>2018-08-26T10:07:42Z</time>
      </trkpt>
      <trkpt lat="44.39713" lon="6.48016">
        <ele>957.45</ele>
        <time>2018-08-26T10:07:43Z</time>
      </trkpt>
      <trkpt lat="44.3971" lon="6.47988">
        <ele>957.43</ele>
        <time>2018-08-26T10:07:44Z</time>
      </trkpt>
      <trkpt lat="44.39708" lon="6.47961">
        <ele>958.12</ele>
        <time>2018-08-26T10:07:45Z</time>
      </trkpt>
      <trkpt lat="44.39706" lon="6.47935">
        <ele>958.33</ele>
        <time>2018-08-26T10:07:46Z</time>
      </trkpt>
      <trkpt lat="44.39703" lon="6.47908">
        <ele>959.09</ele>
        <time>2018-08-26T10:07:47Z</time>
      </trkpt>
      <trkpt lat="44.39701" lon="6.47883">
        <ele>960.02</ele>
        <time>2018-08-26T10:07:48Z</time>
      </trkpt>
      <trkpt lat="44.39698" lon="6.47858">
        <ele>960.3</ele>
        <time>2018-08-26T10:07:49Z</time>
      </trkpt>
      <trkpt lat="44.39693" lon="6.4781">
        <ele>962.02</ele>
        <time>2018-08-26T10:07:51Z</time>
      </trkpt>
      <trkpt lat="44.39687" lon="6.47762">
        <ele>964.69</ele>
        <time>2018-08-26T10:07:53Z</time>
      </trkpt>
      <trkpt lat="44.39681" lon="6.47713">
        <ele>966.06</ele>
        <time>2018-08-26T10:07:55Z</time>
      </trkpt>
      <trkpt lat="44.39678" lon="6.47662">
        <ele>968</ele>
        <time>2018-08-26T10:07:57Z</time>
      </trkpt>
      <trkpt lat="44.39679" lon="6.47635">
        <ele>968.99</ele>
        <time>2018-08-26T10:07:58Z</time>
      </trkpt>
      <trkpt lat="44.39681" lon="6.47608">
        <ele>969.29</ele>
        <time>2018-08-26T10:07:59Z</time>
      </trkpt>
      <trkpt lat="44.39686" lon="6.47581">
        <ele>969.38</ele>
        <time>2018-08-26T10:08:00Z</time>
      </trkpt>
      <trkpt lat="44.39692" lon="6.47555">
        <ele>970.11</ele>
        <time>2018-08-26T10:08:01Z</time>
      </trkpt>
      <trkpt lat="44.39699" lon="6.4753">
        <ele>971.03</ele>
        <time>2018-08-26T10:08:02Z</time>
      </trkpt>
      <trkpt lat="44.39708" lon="6.47506">
        <ele>971.3</ele>
        <time>2018-08-26T10:08:03Z</time>
      </trkpt>
      <trkpt lat="44.39719" lon="6.47484">
        <ele>972.09</ele>
        <time>2018-08-26T10:08:04Z</time>
      </trkpt>
      <trkpt lat="44.39731" lon="6.47464">
        <ele>972.32</ele>
        <time>2018-08-26T10:08:05Z</time>
      </trkpt>
      <trkpt lat="44.39745" lon="6.47444">
        <ele>972.39</ele>
        <time>2018-08-26T10:08:06Z</time>
      </trkpt>
      <trkpt lat="44.39759" lon="6.47424">
        <ele>973.11</ele>
        <time>2018-08-26T10:08:07Z</time>
      </trkpt>
      <trkpt lat="44.39773" lon="6.47403">
        <ele>972.63</ele>
        <time>2018-08-26T10:08:08Z</time>
      </trkpt>
      <trkpt lat="44.39787" lon="6.47376">
        <ele>972.48</ele>
        <time>2018-08-26T10:08:09Z</time>
      </trkpt>
      <trkpt lat="44.39802" lon="6.47347">
        <ele>971.74</ele>
        <time>2018-08-26T10:08:10Z</time>
      </trkpt>
      <trkpt lat="44.39816" lon="6.47317">
        <ele>971.52</ele>
        <time>2018-08-26T10:08:11Z</time>
      </trkpt>
      <trkpt lat="44.39829" lon="6.47286">
        <ele>970.75</ele>
        <time>2018-08-26T10:08:12Z</time>
      </trkpt>
      <trkpt lat="44.39842" lon="6.47256">
        <ele>969.12</ele>
        <time>2018-08-26T10:08:13Z</time>
      </trkpt>
      <trkpt lat="44.39854" lon="6.47225">
        <ele>967.93</ele>
        <time>2018-08-26T10:08:14Z</time>
      </trkpt>
      <trkpt lat="44.39867" lon="6.47195">
        <ele>966.87</ele>
        <time>2018-08-26T10:08:15Z</time>
      </trkpt>
      <trkpt lat="44.3988" lon="6.47166">
        <ele>965.86</ele>
        <time>2018-08-26T10:08:16Z</time>
      </trkpt>
      <trkpt lat="44.39894" lon="6.47139">
        <ele>964.85</ele>
        <time>2018-08-26T10:08:17Z</time>
      </trkpt>
      <trkpt lat="44.39911" lon="6.47116">
        <ele>963.85</ele>
        <time>2018-08-26T10:08:18Z</time>
      </trkpt>
      <trkpt lat="44.3993" lon="6.47097">
        <ele>962.15</ele>
        <time>2018-08-26T10:08:19Z</time>
      </trkpt>
      <trkpt lat="44.39951" lon="6.47082">
        <ele>961.64</ele>
        <time>2018-08-26T10:08:20Z</time>
      </trkpt>
      <trkpt lat="44.39971" lon="6.47071">
        <ele>960.09</ele>
        <time>2018-08-26T10:08:21Z</time>
      </trkpt>
      <trkpt lat="44.39991" lon="6.47064">
        <ele>958.92</ele>
        <time>2018-08-26T10:08:22Z</time>
      </trkpt>
      <trkpt lat="44.40011" lon="6.47058">
        <ele>957.87</ele>
        <time>2018-08-26T10:08:23Z</time>
      </trkpt>
      <trkpt lat="44.4003" lon="6.47051">
        <ele>957.56</ele>
        <time>2018-08-26T10:08:24Z</time>
      </trkpt>
      <trkpt lat="44.40048" lon="6.47042">
        <ele>956.76</ele>
        <time>2018-08-26T10:08:25Z</time>
      </trkpt>
      <trkpt lat="44.40065" lon="6.47031">
        <ele>955.82</ele>
        <time>2018-08-26T10:08:26Z</time>
      </trkpt>
      <trkpt lat="44.40082" lon="6.47018">
        <ele>954.84</ele>
        <time>2018-08-26T10:08:27Z</time>
      </trkpt>
      <trkpt lat="44.40098" lon="6.47001">
        <ele>954.55</ele>
        <time>2018-08-26T10:08:28Z</time>
      </trkpt>
      <trkpt lat="44.40113" lon="6.46982">
        <ele>953.06</ele>
        <time>2018-08-26T10:08:29Z</time>
      </trkpt>
      <trkpt lat="44.40126" lon="6.46961">
        <ele>951.91</ele>
        <time>2018-08-26T10:08:30Z</time>
      </trkpt>
      <trkpt lat="44.40138" lon="6.46935">
        <ele>951.57</ele>
        <time>2018-08-26T10:08:31Z</time>
      </trkpt>
      <trkpt lat="44.40149" lon="6.46905">
        <ele>950.77</ele>
        <time>2018-08-26T10:08:32Z</time>
      </trkpt>
      <trkpt lat="44.4016" lon="6.46875">
        <ele>949.12</ele>
        <time>2018-08-26T10:08:33Z</time>
      </trkpt>
      <trkpt lat="44.40171" lon="6.46845">
        <ele>947.93</ele>
        <time>2018-08-26T10:08:34Z</time>
      </trkpt>
      <trkpt lat="44.40181" lon="6.46815">
        <ele>946.87</ele>
        <time>2018-08-26T10:08:35Z</time>
      </trkpt>
      <trkpt lat="44.40191" lon="6.46783">
        <ele>945.86</ele>
        <time>2018-08-26T10:08:36Z</time>
      </trkpt>
      <trkpt lat="44.40201" lon="6.46753">
        <ele>944.85</ele>
        <time>2018-08-26T10:08:37Z</time>
      </trkpt>
      <trkpt lat="44.40211" lon="6.46721">
        <ele>943.85</ele>
        <time>2018-08-26T10:08:38Z</time>
      </trkpt>
      <trkpt lat="44.40219" lon="6.4669">
        <ele>943.55</ele>
        <time>2018-08-26T10:08:39Z</time>
      </trkpt>
      <trkpt lat="44.40225" lon="6.46658">
        <ele>943.46</ele>
        <time>2018-08-26T10:08:40Z</time>
      </trkpt>
      <trkpt lat="44.40229" lon="6.46626">
        <ele>943.43</ele>
        <time>2018-08-26T10:08:41Z</time>
      </trkpt>
      <trkpt lat="44.40231" lon="6.46593">
        <ele>943.42</ele>
        <time>2018-08-26T10:08:42Z</time>
      </trkpt>
      <trkpt lat="44.40233" lon="6.46561">
        <ele>943.42</ele>
        <time>2018-08-26T10:08:43Z</time>
      </trkpt>
      <trkpt lat="44.40237" lon="6.4653">
        <ele>944.82</ele>
        <time>2018-08-26T10:08:44Z</time>
      </trkpt>
      <trkpt lat="44.40242" lon="6.46498">
        <ele>945.24</ele>
        <time>2018-08-26T10:08:45Z</time>
      </trkpt>
      <trkpt lat="44.4025" lon="6.46469">
        <ele>946.07</ele>
        <time>2018-08-26T10:08:46Z</time>
      </trkpt>
      <trkpt lat="44.40259" lon="6.4644">
        <ele>946.31</ele>
        <time>2018-08-26T10:08:47Z</time>
      </trkpt>
      <trkpt lat="44.4027" lon="6.46412">
        <ele>947.09</ele>
        <time>2018-08-26T10:08:48Z</time>
      </trkpt>
      <trkpt lat="44.40282" lon="6.46385">
        <ele>946.62</ele>
        <time>2018-08-26T10:08:49Z</time>
      </trkpt>
      <trkpt lat="44.40297" lon="6.46361">
        <ele>947.18</ele>
        <time>2018-08-26T10:08:50Z</time>
      </trkpt>
      <trkpt lat="44.40313" lon="6.46338">
        <ele>947.35</ele>
        <time>2018-08-26T10:08:51Z</time>
      </trkpt>
      <trkpt lat="44.40331" lon="6.46317">
        <ele>947.4</ele>
        <time>2018-08-26T10:08:52Z</time>
      </trkpt>
      <trkpt lat="44.4035" lon="6.46297">
        <ele>947.41</ele>
        <time>2018-08-26T10:08:53Z</time>
      </trkpt>
      <trkpt lat="44.4037" lon="6.46279">
        <ele>946.72</ele>
        <time>2018-08-26T10:08:54Z</time>
      </trkpt>
      <trkpt lat="44.40389" lon="6.46262">
        <ele>946.51</ele>
        <time>2018-08-26T10:08:55Z</time>
      </trkpt>
      <trkpt lat="44.40407" lon="6.46243">
        <ele>946.45</ele>
        <time>2018-08-26T10:08:56Z</time>
      </trkpt>
      <trkpt lat="44.40424" lon="6.46222">
        <ele>945.73</ele>
        <time>2018-08-26T10:08:57Z</time>
      </trkpt>
      <trkpt lat="44.40441" lon="6.462">
        <ele>944.81</ele>
        <time>2018-08-26T10:08:58Z</time>
      </trkpt>
      <trkpt lat="44.40455" lon="6.46176">
        <ele>944.54</ele>
        <time>2018-08-26T10:08:59Z</time>
      </trkpt>
      <trkpt lat="44.40469" lon="6.46149">
        <ele>943.76</ele>
        <time>2018-08-26T10:09:00Z</time>
      </trkpt>
      <trkpt lat="44.40481" lon="6.46119">
        <ele>943.52</ele>
        <time>2018-08-26T10:09:01Z</time>
      </trkpt>
      <trkpt lat="44.40493" lon="6.46086">
        <ele>942.75</ele>
        <time>2018-08-26T10:09:02Z</time>
      </trkpt>
      <trkpt lat="44.40505" lon="6.4605">
        <ele>942.52</ele>
        <time>2018-08-26T10:09:03Z</time>
      </trkpt>
      <trkpt lat="44.40518" lon="6.46013">
        <ele>941.75</ele>
        <time>2018-08-26T10:09:04Z</time>
      </trkpt>
      <trkpt lat="44.40532" lon="6.45978">
        <ele>940.82</ele>
        <time>2018-08-26T10:09:05Z</time>
      </trkpt>
      <trkpt lat="44.40547" lon="6.45946">
        <ele>939.84</ele>
        <time>2018-08-26T10:09:06Z</time>
      </trkpt>
      <trkpt lat="44.40562" lon="6.45917">
        <ele>938.85</ele>
        <time>2018-08-26T10:09:07Z</time>
      </trkpt>
      <trkpt lat="44.40577" lon="6.45891">
        <ele>937.85</ele>
        <time>2018-08-26T10:09:08Z</time>
      </trkpt>
      <trkpt lat="44.4059" lon="6.45868">
        <ele>936.85</ele>
        <time>2018-08-26T10:09:09Z</time>
      </trkpt>
      <trkpt lat="44.40602" lon="6.45844">
        <ele>935.85</ele>
        <time>2018-08-26T10:09:10Z</time>
      </trkpt>
      <trkpt lat="44.40613" lon="6.45819">
        <ele>934.85</ele>
        <time>2018-08-26T10:09:11Z</time>
      </trkpt>
      <trkpt lat="44.40626" lon="6.45791">
        <ele>934.55</ele>
        <time>2018-08-26T10:09:12Z</time>
      </trkpt>
      <trkpt lat="44.4064" lon="6.45761">
        <ele>934.46</ele>
        <time>2018-08-26T10:09:13Z</time>
      </trkpt>
      <trkpt lat="44.40656" lon="6.45732">
        <ele>934.43</ele>
        <time>2018-08-26T10:09:14Z</time>
      </trkpt>
      <trkpt lat="44.4067" lon="6.45703">
        <ele>934.42</ele>
        <time>2018-08-26T10:09:15Z</time>
      </trkpt>
      <trkpt lat="44.40685" lon="6.45674">
        <ele>934.42</ele>
        <time>2018-08-26T10:09:16Z</time>
      </trkpt>
      <trkpt lat="44.40699" lon="6.45647">
        <ele>933.72</ele>
        <time>2018-08-26T10:09:17Z</time>
      </trkpt>
      <trkpt lat="44.40713" lon="6.4562">
        <ele>933.51</ele>
        <time>2018-08-26T10:09:18Z</time>
      </trkpt>
      <trkpt lat="44.40728" lon="6.45594">
        <ele>932.75</ele>
        <time>2018-08-26T10:09:19Z</time>
      </trkpt>
      <trkpt lat="44.40744" lon="6.45571">
        <ele>932.52</ele>
        <time>2018-08-26T10:09:20Z</time>
      </trkpt>
      <trkpt lat="44.40761" lon="6.45548">
        <ele>932.45</ele>
        <time>2018-08-26T10:09:21Z</time>
      </trkpt>
      <trkpt lat="44.40778" lon="6.45526">
        <ele>932.43</ele>
        <time>2018-08-26T10:09:22Z</time>
      </trkpt>
      <trkpt lat="44.40794" lon="6.45504">
        <ele>932.42</ele>
        <time>2018-08-26T10:09:23Z</time>
      </trkpt>
      <trkpt lat="44.40811" lon="6.45485">
        <ele>931.72</ele>
        <time>2018-08-26T10:09:24Z</time>
      </trkpt>
      <trkpt lat="44.4083" lon="6.45468">
        <ele>931.51</ele>
        <time>2018-08-26T10:09:25Z</time>
      </trkpt>
      <trkpt lat="44.40849" lon="6.45453">
        <ele>932.15</ele>
        <time>2018-08-26T10:09:26Z</time>
      </trkpt>
      <trkpt lat="44.4087" lon="6.4544">
        <ele>932.34</ele>
        <time>2018-08-26T10:09:27Z</time>
      </trkpt>
      <trkpt lat="44.4089" lon="6.45427">
        <ele>932.4</ele>
        <time>2018-08-26T10:09:28Z</time>
      </trkpt>
      <trkpt lat="44.40909" lon="6.45414">
        <ele>933.11</ele>
        <time>2018-08-26T10:09:29Z</time>
      </trkpt>
      <trkpt lat="44.40928" lon="6.45401">
        <ele>933.33</ele>
        <time>2018-08-26T10:09:30Z</time>
      </trkpt>
      <trkpt lat="44.40947" lon="6.45388">
        <ele>933.39</ele>
        <time>2018-08-26T10:09:31Z</time>
      </trkpt>
      <trkpt lat="44.40965" lon="6.45377">
        <ele>933.41</ele>
        <time>2018-08-26T10:09:32Z</time>
      </trkpt>
      <trkpt lat="44.40983" lon="6.45367">
        <ele>933.42</ele>
        <time>2018-08-26T10:09:33Z</time>
      </trkpt>
      <trkpt lat="44.41001" lon="6.45362">
        <ele>933.42</ele>
        <time>2018-08-26T10:09:34Z</time>
      </trkpt>
      <trkpt lat="44.4102" lon="6.45359">
        <ele>933.42</ele>
        <time>2018-08-26T10:09:35Z</time>
      </trkpt>
      <trkpt lat="44.4104" lon="6.45357">
        <ele>933.42</ele>
        <time>2018-08-26T10:09:36Z</time>
      </trkpt>
      <trkpt lat="44.41061" lon="6.45356">
        <ele>934.12</ele>
        <time>2018-08-26T10:09:37Z</time>
      </trkpt>
      <trkpt lat="44.41082" lon="6.45354">
        <ele>934.33</ele>
        <time>2018-08-26T10:09:38Z</time>
      </trkpt>
      <trkpt lat="44.41103" lon="6.45348">
        <ele>933.69</ele>
        <time>2018-08-26T10:09:39Z</time>
      </trkpt>
      <trkpt lat="44.41124" lon="6.45341">
        <ele>933.5</ele>
        <time>2018-08-26T10:09:40Z</time>
      </trkpt>
      <trkpt lat="44.4114" lon="6.45323">
        <ele>934.15</ele>
        <time>2018-08-26T10:09:41Z</time>
      </trkpt>
      <trkpt lat="44.41157" lon="6.45303">
        <ele>933.64</ele>
        <time>2018-08-26T10:09:42Z</time>
      </trkpt>
      <trkpt lat="44.41169" lon="6.45277">
        <ele>933.49</ele>
        <time>2018-08-26T10:09:43Z</time>
      </trkpt>
      <trkpt lat="44.41178" lon="6.4525">
        <ele>933.44</ele>
        <time>2018-08-26T10:09:44Z</time>
      </trkpt>
      <trkpt lat="44.41183" lon="6.4522">
        <ele>933.43</ele>
        <time>2018-08-26T10:09:45Z</time>
      </trkpt>
      <trkpt lat="44.41184" lon="6.45189">
        <ele>932.72</ele>
        <time>2018-08-26T10:09:46Z</time>
      </trkpt>
      <trkpt lat="44.41183" lon="6.45156">
        <ele>932.51</ele>
        <time>2018-08-26T10:09:47Z</time>
      </trkpt>
      <trkpt lat="44.41182" lon="6.45124">
        <ele>931.75</ele>
        <time>2018-08-26T10:09:48Z</time>
      </trkpt>
      <trkpt lat="44.41184" lon="6.45092">
        <ele>930.82</ele>
        <time>2018-08-26T10:09:49Z</time>
      </trkpt>
      <trkpt lat="44.41189" lon="6.4506">
        <ele>930.54</ele>
        <time>2018-08-26T10:09:50Z</time>
      </trkpt>
      <trkpt lat="44.41198" lon="6.45029">
        <ele>930.46</ele>
        <time>2018-08-26T10:09:51Z</time>
      </trkpt>
      <trkpt lat="44.41209" lon="6.45001">
        <ele>930.43</ele>
        <time>2018-08-26T10:09:52Z</time>
      </trkpt>
      <trkpt lat="44.41221" lon="6.44972">
        <ele>929.72</ele>
        <time>2018-08-26T10:09:53Z</time>
      </trkpt>
      <trkpt lat="44.41233" lon="6.44944">
        <ele>929.51</ele>
        <time>2018-08-26T10:09:54Z</time>
      </trkpt>
      <trkpt lat="44.41247" lon="6.44917">
        <ele>928.75</ele>
        <time>2018-08-26T10:09:55Z</time>
      </trkpt>
      <trkpt lat="44.41262" lon="6.44893">
        <ele>927.82</ele>
        <time>2018-08-26T10:09:56Z</time>
      </trkpt>
      <trkpt lat="44.4128" lon="6.44872">
        <ele>927.54</ele>
        <time>2018-08-26T10:09:57Z</time>
      </trkpt>
      <trkpt lat="44.413" lon="6.44854">
        <ele>926.76</ele>
        <time>2018-08-26T10:09:58Z</time>
      </trkpt>
      <trkpt lat="44.4132" lon="6.44838">
        <ele>926.52</ele>
        <time>2018-08-26T10:09:59Z</time>
      </trkpt>
      <trkpt lat="44.41341" lon="6.44823">
        <ele>925.75</ele>
        <time>2018-08-26T10:10:00Z</time>
      </trkpt>
      <trkpt lat="44.41362" lon="6.44812">
        <ele>925.52</ele>
        <time>2018-08-26T10:10:01Z</time>
      </trkpt>
      <trkpt lat="44.41385" lon="6.44804">
        <ele>924.75</ele>
        <time>2018-08-26T10:10:02Z</time>
      </trkpt>
      <trkpt lat="44.41408" lon="6.44801">
        <ele>924.52</ele>
        <time>2018-08-26T10:10:03Z</time>
      </trkpt>
      <trkpt lat="44.41431" lon="6.448">
        <ele>923.75</ele>
        <time>2018-08-26T10:10:04Z</time>
      </trkpt>
      <trkpt lat="44.41455" lon="6.44801">
        <ele>923.52</ele>
        <time>2018-08-26T10:10:05Z</time>
      </trkpt>
      <trkpt lat="44.41479" lon="6.44799">
        <ele>922.75</ele>
        <time>2018-08-26T10:10:06Z</time>
      </trkpt>
      <trkpt lat="44.41505" lon="6.44797">
        <ele>921.82</ele>
        <time>2018-08-26T10:10:07Z</time>
      </trkpt>
      <trkpt lat="44.41532" lon="6.44794">
        <ele>920.14</ele>
        <time>2018-08-26T10:10:08Z</time>
      </trkpt>
      <trkpt lat="44.41558" lon="6.44791">
        <ele>918.94</ele>
        <time>2018-08-26T10:10:09Z</time>
      </trkpt>
      <trkpt lat="44.41583" lon="6.44788">
        <ele>917.88</ele>
        <time>2018-08-26T10:10:10Z</time>
      </trkpt>
      <trkpt lat="44.41609" lon="6.44783">
        <ele>916.86</ele>
        <time>2018-08-26T10:10:11Z</time>
      </trkpt>
      <trkpt lat="44.41633" lon="6.44779">
        <ele>915.85</ele>
        <time>2018-08-26T10:10:12Z</time>
      </trkpt>
      <trkpt lat="44.41657" lon="6.44772">
        <ele>915.55</ele>
        <time>2018-08-26T10:10:13Z</time>
      </trkpt>
      <trkpt lat="44.41681" lon="6.44763">
        <ele>914.76</ele>
        <time>2018-08-26T10:10:14Z</time>
      </trkpt>
      <trkpt lat="44.41704" lon="6.44752">
        <ele>913.82</ele>
        <time>2018-08-26T10:10:15Z</time>
      </trkpt>
      <trkpt lat="44.41728" lon="6.4474">
        <ele>912.14</ele>
        <time>2018-08-26T10:10:16Z</time>
      </trkpt>
      <trkpt lat="44.41752" lon="6.44728">
        <ele>910.94</ele>
        <time>2018-08-26T10:10:17Z</time>
      </trkpt>
      <trkpt lat="44.41776" lon="6.44719">
        <ele>909.88</ele>
        <time>2018-08-26T10:10:18Z</time>
      </trkpt>
      <trkpt lat="44.41801" lon="6.4471">
        <ele>909.56</ele>
        <time>2018-08-26T10:10:19Z</time>
      </trkpt>
      <trkpt lat="44.41825" lon="6.44701">
        <ele>908.76</ele>
        <time>2018-08-26T10:10:20Z</time>
      </trkpt>
      <trkpt lat="44.41849" lon="6.44692">
        <ele>907.82</ele>
        <time>2018-08-26T10:10:21Z</time>
      </trkpt>
      <trkpt lat="44.41871" lon="6.44681">
        <ele>907.54</ele>
        <time>2018-08-26T10:10:22Z</time>
      </trkpt>
      <trkpt lat="44.41893" lon="6.44667">
        <ele>907.46</ele>
        <time>2018-08-26T10:10:23Z</time>
      </trkpt>
      <trkpt lat="44.41914" lon="6.4465">
        <ele>907.43</ele>
        <time>2018-08-26T10:10:24Z</time>
      </trkpt>
      <trkpt lat="44.41932" lon="6.4463">
        <ele>906.72</ele>
        <time>2018-08-26T10:10:25Z</time>
      </trkpt>
      <trkpt lat="44.41949" lon="6.44604">
        <ele>905.81</ele>
        <time>2018-08-26T10:10:26Z</time>
      </trkpt>
      <trkpt lat="44.41966" lon="6.44578">
        <ele>905.54</ele>
        <time>2018-08-26T10:10:27Z</time>
      </trkpt>
      <trkpt lat="44.41982" lon="6.44552">
        <ele>905.46</ele>
        <time>2018-08-26T10:10:28Z</time>
      </trkpt>
      <trkpt lat="44.41999" lon="6.44527">
        <ele>904.73</ele>
        <time>2018-08-26T10:10:29Z</time>
      </trkpt>
      <trkpt lat="44.42018" lon="6.44503">
        <ele>904.51</ele>
        <time>2018-08-26T10:10:30Z</time>
      </trkpt>
      <trkpt lat="44.42039" lon="6.44482">
        <ele>903.75</ele>
        <time>2018-08-26T10:10:31Z</time>
      </trkpt>
      <trkpt lat="44.42062" lon="6.44465">
        <ele>903.52</ele>
        <time>2018-08-26T10:10:32Z</time>
      </trkpt>
      <trkpt lat="44.42085" lon="6.44449">
        <ele>902.75</ele>
        <time>2018-08-26T10:10:33Z</time>
      </trkpt>
      <trkpt lat="44.42108" lon="6.44434">
        <ele>901.82</ele>
        <time>2018-08-26T10:10:34Z</time>
      </trkpt>
      <trkpt lat="44.42131" lon="6.44417">
        <ele>900.84</ele>
        <time>2018-08-26T10:10:35Z</time>
      </trkpt>
      <trkpt lat="44.42154" lon="6.44401">
        <ele>900.55</ele>
        <time>2018-08-26T10:10:36Z</time>
      </trkpt>
      <trkpt lat="44.42177" lon="6.44385">
        <ele>899.76</ele>
        <time>2018-08-26T10:10:37Z</time>
      </trkpt>
      <trkpt lat="44.422" lon="6.44369">
        <ele>899.52</ele>
        <time>2018-08-26T10:10:38Z</time>
      </trkpt>
      <trkpt lat="44.42222" lon="6.44354">
        <ele>899.45</ele>
        <time>2018-08-26T10:10:39Z</time>
      </trkpt>
      <trkpt lat="44.42244" lon="6.44337">
        <ele>898.73</ele>
        <time>2018-08-26T10:10:40Z</time>
      </trkpt>
      <trkpt lat="44.42266" lon="6.4432">
        <ele>898.51</ele>
        <time>2018-08-26T10:10:41Z</time>
      </trkpt>
      <trkpt lat="44.42285" lon="6.44298">
        <ele>898.45</ele>
        <time>2018-08-26T10:10:42Z</time>
      </trkpt>
      <trkpt lat="44.42301" lon="6.44274">
        <ele>898.43</ele>
        <time>2018-08-26T10:10:43Z</time>
      </trkpt>
      <trkpt lat="44.42315" lon="6.44248">
        <ele>898.42</ele>
        <time>2018-08-26T10:10:44Z</time>
      </trkpt>
      <trkpt lat="44.42326" lon="6.4422">
        <ele>898.42</ele>
        <time>2018-08-26T10:10:45Z</time>
      </trkpt>
      <trkpt lat="44.42335" lon="6.44191">
        <ele>898.42</ele>
        <time>2018-08-26T10:10:46Z</time>
      </trkpt>
      <trkpt lat="44.42343" lon="6.4416">
        <ele>898.42</ele>
        <time>2018-08-26T10:10:47Z</time>
      </trkpt>
      <trkpt lat="44.42351" lon="6.4413">
        <ele>898.42</ele>
        <time>2018-08-26T10:10:48Z</time>
      </trkpt>
      <trkpt lat="44.42361" lon="6.44102">
        <ele>899.12</ele>
        <time>2018-08-26T10:10:49Z</time>
      </trkpt>
      <trkpt lat="44.42372" lon="6.44074">
        <ele>899.33</ele>
        <time>2018-08-26T10:10:50Z</time>
      </trkpt>
      <trkpt lat="44.42384" lon="6.44049">
        <ele>900.09</ele>
        <time>2018-08-26T10:10:51Z</time>
      </trkpt>
      <trkpt lat="44.42396" lon="6.44025">
        <ele>900.32</ele>
        <time>2018-08-26T10:10:52Z</time>
      </trkpt>
      <trkpt lat="44.42409" lon="6.44004">
        <ele>901.09</ele>
        <time>2018-08-26T10:10:53Z</time>
      </trkpt>
      <trkpt lat="44.42422" lon="6.43984">
        <ele>901.32</ele>
        <time>2018-08-26T10:10:54Z</time>
      </trkpt>
      <trkpt lat="44.42434" lon="6.43964">
        <ele>901.39</ele>
        <time>2018-08-26T10:10:55Z</time>
      </trkpt>
      <trkpt lat="44.42446" lon="6.43945">
        <ele>901.41</ele>
        <time>2018-08-26T10:10:56Z</time>
      </trkpt>
      <trkpt lat="44.42459" lon="6.43926">
        <ele>901.42</ele>
        <time>2018-08-26T10:10:57Z</time>
      </trkpt>
      <trkpt lat="44.42482" lon="6.43889">
        <ele>901.42</ele>
        <time>2018-08-26T10:10:59Z</time>
      </trkpt>
      <trkpt lat="44.42505" lon="6.43853">
        <ele>902.33</ele>
        <time>2018-08-26T10:11:01Z</time>
      </trkpt>
      <trkpt lat="44.42526" lon="6.4382">
        <ele>903.32</ele>
        <time>2018-08-26T10:11:03Z</time>
      </trkpt>
      <trkpt lat="44.42546" lon="6.4379">
        <ele>904.11</ele>
        <time>2018-08-26T10:11:05Z</time>
      </trkpt>
      <trkpt lat="44.42568" lon="6.43765">
        <ele>905.09</ele>
        <time>2018-08-26T10:11:07Z</time>
      </trkpt>
      <trkpt lat="44.42592" lon="6.43743">
        <ele>905.39</ele>
        <time>2018-08-26T10:11:09Z</time>
      </trkpt>
      <trkpt lat="44.42617" lon="6.43721">
        <ele>906.33</ele>
        <time>2018-08-26T10:11:11Z</time>
      </trkpt>
      <trkpt lat="44.42643" lon="6.43704">
        <ele>907.32</ele>
        <time>2018-08-26T10:11:13Z</time>
      </trkpt>
      <trkpt lat="44.42669" lon="6.43692">
        <ele>907.41</ele>
        <time>2018-08-26T10:11:15Z</time>
      </trkpt>
      <trkpt lat="44.42693" lon="6.4368">
        <ele>907.42</ele>
        <time>2018-08-26T10:11:17Z</time>
      </trkpt>
      <trkpt lat="44.42714" lon="6.43665">
        <ele>908.33</ele>
        <time>2018-08-26T10:11:19Z</time>
      </trkpt>
      <trkpt lat="44.4273" lon="6.43647">
        <ele>907.71</ele>
        <time>2018-08-26T10:11:21Z</time>
      </trkpt>
      <trkpt lat="44.42745" lon="6.43632">
        <ele>908.36</ele>
        <time>2018-08-26T10:11:23Z</time>
      </trkpt>
      <trkpt lat="44.42761" lon="6.43617">
        <ele>907.51</ele>
        <time>2018-08-26T10:11:25Z</time>
      </trkpt>
      <trkpt lat="44.42776" lon="6.436">
        <ele>907.43</ele>
        <time>2018-08-26T10:11:27Z</time>
      </trkpt>
      <trkpt lat="44.42788" lon="6.43581">
        <ele>906.72</ele>
        <time>2018-08-26T10:11:29Z</time>
      </trkpt>
      <trkpt lat="44.42797" lon="6.43559">
        <ele>907.36</ele>
        <time>2018-08-26T10:11:31Z</time>
      </trkpt>
      <trkpt lat="44.42811" lon="6.43531">
        <ele>906.72</ele>
        <time>2018-08-26T10:11:34Z</time>
      </trkpt>
      <trkpt lat="44.42828" lon="6.43502">
        <ele>907.13</ele>
        <time>2018-08-26T10:11:37Z</time>
      </trkpt>
      <trkpt lat="44.42845" lon="6.43475">
        <ele>907.41</ele>
        <time>2018-08-26T10:11:40Z</time>
      </trkpt>
      <trkpt lat="44.42863" lon="6.43449">
        <ele>907.42</ele>
        <time>2018-08-26T10:11:43Z</time>
      </trkpt>
      <trkpt lat="44.42874" lon="6.4342">
        <ele>906.51</ele>
        <time>2018-08-26T10:11:46Z</time>
      </trkpt>
      <trkpt lat="44.42876" lon="6.43388">
        <ele>906.42</ele>
        <time>2018-08-26T10:11:49Z</time>
      </trkpt>
      <trkpt lat="44.42873" lon="6.43363">
        <ele>905.72</ele>
        <time>2018-08-26T10:11:51Z</time>
      </trkpt>
      <trkpt lat="44.42871" lon="6.43336">
        <ele>905.45</ele>
        <time>2018-08-26T10:11:53Z</time>
      </trkpt>
      <trkpt lat="44.42873" lon="6.43306">
        <ele>905.42</ele>
        <time>2018-08-26T10:11:55Z</time>
      </trkpt>
      <trkpt lat="44.42881" lon="6.43278">
        <ele>905.42</ele>
        <time>2018-08-26T10:11:57Z</time>
      </trkpt>
      <trkpt lat="44.42892" lon="6.43252">
        <ele>905.42</ele>
        <time>2018-08-26T10:11:59Z</time>
      </trkpt>
      <trkpt lat="44.42904" lon="6.43227">
        <ele>907.03</ele>
        <time>2018-08-26T10:12:01Z</time>
      </trkpt>
      <trkpt lat="44.42916" lon="6.43201">
        <ele>907.39</ele>
        <time>2018-08-26T10:12:03Z</time>
      </trkpt>
      <trkpt lat="44.42929" lon="6.43174">
        <ele>907.42</ele>
        <time>2018-08-26T10:12:05Z</time>
      </trkpt>
      <trkpt lat="44.42943" lon="6.43144">
        <ele>908.12</ele>
        <time>2018-08-26T10:12:07Z</time>
      </trkpt>
      <trkpt lat="44.42958" lon="6.43115">
        <ele>909.3</ele>
        <time>2018-08-26T10:12:09Z</time>
      </trkpt>
      <trkpt lat="44.42973" lon="6.43086">
        <ele>909.41</ele>
        <time>2018-08-26T10:12:11Z</time>
      </trkpt>
      <trkpt lat="44.42988" lon="6.43051">
        <ele>909.42</ele>
        <time>2018-08-26T10:12:13Z</time>
      </trkpt>
      <trkpt lat="44.43002" lon="6.43009">
        <ele>909.42</ele>
        <time>2018-08-26T10:12:15Z</time>
      </trkpt>
      <trkpt lat="44.43019" lon="6.42973">
        <ele>908.51</ele>
        <time>2018-08-26T10:12:17Z</time>
      </trkpt>
      <trkpt lat="44.43038" lon="6.42942">
        <ele>908.22</ele>
        <time>2018-08-26T10:12:19Z</time>
      </trkpt>
      <trkpt lat="44.43066" lon="6.42911">
        <ele>910.01</ele>
        <time>2018-08-26T10:12:21Z</time>
      </trkpt>
      <trkpt lat="44.43081" lon="6.42897">
        <ele>911</ele>
        <time>2018-08-26T10:12:22Z</time>
      </trkpt>
      <trkpt lat="44.43097" lon="6.42881">
        <ele>910.59</ele>
        <time>2018-08-26T10:12:23Z</time>
      </trkpt>
      <trkpt lat="44.43112" lon="6.42864">
        <ele>911.17</ele>
        <time>2018-08-26T10:12:24Z</time>
      </trkpt>
      <trkpt lat="44.43127" lon="6.42847">
        <ele>911.35</ele>
        <time>2018-08-26T10:12:25Z</time>
      </trkpt>
      <trkpt lat="44.43141" lon="6.4283">
        <ele>912.1</ele>
        <time>2018-08-26T10:12:26Z</time>
      </trkpt>
      <trkpt lat="44.43156" lon="6.42813">
        <ele>913.02</ele>
        <time>2018-08-26T10:12:27Z</time>
      </trkpt>
      <trkpt lat="44.43171" lon="6.42796">
        <ele>913.3</ele>
        <time>2018-08-26T10:12:28Z</time>
      </trkpt>
      <trkpt lat="44.43187" lon="6.42779">
        <ele>913.39</ele>
        <time>2018-08-26T10:12:29Z</time>
      </trkpt>
      <trkpt lat="44.43204" lon="6.42763">
        <ele>913.41</ele>
        <time>2018-08-26T10:12:30Z</time>
      </trkpt>
      <trkpt lat="44.4322" lon="6.42746">
        <ele>914.12</ele>
        <time>2018-08-26T10:12:31Z</time>
      </trkpt>
      <trkpt lat="44.43237" lon="6.4273">
        <ele>914.33</ele>
        <time>2018-08-26T10:12:32Z</time>
      </trkpt>
      <trkpt lat="44.43254" lon="6.42713">
        <ele>914.39</ele>
        <time>2018-08-26T10:12:33Z</time>
      </trkpt>
      <trkpt lat="44.43271" lon="6.42696">
        <ele>914.41</ele>
        <time>2018-08-26T10:12:34Z</time>
      </trkpt>
      <trkpt lat="44.43288" lon="6.4268">
        <ele>914.42</ele>
        <time>2018-08-26T10:12:35Z</time>
      </trkpt>
      <trkpt lat="44.43306" lon="6.42663">
        <ele>915.12</ele>
        <time>2018-08-26T10:12:36Z</time>
      </trkpt>
      <trkpt lat="44.43323" lon="6.42647">
        <ele>915.33</ele>
        <time>2018-08-26T10:12:37Z</time>
      </trkpt>
      <trkpt lat="44.43341" lon="6.42632">
        <ele>915.39</ele>
        <time>2018-08-26T10:12:38Z</time>
      </trkpt>
      <trkpt lat="44.43356" lon="6.42614">
        <ele>915.41</ele>
        <time>2018-08-26T10:12:39Z</time>
      </trkpt>
      <trkpt lat="44.4337" lon="6.42593">
        <ele>915.42</ele>
        <time>2018-08-26T10:12:40Z</time>
      </trkpt>
      <trkpt lat="44.43382" lon="6.42569">
        <ele>916.12</ele>
        <time>2018-08-26T10:12:41Z</time>
      </trkpt>
      <trkpt lat="44.43393" lon="6.42545">
        <ele>916.33</ele>
        <time>2018-08-26T10:12:42Z</time>
      </trkpt>
      <trkpt lat="44.43405" lon="6.42523">
        <ele>916.39</ele>
        <time>2018-08-26T10:12:43Z</time>
      </trkpt>
      <trkpt lat="44.43419" lon="6.42501">
        <ele>917.11</ele>
        <time>2018-08-26T10:12:44Z</time>
      </trkpt>
      <trkpt lat="44.43433" lon="6.4248">
        <ele>917.33</ele>
        <time>2018-08-26T10:12:45Z</time>
      </trkpt>
      <trkpt lat="44.43448" lon="6.42459">
        <ele>917.39</ele>
        <time>2018-08-26T10:12:46Z</time>
      </trkpt>
      <trkpt lat="44.43466" lon="6.4244">
        <ele>917.41</ele>
        <time>2018-08-26T10:12:47Z</time>
      </trkpt>
      <trkpt lat="44.43485" lon="6.42422">
        <ele>918.12</ele>
        <time>2018-08-26T10:12:48Z</time>
      </trkpt>
      <trkpt lat="44.43504" lon="6.42403">
        <ele>918.33</ele>
        <time>2018-08-26T10:12:49Z</time>
      </trkpt>
      <trkpt lat="44.43522" lon="6.42383">
        <ele>918.39</ele>
        <time>2018-08-26T10:12:50Z</time>
      </trkpt>
      <trkpt lat="44.43539" lon="6.42362">
        <ele>919.11</ele>
        <time>2018-08-26T10:12:51Z</time>
      </trkpt>
      <trkpt lat="44.43557" lon="6.42344">
        <ele>919.33</ele>
        <time>2018-08-26T10:12:52Z</time>
      </trkpt>
      <trkpt lat="44.43577" lon="6.42328">
        <ele>920.09</ele>
        <time>2018-08-26T10:12:53Z</time>
      </trkpt>
      <trkpt lat="44.43595" lon="6.42314">
        <ele>921.02</ele>
        <time>2018-08-26T10:12:54Z</time>
      </trkpt>
      <trkpt lat="44.43612" lon="6.42298">
        <ele>921.3</ele>
        <time>2018-08-26T10:12:55Z</time>
      </trkpt>
      <trkpt lat="44.43626" lon="6.4228">
        <ele>922.09</ele>
        <time>2018-08-26T10:12:56Z</time>
      </trkpt>
      <trkpt lat="44.43638" lon="6.42257">
        <ele>922.32</ele>
        <time>2018-08-26T10:12:57Z</time>
      </trkpt>
      <trkpt lat="44.43649" lon="6.42232">
        <ele>922.39</ele>
        <time>2018-08-26T10:12:58Z</time>
      </trkpt>
      <trkpt lat="44.43658" lon="6.42206">
        <ele>921.71</ele>
        <time>2018-08-26T10:12:59Z</time>
      </trkpt>
      <trkpt lat="44.43668" lon="6.4218">
        <ele>921.51</ele>
        <time>2018-08-26T10:13:00Z</time>
      </trkpt>
      <trkpt lat="44.43678" lon="6.42153">
        <ele>920.75</ele>
        <time>2018-08-26T10:13:01Z</time>
      </trkpt>
      <trkpt lat="44.43689" lon="6.42126">
        <ele>920.52</ele>
        <time>2018-08-26T10:13:02Z</time>
      </trkpt>
      <trkpt lat="44.43699" lon="6.421">
        <ele>919.75</ele>
        <time>2018-08-26T10:13:03Z</time>
      </trkpt>
      <trkpt lat="44.43709" lon="6.42074">
        <ele>918.82</ele>
        <time>2018-08-26T10:13:04Z</time>
      </trkpt>
      <trkpt lat="44.43715" lon="6.42048">
        <ele>917.84</ele>
        <time>2018-08-26T10:13:05Z</time>
      </trkpt>
      <trkpt lat="44.43715" lon="6.42021">
        <ele>916.85</ele>
        <time>2018-08-26T10:13:06Z</time>
      </trkpt>
      <trkpt lat="44.43711" lon="6.41994">
        <ele>915.85</ele>
        <time>2018-08-26T10:13:07Z</time>
      </trkpt>
      <trkpt lat="44.43706" lon="6.41968">
        <ele>915.55</ele>
        <time>2018-08-26T10:13:08Z</time>
      </trkpt>
      <trkpt lat="44.43702" lon="6.41941">
        <ele>915.46</ele>
        <time>2018-08-26T10:13:09Z</time>
      </trkpt>
      <trkpt lat="44.43702" lon="6.41911">
        <ele>915.43</ele>
        <time>2018-08-26T10:13:10Z</time>
      </trkpt>
      <trkpt lat="44.43712" lon="6.41885">
        <ele>915.42</ele>
        <time>2018-08-26T10:13:11Z</time>
      </trkpt>
      <trkpt lat="44.43723" lon="6.4186">
        <ele>914.02</ele>
        <time>2018-08-26T10:13:12Z</time>
      </trkpt>
      <trkpt lat="44.43735" lon="6.41837">
        <ele>913.6</ele>
        <time>2018-08-26T10:13:13Z</time>
      </trkpt>
      <trkpt lat="44.43749" lon="6.41818">
        <ele>912.78</ele>
        <time>2018-08-26T10:13:14Z</time>
      </trkpt>
      <trkpt lat="44.43764" lon="6.418">
        <ele>911.83</ele>
        <time>2018-08-26T10:13:15Z</time>
      </trkpt>
      <trkpt lat="44.4378" lon="6.41782">
        <ele>910.84</ele>
        <time>2018-08-26T10:13:16Z</time>
      </trkpt>
      <trkpt lat="44.43795" lon="6.41762">
        <ele>909.85</ele>
        <time>2018-08-26T10:13:17Z</time>
      </trkpt>
      <trkpt lat="44.43811" lon="6.41742">
        <ele>909.55</ele>
        <time>2018-08-26T10:13:18Z</time>
      </trkpt>
      <trkpt lat="44.43827" lon="6.41722">
        <ele>909.46</ele>
        <time>2018-08-26T10:13:19Z</time>
      </trkpt>
      <trkpt lat="44.43844" lon="6.41702">
        <ele>910.13</ele>
        <time>2018-08-26T10:13:20Z</time>
      </trkpt>
      <trkpt lat="44.43861" lon="6.41682">
        <ele>911.03</ele>
        <time>2018-08-26T10:13:21Z</time>
      </trkpt>
      <trkpt lat="44.43879" lon="6.41663">
        <ele>912.01</ele>
        <time>2018-08-26T10:13:22Z</time>
      </trkpt>
      <trkpt lat="44.43897" lon="6.41646">
        <ele>913</ele>
        <time>2018-08-26T10:13:23Z</time>
      </trkpt>
      <trkpt lat="44.43914" lon="6.41629">
        <ele>913.99</ele>
        <time>2018-08-26T10:13:24Z</time>
      </trkpt>
      <trkpt lat="44.43932" lon="6.41612">
        <ele>914.99</ele>
        <time>2018-08-26T10:13:25Z</time>
      </trkpt>
      <trkpt lat="44.4395" lon="6.41595">
        <ele>915.29</ele>
        <time>2018-08-26T10:13:26Z</time>
      </trkpt>
      <trkpt lat="44.43968" lon="6.41577">
        <ele>916.08</ele>
        <time>2018-08-26T10:13:27Z</time>
      </trkpt>
      <trkpt lat="44.43986" lon="6.41559">
        <ele>917.02</ele>
        <time>2018-08-26T10:13:28Z</time>
      </trkpt>
      <trkpt lat="44.44004" lon="6.41539">
        <ele>918</ele>
        <time>2018-08-26T10:13:29Z</time>
      </trkpt>
      <trkpt lat="44.44021" lon="6.4152">
        <ele>918.29</ele>
        <time>2018-08-26T10:13:30Z</time>
      </trkpt>
      <trkpt lat="44.44039" lon="6.41501">
        <ele>919.08</ele>
        <time>2018-08-26T10:13:31Z</time>
      </trkpt>
      <trkpt lat="44.44057" lon="6.41483">
        <ele>919.32</ele>
        <time>2018-08-26T10:13:32Z</time>
      </trkpt>
      <trkpt lat="44.44076" lon="6.41468">
        <ele>919.39</ele>
        <time>2018-08-26T10:13:33Z</time>
      </trkpt>
      <trkpt lat="44.44095" lon="6.41452">
        <ele>919.41</ele>
        <time>2018-08-26T10:13:34Z</time>
      </trkpt>
      <trkpt lat="44.44112" lon="6.41434">
        <ele>920.12</ele>
        <time>2018-08-26T10:13:35Z</time>
      </trkpt>
      <trkpt lat="44.44128" lon="6.41414">
        <ele>920.33</ele>
        <time>2018-08-26T10:13:36Z</time>
      </trkpt>
      <trkpt lat="44.44144" lon="6.41392">
        <ele>920.39</ele>
        <time>2018-08-26T10:13:37Z</time>
      </trkpt>
      <trkpt lat="44.4416" lon="6.41372">
        <ele>921.11</ele>
        <time>2018-08-26T10:13:38Z</time>
      </trkpt>
      <trkpt lat="44.44176" lon="6.41351">
        <ele>922.03</ele>
        <time>2018-08-26T10:13:39Z</time>
      </trkpt>
      <trkpt lat="44.44193" lon="6.41333">
        <ele>923</ele>
        <time>2018-08-26T10:13:40Z</time>
      </trkpt>
      <trkpt lat="44.44211" lon="6.41316">
        <ele>923.3</ele>
        <time>2018-08-26T10:13:41Z</time>
      </trkpt>
      <trkpt lat="44.44229" lon="6.413">
        <ele>923.38</ele>
        <time>2018-08-26T10:13:42Z</time>
      </trkpt>
      <trkpt lat="44.44248" lon="6.41285">
        <ele>924.11</ele>
        <time>2018-08-26T10:13:43Z</time>
      </trkpt>
      <trkpt lat="44.44266" lon="6.4127">
        <ele>924.33</ele>
        <time>2018-08-26T10:13:44Z</time>
      </trkpt>
      <trkpt lat="44.44285" lon="6.41254">
        <ele>925.09</ele>
        <time>2018-08-26T10:13:45Z</time>
      </trkpt>
      <trkpt lat="44.44303" lon="6.41237">
        <ele>926.02</ele>
        <time>2018-08-26T10:13:46Z</time>
      </trkpt>
      <trkpt lat="44.44321" lon="6.4122">
        <ele>926.3</ele>
        <time>2018-08-26T10:13:47Z</time>
      </trkpt>
      <trkpt lat="44.44338" lon="6.412">
        <ele>926.39</ele>
        <time>2018-08-26T10:13:48Z</time>
      </trkpt>
      <trkpt lat="44.44356" lon="6.41183">
        <ele>926.41</ele>
        <time>2018-08-26T10:13:49Z</time>
      </trkpt>
      <trkpt lat="44.44375" lon="6.41168">
        <ele>927.12</ele>
        <time>2018-08-26T10:13:50Z</time>
      </trkpt>
      <trkpt lat="44.44395" lon="6.41155">
        <ele>928.03</ele>
        <time>2018-08-26T10:13:51Z</time>
      </trkpt>
      <trkpt lat="44.44415" lon="6.41142">
        <ele>929</ele>
        <time>2018-08-26T10:13:52Z</time>
      </trkpt>
      <trkpt lat="44.44434" lon="6.41127">
        <ele>930</ele>
        <time>2018-08-26T10:13:53Z</time>
      </trkpt>
      <trkpt lat="44.44453" lon="6.41111">
        <ele>930.29</ele>
        <time>2018-08-26T10:13:54Z</time>
      </trkpt>
      <trkpt lat="44.44472" lon="6.41095">
        <ele>931.08</ele>
        <time>2018-08-26T10:13:55Z</time>
      </trkpt>
      <trkpt lat="44.44491" lon="6.41079">
        <ele>932.02</ele>
        <time>2018-08-26T10:13:56Z</time>
      </trkpt>
      <trkpt lat="44.44508" lon="6.41063">
        <ele>933</ele>
        <time>2018-08-26T10:13:57Z</time>
      </trkpt>
      <trkpt lat="44.44522" lon="6.41046">
        <ele>933.99</ele>
        <time>2018-08-26T10:13:58Z</time>
      </trkpt>
      <trkpt lat="44.44538" lon="6.41002">
        <ele>935.08</ele>
        <time>2018-08-26T10:14:00Z</time>
      </trkpt>
      <trkpt lat="44.44542" lon="6.40975">
        <ele>935.32</ele>
        <time>2018-08-26T10:14:01Z</time>
      </trkpt>
      <trkpt lat="44.44544" lon="6.40943">
        <ele>935.39</ele>
        <time>2018-08-26T10:14:02Z</time>
      </trkpt>
      <trkpt lat="44.44548" lon="6.40908">
        <ele>936.11</ele>
        <time>2018-08-26T10:14:03Z</time>
      </trkpt>
      <trkpt lat="44.44551" lon="6.40873">
        <ele>936.33</ele>
        <time>2018-08-26T10:14:04Z</time>
      </trkpt>
      <trkpt lat="44.44556" lon="6.40838">
        <ele>937.09</ele>
        <time>2018-08-26T10:14:05Z</time>
      </trkpt>
      <trkpt lat="44.44561" lon="6.40804">
        <ele>937.32</ele>
        <time>2018-08-26T10:14:06Z</time>
      </trkpt>
      <trkpt lat="44.44564" lon="6.4077">
        <ele>938.09</ele>
        <time>2018-08-26T10:14:07Z</time>
      </trkpt>
      <trkpt lat="44.44566" lon="6.40736">
        <ele>939.02</ele>
        <time>2018-08-26T10:14:08Z</time>
      </trkpt>
      <trkpt lat="44.44569" lon="6.40703">
        <ele>940.7</ele>
        <time>2018-08-26T10:14:09Z</time>
      </trkpt>
      <trkpt lat="44.44572" lon="6.40671">
        <ele>942.61</ele>
        <time>2018-08-26T10:14:10Z</time>
      </trkpt>
      <trkpt lat="44.44578" lon="6.40639">
        <ele>943.18</ele>
        <time>2018-08-26T10:14:11Z</time>
      </trkpt>
      <trkpt lat="44.44587" lon="6.4061">
        <ele>944.75</ele>
        <time>2018-08-26T10:14:12Z</time>
      </trkpt>
      <trkpt lat="44.44596" lon="6.40581">
        <ele>945.92</ele>
        <time>2018-08-26T10:14:13Z</time>
      </trkpt>
      <trkpt lat="44.44605" lon="6.40552">
        <ele>947.67</ele>
        <time>2018-08-26T10:14:14Z</time>
      </trkpt>
      <trkpt lat="44.44611" lon="6.40521">
        <ele>948.9</ele>
        <time>2018-08-26T10:14:15Z</time>
      </trkpt>
      <trkpt lat="44.44614" lon="6.4049">
        <ele>949.96</ele>
        <time>2018-08-26T10:14:16Z</time>
      </trkpt>
      <trkpt lat="44.44616" lon="6.40459">
        <ele>951.68</ele>
        <time>2018-08-26T10:14:17Z</time>
      </trkpt>
      <trkpt lat="44.4462" lon="6.40428">
        <ele>952.9</ele>
        <time>2018-08-26T10:14:18Z</time>
      </trkpt>
      <trkpt lat="44.44625" lon="6.40397">
        <ele>953.96</ele>
        <time>2018-08-26T10:14:19Z</time>
      </trkpt>
      <trkpt lat="44.44632" lon="6.40366">
        <ele>954.98</ele>
        <time>2018-08-26T10:14:20Z</time>
      </trkpt>
      <trkpt lat="44.4464" lon="6.40335">
        <ele>956.69</ele>
        <time>2018-08-26T10:14:21Z</time>
      </trkpt>
      <trkpt lat="44.44647" lon="6.40304">
        <ele>957.9</ele>
        <time>2018-08-26T10:14:22Z</time>
      </trkpt>
      <trkpt lat="44.44656" lon="6.40275">
        <ele>958.97</ele>
        <time>2018-08-26T10:14:23Z</time>
      </trkpt>
      <trkpt lat="44.44666" lon="6.40247">
        <ele>959.28</ele>
        <time>2018-08-26T10:14:24Z</time>
      </trkpt>
      <trkpt lat="44.44678" lon="6.4022">
        <ele>960.08</ele>
        <time>2018-08-26T10:14:25Z</time>
      </trkpt>
      <trkpt lat="44.4469" lon="6.40195">
        <ele>961.72</ele>
        <time>2018-08-26T10:14:26Z</time>
      </trkpt>
      <trkpt lat="44.44699" lon="6.40166">
        <ele>962.91</ele>
        <time>2018-08-26T10:14:27Z</time>
      </trkpt>
      <trkpt lat="44.44705" lon="6.40137">
        <ele>964.67</ele>
        <time>2018-08-26T10:14:28Z</time>
      </trkpt>
      <trkpt lat="44.4471" lon="6.40107">
        <ele>965.9</ele>
        <time>2018-08-26T10:14:29Z</time>
      </trkpt>
      <trkpt lat="44.44712" lon="6.40077">
        <ele>967.66</ele>
        <time>2018-08-26T10:14:30Z</time>
      </trkpt>
      <trkpt lat="44.44712" lon="6.40048">
        <ele>968.89</ele>
        <time>2018-08-26T10:14:31Z</time>
      </trkpt>
      <trkpt lat="44.44709" lon="6.4002">
        <ele>969.96</ele>
        <time>2018-08-26T10:14:32Z</time>
      </trkpt>
      <trkpt lat="44.44702" lon="6.39991">
        <ele>971.68</ele>
        <time>2018-08-26T10:14:33Z</time>
      </trkpt>
      <trkpt lat="44.44694" lon="6.39964">
        <ele>972.9</ele>
        <time>2018-08-26T10:14:34Z</time>
      </trkpt>
      <trkpt lat="44.44684" lon="6.39936">
        <ele>973.96</ele>
        <time>2018-08-26T10:14:35Z</time>
      </trkpt>
      <trkpt lat="44.44674" lon="6.39908">
        <ele>974.98</ele>
        <time>2018-08-26T10:14:36Z</time>
      </trkpt>
      <trkpt lat="44.44667" lon="6.3988">
        <ele>976.69</ele>
        <time>2018-08-26T10:14:37Z</time>
      </trkpt>
      <trkpt lat="44.44662" lon="6.39851">
        <ele>977.9</ele>
        <time>2018-08-26T10:14:38Z</time>
      </trkpt>
      <trkpt lat="44.44659" lon="6.3982">
        <ele>978.97</ele>
        <time>2018-08-26T10:14:39Z</time>
      </trkpt>
      <trkpt lat="44.44656" lon="6.39788">
        <ele>979.98</ele>
        <time>2018-08-26T10:14:40Z</time>
      </trkpt>
      <trkpt lat="44.44655" lon="6.3974">
        <ele>982.69</ele>
        <time>2018-08-26T10:14:42Z</time>
      </trkpt>
      <trkpt lat="44.44643" lon="6.39689">
        <ele>984.97</ele>
        <time>2018-08-26T10:14:44Z</time>
      </trkpt>
      <trkpt lat="44.44634" lon="6.39661">
        <ele>985.98</ele>
        <time>2018-08-26T10:14:45Z</time>
      </trkpt>
      <trkpt lat="44.44625" lon="6.3963">
        <ele>986.99</ele>
        <time>2018-08-26T10:14:46Z</time>
      </trkpt>
      <trkpt lat="44.44618" lon="6.39598">
        <ele>987.99</ele>
        <time>2018-08-26T10:14:47Z</time>
      </trkpt>
      <trkpt lat="44.44614" lon="6.39565">
        <ele>988.99</ele>
        <time>2018-08-26T10:14:48Z</time>
      </trkpt>
      <trkpt lat="44.44614" lon="6.39532">
        <ele>991.39</ele>
        <time>2018-08-26T10:14:49Z</time>
      </trkpt>
      <trkpt lat="44.44614" lon="6.395">
        <ele>992.81</ele>
        <time>2018-08-26T10:14:50Z</time>
      </trkpt>
      <trkpt lat="44.44615" lon="6.39468">
        <ele>994.64</ele>
        <time>2018-08-26T10:14:51Z</time>
      </trkpt>
      <trkpt lat="44.44619" lon="6.39437">
        <ele>996.59</ele>
        <time>2018-08-26T10:14:52Z</time>
      </trkpt>
      <trkpt lat="44.44624" lon="6.39406">
        <ele>997.17</ele>
        <time>2018-08-26T10:14:53Z</time>
      </trkpt>
      <trkpt lat="44.44633" lon="6.39378">
        <ele>998.05</ele>
        <time>2018-08-26T10:14:54Z</time>
      </trkpt>
      <trkpt lat="44.44637" lon="6.39352">
        <ele>999.01</ele>
        <time>2018-08-26T10:14:55Z</time>
      </trkpt>
      <trkpt lat="44.44641" lon="6.39327">
        <ele>1000</ele>
        <time>2018-08-26T10:14:56Z</time>
      </trkpt>
      <trkpt lat="44.44632" lon="6.3928">
        <ele>1002.9</ele>
        <time>2018-08-26T10:14:58Z</time>
      </trkpt>
      <trkpt lat="44.44605" lon="6.3927">
        <ele>1004.67</ele>
        <time>2018-08-26T10:14:59Z</time>
      </trkpt>
      <trkpt lat="44.44585" lon="6.39256">
        <ele>1005.19</ele>
        <time>2018-08-26T10:15:00Z</time>
      </trkpt>
      <trkpt lat="44.44563" lon="6.39244">
        <ele>1006.05</ele>
        <time>2018-08-26T10:15:01Z</time>
      </trkpt>
      <trkpt lat="44.4454" lon="6.39229">
        <ele>1008.41</ele>
        <time>2018-08-26T10:15:02Z</time>
      </trkpt>
      <trkpt lat="44.44517" lon="6.39215">
        <ele>1010.52</ele>
        <time>2018-08-26T10:15:03Z</time>
      </trkpt>
      <trkpt lat="44.44493" lon="6.392">
        <ele>1012.55</ele>
        <time>2018-08-26T10:15:04Z</time>
      </trkpt>
      <trkpt lat="44.4447" lon="6.39187">
        <ele>1014.56</ele>
        <time>2018-08-26T10:15:05Z</time>
      </trkpt>
      <trkpt lat="44.44447" lon="6.39177">
        <ele>1015.86</ele>
        <time>2018-08-26T10:15:06Z</time>
      </trkpt>
      <trkpt lat="44.44424" lon="6.39169">
        <ele>1016.25</ele>
        <time>2018-08-26T10:15:07Z</time>
      </trkpt>
      <trkpt lat="44.44399" lon="6.39163">
        <ele>1017.07</ele>
        <time>2018-08-26T10:15:08Z</time>
      </trkpt>
      <trkpt lat="44.44377" lon="6.39162">
        <ele>1018.02</ele>
        <time>2018-08-26T10:15:09Z</time>
      </trkpt>
      <trkpt lat="44.44357" lon="6.39162">
        <ele>1019.7</ele>
        <time>2018-08-26T10:15:10Z</time>
      </trkpt>
      <trkpt lat="44.44338" lon="6.39159">
        <ele>1020.9</ele>
        <time>2018-08-26T10:15:11Z</time>
      </trkpt>
      <trkpt lat="44.44303" lon="6.39139">
        <ele>1022.28</ele>
        <time>2018-08-26T10:15:13Z</time>
      </trkpt>
      <trkpt lat="44.44334" lon="6.39098">
        <ele>1023.11</ele>
        <time>2018-08-26T10:15:15Z</time>
      </trkpt>
      <trkpt lat="44.44342" lon="6.39075">
        <ele>1024.73</ele>
        <time>2018-08-26T10:15:16Z</time>
      </trkpt>
      <trkpt lat="44.44353" lon="6.39049">
        <ele>1025.91</ele>
        <time>2018-08-26T10:15:17Z</time>
      </trkpt>
      <trkpt lat="44.44359" lon="6.39005">
        <ele>1027.78</ele>
        <time>2018-08-26T10:15:19Z</time>
      </trkpt>
      <trkpt lat="44.44344" lon="6.38978">
        <ele>1030.67</ele>
        <time>2018-08-26T10:15:21Z</time>
      </trkpt>
      <trkpt lat="44.44321" lon="6.38954">
        <ele>1033.66</ele>
        <time>2018-08-26T10:15:23Z</time>
      </trkpt>
      <trkpt lat="44.44317" lon="6.38923">
        <ele>1035.75</ele>
        <time>2018-08-26T10:15:25Z</time>
      </trkpt>
      <trkpt lat="44.44334" lon="6.38884">
        <ele>1037.27</ele>
        <time>2018-08-26T10:15:27Z</time>
      </trkpt>
      <trkpt lat="44.44349" lon="6.38862">
        <ele>1038.08</ele>
        <time>2018-08-26T10:15:28Z</time>
      </trkpt>
      <trkpt lat="44.44368" lon="6.38845">
        <ele>1039.72</ele>
        <time>2018-08-26T10:15:29Z</time>
      </trkpt>
      <trkpt lat="44.44389" lon="6.38834">
        <ele>1040.91</ele>
        <time>2018-08-26T10:15:30Z</time>
      </trkpt>
      <trkpt lat="44.44409" lon="6.38828">
        <ele>1041.97</ele>
        <time>2018-08-26T10:15:31Z</time>
      </trkpt>
      <trkpt lat="44.44439" lon="6.38809">
        <ele>1044.2</ele>
        <time>2018-08-26T10:15:33Z</time>
      </trkpt>
      <trkpt lat="44.44459" lon="6.38779">
        <ele>1045.31</ele>
        <time>2018-08-26T10:15:35Z</time>
      </trkpt>
      <trkpt lat="44.44452" lon="6.38745">
        <ele>1046.09</ele>
        <time>2018-08-26T10:15:36Z</time>
      </trkpt>
      <trkpt lat="44.44447" lon="6.38715">
        <ele>1047.02</ele>
        <time>2018-08-26T10:15:37Z</time>
      </trkpt>
      <trkpt lat="44.44441" lon="6.3868">
        <ele>1048.7</ele>
        <time>2018-08-26T10:15:38Z</time>
      </trkpt>
      <trkpt lat="44.44434" lon="6.38644">
        <ele>1049.91</ele>
        <time>2018-08-26T10:15:39Z</time>
      </trkpt>
      <trkpt lat="44.44427" lon="6.38604">
        <ele>1050.97</ele>
        <time>2018-08-26T10:15:40Z</time>
      </trkpt>
      <trkpt lat="44.44419" lon="6.38565">
        <ele>1051.98</ele>
        <time>2018-08-26T10:15:41Z</time>
      </trkpt>
      <trkpt lat="44.44412" lon="6.38526">
        <ele>1052.99</ele>
        <time>2018-08-26T10:15:42Z</time>
      </trkpt>
      <trkpt lat="44.44406" lon="6.38489">
        <ele>1053.99</ele>
        <time>2018-08-26T10:15:43Z</time>
      </trkpt>
      <trkpt lat="44.44399" lon="6.38452">
        <ele>1054.99</ele>
        <time>2018-08-26T10:15:44Z</time>
      </trkpt>
      <trkpt lat="44.44393" lon="6.38417">
        <ele>1055.99</ele>
        <time>2018-08-26T10:15:45Z</time>
      </trkpt>
      <trkpt lat="44.44388" lon="6.38386">
        <ele>1057.69</ele>
        <time>2018-08-26T10:15:46Z</time>
      </trkpt>
      <trkpt lat="44.44382" lon="6.38355">
        <ele>1058.9</ele>
        <time>2018-08-26T10:15:47Z</time>
      </trkpt>
      <trkpt lat="44.44377" lon="6.38324">
        <ele>1059.97</ele>
        <time>2018-08-26T10:15:48Z</time>
      </trkpt>
      <trkpt lat="44.44371" lon="6.38293">
        <ele>1060.98</ele>
        <time>2018-08-26T10:15:49Z</time>
      </trkpt>
      <trkpt lat="44.44366" lon="6.38263">
        <ele>1061.99</ele>
        <time>2018-08-26T10:15:50Z</time>
      </trkpt>
      <trkpt lat="44.44359" lon="6.38233">
        <ele>1062.99</ele>
        <time>2018-08-26T10:15:51Z</time>
      </trkpt>
      <trkpt lat="44.44355" lon="6.38203">
        <ele>1064.69</ele>
        <time>2018-08-26T10:15:52Z</time>
      </trkpt>
      <trkpt lat="44.44353" lon="6.38172">
        <ele>1065.2</ele>
        <time>2018-08-26T10:15:53Z</time>
      </trkpt>
      <trkpt lat="44.44357" lon="6.38144">
        <ele>1066.76</ele>
        <time>2018-08-26T10:15:54Z</time>
      </trkpt>
      <trkpt lat="44.44362" lon="6.38116">
        <ele>1067.92</ele>
        <time>2018-08-26T10:15:55Z</time>
      </trkpt>
      <trkpt lat="44.4438" lon="6.3809">
        <ele>1068.27</ele>
        <time>2018-08-26T10:15:56Z</time>
      </trkpt>
      <trkpt lat="44.44396" lon="6.38064">
        <ele>1069.08</ele>
        <time>2018-08-26T10:15:57Z</time>
      </trkpt>
      <trkpt lat="44.44412" lon="6.38037">
        <ele>1070.02</ele>
        <time>2018-08-26T10:15:58Z</time>
      </trkpt>
      <trkpt lat="44.44428" lon="6.38011">
        <ele>1071</ele>
        <time>2018-08-26T10:15:59Z</time>
      </trkpt>
      <trkpt lat="44.44443" lon="6.37985">
        <ele>1072.69</ele>
        <time>2018-08-26T10:16:00Z</time>
      </trkpt>
      <trkpt lat="44.44459" lon="6.3796">
        <ele>1073.9</ele>
        <time>2018-08-26T10:16:01Z</time>
      </trkpt>
      <trkpt lat="44.44476" lon="6.37938">
        <ele>1074.97</ele>
        <time>2018-08-26T10:16:02Z</time>
      </trkpt>
      <trkpt lat="44.44494" lon="6.37916">
        <ele>1075.98</ele>
        <time>2018-08-26T10:16:03Z</time>
      </trkpt>
      <trkpt lat="44.44513" lon="6.37897">
        <ele>1076.99</ele>
        <time>2018-08-26T10:16:04Z</time>
      </trkpt>
      <trkpt lat="44.44532" lon="6.37879">
        <ele>1077.99</ele>
        <time>2018-08-26T10:16:05Z</time>
      </trkpt>
      <trkpt lat="44.44552" lon="6.37864">
        <ele>1079.69</ele>
        <time>2018-08-26T10:16:06Z</time>
      </trkpt>
      <trkpt lat="44.44573" lon="6.37851">
        <ele>1080.9</ele>
        <time>2018-08-26T10:16:07Z</time>
      </trkpt>
      <trkpt lat="44.44594" lon="6.37839">
        <ele>1081.97</ele>
        <time>2018-08-26T10:16:08Z</time>
      </trkpt>
      <trkpt lat="44.44614" lon="6.37827">
        <ele>1082.98</ele>
        <time>2018-08-26T10:16:09Z</time>
      </trkpt>
      <trkpt lat="44.44634" lon="6.37812">
        <ele>1083.99</ele>
        <time>2018-08-26T10:16:10Z</time>
      </trkpt>
      <trkpt lat="44.44652" lon="6.37795">
        <ele>1084.29</ele>
        <time>2018-08-26T10:16:11Z</time>
      </trkpt>
      <trkpt lat="44.4467" lon="6.37777">
        <ele>1085.08</ele>
        <time>2018-08-26T10:16:12Z</time>
      </trkpt>
      <trkpt lat="44.44689" lon="6.3776">
        <ele>1086.72</ele>
        <time>2018-08-26T10:16:13Z</time>
      </trkpt>
      <trkpt lat="44.44708" lon="6.37742">
        <ele>1087.91</ele>
        <time>2018-08-26T10:16:14Z</time>
      </trkpt>
      <trkpt lat="44.44728" lon="6.37728">
        <ele>1088.97</ele>
        <time>2018-08-26T10:16:15Z</time>
      </trkpt>
      <trkpt lat="44.44749" lon="6.37719">
        <ele>1089.99</ele>
        <time>2018-08-26T10:16:16Z</time>
      </trkpt>
      <trkpt lat="44.4477" lon="6.37711">
        <ele>1090.29</ele>
        <time>2018-08-26T10:16:17Z</time>
      </trkpt>
      <trkpt lat="44.44791" lon="6.37703">
        <ele>1091.08</ele>
        <time>2018-08-26T10:16:18Z</time>
      </trkpt>
      <trkpt lat="44.44812" lon="6.37697">
        <ele>1091.32</ele>
        <time>2018-08-26T10:16:19Z</time>
      </trkpt>
      <trkpt lat="44.44833" lon="6.37691">
        <ele>1092.79</ele>
        <time>2018-08-26T10:16:20Z</time>
      </trkpt>
      <trkpt lat="44.44854" lon="6.37685">
        <ele>1093.93</ele>
        <time>2018-08-26T10:16:21Z</time>
      </trkpt>
      <trkpt lat="44.44875" lon="6.37679">
        <ele>1094.97</ele>
        <time>2018-08-26T10:16:22Z</time>
      </trkpt>
      <trkpt lat="44.44895" lon="6.37674">
        <ele>1095.99</ele>
        <time>2018-08-26T10:16:23Z</time>
      </trkpt>
      <trkpt lat="44.44915" lon="6.37668">
        <ele>1096.99</ele>
        <time>2018-08-26T10:16:24Z</time>
      </trkpt>
      <trkpt lat="44.44935" lon="6.37661">
        <ele>1097.99</ele>
        <time>2018-08-26T10:16:25Z</time>
      </trkpt>
      <trkpt lat="44.44955" lon="6.37654">
        <ele>1098.99</ele>
        <time>2018-08-26T10:16:26Z</time>
      </trkpt>
      <trkpt lat="44.44975" lon="6.37644">
        <ele>1099.99</ele>
        <time>2018-08-26T10:16:27Z</time>
      </trkpt>
      <trkpt lat="44.44995" lon="6.37634">
        <ele>1101.69</ele>
        <time>2018-08-26T10:16:28Z</time>
      </trkpt>
      <trkpt lat="44.45015" lon="6.37623">
        <ele>1102.9</ele>
        <time>2018-08-26T10:16:29Z</time>
      </trkpt>
      <trkpt lat="44.45035" lon="6.37611">
        <ele>1103.97</ele>
        <time>2018-08-26T10:16:30Z</time>
      </trkpt>
      <trkpt lat="44.45055" lon="6.37599">
        <ele>1104.98</ele>
        <time>2018-08-26T10:16:31Z</time>
      </trkpt>
      <trkpt lat="44.45077" lon="6.3759">
        <ele>1105.99</ele>
        <time>2018-08-26T10:16:32Z</time>
      </trkpt>
      <trkpt lat="44.45098" lon="6.37582">
        <ele>1106.99</ele>
        <time>2018-08-26T10:16:33Z</time>
      </trkpt>
      <trkpt lat="44.45119" lon="6.37576">
        <ele>1107.99</ele>
        <time>2018-08-26T10:16:34Z</time>
      </trkpt>
      <trkpt lat="44.45139" lon="6.37568">
        <ele>1108.99</ele>
        <time>2018-08-26T10:16:35Z</time>
      </trkpt>
      <trkpt lat="44.45157" lon="6.37557">
        <ele>1109.99</ele>
        <time>2018-08-26T10:16:36Z</time>
      </trkpt>
      <trkpt lat="44.45173" lon="6.37542">
        <ele>1110.99</ele>
        <time>2018-08-26T10:16:37Z</time>
      </trkpt>
      <trkpt lat="44.45188" lon="6.37521">
        <ele>1112.69</ele>
        <time>2018-08-26T10:16:38Z</time>
      </trkpt>
      <trkpt lat="44.452" lon="6.37496">
        <ele>1113.9</ele>
        <time>2018-08-26T10:16:39Z</time>
      </trkpt>
      <trkpt lat="44.45211" lon="6.37472">
        <ele>1114.97</ele>
        <time>2018-08-26T10:16:40Z</time>
      </trkpt>
      <trkpt lat="44.4522" lon="6.37449">
        <ele>1115.98</ele>
        <time>2018-08-26T10:16:41Z</time>
      </trkpt>
      <trkpt lat="44.45227" lon="6.37408">
        <ele>1117.99</ele>
        <time>2018-08-26T10:16:43Z</time>
      </trkpt>
      <trkpt lat="44.45228" lon="6.37371">
        <ele>1119.99</ele>
        <time>2018-08-26T10:16:45Z</time>
      </trkpt>
      <trkpt lat="44.45213" lon="6.37343">
        <ele>1120.99</ele>
        <time>2018-08-26T10:16:46Z</time>
      </trkpt>
      <trkpt lat="44.45207" lon="6.37317">
        <ele>1121.99</ele>
        <time>2018-08-26T10:16:47Z</time>
      </trkpt>
      <trkpt lat="44.45205" lon="6.3729">
        <ele>1123.69</ele>
        <time>2018-08-26T10:16:48Z</time>
      </trkpt>
      <trkpt lat="44.45204" lon="6.37263">
        <ele>1124.2</ele>
        <time>2018-08-26T10:16:49Z</time>
      </trkpt>
      <trkpt lat="44.45197" lon="6.37217">
        <ele>1126.22</ele>
        <time>2018-08-26T10:16:51Z</time>
      </trkpt>
      <trkpt lat="44.45168" lon="6.37186">
        <ele>1128.22</ele>
        <time>2018-08-26T10:16:53Z</time>
      </trkpt>
      <trkpt lat="44.4515" lon="6.37178">
        <ele>1129.76</ele>
        <time>2018-08-26T10:16:54Z</time>
      </trkpt>
      <trkpt lat="44.45131" lon="6.3717">
        <ele>1130.22</ele>
        <time>2018-08-26T10:16:55Z</time>
      </trkpt>
      <trkpt lat="44.45111" lon="6.37163">
        <ele>1131.06</ele>
        <time>2018-08-26T10:16:56Z</time>
      </trkpt>
      <trkpt lat="44.45092" lon="6.37155">
        <ele>1132.01</ele>
        <time>2018-08-26T10:16:57Z</time>
      </trkpt>
      <trkpt lat="44.45074" lon="6.37146">
        <ele>1133</ele>
        <time>2018-08-26T10:16:58Z</time>
      </trkpt>
      <trkpt lat="44.45057" lon="6.37137">
        <ele>1133.99</ele>
        <time>2018-08-26T10:16:59Z</time>
      </trkpt>
      <trkpt lat="44.45025" lon="6.37116">
        <ele>1136.69</ele>
        <time>2018-08-26T10:17:01Z</time>
      </trkpt>
      <trkpt lat="44.44993" lon="6.37098">
        <ele>1138.06</ele>
        <time>2018-08-26T10:17:03Z</time>
      </trkpt>
      <trkpt lat="44.44975" lon="6.37093">
        <ele>1139.01</ele>
        <time>2018-08-26T10:17:04Z</time>
      </trkpt>
      <trkpt lat="44.44956" lon="6.3709">
        <ele>1139.3</ele>
        <time>2018-08-26T10:17:05Z</time>
      </trkpt>
      <trkpt lat="44.44937" lon="6.37088">
        <ele>1139.38</ele>
        <time>2018-08-26T10:17:06Z</time>
      </trkpt>
      <trkpt lat="44.44917" lon="6.37086">
        <ele>1138.71</ele>
        <time>2018-08-26T10:17:07Z</time>
      </trkpt>
      <trkpt lat="44.44898" lon="6.37083">
        <ele>1137.11</ele>
        <time>2018-08-26T10:17:08Z</time>
      </trkpt>
      <trkpt lat="44.44878" lon="6.37079">
        <ele>1135.93</ele>
        <time>2018-08-26T10:17:09Z</time>
      </trkpt>
      <trkpt lat="44.44857" lon="6.37075">
        <ele>1134.87</ele>
        <time>2018-08-26T10:17:10Z</time>
      </trkpt>
      <trkpt lat="44.44833" lon="6.37068">
        <ele>1133.86</ele>
        <time>2018-08-26T10:17:11Z</time>
      </trkpt>
      <trkpt lat="44.44807" lon="6.37063">
        <ele>1132.15</ele>
        <time>2018-08-26T10:17:12Z</time>
      </trkpt>
      <trkpt lat="44.44779" lon="6.37056">
        <ele>1130.94</ele>
        <time>2018-08-26T10:17:13Z</time>
      </trkpt>
      <trkpt lat="44.44752" lon="6.37048">
        <ele>1129.18</ele>
        <time>2018-08-26T10:17:14Z</time>
      </trkpt>
      <trkpt lat="44.44726" lon="6.37039">
        <ele>1127.25</ele>
        <time>2018-08-26T10:17:15Z</time>
      </trkpt>
      <trkpt lat="44.44701" lon="6.37032">
        <ele>1125.27</ele>
        <time>2018-08-26T10:17:16Z</time>
      </trkpt>
      <trkpt lat="44.44678" lon="6.37023">
        <ele>1124.68</ele>
        <time>2018-08-26T10:17:17Z</time>
      </trkpt>
      <trkpt lat="44.44656" lon="6.37013">
        <ele>1123.1</ele>
        <time>2018-08-26T10:17:18Z</time>
      </trkpt>
      <trkpt lat="44.44635" lon="6.37002">
        <ele>1121.92</ele>
        <time>2018-08-26T10:17:19Z</time>
      </trkpt>
      <trkpt lat="44.44614" lon="6.3699">
        <ele>1120.87</ele>
        <time>2018-08-26T10:17:20Z</time>
      </trkpt>
      <trkpt lat="44.44594" lon="6.36978">
        <ele>1119.86</ele>
        <time>2018-08-26T10:17:21Z</time>
      </trkpt>
      <trkpt lat="44.44576" lon="6.36963">
        <ele>1118.85</ele>
        <time>2018-08-26T10:17:22Z</time>
      </trkpt>
      <trkpt lat="44.44561" lon="6.36939">
        <ele>1117.15</ele>
        <time>2018-08-26T10:17:23Z</time>
      </trkpt>
      <trkpt lat="44.44547" lon="6.36912">
        <ele>1115.94</ele>
        <time>2018-08-26T10:17:24Z</time>
      </trkpt>
      <trkpt lat="44.44532" lon="6.36883">
        <ele>1114.18</ele>
        <time>2018-08-26T10:17:25Z</time>
      </trkpt>
      <trkpt lat="44.44516" lon="6.36856">
        <ele>1112.95</ele>
        <time>2018-08-26T10:17:26Z</time>
      </trkpt>
      <trkpt lat="44.445" lon="6.3683">
        <ele>1111.88</ele>
        <time>2018-08-26T10:17:27Z</time>
      </trkpt>
      <trkpt lat="44.44484" lon="6.36805">
        <ele>1110.16</ele>
        <time>2018-08-26T10:17:28Z</time>
      </trkpt>
      <trkpt lat="44.44469" lon="6.3678">
        <ele>1108.24</ele>
        <time>2018-08-26T10:17:29Z</time>
      </trkpt>
      <trkpt lat="44.44454" lon="6.36754">
        <ele>1106.27</ele>
        <time>2018-08-26T10:17:30Z</time>
      </trkpt>
      <trkpt lat="44.44439" lon="6.36728">
        <ele>1104.97</ele>
        <time>2018-08-26T10:17:31Z</time>
      </trkpt>
      <trkpt lat="44.44424" lon="6.367">
        <ele>1103.19</ele>
        <time>2018-08-26T10:17:32Z</time>
      </trkpt>
      <trkpt lat="44.4441" lon="6.36672">
        <ele>1101.95</ele>
        <time>2018-08-26T10:17:33Z</time>
      </trkpt>
      <trkpt lat="44.44396" lon="6.36644">
        <ele>1100.88</ele>
        <time>2018-08-26T10:17:34Z</time>
      </trkpt>
      <trkpt lat="44.44385" lon="6.36615">
        <ele>1099.86</ele>
        <time>2018-08-26T10:17:35Z</time>
      </trkpt>
      <trkpt lat="44.44374" lon="6.36586">
        <ele>1098.85</ele>
        <time>2018-08-26T10:17:36Z</time>
      </trkpt>
      <trkpt lat="44.44367" lon="6.36557">
        <ele>1098.55</ele>
        <time>2018-08-26T10:17:37Z</time>
      </trkpt>
      <trkpt lat="44.44368" lon="6.36525">
        <ele>1097.06</ele>
        <time>2018-08-26T10:17:38Z</time>
      </trkpt>
      <trkpt lat="44.4437" lon="6.36493">
        <ele>1096.61</ele>
        <time>2018-08-26T10:17:39Z</time>
      </trkpt>
      <trkpt lat="44.4438" lon="6.36463">
        <ele>1095.08</ele>
        <time>2018-08-26T10:17:40Z</time>
      </trkpt>
      <trkpt lat="44.44402" lon="6.36442">
        <ele>1094.62</ele>
        <time>2018-08-26T10:17:41Z</time>
      </trkpt>
      <trkpt lat="44.44428" lon="6.36432">
        <ele>1094.48</ele>
        <time>2018-08-26T10:17:42Z</time>
      </trkpt>
      <trkpt lat="44.44467" lon="6.36427">
        <ele>1093.04</ele>
        <time>2018-08-26T10:17:43Z</time>
      </trkpt>
      <trkpt lat="44.44491" lon="6.36418">
        <ele>1091.21</ele>
        <time>2018-08-26T10:17:44Z</time>
      </trkpt>
      <trkpt lat="44.44515" lon="6.36418">
        <ele>1089.96</ele>
        <time>2018-08-26T10:17:45Z</time>
      </trkpt>
      <trkpt lat="44.44539" lon="6.36425">
        <ele>1089.58</ele>
        <time>2018-08-26T10:17:46Z</time>
      </trkpt>
      <trkpt lat="44.44561" lon="6.36436">
        <ele>1088.77</ele>
        <time>2018-08-26T10:17:47Z</time>
      </trkpt>
      <trkpt lat="44.44581" lon="6.36447">
        <ele>1087.13</ele>
        <time>2018-08-26T10:17:48Z</time>
      </trkpt>
      <trkpt lat="44.446" lon="6.36454">
        <ele>1085.93</ele>
        <time>2018-08-26T10:17:49Z</time>
      </trkpt>
      <trkpt lat="44.4462" lon="6.36454">
        <ele>1084.87</ele>
        <time>2018-08-26T10:17:50Z</time>
      </trkpt>
      <trkpt lat="44.44638" lon="6.36445">
        <ele>1083.86</ele>
        <time>2018-08-26T10:17:51Z</time>
      </trkpt>
      <trkpt lat="44.44654" lon="6.36431">
        <ele>1081.45</ele>
        <time>2018-08-26T10:17:52Z</time>
      </trkpt>
      <trkpt lat="44.44665" lon="6.36411">
        <ele>1079.33</ele>
        <time>2018-08-26T10:17:53Z</time>
      </trkpt>
      <trkpt lat="44.44686" lon="6.36371">
        <ele>1077.8</ele>
        <time>2018-08-26T10:17:55Z</time>
      </trkpt>
      <trkpt lat="44.4469" lon="6.36345">
        <ele>1076.84</ele>
        <time>2018-08-26T10:17:56Z</time>
      </trkpt>
      <trkpt lat="44.44692" lon="6.36317">
        <ele>1076.55</ele>
        <time>2018-08-26T10:17:57Z</time>
      </trkpt>
      <trkpt lat="44.44689" lon="6.3628">
        <ele>1075.06</ele>
        <time>2018-08-26T10:17:58Z</time>
      </trkpt>
      <trkpt lat="44.44682" lon="6.36234">
        <ele>1072.51</ele>
        <time>2018-08-26T10:17:59Z</time>
      </trkpt>
      <trkpt lat="44.44683" lon="6.36198">
        <ele>1070.35</ele>
        <time>2018-08-26T10:18:00Z</time>
      </trkpt>
      <trkpt lat="44.44688" lon="6.36164">
        <ele>1066.9</ele>
        <time>2018-08-26T10:18:01Z</time>
      </trkpt>
      <trkpt lat="44.44694" lon="6.36129">
        <ele>1065.16</ele>
        <time>2018-08-26T10:18:02Z</time>
      </trkpt>
      <trkpt lat="44.447" lon="6.36095">
        <ele>1063.94</ele>
        <time>2018-08-26T10:18:03Z</time>
      </trkpt>
      <trkpt lat="44.44706" lon="6.36059">
        <ele>1061.48</ele>
        <time>2018-08-26T10:18:04Z</time>
      </trkpt>
      <trkpt lat="44.44712" lon="6.36024">
        <ele>1059.34</ele>
        <time>2018-08-26T10:18:05Z</time>
      </trkpt>
      <trkpt lat="44.44717" lon="6.35989">
        <ele>1057.3</ele>
        <time>2018-08-26T10:18:06Z</time>
      </trkpt>
      <trkpt lat="44.44724" lon="6.35955">
        <ele>1055.98</ele>
        <time>2018-08-26T10:18:07Z</time>
      </trkpt>
      <trkpt lat="44.4473" lon="6.35921">
        <ele>1054.19</ele>
        <time>2018-08-26T10:18:08Z</time>
      </trkpt>
      <trkpt lat="44.44737" lon="6.35887">
        <ele>1052.25</ele>
        <time>2018-08-26T10:18:09Z</time>
      </trkpt>
      <trkpt lat="44.44743" lon="6.35854">
        <ele>1050.97</ele>
        <time>2018-08-26T10:18:10Z</time>
      </trkpt>
      <trkpt lat="44.44749" lon="6.35821">
        <ele>1049.89</ele>
        <time>2018-08-26T10:18:11Z</time>
      </trkpt>
      <trkpt lat="44.44754" lon="6.3579">
        <ele>1048.86</ele>
        <time>2018-08-26T10:18:12Z</time>
      </trkpt>
      <trkpt lat="44.44756" lon="6.35758">
        <ele>1047.15</ele>
        <time>2018-08-26T10:18:13Z</time>
      </trkpt>
      <trkpt lat="44.44754" lon="6.35726">
        <ele>1045.94</ele>
        <time>2018-08-26T10:18:14Z</time>
      </trkpt>
      <trkpt lat="44.44749" lon="6.35696">
        <ele>1044.18</ele>
        <time>2018-08-26T10:18:15Z</time>
      </trkpt>
      <trkpt lat="44.44741" lon="6.35667">
        <ele>1042.95</ele>
        <time>2018-08-26T10:18:16Z</time>
      </trkpt>
      <trkpt lat="44.44729" lon="6.35639">
        <ele>1041.88</ele>
        <time>2018-08-26T10:18:17Z</time>
      </trkpt>
      <trkpt lat="44.44714" lon="6.35612">
        <ele>1040.86</ele>
        <time>2018-08-26T10:18:18Z</time>
      </trkpt>
      <trkpt lat="44.44699" lon="6.35587">
        <ele>1039.15</ele>
        <time>2018-08-26T10:18:19Z</time>
      </trkpt>
      <trkpt lat="44.44683" lon="6.35562">
        <ele>1037.94</ele>
        <time>2018-08-26T10:18:20Z</time>
      </trkpt>
      <trkpt lat="44.44666" lon="6.35537">
        <ele>1036.88</ele>
        <time>2018-08-26T10:18:21Z</time>
      </trkpt>
      <trkpt lat="44.44648" lon="6.35515">
        <ele>1035.86</ele>
        <time>2018-08-26T10:18:22Z</time>
      </trkpt>
      <trkpt lat="44.4463" lon="6.35493">
        <ele>1034.85</ele>
        <time>2018-08-26T10:18:23Z</time>
      </trkpt>
      <trkpt lat="44.4461" lon="6.35473">
        <ele>1033.15</ele>
        <time>2018-08-26T10:18:24Z</time>
      </trkpt>
      <trkpt lat="44.44589" lon="6.35453">
        <ele>1031.94</ele>
        <time>2018-08-26T10:18:25Z</time>
      </trkpt>
      <trkpt lat="44.4457" lon="6.35434">
        <ele>1030.88</ele>
        <time>2018-08-26T10:18:26Z</time>
      </trkpt>
      <trkpt lat="44.44549" lon="6.35414">
        <ele>1029.86</ele>
        <time>2018-08-26T10:18:27Z</time>
      </trkpt>
      <trkpt lat="44.4453" lon="6.35392">
        <ele>1028.15</ele>
        <time>2018-08-26T10:18:28Z</time>
      </trkpt>
      <trkpt lat="44.44512" lon="6.3537">
        <ele>1027.64</ele>
        <time>2018-08-26T10:18:29Z</time>
      </trkpt>
      <trkpt lat="44.44496" lon="6.35347">
        <ele>1026.09</ele>
        <time>2018-08-26T10:18:30Z</time>
      </trkpt>
      <trkpt lat="44.4448" lon="6.35323">
        <ele>1024.92</ele>
        <time>2018-08-26T10:18:31Z</time>
      </trkpt>
      <trkpt lat="44.44465" lon="6.353">
        <ele>1023.17</ele>
        <time>2018-08-26T10:18:32Z</time>
      </trkpt>
      <trkpt lat="44.44449" lon="6.35278">
        <ele>1021.95</ele>
        <time>2018-08-26T10:18:33Z</time>
      </trkpt>
      <trkpt lat="44.44434" lon="6.35256">
        <ele>1020.88</ele>
        <time>2018-08-26T10:18:34Z</time>
      </trkpt>
      <trkpt lat="44.44419" lon="6.35233">
        <ele>1019.86</ele>
        <time>2018-08-26T10:18:35Z</time>
      </trkpt>
      <trkpt lat="44.44404" lon="6.3521">
        <ele>1019.55</ele>
        <time>2018-08-26T10:18:36Z</time>
      </trkpt>
      <trkpt lat="44.4439" lon="6.35188">
        <ele>1018.76</ele>
        <time>2018-08-26T10:18:37Z</time>
      </trkpt>
      <trkpt lat="44.44376" lon="6.35164">
        <ele>1017.82</ele>
        <time>2018-08-26T10:18:38Z</time>
      </trkpt>
      <trkpt lat="44.44365" lon="6.35139">
        <ele>1016.84</ele>
        <time>2018-08-26T10:18:39Z</time>
      </trkpt>
      <trkpt lat="44.44354" lon="6.35112">
        <ele>1015.85</ele>
        <time>2018-08-26T10:18:40Z</time>
      </trkpt>
      <trkpt lat="44.44345" lon="6.35084">
        <ele>1014.85</ele>
        <time>2018-08-26T10:18:41Z</time>
      </trkpt>
      <trkpt lat="44.44339" lon="6.35055">
        <ele>1013.85</ele>
        <time>2018-08-26T10:18:42Z</time>
      </trkpt>
      <trkpt lat="44.44334" lon="6.35025">
        <ele>1012.85</ele>
        <time>2018-08-26T10:18:43Z</time>
      </trkpt>
      <trkpt lat="44.44331" lon="6.34994">
        <ele>1011.85</ele>
        <time>2018-08-26T10:18:44Z</time>
      </trkpt>
      <trkpt lat="44.44329" lon="6.34963">
        <ele>1010.85</ele>
        <time>2018-08-26T10:18:45Z</time>
      </trkpt>
      <trkpt lat="44.44328" lon="6.34932">
        <ele>1009.15</ele>
        <time>2018-08-26T10:18:46Z</time>
      </trkpt>
      <trkpt lat="44.44327" lon="6.349">
        <ele>1008.64</ele>
        <time>2018-08-26T10:18:47Z</time>
      </trkpt>
      <trkpt lat="44.44329" lon="6.34868">
        <ele>1007.79</ele>
        <time>2018-08-26T10:18:48Z</time>
      </trkpt>
      <trkpt lat="44.44331" lon="6.34837">
        <ele>1007.53</ele>
        <time>2018-08-26T10:18:49Z</time>
      </trkpt>
      <trkpt lat="44.44335" lon="6.34805">
        <ele>1007.45</ele>
        <time>2018-08-26T10:18:50Z</time>
      </trkpt>
      <trkpt lat="44.44339" lon="6.34772">
        <ele>1007.43</ele>
        <time>2018-08-26T10:18:51Z</time>
      </trkpt>
      <trkpt lat="44.44344" lon="6.3474">
        <ele>1007.42</ele>
        <time>2018-08-26T10:18:52Z</time>
      </trkpt>
      <trkpt lat="44.44348" lon="6.34707">
        <ele>1007.42</ele>
        <time>2018-08-26T10:18:53Z</time>
      </trkpt>
      <trkpt lat="44.44352" lon="6.34674">
        <ele>1007.42</ele>
        <time>2018-08-26T10:18:54Z</time>
      </trkpt>
      <trkpt lat="44.44355" lon="6.34641">
        <ele>1007.42</ele>
        <time>2018-08-26T10:18:55Z</time>
      </trkpt>
      <trkpt lat="44.44359" lon="6.34609">
        <ele>1006.72</ele>
        <time>2018-08-26T10:18:56Z</time>
      </trkpt>
      <trkpt lat="44.44363" lon="6.34577">
        <ele>1006.51</ele>
        <time>2018-08-26T10:18:57Z</time>
      </trkpt>
      <trkpt lat="44.44368" lon="6.34544">
        <ele>1006.45</ele>
        <time>2018-08-26T10:18:58Z</time>
      </trkpt>
      <trkpt lat="44.44372" lon="6.34512">
        <ele>1006.43</ele>
        <time>2018-08-26T10:18:59Z</time>
      </trkpt>
      <trkpt lat="44.44376" lon="6.34479">
        <ele>1006.42</ele>
        <time>2018-08-26T10:19:00Z</time>
      </trkpt>
      <trkpt lat="44.4438" lon="6.34447">
        <ele>1006.42</ele>
        <time>2018-08-26T10:19:01Z</time>
      </trkpt>
      <trkpt lat="44.44384" lon="6.34415">
        <ele>1006.42</ele>
        <time>2018-08-26T10:19:02Z</time>
      </trkpt>
      <trkpt lat="44.44388" lon="6.34383">
        <ele>1006.42</ele>
        <time>2018-08-26T10:19:03Z</time>
      </trkpt>
      <trkpt lat="44.44392" lon="6.34351">
        <ele>1006.42</ele>
        <time>2018-08-26T10:19:04Z</time>
      </trkpt>
      <trkpt lat="44.44398" lon="6.34319">
        <ele>1006.42</ele>
        <time>2018-08-26T10:19:05Z</time>
      </trkpt>
      <trkpt lat="44.44407" lon="6.34289">
        <ele>1006.42</ele>
        <time>2018-08-26T10:19:06Z</time>
      </trkpt>
      <trkpt lat="44.44419" lon="6.34262">
        <ele>1006.42</ele>
        <time>2018-08-26T10:19:07Z</time>
      </trkpt>
      <trkpt lat="44.44432" lon="6.34236">
        <ele>1005.72</ele>
        <time>2018-08-26T10:19:08Z</time>
      </trkpt>
      <trkpt lat="44.44447" lon="6.34212">
        <ele>1005.51</ele>
        <time>2018-08-26T10:19:09Z</time>
      </trkpt>
      <trkpt lat="44.44463" lon="6.34187">
        <ele>1006.15</ele>
        <time>2018-08-26T10:19:10Z</time>
      </trkpt>
      <trkpt lat="44.44481" lon="6.34163">
        <ele>1006.34</ele>
        <time>2018-08-26T10:19:11Z</time>
      </trkpt>
      <trkpt lat="44.44498" lon="6.34138">
        <ele>1007.1</ele>
        <time>2018-08-26T10:19:12Z</time>
      </trkpt>
      <trkpt lat="44.44515" lon="6.34114">
        <ele>1008.02</ele>
        <time>2018-08-26T10:19:13Z</time>
      </trkpt>
      <trkpt lat="44.44532" lon="6.3409">
        <ele>1009</ele>
        <time>2018-08-26T10:19:14Z</time>
      </trkpt>
      <trkpt lat="44.44549" lon="6.34066">
        <ele>1010</ele>
        <time>2018-08-26T10:19:15Z</time>
      </trkpt>
      <trkpt lat="44.44566" lon="6.34042">
        <ele>1010.99</ele>
        <time>2018-08-26T10:19:16Z</time>
      </trkpt>
      <trkpt lat="44.44582" lon="6.34018">
        <ele>1011.99</ele>
        <time>2018-08-26T10:19:17Z</time>
      </trkpt>
      <trkpt lat="44.44597" lon="6.33996">
        <ele>1012.99</ele>
        <time>2018-08-26T10:19:18Z</time>
      </trkpt>
      <trkpt lat="44.44612" lon="6.33975">
        <ele>1013.99</ele>
        <time>2018-08-26T10:19:19Z</time>
      </trkpt>
      <trkpt lat="44.44626" lon="6.33954">
        <ele>1014.99</ele>
        <time>2018-08-26T10:19:20Z</time>
      </trkpt>
      <trkpt lat="44.4464" lon="6.33934">
        <ele>1015.99</ele>
        <time>2018-08-26T10:19:21Z</time>
      </trkpt>
      <trkpt lat="44.44654" lon="6.33913">
        <ele>1016.99</ele>
        <time>2018-08-26T10:19:22Z</time>
      </trkpt>
      <trkpt lat="44.44669" lon="6.33893">
        <ele>1017.99</ele>
        <time>2018-08-26T10:19:23Z</time>
      </trkpt>
      <trkpt lat="44.44683" lon="6.33872">
        <ele>1018.29</ele>
        <time>2018-08-26T10:19:24Z</time>
      </trkpt>
      <trkpt lat="44.44697" lon="6.33852">
        <ele>1019.08</ele>
        <time>2018-08-26T10:19:25Z</time>
      </trkpt>
      <trkpt lat="44.4471" lon="6.33832">
        <ele>1020.02</ele>
        <time>2018-08-26T10:19:26Z</time>
      </trkpt>
      <trkpt lat="44.44723" lon="6.33812">
        <ele>1021</ele>
        <time>2018-08-26T10:19:27Z</time>
      </trkpt>
      <trkpt lat="44.44736" lon="6.33791">
        <ele>1021.29</ele>
        <time>2018-08-26T10:19:28Z</time>
      </trkpt>
      <trkpt lat="44.44747" lon="6.33768">
        <ele>1021.38</ele>
        <time>2018-08-26T10:19:29Z</time>
      </trkpt>
      <trkpt lat="44.44759" lon="6.33743">
        <ele>1021.41</ele>
        <time>2018-08-26T10:19:30Z</time>
      </trkpt>
      <trkpt lat="44.4477" lon="6.33716">
        <ele>1020.72</ele>
        <time>2018-08-26T10:19:31Z</time>
      </trkpt>
      <trkpt lat="44.44779" lon="6.3369">
        <ele>1020.51</ele>
        <time>2018-08-26T10:19:32Z</time>
      </trkpt>
      <trkpt lat="44.44789" lon="6.33661">
        <ele>1019.75</ele>
        <time>2018-08-26T10:19:33Z</time>
      </trkpt>
      <trkpt lat="44.448" lon="6.3363">
        <ele>1018.82</ele>
        <time>2018-08-26T10:19:34Z</time>
      </trkpt>
      <trkpt lat="44.44812" lon="6.33598">
        <ele>1017.84</ele>
        <time>2018-08-26T10:19:35Z</time>
      </trkpt>
      <trkpt lat="44.44825" lon="6.33567">
        <ele>1016.85</ele>
        <time>2018-08-26T10:19:36Z</time>
      </trkpt>
      <trkpt lat="44.44837" lon="6.33537">
        <ele>1015.85</ele>
        <time>2018-08-26T10:19:37Z</time>
      </trkpt>
      <trkpt lat="44.44847" lon="6.33506">
        <ele>1014.15</ele>
        <time>2018-08-26T10:19:38Z</time>
      </trkpt>
      <trkpt lat="44.44855" lon="6.33474">
        <ele>1012.94</ele>
        <time>2018-08-26T10:19:39Z</time>
      </trkpt>
      <trkpt lat="44.4486" lon="6.33441">
        <ele>1011.88</ele>
        <time>2018-08-26T10:19:40Z</time>
      </trkpt>
      <trkpt lat="44.44863" lon="6.33407">
        <ele>1010.86</ele>
        <time>2018-08-26T10:19:41Z</time>
      </trkpt>
      <trkpt lat="44.44863" lon="6.33373">
        <ele>1009.85</ele>
        <time>2018-08-26T10:19:42Z</time>
      </trkpt>
      <trkpt lat="44.4486" lon="6.33339">
        <ele>1008.15</ele>
        <time>2018-08-26T10:19:43Z</time>
      </trkpt>
      <trkpt lat="44.44856" lon="6.33306">
        <ele>1006.94</ele>
        <time>2018-08-26T10:19:44Z</time>
      </trkpt>
      <trkpt lat="44.44848" lon="6.33274">
        <ele>1005.18</ele>
        <time>2018-08-26T10:19:45Z</time>
      </trkpt>
      <trkpt lat="44.44837" lon="6.33243">
        <ele>1003.95</ele>
        <time>2018-08-26T10:19:46Z</time>
      </trkpt>
      <trkpt lat="44.44825" lon="6.33214">
        <ele>1002.88</ele>
        <time>2018-08-26T10:19:47Z</time>
      </trkpt>
      <trkpt lat="44.4481" lon="6.33186">
        <ele>1001.86</ele>
        <time>2018-08-26T10:19:48Z</time>
      </trkpt>
      <trkpt lat="44.44794" lon="6.3316">
        <ele>1000.85</ele>
        <time>2018-08-26T10:19:49Z</time>
      </trkpt>
      <trkpt lat="44.44775" lon="6.33138">
        <ele>999.85</ele>
        <time>2018-08-26T10:19:50Z</time>
      </trkpt>
      <trkpt lat="44.44754" lon="6.33118">
        <ele>998.85</ele>
        <time>2018-08-26T10:19:51Z</time>
      </trkpt>
      <trkpt lat="44.44733" lon="6.331">
        <ele>997.85</ele>
        <time>2018-08-26T10:19:52Z</time>
      </trkpt>
      <trkpt lat="44.44712" lon="6.33082">
        <ele>996.85</ele>
        <time>2018-08-26T10:19:53Z</time>
      </trkpt>
      <trkpt lat="44.44691" lon="6.33066">
        <ele>995.15</ele>
        <time>2018-08-26T10:19:54Z</time>
      </trkpt>
      <trkpt lat="44.44671" lon="6.33048">
        <ele>993.94</ele>
        <time>2018-08-26T10:19:55Z</time>
      </trkpt>
      <trkpt lat="44.44651" lon="6.33031">
        <ele>992.88</ele>
        <time>2018-08-26T10:19:56Z</time>
      </trkpt>
      <trkpt lat="44.44631" lon="6.33015">
        <ele>992.56</ele>
        <time>2018-08-26T10:19:57Z</time>
      </trkpt>
      <trkpt lat="44.44611" lon="6.32997">
        <ele>991.76</ele>
        <time>2018-08-26T10:19:58Z</time>
      </trkpt>
      <trkpt lat="44.44594" lon="6.32977">
        <ele>991.52</ele>
        <time>2018-08-26T10:19:59Z</time>
      </trkpt>
      <trkpt lat="44.44581" lon="6.32952">
        <ele>990.75</ele>
        <time>2018-08-26T10:20:00Z</time>
      </trkpt>
      <trkpt lat="44.44567" lon="6.32926">
        <ele>990.52</ele>
        <time>2018-08-26T10:20:01Z</time>
      </trkpt>
      <trkpt lat="44.44556" lon="6.32897">
        <ele>989.75</ele>
        <time>2018-08-26T10:20:02Z</time>
      </trkpt>
      <trkpt lat="44.44546" lon="6.3287">
        <ele>989.52</ele>
        <time>2018-08-26T10:20:03Z</time>
      </trkpt>
      <trkpt lat="44.44544" lon="6.32838">
        <ele>988.75</ele>
        <time>2018-08-26T10:20:04Z</time>
      </trkpt>
      <trkpt lat="44.44556" lon="6.328">
        <ele>987.12</ele>
        <time>2018-08-26T10:20:05Z</time>
      </trkpt>
      <trkpt lat="44.4458" lon="6.32771">
        <ele>985.93</ele>
        <time>2018-08-26T10:20:06Z</time>
      </trkpt>
      <trkpt lat="44.44601" lon="6.32745">
        <ele>984.87</ele>
        <time>2018-08-26T10:20:07Z</time>
      </trkpt>
      <trkpt lat="44.44633" lon="6.32727">
        <ele>985.96</ele>
        <time>2018-08-26T10:20:08Z</time>
      </trkpt>
      <trkpt lat="44.44663" lon="6.32714">
        <ele>986.98</ele>
        <time>2018-08-26T10:20:09Z</time>
      </trkpt>
      <trkpt lat="44.44686" lon="6.32695">
        <ele>987.29</ele>
        <time>2018-08-26T10:20:10Z</time>
      </trkpt>
      <trkpt lat="44.44708" lon="6.32675">
        <ele>988.08</ele>
        <time>2018-08-26T10:20:11Z</time>
      </trkpt>
      <trkpt lat="44.44728" lon="6.32654">
        <ele>987.62</ele>
        <time>2018-08-26T10:20:12Z</time>
      </trkpt>
      <trkpt lat="44.44747" lon="6.32632">
        <ele>987.48</ele>
        <time>2018-08-26T10:20:13Z</time>
      </trkpt>
      <trkpt lat="44.44764" lon="6.32609">
        <ele>986.74</ele>
        <time>2018-08-26T10:20:14Z</time>
      </trkpt>
      <trkpt lat="44.4478" lon="6.32586">
        <ele>985.12</ele>
        <time>2018-08-26T10:20:15Z</time>
      </trkpt>
      <trkpt lat="44.44798" lon="6.32563">
        <ele>983.93</ele>
        <time>2018-08-26T10:20:16Z</time>
      </trkpt>
      <trkpt lat="44.44815" lon="6.32542">
        <ele>982.17</ele>
        <time>2018-08-26T10:20:17Z</time>
      </trkpt>
      <trkpt lat="44.44833" lon="6.3252">
        <ele>980.25</ele>
        <time>2018-08-26T10:20:18Z</time>
      </trkpt>
      <trkpt lat="44.44852" lon="6.32499">
        <ele>978.97</ele>
        <time>2018-08-26T10:20:19Z</time>
      </trkpt>
      <trkpt lat="44.4487" lon="6.32477">
        <ele>977.19</ele>
        <time>2018-08-26T10:20:20Z</time>
      </trkpt>
      <trkpt lat="44.44888" lon="6.32456">
        <ele>976.65</ele>
        <time>2018-08-26T10:20:21Z</time>
      </trkpt>
      <trkpt lat="44.44906" lon="6.32435">
        <ele>976.49</ele>
        <time>2018-08-26T10:20:22Z</time>
      </trkpt>
      <trkpt lat="44.44924" lon="6.32413">
        <ele>976.44</ele>
        <time>2018-08-26T10:20:23Z</time>
      </trkpt>
      <trkpt lat="44.4494" lon="6.3239">
        <ele>976.43</ele>
        <time>2018-08-26T10:20:24Z</time>
      </trkpt>
      <trkpt lat="44.44957" lon="6.32367">
        <ele>976.42</ele>
        <time>2018-08-26T10:20:25Z</time>
      </trkpt>
      <trkpt lat="44.44973" lon="6.32343">
        <ele>977.12</ele>
        <time>2018-08-26T10:20:26Z</time>
      </trkpt>
      <trkpt lat="44.44988" lon="6.32318">
        <ele>978.03</ele>
        <time>2018-08-26T10:20:27Z</time>
      </trkpt>
      <trkpt lat="44.45003" lon="6.32293">
        <ele>978.3</ele>
        <time>2018-08-26T10:20:28Z</time>
      </trkpt>
      <trkpt lat="44.45018" lon="6.32267">
        <ele>979.09</ele>
        <time>2018-08-26T10:20:29Z</time>
      </trkpt>
      <trkpt lat="44.45033" lon="6.3224">
        <ele>979.32</ele>
        <time>2018-08-26T10:20:30Z</time>
      </trkpt>
      <trkpt lat="44.45049" lon="6.32213">
        <ele>980.09</ele>
        <time>2018-08-26T10:20:31Z</time>
      </trkpt>
      <trkpt lat="44.45064" lon="6.32188">
        <ele>980.32</ele>
        <time>2018-08-26T10:20:32Z</time>
      </trkpt>
      <trkpt lat="44.45078" lon="6.32163">
        <ele>980.39</ele>
        <time>2018-08-26T10:20:33Z</time>
      </trkpt>
      <trkpt lat="44.45093" lon="6.32137">
        <ele>980.41</ele>
        <time>2018-08-26T10:20:34Z</time>
      </trkpt>
      <trkpt lat="44.45108" lon="6.32112">
        <ele>981.12</ele>
        <time>2018-08-26T10:20:35Z</time>
      </trkpt>
      <trkpt lat="44.45123" lon="6.32088">
        <ele>982.03</ele>
        <time>2018-08-26T10:20:36Z</time>
      </trkpt>
      <trkpt lat="44.45137" lon="6.32063">
        <ele>982.3</ele>
        <time>2018-08-26T10:20:37Z</time>
      </trkpt>
      <trkpt lat="44.45151" lon="6.32039">
        <ele>981.69</ele>
        <time>2018-08-26T10:20:38Z</time>
      </trkpt>
      <trkpt lat="44.45165" lon="6.32015">
        <ele>981.5</ele>
        <time>2018-08-26T10:20:39Z</time>
      </trkpt>
      <trkpt lat="44.45179" lon="6.3199">
        <ele>981.44</ele>
        <time>2018-08-26T10:20:40Z</time>
      </trkpt>
      <trkpt lat="44.45194" lon="6.31966">
        <ele>981.43</ele>
        <time>2018-08-26T10:20:41Z</time>
      </trkpt>
      <trkpt lat="44.45209" lon="6.31942">
        <ele>981.42</ele>
        <time>2018-08-26T10:20:42Z</time>
      </trkpt>
      <trkpt lat="44.45225" lon="6.31919">
        <ele>981.42</ele>
        <time>2018-08-26T10:20:43Z</time>
      </trkpt>
      <trkpt lat="44.45242" lon="6.31897">
        <ele>981.42</ele>
        <time>2018-08-26T10:20:44Z</time>
      </trkpt>
      <trkpt lat="44.45261" lon="6.31879">
        <ele>981.42</ele>
        <time>2018-08-26T10:20:45Z</time>
      </trkpt>
      <trkpt lat="44.45279" lon="6.31861">
        <ele>980.72</ele>
        <time>2018-08-26T10:20:46Z</time>
      </trkpt>
      <trkpt lat="44.45298" lon="6.31844">
        <ele>980.51</ele>
        <time>2018-08-26T10:20:47Z</time>
      </trkpt>
      <trkpt lat="44.45316" lon="6.31827">
        <ele>980.45</ele>
        <time>2018-08-26T10:20:48Z</time>
      </trkpt>
      <trkpt lat="44.45334" lon="6.3181">
        <ele>980.43</ele>
        <time>2018-08-26T10:20:49Z</time>
      </trkpt>
      <trkpt lat="44.45353" lon="6.31793">
        <ele>980.42</ele>
        <time>2018-08-26T10:20:50Z</time>
      </trkpt>
      <trkpt lat="44.45371" lon="6.31776">
        <ele>980.42</ele>
        <time>2018-08-26T10:20:51Z</time>
      </trkpt>
      <trkpt lat="44.4539" lon="6.31759">
        <ele>979.72</ele>
        <time>2018-08-26T10:20:52Z</time>
      </trkpt>
      <trkpt lat="44.45408" lon="6.31742">
        <ele>979.51</ele>
        <time>2018-08-26T10:20:53Z</time>
      </trkpt>
      <trkpt lat="44.45426" lon="6.31722">
        <ele>979.45</ele>
        <time>2018-08-26T10:20:54Z</time>
      </trkpt>
      <trkpt lat="44.45441" lon="6.31701">
        <ele>979.43</ele>
        <time>2018-08-26T10:20:55Z</time>
      </trkpt>
      <trkpt lat="44.45455" lon="6.31677">
        <ele>979.42</ele>
        <time>2018-08-26T10:20:56Z</time>
      </trkpt>
      <trkpt lat="44.45468" lon="6.31651">
        <ele>979.42</ele>
        <time>2018-08-26T10:20:57Z</time>
      </trkpt>
      <trkpt lat="44.4548" lon="6.31623">
        <ele>979.42</ele>
        <time>2018-08-26T10:20:58Z</time>
      </trkpt>
      <trkpt lat="44.45491" lon="6.31595">
        <ele>978.72</ele>
        <time>2018-08-26T10:20:59Z</time>
      </trkpt>
      <trkpt lat="44.45502" lon="6.31567">
        <ele>978.51</ele>
        <time>2018-08-26T10:21:00Z</time>
      </trkpt>
      <trkpt lat="44.45513" lon="6.31539">
        <ele>978.45</ele>
        <time>2018-08-26T10:21:01Z</time>
      </trkpt>
      <trkpt lat="44.45524" lon="6.31511">
        <ele>978.43</ele>
        <time>2018-08-26T10:21:02Z</time>
      </trkpt>
      <trkpt lat="44.45535" lon="6.31484">
        <ele>978.42</ele>
        <time>2018-08-26T10:21:03Z</time>
      </trkpt>
      <trkpt lat="44.45547" lon="6.31456">
        <ele>979.12</ele>
        <time>2018-08-26T10:21:04Z</time>
      </trkpt>
      <trkpt lat="44.45558" lon="6.31428">
        <ele>979.33</ele>
        <time>2018-08-26T10:21:05Z</time>
      </trkpt>
      <trkpt lat="44.45569" lon="6.314">
        <ele>980.09</ele>
        <time>2018-08-26T10:21:06Z</time>
      </trkpt>
      <trkpt lat="44.4558" lon="6.31373">
        <ele>981.02</ele>
        <time>2018-08-26T10:21:07Z</time>
      </trkpt>
      <trkpt lat="44.45591" lon="6.31345">
        <ele>982.7</ele>
        <time>2018-08-26T10:21:08Z</time>
      </trkpt>
      <trkpt lat="44.45601" lon="6.31317">
        <ele>983.91</ele>
        <time>2018-08-26T10:21:09Z</time>
      </trkpt>
      <trkpt lat="44.45609" lon="6.31289">
        <ele>984.97</ele>
        <time>2018-08-26T10:21:10Z</time>
      </trkpt>
      <trkpt lat="44.45617" lon="6.3126">
        <ele>986.68</ele>
        <time>2018-08-26T10:21:11Z</time>
      </trkpt>
      <trkpt lat="44.45625" lon="6.3123">
        <ele>988.6</ele>
        <time>2018-08-26T10:21:12Z</time>
      </trkpt>
      <trkpt lat="44.4563" lon="6.312">
        <ele>989.87</ele>
        <time>2018-08-26T10:21:13Z</time>
      </trkpt>
      <trkpt lat="44.45635" lon="6.3117">
        <ele>990.96</ele>
        <time>2018-08-26T10:21:14Z</time>
      </trkpt>
      <trkpt lat="44.45639" lon="6.3114">
        <ele>991.98</ele>
        <time>2018-08-26T10:21:15Z</time>
      </trkpt>
      <trkpt lat="44.45642" lon="6.3111">
        <ele>992.29</ele>
        <time>2018-08-26T10:21:16Z</time>
      </trkpt>
      <trkpt lat="44.45644" lon="6.31079">
        <ele>991.68</ele>
        <time>2018-08-26T10:21:17Z</time>
      </trkpt>
      <trkpt lat="44.45644" lon="6.31047">
        <ele>990.8</ele>
        <time>2018-08-26T10:21:18Z</time>
      </trkpt>
      <trkpt lat="44.45644" lon="6.31015">
        <ele>989.83</ele>
        <time>2018-08-26T10:21:19Z</time>
      </trkpt>
      <trkpt lat="44.45643" lon="6.30984">
        <ele>988.85</ele>
        <time>2018-08-26T10:21:20Z</time>
      </trkpt>
      <trkpt lat="44.4564" lon="6.30953">
        <ele>987.15</ele>
        <time>2018-08-26T10:21:21Z</time>
      </trkpt>
      <trkpt lat="44.45637" lon="6.30922">
        <ele>985.94</ele>
        <time>2018-08-26T10:21:22Z</time>
      </trkpt>
      <trkpt lat="44.45632" lon="6.30891">
        <ele>984.18</ele>
        <time>2018-08-26T10:21:23Z</time>
      </trkpt>
      <trkpt lat="44.45626" lon="6.3086">
        <ele>982.95</ele>
        <time>2018-08-26T10:21:24Z</time>
      </trkpt>
      <trkpt lat="44.45619" lon="6.3083">
        <ele>981.88</ele>
        <time>2018-08-26T10:21:25Z</time>
      </trkpt>
      <trkpt lat="44.45612" lon="6.308">
        <ele>980.16</ele>
        <time>2018-08-26T10:21:26Z</time>
      </trkpt>
      <trkpt lat="44.45605" lon="6.30771">
        <ele>978.24</ele>
        <time>2018-08-26T10:21:27Z</time>
      </trkpt>
      <trkpt lat="44.45598" lon="6.30741">
        <ele>976.97</ele>
        <time>2018-08-26T10:21:28Z</time>
      </trkpt>
      <trkpt lat="44.45593" lon="6.3071">
        <ele>975.18</ele>
        <time>2018-08-26T10:21:29Z</time>
      </trkpt>
      <trkpt lat="44.45588" lon="6.30679">
        <ele>973.95</ele>
        <time>2018-08-26T10:21:30Z</time>
      </trkpt>
      <trkpt lat="44.45584" lon="6.30647">
        <ele>972.18</ele>
        <time>2018-08-26T10:21:31Z</time>
      </trkpt>
      <trkpt lat="44.45582" lon="6.30615">
        <ele>970.95</ele>
        <time>2018-08-26T10:21:32Z</time>
      </trkpt>
      <trkpt lat="44.45579" lon="6.30583">
        <ele>969.88</ele>
        <time>2018-08-26T10:21:33Z</time>
      </trkpt>
      <trkpt lat="44.45576" lon="6.30551">
        <ele>968.86</ele>
        <time>2018-08-26T10:21:34Z</time>
      </trkpt>
      <trkpt lat="44.45574" lon="6.30518">
        <ele>967.85</ele>
        <time>2018-08-26T10:21:35Z</time>
      </trkpt>
      <trkpt lat="44.45571" lon="6.30485">
        <ele>966.15</ele>
        <time>2018-08-26T10:21:36Z</time>
      </trkpt>
      <trkpt lat="44.45569" lon="6.30454">
        <ele>964.24</ele>
        <time>2018-08-26T10:21:37Z</time>
      </trkpt>
      <trkpt lat="44.45567" lon="6.30423">
        <ele>962.97</ele>
        <time>2018-08-26T10:21:38Z</time>
      </trkpt>
      <trkpt lat="44.45564" lon="6.30394">
        <ele>961.88</ele>
        <time>2018-08-26T10:21:39Z</time>
      </trkpt>
      <trkpt lat="44.45561" lon="6.30364">
        <ele>960.86</ele>
        <time>2018-08-26T10:21:40Z</time>
      </trkpt>
      <trkpt lat="44.45558" lon="6.30336">
        <ele>960.55</ele>
        <time>2018-08-26T10:21:41Z</time>
      </trkpt>
      <trkpt lat="44.45552" lon="6.30309">
        <ele>959.06</ele>
        <time>2018-08-26T10:21:42Z</time>
      </trkpt>
      <trkpt lat="44.45544" lon="6.30284">
        <ele>957.21</ele>
        <time>2018-08-26T10:21:43Z</time>
      </trkpt>
      <trkpt lat="44.45534" lon="6.3026">
        <ele>955.96</ele>
        <time>2018-08-26T10:21:44Z</time>
      </trkpt>
      <trkpt lat="44.45521" lon="6.30239">
        <ele>954.88</ele>
        <time>2018-08-26T10:21:45Z</time>
      </trkpt>
      <trkpt lat="44.45507" lon="6.30221">
        <ele>954.56</ele>
        <time>2018-08-26T10:21:46Z</time>
      </trkpt>
      <trkpt lat="44.4549" lon="6.30205">
        <ele>953.76</ele>
        <time>2018-08-26T10:21:47Z</time>
      </trkpt>
      <trkpt lat="44.45473" lon="6.30195">
        <ele>952.82</ele>
        <time>2018-08-26T10:21:48Z</time>
      </trkpt>
      <trkpt lat="44.45455" lon="6.30187">
        <ele>951.84</ele>
        <time>2018-08-26T10:21:49Z</time>
      </trkpt>
      <trkpt lat="44.45436" lon="6.30182">
        <ele>950.85</ele>
        <time>2018-08-26T10:21:50Z</time>
      </trkpt>
      <trkpt lat="44.45416" lon="6.30176">
        <ele>949.85</ele>
        <time>2018-08-26T10:21:51Z</time>
      </trkpt>
      <trkpt lat="44.45382" lon="6.30168">
        <ele>948.55</ele>
        <time>2018-08-26T10:21:53Z</time>
      </trkpt>
      <trkpt lat="44.45364" lon="6.30165">
        <ele>947.76</ele>
        <time>2018-08-26T10:21:54Z</time>
      </trkpt>
      <trkpt lat="44.45343" lon="6.30159">
        <ele>948.22</ele>
        <time>2018-08-26T10:21:55Z</time>
      </trkpt>
      <trkpt lat="44.45321" lon="6.30152">
        <ele>948.36</ele>
        <time>2018-08-26T10:21:56Z</time>
      </trkpt>
      <trkpt lat="44.45298" lon="6.30145">
        <ele>948.4</ele>
        <time>2018-08-26T10:21:57Z</time>
      </trkpt>
      <trkpt lat="44.45275" lon="6.3014">
        <ele>948.42</ele>
        <time>2018-08-26T10:21:58Z</time>
      </trkpt>
      <trkpt lat="44.45252" lon="6.30134">
        <ele>948.42</ele>
        <time>2018-08-26T10:21:59Z</time>
      </trkpt>
      <trkpt lat="44.45229" lon="6.30129">
        <ele>948.42</ele>
        <time>2018-08-26T10:22:00Z</time>
      </trkpt>
      <trkpt lat="44.45207" lon="6.30123">
        <ele>948.42</ele>
        <time>2018-08-26T10:22:01Z</time>
      </trkpt>
      <trkpt lat="44.45185" lon="6.30117">
        <ele>948.42</ele>
        <time>2018-08-26T10:22:02Z</time>
      </trkpt>
      <trkpt lat="44.45164" lon="6.30108">
        <ele>947.72</ele>
        <time>2018-08-26T10:22:03Z</time>
      </trkpt>
      <trkpt lat="44.45145" lon="6.30096">
        <ele>946.81</ele>
        <time>2018-08-26T10:22:04Z</time>
      </trkpt>
      <trkpt lat="44.45127" lon="6.30081">
        <ele>946.54</ele>
        <time>2018-08-26T10:22:05Z</time>
      </trkpt>
      <trkpt lat="44.4511" lon="6.30063">
        <ele>946.46</ele>
        <time>2018-08-26T10:22:06Z</time>
      </trkpt>
      <trkpt lat="44.45099" lon="6.30037">
        <ele>945.73</ele>
        <time>2018-08-26T10:22:07Z</time>
      </trkpt>
      <trkpt lat="44.45089" lon="6.30005">
        <ele>945.51</ele>
        <time>2018-08-26T10:22:08Z</time>
      </trkpt>
      <trkpt lat="44.45082" lon="6.29979">
        <ele>944.75</ele>
        <time>2018-08-26T10:22:09Z</time>
      </trkpt>
      <trkpt lat="44.4509" lon="6.29937">
        <ele>943.12</ele>
        <time>2018-08-26T10:22:10Z</time>
      </trkpt>
      <trkpt lat="44.45099" lon="6.29906">
        <ele>943.33</ele>
        <time>2018-08-26T10:22:11Z</time>
      </trkpt>
      <trkpt lat="44.45112" lon="6.29876">
        <ele>943.39</ele>
        <time>2018-08-26T10:22:12Z</time>
      </trkpt>
      <trkpt lat="44.45127" lon="6.29849">
        <ele>942.01</ele>
        <time>2018-08-26T10:22:13Z</time>
      </trkpt>
      <trkpt lat="44.45155" lon="6.2983">
        <ele>942.3</ele>
        <time>2018-08-26T10:22:14Z</time>
      </trkpt>
      <trkpt lat="44.45185" lon="6.29817">
        <ele>943.08</ele>
        <time>2018-08-26T10:22:15Z</time>
      </trkpt>
      <trkpt lat="44.45204" lon="6.29797">
        <ele>941.92</ele>
        <time>2018-08-26T10:22:16Z</time>
      </trkpt>
      <trkpt lat="44.45222" lon="6.29774">
        <ele>941.57</ele>
        <time>2018-08-26T10:22:17Z</time>
      </trkpt>
      <trkpt lat="44.4524" lon="6.29751">
        <ele>942.17</ele>
        <time>2018-08-26T10:22:18Z</time>
      </trkpt>
      <trkpt lat="44.45257" lon="6.29728">
        <ele>942.34</ele>
        <time>2018-08-26T10:22:19Z</time>
      </trkpt>
      <trkpt lat="44.45274" lon="6.29706">
        <ele>942.4</ele>
        <time>2018-08-26T10:22:20Z</time>
      </trkpt>
      <trkpt lat="44.45292" lon="6.29683">
        <ele>943.11</ele>
        <time>2018-08-26T10:22:21Z</time>
      </trkpt>
      <trkpt lat="44.45309" lon="6.29661">
        <ele>944.03</ele>
        <time>2018-08-26T10:22:22Z</time>
      </trkpt>
      <trkpt lat="44.45326" lon="6.29639">
        <ele>945.7</ele>
        <time>2018-08-26T10:22:23Z</time>
      </trkpt>
      <trkpt lat="44.45343" lon="6.29618">
        <ele>946.91</ele>
        <time>2018-08-26T10:22:24Z</time>
      </trkpt>
      <trkpt lat="44.4536" lon="6.29596">
        <ele>947.97</ele>
        <time>2018-08-26T10:22:25Z</time>
      </trkpt>
      <trkpt lat="44.45376" lon="6.29574">
        <ele>948.98</ele>
        <time>2018-08-26T10:22:26Z</time>
      </trkpt>
      <trkpt lat="44.45391" lon="6.29552">
        <ele>949.29</ele>
        <time>2018-08-26T10:22:27Z</time>
      </trkpt>
      <trkpt lat="44.45408" lon="6.29531">
        <ele>949.38</ele>
        <time>2018-08-26T10:22:28Z</time>
      </trkpt>
      <trkpt lat="44.45425" lon="6.29509">
        <ele>950.11</ele>
        <time>2018-08-26T10:22:29Z</time>
      </trkpt>
      <trkpt lat="44.45442" lon="6.29487">
        <ele>950.33</ele>
        <time>2018-08-26T10:22:30Z</time>
      </trkpt>
      <trkpt lat="44.45459" lon="6.29465">
        <ele>950.39</ele>
        <time>2018-08-26T10:22:31Z</time>
      </trkpt>
      <trkpt lat="44.45475" lon="6.29444">
        <ele>949.71</ele>
        <time>2018-08-26T10:22:32Z</time>
      </trkpt>
      <trkpt lat="44.45492" lon="6.29421">
        <ele>949.51</ele>
        <time>2018-08-26T10:22:33Z</time>
      </trkpt>
      <trkpt lat="44.45509" lon="6.294">
        <ele>948.05</ele>
        <time>2018-08-26T10:22:34Z</time>
      </trkpt>
      <trkpt lat="44.45526" lon="6.29377">
        <ele>946.91</ele>
        <time>2018-08-26T10:22:35Z</time>
      </trkpt>
      <trkpt lat="44.45543" lon="6.29355">
        <ele>945.87</ele>
        <time>2018-08-26T10:22:36Z</time>
      </trkpt>
      <trkpt lat="44.45559" lon="6.29333">
        <ele>945.55</ele>
        <time>2018-08-26T10:22:37Z</time>
      </trkpt>
      <trkpt lat="44.45576" lon="6.2931">
        <ele>944.06</ele>
        <time>2018-08-26T10:22:38Z</time>
      </trkpt>
      <trkpt lat="44.45592" lon="6.29289">
        <ele>942.21</ele>
        <time>2018-08-26T10:22:39Z</time>
      </trkpt>
      <trkpt lat="44.45609" lon="6.29268">
        <ele>940.96</ele>
        <time>2018-08-26T10:22:40Z</time>
      </trkpt>
      <trkpt lat="44.45625" lon="6.29247">
        <ele>939.88</ele>
        <time>2018-08-26T10:22:41Z</time>
      </trkpt>
      <trkpt lat="44.4564" lon="6.29225">
        <ele>938.86</ele>
        <time>2018-08-26T10:22:42Z</time>
      </trkpt>
      <trkpt lat="44.45657" lon="6.29204">
        <ele>937.15</ele>
        <time>2018-08-26T10:22:43Z</time>
      </trkpt>
      <trkpt lat="44.45673" lon="6.29183">
        <ele>935.94</ele>
        <time>2018-08-26T10:22:44Z</time>
      </trkpt>
      <trkpt lat="44.45689" lon="6.29163">
        <ele>934.88</ele>
        <time>2018-08-26T10:22:45Z</time>
      </trkpt>
      <trkpt lat="44.45705" lon="6.29142">
        <ele>933.86</ele>
        <time>2018-08-26T10:22:46Z</time>
      </trkpt>
      <trkpt lat="44.45721" lon="6.2912">
        <ele>932.85</ele>
        <time>2018-08-26T10:22:47Z</time>
      </trkpt>
      <trkpt lat="44.45737" lon="6.29099">
        <ele>931.85</ele>
        <time>2018-08-26T10:22:48Z</time>
      </trkpt>
      <trkpt lat="44.45753" lon="6.29077">
        <ele>930.85</ele>
        <time>2018-08-26T10:22:49Z</time>
      </trkpt>
      <trkpt lat="44.45769" lon="6.29057">
        <ele>929.85</ele>
        <time>2018-08-26T10:22:50Z</time>
      </trkpt>
      <trkpt lat="44.45784" lon="6.29036">
        <ele>928.85</ele>
        <time>2018-08-26T10:22:51Z</time>
      </trkpt>
      <trkpt lat="44.45799" lon="6.29016">
        <ele>927.85</ele>
        <time>2018-08-26T10:22:52Z</time>
      </trkpt>
      <trkpt lat="44.45815" lon="6.28995">
        <ele>926.15</ele>
        <time>2018-08-26T10:22:53Z</time>
      </trkpt>
      <trkpt lat="44.45831" lon="6.28974">
        <ele>924.94</ele>
        <time>2018-08-26T10:22:54Z</time>
      </trkpt>
      <trkpt lat="44.45846" lon="6.28954">
        <ele>923.88</ele>
        <time>2018-08-26T10:22:55Z</time>
      </trkpt>
      <trkpt lat="44.45862" lon="6.28935">
        <ele>922.16</ele>
        <time>2018-08-26T10:22:56Z</time>
      </trkpt>
      <trkpt lat="44.45879" lon="6.28917">
        <ele>920.94</ele>
        <time>2018-08-26T10:22:57Z</time>
      </trkpt>
      <trkpt lat="44.45898" lon="6.28902">
        <ele>919.88</ele>
        <time>2018-08-26T10:22:58Z</time>
      </trkpt>
      <trkpt lat="44.45917" lon="6.28891">
        <ele>918.16</ele>
        <time>2018-08-26T10:22:59Z</time>
      </trkpt>
      <trkpt lat="44.45937" lon="6.28881">
        <ele>916.94</ele>
        <time>2018-08-26T10:23:00Z</time>
      </trkpt>
      <trkpt lat="44.45958" lon="6.28872">
        <ele>915.88</ele>
        <time>2018-08-26T10:23:01Z</time>
      </trkpt>
      <trkpt lat="44.45978" lon="6.28863">
        <ele>914.86</ele>
        <time>2018-08-26T10:23:02Z</time>
      </trkpt>
      <trkpt lat="44.45999" lon="6.28854">
        <ele>913.15</ele>
        <time>2018-08-26T10:23:03Z</time>
      </trkpt>
      <trkpt lat="44.4602" lon="6.28844">
        <ele>911.94</ele>
        <time>2018-08-26T10:23:04Z</time>
      </trkpt>
      <trkpt lat="44.46042" lon="6.28837">
        <ele>910.88</ele>
        <time>2018-08-26T10:23:05Z</time>
      </trkpt>
      <trkpt lat="44.46063" lon="6.28828">
        <ele>909.16</ele>
        <time>2018-08-26T10:23:06Z</time>
      </trkpt>
      <trkpt lat="44.46085" lon="6.28818">
        <ele>907.24</ele>
        <time>2018-08-26T10:23:07Z</time>
      </trkpt>
      <trkpt lat="44.46106" lon="6.28808">
        <ele>905.97</ele>
        <time>2018-08-26T10:23:08Z</time>
      </trkpt>
      <trkpt lat="44.46128" lon="6.28799">
        <ele>904.88</ele>
        <time>2018-08-26T10:23:09Z</time>
      </trkpt>
      <trkpt lat="44.4615" lon="6.28795">
        <ele>903.16</ele>
        <time>2018-08-26T10:23:10Z</time>
      </trkpt>
      <trkpt lat="44.46173" lon="6.28795">
        <ele>901.94</ele>
        <time>2018-08-26T10:23:11Z</time>
      </trkpt>
      <trkpt lat="44.46195" lon="6.28801">
        <ele>900.88</ele>
        <time>2018-08-26T10:23:12Z</time>
      </trkpt>
      <trkpt lat="44.46217" lon="6.28809">
        <ele>899.16</ele>
        <time>2018-08-26T10:23:13Z</time>
      </trkpt>
      <trkpt lat="44.46238" lon="6.2882">
        <ele>897.24</ele>
        <time>2018-08-26T10:23:14Z</time>
      </trkpt>
      <trkpt lat="44.46261" lon="6.28829">
        <ele>895.97</ele>
        <time>2018-08-26T10:23:15Z</time>
      </trkpt>
      <trkpt lat="44.46282" lon="6.28836">
        <ele>895.58</ele>
        <time>2018-08-26T10:23:16Z</time>
      </trkpt>
      <trkpt lat="44.46305" lon="6.28841">
        <ele>894.07</ele>
        <time>2018-08-26T10:23:17Z</time>
      </trkpt>
      <trkpt lat="44.46327" lon="6.28839">
        <ele>893.62</ele>
        <time>2018-08-26T10:23:18Z</time>
      </trkpt>
      <trkpt lat="44.4635" lon="6.28834">
        <ele>891.38</ele>
        <time>2018-08-26T10:23:19Z</time>
      </trkpt>
      <trkpt lat="44.46371" lon="6.28823">
        <ele>890.01</ele>
        <time>2018-08-26T10:23:20Z</time>
      </trkpt>
      <trkpt lat="44.46391" lon="6.28807">
        <ele>888.9</ele>
        <time>2018-08-26T10:23:21Z</time>
      </trkpt>
      <trkpt lat="44.46408" lon="6.28786">
        <ele>887.16</ele>
        <time>2018-08-26T10:23:22Z</time>
      </trkpt>
      <trkpt lat="44.46423" lon="6.28762">
        <ele>885.94</ele>
        <time>2018-08-26T10:23:23Z</time>
      </trkpt>
      <trkpt lat="44.46434" lon="6.28735">
        <ele>884.88</ele>
        <time>2018-08-26T10:23:24Z</time>
      </trkpt>
      <trkpt lat="44.46445" lon="6.28708">
        <ele>883.86</ele>
        <time>2018-08-26T10:23:25Z</time>
      </trkpt>
      <trkpt lat="44.46451" lon="6.28677">
        <ele>883.55</ele>
        <time>2018-08-26T10:23:26Z</time>
      </trkpt>
      <trkpt lat="44.46444" lon="6.28637">
        <ele>882.06</ele>
        <time>2018-08-26T10:23:27Z</time>
      </trkpt>
      <trkpt lat="44.4644" lon="6.28599">
        <ele>880.21</ele>
        <time>2018-08-26T10:23:28Z</time>
      </trkpt>
      <trkpt lat="44.46436" lon="6.28567">
        <ele>878.26</ele>
        <time>2018-08-26T10:23:29Z</time>
      </trkpt>
      <trkpt lat="44.46433" lon="6.28539">
        <ele>876.97</ele>
        <time>2018-08-26T10:23:30Z</time>
      </trkpt>
      <trkpt lat="44.46429" lon="6.28514">
        <ele>875.89</ele>
        <time>2018-08-26T10:23:31Z</time>
      </trkpt>
      <trkpt lat="44.46423" lon="6.28486">
        <ele>874.86</ele>
        <time>2018-08-26T10:23:32Z</time>
      </trkpt>
      <trkpt lat="44.46419" lon="6.28454">
        <ele>873.15</ele>
        <time>2018-08-26T10:23:33Z</time>
      </trkpt>
      <trkpt lat="44.46415" lon="6.2842">
        <ele>871.94</ele>
        <time>2018-08-26T10:23:34Z</time>
      </trkpt>
      <trkpt lat="44.4641" lon="6.28387">
        <ele>870.88</ele>
        <time>2018-08-26T10:23:35Z</time>
      </trkpt>
      <trkpt lat="44.46402" lon="6.28353">
        <ele>868.46</ele>
        <time>2018-08-26T10:23:36Z</time>
      </trkpt>
      <trkpt lat="44.46393" lon="6.2832">
        <ele>867.03</ele>
        <time>2018-08-26T10:23:37Z</time>
      </trkpt>
      <trkpt lat="44.46383" lon="6.28287">
        <ele>865.2</ele>
        <time>2018-08-26T10:23:38Z</time>
      </trkpt>
      <trkpt lat="44.46372" lon="6.28254">
        <ele>863.96</ele>
        <time>2018-08-26T10:23:39Z</time>
      </trkpt>
      <trkpt lat="44.4636" lon="6.28222">
        <ele>862.18</ele>
        <time>2018-08-26T10:23:40Z</time>
      </trkpt>
      <trkpt lat="44.4635" lon="6.28191">
        <ele>860.25</ele>
        <time>2018-08-26T10:23:41Z</time>
      </trkpt>
      <trkpt lat="44.46339" lon="6.2816">
        <ele>858.27</ele>
        <time>2018-08-26T10:23:42Z</time>
      </trkpt>
      <trkpt lat="44.46329" lon="6.2813">
        <ele>856.28</ele>
        <time>2018-08-26T10:23:43Z</time>
      </trkpt>
      <trkpt lat="44.46319" lon="6.28099">
        <ele>854.28</ele>
        <time>2018-08-26T10:23:44Z</time>
      </trkpt>
      <trkpt lat="44.46309" lon="6.28069">
        <ele>852.98</ele>
        <time>2018-08-26T10:23:45Z</time>
      </trkpt>
      <trkpt lat="44.46299" lon="6.28039">
        <ele>851.19</ele>
        <time>2018-08-26T10:23:46Z</time>
      </trkpt>
      <trkpt lat="44.46289" lon="6.28009">
        <ele>849.95</ele>
        <time>2018-08-26T10:23:47Z</time>
      </trkpt>
      <trkpt lat="44.46278" lon="6.27979">
        <ele>848.18</ele>
        <time>2018-08-26T10:23:48Z</time>
      </trkpt>
      <trkpt lat="44.46269" lon="6.27949">
        <ele>846.25</ele>
        <time>2018-08-26T10:23:49Z</time>
      </trkpt>
      <trkpt lat="44.46259" lon="6.27918">
        <ele>844.97</ele>
        <time>2018-08-26T10:23:50Z</time>
      </trkpt>
      <trkpt lat="44.4625" lon="6.27887">
        <ele>842.49</ele>
        <time>2018-08-26T10:23:51Z</time>
      </trkpt>
      <trkpt lat="44.46241" lon="6.27855">
        <ele>841.04</ele>
        <time>2018-08-26T10:23:52Z</time>
      </trkpt>
      <trkpt lat="44.46234" lon="6.27822">
        <ele>839.21</ele>
        <time>2018-08-26T10:23:53Z</time>
      </trkpt>
      <trkpt lat="44.46228" lon="6.27789">
        <ele>837.96</ele>
        <time>2018-08-26T10:23:54Z</time>
      </trkpt>
      <trkpt lat="44.46222" lon="6.27755">
        <ele>836.18</ele>
        <time>2018-08-26T10:23:55Z</time>
      </trkpt>
      <trkpt lat="44.46218" lon="6.27721">
        <ele>834.95</ele>
        <time>2018-08-26T10:23:56Z</time>
      </trkpt>
      <trkpt lat="44.46213" lon="6.27688">
        <ele>834.58</ele>
        <time>2018-08-26T10:23:57Z</time>
      </trkpt>
      <trkpt lat="44.46209" lon="6.27656">
        <ele>833.77</ele>
        <time>2018-08-26T10:23:58Z</time>
      </trkpt>
      <trkpt lat="44.46205" lon="6.27623">
        <ele>833.53</ele>
        <time>2018-08-26T10:23:59Z</time>
      </trkpt>
      <trkpt lat="44.46201" lon="6.27589">
        <ele>833.45</ele>
        <time>2018-08-26T10:24:00Z</time>
      </trkpt>
      <trkpt lat="44.46197" lon="6.27556">
        <ele>833.43</ele>
        <time>2018-08-26T10:24:01Z</time>
      </trkpt>
      <trkpt lat="44.46193" lon="6.27524">
        <ele>833.42</ele>
        <time>2018-08-26T10:24:02Z</time>
      </trkpt>
      <trkpt lat="44.46189" lon="6.27492">
        <ele>832.72</ele>
        <time>2018-08-26T10:24:03Z</time>
      </trkpt>
      <trkpt lat="44.46185" lon="6.27459">
        <ele>832.51</ele>
        <time>2018-08-26T10:24:04Z</time>
      </trkpt>
      <trkpt lat="44.4618" lon="6.27427">
        <ele>832.45</ele>
        <time>2018-08-26T10:24:05Z</time>
      </trkpt>
      <trkpt lat="44.46176" lon="6.27396">
        <ele>831.03</ele>
        <time>2018-08-26T10:24:06Z</time>
      </trkpt>
      <trkpt lat="44.46174" lon="6.27363">
        <ele>830.6</ele>
        <time>2018-08-26T10:24:07Z</time>
      </trkpt>
      <trkpt lat="44.4618" lon="6.27333">
        <ele>829.78</ele>
        <time>2018-08-26T10:24:08Z</time>
      </trkpt>
      <trkpt lat="44.46184" lon="6.27302">
        <ele>828.83</ele>
        <time>2018-08-26T10:24:09Z</time>
      </trkpt>
      <trkpt lat="44.46191" lon="6.27271">
        <ele>828.54</ele>
        <time>2018-08-26T10:24:10Z</time>
      </trkpt>
      <trkpt lat="44.46209" lon="6.27252">
        <ele>827.06</ele>
        <time>2018-08-26T10:24:11Z</time>
      </trkpt>
      <trkpt lat="44.46219" lon="6.27228">
        <ele>825.91</ele>
        <time>2018-08-26T10:24:12Z</time>
      </trkpt>
      <trkpt lat="44.46226" lon="6.27202">
        <ele>824.87</ele>
        <time>2018-08-26T10:24:13Z</time>
      </trkpt>
      <trkpt lat="44.46227" lon="6.27173">
        <ele>823.86</ele>
        <time>2018-08-26T10:24:14Z</time>
      </trkpt>
      <trkpt lat="44.46225" lon="6.2714">
        <ele>822.85</ele>
        <time>2018-08-26T10:24:15Z</time>
      </trkpt>
      <trkpt lat="44.46223" lon="6.27108">
        <ele>821.85</ele>
        <time>2018-08-26T10:24:16Z</time>
      </trkpt>
      <trkpt lat="44.46221" lon="6.27076">
        <ele>821.55</ele>
        <time>2018-08-26T10:24:17Z</time>
      </trkpt>
      <trkpt lat="44.4622" lon="6.27045">
        <ele>820.06</ele>
        <time>2018-08-26T10:24:18Z</time>
      </trkpt>
      <trkpt lat="44.46223" lon="6.27016">
        <ele>818.21</ele>
        <time>2018-08-26T10:24:19Z</time>
      </trkpt>
      <trkpt lat="44.4623" lon="6.2699">
        <ele>816.96</ele>
        <time>2018-08-26T10:24:20Z</time>
      </trkpt>
      <trkpt lat="44.46242" lon="6.26967">
        <ele>815.18</ele>
        <time>2018-08-26T10:24:21Z</time>
      </trkpt>
      <trkpt lat="44.46258" lon="6.2695">
        <ele>813.25</ele>
        <time>2018-08-26T10:24:22Z</time>
      </trkpt>
      <trkpt lat="44.46277" lon="6.26938">
        <ele>811.97</ele>
        <time>2018-08-26T10:24:23Z</time>
      </trkpt>
      <trkpt lat="44.46295" lon="6.26928">
        <ele>810.89</ele>
        <time>2018-08-26T10:24:24Z</time>
      </trkpt>
      <trkpt lat="44.46318" lon="6.26932">
        <ele>809.86</ele>
        <time>2018-08-26T10:24:25Z</time>
      </trkpt>
      <trkpt lat="44.46338" lon="6.2693">
        <ele>808.85</ele>
        <time>2018-08-26T10:24:26Z</time>
      </trkpt>
      <trkpt lat="44.46356" lon="6.26925">
        <ele>807.85</ele>
        <time>2018-08-26T10:24:27Z</time>
      </trkpt>
      <trkpt lat="44.46374" lon="6.26918">
        <ele>806.85</ele>
        <time>2018-08-26T10:24:28Z</time>
      </trkpt>
      <trkpt lat="44.4639" lon="6.26906">
        <ele>806.55</ele>
        <time>2018-08-26T10:24:29Z</time>
      </trkpt>
      <trkpt lat="44.46412" lon="6.26879">
        <ele>806.22</ele>
        <time>2018-08-26T10:24:31Z</time>
      </trkpt>
      <trkpt lat="44.46372" lon="6.26816">
        <ele>804.26</ele>
        <time>2018-08-26T10:24:32Z</time>
      </trkpt>
      <trkpt lat="44.46359" lon="6.26786">
        <ele>802.27</ele>
        <time>2018-08-26T10:24:33Z</time>
      </trkpt>
      <trkpt lat="44.46346" lon="6.26754">
        <ele>800.28</ele>
        <time>2018-08-26T10:24:34Z</time>
      </trkpt>
      <trkpt lat="44.46336" lon="6.26722">
        <ele>798.28</ele>
        <time>2018-08-26T10:24:35Z</time>
      </trkpt>
      <trkpt lat="44.46327" lon="6.2669">
        <ele>797.68</ele>
        <time>2018-08-26T10:24:36Z</time>
      </trkpt>
      <trkpt lat="44.46317" lon="6.2666">
        <ele>796.1</ele>
        <time>2018-08-26T10:24:37Z</time>
      </trkpt>
      <trkpt lat="44.46307" lon="6.2663">
        <ele>794.92</ele>
        <time>2018-08-26T10:24:38Z</time>
      </trkpt>
      <trkpt lat="44.46298" lon="6.26599">
        <ele>793.87</ele>
        <time>2018-08-26T10:24:39Z</time>
      </trkpt>
      <trkpt lat="44.46289" lon="6.26569">
        <ele>792.16</ele>
        <time>2018-08-26T10:24:40Z</time>
      </trkpt>
      <trkpt lat="44.4628" lon="6.26538">
        <ele>790.94</ele>
        <time>2018-08-26T10:24:41Z</time>
      </trkpt>
      <trkpt lat="44.46273" lon="6.26505">
        <ele>789.18</ele>
        <time>2018-08-26T10:24:42Z</time>
      </trkpt>
      <trkpt lat="44.46267" lon="6.26473">
        <ele>787.25</ele>
        <time>2018-08-26T10:24:43Z</time>
      </trkpt>
      <trkpt lat="44.46261" lon="6.26442">
        <ele>786.67</ele>
        <time>2018-08-26T10:24:44Z</time>
      </trkpt>
      <trkpt lat="44.46254" lon="6.26409">
        <ele>785.8</ele>
        <time>2018-08-26T10:24:45Z</time>
      </trkpt>
      <trkpt lat="44.46247" lon="6.26378">
        <ele>784.13</ele>
        <time>2018-08-26T10:24:46Z</time>
      </trkpt>
      <trkpt lat="44.46241" lon="6.26346">
        <ele>782.23</ele>
        <time>2018-08-26T10:24:47Z</time>
      </trkpt>
      <trkpt lat="44.46234" lon="6.26315">
        <ele>780.97</ele>
        <time>2018-08-26T10:24:48Z</time>
      </trkpt>
      <trkpt lat="44.46226" lon="6.26286">
        <ele>779.18</ele>
        <time>2018-08-26T10:24:49Z</time>
      </trkpt>
      <trkpt lat="44.46215" lon="6.26258">
        <ele>777.25</ele>
        <time>2018-08-26T10:24:50Z</time>
      </trkpt>
      <trkpt lat="44.46204" lon="6.26231">
        <ele>775.97</ele>
        <time>2018-08-26T10:24:51Z</time>
      </trkpt>
      <trkpt lat="44.46192" lon="6.26204">
        <ele>775.59</ele>
        <time>2018-08-26T10:24:52Z</time>
      </trkpt>
      <trkpt lat="44.46181" lon="6.26179">
        <ele>774.77</ele>
        <time>2018-08-26T10:24:53Z</time>
      </trkpt>
      <trkpt lat="44.46171" lon="6.26154">
        <ele>773.83</ele>
        <time>2018-08-26T10:24:54Z</time>
      </trkpt>
      <trkpt lat="44.46162" lon="6.26131">
        <ele>772.84</ele>
        <time>2018-08-26T10:24:55Z</time>
      </trkpt>
      <trkpt lat="44.46162" lon="6.26104">
        <ele>772.55</ele>
        <time>2018-08-26T10:24:56Z</time>
      </trkpt>
      <trkpt lat="44.46165" lon="6.26078">
        <ele>773.16</ele>
        <time>2018-08-26T10:24:57Z</time>
      </trkpt>
      <trkpt lat="44.46175" lon="6.26055">
        <ele>773.34</ele>
        <time>2018-08-26T10:24:58Z</time>
      </trkpt>
      <trkpt lat="44.46179" lon="6.26012">
        <ele>771.8</ele>
        <time>2018-08-26T10:25:00Z</time>
      </trkpt>
      <trkpt lat="44.46176" lon="6.25967">
        <ele>769.15</ele>
        <time>2018-08-26T10:25:02Z</time>
      </trkpt>
      <trkpt lat="44.4617" lon="6.25943">
        <ele>768.64</ele>
        <time>2018-08-26T10:25:03Z</time>
      </trkpt>
      <trkpt lat="44.46164" lon="6.25915">
        <ele>767.09</ele>
        <time>2018-08-26T10:25:04Z</time>
      </trkpt>
      <trkpt lat="44.46158" lon="6.25888">
        <ele>765.22</ele>
        <time>2018-08-26T10:25:05Z</time>
      </trkpt>
      <trkpt lat="44.46152" lon="6.2586">
        <ele>765.36</ele>
        <time>2018-08-26T10:25:06Z</time>
      </trkpt>
      <trkpt lat="44.46145" lon="6.25833">
        <ele>765.4</ele>
        <time>2018-08-26T10:25:07Z</time>
      </trkpt>
      <trkpt lat="44.46083" lon="6.25559">
        <ele>764.02</ele>
        <time>2018-08-26T10:25:17Z</time>
      </trkpt>
      <trkpt lat="44.46075" lon="6.25531">
        <ele>762.2</ele>
        <time>2018-08-26T10:25:18Z</time>
      </trkpt>
      <trkpt lat="44.46066" lon="6.25502">
        <ele>760.25</ele>
        <time>2018-08-26T10:25:19Z</time>
      </trkpt>
      <trkpt lat="44.46055" lon="6.25474">
        <ele>758.97</ele>
        <time>2018-08-26T10:25:20Z</time>
      </trkpt>
      <trkpt lat="44.46047" lon="6.25446">
        <ele>757.19</ele>
        <time>2018-08-26T10:25:21Z</time>
      </trkpt>
      <trkpt lat="44.46036" lon="6.2542">
        <ele>754.55</ele>
        <time>2018-08-26T10:25:22Z</time>
      </trkpt>
      <trkpt lat="44.46027" lon="6.25394">
        <ele>751.66</ele>
        <time>2018-08-26T10:25:23Z</time>
      </trkpt>
      <trkpt lat="44.46018" lon="6.25368">
        <ele>748.69</ele>
        <time>2018-08-26T10:25:24Z</time>
      </trkpt>
      <trkpt lat="44.4601" lon="6.25343">
        <ele>747.1</ele>
        <time>2018-08-26T10:25:25Z</time>
      </trkpt>
      <trkpt lat="44.46002" lon="6.25318">
        <ele>745.23</ele>
        <time>2018-08-26T10:25:26Z</time>
      </trkpt>
      <trkpt lat="44.45994" lon="6.25293">
        <ele>743.26</ele>
        <time>2018-08-26T10:25:27Z</time>
      </trkpt>
      <trkpt lat="44.45985" lon="6.25268">
        <ele>741.27</ele>
        <time>2018-08-26T10:25:28Z</time>
      </trkpt>
      <trkpt lat="44.45978" lon="6.25243">
        <ele>739.28</ele>
        <time>2018-08-26T10:25:29Z</time>
      </trkpt>
      <trkpt lat="44.4597" lon="6.25216">
        <ele>738.68</ele>
        <time>2018-08-26T10:25:30Z</time>
      </trkpt>
      <trkpt lat="44.45961" lon="6.25186">
        <ele>736.4</ele>
        <time>2018-08-26T10:25:31Z</time>
      </trkpt>
      <trkpt lat="44.45951" lon="6.25153">
        <ele>735.01</ele>
        <time>2018-08-26T10:25:32Z</time>
      </trkpt>
      <trkpt lat="44.45942" lon="6.25118">
        <ele>733.2</ele>
        <time>2018-08-26T10:25:33Z</time>
      </trkpt>
      <trkpt lat="44.45934" lon="6.25083">
        <ele>731.25</ele>
        <time>2018-08-26T10:25:34Z</time>
      </trkpt>
      <trkpt lat="44.45926" lon="6.25049">
        <ele>729.97</ele>
        <time>2018-08-26T10:25:35Z</time>
      </trkpt>
      <trkpt lat="44.45917" lon="6.25018">
        <ele>728.19</ele>
        <time>2018-08-26T10:25:36Z</time>
      </trkpt>
      <trkpt lat="44.45907" lon="6.24987">
        <ele>727.61</ele>
        <time>2018-08-26T10:25:37Z</time>
      </trkpt>
      <trkpt lat="44.45899" lon="6.24956">
        <ele>726.73</ele>
        <time>2018-08-26T10:25:38Z</time>
      </trkpt>
      <trkpt lat="44.45893" lon="6.24926">
        <ele>724.37</ele>
        <time>2018-08-26T10:25:39Z</time>
      </trkpt>
      <trkpt lat="44.45891" lon="6.24893">
        <ele>722.96</ele>
        <time>2018-08-26T10:25:40Z</time>
      </trkpt>
      <trkpt lat="44.4589" lon="6.2486">
        <ele>721.14</ele>
        <time>2018-08-26T10:25:41Z</time>
      </trkpt>
      <trkpt lat="44.45887" lon="6.24828">
        <ele>719.89</ele>
        <time>2018-08-26T10:25:42Z</time>
      </trkpt>
      <trkpt lat="44.45881" lon="6.24797">
        <ele>718.12</ele>
        <time>2018-08-26T10:25:43Z</time>
      </trkpt>
      <trkpt lat="44.45873" lon="6.24767">
        <ele>716.89</ele>
        <time>2018-08-26T10:25:44Z</time>
      </trkpt>
      <trkpt lat="44.45864" lon="6.24739">
        <ele>715.12</ele>
        <time>2018-08-26T10:25:45Z</time>
      </trkpt>
      <trkpt lat="44.45856" lon="6.2471">
        <ele>713.89</ele>
        <time>2018-08-26T10:25:46Z</time>
      </trkpt>
      <trkpt lat="44.4585" lon="6.24681">
        <ele>712.82</ele>
        <time>2018-08-26T10:25:47Z</time>
      </trkpt>
      <trkpt lat="44.45848" lon="6.24652">
        <ele>711.8</ele>
        <time>2018-08-26T10:25:48Z</time>
      </trkpt>
      <trkpt lat="44.45848" lon="6.24621">
        <ele>710.79</ele>
        <time>2018-08-26T10:25:49Z</time>
      </trkpt>
      <trkpt lat="44.45849" lon="6.24591">
        <ele>709.79</ele>
        <time>2018-08-26T10:25:50Z</time>
      </trkpt>
      <trkpt lat="44.45848" lon="6.24561">
        <ele>708.09</ele>
        <time>2018-08-26T10:25:51Z</time>
      </trkpt>
      <trkpt lat="44.45843" lon="6.24531">
        <ele>706.18</ele>
        <time>2018-08-26T10:25:52Z</time>
      </trkpt>
      <trkpt lat="44.45836" lon="6.24502">
        <ele>704.91</ele>
        <time>2018-08-26T10:25:53Z</time>
      </trkpt>
      <trkpt lat="44.45828" lon="6.24474">
        <ele>703.12</ele>
        <time>2018-08-26T10:25:54Z</time>
      </trkpt>
      <trkpt lat="44.4582" lon="6.24444">
        <ele>701.89</ele>
        <time>2018-08-26T10:25:55Z</time>
      </trkpt>
      <trkpt lat="44.45812" lon="6.24415">
        <ele>700.82</ele>
        <time>2018-08-26T10:25:56Z</time>
      </trkpt>
      <trkpt lat="44.45803" lon="6.24386">
        <ele>699.8</ele>
        <time>2018-08-26T10:25:57Z</time>
      </trkpt>
      <trkpt lat="44.45795" lon="6.24356">
        <ele>698.09</ele>
        <time>2018-08-26T10:25:58Z</time>
      </trkpt>
      <trkpt lat="44.45786" lon="6.24326">
        <ele>696.88</ele>
        <time>2018-08-26T10:25:59Z</time>
      </trkpt>
      <trkpt lat="44.45777" lon="6.24296">
        <ele>695.12</ele>
        <time>2018-08-26T10:26:00Z</time>
      </trkpt>
      <trkpt lat="44.45769" lon="6.24266">
        <ele>693.89</ele>
        <time>2018-08-26T10:26:01Z</time>
      </trkpt>
      <trkpt lat="44.45762" lon="6.24235">
        <ele>692.82</ele>
        <time>2018-08-26T10:26:02Z</time>
      </trkpt>
      <trkpt lat="44.45756" lon="6.24204">
        <ele>691.8</ele>
        <time>2018-08-26T10:26:03Z</time>
      </trkpt>
      <trkpt lat="44.45753" lon="6.24172">
        <ele>690.09</ele>
        <time>2018-08-26T10:26:04Z</time>
      </trkpt>
      <trkpt lat="44.45751" lon="6.2414">
        <ele>688.18</ele>
        <time>2018-08-26T10:26:05Z</time>
      </trkpt>
      <trkpt lat="44.4575" lon="6.24108">
        <ele>686.21</ele>
        <time>2018-08-26T10:26:06Z</time>
      </trkpt>
      <trkpt lat="44.4575" lon="6.24077">
        <ele>684.91</ele>
        <time>2018-08-26T10:26:07Z</time>
      </trkpt>
      <trkpt lat="44.45752" lon="6.24046">
        <ele>683.83</ele>
        <time>2018-08-26T10:26:08Z</time>
      </trkpt>
      <trkpt lat="44.45757" lon="6.24017">
        <ele>682.8</ele>
        <time>2018-08-26T10:26:09Z</time>
      </trkpt>
      <trkpt lat="44.45765" lon="6.23991">
        <ele>681.09</ele>
        <time>2018-08-26T10:26:10Z</time>
      </trkpt>
      <trkpt lat="44.45776" lon="6.23968">
        <ele>679.18</ele>
        <time>2018-08-26T10:26:11Z</time>
      </trkpt>
      <trkpt lat="44.4579" lon="6.23948">
        <ele>678.61</ele>
        <time>2018-08-26T10:26:12Z</time>
      </trkpt>
      <trkpt lat="44.45806" lon="6.2393">
        <ele>677.73</ele>
        <time>2018-08-26T10:26:13Z</time>
      </trkpt>
      <trkpt lat="44.45822" lon="6.23913">
        <ele>677.47</ele>
        <time>2018-08-26T10:26:14Z</time>
      </trkpt>
      <trkpt lat="44.45839" lon="6.23896">
        <ele>677.39</ele>
        <time>2018-08-26T10:26:15Z</time>
      </trkpt>
      <trkpt lat="44.45856" lon="6.23879">
        <ele>676.67</ele>
        <time>2018-08-26T10:26:16Z</time>
      </trkpt>
      <trkpt lat="44.45873" lon="6.23861">
        <ele>676.45</ele>
        <time>2018-08-26T10:26:17Z</time>
      </trkpt>
      <trkpt lat="44.4589" lon="6.23843">
        <ele>675.69</ele>
        <time>2018-08-26T10:26:18Z</time>
      </trkpt>
      <trkpt lat="44.45908" lon="6.23826">
        <ele>675.46</ele>
        <time>2018-08-26T10:26:19Z</time>
      </trkpt>
      <trkpt lat="44.45927" lon="6.23811">
        <ele>674.69</ele>
        <time>2018-08-26T10:26:20Z</time>
      </trkpt>
      <trkpt lat="44.45945" lon="6.23798">
        <ele>673.76</ele>
        <time>2018-08-26T10:26:21Z</time>
      </trkpt>
      <trkpt lat="44.45963" lon="6.23786">
        <ele>672.78</ele>
        <time>2018-08-26T10:26:22Z</time>
      </trkpt>
      <trkpt lat="44.4598" lon="6.23775">
        <ele>671.79</ele>
        <time>2018-08-26T10:26:23Z</time>
      </trkpt>
      <trkpt lat="44.45998" lon="6.23765">
        <ele>670.79</ele>
        <time>2018-08-26T10:26:24Z</time>
      </trkpt>
      <trkpt lat="44.46016" lon="6.23755">
        <ele>669.79</ele>
        <time>2018-08-26T10:26:25Z</time>
      </trkpt>
      <trkpt lat="44.46034" lon="6.23747">
        <ele>668.79</ele>
        <time>2018-08-26T10:26:26Z</time>
      </trkpt>
      <trkpt lat="44.46053" lon="6.23736">
        <ele>668.49</ele>
        <time>2018-08-26T10:26:27Z</time>
      </trkpt>
      <trkpt lat="44.46072" lon="6.23727">
        <ele>667.7</ele>
        <time>2018-08-26T10:26:28Z</time>
      </trkpt>
      <trkpt lat="44.4609" lon="6.23718">
        <ele>666.76</ele>
        <time>2018-08-26T10:26:29Z</time>
      </trkpt>
      <trkpt lat="44.46109" lon="6.2371">
        <ele>666.48</ele>
        <time>2018-08-26T10:26:30Z</time>
      </trkpt>
      <trkpt lat="44.46127" lon="6.23701">
        <ele>665.7</ele>
        <time>2018-08-26T10:26:31Z</time>
      </trkpt>
      <trkpt lat="44.46145" lon="6.23693">
        <ele>664.76</ele>
        <time>2018-08-26T10:26:32Z</time>
      </trkpt>
      <trkpt lat="44.46164" lon="6.23684">
        <ele>664.48</ele>
        <time>2018-08-26T10:26:33Z</time>
      </trkpt>
      <trkpt lat="44.46181" lon="6.23676">
        <ele>664.4</ele>
        <time>2018-08-26T10:26:34Z</time>
      </trkpt>
      <trkpt lat="44.46213" lon="6.23661">
        <ele>664.36</ele>
        <time>2018-08-26T10:26:36Z</time>
      </trkpt>
      <trkpt lat="44.4624" lon="6.23647">
        <ele>664.36</ele>
        <time>2018-08-26T10:26:38Z</time>
      </trkpt>
      <trkpt lat="44.46263" lon="6.23636">
        <ele>664.36</ele>
        <time>2018-08-26T10:26:40Z</time>
      </trkpt>
      <trkpt lat="44.46285" lon="6.23624">
        <ele>664.36</ele>
        <time>2018-08-26T10:26:42Z</time>
      </trkpt>
      <trkpt lat="44.46307" lon="6.23612">
        <ele>664.36</ele>
        <time>2018-08-26T10:26:44Z</time>
      </trkpt>
      <trkpt lat="44.46328" lon="6.236">
        <ele>664.36</ele>
        <time>2018-08-26T10:26:46Z</time>
      </trkpt>
      <trkpt lat="44.46351" lon="6.23587">
        <ele>663.45</ele>
        <time>2018-08-26T10:26:48Z</time>
      </trkpt>
      <trkpt lat="44.46374" lon="6.23574">
        <ele>664.07</ele>
        <time>2018-08-26T10:26:50Z</time>
      </trkpt>
      <trkpt lat="44.46397" lon="6.23561">
        <ele>663.42</ele>
        <time>2018-08-26T10:26:52Z</time>
      </trkpt>
      <trkpt lat="44.4642" lon="6.23549">
        <ele>663.37</ele>
        <time>2018-08-26T10:26:54Z</time>
      </trkpt>
      <trkpt lat="44.4644" lon="6.23537">
        <ele>664.27</ele>
        <time>2018-08-26T10:26:56Z</time>
      </trkpt>
      <trkpt lat="44.46461" lon="6.23527">
        <ele>664.35</ele>
        <time>2018-08-26T10:26:58Z</time>
      </trkpt>
      <trkpt lat="44.4648" lon="6.23516">
        <ele>664.36</ele>
        <time>2018-08-26T10:27:00Z</time>
      </trkpt>
      <trkpt lat="44.46503" lon="6.23504">
        <ele>663.6</ele>
        <time>2018-08-26T10:27:03Z</time>
      </trkpt>
      <trkpt lat="44.46525" lon="6.23512">
        <ele>664.35</ele>
        <time>2018-08-26T10:27:07Z</time>
      </trkpt>
      <trkpt lat="44.46537" lon="6.23548">
        <ele>664.36</ele>
        <time>2018-08-26T10:27:10Z</time>
      </trkpt>
      <trkpt lat="44.46544" lon="6.23583">
        <ele>663.45</ele>
        <time>2018-08-26T10:27:12Z</time>
      </trkpt>
      <trkpt lat="44.46553" lon="6.23626">
        <ele>663.37</ele>
        <time>2018-08-26T10:27:14Z</time>
      </trkpt>
      <trkpt lat="44.46562" lon="6.23671">
        <ele>663.36</ele>
        <time>2018-08-26T10:27:16Z</time>
      </trkpt>
      <trkpt lat="44.46572" lon="6.2372">
        <ele>663.15</ele>
        <time>2018-08-26T10:27:18Z</time>
      </trkpt>
      <trkpt lat="44.46577" lon="6.23747">
        <ele>663.3</ele>
        <time>2018-08-26T10:27:19Z</time>
      </trkpt>
      <trkpt lat="44.46582" lon="6.23775">
        <ele>663.34</ele>
        <time>2018-08-26T10:27:20Z</time>
      </trkpt>
      <trkpt lat="44.46588" lon="6.23804">
        <ele>663.35</ele>
        <time>2018-08-26T10:27:21Z</time>
      </trkpt>
      <trkpt lat="44.46594" lon="6.23833">
        <ele>663.36</ele>
        <time>2018-08-26T10:27:22Z</time>
      </trkpt>
      <trkpt lat="44.46601" lon="6.23862">
        <ele>663.36</ele>
        <time>2018-08-26T10:27:23Z</time>
      </trkpt>
      <trkpt lat="44.46609" lon="6.2389">
        <ele>663.36</ele>
        <time>2018-08-26T10:27:24Z</time>
      </trkpt>
      <trkpt lat="44.46616" lon="6.23919">
        <ele>662.66</ele>
        <time>2018-08-26T10:27:25Z</time>
      </trkpt>
      <trkpt lat="44.46624" lon="6.23948">
        <ele>663.15</ele>
        <time>2018-08-26T10:27:26Z</time>
      </trkpt>
      <trkpt lat="44.46632" lon="6.23977">
        <ele>663.3</ele>
        <time>2018-08-26T10:27:27Z</time>
      </trkpt>
      <trkpt lat="44.46639" lon="6.24006">
        <ele>663.34</ele>
        <time>2018-08-26T10:27:28Z</time>
      </trkpt>
      <trkpt lat="44.46645" lon="6.24036">
        <ele>662.65</ele>
        <time>2018-08-26T10:27:29Z</time>
      </trkpt>
      <trkpt lat="44.46649" lon="6.24066">
        <ele>662.45</ele>
        <time>2018-08-26T10:27:30Z</time>
      </trkpt>
      <trkpt lat="44.46651" lon="6.24098">
        <ele>662.39</ele>
        <time>2018-08-26T10:27:31Z</time>
      </trkpt>
      <trkpt lat="44.46652" lon="6.24128">
        <ele>662.37</ele>
        <time>2018-08-26T10:27:32Z</time>
      </trkpt>
      <trkpt lat="44.4665" lon="6.2416">
        <ele>662.36</ele>
        <time>2018-08-26T10:27:33Z</time>
      </trkpt>
      <trkpt lat="44.46648" lon="6.24192">
        <ele>662.36</ele>
        <time>2018-08-26T10:27:34Z</time>
      </trkpt>
      <trkpt lat="44.46646" lon="6.24224">
        <ele>662.36</ele>
        <time>2018-08-26T10:27:35Z</time>
      </trkpt>
      <trkpt lat="44.46643" lon="6.24255">
        <ele>663.06</ele>
        <time>2018-08-26T10:27:36Z</time>
      </trkpt>
      <trkpt lat="44.4664" lon="6.24287">
        <ele>663.27</ele>
        <time>2018-08-26T10:27:37Z</time>
      </trkpt>
      <trkpt lat="44.46638" lon="6.24319">
        <ele>664.03</ele>
        <time>2018-08-26T10:27:38Z</time>
      </trkpt>
      <trkpt lat="44.46635" lon="6.24351">
        <ele>664.96</ele>
        <time>2018-08-26T10:27:39Z</time>
      </trkpt>
      <trkpt lat="44.46632" lon="6.24384">
        <ele>665.24</ele>
        <time>2018-08-26T10:27:40Z</time>
      </trkpt>
      <trkpt lat="44.46629" lon="6.24417">
        <ele>664.62</ele>
        <time>2018-08-26T10:27:41Z</time>
      </trkpt>
      <trkpt lat="44.46627" lon="6.24449">
        <ele>664.44</ele>
        <time>2018-08-26T10:27:42Z</time>
      </trkpt>
      <trkpt lat="44.46624" lon="6.24481">
        <ele>663.68</ele>
        <time>2018-08-26T10:27:43Z</time>
      </trkpt>
      <trkpt lat="44.46621" lon="6.24514">
        <ele>662.76</ele>
        <time>2018-08-26T10:27:44Z</time>
      </trkpt>
      <trkpt lat="44.46618" lon="6.24547">
        <ele>662.48</ele>
        <time>2018-08-26T10:27:45Z</time>
      </trkpt>
      <trkpt lat="44.46615" lon="6.24579">
        <ele>661.7</ele>
        <time>2018-08-26T10:27:46Z</time>
      </trkpt>
      <trkpt lat="44.46613" lon="6.24611">
        <ele>661.46</ele>
        <time>2018-08-26T10:27:47Z</time>
      </trkpt>
      <trkpt lat="44.46613" lon="6.24642">
        <ele>661.39</ele>
        <time>2018-08-26T10:27:48Z</time>
      </trkpt>
      <trkpt lat="44.46614" lon="6.24673">
        <ele>661.37</ele>
        <time>2018-08-26T10:27:49Z</time>
      </trkpt>
      <trkpt lat="44.46619" lon="6.24705">
        <ele>660.66</ele>
        <time>2018-08-26T10:27:50Z</time>
      </trkpt>
      <trkpt lat="44.46625" lon="6.24737">
        <ele>660.45</ele>
        <time>2018-08-26T10:27:51Z</time>
      </trkpt>
      <trkpt lat="44.46632" lon="6.24768">
        <ele>659.69</ele>
        <time>2018-08-26T10:27:52Z</time>
      </trkpt>
      <trkpt lat="44.46638" lon="6.248">
        <ele>660.16</ele>
        <time>2018-08-26T10:27:53Z</time>
      </trkpt>
      <trkpt lat="44.46644" lon="6.24832">
        <ele>659.6</ele>
        <time>2018-08-26T10:27:54Z</time>
      </trkpt>
      <trkpt lat="44.46649" lon="6.24864">
        <ele>660.13</ele>
        <time>2018-08-26T10:27:55Z</time>
      </trkpt>
      <trkpt lat="44.46655" lon="6.24895">
        <ele>660.99</ele>
        <time>2018-08-26T10:27:56Z</time>
      </trkpt>
      <trkpt lat="44.46661" lon="6.24927">
        <ele>661.25</ele>
        <time>2018-08-26T10:27:57Z</time>
      </trkpt>
      <trkpt lat="44.46668" lon="6.24959">
        <ele>661.33</ele>
        <time>2018-08-26T10:27:58Z</time>
      </trkpt>
      <trkpt lat="44.46675" lon="6.24989">
        <ele>662.05</ele>
        <time>2018-08-26T10:27:59Z</time>
      </trkpt>
      <trkpt lat="44.46684" lon="6.25019">
        <ele>661.61</ele>
        <time>2018-08-26T10:28:00Z</time>
      </trkpt>
      <trkpt lat="44.46694" lon="6.25048">
        <ele>661.48</ele>
        <time>2018-08-26T10:28:01Z</time>
      </trkpt>
      <trkpt lat="44.46704" lon="6.25077">
        <ele>661.44</ele>
        <time>2018-08-26T10:28:02Z</time>
      </trkpt>
      <trkpt lat="44.46714" lon="6.25107">
        <ele>661.43</ele>
        <time>2018-08-26T10:28:03Z</time>
      </trkpt>
      <trkpt lat="44.46722" lon="6.25137">
        <ele>662.12</ele>
        <time>2018-08-26T10:28:04Z</time>
      </trkpt>
      <trkpt lat="44.46729" lon="6.25168">
        <ele>662.33</ele>
        <time>2018-08-26T10:28:05Z</time>
      </trkpt>
      <trkpt lat="44.46735" lon="6.25201">
        <ele>662.39</ele>
        <time>2018-08-26T10:28:06Z</time>
      </trkpt>
      <trkpt lat="44.46741" lon="6.25233">
        <ele>662.41</ele>
        <time>2018-08-26T10:28:07Z</time>
      </trkpt>
      <trkpt lat="44.46745" lon="6.25267">
        <ele>662.42</ele>
        <time>2018-08-26T10:28:08Z</time>
      </trkpt>
      <trkpt lat="44.4675" lon="6.253">
        <ele>662.42</ele>
        <time>2018-08-26T10:28:09Z</time>
      </trkpt>
      <trkpt lat="44.46754" lon="6.25331">
        <ele>662.42</ele>
        <time>2018-08-26T10:28:10Z</time>
      </trkpt>
      <trkpt lat="44.46757" lon="6.25364">
        <ele>662.42</ele>
        <time>2018-08-26T10:28:11Z</time>
      </trkpt>
      <trkpt lat="44.46761" lon="6.25396">
        <ele>663.12</ele>
        <time>2018-08-26T10:28:12Z</time>
      </trkpt>
      <trkpt lat="44.46765" lon="6.25429">
        <ele>663.33</ele>
        <time>2018-08-26T10:28:13Z</time>
      </trkpt>
      <trkpt lat="44.46768" lon="6.25462">
        <ele>664.09</ele>
        <time>2018-08-26T10:28:14Z</time>
      </trkpt>
      <trkpt lat="44.46771" lon="6.25494">
        <ele>664.32</ele>
        <time>2018-08-26T10:28:15Z</time>
      </trkpt>
      <trkpt lat="44.46775" lon="6.25526">
        <ele>664.39</ele>
        <time>2018-08-26T10:28:16Z</time>
      </trkpt>
      <trkpt lat="44.46779" lon="6.25557">
        <ele>664.41</ele>
        <time>2018-08-26T10:28:17Z</time>
      </trkpt>
      <trkpt lat="44.46782" lon="6.25588">
        <ele>664.42</ele>
        <time>2018-08-26T10:28:18Z</time>
      </trkpt>
      <trkpt lat="44.46786" lon="6.25618">
        <ele>664.42</ele>
        <time>2018-08-26T10:28:19Z</time>
      </trkpt>
      <trkpt lat="44.46791" lon="6.25648">
        <ele>664.42</ele>
        <time>2018-08-26T10:28:20Z</time>
      </trkpt>
      <trkpt lat="44.46799" lon="6.25678">
        <ele>664.42</ele>
        <time>2018-08-26T10:28:21Z</time>
      </trkpt>
      <trkpt lat="44.46809" lon="6.25709">
        <ele>665.12</ele>
        <time>2018-08-26T10:28:22Z</time>
      </trkpt>
      <trkpt lat="44.46817" lon="6.2574">
        <ele>666.03</ele>
        <time>2018-08-26T10:28:23Z</time>
      </trkpt>
      <trkpt lat="44.46824" lon="6.25772">
        <ele>666.3</ele>
        <time>2018-08-26T10:28:24Z</time>
      </trkpt>
      <trkpt lat="44.46831" lon="6.25803">
        <ele>666.39</ele>
        <time>2018-08-26T10:28:25Z</time>
      </trkpt>
      <trkpt lat="44.46839" lon="6.25832">
        <ele>667.11</ele>
        <time>2018-08-26T10:28:26Z</time>
      </trkpt>
      <trkpt lat="44.46846" lon="6.25863">
        <ele>667.33</ele>
        <time>2018-08-26T10:28:27Z</time>
      </trkpt>
      <trkpt lat="44.46852" lon="6.25893">
        <ele>667.39</ele>
        <time>2018-08-26T10:28:28Z</time>
      </trkpt>
      <trkpt lat="44.46856" lon="6.25922">
        <ele>667.41</ele>
        <time>2018-08-26T10:28:29Z</time>
      </trkpt>
      <trkpt lat="44.46858" lon="6.25953">
        <ele>668.12</ele>
        <time>2018-08-26T10:28:30Z</time>
      </trkpt>
      <trkpt lat="44.46858" lon="6.25982">
        <ele>668.33</ele>
        <time>2018-08-26T10:28:31Z</time>
      </trkpt>
      <trkpt lat="44.46859" lon="6.2601">
        <ele>668.39</ele>
        <time>2018-08-26T10:28:32Z</time>
      </trkpt>
      <trkpt lat="44.4686" lon="6.26038">
        <ele>667.71</ele>
        <time>2018-08-26T10:28:33Z</time>
      </trkpt>
      <trkpt lat="44.46864" lon="6.26067">
        <ele>668.21</ele>
        <time>2018-08-26T10:28:34Z</time>
      </trkpt>
      <trkpt lat="44.46866" lon="6.26097">
        <ele>668.36</ele>
        <time>2018-08-26T10:28:35Z</time>
      </trkpt>
      <trkpt lat="44.46866" lon="6.26125">
        <ele>669.8</ele>
        <time>2018-08-26T10:28:36Z</time>
      </trkpt>
      <trkpt lat="44.46866" lon="6.26153">
        <ele>671.64</ele>
        <time>2018-08-26T10:28:37Z</time>
      </trkpt>
      <trkpt lat="44.46874" lon="6.26202">
        <ele>674.17</ele>
        <time>2018-08-26T10:28:39Z</time>
      </trkpt>
      <trkpt lat="44.46884" lon="6.26227">
        <ele>675.05</ele>
        <time>2018-08-26T10:28:40Z</time>
      </trkpt>
      <trkpt lat="44.46895" lon="6.26253">
        <ele>677.41</ele>
        <time>2018-08-26T10:28:41Z</time>
      </trkpt>
      <trkpt lat="44.46903" lon="6.26279">
        <ele>678.12</ele>
        <time>2018-08-26T10:28:42Z</time>
      </trkpt>
      <trkpt lat="44.46908" lon="6.26307">
        <ele>679.73</ele>
        <time>2018-08-26T10:28:43Z</time>
      </trkpt>
      <trkpt lat="44.46911" lon="6.26334">
        <ele>681.61</ele>
        <time>2018-08-26T10:28:44Z</time>
      </trkpt>
      <trkpt lat="44.46909" lon="6.26363">
        <ele>682.88</ele>
        <time>2018-08-26T10:28:45Z</time>
      </trkpt>
      <trkpt lat="44.46905" lon="6.2639">
        <ele>683.96</ele>
        <time>2018-08-26T10:28:46Z</time>
      </trkpt>
      <trkpt lat="44.469" lon="6.26418">
        <ele>684.98</ele>
        <time>2018-08-26T10:28:47Z</time>
      </trkpt>
      <trkpt lat="44.46894" lon="6.26446">
        <ele>686.69</ele>
        <time>2018-08-26T10:28:48Z</time>
      </trkpt>
      <trkpt lat="44.4689" lon="6.26475">
        <ele>688.6</ele>
        <time>2018-08-26T10:28:49Z</time>
      </trkpt>
      <trkpt lat="44.46886" lon="6.26502">
        <ele>690.58</ele>
        <time>2018-08-26T10:28:50Z</time>
      </trkpt>
      <trkpt lat="44.46885" lon="6.26529">
        <ele>691.87</ele>
        <time>2018-08-26T10:28:51Z</time>
      </trkpt>
      <trkpt lat="44.46884" lon="6.26557">
        <ele>692.95</ele>
        <time>2018-08-26T10:28:52Z</time>
      </trkpt>
      <trkpt lat="44.46886" lon="6.26585">
        <ele>693.28</ele>
        <time>2018-08-26T10:28:53Z</time>
      </trkpt>
      <trkpt lat="44.46892" lon="6.26613">
        <ele>694.78</ele>
        <time>2018-08-26T10:28:54Z</time>
      </trkpt>
      <trkpt lat="44.46897" lon="6.2664">
        <ele>696.63</ele>
        <time>2018-08-26T10:28:55Z</time>
      </trkpt>
      <trkpt lat="44.46902" lon="6.26664">
        <ele>698.58</ele>
        <time>2018-08-26T10:28:56Z</time>
      </trkpt>
      <trkpt lat="44.46911" lon="6.26706">
        <ele>700.05</ele>
        <time>2018-08-26T10:28:58Z</time>
      </trkpt>
      <trkpt lat="44.46925" lon="6.2673">
        <ele>701.09</ele>
        <time>2018-08-26T10:29:00Z</time>
      </trkpt>
      <trkpt lat="44.46944" lon="6.26712">
        <ele>702.3</ele>
        <time>2018-08-26T10:29:02Z</time>
      </trkpt>
      <trkpt lat="44.46952" lon="6.26672">
        <ele>703.08</ele>
        <time>2018-08-26T10:29:03Z</time>
      </trkpt>
      <trkpt lat="44.46973" lon="6.26644">
        <ele>705</ele>
        <time>2018-08-26T10:29:05Z</time>
      </trkpt>
      <trkpt lat="44.46999" lon="6.26631">
        <ele>707.69</ele>
        <time>2018-08-26T10:29:07Z</time>
      </trkpt>
      <trkpt lat="44.47025" lon="6.26618">
        <ele>710.67</ele>
        <time>2018-08-26T10:29:09Z</time>
      </trkpt>
      <trkpt lat="44.47054" lon="6.26607">
        <ele>712.96</ele>
        <time>2018-08-26T10:29:11Z</time>
      </trkpt>
      <trkpt lat="44.4708" lon="6.26606">
        <ele>715.69</ele>
        <time>2018-08-26T10:29:13Z</time>
      </trkpt>
      <trkpt lat="44.47103" lon="6.26589">
        <ele>717.97</ele>
        <time>2018-08-26T10:29:15Z</time>
      </trkpt>
      <trkpt lat="44.47125" lon="6.26557">
        <ele>719.08</ele>
        <time>2018-08-26T10:29:17Z</time>
      </trkpt>
      <trkpt lat="44.47143" lon="6.26526">
        <ele>720.3</ele>
        <time>2018-08-26T10:29:19Z</time>
      </trkpt>
      <trkpt lat="44.47149" lon="6.26493">
        <ele>723.06</ele>
        <time>2018-08-26T10:29:22Z</time>
      </trkpt>
      <trkpt lat="44.4713" lon="6.26473">
        <ele>724.09</ele>
        <time>2018-08-26T10:29:24Z</time>
      </trkpt>
      <trkpt lat="44.47109" lon="6.26485">
        <ele>724.6</ele>
        <time>2018-08-26T10:29:26Z</time>
      </trkpt>
      <trkpt lat="44.47082" lon="6.26538">
        <ele>725.84</ele>
        <time>2018-08-26T10:29:28Z</time>
      </trkpt>
      <trkpt lat="44.47066" lon="6.26555">
        <ele>726.25</ele>
        <time>2018-08-26T10:29:29Z</time>
      </trkpt>
      <trkpt lat="44.47035" lon="6.26577">
        <ele>727.32</ele>
        <time>2018-08-26T10:29:31Z</time>
      </trkpt>
      <trkpt lat="44.47003" lon="6.2658">
        <ele>729.72</ele>
        <time>2018-08-26T10:29:33Z</time>
      </trkpt>
      <trkpt lat="44.46977" lon="6.26579">
        <ele>733.37</ele>
        <time>2018-08-26T10:29:35Z</time>
      </trkpt>
      <trkpt lat="44.46952" lon="6.26558">
        <ele>734.96</ele>
        <time>2018-08-26T10:29:37Z</time>
      </trkpt>
      <trkpt lat="44.46948" lon="6.26523">
        <ele>736.29</ele>
        <time>2018-08-26T10:29:39Z</time>
      </trkpt>
      <trkpt lat="44.46958" lon="6.26497">
        <ele>735.68</ele>
        <time>2018-08-26T10:29:40Z</time>
      </trkpt>
      <trkpt lat="44.46974" lon="6.26451">
        <ele>736.14</ele>
        <time>2018-08-26T10:29:42Z</time>
      </trkpt>
      <trkpt lat="44.46999" lon="6.26441">
        <ele>734.24</ele>
        <time>2018-08-26T10:29:43Z</time>
      </trkpt>
      <trkpt lat="44.47025" lon="6.26424">
        <ele>735.07</ele>
        <time>2018-08-26T10:29:44Z</time>
      </trkpt>
      <trkpt lat="44.47054" lon="6.26403">
        <ele>738.11</ele>
        <time>2018-08-26T10:29:45Z</time>
      </trkpt>
      <trkpt lat="44.47074" lon="6.26382">
        <ele>741.13</ele>
        <time>2018-08-26T10:29:46Z</time>
      </trkpt>
      <trkpt lat="44.47091" lon="6.26365">
        <ele>744.83</ele>
        <time>2018-08-26T10:29:47Z</time>
      </trkpt>
      <trkpt lat="44.47113" lon="6.2633">
        <ele>751.11</ele>
        <time>2018-08-26T10:29:49Z</time>
      </trkpt>
      <trkpt lat="44.47118" lon="6.26282">
        <ele>754.61</ele>
        <time>2018-08-26T10:29:51Z</time>
      </trkpt>
      <trkpt lat="44.47114" lon="6.26257">
        <ele>756.58</ele>
        <time>2018-08-26T10:29:52Z</time>
      </trkpt>
      <trkpt lat="44.47101" lon="6.26221">
        <ele>761.48</ele>
        <time>2018-08-26T10:29:54Z</time>
      </trkpt>
      <trkpt lat="44.47097" lon="6.26195">
        <ele>762.34</ele>
        <time>2018-08-26T10:29:56Z</time>
      </trkpt>
      <trkpt lat="44.47118" lon="6.26196">
        <ele>763.12</ele>
        <time>2018-08-26T10:29:59Z</time>
      </trkpt>
      <trkpt lat="44.47122" lon="6.26239">
        <ele>765</ele>
        <time>2018-08-26T10:30:01Z</time>
      </trkpt>
      <trkpt lat="44.47129" lon="6.26264">
        <ele>766</ele>
        <time>2018-08-26T10:30:02Z</time>
      </trkpt>
      <trkpt lat="44.47144" lon="6.26299">
        <ele>769.6</ele>
        <time>2018-08-26T10:30:04Z</time>
      </trkpt>
      <trkpt lat="44.47166" lon="6.26329">
        <ele>773.78</ele>
        <time>2018-08-26T10:30:06Z</time>
      </trkpt>
      <trkpt lat="44.47182" lon="6.26342">
        <ele>776.33</ele>
        <time>2018-08-26T10:30:07Z</time>
      </trkpt>
      <trkpt lat="44.47202" lon="6.26375">
        <ele>778.72</ele>
        <time>2018-08-26T10:30:09Z</time>
      </trkpt>
      <trkpt lat="44.47219" lon="6.26411">
        <ele>784.4</ele>
        <time>2018-08-26T10:30:11Z</time>
      </trkpt>
      <trkpt lat="44.47246" lon="6.26437">
        <ele>787.43</ele>
        <time>2018-08-26T10:30:13Z</time>
      </trkpt>
      <trkpt lat="44.47272" lon="6.26452">
        <ele>790.64</ele>
        <time>2018-08-26T10:30:15Z</time>
      </trkpt>
      <trkpt lat="44.47294" lon="6.26459">
        <ele>792.05</ele>
        <time>2018-08-26T10:30:17Z</time>
      </trkpt>
      <trkpt lat="44.47299" lon="6.26429">
        <ele>792.41</ele>
        <time>2018-08-26T10:30:20Z</time>
      </trkpt>
      <trkpt lat="44.47262" lon="6.26386">
        <ele>794.52</ele>
        <time>2018-08-26T10:30:22Z</time>
      </trkpt>
      <trkpt lat="44.47247" lon="6.26367">
        <ele>796.55</ele>
        <time>2018-08-26T10:30:23Z</time>
      </trkpt>
      <trkpt lat="44.47233" lon="6.26346">
        <ele>798.56</ele>
        <time>2018-08-26T10:30:24Z</time>
      </trkpt>
      <trkpt lat="44.47217" lon="6.26314">
        <ele>800.95</ele>
        <time>2018-08-26T10:30:26Z</time>
      </trkpt>
      <trkpt lat="44.47226" lon="6.26285">
        <ele>804.9</ele>
        <time>2018-08-26T10:30:29Z</time>
      </trkpt>
      <trkpt lat="44.47246" lon="6.26297">
        <ele>807.68</ele>
        <time>2018-08-26T10:30:31Z</time>
      </trkpt>
      <trkpt lat="44.47275" lon="6.26323">
        <ele>811.57</ele>
        <time>2018-08-26T10:30:33Z</time>
      </trkpt>
      <trkpt lat="44.47289" lon="6.26345">
        <ele>813.57</ele>
        <time>2018-08-26T10:30:34Z</time>
      </trkpt>
      <trkpt lat="44.47302" lon="6.2637">
        <ele>816.26</ele>
        <time>2018-08-26T10:30:35Z</time>
      </trkpt>
      <trkpt lat="44.47315" lon="6.26397">
        <ele>817.77</ele>
        <time>2018-08-26T10:30:36Z</time>
      </trkpt>
      <trkpt lat="44.47328" lon="6.26421">
        <ele>819.63</ele>
        <time>2018-08-26T10:30:37Z</time>
      </trkpt>
      <trkpt lat="44.4734" lon="6.26443">
        <ele>820.88</ele>
        <time>2018-08-26T10:30:38Z</time>
      </trkpt>
      <trkpt lat="44.47365" lon="6.26471">
        <ele>823.89</ele>
        <time>2018-08-26T10:30:40Z</time>
      </trkpt>
      <trkpt lat="44.47387" lon="6.26495">
        <ele>826.89</ele>
        <time>2018-08-26T10:30:42Z</time>
      </trkpt>
      <trkpt lat="44.47394" lon="6.26527">
        <ele>829.68</ele>
        <time>2018-08-26T10:30:44Z</time>
      </trkpt>
      <trkpt lat="44.4739" lon="6.2656">
        <ele>831.75</ele>
        <time>2018-08-26T10:30:46Z</time>
      </trkpt>
      <trkpt lat="44.47397" lon="6.26589">
        <ele>834.32</ele>
        <time>2018-08-26T10:30:50Z</time>
      </trkpt>
      <trkpt lat="44.47416" lon="6.26618">
        <ele>837</ele>
        <time>2018-08-26T10:30:53Z</time>
      </trkpt>
      <trkpt lat="44.47429" lon="6.26644">
        <ele>838.08</ele>
        <time>2018-08-26T10:30:55Z</time>
      </trkpt>
      <trkpt lat="44.4744" lon="6.26677">
        <ele>840.91</ele>
        <time>2018-08-26T10:30:57Z</time>
      </trkpt>
      <trkpt lat="44.47451" lon="6.26714">
        <ele>842.99</ele>
        <time>2018-08-26T10:30:59Z</time>
      </trkpt>
      <trkpt lat="44.47458" lon="6.26755">
        <ele>844.08</ele>
        <time>2018-08-26T10:31:01Z</time>
      </trkpt>
      <trkpt lat="44.4746" lon="6.26796">
        <ele>846.91</ele>
        <time>2018-08-26T10:31:03Z</time>
      </trkpt>
      <trkpt lat="44.47462" lon="6.26833">
        <ele>849.9</ele>
        <time>2018-08-26T10:31:05Z</time>
      </trkpt>
      <trkpt lat="44.47473" lon="6.26868">
        <ele>851.98</ele>
        <time>2018-08-26T10:31:07Z</time>
      </trkpt>
      <trkpt lat="44.4749" lon="6.26901">
        <ele>855.6</ele>
        <time>2018-08-26T10:31:09Z</time>
      </trkpt>
      <trkpt lat="44.47504" lon="6.26929">
        <ele>858.87</ele>
        <time>2018-08-26T10:31:11Z</time>
      </trkpt>
      <trkpt lat="44.47516" lon="6.26951">
        <ele>860.32</ele>
        <time>2018-08-26T10:31:14Z</time>
      </trkpt>
      <trkpt lat="44.47498" lon="6.26958">
        <ele>860.42</ele>
        <time>2018-08-26T10:31:24Z</time>
      </trkpt>
      <trkpt lat="44.47518" lon="6.26965">
        <ele>859.42</ele>
        <time>2018-08-26T10:52:57Z</time>
      </trkpt>
      <trkpt lat="44.47532" lon="6.26991">
        <ele>859.42</ele>
        <time>2018-08-26T10:53:02Z</time>
      </trkpt>
      <trkpt lat="44.47543" lon="6.27021">
        <ele>860.39</ele>
        <time>2018-08-26T10:53:05Z</time>
      </trkpt>
      <trkpt lat="44.47553" lon="6.27055">
        <ele>861.39</ele>
        <time>2018-08-26T10:53:08Z</time>
      </trkpt>
      <trkpt lat="44.47561" lon="6.27079">
        <ele>862.33</ele>
        <time>2018-08-26T10:53:10Z</time>
      </trkpt>
      <trkpt lat="44.47572" lon="6.27112">
        <ele>861.51</ele>
        <time>2018-08-26T10:53:13Z</time>
      </trkpt>
      <trkpt lat="44.4758" lon="6.27138">
        <ele>862.34</ele>
        <time>2018-08-26T10:53:15Z</time>
      </trkpt>
      <trkpt lat="44.47587" lon="6.27166">
        <ele>862.41</ele>
        <time>2018-08-26T10:53:17Z</time>
      </trkpt>
      <trkpt lat="44.47598" lon="6.27197">
        <ele>861.72</ele>
        <time>2018-08-26T10:53:19Z</time>
      </trkpt>
      <trkpt lat="44.47612" lon="6.27224">
        <ele>860.75</ele>
        <time>2018-08-26T10:53:21Z</time>
      </trkpt>
      <trkpt lat="44.4763" lon="6.27244">
        <ele>857.93</ele>
        <time>2018-08-26T10:53:23Z</time>
      </trkpt>
      <trkpt lat="44.47651" lon="6.27257">
        <ele>855.86</ele>
        <time>2018-08-26T10:53:25Z</time>
      </trkpt>
      <trkpt lat="44.47675" lon="6.27264">
        <ele>853.64</ele>
        <time>2018-08-26T10:53:27Z</time>
      </trkpt>
      <trkpt lat="44.477" lon="6.27262">
        <ele>851.62</ele>
        <time>2018-08-26T10:53:29Z</time>
      </trkpt>
      <trkpt lat="44.47728" lon="6.27252">
        <ele>848.92</ele>
        <time>2018-08-26T10:53:31Z</time>
      </trkpt>
      <trkpt lat="44.4776" lon="6.27242">
        <ele>845.95</ele>
        <time>2018-08-26T10:53:33Z</time>
      </trkpt>
      <trkpt lat="44.47793" lon="6.27232">
        <ele>842.95</ele>
        <time>2018-08-26T10:53:35Z</time>
      </trkpt>
      <trkpt lat="44.47827" lon="6.27222">
        <ele>840.16</ele>
        <time>2018-08-26T10:53:37Z</time>
      </trkpt>
      <trkpt lat="44.47861" lon="6.27211">
        <ele>836.97</ele>
        <time>2018-08-26T10:53:39Z</time>
      </trkpt>
      <trkpt lat="44.47879" lon="6.27206">
        <ele>835.18</ele>
        <time>2018-08-26T10:53:40Z</time>
      </trkpt>
      <trkpt lat="44.47912" lon="6.27195">
        <ele>832.18</ele>
        <time>2018-08-26T10:53:42Z</time>
      </trkpt>
      <trkpt lat="44.47944" lon="6.27186">
        <ele>829.88</ele>
        <time>2018-08-26T10:53:44Z</time>
      </trkpt>
      <trkpt lat="44.47974" lon="6.27177">
        <ele>826.94</ele>
        <time>2018-08-26T10:53:46Z</time>
      </trkpt>
      <trkpt lat="44.48003" lon="6.27169">
        <ele>823.95</ele>
        <time>2018-08-26T10:53:48Z</time>
      </trkpt>
      <trkpt lat="44.48031" lon="6.27153">
        <ele>821.86</ele>
        <time>2018-08-26T10:53:50Z</time>
      </trkpt>
      <trkpt lat="44.48052" lon="6.27126">
        <ele>819.85</ele>
        <time>2018-08-26T10:53:52Z</time>
      </trkpt>
      <trkpt lat="44.48062" lon="6.27087">
        <ele>817.85</ele>
        <time>2018-08-26T10:53:54Z</time>
      </trkpt>
      <trkpt lat="44.4806" lon="6.27041">
        <ele>816.76</ele>
        <time>2018-08-26T10:53:56Z</time>
      </trkpt>
      <trkpt lat="44.48065" lon="6.26997">
        <ele>814.14</ele>
        <time>2018-08-26T10:53:58Z</time>
      </trkpt>
      <trkpt lat="44.48081" lon="6.26961">
        <ele>812.58</ele>
        <time>2018-08-26T10:54:00Z</time>
      </trkpt>
      <trkpt lat="44.48111" lon="6.26946">
        <ele>811.73</ele>
        <time>2018-08-26T10:54:02Z</time>
      </trkpt>
      <trkpt lat="44.48141" lon="6.26947">
        <ele>809.84</ele>
        <time>2018-08-26T10:54:04Z</time>
      </trkpt>
      <trkpt lat="44.48172" lon="6.26954">
        <ele>808.76</ele>
        <time>2018-08-26T10:54:06Z</time>
      </trkpt>
      <trkpt lat="44.48203" lon="6.26961">
        <ele>807.75</ele>
        <time>2018-08-26T10:54:08Z</time>
      </trkpt>
      <trkpt lat="44.48236" lon="6.26968">
        <ele>807.45</ele>
        <time>2018-08-26T10:54:10Z</time>
      </trkpt>
      <trkpt lat="44.48271" lon="6.26976">
        <ele>807.42</ele>
        <time>2018-08-26T10:54:12Z</time>
      </trkpt>
      <trkpt lat="44.48305" lon="6.26992">
        <ele>806.51</ele>
        <time>2018-08-26T10:54:14Z</time>
      </trkpt>
      <trkpt lat="44.48333" lon="6.27022">
        <ele>806.22</ele>
        <time>2018-08-26T10:54:16Z</time>
      </trkpt>
      <trkpt lat="44.48345" lon="6.27042">
        <ele>807.06</ele>
        <time>2018-08-26T10:54:17Z</time>
      </trkpt>
      <trkpt lat="44.48355" lon="6.27064">
        <ele>807.31</ele>
        <time>2018-08-26T10:54:18Z</time>
      </trkpt>
      <trkpt lat="44.48362" lon="6.27089">
        <ele>808.79</ele>
        <time>2018-08-26T10:54:19Z</time>
      </trkpt>
      <trkpt lat="44.48366" lon="6.27116">
        <ele>809.23</ele>
        <time>2018-08-26T10:54:20Z</time>
      </trkpt>
      <trkpt lat="44.48371" lon="6.27142">
        <ele>810.06</ele>
        <time>2018-08-26T10:54:21Z</time>
      </trkpt>
      <trkpt lat="44.48376" lon="6.27169">
        <ele>812.41</ele>
        <time>2018-08-26T10:54:22Z</time>
      </trkpt>
      <trkpt lat="44.48382" lon="6.27196">
        <ele>813.82</ele>
        <time>2018-08-26T10:54:23Z</time>
      </trkpt>
      <trkpt lat="44.48387" lon="6.27223">
        <ele>815.64</ele>
        <time>2018-08-26T10:54:24Z</time>
      </trkpt>
      <trkpt lat="44.48392" lon="6.2725">
        <ele>817.59</ele>
        <time>2018-08-26T10:54:25Z</time>
      </trkpt>
      <trkpt lat="44.48396" lon="6.27276">
        <ele>818.87</ele>
        <time>2018-08-26T10:54:26Z</time>
      </trkpt>
      <trkpt lat="44.48394" lon="6.27324">
        <ele>820.77</ele>
        <time>2018-08-26T10:54:28Z</time>
      </trkpt>
      <trkpt lat="44.48384" lon="6.27368">
        <ele>822.27</ele>
        <time>2018-08-26T10:54:30Z</time>
      </trkpt>
      <trkpt lat="44.48366" lon="6.274">
        <ele>824.72</ele>
        <time>2018-08-26T10:54:32Z</time>
      </trkpt>
      <trkpt lat="44.48354" lon="6.27427">
        <ele>825.36</ele>
        <time>2018-08-26T10:54:34Z</time>
      </trkpt>
      <trkpt lat="44.48386" lon="6.27407">
        <ele>827.79</ele>
        <time>2018-08-26T10:54:38Z</time>
      </trkpt>
      <trkpt lat="44.48411" lon="6.27371">
        <ele>829.97</ele>
        <time>2018-08-26T10:54:40Z</time>
      </trkpt>
      <trkpt lat="44.48422" lon="6.27347">
        <ele>830.99</ele>
        <time>2018-08-26T10:54:41Z</time>
      </trkpt>
      <trkpt lat="44.48432" lon="6.27319">
        <ele>831.99</ele>
        <time>2018-08-26T10:54:42Z</time>
      </trkpt>
      <trkpt lat="44.48441" lon="6.27289">
        <ele>833.69</ele>
        <time>2018-08-26T10:54:43Z</time>
      </trkpt>
      <trkpt lat="44.48451" lon="6.27257">
        <ele>836.3</ele>
        <time>2018-08-26T10:54:44Z</time>
      </trkpt>
      <trkpt lat="44.4846" lon="6.27225">
        <ele>839.19</ele>
        <time>2018-08-26T10:54:45Z</time>
      </trkpt>
      <trkpt lat="44.48469" lon="6.27194">
        <ele>841.45</ele>
        <time>2018-08-26T10:54:46Z</time>
      </trkpt>
      <trkpt lat="44.48478" lon="6.27164">
        <ele>844.23</ele>
        <time>2018-08-26T10:54:47Z</time>
      </trkpt>
      <trkpt lat="44.48487" lon="6.27135">
        <ele>846.46</ele>
        <time>2018-08-26T10:54:48Z</time>
      </trkpt>
      <trkpt lat="44.48495" lon="6.27108">
        <ele>848.53</ele>
        <time>2018-08-26T10:54:49Z</time>
      </trkpt>
      <trkpt lat="44.48504" lon="6.27083">
        <ele>851.25</ele>
        <time>2018-08-26T10:54:50Z</time>
      </trkpt>
      <trkpt lat="44.48514" lon="6.27061">
        <ele>852.77</ele>
        <time>2018-08-26T10:54:51Z</time>
      </trkpt>
      <trkpt lat="44.48526" lon="6.2704">
        <ele>853.93</ele>
        <time>2018-08-26T10:54:52Z</time>
      </trkpt>
      <trkpt lat="44.48542" lon="6.27024">
        <ele>854.97</ele>
        <time>2018-08-26T10:54:53Z</time>
      </trkpt>
      <trkpt lat="44.48558" lon="6.2701">
        <ele>858.09</ele>
        <time>2018-08-26T10:54:54Z</time>
      </trkpt>
      <trkpt lat="44.48576" lon="6.27002">
        <ele>860.42</ele>
        <time>2018-08-26T10:54:55Z</time>
      </trkpt>
      <trkpt lat="44.48596" lon="6.27">
        <ele>861.82</ele>
        <time>2018-08-26T10:54:56Z</time>
      </trkpt>
      <trkpt lat="44.48616" lon="6.27003">
        <ele>864.34</ele>
        <time>2018-08-26T10:54:57Z</time>
      </trkpt>
      <trkpt lat="44.48638" lon="6.27009">
        <ele>865.8</ele>
        <time>2018-08-26T10:54:58Z</time>
      </trkpt>
      <trkpt lat="44.48659" lon="6.27015">
        <ele>866.93</ele>
        <time>2018-08-26T10:54:59Z</time>
      </trkpt>
      <trkpt lat="44.48678" lon="6.27021">
        <ele>869.37</ele>
        <time>2018-08-26T10:55:00Z</time>
      </trkpt>
      <trkpt lat="44.48709" lon="6.2703">
        <ele>872.85</ele>
        <time>2018-08-26T10:55:02Z</time>
      </trkpt>
      <trkpt lat="44.48731" lon="6.27046">
        <ele>874.28</ele>
        <time>2018-08-26T10:55:04Z</time>
      </trkpt>
      <trkpt lat="44.48745" lon="6.27068">
        <ele>875.32</ele>
        <time>2018-08-26T10:55:06Z</time>
      </trkpt>
      <trkpt lat="44.48708" lon="6.27093">
        <ele>876.6</ele>
        <time>2018-08-26T10:55:08Z</time>
      </trkpt>
      <trkpt lat="44.48675" lon="6.27108">
        <ele>880.78</ele>
        <time>2018-08-26T10:55:10Z</time>
      </trkpt>
      <trkpt lat="44.48659" lon="6.2712">
        <ele>881.23</ele>
        <time>2018-08-26T10:55:11Z</time>
      </trkpt>
      <trkpt lat="44.48633" lon="6.27151">
        <ele>883.92</ele>
        <time>2018-08-26T10:55:13Z</time>
      </trkpt>
      <trkpt lat="44.48613" lon="6.27193">
        <ele>887.81</ele>
        <time>2018-08-26T10:55:15Z</time>
      </trkpt>
      <trkpt lat="44.48608" lon="6.27219">
        <ele>888.94</ele>
        <time>2018-08-26T10:55:16Z</time>
      </trkpt>
      <trkpt lat="44.48603" lon="6.27245">
        <ele>890.68</ele>
        <time>2018-08-26T10:55:17Z</time>
      </trkpt>
      <trkpt lat="44.48603" lon="6.27273">
        <ele>892.6</ele>
        <time>2018-08-26T10:55:18Z</time>
      </trkpt>
      <trkpt lat="44.48607" lon="6.27299">
        <ele>894.57</ele>
        <time>2018-08-26T10:55:19Z</time>
      </trkpt>
      <trkpt lat="44.48612" lon="6.27324">
        <ele>896.57</ele>
        <time>2018-08-26T10:55:20Z</time>
      </trkpt>
      <trkpt lat="44.48619" lon="6.27348">
        <ele>898.56</ele>
        <time>2018-08-26T10:55:21Z</time>
      </trkpt>
      <trkpt lat="44.48631" lon="6.27392">
        <ele>900.95</ele>
        <time>2018-08-26T10:55:23Z</time>
      </trkpt>
      <trkpt lat="44.48643" lon="6.27431">
        <ele>903.2</ele>
        <time>2018-08-26T10:55:25Z</time>
      </trkpt>
      <trkpt lat="44.48655" lon="6.2747">
        <ele>905.71</ele>
        <time>2018-08-26T10:55:27Z</time>
      </trkpt>
      <trkpt lat="44.48668" lon="6.27508">
        <ele>907.06</ele>
        <time>2018-08-26T10:55:29Z</time>
      </trkpt>
      <trkpt lat="44.4883" lon="6.28083">
        <ele>912.29</ele>
        <time>2018-08-26T10:55:55Z</time>
      </trkpt>
      <trkpt lat="44.48849" lon="6.28082">
        <ele>921.48</ele>
        <time>2018-08-26T10:55:56Z</time>
      </trkpt>
      <trkpt lat="44.48871" lon="6.2807">
        <ele>928.44</ele>
        <time>2018-08-26T10:55:57Z</time>
      </trkpt>
      <trkpt lat="44.48889" lon="6.28065">
        <ele>932.63</ele>
        <time>2018-08-26T10:55:58Z</time>
      </trkpt>
      <trkpt lat="44.48908" lon="6.2806">
        <ele>935.28</ele>
        <time>2018-08-26T10:55:59Z</time>
      </trkpt>
      <trkpt lat="44.48926" lon="6.28056">
        <ele>938.88</ele>
        <time>2018-08-26T10:56:00Z</time>
      </trkpt>
      <trkpt lat="44.48945" lon="6.28052">
        <ele>942.76</ele>
        <time>2018-08-26T10:56:01Z</time>
      </trkpt>
      <trkpt lat="44.48964" lon="6.28052">
        <ele>946.02</ele>
        <time>2018-08-26T10:56:02Z</time>
      </trkpt>
      <trkpt lat="44.48998" lon="6.28064">
        <ele>949.61</ele>
        <time>2018-08-26T10:56:04Z</time>
      </trkpt>
      <trkpt lat="44.49035" lon="6.2807">
        <ele>951.96</ele>
        <time>2018-08-26T10:56:06Z</time>
      </trkpt>
      <trkpt lat="44.49054" lon="6.28075">
        <ele>954.38</ele>
        <time>2018-08-26T10:56:07Z</time>
      </trkpt>
      <trkpt lat="44.49073" lon="6.28084">
        <ele>957.21</ele>
        <time>2018-08-26T10:56:08Z</time>
      </trkpt>
      <trkpt lat="44.49091" lon="6.28095">
        <ele>958.76</ele>
        <time>2018-08-26T10:56:09Z</time>
      </trkpt>
      <trkpt lat="44.4911" lon="6.28105">
        <ele>960.62</ele>
        <time>2018-08-26T10:56:10Z</time>
      </trkpt>
      <trkpt lat="44.49127" lon="6.28116">
        <ele>962.58</ele>
        <time>2018-08-26T10:56:11Z</time>
      </trkpt>
      <trkpt lat="44.49145" lon="6.28125">
        <ele>964.57</ele>
        <time>2018-08-26T10:56:12Z</time>
      </trkpt>
      <trkpt lat="44.49176" lon="6.28134">
        <ele>967.16</ele>
        <time>2018-08-26T10:56:14Z</time>
      </trkpt>
      <trkpt lat="44.49207" lon="6.28128">
        <ele>969.01</ele>
        <time>2018-08-26T10:56:16Z</time>
      </trkpt>
      <trkpt lat="44.49225" lon="6.28117">
        <ele>970.7</ele>
        <time>2018-08-26T10:56:17Z</time>
      </trkpt>
      <trkpt lat="44.49242" lon="6.28105">
        <ele>972.6</ele>
        <time>2018-08-26T10:56:18Z</time>
      </trkpt>
      <trkpt lat="44.49259" lon="6.28091">
        <ele>974.58</ele>
        <time>2018-08-26T10:56:19Z</time>
      </trkpt>
      <trkpt lat="44.49276" lon="6.28078">
        <ele>976.57</ele>
        <time>2018-08-26T10:56:20Z</time>
      </trkpt>
      <trkpt lat="44.49293" lon="6.28067">
        <ele>977.86</ele>
        <time>2018-08-26T10:56:21Z</time>
      </trkpt>
      <trkpt lat="44.49312" lon="6.28061">
        <ele>980.35</ele>
        <time>2018-08-26T10:56:22Z</time>
      </trkpt>
      <trkpt lat="44.4933" lon="6.28058">
        <ele>981.8</ele>
        <time>2018-08-26T10:56:23Z</time>
      </trkpt>
      <trkpt lat="44.49365" lon="6.28065">
        <ele>985.8</ele>
        <time>2018-08-26T10:56:25Z</time>
      </trkpt>
      <trkpt lat="44.49382" lon="6.28074">
        <ele>987.63</ele>
        <time>2018-08-26T10:56:26Z</time>
      </trkpt>
      <trkpt lat="44.494" lon="6.28087">
        <ele>989.58</ele>
        <time>2018-08-26T10:56:27Z</time>
      </trkpt>
      <trkpt lat="44.49415" lon="6.28103">
        <ele>990.87</ele>
        <time>2018-08-26T10:56:28Z</time>
      </trkpt>
      <trkpt lat="44.49429" lon="6.28121">
        <ele>992.66</ele>
        <time>2018-08-26T10:56:29Z</time>
      </trkpt>
      <trkpt lat="44.49443" lon="6.28139">
        <ele>993.89</ele>
        <time>2018-08-26T10:56:30Z</time>
      </trkpt>
      <trkpt lat="44.49456" lon="6.28158">
        <ele>995.66</ele>
        <time>2018-08-26T10:56:31Z</time>
      </trkpt>
      <trkpt lat="44.49469" lon="6.28175">
        <ele>996.89</ele>
        <time>2018-08-26T10:56:32Z</time>
      </trkpt>
      <trkpt lat="44.49483" lon="6.28193">
        <ele>997.96</ele>
        <time>2018-08-26T10:56:33Z</time>
      </trkpt>
      <trkpt lat="44.49502" lon="6.28233">
        <ele>1002.51</ele>
        <time>2018-08-26T10:56:35Z</time>
      </trkpt>
      <trkpt lat="44.49509" lon="6.28281">
        <ele>1005.65</ele>
        <time>2018-08-26T10:56:37Z</time>
      </trkpt>
      <trkpt lat="44.49511" lon="6.28307">
        <ele>1006.89</ele>
        <time>2018-08-26T10:56:38Z</time>
      </trkpt>
      <trkpt lat="44.49512" lon="6.28332">
        <ele>1008.66</ele>
        <time>2018-08-26T10:56:39Z</time>
      </trkpt>
      <trkpt lat="44.49515" lon="6.28382">
        <ele>1012.57</ele>
        <time>2018-08-26T10:56:41Z</time>
      </trkpt>
      <trkpt lat="44.49519" lon="6.28424">
        <ele>1015.65</ele>
        <time>2018-08-26T10:56:43Z</time>
      </trkpt>
      <trkpt lat="44.49531" lon="6.2846">
        <ele>1018.17</ele>
        <time>2018-08-26T10:56:45Z</time>
      </trkpt>
      <trkpt lat="44.4956" lon="6.28483">
        <ele>1021.62</ele>
        <time>2018-08-26T10:56:47Z</time>
      </trkpt>
      <trkpt lat="44.4959" lon="6.28489">
        <ele>1024.66</ele>
        <time>2018-08-26T10:56:49Z</time>
      </trkpt>
      <trkpt lat="44.49622" lon="6.2848">
        <ele>1027.87</ele>
        <time>2018-08-26T10:56:51Z</time>
      </trkpt>
      <trkpt lat="44.49639" lon="6.28462">
        <ele>1028.96</ele>
        <time>2018-08-26T10:56:52Z</time>
      </trkpt>
      <trkpt lat="44.49655" lon="6.28448">
        <ele>1030.68</ele>
        <time>2018-08-26T10:56:53Z</time>
      </trkpt>
      <trkpt lat="44.49686" lon="6.28426">
        <ele>1033.87</ele>
        <time>2018-08-26T10:56:55Z</time>
      </trkpt>
      <trkpt lat="44.49719" lon="6.2842">
        <ele>1037.59</ele>
        <time>2018-08-26T10:56:57Z</time>
      </trkpt>
      <trkpt lat="44.49738" lon="6.28418">
        <ele>1039.57</ele>
        <time>2018-08-26T10:56:58Z</time>
      </trkpt>
      <trkpt lat="44.49756" lon="6.28416">
        <ele>1041.57</ele>
        <time>2018-08-26T10:56:59Z</time>
      </trkpt>
      <trkpt lat="44.49776" lon="6.28415">
        <ele>1043.56</ele>
        <time>2018-08-26T10:57:00Z</time>
      </trkpt>
      <trkpt lat="44.49795" lon="6.28413">
        <ele>1045.56</ele>
        <time>2018-08-26T10:57:01Z</time>
      </trkpt>
      <trkpt lat="44.49815" lon="6.28414">
        <ele>1046.86</ele>
        <time>2018-08-26T10:57:02Z</time>
      </trkpt>
      <trkpt lat="44.49834" lon="6.28415">
        <ele>1048.65</ele>
        <time>2018-08-26T10:57:03Z</time>
      </trkpt>
      <trkpt lat="44.49853" lon="6.28418">
        <ele>1050.59</ele>
        <time>2018-08-26T10:57:04Z</time>
      </trkpt>
      <trkpt lat="44.49871" lon="6.2842">
        <ele>1052.57</ele>
        <time>2018-08-26T10:57:05Z</time>
      </trkpt>
      <trkpt lat="44.4989" lon="6.28422">
        <ele>1053.87</ele>
        <time>2018-08-26T10:57:06Z</time>
      </trkpt>
      <trkpt lat="44.49909" lon="6.28424">
        <ele>1055.65</ele>
        <time>2018-08-26T10:57:07Z</time>
      </trkpt>
      <trkpt lat="44.49928" lon="6.28426">
        <ele>1057.59</ele>
        <time>2018-08-26T10:57:08Z</time>
      </trkpt>
      <trkpt lat="44.49946" lon="6.2843">
        <ele>1059.57</ele>
        <time>2018-08-26T10:57:09Z</time>
      </trkpt>
      <trkpt lat="44.49981" lon="6.28437">
        <ele>1062.86</ele>
        <time>2018-08-26T10:57:11Z</time>
      </trkpt>
      <trkpt lat="44.49999" lon="6.28441">
        <ele>1064.65</ele>
        <time>2018-08-26T10:57:12Z</time>
      </trkpt>
      <trkpt lat="44.50017" lon="6.28446">
        <ele>1065.89</ele>
        <time>2018-08-26T10:57:13Z</time>
      </trkpt>
      <trkpt lat="44.50036" lon="6.2845">
        <ele>1067.66</ele>
        <time>2018-08-26T10:57:14Z</time>
      </trkpt>
      <trkpt lat="44.50056" lon="6.28453">
        <ele>1069.59</ele>
        <time>2018-08-26T10:57:15Z</time>
      </trkpt>
      <trkpt lat="44.50075" lon="6.28457">
        <ele>1071.57</ele>
        <time>2018-08-26T10:57:16Z</time>
      </trkpt>
      <trkpt lat="44.50095" lon="6.28461">
        <ele>1072.87</ele>
        <time>2018-08-26T10:57:17Z</time>
      </trkpt>
      <trkpt lat="44.50115" lon="6.28465">
        <ele>1074.65</ele>
        <time>2018-08-26T10:57:18Z</time>
      </trkpt>
      <trkpt lat="44.50134" lon="6.2847">
        <ele>1076.59</ele>
        <time>2018-08-26T10:57:19Z</time>
      </trkpt>
      <trkpt lat="44.50154" lon="6.28474">
        <ele>1077.87</ele>
        <time>2018-08-26T10:57:20Z</time>
      </trkpt>
      <trkpt lat="44.50174" lon="6.28478">
        <ele>1079.66</ele>
        <time>2018-08-26T10:57:21Z</time>
      </trkpt>
      <trkpt lat="44.50194" lon="6.28481">
        <ele>1080.89</ele>
        <time>2018-08-26T10:57:22Z</time>
      </trkpt>
      <trkpt lat="44.50215" lon="6.28483">
        <ele>1083.36</ele>
        <time>2018-08-26T10:57:23Z</time>
      </trkpt>
      <trkpt lat="44.50235" lon="6.28482">
        <ele>1084.8</ele>
        <time>2018-08-26T10:57:24Z</time>
      </trkpt>
      <trkpt lat="44.50255" lon="6.2848">
        <ele>1086.64</ele>
        <time>2018-08-26T10:57:25Z</time>
      </trkpt>
      <trkpt lat="44.50275" lon="6.28476">
        <ele>1087.89</ele>
        <time>2018-08-26T10:57:26Z</time>
      </trkpt>
      <trkpt lat="44.50296" lon="6.28471">
        <ele>1089.66</ele>
        <time>2018-08-26T10:57:27Z</time>
      </trkpt>
      <trkpt lat="44.50317" lon="6.28463">
        <ele>1090.89</ele>
        <time>2018-08-26T10:57:28Z</time>
      </trkpt>
      <trkpt lat="44.50338" lon="6.28457">
        <ele>1092.66</ele>
        <time>2018-08-26T10:57:29Z</time>
      </trkpt>
      <trkpt lat="44.50359" lon="6.28451">
        <ele>1094.59</ele>
        <time>2018-08-26T10:57:30Z</time>
      </trkpt>
      <trkpt lat="44.5038" lon="6.28444">
        <ele>1096.57</ele>
        <time>2018-08-26T10:57:31Z</time>
      </trkpt>
      <trkpt lat="44.50401" lon="6.28437">
        <ele>1097.87</ele>
        <time>2018-08-26T10:57:32Z</time>
      </trkpt>
      <trkpt lat="44.50423" lon="6.2843">
        <ele>1099.65</ele>
        <time>2018-08-26T10:57:33Z</time>
      </trkpt>
      <trkpt lat="44.50444" lon="6.28424">
        <ele>1101.59</ele>
        <time>2018-08-26T10:57:34Z</time>
      </trkpt>
      <trkpt lat="44.50464" lon="6.28418">
        <ele>1103.57</ele>
        <time>2018-08-26T10:57:35Z</time>
      </trkpt>
      <trkpt lat="44.50483" lon="6.28412">
        <ele>1104.87</ele>
        <time>2018-08-26T10:57:36Z</time>
      </trkpt>
      <trkpt lat="44.50501" lon="6.28404">
        <ele>1105.95</ele>
        <time>2018-08-26T10:57:37Z</time>
      </trkpt>
      <trkpt lat="44.50519" lon="6.28395">
        <ele>1106.98</ele>
        <time>2018-08-26T10:57:38Z</time>
      </trkpt>
      <trkpt lat="44.50552" lon="6.28379">
        <ele>1108.29</ele>
        <time>2018-08-26T10:57:40Z</time>
      </trkpt>
      <trkpt lat="44.50585" lon="6.28369">
        <ele>1109.32</ele>
        <time>2018-08-26T10:57:42Z</time>
      </trkpt>
      <trkpt lat="44.50618" lon="6.28368">
        <ele>1109.41</ele>
        <time>2018-08-26T10:57:44Z</time>
      </trkpt>
      <trkpt lat="44.50651" lon="6.28375">
        <ele>1109.42</ele>
        <time>2018-08-26T10:57:46Z</time>
      </trkpt>
      <trkpt lat="44.50679" lon="6.28389">
        <ele>1109.42</ele>
        <time>2018-08-26T10:57:48Z</time>
      </trkpt>
      <trkpt lat="44.50704" lon="6.28409">
        <ele>1108.51</ele>
        <time>2018-08-26T10:57:50Z</time>
      </trkpt>
      <trkpt lat="44.50728" lon="6.28433">
        <ele>1107.73</ele>
        <time>2018-08-26T10:57:52Z</time>
      </trkpt>
      <trkpt lat="44.50752" lon="6.28465">
        <ele>1106.05</ele>
        <time>2018-08-26T10:57:54Z</time>
      </trkpt>
      <trkpt lat="44.50771" lon="6.28502">
        <ele>1103.87</ele>
        <time>2018-08-26T10:57:56Z</time>
      </trkpt>
      <trkpt lat="44.50788" lon="6.28545">
        <ele>1103.46</ele>
        <time>2018-08-26T10:57:58Z</time>
      </trkpt>
      <trkpt lat="44.50804" lon="6.28587">
        <ele>1102.51</ele>
        <time>2018-08-26T10:58:00Z</time>
      </trkpt>
      <trkpt lat="44.50812" lon="6.28613">
        <ele>1101.75</ele>
        <time>2018-08-26T10:58:01Z</time>
      </trkpt>
      <trkpt lat="44.50823" lon="6.2866">
        <ele>1099.14</ele>
        <time>2018-08-26T10:58:03Z</time>
      </trkpt>
      <trkpt lat="44.50833" lon="6.2871">
        <ele>1097.79</ele>
        <time>2018-08-26T10:58:05Z</time>
      </trkpt>
      <trkpt lat="44.50842" lon="6.2876">
        <ele>1096.75</ele>
        <time>2018-08-26T10:58:07Z</time>
      </trkpt>
      <trkpt lat="44.50846" lon="6.28786">
        <ele>1096.52</ele>
        <time>2018-08-26T10:58:08Z</time>
      </trkpt>
      <trkpt lat="44.5085" lon="6.28812">
        <ele>1097.15</ele>
        <time>2018-08-26T10:58:09Z</time>
      </trkpt>
      <trkpt lat="44.50854" lon="6.28838">
        <ele>1096.64</ele>
        <time>2018-08-26T10:58:10Z</time>
      </trkpt>
      <trkpt lat="44.50858" lon="6.28865">
        <ele>1095.79</ele>
        <time>2018-08-26T10:58:11Z</time>
      </trkpt>
      <trkpt lat="44.50863" lon="6.28891">
        <ele>1094.83</ele>
        <time>2018-08-26T10:58:12Z</time>
      </trkpt>
      <trkpt lat="44.50864" lon="6.28938">
        <ele>1092.64</ele>
        <time>2018-08-26T10:58:14Z</time>
      </trkpt>
      <trkpt lat="44.50856" lon="6.28979">
        <ele>1088.03</ele>
        <time>2018-08-26T10:58:16Z</time>
      </trkpt>
      <trkpt lat="44.50842" lon="6.29015">
        <ele>1086.57</ele>
        <time>2018-08-26T10:58:18Z</time>
      </trkpt>
      <trkpt lat="44.50822" lon="6.29048">
        <ele>1086.43</ele>
        <time>2018-08-26T10:58:20Z</time>
      </trkpt>
      <trkpt lat="44.50808" lon="6.29065">
        <ele>1086.42</ele>
        <time>2018-08-26T10:58:21Z</time>
      </trkpt>
      <trkpt lat="44.50787" lon="6.29079">
        <ele>1085.72</ele>
        <time>2018-08-26T10:58:22Z</time>
      </trkpt>
      <trkpt lat="44.50771" lon="6.29096">
        <ele>1084.81</ele>
        <time>2018-08-26T10:58:23Z</time>
      </trkpt>
      <trkpt lat="44.50756" lon="6.29114">
        <ele>1083.84</ele>
        <time>2018-08-26T10:58:24Z</time>
      </trkpt>
      <trkpt lat="44.50741" lon="6.29132">
        <ele>1083.55</ele>
        <time>2018-08-26T10:58:25Z</time>
      </trkpt>
      <trkpt lat="44.50726" lon="6.29151">
        <ele>1082.06</ele>
        <time>2018-08-26T10:58:26Z</time>
      </trkpt>
      <trkpt lat="44.50709" lon="6.29169">
        <ele>1081.61</ele>
        <time>2018-08-26T10:58:27Z</time>
      </trkpt>
      <trkpt lat="44.50692" lon="6.29187">
        <ele>1077.98</ele>
        <time>2018-08-26T10:58:28Z</time>
      </trkpt>
      <trkpt lat="44.50677" lon="6.29205">
        <ele>1075.49</ele>
        <time>2018-08-26T10:58:29Z</time>
      </trkpt>
      <trkpt lat="44.50661" lon="6.29223">
        <ele>1073.34</ele>
        <time>2018-08-26T10:58:30Z</time>
      </trkpt>
      <trkpt lat="44.50646" lon="6.2924">
        <ele>1072</ele>
        <time>2018-08-26T10:58:31Z</time>
      </trkpt>
      <trkpt lat="44.50631" lon="6.29259">
        <ele>1071.59</ele>
        <time>2018-08-26T10:58:32Z</time>
      </trkpt>
      <trkpt lat="44.50617" lon="6.29278">
        <ele>1070.77</ele>
        <time>2018-08-26T10:58:33Z</time>
      </trkpt>
      <trkpt lat="44.50605" lon="6.29298">
        <ele>1068.43</ele>
        <time>2018-08-26T10:58:34Z</time>
      </trkpt>
      <trkpt lat="44.5058" lon="6.29324">
        <ele>1066.81</ele>
        <time>2018-08-26T10:58:36Z</time>
      </trkpt>
      <trkpt lat="44.5055" lon="6.29335">
        <ele>1063.03</ele>
        <time>2018-08-26T10:58:38Z</time>
      </trkpt>
      <trkpt lat="44.50532" lon="6.29339">
        <ele>1060.5</ele>
        <time>2018-08-26T10:58:39Z</time>
      </trkpt>
      <trkpt lat="44.505" lon="6.29349">
        <ele>1058.82</ele>
        <time>2018-08-26T10:58:41Z</time>
      </trkpt>
      <trkpt lat="44.50476" lon="6.29369">
        <ele>1057.76</ele>
        <time>2018-08-26T10:58:43Z</time>
      </trkpt>
      <trkpt lat="44.50459" lon="6.29398">
        <ele>1056.75</ele>
        <time>2018-08-26T10:58:45Z</time>
      </trkpt>
      <trkpt lat="44.50452" lon="6.29425">
        <ele>1056.45</ele>
        <time>2018-08-26T10:58:47Z</time>
      </trkpt>
      <trkpt lat="44.50475" lon="6.29447">
        <ele>1054.33</ele>
        <time>2018-08-26T10:58:48Z</time>
      </trkpt>
      <trkpt lat="44.50495" lon="6.29472">
        <ele>1053.5</ele>
        <time>2018-08-26T10:58:50Z</time>
      </trkpt>
      <trkpt lat="44.50522" lon="6.29484">
        <ele>1053.22</ele>
        <time>2018-08-26T10:58:52Z</time>
      </trkpt>
      <trkpt lat="44.50554" lon="6.29465">
        <ele>1051.58</ele>
        <time>2018-08-26T10:58:54Z</time>
      </trkpt>
      <trkpt lat="44.50572" lon="6.29439">
        <ele>1049.37</ele>
        <time>2018-08-26T10:58:55Z</time>
      </trkpt>
      <trkpt lat="44.50603" lon="6.29408">
        <ele>1045.5</ele>
        <time>2018-08-26T10:58:57Z</time>
      </trkpt>
      <trkpt lat="44.50619" lon="6.29393">
        <ele>1044.04</ele>
        <time>2018-08-26T10:58:58Z</time>
      </trkpt>
      <trkpt lat="44.50636" lon="6.29377">
        <ele>1042.91</ele>
        <time>2018-08-26T10:58:59Z</time>
      </trkpt>
      <trkpt lat="44.50653" lon="6.29361">
        <ele>1039.77</ele>
        <time>2018-08-26T10:59:00Z</time>
      </trkpt>
      <trkpt lat="44.50671" lon="6.29344">
        <ele>1038.12</ele>
        <time>2018-08-26T10:59:01Z</time>
      </trkpt>
      <trkpt lat="44.50689" lon="6.29326">
        <ele>1036.93</ele>
        <time>2018-08-26T10:59:02Z</time>
      </trkpt>
      <trkpt lat="44.50706" lon="6.29311">
        <ele>1035.87</ele>
        <time>2018-08-26T10:59:03Z</time>
      </trkpt>
      <trkpt lat="44.50722" lon="6.29295">
        <ele>1034.86</ele>
        <time>2018-08-26T10:59:04Z</time>
      </trkpt>
      <trkpt lat="44.50739" lon="6.29281">
        <ele>1032.45</ele>
        <time>2018-08-26T10:59:05Z</time>
      </trkpt>
      <trkpt lat="44.50757" lon="6.29268">
        <ele>1031.03</ele>
        <time>2018-08-26T10:59:06Z</time>
      </trkpt>
      <trkpt lat="44.50775" lon="6.29258">
        <ele>1030.6</ele>
        <time>2018-08-26T10:59:07Z</time>
      </trkpt>
      <trkpt lat="44.50795" lon="6.29247">
        <ele>1029.78</ele>
        <time>2018-08-26T10:59:08Z</time>
      </trkpt>
      <trkpt lat="44.50813" lon="6.29237">
        <ele>1029.53</ele>
        <time>2018-08-26T10:59:09Z</time>
      </trkpt>
      <trkpt lat="44.50832" lon="6.29227">
        <ele>1028.75</ele>
        <time>2018-08-26T10:59:10Z</time>
      </trkpt>
      <trkpt lat="44.50852" lon="6.29216">
        <ele>1027.82</ele>
        <time>2018-08-26T10:59:11Z</time>
      </trkpt>
      <trkpt lat="44.50871" lon="6.29206">
        <ele>1026.84</ele>
        <time>2018-08-26T10:59:12Z</time>
      </trkpt>
      <trkpt lat="44.5089" lon="6.29196">
        <ele>1025.85</ele>
        <time>2018-08-26T10:59:13Z</time>
      </trkpt>
      <trkpt lat="44.5091" lon="6.29187">
        <ele>1022.05</ele>
        <time>2018-08-26T10:59:14Z</time>
      </trkpt>
      <trkpt lat="44.50928" lon="6.29176">
        <ele>1018.81</ele>
        <time>2018-08-26T10:59:15Z</time>
      </trkpt>
      <trkpt lat="44.50947" lon="6.29166">
        <ele>1013.64</ele>
        <time>2018-08-26T10:59:16Z</time>
      </trkpt>
      <trkpt lat="44.50966" lon="6.29157">
        <ele>1012.09</ele>
        <time>2018-08-26T10:59:17Z</time>
      </trkpt>
      <trkpt lat="44.50984" lon="6.29147">
        <ele>1010.22</ele>
        <time>2018-08-26T10:59:18Z</time>
      </trkpt>
      <trkpt lat="44.51002" lon="6.29137">
        <ele>1008.96</ele>
        <time>2018-08-26T10:59:19Z</time>
      </trkpt>
      <trkpt lat="44.5102" lon="6.29127">
        <ele>1007.18</ele>
        <time>2018-08-26T10:59:20Z</time>
      </trkpt>
      <trkpt lat="44.51037" lon="6.29112">
        <ele>1005.25</ele>
        <time>2018-08-26T10:59:21Z</time>
      </trkpt>
      <trkpt lat="44.51053" lon="6.29095">
        <ele>1003.97</ele>
        <time>2018-08-26T10:59:22Z</time>
      </trkpt>
      <trkpt lat="44.51067" lon="6.29074">
        <ele>1001.49</ele>
        <time>2018-08-26T10:59:23Z</time>
      </trkpt>
      <trkpt lat="44.5108" lon="6.29052">
        <ele>999.34</ele>
        <time>2018-08-26T10:59:24Z</time>
      </trkpt>
      <trkpt lat="44.51088" lon="6.29028">
        <ele>997.3</ele>
        <time>2018-08-26T10:59:25Z</time>
      </trkpt>
      <trkpt lat="44.51097" lon="6.29004">
        <ele>995.98</ele>
        <time>2018-08-26T10:59:26Z</time>
      </trkpt>
      <trkpt lat="44.511" lon="6.28978">
        <ele>994.19</ele>
        <time>2018-08-26T10:59:27Z</time>
      </trkpt>
      <trkpt lat="44.51102" lon="6.28952">
        <ele>992.95</ele>
        <time>2018-08-26T10:59:28Z</time>
      </trkpt>
      <trkpt lat="44.51103" lon="6.28926">
        <ele>991.18</ele>
        <time>2018-08-26T10:59:29Z</time>
      </trkpt>
      <trkpt lat="44.51099" lon="6.28898">
        <ele>989.25</ele>
        <time>2018-08-26T10:59:30Z</time>
      </trkpt>
      <trkpt lat="44.51094" lon="6.28871">
        <ele>987.27</ele>
        <time>2018-08-26T10:59:31Z</time>
      </trkpt>
      <trkpt lat="44.51089" lon="6.28845">
        <ele>985.28</ele>
        <time>2018-08-26T10:59:32Z</time>
      </trkpt>
      <trkpt lat="44.51082" lon="6.28819">
        <ele>983.28</ele>
        <time>2018-08-26T10:59:33Z</time>
      </trkpt>
      <trkpt lat="44.51077" lon="6.28794">
        <ele>981.98</ele>
        <time>2018-08-26T10:59:34Z</time>
      </trkpt>
      <trkpt lat="44.51077" lon="6.2875">
        <ele>978.95</ele>
        <time>2018-08-26T10:59:36Z</time>
      </trkpt>
      <trkpt lat="44.51099" lon="6.28713">
        <ele>975.95</ele>
        <time>2018-08-26T10:59:38Z</time>
      </trkpt>
      <trkpt lat="44.51127" lon="6.28692">
        <ele>973.65</ele>
        <time>2018-08-26T10:59:40Z</time>
      </trkpt>
      <trkpt lat="44.51146" lon="6.28691">
        <ele>973.49</ele>
        <time>2018-08-26T10:59:41Z</time>
      </trkpt>
      <trkpt lat="44.51178" lon="6.28679">
        <ele>972.52</ele>
        <time>2018-08-26T10:59:43Z</time>
      </trkpt>
      <trkpt lat="44.51204" lon="6.28644">
        <ele>968.72</ele>
        <time>2018-08-26T10:59:45Z</time>
      </trkpt>
      <trkpt lat="44.51212" lon="6.28621">
        <ele>965.71</ele>
        <time>2018-08-26T10:59:46Z</time>
      </trkpt>
      <trkpt lat="44.51214" lon="6.28591">
        <ele>965.51</ele>
        <time>2018-08-26T10:59:47Z</time>
      </trkpt>
      <trkpt lat="44.51215" lon="6.28561">
        <ele>964.05</ele>
        <time>2018-08-26T10:59:48Z</time>
      </trkpt>
      <trkpt lat="44.5122" lon="6.28531">
        <ele>962.91</ele>
        <time>2018-08-26T10:59:49Z</time>
      </trkpt>
      <trkpt lat="44.51224" lon="6.28501">
        <ele>960.47</ele>
        <time>2018-08-26T10:59:50Z</time>
      </trkpt>
      <trkpt lat="44.5123" lon="6.28474">
        <ele>959.03</ele>
        <time>2018-08-26T10:59:51Z</time>
      </trkpt>
      <trkpt lat="44.51239" lon="6.28447">
        <ele>956.51</ele>
        <time>2018-08-26T10:59:52Z</time>
      </trkpt>
      <trkpt lat="44.51249" lon="6.28423">
        <ele>955.05</ele>
        <time>2018-08-26T10:59:53Z</time>
      </trkpt>
      <trkpt lat="44.51258" lon="6.284">
        <ele>953.21</ele>
        <time>2018-08-26T10:59:54Z</time>
      </trkpt>
      <trkpt lat="44.51269" lon="6.28352">
        <ele>949.97</ele>
        <time>2018-08-26T10:59:56Z</time>
      </trkpt>
      <trkpt lat="44.51273" lon="6.28327">
        <ele>948.19</ele>
        <time>2018-08-26T10:59:57Z</time>
      </trkpt>
      <trkpt lat="44.51273" lon="6.283">
        <ele>946.25</ele>
        <time>2018-08-26T10:59:58Z</time>
      </trkpt>
      <trkpt lat="44.51265" lon="6.28271">
        <ele>944.97</ele>
        <time>2018-08-26T10:59:59Z</time>
      </trkpt>
      <trkpt lat="44.51261" lon="6.28245">
        <ele>943.19</ele>
        <time>2018-08-26T11:00:00Z</time>
      </trkpt>
      <trkpt lat="44.51258" lon="6.2822">
        <ele>942.65</ele>
        <time>2018-08-26T11:00:01Z</time>
      </trkpt>
      <trkpt lat="44.51265" lon="6.28182">
        <ele>940.13</ele>
        <time>2018-08-26T11:00:03Z</time>
      </trkpt>
      <trkpt lat="44.5128" lon="6.28154">
        <ele>939.27</ele>
        <time>2018-08-26T11:00:05Z</time>
      </trkpt>
      <trkpt lat="44.51302" lon="6.28159">
        <ele>937.28</ele>
        <time>2018-08-26T11:00:06Z</time>
      </trkpt>
      <trkpt lat="44.51339" lon="6.28176">
        <ele>938.11</ele>
        <time>2018-08-26T11:00:08Z</time>
      </trkpt>
      <trkpt lat="44.51353" lon="6.28192">
        <ele>938.33</ele>
        <time>2018-08-26T11:00:09Z</time>
      </trkpt>
      <trkpt lat="44.51368" lon="6.2822">
        <ele>938.39</ele>
        <time>2018-08-26T11:00:10Z</time>
      </trkpt>
      <trkpt lat="44.51379" lon="6.28254">
        <ele>937.71</ele>
        <time>2018-08-26T11:00:11Z</time>
      </trkpt>
      <trkpt lat="44.51376" lon="6.28288">
        <ele>936.11</ele>
        <time>2018-08-26T11:00:12Z</time>
      </trkpt>
      <trkpt lat="44.51383" lon="6.28313">
        <ele>933.53</ele>
        <time>2018-08-26T11:00:13Z</time>
      </trkpt>
      <trkpt lat="44.51393" lon="6.28335">
        <ele>931.35</ele>
        <time>2018-08-26T11:00:14Z</time>
      </trkpt>
      <trkpt lat="44.51402" lon="6.28358">
        <ele>930</ele>
        <time>2018-08-26T11:00:15Z</time>
      </trkpt>
      <trkpt lat="44.51418" lon="6.28404">
        <ele>927.37</ele>
        <time>2018-08-26T11:00:17Z</time>
      </trkpt>
      <trkpt lat="44.51422" lon="6.28429">
        <ele>926.01</ele>
        <time>2018-08-26T11:00:18Z</time>
      </trkpt>
      <trkpt lat="44.51424" lon="6.28457">
        <ele>925.6</ele>
        <time>2018-08-26T11:00:19Z</time>
      </trkpt>
      <trkpt lat="44.51426" lon="6.28485">
        <ele>925.47</ele>
        <time>2018-08-26T11:00:20Z</time>
      </trkpt>
      <trkpt lat="44.51427" lon="6.28514">
        <ele>924.04</ele>
        <time>2018-08-26T11:00:21Z</time>
      </trkpt>
      <trkpt lat="44.51428" lon="6.28542">
        <ele>922.91</ele>
        <time>2018-08-26T11:00:22Z</time>
      </trkpt>
      <trkpt lat="44.51427" lon="6.28571">
        <ele>921.87</ele>
        <time>2018-08-26T11:00:23Z</time>
      </trkpt>
      <trkpt lat="44.51422" lon="6.28599">
        <ele>920.15</ele>
        <time>2018-08-26T11:00:24Z</time>
      </trkpt>
      <trkpt lat="44.51417" lon="6.28626">
        <ele>918.94</ele>
        <time>2018-08-26T11:00:25Z</time>
      </trkpt>
      <trkpt lat="44.51412" lon="6.28652">
        <ele>917.88</ele>
        <time>2018-08-26T11:00:26Z</time>
      </trkpt>
      <trkpt lat="44.51406" lon="6.28679">
        <ele>916.86</ele>
        <time>2018-08-26T11:00:27Z</time>
      </trkpt>
      <trkpt lat="44.51401" lon="6.28705">
        <ele>916.55</ele>
        <time>2018-08-26T11:00:28Z</time>
      </trkpt>
      <trkpt lat="44.51396" lon="6.28731">
        <ele>915.06</ele>
        <time>2018-08-26T11:00:29Z</time>
      </trkpt>
      <trkpt lat="44.51393" lon="6.28756">
        <ele>913.91</ele>
        <time>2018-08-26T11:00:30Z</time>
      </trkpt>
      <trkpt lat="44.51395" lon="6.28781">
        <ele>912.87</ele>
        <time>2018-08-26T11:00:31Z</time>
      </trkpt>
      <trkpt lat="44.51398" lon="6.28808">
        <ele>910.46</ele>
        <time>2018-08-26T11:00:32Z</time>
      </trkpt>
      <trkpt lat="44.51404" lon="6.28837">
        <ele>908.33</ele>
        <time>2018-08-26T11:00:33Z</time>
      </trkpt>
      <trkpt lat="44.51411" lon="6.28865">
        <ele>906.99</ele>
        <time>2018-08-26T11:00:34Z</time>
      </trkpt>
      <trkpt lat="44.51416" lon="6.28894">
        <ele>905.89</ele>
        <time>2018-08-26T11:00:35Z</time>
      </trkpt>
      <trkpt lat="44.51422" lon="6.2892">
        <ele>905.56</ele>
        <time>2018-08-26T11:00:36Z</time>
      </trkpt>
      <trkpt lat="44.5143" lon="6.28945">
        <ele>904.76</ele>
        <time>2018-08-26T11:00:37Z</time>
      </trkpt>
      <trkpt lat="44.51437" lon="6.28969">
        <ele>903.12</ele>
        <time>2018-08-26T11:00:38Z</time>
      </trkpt>
      <trkpt lat="44.51447" lon="6.28993">
        <ele>901.23</ele>
        <time>2018-08-26T11:00:39Z</time>
      </trkpt>
      <trkpt lat="44.51458" lon="6.29018">
        <ele>899.96</ele>
        <time>2018-08-26T11:00:40Z</time>
      </trkpt>
      <trkpt lat="44.51471" lon="6.29041">
        <ele>898.88</ele>
        <time>2018-08-26T11:00:41Z</time>
      </trkpt>
      <trkpt lat="44.51485" lon="6.29062">
        <ele>897.86</ele>
        <time>2018-08-26T11:00:42Z</time>
      </trkpt>
      <trkpt lat="44.51499" lon="6.29082">
        <ele>896.15</ele>
        <time>2018-08-26T11:00:43Z</time>
      </trkpt>
      <trkpt lat="44.51512" lon="6.291">
        <ele>894.24</ele>
        <time>2018-08-26T11:00:44Z</time>
      </trkpt>
      <trkpt lat="44.51527" lon="6.29118">
        <ele>892.97</ele>
        <time>2018-08-26T11:00:45Z</time>
      </trkpt>
      <trkpt lat="44.51542" lon="6.29134">
        <ele>891.88</ele>
        <time>2018-08-26T11:00:46Z</time>
      </trkpt>
      <trkpt lat="44.51559" lon="6.29149">
        <ele>890.86</ele>
        <time>2018-08-26T11:00:47Z</time>
      </trkpt>
      <trkpt lat="44.51577" lon="6.29161">
        <ele>890.55</ele>
        <time>2018-08-26T11:00:48Z</time>
      </trkpt>
      <trkpt lat="44.51595" lon="6.29173">
        <ele>889.76</ele>
        <time>2018-08-26T11:00:49Z</time>
      </trkpt>
      <trkpt lat="44.51613" lon="6.29185">
        <ele>888.82</ele>
        <time>2018-08-26T11:00:50Z</time>
      </trkpt>
      <trkpt lat="44.51633" lon="6.29196">
        <ele>887.84</ele>
        <time>2018-08-26T11:00:51Z</time>
      </trkpt>
      <trkpt lat="44.51652" lon="6.29204">
        <ele>886.85</ele>
        <time>2018-08-26T11:00:52Z</time>
      </trkpt>
      <trkpt lat="44.51672" lon="6.29211">
        <ele>885.15</ele>
        <time>2018-08-26T11:00:53Z</time>
      </trkpt>
      <trkpt lat="44.51692" lon="6.29214">
        <ele>883.94</ele>
        <time>2018-08-26T11:00:54Z</time>
      </trkpt>
      <trkpt lat="44.51713" lon="6.29216">
        <ele>882.88</ele>
        <time>2018-08-26T11:00:55Z</time>
      </trkpt>
      <trkpt lat="44.51733" lon="6.29214">
        <ele>881.86</ele>
        <time>2018-08-26T11:00:56Z</time>
      </trkpt>
      <trkpt lat="44.51754" lon="6.29212">
        <ele>881.55</ele>
        <time>2018-08-26T11:00:57Z</time>
      </trkpt>
      <trkpt lat="44.51774" lon="6.29208">
        <ele>881.46</ele>
        <time>2018-08-26T11:00:58Z</time>
      </trkpt>
      <trkpt lat="44.51793" lon="6.29198">
        <ele>880.03</ele>
        <time>2018-08-26T11:00:59Z</time>
      </trkpt>
      <trkpt lat="44.51814" lon="6.29189">
        <ele>878.2</ele>
        <time>2018-08-26T11:01:00Z</time>
      </trkpt>
      <trkpt lat="44.51834" lon="6.2918">
        <ele>876.96</ele>
        <time>2018-08-26T11:01:01Z</time>
      </trkpt>
      <trkpt lat="44.51855" lon="6.29171">
        <ele>875.88</ele>
        <time>2018-08-26T11:01:02Z</time>
      </trkpt>
      <trkpt lat="44.51877" lon="6.29161">
        <ele>875.56</ele>
        <time>2018-08-26T11:01:03Z</time>
      </trkpt>
      <trkpt lat="44.51899" lon="6.29151">
        <ele>874.76</ele>
        <time>2018-08-26T11:01:04Z</time>
      </trkpt>
      <trkpt lat="44.51921" lon="6.29141">
        <ele>873.82</ele>
        <time>2018-08-26T11:01:05Z</time>
      </trkpt>
      <trkpt lat="44.51943" lon="6.29131">
        <ele>873.54</ele>
        <time>2018-08-26T11:01:06Z</time>
      </trkpt>
      <trkpt lat="44.51965" lon="6.29121">
        <ele>872.76</ele>
        <time>2018-08-26T11:01:07Z</time>
      </trkpt>
      <trkpt lat="44.51986" lon="6.29111">
        <ele>871.82</ele>
        <time>2018-08-26T11:01:08Z</time>
      </trkpt>
      <trkpt lat="44.52008" lon="6.29101">
        <ele>871.54</ele>
        <time>2018-08-26T11:01:09Z</time>
      </trkpt>
      <trkpt lat="44.5203" lon="6.29091">
        <ele>870.76</ele>
        <time>2018-08-26T11:01:10Z</time>
      </trkpt>
      <trkpt lat="44.52051" lon="6.29082">
        <ele>870.52</ele>
        <time>2018-08-26T11:01:11Z</time>
      </trkpt>
      <trkpt lat="44.52071" lon="6.29073">
        <ele>869.75</ele>
        <time>2018-08-26T11:01:12Z</time>
      </trkpt>
      <trkpt lat="44.52092" lon="6.29063">
        <ele>868.82</ele>
        <time>2018-08-26T11:01:13Z</time>
      </trkpt>
      <trkpt lat="44.52113" lon="6.29052">
        <ele>868.54</ele>
        <time>2018-08-26T11:01:14Z</time>
      </trkpt>
      <trkpt lat="44.52135" lon="6.29042">
        <ele>864.96</ele>
        <time>2018-08-26T11:01:15Z</time>
      </trkpt>
      <trkpt lat="44.52156" lon="6.29033">
        <ele>862.48</ele>
        <time>2018-08-26T11:01:16Z</time>
      </trkpt>
      <trkpt lat="44.52176" lon="6.29024">
        <ele>861.74</ele>
        <time>2018-08-26T11:01:17Z</time>
      </trkpt>
      <trkpt lat="44.52196" lon="6.29016">
        <ele>860.12</ele>
        <time>2018-08-26T11:01:18Z</time>
      </trkpt>
      <trkpt lat="44.52216" lon="6.29009">
        <ele>858.93</ele>
        <time>2018-08-26T11:01:19Z</time>
      </trkpt>
      <trkpt lat="44.52235" lon="6.29003">
        <ele>857.17</ele>
        <time>2018-08-26T11:01:20Z</time>
      </trkpt>
      <trkpt lat="44.52255" lon="6.28998">
        <ele>856.65</ele>
        <time>2018-08-26T11:01:21Z</time>
      </trkpt>
      <trkpt lat="44.52276" lon="6.28994">
        <ele>855.09</ele>
        <time>2018-08-26T11:01:22Z</time>
      </trkpt>
      <trkpt lat="44.52296" lon="6.28992">
        <ele>853.22</ele>
        <time>2018-08-26T11:01:23Z</time>
      </trkpt>
      <trkpt lat="44.52317" lon="6.28991">
        <ele>850.56</ele>
        <time>2018-08-26T11:01:24Z</time>
      </trkpt>
      <trkpt lat="44.52338" lon="6.2899">
        <ele>849.06</ele>
        <time>2018-08-26T11:01:25Z</time>
      </trkpt>
      <trkpt lat="44.52359" lon="6.2899">
        <ele>848.61</ele>
        <time>2018-08-26T11:01:26Z</time>
      </trkpt>
      <trkpt lat="44.52379" lon="6.28991">
        <ele>847.78</ele>
        <time>2018-08-26T11:01:27Z</time>
      </trkpt>
      <trkpt lat="44.524" lon="6.28993">
        <ele>846.13</ele>
        <time>2018-08-26T11:01:28Z</time>
      </trkpt>
      <trkpt lat="44.52421" lon="6.28996">
        <ele>844.23</ele>
        <time>2018-08-26T11:01:29Z</time>
      </trkpt>
      <trkpt lat="44.52441" lon="6.28999">
        <ele>842.96</ele>
        <time>2018-08-26T11:01:30Z</time>
      </trkpt>
      <trkpt lat="44.52461" lon="6.29002">
        <ele>841.88</ele>
        <time>2018-08-26T11:01:31Z</time>
      </trkpt>
      <trkpt lat="44.52481" lon="6.29006">
        <ele>841.56</ele>
        <time>2018-08-26T11:01:32Z</time>
      </trkpt>
      <trkpt lat="44.52501" lon="6.2901">
        <ele>840.76</ele>
        <time>2018-08-26T11:01:33Z</time>
      </trkpt>
      <trkpt lat="44.52521" lon="6.29014">
        <ele>839.82</ele>
        <time>2018-08-26T11:01:34Z</time>
      </trkpt>
      <trkpt lat="44.52541" lon="6.29017">
        <ele>839.54</ele>
        <time>2018-08-26T11:01:35Z</time>
      </trkpt>
      <trkpt lat="44.5256" lon="6.2902">
        <ele>838.76</ele>
        <time>2018-08-26T11:01:36Z</time>
      </trkpt>
      <trkpt lat="44.5258" lon="6.29023">
        <ele>837.82</ele>
        <time>2018-08-26T11:01:37Z</time>
      </trkpt>
      <trkpt lat="44.526" lon="6.29026">
        <ele>836.84</ele>
        <time>2018-08-26T11:01:38Z</time>
      </trkpt>
      <trkpt lat="44.52621" lon="6.2903">
        <ele>835.85</ele>
        <time>2018-08-26T11:01:39Z</time>
      </trkpt>
      <trkpt lat="44.52642" lon="6.29033">
        <ele>834.85</ele>
        <time>2018-08-26T11:01:40Z</time>
      </trkpt>
      <trkpt lat="44.52662" lon="6.29036">
        <ele>833.85</ele>
        <time>2018-08-26T11:01:41Z</time>
      </trkpt>
      <trkpt lat="44.52684" lon="6.29039">
        <ele>832.85</ele>
        <time>2018-08-26T11:01:42Z</time>
      </trkpt>
      <trkpt lat="44.52705" lon="6.29043">
        <ele>831.85</ele>
        <time>2018-08-26T11:01:43Z</time>
      </trkpt>
      <trkpt lat="44.52726" lon="6.29047">
        <ele>830.15</ele>
        <time>2018-08-26T11:01:44Z</time>
      </trkpt>
      <trkpt lat="44.52748" lon="6.2905">
        <ele>829.64</ele>
        <time>2018-08-26T11:01:45Z</time>
      </trkpt>
      <trkpt lat="44.52769" lon="6.29053">
        <ele>828.79</ele>
        <time>2018-08-26T11:01:46Z</time>
      </trkpt>
      <trkpt lat="44.52789" lon="6.29056">
        <ele>827.83</ele>
        <time>2018-08-26T11:01:47Z</time>
      </trkpt>
      <trkpt lat="44.52809" lon="6.29059">
        <ele>826.84</ele>
        <time>2018-08-26T11:01:48Z</time>
      </trkpt>
      <trkpt lat="44.5283" lon="6.29062">
        <ele>825.85</ele>
        <time>2018-08-26T11:01:49Z</time>
      </trkpt>
      <trkpt lat="44.52851" lon="6.29064">
        <ele>824.85</ele>
        <time>2018-08-26T11:01:50Z</time>
      </trkpt>
      <trkpt lat="44.52871" lon="6.29063">
        <ele>823.85</ele>
        <time>2018-08-26T11:01:51Z</time>
      </trkpt>
      <trkpt lat="44.52892" lon="6.2906">
        <ele>823.55</ele>
        <time>2018-08-26T11:01:52Z</time>
      </trkpt>
      <trkpt lat="44.52912" lon="6.29054">
        <ele>822.06</ele>
        <time>2018-08-26T11:01:53Z</time>
      </trkpt>
      <trkpt lat="44.52932" lon="6.29047">
        <ele>820.91</ele>
        <time>2018-08-26T11:01:54Z</time>
      </trkpt>
      <trkpt lat="44.52952" lon="6.29038">
        <ele>820.57</ele>
        <time>2018-08-26T11:01:55Z</time>
      </trkpt>
      <trkpt lat="44.52972" lon="6.29027">
        <ele>819.07</ele>
        <time>2018-08-26T11:01:56Z</time>
      </trkpt>
      <trkpt lat="44.52992" lon="6.29016">
        <ele>817.91</ele>
        <time>2018-08-26T11:01:57Z</time>
      </trkpt>
      <trkpt lat="44.53011" lon="6.29006">
        <ele>816.87</ele>
        <time>2018-08-26T11:01:58Z</time>
      </trkpt>
      <trkpt lat="44.53029" lon="6.28996">
        <ele>815.86</ele>
        <time>2018-08-26T11:01:59Z</time>
      </trkpt>
      <trkpt lat="44.53045" lon="6.28987">
        <ele>815.55</ele>
        <time>2018-08-26T11:02:00Z</time>
      </trkpt>
      <trkpt lat="44.53074" lon="6.28968">
        <ele>815.64</ele>
        <time>2018-08-26T11:02:02Z</time>
      </trkpt>
      <trkpt lat="44.53099" lon="6.2894">
        <ele>815.44</ele>
        <time>2018-08-26T11:02:04Z</time>
      </trkpt>
      <trkpt lat="44.5312" lon="6.289">
        <ele>815.42</ele>
        <time>2018-08-26T11:02:06Z</time>
      </trkpt>
      <trkpt lat="44.53134" lon="6.28852">
        <ele>817.03</ele>
        <time>2018-08-26T11:02:08Z</time>
      </trkpt>
      <trkpt lat="44.53141" lon="6.28827">
        <ele>817.3</ele>
        <time>2018-08-26T11:02:09Z</time>
      </trkpt>
      <trkpt lat="44.53153" lon="6.2878">
        <ele>818.11</ele>
        <time>2018-08-26T11:02:11Z</time>
      </trkpt>
      <trkpt lat="44.53159" lon="6.28731">
        <ele>819.3</ele>
        <time>2018-08-26T11:02:13Z</time>
      </trkpt>
      <trkpt lat="44.53157" lon="6.28706">
        <ele>819.39</ele>
        <time>2018-08-26T11:02:14Z</time>
      </trkpt>
      <trkpt lat="44.53153" lon="6.28681">
        <ele>820.11</ele>
        <time>2018-08-26T11:02:15Z</time>
      </trkpt>
      <trkpt lat="44.53154" lon="6.28634">
        <ele>820.39</ele>
        <time>2018-08-26T11:02:17Z</time>
      </trkpt>
      <trkpt lat="44.53166" lon="6.28591">
        <ele>819.72</ele>
        <time>2018-08-26T11:02:19Z</time>
      </trkpt>
      <trkpt lat="44.53182" lon="6.28549">
        <ele>819.66</ele>
        <time>2018-08-26T11:02:21Z</time>
      </trkpt>
      <trkpt lat="44.53205" lon="6.28522">
        <ele>819.44</ele>
        <time>2018-08-26T11:02:23Z</time>
      </trkpt>
      <trkpt lat="44.53233" lon="6.28506">
        <ele>819.63</ele>
        <time>2018-08-26T11:02:25Z</time>
      </trkpt>
      <trkpt lat="44.53265" lon="6.285">
        <ele>821.96</ele>
        <time>2018-08-26T11:02:27Z</time>
      </trkpt>
      <trkpt lat="44.53298" lon="6.28486">
        <ele>823.29</ele>
        <time>2018-08-26T11:02:29Z</time>
      </trkpt>
      <trkpt lat="44.53328" lon="6.28459">
        <ele>825.02</ele>
        <time>2018-08-26T11:02:31Z</time>
      </trkpt>
      <trkpt lat="44.53357" lon="6.28433">
        <ele>826.29</ele>
        <time>2018-08-26T11:02:33Z</time>
      </trkpt>
      <trkpt lat="44.53386" lon="6.28415">
        <ele>827.32</ele>
        <time>2018-08-26T11:02:35Z</time>
      </trkpt>
      <trkpt lat="44.53414" lon="6.28396">
        <ele>829.93</ele>
        <time>2018-08-26T11:02:37Z</time>
      </trkpt>
      <trkpt lat="44.53441" lon="6.28371">
        <ele>831.08</ele>
        <time>2018-08-26T11:02:39Z</time>
      </trkpt>
      <trkpt lat="44.53467" lon="6.28341">
        <ele>832.3</ele>
        <time>2018-08-26T11:02:41Z</time>
      </trkpt>
      <trkpt lat="44.53493" lon="6.28311">
        <ele>832.41</ele>
        <time>2018-08-26T11:02:43Z</time>
      </trkpt>
      <trkpt lat="44.53518" lon="6.28279">
        <ele>832.42</ele>
        <time>2018-08-26T11:02:45Z</time>
      </trkpt>
      <trkpt lat="44.53533" lon="6.28262">
        <ele>833.12</ele>
        <time>2018-08-26T11:02:46Z</time>
      </trkpt>
      <trkpt lat="44.53547" lon="6.28246">
        <ele>833.33</ele>
        <time>2018-08-26T11:02:47Z</time>
      </trkpt>
      <trkpt lat="44.53563" lon="6.28228">
        <ele>834.09</ele>
        <time>2018-08-26T11:02:48Z</time>
      </trkpt>
      <trkpt lat="44.53577" lon="6.2821">
        <ele>834.32</ele>
        <time>2018-08-26T11:02:49Z</time>
      </trkpt>
      <trkpt lat="44.53592" lon="6.28192">
        <ele>834.39</ele>
        <time>2018-08-26T11:02:50Z</time>
      </trkpt>
      <trkpt lat="44.53607" lon="6.28175">
        <ele>835.11</ele>
        <time>2018-08-26T11:02:51Z</time>
      </trkpt>
      <trkpt lat="44.53622" lon="6.28158">
        <ele>836.03</ele>
        <time>2018-08-26T11:02:52Z</time>
      </trkpt>
      <trkpt lat="44.53637" lon="6.28141">
        <ele>836.3</ele>
        <time>2018-08-26T11:02:53Z</time>
      </trkpt>
      <trkpt lat="44.53654" lon="6.28126">
        <ele>836.39</ele>
        <time>2018-08-26T11:02:54Z</time>
      </trkpt>
      <trkpt lat="44.53672" lon="6.28111">
        <ele>837.81</ele>
        <time>2018-08-26T11:02:55Z</time>
      </trkpt>
      <trkpt lat="44.53689" lon="6.28096">
        <ele>838.94</ele>
        <time>2018-08-26T11:02:56Z</time>
      </trkpt>
      <trkpt lat="44.53707" lon="6.28081">
        <ele>839.98</ele>
        <time>2018-08-26T11:02:57Z</time>
      </trkpt>
      <trkpt lat="44.53723" lon="6.28067">
        <ele>840.29</ele>
        <time>2018-08-26T11:02:58Z</time>
      </trkpt>
      <trkpt lat="44.53739" lon="6.28053">
        <ele>840.38</ele>
        <time>2018-08-26T11:02:59Z</time>
      </trkpt>
      <trkpt lat="44.53755" lon="6.28041">
        <ele>840.41</ele>
        <time>2018-08-26T11:03:00Z</time>
      </trkpt>
      <trkpt lat="44.53773" lon="6.28034">
        <ele>841.12</ele>
        <time>2018-08-26T11:03:01Z</time>
      </trkpt>
      <trkpt lat="44.53791" lon="6.2803">
        <ele>841.33</ele>
        <time>2018-08-26T11:03:02Z</time>
      </trkpt>
      <trkpt lat="44.5381" lon="6.2803">
        <ele>841.39</ele>
        <time>2018-08-26T11:03:03Z</time>
      </trkpt>
      <trkpt lat="44.53829" lon="6.28029">
        <ele>841.41</ele>
        <time>2018-08-26T11:03:04Z</time>
      </trkpt>
      <trkpt lat="44.53848" lon="6.2803">
        <ele>842.12</ele>
        <time>2018-08-26T11:03:05Z</time>
      </trkpt>
      <trkpt lat="44.53866" lon="6.2803">
        <ele>842.33</ele>
        <time>2018-08-26T11:03:06Z</time>
      </trkpt>
      <trkpt lat="44.53884" lon="6.28031">
        <ele>842.39</ele>
        <time>2018-08-26T11:03:07Z</time>
      </trkpt>
      <trkpt lat="44.53919" lon="6.2803">
        <ele>844.03</ele>
        <time>2018-08-26T11:03:09Z</time>
      </trkpt>
      <trkpt lat="44.53952" lon="6.2803">
        <ele>844.18</ele>
        <time>2018-08-26T11:03:11Z</time>
      </trkpt>
      <trkpt lat="44.53983" lon="6.28028">
        <ele>844.4</ele>
        <time>2018-08-26T11:03:13Z</time>
      </trkpt>
      <trkpt lat="44.54011" lon="6.28024">
        <ele>845.33</ele>
        <time>2018-08-26T11:03:15Z</time>
      </trkpt>
      <trkpt lat="44.54035" lon="6.28017">
        <ele>846.32</ele>
        <time>2018-08-26T11:03:17Z</time>
      </trkpt>
      <trkpt lat="44.54054" lon="6.28012">
        <ele>848.02</ele>
        <time>2018-08-26T11:03:19Z</time>
      </trkpt>
      <trkpt lat="44.54072" lon="6.28005">
        <ele>848.39</ele>
        <time>2018-08-26T11:03:21Z</time>
      </trkpt>
      <trkpt lat="44.54091" lon="6.27996">
        <ele>849.12</ele>
        <time>2018-08-26T11:03:23Z</time>
      </trkpt>
      <trkpt lat="44.54112" lon="6.27986">
        <ele>849.39</ele>
        <time>2018-08-26T11:03:25Z</time>
      </trkpt>
      <trkpt lat="44.54134" lon="6.27974">
        <ele>850.12</ele>
        <time>2018-08-26T11:03:27Z</time>
      </trkpt>
      <trkpt lat="44.54153" lon="6.27962">
        <ele>849.69</ele>
        <time>2018-08-26T11:03:29Z</time>
      </trkpt>
      <trkpt lat="44.54174" lon="6.27952">
        <ele>851.06</ele>
        <time>2018-08-26T11:03:31Z</time>
      </trkpt>
      <trkpt lat="44.54194" lon="6.2794">
        <ele>852.3</ele>
        <time>2018-08-26T11:03:33Z</time>
      </trkpt>
      <trkpt lat="44.54212" lon="6.27925">
        <ele>853.32</ele>
        <time>2018-08-26T11:03:35Z</time>
      </trkpt>
      <trkpt lat="44.54231" lon="6.27908">
        <ele>854.32</ele>
        <time>2018-08-26T11:03:37Z</time>
      </trkpt>
      <trkpt lat="44.54252" lon="6.27889">
        <ele>854.41</ele>
        <time>2018-08-26T11:03:39Z</time>
      </trkpt>
      <trkpt lat="44.54274" lon="6.27871">
        <ele>854.42</ele>
        <time>2018-08-26T11:03:41Z</time>
      </trkpt>
      <trkpt lat="44.54296" lon="6.27854">
        <ele>855.33</ele>
        <time>2018-08-26T11:03:43Z</time>
      </trkpt>
      <trkpt lat="44.54316" lon="6.27839">
        <ele>856.32</ele>
        <time>2018-08-26T11:03:45Z</time>
      </trkpt>
      <trkpt lat="44.54333" lon="6.27828">
        <ele>858.02</ele>
        <time>2018-08-26T11:03:47Z</time>
      </trkpt>
      <trkpt lat="44.54354" lon="6.27821">
        <ele>860.99</ele>
        <time>2018-08-26T11:03:50Z</time>
      </trkpt>
      <trkpt lat="44.54374" lon="6.27817">
        <ele>861.41</ele>
        <time>2018-08-26T11:03:53Z</time>
      </trkpt>
      <trkpt lat="44.54399" lon="6.27809">
        <ele>860.72</ele>
        <time>2018-08-26T11:03:56Z</time>
      </trkpt>
      <trkpt lat="44.54417" lon="6.27803">
        <ele>862.06</ele>
        <time>2018-08-26T11:03:58Z</time>
      </trkpt>
      <trkpt lat="44.54436" lon="6.27796">
        <ele>863.3</ele>
        <time>2018-08-26T11:04:00Z</time>
      </trkpt>
      <trkpt lat="44.54455" lon="6.27793">
        <ele>864.11</ele>
        <time>2018-08-26T11:04:02Z</time>
      </trkpt>
      <trkpt lat="44.54478" lon="6.27797">
        <ele>865.32</ele>
        <time>2018-08-26T11:04:05Z</time>
      </trkpt>
      <trkpt lat="44.54496" lon="6.27803">
        <ele>865.48</ele>
        <time>2018-08-26T11:04:09Z</time>
      </trkpt>
      <trkpt lat="44.54497" lon="6.27829">
        <ele>867.14</ele>
        <time>2018-08-26T11:04:16Z</time>
      </trkpt>
      <trkpt lat="44.54489" lon="6.27854">
        <ele>866.44</ele>
        <time>2018-08-26T11:04:19Z</time>
      </trkpt>
      <trkpt lat="44.5448" lon="6.27885">
        <ele>866.42</ele>
        <time>2018-08-26T11:04:22Z</time>
      </trkpt>
      <trkpt lat="44.54471" lon="6.27914">
        <ele>863.78</ele>
        <time>2018-08-26T11:04:25Z</time>
      </trkpt>
      <trkpt lat="44.54464" lon="6.27939">
        <ele>865.31</ele>
        <time>2018-08-26T11:04:28Z</time>
      </trkpt>
      <trkpt lat="44.54456" lon="6.2797">
        <ele>865.42</ele>
        <time>2018-08-26T11:04:31Z</time>
      </trkpt>
      <trkpt lat="44.54449" lon="6.27995">
        <ele>864.93</ele>
        <time>2018-08-26T11:04:33Z</time>
      </trkpt>
      <trkpt lat="44.5444" lon="6.28026">
        <ele>865.17</ele>
        <time>2018-08-26T11:04:35Z</time>
      </trkpt>
      <trkpt lat="44.5443" lon="6.28059">
        <ele>865.4</ele>
        <time>2018-08-26T11:04:37Z</time>
      </trkpt>
      <trkpt lat="44.54418" lon="6.28093">
        <ele>864.51</ele>
        <time>2018-08-26T11:04:39Z</time>
      </trkpt>
      <trkpt lat="44.54406" lon="6.28127">
        <ele>863.73</ele>
        <time>2018-08-26T11:04:41Z</time>
      </trkpt>
      <trkpt lat="44.5439" lon="6.28159">
        <ele>862.33</ele>
        <time>2018-08-26T11:04:43Z</time>
      </trkpt>
      <trkpt lat="44.54372" lon="6.28186">
        <ele>861.71</ele>
        <time>2018-08-26T11:04:45Z</time>
      </trkpt>
      <trkpt lat="44.54354" lon="6.28192">
        <ele>862.91</ele>
        <time>2018-08-26T11:04:46Z</time>
      </trkpt>
      <trkpt lat="44.54326" lon="6.28218">
        <ele>864.07</ele>
        <time>2018-08-26T11:04:48Z</time>
      </trkpt>
      <trkpt lat="44.54311" lon="6.28234">
        <ele>864.32</ele>
        <time>2018-08-26T11:04:49Z</time>
      </trkpt>
      <trkpt lat="44.54289" lon="6.28271">
        <ele>868.54</ele>
        <time>2018-08-26T11:04:51Z</time>
      </trkpt>
      <trkpt lat="44.54269" lon="6.28311">
        <ele>870.04</ele>
        <time>2018-08-26T11:04:53Z</time>
      </trkpt>
      <trkpt lat="44.5425" lon="6.28341">
        <ele>871.3</ele>
        <time>2018-08-26T11:04:55Z</time>
      </trkpt>
      <trkpt lat="44.54236" lon="6.28365">
        <ele>873.72</ele>
        <time>2018-08-26T11:04:57Z</time>
      </trkpt>
      <trkpt lat="44.54224" lon="6.28387">
        <ele>876.18</ele>
        <time>2018-08-26T11:04:59Z</time>
      </trkpt>
      <trkpt lat="44.54211" lon="6.28406">
        <ele>876.61</ele>
        <time>2018-08-26T11:05:01Z</time>
      </trkpt>
      <trkpt lat="44.54186" lon="6.28418">
        <ele>875.52</ele>
        <time>2018-08-26T11:05:04Z</time>
      </trkpt>
      <trkpt lat="44.54165" lon="6.28437">
        <ele>871.87</ele>
        <time>2018-08-26T11:05:07Z</time>
      </trkpt>
      <trkpt lat="44.54147" lon="6.28446">
        <ele>870.43</ele>
        <time>2018-08-26T11:05:12Z</time>
      </trkpt>
      <trkpt lat="44.54141" lon="6.28423">
        <ele>868.54</ele>
        <time>2018-08-26T11:05:17Z</time>
      </trkpt>
      <trkpt lat="44.54142" lon="6.28394">
        <ele>867.73</ele>
        <time>2018-08-26T11:05:19Z</time>
      </trkpt>
      <trkpt lat="44.54143" lon="6.28355">
        <ele>866.75</ele>
        <time>2018-08-26T11:05:21Z</time>
      </trkpt>
      <trkpt lat="44.54141" lon="6.28307">
        <ele>864.84</ele>
        <time>2018-08-26T11:05:23Z</time>
      </trkpt>
      <trkpt lat="44.54137" lon="6.28257">
        <ele>863.76</ele>
        <time>2018-08-26T11:05:25Z</time>
      </trkpt>
      <trkpt lat="44.54134" lon="6.28231">
        <ele>862.82</ele>
        <time>2018-08-26T11:05:26Z</time>
      </trkpt>
      <trkpt lat="44.54132" lon="6.28204">
        <ele>861.84</ele>
        <time>2018-08-26T11:05:27Z</time>
      </trkpt>
      <trkpt lat="44.54129" lon="6.28176">
        <ele>861.55</ele>
        <time>2018-08-26T11:05:28Z</time>
      </trkpt>
      <trkpt lat="44.54126" lon="6.2815">
        <ele>860.76</ele>
        <time>2018-08-26T11:05:29Z</time>
      </trkpt>
      <trkpt lat="44.54123" lon="6.28123">
        <ele>860.52</ele>
        <time>2018-08-26T11:05:30Z</time>
      </trkpt>
      <trkpt lat="44.54122" lon="6.28097">
        <ele>859.75</ele>
        <time>2018-08-26T11:05:31Z</time>
      </trkpt>
      <trkpt lat="44.54119" lon="6.28071">
        <ele>858.82</ele>
        <time>2018-08-26T11:05:32Z</time>
      </trkpt>
      <trkpt lat="44.54118" lon="6.28045">
        <ele>857.84</ele>
        <time>2018-08-26T11:05:33Z</time>
      </trkpt>
      <trkpt lat="44.54118" lon="6.28019">
        <ele>856.15</ele>
        <time>2018-08-26T11:05:34Z</time>
      </trkpt>
      <trkpt lat="44.54118" lon="6.27992">
        <ele>854.94</ele>
        <time>2018-08-26T11:05:35Z</time>
      </trkpt>
      <trkpt lat="44.54119" lon="6.27965">
        <ele>853.88</ele>
        <time>2018-08-26T11:05:36Z</time>
      </trkpt>
      <trkpt lat="44.54122" lon="6.27938">
        <ele>852.86</ele>
        <time>2018-08-26T11:05:37Z</time>
      </trkpt>
      <trkpt lat="44.54125" lon="6.27911">
        <ele>852.55</ele>
        <time>2018-08-26T11:05:38Z</time>
      </trkpt>
      <trkpt lat="44.54129" lon="6.27884">
        <ele>851.76</ele>
        <time>2018-08-26T11:05:39Z</time>
      </trkpt>
      <trkpt lat="44.54135" lon="6.27857">
        <ele>850.82</ele>
        <time>2018-08-26T11:05:40Z</time>
      </trkpt>
      <trkpt lat="44.5414" lon="6.27831">
        <ele>850.54</ele>
        <time>2018-08-26T11:05:41Z</time>
      </trkpt>
      <trkpt lat="44.54147" lon="6.27805">
        <ele>850.46</ele>
        <time>2018-08-26T11:05:42Z</time>
      </trkpt>
      <trkpt lat="44.54156" lon="6.2778">
        <ele>849.73</ele>
        <time>2018-08-26T11:05:43Z</time>
      </trkpt>
      <trkpt lat="44.54164" lon="6.27756">
        <ele>849.51</ele>
        <time>2018-08-26T11:05:44Z</time>
      </trkpt>
      <trkpt lat="44.54174" lon="6.27732">
        <ele>849.45</ele>
        <time>2018-08-26T11:05:45Z</time>
      </trkpt>
      <trkpt lat="44.54184" lon="6.2771">
        <ele>849.43</ele>
        <time>2018-08-26T11:05:46Z</time>
      </trkpt>
      <trkpt lat="44.54195" lon="6.27689">
        <ele>849.42</ele>
        <time>2018-08-26T11:05:47Z</time>
      </trkpt>
      <trkpt lat="44.54218" lon="6.27652">
        <ele>850.33</ele>
        <time>2018-08-26T11:05:49Z</time>
      </trkpt>
      <trkpt lat="44.54241" lon="6.27619">
        <ele>851.11</ele>
        <time>2018-08-26T11:05:51Z</time>
      </trkpt>
      <trkpt lat="44.54268" lon="6.27589">
        <ele>851.39</ele>
        <time>2018-08-26T11:05:53Z</time>
      </trkpt>
      <trkpt lat="44.54295" lon="6.27562">
        <ele>853.03</ele>
        <time>2018-08-26T11:05:55Z</time>
      </trkpt>
      <trkpt lat="44.54325" lon="6.27537">
        <ele>854.09</ele>
        <time>2018-08-26T11:05:57Z</time>
      </trkpt>
      <trkpt lat="44.54355" lon="6.27514">
        <ele>855.3</ele>
        <time>2018-08-26T11:05:59Z</time>
      </trkpt>
      <trkpt lat="44.54386" lon="6.27493">
        <ele>856.11</ele>
        <time>2018-08-26T11:06:01Z</time>
      </trkpt>
      <trkpt lat="44.54418" lon="6.2747">
        <ele>857.3</ele>
        <time>2018-08-26T11:06:03Z</time>
      </trkpt>
      <trkpt lat="44.54449" lon="6.27448">
        <ele>857.41</ele>
        <time>2018-08-26T11:06:05Z</time>
      </trkpt>
      <trkpt lat="44.54477" lon="6.27425">
        <ele>857.42</ele>
        <time>2018-08-26T11:06:07Z</time>
      </trkpt>
      <trkpt lat="44.545" lon="6.27404">
        <ele>857.42</ele>
        <time>2018-08-26T11:06:09Z</time>
      </trkpt>
      <trkpt lat="44.54519" lon="6.27382">
        <ele>858.33</ele>
        <time>2018-08-26T11:06:11Z</time>
      </trkpt>
      <trkpt lat="44.54538" lon="6.27361">
        <ele>859.11</ele>
        <time>2018-08-26T11:06:13Z</time>
      </trkpt>
      <trkpt lat="44.54558" lon="6.27336">
        <ele>859.39</ele>
        <time>2018-08-26T11:06:15Z</time>
      </trkpt>
      <trkpt lat="44.54577" lon="6.27308">
        <ele>858.51</ele>
        <time>2018-08-26T11:06:17Z</time>
      </trkpt>
      <trkpt lat="44.54594" lon="6.2728">
        <ele>858.43</ele>
        <time>2018-08-26T11:06:19Z</time>
      </trkpt>
      <trkpt lat="44.54609" lon="6.27254">
        <ele>858.42</ele>
        <time>2018-08-26T11:06:21Z</time>
      </trkpt>
      <trkpt lat="44.54621" lon="6.27229">
        <ele>857.51</ele>
        <time>2018-08-26T11:06:25Z</time>
      </trkpt>
      <trkpt lat="44.54635" lon="6.27208">
        <ele>857.42</ele>
        <time>2018-08-26T11:06:32Z</time>
      </trkpt>
      <trkpt lat="44.54651" lon="6.27187">
        <ele>858.33</ele>
        <time>2018-08-26T11:06:36Z</time>
      </trkpt>
      <trkpt lat="44.54665" lon="6.27157">
        <ele>858.42</ele>
        <time>2018-08-26T11:06:39Z</time>
      </trkpt>
      <trkpt lat="44.54681" lon="6.27133">
        <ele>857.51</ele>
        <time>2018-08-26T11:06:41Z</time>
      </trkpt>
      <trkpt lat="44.54695" lon="6.27102">
        <ele>857.43</ele>
        <time>2018-08-26T11:06:43Z</time>
      </trkpt>
      <trkpt lat="44.54709" lon="6.27068">
        <ele>856.72</ele>
        <time>2018-08-26T11:06:45Z</time>
      </trkpt>
      <trkpt lat="44.54723" lon="6.27032">
        <ele>856.45</ele>
        <time>2018-08-26T11:06:47Z</time>
      </trkpt>
      <trkpt lat="44.54737" lon="6.26994">
        <ele>856.42</ele>
        <time>2018-08-26T11:06:49Z</time>
      </trkpt>
      <trkpt lat="44.54751" lon="6.26953">
        <ele>855.72</ele>
        <time>2018-08-26T11:06:51Z</time>
      </trkpt>
      <trkpt lat="44.54765" lon="6.26911">
        <ele>855.45</ele>
        <time>2018-08-26T11:06:53Z</time>
      </trkpt>
      <trkpt lat="44.54779" lon="6.26871">
        <ele>854.72</ele>
        <time>2018-08-26T11:06:55Z</time>
      </trkpt>
      <trkpt lat="44.54793" lon="6.2683">
        <ele>854.45</ele>
        <time>2018-08-26T11:06:57Z</time>
      </trkpt>
      <trkpt lat="44.54807" lon="6.26787">
        <ele>854.42</ele>
        <time>2018-08-26T11:06:59Z</time>
      </trkpt>
      <trkpt lat="44.54823" lon="6.26741">
        <ele>853.51</ele>
        <time>2018-08-26T11:07:01Z</time>
      </trkpt>
      <trkpt lat="44.54831" lon="6.26717">
        <ele>853.45</ele>
        <time>2018-08-26T11:07:02Z</time>
      </trkpt>
      <trkpt lat="44.5484" lon="6.26691">
        <ele>853.43</ele>
        <time>2018-08-26T11:07:03Z</time>
      </trkpt>
      <trkpt lat="44.54849" lon="6.26665">
        <ele>853.42</ele>
        <time>2018-08-26T11:07:04Z</time>
      </trkpt>
      <trkpt lat="44.54858" lon="6.26638">
        <ele>853.42</ele>
        <time>2018-08-26T11:07:05Z</time>
      </trkpt>
      <trkpt lat="44.54867" lon="6.26611">
        <ele>853.42</ele>
        <time>2018-08-26T11:07:06Z</time>
      </trkpt>
      <trkpt lat="44.54876" lon="6.26583">
        <ele>853.42</ele>
        <time>2018-08-26T11:07:07Z</time>
      </trkpt>
      <trkpt lat="44.54886" lon="6.26556">
        <ele>853.42</ele>
        <time>2018-08-26T11:07:08Z</time>
      </trkpt>
      <trkpt lat="44.54896" lon="6.26529">
        <ele>852.72</ele>
        <time>2018-08-26T11:07:09Z</time>
      </trkpt>
      <trkpt lat="44.54905" lon="6.26501">
        <ele>853.21</ele>
        <time>2018-08-26T11:07:10Z</time>
      </trkpt>
      <trkpt lat="44.54914" lon="6.26474">
        <ele>853.36</ele>
        <time>2018-08-26T11:07:11Z</time>
      </trkpt>
      <trkpt lat="44.54923" lon="6.26448">
        <ele>852.7</ele>
        <time>2018-08-26T11:07:12Z</time>
      </trkpt>
      <trkpt lat="44.54932" lon="6.26422">
        <ele>852.51</ele>
        <time>2018-08-26T11:07:13Z</time>
      </trkpt>
      <trkpt lat="44.54941" lon="6.26397">
        <ele>853.15</ele>
        <time>2018-08-26T11:07:14Z</time>
      </trkpt>
      <trkpt lat="44.5495" lon="6.26372">
        <ele>853.34</ele>
        <time>2018-08-26T11:07:15Z</time>
      </trkpt>
      <trkpt lat="44.54959" lon="6.26346">
        <ele>853.4</ele>
        <time>2018-08-26T11:07:16Z</time>
      </trkpt>
      <trkpt lat="44.54967" lon="6.26321">
        <ele>853.41</ele>
        <time>2018-08-26T11:07:17Z</time>
      </trkpt>
      <trkpt lat="44.54976" lon="6.26296">
        <ele>853.42</ele>
        <time>2018-08-26T11:07:18Z</time>
      </trkpt>
      <trkpt lat="44.54984" lon="6.26271">
        <ele>854.12</ele>
        <time>2018-08-26T11:07:19Z</time>
      </trkpt>
      <trkpt lat="44.54993" lon="6.26246">
        <ele>854.33</ele>
        <time>2018-08-26T11:07:20Z</time>
      </trkpt>
      <trkpt lat="44.55001" lon="6.26221">
        <ele>854.39</ele>
        <time>2018-08-26T11:07:21Z</time>
      </trkpt>
      <trkpt lat="44.5501" lon="6.26195">
        <ele>855.11</ele>
        <time>2018-08-26T11:07:22Z</time>
      </trkpt>
      <trkpt lat="44.55019" lon="6.2617">
        <ele>855.33</ele>
        <time>2018-08-26T11:07:23Z</time>
      </trkpt>
      <trkpt lat="44.55028" lon="6.26145">
        <ele>856.09</ele>
        <time>2018-08-26T11:07:24Z</time>
      </trkpt>
      <trkpt lat="44.55036" lon="6.2612">
        <ele>856.32</ele>
        <time>2018-08-26T11:07:25Z</time>
      </trkpt>
      <trkpt lat="44.55045" lon="6.26095">
        <ele>856.39</ele>
        <time>2018-08-26T11:07:26Z</time>
      </trkpt>
      <trkpt lat="44.55053" lon="6.2607">
        <ele>857.11</ele>
        <time>2018-08-26T11:07:27Z</time>
      </trkpt>
      <trkpt lat="44.55062" lon="6.26046">
        <ele>857.33</ele>
        <time>2018-08-26T11:07:28Z</time>
      </trkpt>
      <trkpt lat="44.5507" lon="6.26022">
        <ele>858.09</ele>
        <time>2018-08-26T11:07:29Z</time>
      </trkpt>
      <trkpt lat="44.55079" lon="6.25998">
        <ele>858.32</ele>
        <time>2018-08-26T11:07:30Z</time>
      </trkpt>
      <trkpt lat="44.55087" lon="6.25973">
        <ele>858.39</ele>
        <time>2018-08-26T11:07:31Z</time>
      </trkpt>
      <trkpt lat="44.55095" lon="6.25949">
        <ele>859.11</ele>
        <time>2018-08-26T11:07:32Z</time>
      </trkpt>
      <trkpt lat="44.55103" lon="6.25925">
        <ele>859.33</ele>
        <time>2018-08-26T11:07:33Z</time>
      </trkpt>
      <trkpt lat="44.55118" lon="6.25882">
        <ele>860.32</ele>
        <time>2018-08-26T11:07:35Z</time>
      </trkpt>
      <trkpt lat="44.5513" lon="6.25843">
        <ele>860.41</ele>
        <time>2018-08-26T11:07:37Z</time>
      </trkpt>
      <trkpt lat="44.55141" lon="6.25812">
        <ele>860.42</ele>
        <time>2018-08-26T11:07:39Z</time>
      </trkpt>
      <trkpt lat="44.55154" lon="6.2579">
        <ele>861.33</ele>
        <time>2018-08-26T11:07:41Z</time>
      </trkpt>
      <trkpt lat="44.55164" lon="6.25768">
        <ele>861.41</ele>
        <time>2018-08-26T11:07:43Z</time>
      </trkpt>
      <trkpt lat="44.55173" lon="6.25746">
        <ele>861.42</ele>
        <time>2018-08-26T11:07:45Z</time>
      </trkpt>
      <trkpt lat="44.55185" lon="6.25723">
        <ele>862.12</ele>
        <time>2018-08-26T11:07:47Z</time>
      </trkpt>
      <trkpt lat="44.552" lon="6.25705">
        <ele>862.39</ele>
        <time>2018-08-26T11:07:49Z</time>
      </trkpt>
      <trkpt lat="44.55221" lon="6.25702">
        <ele>863.33</ele>
        <time>2018-08-26T11:07:51Z</time>
      </trkpt>
      <trkpt lat="44.55245" lon="6.25709">
        <ele>865.02</ele>
        <time>2018-08-26T11:07:53Z</time>
      </trkpt>
      <trkpt lat="44.55272" lon="6.25719">
        <ele>867</ele>
        <time>2018-08-26T11:07:55Z</time>
      </trkpt>
      <trkpt lat="44.55298" lon="6.2573">
        <ele>868.99</ele>
        <time>2018-08-26T11:07:57Z</time>
      </trkpt>
      <trkpt lat="44.55326" lon="6.25738">
        <ele>870.99</ele>
        <time>2018-08-26T11:07:59Z</time>
      </trkpt>
      <trkpt lat="44.55354" lon="6.25738">
        <ele>872.99</ele>
        <time>2018-08-26T11:08:01Z</time>
      </trkpt>
      <trkpt lat="44.55382" lon="6.25746">
        <ele>874.99</ele>
        <time>2018-08-26T11:08:03Z</time>
      </trkpt>
      <trkpt lat="44.5541" lon="6.25758">
        <ele>877.69</ele>
        <time>2018-08-26T11:08:05Z</time>
      </trkpt>
      <trkpt lat="44.55438" lon="6.25776">
        <ele>879.76</ele>
        <time>2018-08-26T11:08:07Z</time>
      </trkpt>
      <trkpt lat="44.55468" lon="6.2579">
        <ele>881.76</ele>
        <time>2018-08-26T11:08:09Z</time>
      </trkpt>
      <trkpt lat="44.55499" lon="6.25799">
        <ele>883.97</ele>
        <time>2018-08-26T11:08:11Z</time>
      </trkpt>
      <trkpt lat="44.55534" lon="6.25805">
        <ele>886.69</ele>
        <time>2018-08-26T11:08:13Z</time>
      </trkpt>
      <trkpt lat="44.55568" lon="6.25809">
        <ele>888.97</ele>
        <time>2018-08-26T11:08:15Z</time>
      </trkpt>
      <trkpt lat="44.55603" lon="6.25812">
        <ele>891.9</ele>
        <time>2018-08-26T11:08:17Z</time>
      </trkpt>
      <trkpt lat="44.55635" lon="6.25812">
        <ele>894.89</ele>
        <time>2018-08-26T11:08:19Z</time>
      </trkpt>
      <trkpt lat="44.55662" lon="6.25824">
        <ele>896.98</ele>
        <time>2018-08-26T11:08:21Z</time>
      </trkpt>
      <trkpt lat="44.55681" lon="6.25828">
        <ele>899.08</ele>
        <time>2018-08-26T11:08:24Z</time>
      </trkpt>
      <trkpt lat="44.55694" lon="6.2579">
        <ele>897.45</ele>
        <time>2018-08-26T11:08:28Z</time>
      </trkpt>
      <trkpt lat="44.55704" lon="6.25756">
        <ele>898.12</ele>
        <time>2018-08-26T11:08:30Z</time>
      </trkpt>
      <trkpt lat="44.55722" lon="6.25723">
        <ele>899.09</ele>
        <time>2018-08-26T11:08:32Z</time>
      </trkpt>
      <trkpt lat="44.5574" lon="6.25692">
        <ele>902.12</ele>
        <time>2018-08-26T11:08:34Z</time>
      </trkpt>
      <trkpt lat="44.55758" lon="6.2566">
        <ele>902.39</ele>
        <time>2018-08-26T11:08:36Z</time>
      </trkpt>
      <trkpt lat="44.5578" lon="6.2563">
        <ele>902.63</ele>
        <time>2018-08-26T11:08:38Z</time>
      </trkpt>
      <trkpt lat="44.55803" lon="6.25602">
        <ele>901.53</ele>
        <time>2018-08-26T11:08:40Z</time>
      </trkpt>
      <trkpt lat="44.55817" lon="6.25565">
        <ele>903.25</ele>
        <time>2018-08-26T11:08:42Z</time>
      </trkpt>
      <trkpt lat="44.55831" lon="6.25526">
        <ele>905.93</ele>
        <time>2018-08-26T11:08:44Z</time>
      </trkpt>
      <trkpt lat="44.55842" lon="6.25485">
        <ele>907.78</ele>
        <time>2018-08-26T11:08:46Z</time>
      </trkpt>
      <trkpt lat="44.55854" lon="6.25446">
        <ele>910.88</ele>
        <time>2018-08-26T11:08:48Z</time>
      </trkpt>
      <trkpt lat="44.55867" lon="6.25406">
        <ele>914.8</ele>
        <time>2018-08-26T11:08:50Z</time>
      </trkpt>
      <trkpt lat="44.55885" lon="6.25377">
        <ele>917.89</ele>
        <time>2018-08-26T11:08:52Z</time>
      </trkpt>
      <trkpt lat="44.55909" lon="6.25352">
        <ele>920.89</ele>
        <time>2018-08-26T11:08:54Z</time>
      </trkpt>
      <trkpt lat="44.55929" lon="6.25331">
        <ele>923.89</ele>
        <time>2018-08-26T11:08:56Z</time>
      </trkpt>
      <trkpt lat="44.55943" lon="6.25312">
        <ele>925.98</ele>
        <time>2018-08-26T11:08:58Z</time>
      </trkpt>
      <trkpt lat="44.55952" lon="6.25279">
        <ele>926.41</ele>
        <time>2018-08-26T11:09:01Z</time>
      </trkpt>
      <trkpt lat="44.55974" lon="6.25267">
        <ele>927.33</ele>
        <time>2018-08-26T11:09:04Z</time>
      </trkpt>
      <trkpt lat="44.55997" lon="6.25263">
        <ele>928.32</ele>
        <time>2018-08-26T11:09:06Z</time>
      </trkpt>
      <trkpt lat="44.56022" lon="6.25254">
        <ele>929.32</ele>
        <time>2018-08-26T11:09:08Z</time>
      </trkpt>
      <trkpt lat="44.56048" lon="6.25248">
        <ele>929.41</ele>
        <time>2018-08-26T11:09:10Z</time>
      </trkpt>
      <trkpt lat="44.56068" lon="6.25242">
        <ele>930.33</ele>
        <time>2018-08-26T11:09:12Z</time>
      </trkpt>
      <trkpt lat="44.56077" lon="6.25212">
        <ele>928.52</ele>
        <time>2018-08-26T11:09:16Z</time>
      </trkpt>
      <trkpt lat="44.56071" lon="6.25176">
        <ele>931.07</ele>
        <time>2018-08-26T11:09:19Z</time>
      </trkpt>
      <trkpt lat="44.56076" lon="6.25148">
        <ele>933</ele>
        <time>2018-08-26T11:09:21Z</time>
      </trkpt>
      <trkpt lat="44.56087" lon="6.25121">
        <ele>936.6</ele>
        <time>2018-08-26T11:09:23Z</time>
      </trkpt>
      <trkpt lat="44.561" lon="6.25098">
        <ele>939.87</ele>
        <time>2018-08-26T11:09:25Z</time>
      </trkpt>
      <trkpt lat="44.56117" lon="6.25075">
        <ele>942.89</ele>
        <time>2018-08-26T11:09:27Z</time>
      </trkpt>
      <trkpt lat="44.56135" lon="6.25054">
        <ele>944.28</ele>
        <time>2018-08-26T11:09:29Z</time>
      </trkpt>
      <trkpt lat="44.56156" lon="6.2504">
        <ele>946.02</ele>
        <time>2018-08-26T11:09:31Z</time>
      </trkpt>
      <trkpt lat="44.56176" lon="6.25017">
        <ele>948.9</ele>
        <time>2018-08-26T11:09:33Z</time>
      </trkpt>
      <trkpt lat="44.56195" lon="6.24986">
        <ele>952.34</ele>
        <time>2018-08-26T11:09:35Z</time>
      </trkpt>
      <trkpt lat="44.56213" lon="6.2495">
        <ele>956.7</ele>
        <time>2018-08-26T11:09:37Z</time>
      </trkpt>
      <trkpt lat="44.56226" lon="6.24908">
        <ele>959.4</ele>
        <time>2018-08-26T11:09:39Z</time>
      </trkpt>
      <trkpt lat="44.56239" lon="6.24869">
        <ele>963.49</ele>
        <time>2018-08-26T11:09:41Z</time>
      </trkpt>
      <trkpt lat="44.5625" lon="6.2483">
        <ele>965.68</ele>
        <time>2018-08-26T11:09:43Z</time>
      </trkpt>
      <trkpt lat="44.56263" lon="6.24798">
        <ele>967.91</ele>
        <time>2018-08-26T11:09:45Z</time>
      </trkpt>
      <trkpt lat="44.56286" lon="6.2478">
        <ele>970.63</ele>
        <time>2018-08-26T11:09:47Z</time>
      </trkpt>
      <trkpt lat="44.56312" lon="6.24766">
        <ele>974.51</ele>
        <time>2018-08-26T11:09:49Z</time>
      </trkpt>
      <trkpt lat="44.56339" lon="6.2475">
        <ele>977.59</ele>
        <time>2018-08-26T11:09:51Z</time>
      </trkpt>
      <trkpt lat="44.56368" lon="6.24731">
        <ele>978.99</ele>
        <time>2018-08-26T11:09:53Z</time>
      </trkpt>
      <trkpt lat="44.564" lon="6.2471">
        <ele>980.94</ele>
        <time>2018-08-26T11:09:55Z</time>
      </trkpt>
      <trkpt lat="44.56417" lon="6.24697">
        <ele>981.93</ele>
        <time>2018-08-26T11:09:56Z</time>
      </trkpt>
      <trkpt lat="44.56433" lon="6.24684">
        <ele>982.93</ele>
        <time>2018-08-26T11:09:57Z</time>
      </trkpt>
      <trkpt lat="44.5645" lon="6.24671">
        <ele>983.23</ele>
        <time>2018-08-26T11:09:58Z</time>
      </trkpt>
      <trkpt lat="44.56467" lon="6.24659">
        <ele>984.02</ele>
        <time>2018-08-26T11:09:59Z</time>
      </trkpt>
      <trkpt lat="44.56484" lon="6.24647">
        <ele>984.26</ele>
        <time>2018-08-26T11:10:00Z</time>
      </trkpt>
      <trkpt lat="44.56501" lon="6.24637">
        <ele>985.03</ele>
        <time>2018-08-26T11:10:01Z</time>
      </trkpt>
      <trkpt lat="44.56532" lon="6.24621">
        <ele>986.94</ele>
        <time>2018-08-26T11:10:03Z</time>
      </trkpt>
      <trkpt lat="44.56562" lon="6.2461">
        <ele>989.63</ele>
        <time>2018-08-26T11:10:05Z</time>
      </trkpt>
      <trkpt lat="44.56592" lon="6.24599">
        <ele>990.29</ele>
        <time>2018-08-26T11:10:07Z</time>
      </trkpt>
      <trkpt lat="44.56624" lon="6.24585">
        <ele>991.26</ele>
        <time>2018-08-26T11:10:09Z</time>
      </trkpt>
      <trkpt lat="44.56656" lon="6.24566">
        <ele>992.96</ele>
        <time>2018-08-26T11:10:11Z</time>
      </trkpt>
      <trkpt lat="44.56687" lon="6.24545">
        <ele>994.02</ele>
        <time>2018-08-26T11:10:13Z</time>
      </trkpt>
      <trkpt lat="44.56715" lon="6.24528">
        <ele>995.24</ele>
        <time>2018-08-26T11:10:15Z</time>
      </trkpt>
      <trkpt lat="44.56737" lon="6.2451">
        <ele>996.96</ele>
        <time>2018-08-26T11:10:17Z</time>
      </trkpt>
      <trkpt lat="44.56758" lon="6.24479">
        <ele>998.23</ele>
        <time>2018-08-26T11:10:19Z</time>
      </trkpt>
      <trkpt lat="44.5678" lon="6.24447">
        <ele>1000.66</ele>
        <time>2018-08-26T11:10:21Z</time>
      </trkpt>
      <trkpt lat="44.568" lon="6.24418">
        <ele>1002.91</ele>
        <time>2018-08-26T11:10:23Z</time>
      </trkpt>
      <trkpt lat="44.56823" lon="6.24395">
        <ele>1004.02</ele>
        <time>2018-08-26T11:10:25Z</time>
      </trkpt>
      <trkpt lat="44.56844" lon="6.24372">
        <ele>1005.03</ele>
        <time>2018-08-26T11:10:27Z</time>
      </trkpt>
      <trkpt lat="44.56863" lon="6.24353">
        <ele>1004.42</ele>
        <time>2018-08-26T11:10:29Z</time>
      </trkpt>
      <trkpt lat="44.56883" lon="6.24343">
        <ele>1003.66</ele>
        <time>2018-08-26T11:10:32Z</time>
      </trkpt>
      <trkpt lat="44.56903" lon="6.24336">
        <ele>1003.37</ele>
        <time>2018-08-26T11:10:35Z</time>
      </trkpt>
      <trkpt lat="44.5692" lon="6.24322">
        <ele>1001.75</ele>
        <time>2018-08-26T11:10:38Z</time>
      </trkpt>
      <trkpt lat="44.56935" lon="6.24296">
        <ele>997.45</ele>
        <time>2018-08-26T11:10:41Z</time>
      </trkpt>
      <trkpt lat="44.56949" lon="6.24269">
        <ele>995.76</ele>
        <time>2018-08-26T11:10:43Z</time>
      </trkpt>
      <trkpt lat="44.56964" lon="6.24239">
        <ele>993.79</ele>
        <time>2018-08-26T11:10:45Z</time>
      </trkpt>
      <trkpt lat="44.5698" lon="6.24208">
        <ele>993.4</ele>
        <time>2018-08-26T11:10:47Z</time>
      </trkpt>
      <trkpt lat="44.56993" lon="6.24173">
        <ele>994.27</ele>
        <time>2018-08-26T11:10:49Z</time>
      </trkpt>
      <trkpt lat="44.57003" lon="6.24134">
        <ele>994.14</ele>
        <time>2018-08-26T11:10:51Z</time>
      </trkpt>
      <trkpt lat="44.57008" lon="6.24091">
        <ele>994.34</ele>
        <time>2018-08-26T11:10:53Z</time>
      </trkpt>
      <trkpt lat="44.57012" lon="6.24049">
        <ele>995.97</ele>
        <time>2018-08-26T11:10:55Z</time>
      </trkpt>
      <trkpt lat="44.57013" lon="6.24008">
        <ele>997.23</ele>
        <time>2018-08-26T11:10:57Z</time>
      </trkpt>
      <trkpt lat="44.57013" lon="6.23963">
        <ele>997.35</ele>
        <time>2018-08-26T11:10:59Z</time>
      </trkpt>
      <trkpt lat="44.57013" lon="6.2392">
        <ele>998.06</ele>
        <time>2018-08-26T11:11:01Z</time>
      </trkpt>
      <trkpt lat="44.57011" lon="6.2388">
        <ele>999.94</ele>
        <time>2018-08-26T11:11:03Z</time>
      </trkpt>
      <trkpt lat="44.57001" lon="6.23845">
        <ele>1001.93</ele>
        <time>2018-08-26T11:11:05Z</time>
      </trkpt>
      <trkpt lat="44.56992" lon="6.23815">
        <ele>1003.93</ele>
        <time>2018-08-26T11:11:07Z</time>
      </trkpt>
      <trkpt lat="44.5699" lon="6.23786">
        <ele>1004.32</ele>
        <time>2018-08-26T11:11:09Z</time>
      </trkpt>
      <trkpt lat="44.56993" lon="6.23758">
        <ele>1005.76</ele>
        <time>2018-08-26T11:11:11Z</time>
      </trkpt>
      <trkpt lat="44.57" lon="6.23732">
        <ele>1007.92</ele>
        <time>2018-08-26T11:11:13Z</time>
      </trkpt>
      <trkpt lat="44.57001" lon="6.23703">
        <ele>1009.93</ele>
        <time>2018-08-26T11:11:15Z</time>
      </trkpt>
      <trkpt lat="44.57002" lon="6.23672">
        <ele>1010.32</ele>
        <time>2018-08-26T11:11:17Z</time>
      </trkpt>
      <trkpt lat="44.57006" lon="6.23637">
        <ele>1010.36</ele>
        <time>2018-08-26T11:11:19Z</time>
      </trkpt>
      <trkpt lat="44.57016" lon="6.23599">
        <ele>1009.66</ele>
        <time>2018-08-26T11:11:21Z</time>
      </trkpt>
      <trkpt lat="44.57022" lon="6.23558">
        <ele>1008.69</ele>
        <time>2018-08-26T11:11:23Z</time>
      </trkpt>
      <trkpt lat="44.57024" lon="6.23517">
        <ele>1007.69</ele>
        <time>2018-08-26T11:11:25Z</time>
      </trkpt>
      <trkpt lat="44.57029" lon="6.23476">
        <ele>1007.39</ele>
        <time>2018-08-26T11:11:27Z</time>
      </trkpt>
      <trkpt lat="44.57043" lon="6.23443">
        <ele>1008.27</ele>
        <time>2018-08-26T11:11:29Z</time>
      </trkpt>
      <trkpt lat="44.57061" lon="6.23414">
        <ele>1009.96</ele>
        <time>2018-08-26T11:11:31Z</time>
      </trkpt>
      <trkpt lat="44.5708" lon="6.23383">
        <ele>1010.32</ele>
        <time>2018-08-26T11:11:33Z</time>
      </trkpt>
      <trkpt lat="44.57094" lon="6.23348">
        <ele>1010.36</ele>
        <time>2018-08-26T11:11:35Z</time>
      </trkpt>
      <trkpt lat="44.57105" lon="6.23311">
        <ele>1011.27</ele>
        <time>2018-08-26T11:11:37Z</time>
      </trkpt>
      <trkpt lat="44.5712" lon="6.23275">
        <ele>1010.65</ele>
        <time>2018-08-26T11:11:39Z</time>
      </trkpt>
      <trkpt lat="44.57135" lon="6.23239">
        <ele>1009.48</ele>
        <time>2018-08-26T11:11:41Z</time>
      </trkpt>
      <trkpt lat="44.57148" lon="6.23204">
        <ele>1010.28</ele>
        <time>2018-08-26T11:11:43Z</time>
      </trkpt>
      <trkpt lat="44.5716" lon="6.23174">
        <ele>1009.65</ele>
        <time>2018-08-26T11:11:45Z</time>
      </trkpt>
      <trkpt lat="44.57174" lon="6.23152">
        <ele>1010.3</ele>
        <time>2018-08-26T11:11:47Z</time>
      </trkpt>
      <trkpt lat="44.57192" lon="6.23138">
        <ele>1008.53</ele>
        <time>2018-08-26T11:11:49Z</time>
      </trkpt>
      <trkpt lat="44.57211" lon="6.23121">
        <ele>1008.38</ele>
        <time>2018-08-26T11:11:51Z</time>
      </trkpt>
      <trkpt lat="44.57227" lon="6.23099">
        <ele>1009.97</ele>
        <time>2018-08-26T11:11:53Z</time>
      </trkpt>
      <trkpt lat="44.57244" lon="6.2308">
        <ele>1010.35</ele>
        <time>2018-08-26T11:11:56Z</time>
      </trkpt>
      <trkpt lat="44.57258" lon="6.23055">
        <ele>1012.37</ele>
        <time>2018-08-26T11:12:07Z</time>
      </trkpt>
      <trkpt lat="44.5727" lon="6.23033">
        <ele>1011.66</ele>
        <time>2018-08-26T11:12:09Z</time>
      </trkpt>
      <trkpt lat="44.57281" lon="6.23011">
        <ele>1013.21</ele>
        <time>2018-08-26T11:12:11Z</time>
      </trkpt>
      <trkpt lat="44.57291" lon="6.22987">
        <ele>1014.26</ele>
        <time>2018-08-26T11:12:13Z</time>
      </trkpt>
      <trkpt lat="44.57299" lon="6.22958">
        <ele>1014.56</ele>
        <time>2018-08-26T11:12:15Z</time>
      </trkpt>
      <trkpt lat="44.57307" lon="6.22927">
        <ele>1013.68</ele>
        <time>2018-08-26T11:12:17Z</time>
      </trkpt>
      <trkpt lat="44.57315" lon="6.22894">
        <ele>1011.08</ele>
        <time>2018-08-26T11:12:19Z</time>
      </trkpt>
      <trkpt lat="44.57325" lon="6.22864">
        <ele>1008.81</ele>
        <time>2018-08-26T11:12:21Z</time>
      </trkpt>
      <trkpt lat="44.57339" lon="6.22836">
        <ele>1007.49</ele>
        <time>2018-08-26T11:12:23Z</time>
      </trkpt>
      <trkpt lat="44.57342" lon="6.22804">
        <ele>1005.55</ele>
        <time>2018-08-26T11:12:25Z</time>
      </trkpt>
      <trkpt lat="44.57336" lon="6.22771">
        <ele>1003.07</ele>
        <time>2018-08-26T11:12:27Z</time>
      </trkpt>
      <trkpt lat="44.57321" lon="6.22742">
        <ele>1000.11</ele>
        <time>2018-08-26T11:12:29Z</time>
      </trkpt>
      <trkpt lat="44.57312" lon="6.22715">
        <ele>997.82</ele>
        <time>2018-08-26T11:12:31Z</time>
      </trkpt>
      <trkpt lat="44.57311" lon="6.22685">
        <ele>994.88</ele>
        <time>2018-08-26T11:12:33Z</time>
      </trkpt>
      <trkpt lat="44.57318" lon="6.22651">
        <ele>993.5</ele>
        <time>2018-08-26T11:12:35Z</time>
      </trkpt>
      <trkpt lat="44.57324" lon="6.22615">
        <ele>991.06</ele>
        <time>2018-08-26T11:12:37Z</time>
      </trkpt>
      <trkpt lat="44.57323" lon="6.22578">
        <ele>988.81</ele>
        <time>2018-08-26T11:12:39Z</time>
      </trkpt>
      <trkpt lat="44.5732" lon="6.2254">
        <ele>985.88</ele>
        <time>2018-08-26T11:12:41Z</time>
      </trkpt>
      <trkpt lat="44.57322" lon="6.22504">
        <ele>984.5</ele>
        <time>2018-08-26T11:12:43Z</time>
      </trkpt>
      <trkpt lat="44.57324" lon="6.2247">
        <ele>980.45</ele>
        <time>2018-08-26T11:12:45Z</time>
      </trkpt>
      <trkpt lat="44.57325" lon="6.2244">
        <ele>977.85</ele>
        <time>2018-08-26T11:12:47Z</time>
      </trkpt>
      <trkpt lat="44.57339" lon="6.22411">
        <ele>975.49</ele>
        <time>2018-08-26T11:12:50Z</time>
      </trkpt>
      <trkpt lat="44.57357" lon="6.22392">
        <ele>972.78</ele>
        <time>2018-08-26T11:12:53Z</time>
      </trkpt>
      <trkpt lat="44.57371" lon="6.22374">
        <ele>971.45</ele>
        <time>2018-08-26T11:13:10Z</time>
      </trkpt>
      <trkpt lat="44.57377" lon="6.22349">
        <ele>971.36</ele>
        <time>2018-08-26T11:13:13Z</time>
      </trkpt>
      <trkpt lat="44.57391" lon="6.22322">
        <ele>973.03</ele>
        <time>2018-08-26T11:13:16Z</time>
      </trkpt>
      <trkpt lat="44.5741" lon="6.22334">
        <ele>974.32</ele>
        <time>2018-08-26T11:13:19Z</time>
      </trkpt>
      <trkpt lat="44.57417" lon="6.22368">
        <ele>976.88</ele>
        <time>2018-08-26T11:13:21Z</time>
      </trkpt>
      <trkpt lat="44.57435" lon="6.22402">
        <ele>979.84</ele>
        <time>2018-08-26T11:13:23Z</time>
      </trkpt>
      <trkpt lat="44.57458" lon="6.22432">
        <ele>980.52</ele>
        <time>2018-08-26T11:13:25Z</time>
      </trkpt>
      <trkpt lat="44.57494" lon="6.2245">
        <ele>981.98</ele>
        <time>2018-08-26T11:13:27Z</time>
      </trkpt>
      <trkpt lat="44.57515" lon="6.22453">
        <ele>984.35</ele>
        <time>2018-08-26T11:13:28Z</time>
      </trkpt>
      <trkpt lat="44.57547" lon="6.22472">
        <ele>987.58</ele>
        <time>2018-08-26T11:13:30Z</time>
      </trkpt>
      <trkpt lat="44.57572" lon="6.22499">
        <ele>991.3</ele>
        <time>2018-08-26T11:13:32Z</time>
      </trkpt>
      <trkpt lat="44.57596" lon="6.22514">
        <ele>992.26</ele>
        <time>2018-08-26T11:13:34Z</time>
      </trkpt>
      <trkpt lat="44.57614" lon="6.22509">
        <ele>992.35</ele>
        <time>2018-08-26T11:13:36Z</time>
      </trkpt>
      <trkpt lat="44.57619" lon="6.22465">
        <ele>991.88</ele>
        <time>2018-08-26T11:13:39Z</time>
      </trkpt>
      <trkpt lat="44.57602" lon="6.22427">
        <ele>994.84</ele>
        <time>2018-08-26T11:13:41Z</time>
      </trkpt>
      <trkpt lat="44.57572" lon="6.22386">
        <ele>998.32</ele>
        <time>2018-08-26T11:13:43Z</time>
      </trkpt>
      <trkpt lat="44.57559" lon="6.22367">
        <ele>1001.85</ele>
        <time>2018-08-26T11:13:44Z</time>
      </trkpt>
      <trkpt lat="44.57544" lon="6.22323">
        <ele>1005.53</ele>
        <time>2018-08-26T11:13:46Z</time>
      </trkpt>
      <trkpt lat="44.57536" lon="6.22274">
        <ele>1008.6</ele>
        <time>2018-08-26T11:13:48Z</time>
      </trkpt>
      <trkpt lat="44.57536" lon="6.22248">
        <ele>1011.23</ele>
        <time>2018-08-26T11:13:49Z</time>
      </trkpt>
      <trkpt lat="44.57538" lon="6.22221">
        <ele>1013.42</ele>
        <time>2018-08-26T11:13:50Z</time>
      </trkpt>
      <trkpt lat="44.57539" lon="6.22196">
        <ele>1016.18</ele>
        <time>2018-08-26T11:13:51Z</time>
      </trkpt>
      <trkpt lat="44.57544" lon="6.22169">
        <ele>1018.41</ele>
        <time>2018-08-26T11:13:52Z</time>
      </trkpt>
      <trkpt lat="44.57549" lon="6.22142">
        <ele>1020.47</ele>
        <time>2018-08-26T11:13:53Z</time>
      </trkpt>
      <trkpt lat="44.57552" lon="6.22116">
        <ele>1022.49</ele>
        <time>2018-08-26T11:13:54Z</time>
      </trkpt>
      <trkpt lat="44.57552" lon="6.22091">
        <ele>1024.5</ele>
        <time>2018-08-26T11:13:55Z</time>
      </trkpt>
      <trkpt lat="44.57545" lon="6.22049">
        <ele>1027.59</ele>
        <time>2018-08-26T11:13:57Z</time>
      </trkpt>
      <trkpt lat="44.5754" lon="6.22022">
        <ele>1029.2</ele>
        <time>2018-08-26T11:13:59Z</time>
      </trkpt>
      <trkpt lat="44.57553" lon="6.22002">
        <ele>1033</ele>
        <time>2018-08-26T11:14:03Z</time>
      </trkpt>
      <trkpt lat="44.57562" lon="6.22032">
        <ele>1035.15</ele>
        <time>2018-08-26T11:14:05Z</time>
      </trkpt>
      <trkpt lat="44.57571" lon="6.2207">
        <ele>1036.95</ele>
        <time>2018-08-26T11:14:07Z</time>
      </trkpt>
      <trkpt lat="44.57585" lon="6.2211">
        <ele>1039.63</ele>
        <time>2018-08-26T11:14:09Z</time>
      </trkpt>
      <trkpt lat="44.57604" lon="6.22145">
        <ele>1040.99</ele>
        <time>2018-08-26T11:14:11Z</time>
      </trkpt>
      <trkpt lat="44.57621" lon="6.2216">
        <ele>1042.65</ele>
        <time>2018-08-26T11:14:12Z</time>
      </trkpt>
      <trkpt lat="44.57648" lon="6.22189">
        <ele>1046.73</ele>
        <time>2018-08-26T11:14:14Z</time>
      </trkpt>
      <trkpt lat="44.57669" lon="6.22221">
        <ele>1048.91</ele>
        <time>2018-08-26T11:14:16Z</time>
      </trkpt>
      <trkpt lat="44.57678" lon="6.2226">
        <ele>1051.84</ele>
        <time>2018-08-26T11:14:18Z</time>
      </trkpt>
      <trkpt lat="44.5768" lon="6.22302">
        <ele>1054.83</ele>
        <time>2018-08-26T11:14:20Z</time>
      </trkpt>
      <trkpt lat="44.57687" lon="6.22331">
        <ele>1056.01</ele>
        <time>2018-08-26T11:14:22Z</time>
      </trkpt>
      <trkpt lat="44.57707" lon="6.2233">
        <ele>1058.93</ele>
        <time>2018-08-26T11:14:25Z</time>
      </trkpt>
      <trkpt lat="44.57713" lon="6.22302">
        <ele>1060.93</ele>
        <time>2018-08-26T11:14:27Z</time>
      </trkpt>
      <trkpt lat="44.57717" lon="6.22259">
        <ele>1063.84</ele>
        <time>2018-08-26T11:14:29Z</time>
      </trkpt>
      <trkpt lat="44.57722" lon="6.22235">
        <ele>1065.6</ele>
        <time>2018-08-26T11:14:30Z</time>
      </trkpt>
      <trkpt lat="44.57729" lon="6.22209">
        <ele>1066.83</ele>
        <time>2018-08-26T11:14:31Z</time>
      </trkpt>
      <trkpt lat="44.57737" lon="6.22184">
        <ele>1068.6</ele>
        <time>2018-08-26T11:14:32Z</time>
      </trkpt>
      <trkpt lat="44.57744" lon="6.22159">
        <ele>1071.23</ele>
        <time>2018-08-26T11:14:33Z</time>
      </trkpt>
      <trkpt lat="44.5775" lon="6.22134">
        <ele>1072.02</ele>
        <time>2018-08-26T11:14:34Z</time>
      </trkpt>
      <trkpt lat="44.57754" lon="6.22106">
        <ele>1073.66</ele>
        <time>2018-08-26T11:14:35Z</time>
      </trkpt>
      <trkpt lat="44.57755" lon="6.22079">
        <ele>1074.85</ele>
        <time>2018-08-26T11:14:36Z</time>
      </trkpt>
      <trkpt lat="44.57755" lon="6.22052">
        <ele>1075.91</ele>
        <time>2018-08-26T11:14:37Z</time>
      </trkpt>
      <trkpt lat="44.57756" lon="6.22026">
        <ele>1076.92</ele>
        <time>2018-08-26T11:14:38Z</time>
      </trkpt>
      <trkpt lat="44.57762" lon="6.21977">
        <ele>1079.84</ele>
        <time>2018-08-26T11:14:40Z</time>
      </trkpt>
      <trkpt lat="44.57769" lon="6.21952">
        <ele>1082.3</ele>
        <time>2018-08-26T11:14:41Z</time>
      </trkpt>
      <trkpt lat="44.57779" lon="6.21929">
        <ele>1083.74</ele>
        <time>2018-08-26T11:14:42Z</time>
      </trkpt>
      <trkpt lat="44.57789" lon="6.21906">
        <ele>1085.57</ele>
        <time>2018-08-26T11:14:43Z</time>
      </trkpt>
      <trkpt lat="44.578" lon="6.21883">
        <ele>1087.52</ele>
        <time>2018-08-26T11:14:44Z</time>
      </trkpt>
      <trkpt lat="44.57808" lon="6.21859">
        <ele>1088.11</ele>
        <time>2018-08-26T11:14:45Z</time>
      </trkpt>
      <trkpt lat="44.57814" lon="6.21834">
        <ele>1089.68</ele>
        <time>2018-08-26T11:14:46Z</time>
      </trkpt>
      <trkpt lat="44.57818" lon="6.21806">
        <ele>1092.26</ele>
        <time>2018-08-26T11:14:47Z</time>
      </trkpt>
      <trkpt lat="44.57821" lon="6.21779">
        <ele>1093.73</ele>
        <time>2018-08-26T11:14:48Z</time>
      </trkpt>
      <trkpt lat="44.57824" lon="6.21752">
        <ele>1094.17</ele>
        <time>2018-08-26T11:14:49Z</time>
      </trkpt>
      <trkpt lat="44.57825" lon="6.21723">
        <ele>1095</ele>
        <time>2018-08-26T11:14:50Z</time>
      </trkpt>
      <trkpt lat="44.57827" lon="6.21695">
        <ele>1095.95</ele>
        <time>2018-08-26T11:14:51Z</time>
      </trkpt>
      <trkpt lat="44.57826" lon="6.21667">
        <ele>1096.94</ele>
        <time>2018-08-26T11:14:52Z</time>
      </trkpt>
      <trkpt lat="44.57824" lon="6.2164">
        <ele>1097.93</ele>
        <time>2018-08-26T11:14:53Z</time>
      </trkpt>
      <trkpt lat="44.57821" lon="6.21591">
        <ele>1099.93</ele>
        <time>2018-08-26T11:14:55Z</time>
      </trkpt>
      <trkpt lat="44.57824" lon="6.21541">
        <ele>1101.02</ele>
        <time>2018-08-26T11:14:57Z</time>
      </trkpt>
      <trkpt lat="44.57827" lon="6.21514">
        <ele>1101.26</ele>
        <time>2018-08-26T11:14:58Z</time>
      </trkpt>
      <trkpt lat="44.57831" lon="6.21488">
        <ele>1102.73</ele>
        <time>2018-08-26T11:14:59Z</time>
      </trkpt>
      <trkpt lat="44.57835" lon="6.21463">
        <ele>1104.57</ele>
        <time>2018-08-26T11:15:00Z</time>
      </trkpt>
      <trkpt lat="44.57841" lon="6.21437">
        <ele>1106.52</ele>
        <time>2018-08-26T11:15:01Z</time>
      </trkpt>
      <trkpt lat="44.57848" lon="6.2141">
        <ele>1108.51</ele>
        <time>2018-08-26T11:15:02Z</time>
      </trkpt>
      <trkpt lat="44.57857" lon="6.21383">
        <ele>1110.5</ele>
        <time>2018-08-26T11:15:03Z</time>
      </trkpt>
      <trkpt lat="44.57866" lon="6.21356">
        <ele>1113.2</ele>
        <time>2018-08-26T11:15:04Z</time>
      </trkpt>
      <trkpt lat="44.57876" lon="6.21329">
        <ele>1115.41</ele>
        <time>2018-08-26T11:15:05Z</time>
      </trkpt>
      <trkpt lat="44.57886" lon="6.21303">
        <ele>1116.78</ele>
        <time>2018-08-26T11:15:06Z</time>
      </trkpt>
      <trkpt lat="44.57896" lon="6.21278">
        <ele>1118.58</ele>
        <time>2018-08-26T11:15:07Z</time>
      </trkpt>
      <trkpt lat="44.57905" lon="6.21255">
        <ele>1120.53</ele>
        <time>2018-08-26T11:15:08Z</time>
      </trkpt>
      <trkpt lat="44.57914" lon="6.21233">
        <ele>1121.11</ele>
        <time>2018-08-26T11:15:09Z</time>
      </trkpt>
      <trkpt lat="44.57919" lon="6.21188">
        <ele>1122.04</ele>
        <time>2018-08-26T11:15:11Z</time>
      </trkpt>
      <trkpt lat="44.57924" lon="6.2115">
        <ele>1123.94</ele>
        <time>2018-08-26T11:15:13Z</time>
      </trkpt>
      <trkpt lat="44.57939" lon="6.2113">
        <ele>1125.23</ele>
        <time>2018-08-26T11:15:15Z</time>
      </trkpt>
      <trkpt lat="44.57961" lon="6.21139">
        <ele>1126.75</ele>
        <time>2018-08-26T11:15:17Z</time>
      </trkpt>
      <trkpt lat="44.57973" lon="6.21166">
        <ele>1129.82</ele>
        <time>2018-08-26T11:15:19Z</time>
      </trkpt>
      <trkpt lat="44.57978" lon="6.21207">
        <ele>1131.92</ele>
        <time>2018-08-26T11:15:21Z</time>
      </trkpt>
      <trkpt lat="44.57984" lon="6.21253">
        <ele>1135.33</ele>
        <time>2018-08-26T11:15:23Z</time>
      </trkpt>
      <trkpt lat="44.57992" lon="6.213">
        <ele>1139.49</ele>
        <time>2018-08-26T11:15:25Z</time>
      </trkpt>
      <trkpt lat="44.5801" lon="6.21342">
        <ele>1142.8</ele>
        <time>2018-08-26T11:15:27Z</time>
      </trkpt>
      <trkpt lat="44.58034" lon="6.21377">
        <ele>1145.13</ele>
        <time>2018-08-26T11:15:29Z</time>
      </trkpt>
      <trkpt lat="44.58049" lon="6.21392">
        <ele>1145.99</ele>
        <time>2018-08-26T11:15:30Z</time>
      </trkpt>
      <trkpt lat="44.58071" lon="6.21405">
        <ele>1148.35</ele>
        <time>2018-08-26T11:15:31Z</time>
      </trkpt>
      <trkpt lat="44.58091" lon="6.21419">
        <ele>1150.46</ele>
        <time>2018-08-26T11:15:32Z</time>
      </trkpt>
      <trkpt lat="44.5811" lon="6.21433">
        <ele>1152.49</ele>
        <time>2018-08-26T11:15:33Z</time>
      </trkpt>
      <trkpt lat="44.58128" lon="6.21446">
        <ele>1153.8</ele>
        <time>2018-08-26T11:15:34Z</time>
      </trkpt>
      <trkpt lat="44.58146" lon="6.21459">
        <ele>1156.29</ele>
        <time>2018-08-26T11:15:35Z</time>
      </trkpt>
      <trkpt lat="44.58163" lon="6.21473">
        <ele>1157.74</ele>
        <time>2018-08-26T11:15:36Z</time>
      </trkpt>
      <trkpt lat="44.58186" lon="6.21506">
        <ele>1160.82</ele>
        <time>2018-08-26T11:15:38Z</time>
      </trkpt>
      <trkpt lat="44.58199" lon="6.21552">
        <ele>1163.83</ele>
        <time>2018-08-26T11:15:40Z</time>
      </trkpt>
      <trkpt lat="44.58205" lon="6.21578">
        <ele>1165.6</ele>
        <time>2018-08-26T11:15:41Z</time>
      </trkpt>
      <trkpt lat="44.58211" lon="6.21607">
        <ele>1167.53</ele>
        <time>2018-08-26T11:15:42Z</time>
      </trkpt>
      <trkpt lat="44.58218" lon="6.21636">
        <ele>1169.51</ele>
        <time>2018-08-26T11:15:43Z</time>
      </trkpt>
      <trkpt lat="44.58223" lon="6.21667">
        <ele>1171.51</ele>
        <time>2018-08-26T11:15:44Z</time>
      </trkpt>
      <trkpt lat="44.58227" lon="6.217">
        <ele>1173.5</ele>
        <time>2018-08-26T11:15:45Z</time>
      </trkpt>
      <trkpt lat="44.58229" lon="6.21734">
        <ele>1176.2</ele>
        <time>2018-08-26T11:15:46Z</time>
      </trkpt>
      <trkpt lat="44.58231" lon="6.21768">
        <ele>1177.71</ele>
        <time>2018-08-26T11:15:47Z</time>
      </trkpt>
      <trkpt lat="44.5823" lon="6.21801">
        <ele>1180.27</ele>
        <time>2018-08-26T11:15:48Z</time>
      </trkpt>
      <trkpt lat="44.58228" lon="6.21832">
        <ele>1181.73</ele>
        <time>2018-08-26T11:15:49Z</time>
      </trkpt>
      <trkpt lat="44.58223" lon="6.21859">
        <ele>1184.27</ele>
        <time>2018-08-26T11:15:50Z</time>
      </trkpt>
      <trkpt lat="44.58209" lon="6.21903">
        <ele>1186.17</ele>
        <time>2018-08-26T11:15:52Z</time>
      </trkpt>
      <trkpt lat="44.58204" lon="6.21931">
        <ele>1188.03</ele>
        <time>2018-08-26T11:15:55Z</time>
      </trkpt>
      <trkpt lat="44.58221" lon="6.21921">
        <ele>1189.05</ele>
        <time>2018-08-26T11:15:58Z</time>
      </trkpt>
      <trkpt lat="44.58236" lon="6.21891">
        <ele>1190.94</ele>
        <time>2018-08-26T11:16:00Z</time>
      </trkpt>
      <trkpt lat="44.5826" lon="6.21854">
        <ele>1194.54</ele>
        <time>2018-08-26T11:16:02Z</time>
      </trkpt>
      <trkpt lat="44.58283" lon="6.21815">
        <ele>1196.2</ele>
        <time>2018-08-26T11:16:04Z</time>
      </trkpt>
      <trkpt lat="44.58293" lon="6.21765">
        <ele>1200.06</ele>
        <time>2018-08-26T11:16:06Z</time>
      </trkpt>
      <trkpt lat="44.58298" lon="6.2174">
        <ele>1203.07</ele>
        <time>2018-08-26T11:16:07Z</time>
      </trkpt>
      <trkpt lat="44.58304" lon="6.21696">
        <ele>1205.15</ele>
        <time>2018-08-26T11:16:09Z</time>
      </trkpt>
      <trkpt lat="44.58323" lon="6.21676">
        <ele>1205.35</ele>
        <time>2018-08-26T11:16:12Z</time>
      </trkpt>
      <trkpt lat="44.58333" lon="6.21698">
        <ele>1206.27</ele>
        <time>2018-08-26T11:16:14Z</time>
      </trkpt>
      <trkpt lat="44.5834" lon="6.21735">
        <ele>1207.96</ele>
        <time>2018-08-26T11:16:16Z</time>
      </trkpt>
      <trkpt lat="44.58346" lon="6.21781">
        <ele>1209.93</ele>
        <time>2018-08-26T11:16:18Z</time>
      </trkpt>
      <trkpt lat="44.58348" lon="6.21807">
        <ele>1211.63</ele>
        <time>2018-08-26T11:16:19Z</time>
      </trkpt>
      <trkpt lat="44.58347" lon="6.21834">
        <ele>1212.84</ele>
        <time>2018-08-26T11:16:20Z</time>
      </trkpt>
      <trkpt lat="44.58346" lon="6.21861">
        <ele>1213.9</ele>
        <time>2018-08-26T11:16:21Z</time>
      </trkpt>
      <trkpt lat="44.58346" lon="6.21887">
        <ele>1214.22</ele>
        <time>2018-08-26T11:16:22Z</time>
      </trkpt>
      <trkpt lat="44.58344" lon="6.2193">
        <ele>1216.87</ele>
        <time>2018-08-26T11:16:24Z</time>
      </trkpt>
      <trkpt lat="44.58349" lon="6.21957">
        <ele>1218.93</ele>
        <time>2018-08-26T11:16:26Z</time>
      </trkpt>
      <trkpt lat="44.58362" lon="6.2198">
        <ele>1220.93</ele>
        <time>2018-08-26T11:16:28Z</time>
      </trkpt>
      <trkpt lat="44.58377" lon="6.22001">
        <ele>1222.93</ele>
        <time>2018-08-26T11:16:30Z</time>
      </trkpt>
      <trkpt lat="44.58391" lon="6.22026">
        <ele>1224.02</ele>
        <time>2018-08-26T11:16:32Z</time>
      </trkpt>
      <trkpt lat="44.58407" lon="6.22042">
        <ele>1224.33</ele>
        <time>2018-08-26T11:16:34Z</time>
      </trkpt>
      <trkpt lat="44.58434" lon="6.2204">
        <ele>1225.97</ele>
        <time>2018-08-26T11:16:36Z</time>
      </trkpt>
      <trkpt lat="44.58462" lon="6.22034">
        <ele>1226.32</ele>
        <time>2018-08-26T11:16:38Z</time>
      </trkpt>
      <trkpt lat="44.58493" lon="6.22028">
        <ele>1227.06</ele>
        <time>2018-08-26T11:16:40Z</time>
      </trkpt>
      <trkpt lat="44.58526" lon="6.22033">
        <ele>1228.24</ele>
        <time>2018-08-26T11:16:42Z</time>
      </trkpt>
      <trkpt lat="44.58555" lon="6.22048">
        <ele>1230.87</ele>
        <time>2018-08-26T11:16:44Z</time>
      </trkpt>
      <trkpt lat="44.58583" lon="6.22054">
        <ele>1232.23</ele>
        <time>2018-08-26T11:16:46Z</time>
      </trkpt>
      <trkpt lat="44.58614" lon="6.22058">
        <ele>1233.96</ele>
        <time>2018-08-26T11:16:48Z</time>
      </trkpt>
      <trkpt lat="44.5864" lon="6.22075">
        <ele>1236.84</ele>
        <time>2018-08-26T11:16:50Z</time>
      </trkpt>
      <trkpt lat="44.58667" lon="6.22087">
        <ele>1237.8</ele>
        <time>2018-08-26T11:16:52Z</time>
      </trkpt>
      <trkpt lat="44.58695" lon="6.22093">
        <ele>1240.83</ele>
        <time>2018-08-26T11:16:54Z</time>
      </trkpt>
      <trkpt lat="44.58722" lon="6.22093">
        <ele>1244.53</ele>
        <time>2018-08-26T11:16:56Z</time>
      </trkpt>
      <trkpt lat="44.58751" lon="6.22082">
        <ele>1246.2</ele>
        <time>2018-08-26T11:16:58Z</time>
      </trkpt>
      <trkpt lat="44.58775" lon="6.22076">
        <ele>1248.17</ele>
        <time>2018-08-26T11:17:00Z</time>
      </trkpt>
      <trkpt lat="44.58799" lon="6.2207">
        <ele>1250.86</ele>
        <time>2018-08-26T11:17:02Z</time>
      </trkpt>
      <trkpt lat="44.58815" lon="6.22056">
        <ele>1250.83</ele>
        <time>2018-08-26T11:17:04Z</time>
      </trkpt>
      <trkpt lat="44.58833" lon="6.22049">
        <ele>1252.01</ele>
        <time>2018-08-26T11:17:06Z</time>
      </trkpt>
      <trkpt lat="44.58859" lon="6.22064">
        <ele>1253.03</ele>
        <time>2018-08-26T11:17:08Z</time>
      </trkpt>
      <trkpt lat="44.58886" lon="6.22074">
        <ele>1256.76</ele>
        <time>2018-08-26T11:17:10Z</time>
      </trkpt>
      <trkpt lat="44.58919" lon="6.22083">
        <ele>1261.23</ele>
        <time>2018-08-26T11:17:12Z</time>
      </trkpt>
      <trkpt lat="44.58937" lon="6.22091">
        <ele>1263.42</ele>
        <time>2018-08-26T11:17:13Z</time>
      </trkpt>
      <trkpt lat="44.58955" lon="6.22098">
        <ele>1265.48</ele>
        <time>2018-08-26T11:17:14Z</time>
      </trkpt>
      <trkpt lat="44.58973" lon="6.22106">
        <ele>1266.8</ele>
        <time>2018-08-26T11:17:15Z</time>
      </trkpt>
      <trkpt lat="44.59007" lon="6.2212">
        <ele>1268.92</ele>
        <time>2018-08-26T11:17:17Z</time>
      </trkpt>
      <trkpt lat="44.5904" lon="6.22134">
        <ele>1272.54</ele>
        <time>2018-08-26T11:17:19Z</time>
      </trkpt>
      <trkpt lat="44.59073" lon="6.22152">
        <ele>1275.81</ele>
        <time>2018-08-26T11:17:21Z</time>
      </trkpt>
      <trkpt lat="44.59107" lon="6.2217">
        <ele>1277.92</ele>
        <time>2018-08-26T11:17:23Z</time>
      </trkpt>
      <trkpt lat="44.59134" lon="6.22194">
        <ele>1279.02</ele>
        <time>2018-08-26T11:17:25Z</time>
      </trkpt>
      <trkpt lat="44.59152" lon="6.22225">
        <ele>1281.64</ele>
        <time>2018-08-26T11:17:27Z</time>
      </trkpt>
      <trkpt lat="44.5917" lon="6.22261">
        <ele>1284.61</ele>
        <time>2018-08-26T11:17:29Z</time>
      </trkpt>
      <trkpt lat="44.59183" lon="6.22301">
        <ele>1287.81</ele>
        <time>2018-08-26T11:17:31Z</time>
      </trkpt>
      <trkpt lat="44.59185" lon="6.22336">
        <ele>1290.62</ele>
        <time>2018-08-26T11:17:33Z</time>
      </trkpt>
      <trkpt lat="44.59182" lon="6.22371">
        <ele>1291.5</ele>
        <time>2018-08-26T11:17:35Z</time>
      </trkpt>
      <trkpt lat="44.59173" lon="6.22401">
        <ele>1292.07</ele>
        <time>2018-08-26T11:17:37Z</time>
      </trkpt>
      <trkpt lat="44.59184" lon="6.22426">
        <ele>1298.99</ele>
        <time>2018-08-26T11:17:43Z</time>
      </trkpt>
      <trkpt lat="44.59205" lon="6.22402">
        <ele>1300.24</ele>
        <time>2018-08-26T11:17:45Z</time>
      </trkpt>
      <trkpt lat="44.59222" lon="6.22372">
        <ele>1301.05</ele>
        <time>2018-08-26T11:17:47Z</time>
      </trkpt>
      <trkpt lat="44.5924" lon="6.22362">
        <ele>1304.55</ele>
        <time>2018-08-26T11:17:49Z</time>
      </trkpt>
      <trkpt lat="44.5926" lon="6.22381">
        <ele>1306.04</ele>
        <time>2018-08-26T11:17:52Z</time>
      </trkpt>
      <trkpt lat="44.59252" lon="6.22417">
        <ele>1307.73</ele>
        <time>2018-08-26T11:17:54Z</time>
      </trkpt>
      <trkpt lat="44.59242" lon="6.22457">
        <ele>1309.21</ele>
        <time>2018-08-26T11:17:56Z</time>
      </trkpt>
      <trkpt lat="44.59237" lon="6.22494">
        <ele>1310.96</ele>
        <time>2018-08-26T11:17:58Z</time>
      </trkpt>
      <trkpt lat="44.59234" lon="6.22522">
        <ele>1313.14</ele>
        <time>2018-08-26T11:18:00Z</time>
      </trkpt>
      <trkpt lat="44.5925" lon="6.22537">
        <ele>1315.65</ele>
        <time>2018-08-26T11:18:02Z</time>
      </trkpt>
      <trkpt lat="44.59278" lon="6.2254">
        <ele>1315.18</ele>
        <time>2018-08-26T11:18:04Z</time>
      </trkpt>
      <trkpt lat="44.59309" lon="6.22519">
        <ele>1316</ele>
        <time>2018-08-26T11:18:05Z</time>
      </trkpt>
      <trkpt lat="44.59328" lon="6.22516">
        <ele>1316.95</ele>
        <time>2018-08-26T11:18:06Z</time>
      </trkpt>
      <trkpt lat="44.59348" lon="6.22509">
        <ele>1318.64</ele>
        <time>2018-08-26T11:18:07Z</time>
      </trkpt>
      <trkpt lat="44.59367" lon="6.22495">
        <ele>1317.74</ele>
        <time>2018-08-26T11:18:08Z</time>
      </trkpt>
      <trkpt lat="44.59382" lon="6.2248">
        <ele>1318.88</ele>
        <time>2018-08-26T11:18:09Z</time>
      </trkpt>
      <trkpt lat="44.59397" lon="6.22466">
        <ele>1319.21</ele>
        <time>2018-08-26T11:18:10Z</time>
      </trkpt>
      <trkpt lat="44.59423" lon="6.22439">
        <ele>1323.69</ele>
        <time>2018-08-26T11:18:12Z</time>
      </trkpt>
      <trkpt lat="44.59443" lon="6.2241">
        <ele>1326.61</ele>
        <time>2018-08-26T11:18:14Z</time>
      </trkpt>
      <trkpt lat="44.59447" lon="6.22376">
        <ele>1330.23</ele>
        <time>2018-08-26T11:18:16Z</time>
      </trkpt>
      <trkpt lat="44.59455" lon="6.22346">
        <ele>1334.55</ele>
        <time>2018-08-26T11:18:19Z</time>
      </trkpt>
      <trkpt lat="44.59465" lon="6.22382">
        <ele>1340.57</ele>
        <time>2018-08-26T11:18:24Z</time>
      </trkpt>
      <trkpt lat="44.59471" lon="6.22407">
        <ele>1343.22</ele>
        <time>2018-08-26T11:18:25Z</time>
      </trkpt>
      <trkpt lat="44.59481" lon="6.2243">
        <ele>1346.82</ele>
        <time>2018-08-26T11:18:26Z</time>
      </trkpt>
      <trkpt lat="44.59498" lon="6.22477">
        <ele>1350.74</ele>
        <time>2018-08-26T11:18:28Z</time>
      </trkpt>
      <trkpt lat="44.59505" lon="6.22501">
        <ele>1352.57</ele>
        <time>2018-08-26T11:18:29Z</time>
      </trkpt>
      <trkpt lat="44.59511" lon="6.22527">
        <ele>1353.82</ele>
        <time>2018-08-26T11:18:30Z</time>
      </trkpt>
      <trkpt lat="44.59514" lon="6.22575">
        <ele>1354.8</ele>
        <time>2018-08-26T11:18:32Z</time>
      </trkpt>
      <trkpt lat="44.59515" lon="6.22619">
        <ele>1356.71</ele>
        <time>2018-08-26T11:18:34Z</time>
      </trkpt>
      <trkpt lat="44.59501" lon="6.2266">
        <ele>1359.82</ele>
        <time>2018-08-26T11:18:36Z</time>
      </trkpt>
      <trkpt lat="44.59486" lon="6.22696">
        <ele>1365.35</ele>
        <time>2018-08-26T11:18:38Z</time>
      </trkpt>
      <trkpt lat="44.59471" lon="6.22726">
        <ele>1367.88</ele>
        <time>2018-08-26T11:18:40Z</time>
      </trkpt>
      <trkpt lat="44.59458" lon="6.22755">
        <ele>1377.28</ele>
        <time>2018-08-26T11:18:43Z</time>
      </trkpt>
      <trkpt lat="44.59464" lon="6.22779">
        <ele>1379.87</ele>
        <time>2018-08-26T11:18:45Z</time>
      </trkpt>
      <trkpt lat="44.5948" lon="6.22802">
        <ele>1382.63</ele>
        <time>2018-08-26T11:18:47Z</time>
      </trkpt>
      <trkpt lat="44.59497" lon="6.22828">
        <ele>1384.2</ele>
        <time>2018-08-26T11:18:49Z</time>
      </trkpt>
      <trkpt lat="44.5952" lon="6.22862">
        <ele>1385.05</ele>
        <time>2018-08-26T11:18:51Z</time>
      </trkpt>
      <trkpt lat="44.59537" lon="6.22892">
        <ele>1387.85</ele>
        <time>2018-08-26T11:18:53Z</time>
      </trkpt>
      <trkpt lat="44.59561" lon="6.22916">
        <ele>1390.83</ele>
        <time>2018-08-26T11:18:55Z</time>
      </trkpt>
      <trkpt lat="44.59591" lon="6.22937">
        <ele>1394.95</ele>
        <time>2018-08-26T11:18:57Z</time>
      </trkpt>
      <trkpt lat="44.59621" lon="6.22959">
        <ele>1396.23</ele>
        <time>2018-08-26T11:18:59Z</time>
      </trkpt>
      <trkpt lat="44.59636" lon="6.22973">
        <ele>1397.02</ele>
        <time>2018-08-26T11:19:00Z</time>
      </trkpt>
      <trkpt lat="44.5965" lon="6.22988">
        <ele>1397.96</ele>
        <time>2018-08-26T11:19:01Z</time>
      </trkpt>
      <trkpt lat="44.5967" lon="6.23012">
        <ele>1398.94</ele>
        <time>2018-08-26T11:19:02Z</time>
      </trkpt>
      <trkpt lat="44.59678" lon="6.2304">
        <ele>1401.33</ele>
        <time>2018-08-26T11:19:03Z</time>
      </trkpt>
      <trkpt lat="44.59696" lon="6.23072">
        <ele>1402.97</ele>
        <time>2018-08-26T11:19:05Z</time>
      </trkpt>
      <trkpt lat="44.59704" lon="6.23096">
        <ele>1404.64</ele>
        <time>2018-08-26T11:19:06Z</time>
      </trkpt>
      <trkpt lat="44.59715" lon="6.2314">
        <ele>1406.42</ele>
        <time>2018-08-26T11:19:08Z</time>
      </trkpt>
      <trkpt lat="44.59729" lon="6.23167">
        <ele>1409.58</ele>
        <time>2018-08-26T11:19:10Z</time>
      </trkpt>
      <trkpt lat="44.59747" lon="6.23185">
        <ele>1411.2</ele>
        <time>2018-08-26T11:19:12Z</time>
      </trkpt>
      <trkpt lat="44.59768" lon="6.23171">
        <ele>1411.14</ele>
        <time>2018-08-26T11:19:14Z</time>
      </trkpt>
      <trkpt lat="44.59789" lon="6.2315">
        <ele>1412.04</ele>
        <time>2018-08-26T11:19:16Z</time>
      </trkpt>
      <trkpt lat="44.59798" lon="6.23109">
        <ele>1413.73</ele>
        <time>2018-08-26T11:19:18Z</time>
      </trkpt>
      <trkpt lat="44.59794" lon="6.23084">
        <ele>1415.57</ele>
        <time>2018-08-26T11:19:19Z</time>
      </trkpt>
      <trkpt lat="44.59798" lon="6.23039">
        <ele>1419.3</ele>
        <time>2018-08-26T11:19:21Z</time>
      </trkpt>
      <trkpt lat="44.59801" lon="6.23003">
        <ele>1423.48</ele>
        <time>2018-08-26T11:19:23Z</time>
      </trkpt>
      <trkpt lat="44.59799" lon="6.22965">
        <ele>1428.62</ele>
        <time>2018-08-26T11:19:25Z</time>
      </trkpt>
      <trkpt lat="44.59787" lon="6.22925">
        <ele>1434.82</ele>
        <time>2018-08-26T11:19:27Z</time>
      </trkpt>
      <trkpt lat="44.59777" lon="6.22886">
        <ele>1438.74</ele>
        <time>2018-08-26T11:19:29Z</time>
      </trkpt>
      <trkpt lat="44.59777" lon="6.22844">
        <ele>1442.73</ele>
        <time>2018-08-26T11:19:31Z</time>
      </trkpt>
      <trkpt lat="44.59781" lon="6.22798">
        <ele>1449.04</ele>
        <time>2018-08-26T11:19:33Z</time>
      </trkpt>
      <trkpt lat="44.59784" lon="6.2277">
        <ele>1451.37</ele>
        <time>2018-08-26T11:19:34Z</time>
      </trkpt>
      <trkpt lat="44.59785" lon="6.22722">
        <ele>1454.37</ele>
        <time>2018-08-26T11:19:36Z</time>
      </trkpt>
      <trkpt lat="44.59784" lon="6.22693">
        <ele>1457.86</ele>
        <time>2018-08-26T11:19:37Z</time>
      </trkpt>
      <trkpt lat="44.59785" lon="6.22666">
        <ele>1460.31</ele>
        <time>2018-08-26T11:19:38Z</time>
      </trkpt>
      <trkpt lat="44.59785" lon="6.22637">
        <ele>1462.45</ele>
        <time>2018-08-26T11:19:39Z</time>
      </trkpt>
      <trkpt lat="44.59784" lon="6.22607">
        <ele>1464.49</ele>
        <time>2018-08-26T11:19:40Z</time>
      </trkpt>
      <trkpt lat="44.59788" lon="6.2258">
        <ele>1466.5</ele>
        <time>2018-08-26T11:19:41Z</time>
      </trkpt>
      <trkpt lat="44.59787" lon="6.22552">
        <ele>1469.2</ele>
        <time>2018-08-26T11:19:42Z</time>
      </trkpt>
      <trkpt lat="44.59782" lon="6.22503">
        <ele>1473.48</ele>
        <time>2018-08-26T11:19:44Z</time>
      </trkpt>
      <trkpt lat="44.59777" lon="6.22479">
        <ele>1477.59</ele>
        <time>2018-08-26T11:19:45Z</time>
      </trkpt>
      <trkpt lat="44.59767" lon="6.22435">
        <ele>1484.03</ele>
        <time>2018-08-26T11:19:47Z</time>
      </trkpt>
      <trkpt lat="44.59764" lon="6.22398">
        <ele>1489.16</ele>
        <time>2018-08-26T11:19:49Z</time>
      </trkpt>
      <trkpt lat="44.59767" lon="6.22372">
        <ele>1494.17</ele>
        <time>2018-08-26T11:19:51Z</time>
      </trkpt>
      <trkpt lat="44.5979" lon="6.22349">
        <ele>1503.01</ele>
        <time>2018-08-26T11:19:54Z</time>
      </trkpt>
      <trkpt lat="44.59819" lon="6.22335">
        <ele>1508.16</ele>
        <time>2018-08-26T11:19:56Z</time>
      </trkpt>
      <trkpt lat="44.59838" lon="6.22329">
        <ele>1510.4</ele>
        <time>2018-08-26T11:19:57Z</time>
      </trkpt>
      <trkpt lat="44.59871" lon="6.22315">
        <ele>1515.4</ele>
        <time>2018-08-26T11:19:59Z</time>
      </trkpt>
      <trkpt lat="44.59898" lon="6.22298">
        <ele>1516.97</ele>
        <time>2018-08-26T11:20:01Z</time>
      </trkpt>
      <trkpt lat="44.59911" lon="6.22257">
        <ele>1524.19</ele>
        <time>2018-08-26T11:20:03Z</time>
      </trkpt>
      <trkpt lat="44.59924" lon="6.22223">
        <ele>1528.68</ele>
        <time>2018-08-26T11:20:05Z</time>
      </trkpt>
      <trkpt lat="44.59925" lon="6.22185">
        <ele>1531.61</ele>
        <time>2018-08-26T11:20:07Z</time>
      </trkpt>
      <trkpt lat="44.59918" lon="6.22145">
        <ele>1536.42</ele>
        <time>2018-08-26T11:20:09Z</time>
      </trkpt>
      <trkpt lat="44.59917" lon="6.22102">
        <ele>1538.89</ele>
        <time>2018-08-26T11:20:11Z</time>
      </trkpt>
      <trkpt lat="44.59926" lon="6.22057">
        <ele>1544.15</ele>
        <time>2018-08-26T11:20:13Z</time>
      </trkpt>
      <trkpt lat="44.59935" lon="6.22015">
        <ele>1548.47</ele>
        <time>2018-08-26T11:20:15Z</time>
      </trkpt>
      <trkpt lat="44.59943" lon="6.2198">
        <ele>1551.59</ele>
        <time>2018-08-26T11:20:17Z</time>
      </trkpt>
      <trkpt lat="44.59948" lon="6.21953">
        <ele>1554.11</ele>
        <time>2018-08-26T11:20:19Z</time>
      </trkpt>
      <trkpt lat="44.59969" lon="6.21943">
        <ele>1558.91</ele>
        <time>2018-08-26T11:20:23Z</time>
      </trkpt>
      <trkpt lat="44.5997" lon="6.21973">
        <ele>1561.02</ele>
        <time>2018-08-26T11:20:26Z</time>
      </trkpt>
      <trkpt lat="44.59964" lon="6.21998">
        <ele>1562.24</ele>
        <time>2018-08-26T11:20:28Z</time>
      </trkpt>
      <trkpt lat="44.59965" lon="6.22024">
        <ele>1563.96</ele>
        <time>2018-08-26T11:20:30Z</time>
      </trkpt>
      <trkpt lat="44.59973" lon="6.22047">
        <ele>1565.23</ele>
        <time>2018-08-26T11:20:32Z</time>
      </trkpt>
      <trkpt lat="44.59993" lon="6.22068">
        <ele>1566.33</ele>
        <time>2018-08-26T11:20:35Z</time>
      </trkpt>
      <trkpt lat="44.60011" lon="6.22072">
        <ele>1567.33</ele>
        <time>2018-08-26T11:20:38Z</time>
      </trkpt>
      <trkpt lat="44.60033" lon="6.22062">
        <ele>1571.33</ele>
        <time>2018-08-26T11:20:59Z</time>
      </trkpt>
      <trkpt lat="44.60055" lon="6.22049">
        <ele>1572.33</ele>
        <time>2018-08-26T11:21:02Z</time>
      </trkpt>
      <trkpt lat="44.60078" lon="6.22034">
        <ele>1573.06</ele>
        <time>2018-08-26T11:21:05Z</time>
      </trkpt>
      <trkpt lat="44.601" lon="6.22022">
        <ele>1574.26</ele>
        <time>2018-08-26T11:21:08Z</time>
      </trkpt>
      <trkpt lat="44.60118" lon="6.22012">
        <ele>1574.08</ele>
        <time>2018-08-26T11:21:11Z</time>
      </trkpt>
      <trkpt lat="44.60135" lon="6.22004">
        <ele>1573.64</ele>
        <time>2018-08-26T11:21:13Z</time>
      </trkpt>
      <trkpt lat="44.60157" lon="6.21994">
        <ele>1572.68</ele>
        <time>2018-08-26T11:21:15Z</time>
      </trkpt>
      <trkpt lat="44.60183" lon="6.21984">
        <ele>1571.69</ele>
        <time>2018-08-26T11:21:17Z</time>
      </trkpt>
      <trkpt lat="44.60209" lon="6.21974">
        <ele>1569.78</ele>
        <time>2018-08-26T11:21:19Z</time>
      </trkpt>
      <trkpt lat="44.60238" lon="6.21964">
        <ele>1568.7</ele>
        <time>2018-08-26T11:21:21Z</time>
      </trkpt>
      <trkpt lat="44.60268" lon="6.21956">
        <ele>1567.69</ele>
        <time>2018-08-26T11:21:23Z</time>
      </trkpt>
      <trkpt lat="44.60296" lon="6.21949">
        <ele>1565.78</ele>
        <time>2018-08-26T11:21:25Z</time>
      </trkpt>
      <trkpt lat="44.60323" lon="6.21944">
        <ele>1563.79</ele>
        <time>2018-08-26T11:21:27Z</time>
      </trkpt>
      <trkpt lat="44.6035" lon="6.2194">
        <ele>1561.79</ele>
        <time>2018-08-26T11:21:29Z</time>
      </trkpt>
      <trkpt lat="44.60376" lon="6.21937">
        <ele>1559.79</ele>
        <time>2018-08-26T11:21:31Z</time>
      </trkpt>
      <trkpt lat="44.60398" lon="6.21934">
        <ele>1557.09</ele>
        <time>2018-08-26T11:21:33Z</time>
      </trkpt>
      <trkpt lat="44.60418" lon="6.21932">
        <ele>1555.73</ele>
        <time>2018-08-26T11:21:35Z</time>
      </trkpt>
      <trkpt lat="44.60436" lon="6.21927">
        <ele>1554.48</ele>
        <time>2018-08-26T11:21:37Z</time>
      </trkpt>
      <trkpt lat="44.60453" lon="6.21916">
        <ele>1554.37</ele>
        <time>2018-08-26T11:21:39Z</time>
      </trkpt>
      <trkpt lat="44.60469" lon="6.21901">
        <ele>1553.45</ele>
        <time>2018-08-26T11:21:41Z</time>
      </trkpt>
      <trkpt lat="44.60487" lon="6.21888">
        <ele>1551.06</ele>
        <time>2018-08-26T11:21:43Z</time>
      </trkpt>
      <trkpt lat="44.60507" lon="6.21882">
        <ele>1549.51</ele>
        <time>2018-08-26T11:21:45Z</time>
      </trkpt>
      <trkpt lat="44.60528" lon="6.21882">
        <ele>1547.76</ele>
        <time>2018-08-26T11:21:47Z</time>
      </trkpt>
      <trkpt lat="44.6055" lon="6.21888">
        <ele>1545.79</ele>
        <time>2018-08-26T11:21:49Z</time>
      </trkpt>
      <trkpt lat="44.60573" lon="6.21895">
        <ele>1544.7</ele>
        <time>2018-08-26T11:21:51Z</time>
      </trkpt>
      <trkpt lat="44.60595" lon="6.21901">
        <ele>1542.78</ele>
        <time>2018-08-26T11:21:53Z</time>
      </trkpt>
      <trkpt lat="44.60617" lon="6.21907">
        <ele>1540.79</ele>
        <time>2018-08-26T11:21:55Z</time>
      </trkpt>
      <trkpt lat="44.60639" lon="6.21912">
        <ele>1539.7</ele>
        <time>2018-08-26T11:21:57Z</time>
      </trkpt>
      <trkpt lat="44.6066" lon="6.2192">
        <ele>1537.57</ele>
        <time>2018-08-26T11:21:59Z</time>
      </trkpt>
      <trkpt lat="44.60676" lon="6.21935">
        <ele>1535.77</ele>
        <time>2018-08-26T11:22:01Z</time>
      </trkpt>
      <trkpt lat="44.60692" lon="6.21951">
        <ele>1533.79</ele>
        <time>2018-08-26T11:22:03Z</time>
      </trkpt>
      <trkpt lat="44.6071" lon="6.21957">
        <ele>1532.49</ele>
        <time>2018-08-26T11:22:05Z</time>
      </trkpt>
      <trkpt lat="44.60728" lon="6.21932">
        <ele>1530.48</ele>
        <time>2018-08-26T11:22:08Z</time>
      </trkpt>
      <trkpt lat="44.60728" lon="6.21899">
        <ele>1529.46</ele>
        <time>2018-08-26T11:22:10Z</time>
      </trkpt>
      <trkpt lat="44.60725" lon="6.21868">
        <ele>1527.55</ele>
        <time>2018-08-26T11:22:12Z</time>
      </trkpt>
      <trkpt lat="44.60731" lon="6.2184">
        <ele>1524.86</ele>
        <time>2018-08-26T11:22:14Z</time>
      </trkpt>
      <trkpt lat="44.60745" lon="6.21823">
        <ele>1522.79</ele>
        <time>2018-08-26T11:22:16Z</time>
      </trkpt>
      <trkpt lat="44.60756" lon="6.21791">
        <ele>1520.7</ele>
        <time>2018-08-26T11:22:19Z</time>
      </trkpt>
      <trkpt lat="44.60737" lon="6.21763">
        <ele>1518.76</ele>
        <time>2018-08-26T11:22:22Z</time>
      </trkpt>
      <trkpt lat="44.60718" lon="6.21748">
        <ele>1517</ele>
        <time>2018-08-26T11:22:24Z</time>
      </trkpt>
      <trkpt lat="44.60708" lon="6.21721">
        <ele>1513.79</ele>
        <time>2018-08-26T11:22:27Z</time>
      </trkpt>
      <trkpt lat="44.6073" lon="6.21706">
        <ele>1513.31</ele>
        <time>2018-08-26T11:22:30Z</time>
      </trkpt>
      <trkpt lat="44.60744" lon="6.21689">
        <ele>1512.66</ele>
        <time>2018-08-26T11:22:32Z</time>
      </trkpt>
      <trkpt lat="44.60759" lon="6.21668">
        <ele>1511.69</ele>
        <time>2018-08-26T11:22:34Z</time>
      </trkpt>
      <trkpt lat="44.60773" lon="6.21647">
        <ele>1510.69</ele>
        <time>2018-08-26T11:22:36Z</time>
      </trkpt>
      <trkpt lat="44.60791" lon="6.2163">
        <ele>1509.69</ele>
        <time>2018-08-26T11:22:38Z</time>
      </trkpt>
      <trkpt lat="44.6081" lon="6.21621">
        <ele>1509.39</ele>
        <time>2018-08-26T11:22:40Z</time>
      </trkpt>
      <trkpt lat="44.60833" lon="6.2162">
        <ele>1509.36</ele>
        <time>2018-08-26T11:22:42Z</time>
      </trkpt>
      <trkpt lat="44.60856" lon="6.21618">
        <ele>1506.84</ele>
        <time>2018-08-26T11:22:44Z</time>
      </trkpt>
      <trkpt lat="44.60874" lon="6.21605">
        <ele>1502.97</ele>
        <time>2018-08-26T11:22:46Z</time>
      </trkpt>
      <trkpt lat="44.60894" lon="6.21594">
        <ele>1499.52</ele>
        <time>2018-08-26T11:22:49Z</time>
      </trkpt>
      <trkpt lat="44.60889" lon="6.21624">
        <ele>1495.51</ele>
        <time>2018-08-26T11:22:53Z</time>
      </trkpt>
      <trkpt lat="44.60872" lon="6.21652">
        <ele>1494.45</ele>
        <time>2018-08-26T11:22:56Z</time>
      </trkpt>
      <trkpt lat="44.60872" lon="6.21687">
        <ele>1492.48</ele>
        <time>2018-08-26T11:22:59Z</time>
      </trkpt>
      <trkpt lat="44.60876" lon="6.21723">
        <ele>1492.15</ele>
        <time>2018-08-26T11:23:02Z</time>
      </trkpt>
      <trkpt lat="44.60867" lon="6.2175">
        <ele>1491.64</ele>
        <time>2018-08-26T11:23:04Z</time>
      </trkpt>
      <trkpt lat="44.60858" lon="6.21778">
        <ele>1491.39</ele>
        <time>2018-08-26T11:23:06Z</time>
      </trkpt>
      <trkpt lat="44.60854" lon="6.21808">
        <ele>1491.85</ele>
        <time>2018-08-26T11:23:08Z</time>
      </trkpt>
      <trkpt lat="44.60864" lon="6.21838">
        <ele>1493.22</ele>
        <time>2018-08-26T11:23:10Z</time>
      </trkpt>
      <trkpt lat="44.60883" lon="6.21858">
        <ele>1493.35</ele>
        <time>2018-08-26T11:23:12Z</time>
      </trkpt>
      <trkpt lat="44.60909" lon="6.2186">
        <ele>1492.66</ele>
        <time>2018-08-26T11:23:14Z</time>
      </trkpt>
      <trkpt lat="44.60935" lon="6.21855">
        <ele>1491.69</ele>
        <time>2018-08-26T11:23:16Z</time>
      </trkpt>
      <trkpt lat="44.60963" lon="6.21863">
        <ele>1490.27</ele>
        <time>2018-08-26T11:23:18Z</time>
      </trkpt>
      <trkpt lat="44.60987" lon="6.21879">
        <ele>1489.65</ele>
        <time>2018-08-26T11:23:20Z</time>
      </trkpt>
      <trkpt lat="44.61014" lon="6.21881">
        <ele>1489.39</ele>
        <time>2018-08-26T11:23:22Z</time>
      </trkpt>
      <trkpt lat="44.6104" lon="6.21885">
        <ele>1489.36</ele>
        <time>2018-08-26T11:23:24Z</time>
      </trkpt>
      <trkpt lat="44.61064" lon="6.21893">
        <ele>1488.66</ele>
        <time>2018-08-26T11:23:26Z</time>
      </trkpt>
      <trkpt lat="44.61089" lon="6.21891">
        <ele>1488.39</ele>
        <time>2018-08-26T11:23:28Z</time>
      </trkpt>
      <trkpt lat="44.61116" lon="6.2188">
        <ele>1488.36</ele>
        <time>2018-08-26T11:23:30Z</time>
      </trkpt>
      <trkpt lat="44.61149" lon="6.21872">
        <ele>1487.66</ele>
        <time>2018-08-26T11:23:32Z</time>
      </trkpt>
      <trkpt lat="44.61176" lon="6.21863">
        <ele>1485.08</ele>
        <time>2018-08-26T11:23:34Z</time>
      </trkpt>
      <trkpt lat="44.61194" lon="6.21848">
        <ele>1484.42</ele>
        <time>2018-08-26T11:23:36Z</time>
      </trkpt>
      <trkpt lat="44.6121" lon="6.21809">
        <ele>1484.58</ele>
        <time>2018-08-26T11:23:38Z</time>
      </trkpt>
      <trkpt lat="44.61231" lon="6.2178">
        <ele>1484.17</ele>
        <time>2018-08-26T11:23:40Z</time>
      </trkpt>
      <trkpt lat="44.6126" lon="6.21777">
        <ele>1482.03</ele>
        <time>2018-08-26T11:23:42Z</time>
      </trkpt>
      <trkpt lat="44.61284" lon="6.21759">
        <ele>1480.51</ele>
        <time>2018-08-26T11:23:44Z</time>
      </trkpt>
      <trkpt lat="44.61309" lon="6.21757">
        <ele>1476.94</ele>
        <time>2018-08-26T11:23:46Z</time>
      </trkpt>
      <trkpt lat="44.61333" lon="6.21771">
        <ele>1475.71</ele>
        <time>2018-08-26T11:23:48Z</time>
      </trkpt>
      <trkpt lat="44.61355" lon="6.21793">
        <ele>1475.39</ele>
        <time>2018-08-26T11:23:50Z</time>
      </trkpt>
      <trkpt lat="44.61379" lon="6.21807">
        <ele>1475.36</ele>
        <time>2018-08-26T11:23:52Z</time>
      </trkpt>
      <trkpt lat="44.61408" lon="6.21808">
        <ele>1472.14</ele>
        <time>2018-08-26T11:23:54Z</time>
      </trkpt>
      <trkpt lat="44.61434" lon="6.2181">
        <ele>1469.12</ele>
        <time>2018-08-26T11:23:56Z</time>
      </trkpt>
      <trkpt lat="44.61453" lon="6.21796">
        <ele>1468.64</ele>
        <time>2018-08-26T11:23:58Z</time>
      </trkpt>
      <trkpt lat="44.6147" lon="6.21772">
        <ele>1465.59</ele>
        <time>2018-08-26T11:24:00Z</time>
      </trkpt>
      <trkpt lat="44.61491" lon="6.21756">
        <ele>1462.86</ele>
        <time>2018-08-26T11:24:02Z</time>
      </trkpt>
      <trkpt lat="44.61515" lon="6.21753">
        <ele>1460.8</ele>
        <time>2018-08-26T11:24:04Z</time>
      </trkpt>
      <trkpt lat="44.61544" lon="6.21746">
        <ele>1459.7</ele>
        <time>2018-08-26T11:24:06Z</time>
      </trkpt>
      <trkpt lat="44.61566" lon="6.21727">
        <ele>1457.29</ele>
        <time>2018-08-26T11:24:08Z</time>
      </trkpt>
      <trkpt lat="44.61576" lon="6.21699">
        <ele>1453.22</ele>
        <time>2018-08-26T11:24:10Z</time>
      </trkpt>
      <trkpt lat="44.61595" lon="6.2168">
        <ele>1450.83</ele>
        <time>2018-08-26T11:24:12Z</time>
      </trkpt>
      <trkpt lat="44.61617" lon="6.21662">
        <ele>1447.88</ele>
        <time>2018-08-26T11:24:14Z</time>
      </trkpt>
      <trkpt lat="44.61639" lon="6.21651">
        <ele>1447.41</ele>
        <time>2018-08-26T11:24:16Z</time>
      </trkpt>
      <trkpt lat="44.61664" lon="6.21658">
        <ele>1445.05</ele>
        <time>2018-08-26T11:24:18Z</time>
      </trkpt>
      <trkpt lat="44.61684" lon="6.21659">
        <ele>1444.42</ele>
        <time>2018-08-26T11:24:20Z</time>
      </trkpt>
      <trkpt lat="44.61692" lon="6.21634">
        <ele>1442.61</ele>
        <time>2018-08-26T11:24:24Z</time>
      </trkpt>
      <trkpt lat="44.6167" lon="6.21638">
        <ele>1436.81</ele>
        <time>2018-08-26T11:24:32Z</time>
      </trkpt>
      <trkpt lat="44.61649" lon="6.21639">
        <ele>1435.49</ele>
        <time>2018-08-26T11:24:34Z</time>
      </trkpt>
      <trkpt lat="44.61623" lon="6.21638">
        <ele>1433.76</ele>
        <time>2018-08-26T11:24:36Z</time>
      </trkpt>
      <trkpt lat="44.61595" lon="6.2165">
        <ele>1430.88</ele>
        <time>2018-08-26T11:24:38Z</time>
      </trkpt>
      <trkpt lat="44.61566" lon="6.21667">
        <ele>1428.8</ele>
        <time>2018-08-26T11:24:40Z</time>
      </trkpt>
      <trkpt lat="44.61538" lon="6.21686">
        <ele>1426.79</ele>
        <time>2018-08-26T11:24:42Z</time>
      </trkpt>
      <trkpt lat="44.61508" lon="6.21697">
        <ele>1424.79</ele>
        <time>2018-08-26T11:24:44Z</time>
      </trkpt>
      <trkpt lat="44.61477" lon="6.21694">
        <ele>1422.09</ele>
        <time>2018-08-26T11:24:46Z</time>
      </trkpt>
      <trkpt lat="44.61451" lon="6.21697">
        <ele>1419.82</ele>
        <time>2018-08-26T11:24:48Z</time>
      </trkpt>
      <trkpt lat="44.61431" lon="6.21679">
        <ele>1417.97</ele>
        <time>2018-08-26T11:24:51Z</time>
      </trkpt>
      <trkpt lat="44.61438" lon="6.21653">
        <ele>1415.7</ele>
        <time>2018-08-26T11:24:54Z</time>
      </trkpt>
      <trkpt lat="44.61465" lon="6.21661">
        <ele>1415.37</ele>
        <time>2018-08-26T11:24:57Z</time>
      </trkpt>
      <trkpt lat="44.61485" lon="6.2166">
        <ele>1416.06</ele>
        <time>2018-08-26T11:24:58Z</time>
      </trkpt>
      <trkpt lat="44.61513" lon="6.21646">
        <ele>1415.63</ele>
        <time>2018-08-26T11:25:00Z</time>
      </trkpt>
      <trkpt lat="44.61542" lon="6.21628">
        <ele>1413.98</ele>
        <time>2018-08-26T11:25:02Z</time>
      </trkpt>
      <trkpt lat="44.61572" lon="6.21605">
        <ele>1412.72</ele>
        <time>2018-08-26T11:25:04Z</time>
      </trkpt>
      <trkpt lat="44.61603" lon="6.21582">
        <ele>1410.78</ele>
        <time>2018-08-26T11:25:06Z</time>
      </trkpt>
      <trkpt lat="44.61631" lon="6.21556">
        <ele>1405.36</ele>
        <time>2018-08-26T11:25:08Z</time>
      </trkpt>
      <trkpt lat="44.6165" lon="6.21524">
        <ele>1403.75</ele>
        <time>2018-08-26T11:25:10Z</time>
      </trkpt>
      <trkpt lat="44.61658" lon="6.215">
        <ele>1402.78</ele>
        <time>2018-08-26T11:25:11Z</time>
      </trkpt>
      <trkpt lat="44.61653" lon="6.21459">
        <ele>1399.39</ele>
        <time>2018-08-26T11:25:13Z</time>
      </trkpt>
      <trkpt lat="44.61647" lon="6.21416">
        <ele>1396.84</ele>
        <time>2018-08-26T11:25:15Z</time>
      </trkpt>
      <trkpt lat="44.61641" lon="6.21376">
        <ele>1393.88</ele>
        <time>2018-08-26T11:25:17Z</time>
      </trkpt>
      <trkpt lat="44.61637" lon="6.21339">
        <ele>1390.89</ele>
        <time>2018-08-26T11:25:19Z</time>
      </trkpt>
      <trkpt lat="44.61632" lon="6.21303">
        <ele>1388.1</ele>
        <time>2018-08-26T11:25:21Z</time>
      </trkpt>
      <trkpt lat="44.61629" lon="6.21269">
        <ele>1384.91</ele>
        <time>2018-08-26T11:25:23Z</time>
      </trkpt>
      <trkpt lat="44.61629" lon="6.21237">
        <ele>1382.8</ele>
        <time>2018-08-26T11:25:25Z</time>
      </trkpt>
      <trkpt lat="44.61633" lon="6.21204">
        <ele>1380.79</ele>
        <time>2018-08-26T11:25:27Z</time>
      </trkpt>
      <trkpt lat="44.6164" lon="6.2117">
        <ele>1378.79</ele>
        <time>2018-08-26T11:25:29Z</time>
      </trkpt>
      <trkpt lat="44.61647" lon="6.21135">
        <ele>1377.49</ele>
        <time>2018-08-26T11:25:31Z</time>
      </trkpt>
      <trkpt lat="44.61657" lon="6.21105">
        <ele>1375.55</ele>
        <time>2018-08-26T11:25:33Z</time>
      </trkpt>
      <trkpt lat="44.61676" lon="6.21081">
        <ele>1374.47</ele>
        <time>2018-08-26T11:25:35Z</time>
      </trkpt>
      <trkpt lat="44.61698" lon="6.21061">
        <ele>1373.67</ele>
        <time>2018-08-26T11:25:37Z</time>
      </trkpt>
      <trkpt lat="44.61723" lon="6.2104">
        <ele>1371.99</ele>
        <time>2018-08-26T11:25:39Z</time>
      </trkpt>
      <trkpt lat="44.61747" lon="6.21022">
        <ele>1369.81</ele>
        <time>2018-08-26T11:25:41Z</time>
      </trkpt>
      <trkpt lat="44.61769" lon="6.21003">
        <ele>1368.49</ele>
        <time>2018-08-26T11:25:43Z</time>
      </trkpt>
      <trkpt lat="44.61792" lon="6.20985">
        <ele>1367.46</ele>
        <time>2018-08-26T11:25:45Z</time>
      </trkpt>
      <trkpt lat="44.61815" lon="6.20968">
        <ele>1365.55</ele>
        <time>2018-08-26T11:25:47Z</time>
      </trkpt>
      <trkpt lat="44.61836" lon="6.20951">
        <ele>1364.47</ele>
        <time>2018-08-26T11:25:49Z</time>
      </trkpt>
      <trkpt lat="44.61857" lon="6.20934">
        <ele>1362.76</ele>
        <time>2018-08-26T11:25:51Z</time>
      </trkpt>
      <trkpt lat="44.61882" lon="6.20921">
        <ele>1360.79</ele>
        <time>2018-08-26T11:25:53Z</time>
      </trkpt>
      <trkpt lat="44.61912" lon="6.20913">
        <ele>1359.7</ele>
        <time>2018-08-26T11:25:55Z</time>
      </trkpt>
      <trkpt lat="44.61942" lon="6.20914">
        <ele>1357.78</ele>
        <time>2018-08-26T11:25:57Z</time>
      </trkpt>
      <trkpt lat="44.61972" lon="6.20921">
        <ele>1355.79</ele>
        <time>2018-08-26T11:25:59Z</time>
      </trkpt>
      <trkpt lat="44.62" lon="6.20926">
        <ele>1353.79</ele>
        <time>2018-08-26T11:26:01Z</time>
      </trkpt>
      <trkpt lat="44.62026" lon="6.20929">
        <ele>1352.7</ele>
        <time>2018-08-26T11:26:03Z</time>
      </trkpt>
      <trkpt lat="44.62051" lon="6.2093">
        <ele>1351.48</ele>
        <time>2018-08-26T11:26:05Z</time>
      </trkpt>
      <trkpt lat="44.62077" lon="6.20931">
        <ele>1349.76</ele>
        <time>2018-08-26T11:26:07Z</time>
      </trkpt>
      <trkpt lat="44.62105" lon="6.20932">
        <ele>1349.4</ele>
        <time>2018-08-26T11:26:09Z</time>
      </trkpt>
      <trkpt lat="44.62132" lon="6.20935">
        <ele>1347.75</ele>
        <time>2018-08-26T11:26:11Z</time>
      </trkpt>
      <trkpt lat="44.62158" lon="6.20935">
        <ele>1347.4</ele>
        <time>2018-08-26T11:26:13Z</time>
      </trkpt>
      <trkpt lat="44.62183" lon="6.20937">
        <ele>1345.75</ele>
        <time>2018-08-26T11:26:15Z</time>
      </trkpt>
      <trkpt lat="44.62204" lon="6.20939">
        <ele>1345.4</ele>
        <time>2018-08-26T11:26:17Z</time>
      </trkpt>
      <trkpt lat="44.62224" lon="6.20941">
        <ele>1345.36</ele>
        <time>2018-08-26T11:26:20Z</time>
      </trkpt>
      <trkpt lat="44.62245" lon="6.20943">
        <ele>1346.27</ele>
        <time>2018-08-26T11:26:23Z</time>
      </trkpt>
      <trkpt lat="44.62269" lon="6.20944">
        <ele>1345.66</ele>
        <time>2018-08-26T11:26:26Z</time>
      </trkpt>
      <trkpt lat="44.62291" lon="6.20947">
        <ele>1344.4</ele>
        <time>2018-08-26T11:26:29Z</time>
      </trkpt>
      <trkpt lat="44.62308" lon="6.20958">
        <ele>1345.29</ele>
        <time>2018-08-26T11:26:33Z</time>
      </trkpt>
      <trkpt lat="44.62304" lon="6.20984">
        <ele>1344.66</ele>
        <time>2018-08-26T11:26:39Z</time>
      </trkpt>
      <trkpt lat="44.62296" lon="6.21009">
        <ele>1344.36</ele>
        <time>2018-08-26T11:26:43Z</time>
      </trkpt>
      <trkpt lat="44.62289" lon="6.21041">
        <ele>1344.65</ele>
        <time>2018-08-26T11:26:47Z</time>
      </trkpt>
      <trkpt lat="44.62291" lon="6.21075">
        <ele>1345.35</ele>
        <time>2018-08-26T11:26:51Z</time>
      </trkpt>
      <trkpt lat="44.62301" lon="6.21103">
        <ele>1346.27</ele>
        <time>2018-08-26T11:26:54Z</time>
      </trkpt>
      <trkpt lat="44.6232" lon="6.21115">
        <ele>1347.27</ele>
        <time>2018-08-26T11:26:57Z</time>
      </trkpt>
      <trkpt lat="44.62341" lon="6.21101">
        <ele>1347.57</ele>
        <time>2018-08-26T11:27:00Z</time>
      </trkpt>
      <trkpt lat="44.62361" lon="6.21084">
        <ele>1348.29</ele>
        <time>2018-08-26T11:27:02Z</time>
      </trkpt>
      <trkpt lat="44.62379" lon="6.21065">
        <ele>1348.35</ele>
        <time>2018-08-26T11:27:04Z</time>
      </trkpt>
      <trkpt lat="44.62401" lon="6.21046">
        <ele>1349.06</ele>
        <time>2018-08-26T11:27:06Z</time>
      </trkpt>
      <trkpt lat="44.62417" lon="6.21022">
        <ele>1350.94</ele>
        <time>2018-08-26T11:27:08Z</time>
      </trkpt>
      <trkpt lat="44.62427" lon="6.20994">
        <ele>1352.72</ele>
        <time>2018-08-26T11:27:10Z</time>
      </trkpt>
      <trkpt lat="44.6244" lon="6.20972">
        <ele>1353.3</ele>
        <time>2018-08-26T11:27:12Z</time>
      </trkpt>
      <trkpt lat="44.62457" lon="6.20955">
        <ele>1353.35</ele>
        <time>2018-08-26T11:27:14Z</time>
      </trkpt>
      <trkpt lat="44.62474" lon="6.20939">
        <ele>1353.36</ele>
        <time>2018-08-26T11:27:17Z</time>
      </trkpt>
      <trkpt lat="44.6249" lon="6.20923">
        <ele>1353.36</ele>
        <time>2018-08-26T11:27:21Z</time>
      </trkpt>
      <trkpt lat="44.62506" lon="6.20903">
        <ele>1354.12</ele>
        <time>2018-08-26T11:27:24Z</time>
      </trkpt>
      <trkpt lat="44.6252" lon="6.20885">
        <ele>1355.04</ele>
        <time>2018-08-26T11:27:26Z</time>
      </trkpt>
      <trkpt lat="44.62536" lon="6.20868">
        <ele>1355.33</ele>
        <time>2018-08-26T11:27:28Z</time>
      </trkpt>
      <trkpt lat="44.62553" lon="6.20852">
        <ele>1355.36</ele>
        <time>2018-08-26T11:27:30Z</time>
      </trkpt>
      <trkpt lat="44.62572" lon="6.20826">
        <ele>1353.75</ele>
        <time>2018-08-26T11:27:33Z</time>
      </trkpt>
      <trkpt lat="44.62587" lon="6.20807">
        <ele>1353.09</ele>
        <time>2018-08-26T11:27:37Z</time>
      </trkpt>
      <trkpt lat="44.62583" lon="6.20781">
        <ele>1353.4</ele>
        <time>2018-08-26T11:28:24Z</time>
      </trkpt>
      <trkpt lat="44.62571" lon="6.20752">
        <ele>1351.48</ele>
        <time>2018-08-26T11:28:27Z</time>
      </trkpt>
      <trkpt lat="44.62562" lon="6.20727">
        <ele>1350.67</ele>
        <time>2018-08-26T11:28:29Z</time>
      </trkpt>
      <trkpt lat="44.62552" lon="6.20701">
        <ele>1349.48</ele>
        <time>2018-08-26T11:28:31Z</time>
      </trkpt>
      <trkpt lat="44.62542" lon="6.20675">
        <ele>1349.37</ele>
        <time>2018-08-26T11:28:33Z</time>
      </trkpt>
      <trkpt lat="44.62532" lon="6.20647">
        <ele>1349.36</ele>
        <time>2018-08-26T11:28:35Z</time>
      </trkpt>
      <trkpt lat="44.62522" lon="6.20618">
        <ele>1349.36</ele>
        <time>2018-08-26T11:28:37Z</time>
      </trkpt>
      <trkpt lat="44.6251" lon="6.20593">
        <ele>1349.15</ele>
        <time>2018-08-26T11:28:39Z</time>
      </trkpt>
      <trkpt lat="44.62495" lon="6.20574">
        <ele>1348.43</ele>
        <time>2018-08-26T11:28:41Z</time>
      </trkpt>
      <trkpt lat="44.62478" lon="6.20559">
        <ele>1347.67</ele>
        <time>2018-08-26T11:28:43Z</time>
      </trkpt>
      <trkpt lat="44.62461" lon="6.20547">
        <ele>1346.48</ele>
        <time>2018-08-26T11:28:45Z</time>
      </trkpt>
      <trkpt lat="44.62443" lon="6.20541">
        <ele>1345.46</ele>
        <time>2018-08-26T11:28:47Z</time>
      </trkpt>
      <trkpt lat="44.62419" lon="6.20543">
        <ele>1344.39</ele>
        <time>2018-08-26T11:28:50Z</time>
      </trkpt>
      <trkpt lat="44.62402" lon="6.20527">
        <ele>1345.36</ele>
        <time>2018-08-26T11:28:56Z</time>
      </trkpt>
      <trkpt lat="44.62386" lon="6.20503">
        <ele>1344.39</ele>
        <time>2018-08-26T11:28:59Z</time>
      </trkpt>
      <trkpt lat="44.62363" lon="6.20496">
        <ele>1343.39</ele>
        <time>2018-08-26T11:29:02Z</time>
      </trkpt>
      <trkpt lat="44.62342" lon="6.20498">
        <ele>1342.45</ele>
        <time>2018-08-26T11:29:05Z</time>
      </trkpt>
      <trkpt lat="44.62323" lon="6.20509">
        <ele>1343.34</ele>
        <time>2018-08-26T11:29:08Z</time>
      </trkpt>
      <trkpt lat="44.62305" lon="6.20492">
        <ele>1344.27</ele>
        <time>2018-08-26T11:29:14Z</time>
      </trkpt>
      <trkpt lat="44.62297" lon="6.20464">
        <ele>1345.33</ele>
        <time>2018-08-26T11:29:17Z</time>
      </trkpt>
      <trkpt lat="44.6228" lon="6.20447">
        <ele>1345.36</ele>
        <time>2018-08-26T11:29:20Z</time>
      </trkpt>
      <trkpt lat="44.62266" lon="6.20428">
        <ele>1345.36</ele>
        <time>2018-08-26T11:29:23Z</time>
      </trkpt>
      <trkpt lat="44.62265" lon="6.20401">
        <ele>1344.39</ele>
        <time>2018-08-26T11:29:26Z</time>
      </trkpt>
      <trkpt lat="44.62269" lon="6.20372">
        <ele>1342.54</ele>
        <time>2018-08-26T11:29:29Z</time>
      </trkpt>
      <trkpt lat="44.62262" lon="6.20337">
        <ele>1340.75</ele>
        <time>2018-08-26T11:29:32Z</time>
      </trkpt>
      <trkpt lat="44.62254" lon="6.20311">
        <ele>1339.7</ele>
        <time>2018-08-26T11:29:34Z</time>
      </trkpt>
      <trkpt lat="44.62242" lon="6.20289">
        <ele>1338.48</ele>
        <time>2018-08-26T11:29:36Z</time>
      </trkpt>
      <trkpt lat="44.62226" lon="6.20264">
        <ele>1336.46</ele>
        <time>2018-08-26T11:29:40Z</time>
      </trkpt>
      <trkpt lat="44.62211" lon="6.20238">
        <ele>1334.48</ele>
        <time>2018-08-26T11:29:43Z</time>
      </trkpt>
      <trkpt lat="44.62196" lon="6.20217">
        <ele>1331.78</ele>
        <time>2018-08-26T11:29:46Z</time>
      </trkpt>
      <trkpt lat="44.62185" lon="6.20192">
        <ele>1330.4</ele>
        <time>2018-08-26T11:29:49Z</time>
      </trkpt>
      <trkpt lat="44.6218" lon="6.20163">
        <ele>1329.66</ele>
        <time>2018-08-26T11:29:51Z</time>
      </trkpt>
      <trkpt lat="44.62171" lon="6.20138">
        <ele>1328.48</ele>
        <time>2018-08-26T11:29:53Z</time>
      </trkpt>
      <trkpt lat="44.6216" lon="6.20113">
        <ele>1327.46</ele>
        <time>2018-08-26T11:29:55Z</time>
      </trkpt>
      <trkpt lat="44.62152" lon="6.20086">
        <ele>1327.37</ele>
        <time>2018-08-26T11:29:57Z</time>
      </trkpt>
      <trkpt lat="44.62145" lon="6.20053">
        <ele>1326.45</ele>
        <time>2018-08-26T11:29:59Z</time>
      </trkpt>
      <trkpt lat="44.62141" lon="6.2002">
        <ele>1325.46</ele>
        <time>2018-08-26T11:30:01Z</time>
      </trkpt>
      <trkpt lat="44.62142" lon="6.19987">
        <ele>1325.37</ele>
        <time>2018-08-26T11:30:03Z</time>
      </trkpt>
      <trkpt lat="44.62151" lon="6.19953">
        <ele>1325.36</ele>
        <time>2018-08-26T11:30:05Z</time>
      </trkpt>
      <trkpt lat="44.62162" lon="6.19919">
        <ele>1325.36</ele>
        <time>2018-08-26T11:30:07Z</time>
      </trkpt>
      <trkpt lat="44.62171" lon="6.19885">
        <ele>1325.36</ele>
        <time>2018-08-26T11:30:09Z</time>
      </trkpt>
      <trkpt lat="44.62177" lon="6.19848">
        <ele>1325.36</ele>
        <time>2018-08-26T11:30:11Z</time>
      </trkpt>
      <trkpt lat="44.62183" lon="6.19805">
        <ele>1324.66</ele>
        <time>2018-08-26T11:30:13Z</time>
      </trkpt>
      <trkpt lat="44.6219" lon="6.19761">
        <ele>1323.69</ele>
        <time>2018-08-26T11:30:15Z</time>
      </trkpt>
      <trkpt lat="44.62199" lon="6.19715">
        <ele>1322.48</ele>
        <time>2018-08-26T11:30:17Z</time>
      </trkpt>
      <trkpt lat="44.62204" lon="6.1969">
        <ele>1322.4</ele>
        <time>2018-08-26T11:30:18Z</time>
      </trkpt>
      <trkpt lat="44.62209" lon="6.19665">
        <ele>1321.67</ele>
        <time>2018-08-26T11:30:19Z</time>
      </trkpt>
      <trkpt lat="44.62214" lon="6.19639">
        <ele>1321.45</ele>
        <time>2018-08-26T11:30:20Z</time>
      </trkpt>
      <trkpt lat="44.6222" lon="6.19613">
        <ele>1320.69</ele>
        <time>2018-08-26T11:30:21Z</time>
      </trkpt>
      <trkpt lat="44.62225" lon="6.19586">
        <ele>1320.46</ele>
        <time>2018-08-26T11:30:22Z</time>
      </trkpt>
      <trkpt lat="44.62231" lon="6.19559">
        <ele>1320.39</ele>
        <time>2018-08-26T11:30:23Z</time>
      </trkpt>
      <trkpt lat="44.62236" lon="6.19532">
        <ele>1319.67</ele>
        <time>2018-08-26T11:30:24Z</time>
      </trkpt>
      <trkpt lat="44.62241" lon="6.19505">
        <ele>1319.45</ele>
        <time>2018-08-26T11:30:25Z</time>
      </trkpt>
      <trkpt lat="44.62245" lon="6.19478">
        <ele>1318.69</ele>
        <time>2018-08-26T11:30:26Z</time>
      </trkpt>
      <trkpt lat="44.62249" lon="6.1945">
        <ele>1318.46</ele>
        <time>2018-08-26T11:30:27Z</time>
      </trkpt>
      <trkpt lat="44.62254" lon="6.19421">
        <ele>1318.39</ele>
        <time>2018-08-26T11:30:28Z</time>
      </trkpt>
      <trkpt lat="44.62258" lon="6.19393">
        <ele>1317.67</ele>
        <time>2018-08-26T11:30:29Z</time>
      </trkpt>
      <trkpt lat="44.62263" lon="6.19364">
        <ele>1316.75</ele>
        <time>2018-08-26T11:30:30Z</time>
      </trkpt>
      <trkpt lat="44.62268" lon="6.19335">
        <ele>1315.78</ele>
        <time>2018-08-26T11:30:31Z</time>
      </trkpt>
      <trkpt lat="44.62273" lon="6.19307">
        <ele>1315.49</ele>
        <time>2018-08-26T11:30:32Z</time>
      </trkpt>
      <trkpt lat="44.62279" lon="6.19278">
        <ele>1315.4</ele>
        <time>2018-08-26T11:30:33Z</time>
      </trkpt>
      <trkpt lat="44.62286" lon="6.1925">
        <ele>1315.37</ele>
        <time>2018-08-26T11:30:34Z</time>
      </trkpt>
      <trkpt lat="44.62294" lon="6.19221">
        <ele>1314.66</ele>
        <time>2018-08-26T11:30:35Z</time>
      </trkpt>
      <trkpt lat="44.62302" lon="6.19192">
        <ele>1314.45</ele>
        <time>2018-08-26T11:30:36Z</time>
      </trkpt>
      <trkpt lat="44.62311" lon="6.19163">
        <ele>1314.39</ele>
        <time>2018-08-26T11:30:37Z</time>
      </trkpt>
      <trkpt lat="44.62319" lon="6.19134">
        <ele>1313.67</ele>
        <time>2018-08-26T11:30:38Z</time>
      </trkpt>
      <trkpt lat="44.62328" lon="6.19105">
        <ele>1313.45</ele>
        <time>2018-08-26T11:30:39Z</time>
      </trkpt>
      <trkpt lat="44.62336" lon="6.19076">
        <ele>1312.69</ele>
        <time>2018-08-26T11:30:40Z</time>
      </trkpt>
      <trkpt lat="44.62346" lon="6.19047">
        <ele>1312.46</ele>
        <time>2018-08-26T11:30:41Z</time>
      </trkpt>
      <trkpt lat="44.62356" lon="6.19019">
        <ele>1312.39</ele>
        <time>2018-08-26T11:30:42Z</time>
      </trkpt>
      <trkpt lat="44.62366" lon="6.1899">
        <ele>1312.37</ele>
        <time>2018-08-26T11:30:43Z</time>
      </trkpt>
      <trkpt lat="44.62376" lon="6.18961">
        <ele>1311.66</ele>
        <time>2018-08-26T11:30:44Z</time>
      </trkpt>
      <trkpt lat="44.62386" lon="6.18932">
        <ele>1311.45</ele>
        <time>2018-08-26T11:30:45Z</time>
      </trkpt>
      <trkpt lat="44.62396" lon="6.18903">
        <ele>1311.39</ele>
        <time>2018-08-26T11:30:46Z</time>
      </trkpt>
      <trkpt lat="44.62406" lon="6.18874">
        <ele>1310.67</ele>
        <time>2018-08-26T11:30:47Z</time>
      </trkpt>
      <trkpt lat="44.62416" lon="6.18846">
        <ele>1310.45</ele>
        <time>2018-08-26T11:30:48Z</time>
      </trkpt>
      <trkpt lat="44.62426" lon="6.18818">
        <ele>1310.39</ele>
        <time>2018-08-26T11:30:49Z</time>
      </trkpt>
      <trkpt lat="44.62435" lon="6.18791">
        <ele>1309.67</ele>
        <time>2018-08-26T11:30:50Z</time>
      </trkpt>
      <trkpt lat="44.62445" lon="6.18763">
        <ele>1309.45</ele>
        <time>2018-08-26T11:30:51Z</time>
      </trkpt>
      <trkpt lat="44.62455" lon="6.18736">
        <ele>1309.39</ele>
        <time>2018-08-26T11:30:52Z</time>
      </trkpt>
      <trkpt lat="44.62464" lon="6.18708">
        <ele>1308.67</ele>
        <time>2018-08-26T11:30:53Z</time>
      </trkpt>
      <trkpt lat="44.62473" lon="6.1868">
        <ele>1308.45</ele>
        <time>2018-08-26T11:30:54Z</time>
      </trkpt>
      <trkpt lat="44.62481" lon="6.18651">
        <ele>1308.39</ele>
        <time>2018-08-26T11:30:55Z</time>
      </trkpt>
      <trkpt lat="44.62488" lon="6.18622">
        <ele>1308.37</ele>
        <time>2018-08-26T11:30:56Z</time>
      </trkpt>
      <trkpt lat="44.62492" lon="6.18592">
        <ele>1307.66</ele>
        <time>2018-08-26T11:30:57Z</time>
      </trkpt>
      <trkpt lat="44.62497" lon="6.18563">
        <ele>1307.45</ele>
        <time>2018-08-26T11:30:58Z</time>
      </trkpt>
      <trkpt lat="44.62503" lon="6.18534">
        <ele>1307.39</ele>
        <time>2018-08-26T11:30:59Z</time>
      </trkpt>
      <trkpt lat="44.6251" lon="6.18505">
        <ele>1306.67</ele>
        <time>2018-08-26T11:31:00Z</time>
      </trkpt>
      <trkpt lat="44.62518" lon="6.18477">
        <ele>1306.45</ele>
        <time>2018-08-26T11:31:01Z</time>
      </trkpt>
      <trkpt lat="44.62526" lon="6.18447">
        <ele>1306.39</ele>
        <time>2018-08-26T11:31:02Z</time>
      </trkpt>
      <trkpt lat="44.62534" lon="6.18418">
        <ele>1305.67</ele>
        <time>2018-08-26T11:31:03Z</time>
      </trkpt>
      <trkpt lat="44.62543" lon="6.18389">
        <ele>1305.45</ele>
        <time>2018-08-26T11:31:04Z</time>
      </trkpt>
      <trkpt lat="44.62552" lon="6.1836">
        <ele>1305.39</ele>
        <time>2018-08-26T11:31:05Z</time>
      </trkpt>
      <trkpt lat="44.62561" lon="6.18332">
        <ele>1305.37</ele>
        <time>2018-08-26T11:31:06Z</time>
      </trkpt>
      <trkpt lat="44.62571" lon="6.18304">
        <ele>1304.66</ele>
        <time>2018-08-26T11:31:07Z</time>
      </trkpt>
      <trkpt lat="44.6258" lon="6.18278">
        <ele>1303.75</ele>
        <time>2018-08-26T11:31:08Z</time>
      </trkpt>
      <trkpt lat="44.62589" lon="6.18251">
        <ele>1303.48</ele>
        <time>2018-08-26T11:31:09Z</time>
      </trkpt>
      <trkpt lat="44.62598" lon="6.18226">
        <ele>1302.7</ele>
        <time>2018-08-26T11:31:10Z</time>
      </trkpt>
      <trkpt lat="44.62606" lon="6.18203">
        <ele>1301.76</ele>
        <time>2018-08-26T11:31:11Z</time>
      </trkpt>
      <trkpt lat="44.62615" lon="6.18179">
        <ele>1301.48</ele>
        <time>2018-08-26T11:31:12Z</time>
      </trkpt>
      <trkpt lat="44.62623" lon="6.18156">
        <ele>1300.7</ele>
        <time>2018-08-26T11:31:13Z</time>
      </trkpt>
      <trkpt lat="44.62631" lon="6.18132">
        <ele>1300.46</ele>
        <time>2018-08-26T11:31:14Z</time>
      </trkpt>
      <trkpt lat="44.62639" lon="6.18109">
        <ele>1299.69</ele>
        <time>2018-08-26T11:31:15Z</time>
      </trkpt>
      <trkpt lat="44.62647" lon="6.18085">
        <ele>1299.46</ele>
        <time>2018-08-26T11:31:16Z</time>
      </trkpt>
      <trkpt lat="44.62655" lon="6.1806">
        <ele>1299.39</ele>
        <time>2018-08-26T11:31:17Z</time>
      </trkpt>
      <trkpt lat="44.62662" lon="6.18034">
        <ele>1300.07</ele>
        <time>2018-08-26T11:31:18Z</time>
      </trkpt>
      <trkpt lat="44.62668" lon="6.18009">
        <ele>1300.97</ele>
        <time>2018-08-26T11:31:19Z</time>
      </trkpt>
      <trkpt lat="44.62674" lon="6.17984">
        <ele>1301.24</ele>
        <time>2018-08-26T11:31:20Z</time>
      </trkpt>
      <trkpt lat="44.62679" lon="6.17959">
        <ele>1302.73</ele>
        <time>2018-08-26T11:31:21Z</time>
      </trkpt>
      <trkpt lat="44.62685" lon="6.17934">
        <ele>1303.87</ele>
        <time>2018-08-26T11:31:22Z</time>
      </trkpt>
      <trkpt lat="44.62691" lon="6.17908">
        <ele>1304.91</ele>
        <time>2018-08-26T11:31:23Z</time>
      </trkpt>
      <trkpt lat="44.62697" lon="6.17884">
        <ele>1305.93</ele>
        <time>2018-08-26T11:31:24Z</time>
      </trkpt>
      <trkpt lat="44.62704" lon="6.17838">
        <ele>1307.93</ele>
        <time>2018-08-26T11:31:26Z</time>
      </trkpt>
      <trkpt lat="44.627" lon="6.17792">
        <ele>1309.93</ele>
        <time>2018-08-26T11:31:28Z</time>
      </trkpt>
      <trkpt lat="44.6269" lon="6.17748">
        <ele>1310.32</ele>
        <time>2018-08-26T11:31:30Z</time>
      </trkpt>
      <trkpt lat="44.62684" lon="6.17701">
        <ele>1311.97</ele>
        <time>2018-08-26T11:31:32Z</time>
      </trkpt>
      <trkpt lat="44.62684" lon="6.17652">
        <ele>1313.93</ele>
        <time>2018-08-26T11:31:34Z</time>
      </trkpt>
      <trkpt lat="44.6269" lon="6.17603">
        <ele>1314.32</ele>
        <time>2018-08-26T11:31:36Z</time>
      </trkpt>
      <trkpt lat="44.62696" lon="6.17579">
        <ele>1315.05</ele>
        <time>2018-08-26T11:31:37Z</time>
      </trkpt>
      <trkpt lat="44.62712" lon="6.17533">
        <ele>1316.03</ele>
        <time>2018-08-26T11:31:39Z</time>
      </trkpt>
      <trkpt lat="44.62724" lon="6.17512">
        <ele>1316.26</ele>
        <time>2018-08-26T11:31:40Z</time>
      </trkpt>
      <trkpt lat="44.62736" lon="6.17493">
        <ele>1316.33</ele>
        <time>2018-08-26T11:31:41Z</time>
      </trkpt>
      <trkpt lat="44.6275" lon="6.17475">
        <ele>1317.05</ele>
        <time>2018-08-26T11:31:42Z</time>
      </trkpt>
      <trkpt lat="44.62764" lon="6.17456">
        <ele>1316.57</ele>
        <time>2018-08-26T11:31:43Z</time>
      </trkpt>
      <trkpt lat="44.62777" lon="6.17437">
        <ele>1316.42</ele>
        <time>2018-08-26T11:31:44Z</time>
      </trkpt>
      <trkpt lat="44.6279" lon="6.17415">
        <ele>1316.38</ele>
        <time>2018-08-26T11:31:45Z</time>
      </trkpt>
      <trkpt lat="44.62802" lon="6.17394">
        <ele>1317.07</ele>
        <time>2018-08-26T11:31:46Z</time>
      </trkpt>
      <trkpt lat="44.62814" lon="6.17372">
        <ele>1317.27</ele>
        <time>2018-08-26T11:31:47Z</time>
      </trkpt>
      <trkpt lat="44.62826" lon="6.1735">
        <ele>1317.33</ele>
        <time>2018-08-26T11:31:48Z</time>
      </trkpt>
      <trkpt lat="44.62839" lon="6.17327">
        <ele>1316.65</ele>
        <time>2018-08-26T11:31:49Z</time>
      </trkpt>
      <trkpt lat="44.62851" lon="6.17304">
        <ele>1315.75</ele>
        <time>2018-08-26T11:31:50Z</time>
      </trkpt>
      <trkpt lat="44.62863" lon="6.17283">
        <ele>1315.48</ele>
        <time>2018-08-26T11:31:51Z</time>
      </trkpt>
      <trkpt lat="44.62875" lon="6.17263">
        <ele>1314.69</ele>
        <time>2018-08-26T11:31:52Z</time>
      </trkpt>
      <trkpt lat="44.62901" lon="6.17231">
        <ele>1312.78</ele>
        <time>2018-08-26T11:31:54Z</time>
      </trkpt>
      <trkpt lat="44.62932" lon="6.17206">
        <ele>1310.79</ele>
        <time>2018-08-26T11:31:56Z</time>
      </trkpt>
      <trkpt lat="44.62948" lon="6.17195">
        <ele>1309.09</ele>
        <time>2018-08-26T11:31:57Z</time>
      </trkpt>
      <trkpt lat="44.62965" lon="6.17185">
        <ele>1307.18</ele>
        <time>2018-08-26T11:31:58Z</time>
      </trkpt>
      <trkpt lat="44.62983" lon="6.17176">
        <ele>1305.21</ele>
        <time>2018-08-26T11:31:59Z</time>
      </trkpt>
      <trkpt lat="44.63001" lon="6.17167">
        <ele>1303.21</ele>
        <time>2018-08-26T11:32:00Z</time>
      </trkpt>
      <trkpt lat="44.63019" lon="6.17162">
        <ele>1301.92</ele>
        <time>2018-08-26T11:32:01Z</time>
      </trkpt>
      <trkpt lat="44.63039" lon="6.17159">
        <ele>1300.13</ele>
        <time>2018-08-26T11:32:02Z</time>
      </trkpt>
      <trkpt lat="44.63057" lon="6.17161">
        <ele>1298.19</ele>
        <time>2018-08-26T11:32:03Z</time>
      </trkpt>
      <trkpt lat="44.63075" lon="6.17164">
        <ele>1296.91</ele>
        <time>2018-08-26T11:32:04Z</time>
      </trkpt>
      <trkpt lat="44.6311" lon="6.17171">
        <ele>1294.1</ele>
        <time>2018-08-26T11:32:06Z</time>
      </trkpt>
      <trkpt lat="44.63144" lon="6.17179">
        <ele>1291.82</ele>
        <time>2018-08-26T11:32:08Z</time>
      </trkpt>
      <trkpt lat="44.63177" lon="6.17194">
        <ele>1289.79</ele>
        <time>2018-08-26T11:32:10Z</time>
      </trkpt>
      <trkpt lat="44.63208" lon="6.17218">
        <ele>1288</ele>
        <time>2018-08-26T11:32:12Z</time>
      </trkpt>
      <trkpt lat="44.63238" lon="6.17241">
        <ele>1286.72</ele>
        <time>2018-08-26T11:32:14Z</time>
      </trkpt>
      <trkpt lat="44.63262" lon="6.17248">
        <ele>1284.99</ele>
        <time>2018-08-26T11:32:16Z</time>
      </trkpt>
      <trkpt lat="44.6328" lon="6.17238">
        <ele>1283.72</ele>
        <time>2018-08-26T11:32:18Z</time>
      </trkpt>
      <trkpt lat="44.63293" lon="6.17205">
        <ele>1281.08</ele>
        <time>2018-08-26T11:32:20Z</time>
      </trkpt>
      <trkpt lat="44.63307" lon="6.17174">
        <ele>1279.72</ele>
        <time>2018-08-26T11:32:22Z</time>
      </trkpt>
      <trkpt lat="44.6332" lon="6.17145">
        <ele>1277.78</ele>
        <time>2018-08-26T11:32:24Z</time>
      </trkpt>
      <trkpt lat="44.6333" lon="6.17114">
        <ele>1276.7</ele>
        <time>2018-08-26T11:32:26Z</time>
      </trkpt>
      <trkpt lat="44.63329" lon="6.17081">
        <ele>1275.69</ele>
        <time>2018-08-26T11:32:28Z</time>
      </trkpt>
      <trkpt lat="44.63319" lon="6.17046">
        <ele>1274.69</ele>
        <time>2018-08-26T11:32:30Z</time>
      </trkpt>
      <trkpt lat="44.63306" lon="6.17006">
        <ele>1272.78</ele>
        <time>2018-08-26T11:32:32Z</time>
      </trkpt>
      <trkpt lat="44.63295" lon="6.1696">
        <ele>1270.79</ele>
        <time>2018-08-26T11:32:34Z</time>
      </trkpt>
      <trkpt lat="44.63287" lon="6.16911">
        <ele>1269.49</ele>
        <time>2018-08-26T11:32:36Z</time>
      </trkpt>
      <trkpt lat="44.6328" lon="6.16861">
        <ele>1266.85</ele>
        <time>2018-08-26T11:32:38Z</time>
      </trkpt>
      <trkpt lat="44.63277" lon="6.16836">
        <ele>1265.81</ele>
        <time>2018-08-26T11:32:39Z</time>
      </trkpt>
      <trkpt lat="44.63271" lon="6.16787">
        <ele>1263.79</ele>
        <time>2018-08-26T11:32:41Z</time>
      </trkpt>
      <trkpt lat="44.63267" lon="6.16761">
        <ele>1262.79</ele>
        <time>2018-08-26T11:32:42Z</time>
      </trkpt>
      <trkpt lat="44.63263" lon="6.16735">
        <ele>1261.79</ele>
        <time>2018-08-26T11:32:43Z</time>
      </trkpt>
      <trkpt lat="44.63259" lon="6.16709">
        <ele>1260.79</ele>
        <time>2018-08-26T11:32:44Z</time>
      </trkpt>
      <trkpt lat="44.63255" lon="6.16683">
        <ele>1259.09</ele>
        <time>2018-08-26T11:32:45Z</time>
      </trkpt>
      <trkpt lat="44.63251" lon="6.16657">
        <ele>1257.88</ele>
        <time>2018-08-26T11:32:46Z</time>
      </trkpt>
      <trkpt lat="44.63247" lon="6.16631">
        <ele>1256.82</ele>
        <time>2018-08-26T11:32:47Z</time>
      </trkpt>
      <trkpt lat="44.63243" lon="6.16606">
        <ele>1255.8</ele>
        <time>2018-08-26T11:32:48Z</time>
      </trkpt>
      <trkpt lat="44.63243" lon="6.1658">
        <ele>1254.79</ele>
        <time>2018-08-26T11:32:49Z</time>
      </trkpt>
      <trkpt lat="44.63254" lon="6.16533">
        <ele>1252.79</ele>
        <time>2018-08-26T11:32:51Z</time>
      </trkpt>
      <trkpt lat="44.63279" lon="6.16499">
        <ele>1250.79</ele>
        <time>2018-08-26T11:32:53Z</time>
      </trkpt>
      <trkpt lat="44.63311" lon="6.16484">
        <ele>1249</ele>
        <time>2018-08-26T11:32:55Z</time>
      </trkpt>
      <trkpt lat="44.63344" lon="6.16487">
        <ele>1246.81</ele>
        <time>2018-08-26T11:32:57Z</time>
      </trkpt>
      <trkpt lat="44.63374" lon="6.16479">
        <ele>1244.79</ele>
        <time>2018-08-26T11:32:59Z</time>
      </trkpt>
      <trkpt lat="44.63403" lon="6.16456">
        <ele>1242.79</ele>
        <time>2018-08-26T11:33:01Z</time>
      </trkpt>
      <trkpt lat="44.63424" lon="6.16418">
        <ele>1241.49</ele>
        <time>2018-08-26T11:33:03Z</time>
      </trkpt>
      <trkpt lat="44.63421" lon="6.16382">
        <ele>1240.7</ele>
        <time>2018-08-26T11:33:04Z</time>
      </trkpt>
      <trkpt lat="44.63415" lon="6.16351">
        <ele>1240.46</ele>
        <time>2018-08-26T11:33:05Z</time>
      </trkpt>
      <trkpt lat="44.63402" lon="6.16321">
        <ele>1239.69</ele>
        <time>2018-08-26T11:33:06Z</time>
      </trkpt>
      <trkpt lat="44.63395" lon="6.16291">
        <ele>1237.36</ele>
        <time>2018-08-26T11:33:07Z</time>
      </trkpt>
      <trkpt lat="44.63387" lon="6.16261">
        <ele>1235.26</ele>
        <time>2018-08-26T11:33:08Z</time>
      </trkpt>
      <trkpt lat="44.63383" lon="6.16232">
        <ele>1233.23</ele>
        <time>2018-08-26T11:33:09Z</time>
      </trkpt>
      <trkpt lat="44.6338" lon="6.16204">
        <ele>1229.82</ele>
        <time>2018-08-26T11:33:10Z</time>
      </trkpt>
      <trkpt lat="44.63375" lon="6.16174">
        <ele>1227.4</ele>
        <time>2018-08-26T11:33:11Z</time>
      </trkpt>
      <trkpt lat="44.63372" lon="6.16145">
        <ele>1225.27</ele>
        <time>2018-08-26T11:33:12Z</time>
      </trkpt>
      <trkpt lat="44.6337" lon="6.16116">
        <ele>1223.93</ele>
        <time>2018-08-26T11:33:13Z</time>
      </trkpt>
      <trkpt lat="44.6337" lon="6.16086">
        <ele>1221.43</ele>
        <time>2018-08-26T11:33:14Z</time>
      </trkpt>
      <trkpt lat="44.63369" lon="6.16058">
        <ele>1219.28</ele>
        <time>2018-08-26T11:33:15Z</time>
      </trkpt>
      <trkpt lat="44.63372" lon="6.16028">
        <ele>1216.54</ele>
        <time>2018-08-26T11:33:16Z</time>
      </trkpt>
      <trkpt lat="44.63373" lon="6.15998">
        <ele>1214.31</ele>
        <time>2018-08-26T11:33:17Z</time>
      </trkpt>
      <trkpt lat="44.63376" lon="6.15967">
        <ele>1213.65</ele>
        <time>2018-08-26T11:33:18Z</time>
      </trkpt>
      <trkpt lat="44.63384" lon="6.1594">
        <ele>1211.35</ele>
        <time>2018-08-26T11:33:19Z</time>
      </trkpt>
      <trkpt lat="44.6339" lon="6.15912">
        <ele>1209.96</ele>
        <time>2018-08-26T11:33:20Z</time>
      </trkpt>
      <trkpt lat="44.63399" lon="6.15885">
        <ele>1208.84</ele>
        <time>2018-08-26T11:33:21Z</time>
      </trkpt>
      <trkpt lat="44.63407" lon="6.15858">
        <ele>1207.8</ele>
        <time>2018-08-26T11:33:22Z</time>
      </trkpt>
      <trkpt lat="44.63416" lon="6.15832">
        <ele>1207.49</ele>
        <time>2018-08-26T11:33:23Z</time>
      </trkpt>
      <trkpt lat="44.63422" lon="6.15804">
        <ele>1206</ele>
        <time>2018-08-26T11:33:24Z</time>
      </trkpt>
      <trkpt lat="44.63429" lon="6.15775">
        <ele>1204.15</ele>
        <time>2018-08-26T11:33:25Z</time>
      </trkpt>
      <trkpt lat="44.63431" lon="6.15745">
        <ele>1202.2</ele>
        <time>2018-08-26T11:33:26Z</time>
      </trkpt>
      <trkpt lat="44.63433" lon="6.15713">
        <ele>1200.21</ele>
        <time>2018-08-26T11:33:27Z</time>
      </trkpt>
      <trkpt lat="44.63436" lon="6.15682">
        <ele>1197.52</ele>
        <time>2018-08-26T11:33:28Z</time>
      </trkpt>
      <trkpt lat="44.63439" lon="6.15651">
        <ele>1196.01</ele>
        <time>2018-08-26T11:33:29Z</time>
      </trkpt>
      <trkpt lat="44.63446" lon="6.15621">
        <ele>1194.85</ele>
        <time>2018-08-26T11:33:30Z</time>
      </trkpt>
      <trkpt lat="44.63453" lon="6.1559">
        <ele>1193.11</ele>
        <time>2018-08-26T11:33:31Z</time>
      </trkpt>
      <trkpt lat="44.63459" lon="6.15559">
        <ele>1191.88</ele>
        <time>2018-08-26T11:33:32Z</time>
      </trkpt>
      <trkpt lat="44.63466" lon="6.15527">
        <ele>1189.42</ele>
        <time>2018-08-26T11:33:33Z</time>
      </trkpt>
      <trkpt lat="44.6347" lon="6.15494">
        <ele>1187.28</ele>
        <time>2018-08-26T11:33:34Z</time>
      </trkpt>
      <trkpt lat="44.63473" lon="6.15459">
        <ele>1185.24</ele>
        <time>2018-08-26T11:33:35Z</time>
      </trkpt>
      <trkpt lat="44.63476" lon="6.1542">
        <ele>1181.82</ele>
        <time>2018-08-26T11:33:36Z</time>
      </trkpt>
      <trkpt lat="44.63478" lon="6.15379">
        <ele>1178.7</ele>
        <time>2018-08-26T11:33:37Z</time>
      </trkpt>
      <trkpt lat="44.6348" lon="6.15336">
        <ele>1176.36</ele>
        <time>2018-08-26T11:33:38Z</time>
      </trkpt>
      <trkpt lat="44.6348" lon="6.15291">
        <ele>1174.26</ele>
        <time>2018-08-26T11:33:39Z</time>
      </trkpt>
      <trkpt lat="44.63484" lon="6.15247">
        <ele>1170.83</ele>
        <time>2018-08-26T11:33:40Z</time>
      </trkpt>
      <trkpt lat="44.63486" lon="6.15204">
        <ele>1168.4</ele>
        <time>2018-08-26T11:33:41Z</time>
      </trkpt>
      <trkpt lat="44.63487" lon="6.15164">
        <ele>1164.87</ele>
        <time>2018-08-26T11:33:42Z</time>
      </trkpt>
      <trkpt lat="44.6349" lon="6.15125">
        <ele>1162.41</ele>
        <time>2018-08-26T11:33:43Z</time>
      </trkpt>
      <trkpt lat="44.63493" lon="6.15086">
        <ele>1160.98</ele>
        <time>2018-08-26T11:33:44Z</time>
      </trkpt>
      <trkpt lat="44.63502" lon="6.15052">
        <ele>1158.44</ele>
        <time>2018-08-26T11:33:45Z</time>
      </trkpt>
      <trkpt lat="44.63508" lon="6.15017">
        <ele>1156.99</ele>
        <time>2018-08-26T11:33:46Z</time>
      </trkpt>
      <trkpt lat="44.63516" lon="6.14983">
        <ele>1156.55</ele>
        <time>2018-08-26T11:33:47Z</time>
      </trkpt>
      <trkpt lat="44.63525" lon="6.14949">
        <ele>1156.42</ele>
        <time>2018-08-26T11:33:48Z</time>
      </trkpt>
      <trkpt lat="44.63533" lon="6.14917">
        <ele>1155.68</ele>
        <time>2018-08-26T11:33:49Z</time>
      </trkpt>
      <trkpt lat="44.63542" lon="6.14886">
        <ele>1155.46</ele>
        <time>2018-08-26T11:33:50Z</time>
      </trkpt>
      <trkpt lat="44.63551" lon="6.14856">
        <ele>1155.39</ele>
        <time>2018-08-26T11:33:51Z</time>
      </trkpt>
      <trkpt lat="44.63561" lon="6.14826">
        <ele>1155.37</ele>
        <time>2018-08-26T11:33:52Z</time>
      </trkpt>
      <trkpt lat="44.63572" lon="6.14796">
        <ele>1154.66</ele>
        <time>2018-08-26T11:33:53Z</time>
      </trkpt>
      <trkpt lat="44.63582" lon="6.14765">
        <ele>1153.75</ele>
        <time>2018-08-26T11:33:54Z</time>
      </trkpt>
      <trkpt lat="44.63594" lon="6.14734">
        <ele>1153.48</ele>
        <time>2018-08-26T11:33:55Z</time>
      </trkpt>
      <trkpt lat="44.63602" lon="6.14702">
        <ele>1152</ele>
        <time>2018-08-26T11:33:56Z</time>
      </trkpt>
      <trkpt lat="44.63611" lon="6.14672">
        <ele>1150.85</ele>
        <time>2018-08-26T11:33:57Z</time>
      </trkpt>
      <trkpt lat="44.63621" lon="6.14644">
        <ele>1149.81</ele>
        <time>2018-08-26T11:33:58Z</time>
      </trkpt>
      <trkpt lat="44.63634" lon="6.1462">
        <ele>1145.29</ele>
        <time>2018-08-26T11:33:59Z</time>
      </trkpt>
      <trkpt lat="44.63646" lon="6.14596">
        <ele>1142.54</ele>
        <time>2018-08-26T11:34:00Z</time>
      </trkpt>
      <trkpt lat="44.63659" lon="6.14572">
        <ele>1140.31</ele>
        <time>2018-08-26T11:34:01Z</time>
      </trkpt>
      <trkpt lat="44.63672" lon="6.14549">
        <ele>1137.55</ele>
        <time>2018-08-26T11:34:02Z</time>
      </trkpt>
      <trkpt lat="44.63685" lon="6.14527">
        <ele>1135.32</ele>
        <time>2018-08-26T11:34:03Z</time>
      </trkpt>
      <trkpt lat="44.63696" lon="6.14506">
        <ele>1133.95</ele>
        <time>2018-08-26T11:34:04Z</time>
      </trkpt>
      <trkpt lat="44.63713" lon="6.14479">
        <ele>1125.08</ele>
        <time>2018-08-26T11:34:06Z</time>
      </trkpt>
      <trkpt lat="44.63733" lon="6.14471">
        <ele>1119.39</ele>
        <time>2018-08-26T11:34:08Z</time>
      </trkpt>
      <trkpt lat="44.63748" lon="6.14502">
        <ele>1112.37</ele>
        <time>2018-08-26T11:34:11Z</time>
      </trkpt>
      <trkpt lat="44.63745" lon="6.14536">
        <ele>1108.23</ele>
        <time>2018-08-26T11:34:13Z</time>
      </trkpt>
      <trkpt lat="44.63744" lon="6.14573">
        <ele>1105.83</ele>
        <time>2018-08-26T11:34:15Z</time>
      </trkpt>
      <trkpt lat="44.63761" lon="6.14602">
        <ele>1103.09</ele>
        <time>2018-08-26T11:34:17Z</time>
      </trkpt>
      <trkpt lat="44.63784" lon="6.14615">
        <ele>1100.82</ele>
        <time>2018-08-26T11:34:19Z</time>
      </trkpt>
      <trkpt lat="44.63812" lon="6.14591">
        <ele>1097.18</ele>
        <time>2018-08-26T11:34:21Z</time>
      </trkpt>
      <trkpt lat="44.63838" lon="6.14561">
        <ele>1094.61</ele>
        <time>2018-08-26T11:34:23Z</time>
      </trkpt>
      <trkpt lat="44.63861" lon="6.14529">
        <ele>1092.77</ele>
        <time>2018-08-26T11:34:25Z</time>
      </trkpt>
      <trkpt lat="44.63867" lon="6.14483">
        <ele>1090.09</ele>
        <time>2018-08-26T11:34:27Z</time>
      </trkpt>
      <trkpt lat="44.63863" lon="6.14438">
        <ele>1087.61</ele>
        <time>2018-08-26T11:34:29Z</time>
      </trkpt>
      <trkpt lat="44.63846" lon="6.14405">
        <ele>1086.47</ele>
        <time>2018-08-26T11:34:31Z</time>
      </trkpt>
      <trkpt lat="44.63842" lon="6.14377">
        <ele>1083.85</ele>
        <time>2018-08-26T11:34:33Z</time>
      </trkpt>
      <trkpt lat="44.63857" lon="6.1435">
        <ele>1082.46</ele>
        <time>2018-08-26T11:34:36Z</time>
      </trkpt>
      <trkpt lat="44.63868" lon="6.14329">
        <ele>1083.15</ele>
        <time>2018-08-26T11:34:51Z</time>
      </trkpt>
      <trkpt lat="44.63856" lon="6.14302">
        <ele>1081.39</ele>
        <time>2018-08-26T11:34:55Z</time>
      </trkpt>
      <trkpt lat="44.63849" lon="6.14275">
        <ele>1081.36</ele>
        <time>2018-08-26T11:34:58Z</time>
      </trkpt>
      <trkpt lat="44.63862" lon="6.14244">
        <ele>1081.57</ele>
        <time>2018-08-26T11:35:01Z</time>
      </trkpt>
      <trkpt lat="44.63877" lon="6.1422">
        <ele>1080.47</ele>
        <time>2018-08-26T11:35:03Z</time>
      </trkpt>
      <trkpt lat="44.63895" lon="6.14194">
        <ele>1079.46</ele>
        <time>2018-08-26T11:35:05Z</time>
      </trkpt>
      <trkpt lat="44.63915" lon="6.14163">
        <ele>1077.76</ele>
        <time>2018-08-26T11:35:07Z</time>
      </trkpt>
      <trkpt lat="44.63936" lon="6.14133">
        <ele>1076</ele>
        <time>2018-08-26T11:35:09Z</time>
      </trkpt>
      <trkpt lat="44.63956" lon="6.14106">
        <ele>1073.81</ele>
        <time>2018-08-26T11:35:11Z</time>
      </trkpt>
      <trkpt lat="44.63977" lon="6.14082">
        <ele>1072</ele>
        <time>2018-08-26T11:35:13Z</time>
      </trkpt>
      <trkpt lat="44.63998" lon="6.14064">
        <ele>1069.11</ele>
        <time>2018-08-26T11:35:15Z</time>
      </trkpt>
      <trkpt lat="44.64013" lon="6.14039">
        <ele>1067.73</ele>
        <time>2018-08-26T11:35:17Z</time>
      </trkpt>
      <trkpt lat="44.64032" lon="6.14009">
        <ele>1067.39</ele>
        <time>2018-08-26T11:35:19Z</time>
      </trkpt>
      <trkpt lat="44.64056" lon="6.13977">
        <ele>1067.36</ele>
        <time>2018-08-26T11:35:21Z</time>
      </trkpt>
      <trkpt lat="44.64083" lon="6.13943">
        <ele>1065.75</ele>
        <time>2018-08-26T11:35:23Z</time>
      </trkpt>
      <trkpt lat="44.64096" lon="6.13924">
        <ele>1064.78</ele>
        <time>2018-08-26T11:35:24Z</time>
      </trkpt>
      <trkpt lat="44.64111" lon="6.13905">
        <ele>1063.79</ele>
        <time>2018-08-26T11:35:25Z</time>
      </trkpt>
      <trkpt lat="44.64125" lon="6.13886">
        <ele>1062.79</ele>
        <time>2018-08-26T11:35:26Z</time>
      </trkpt>
      <trkpt lat="44.6414" lon="6.13867">
        <ele>1061.79</ele>
        <time>2018-08-26T11:35:27Z</time>
      </trkpt>
      <trkpt lat="44.64153" lon="6.13849">
        <ele>1060.79</ele>
        <time>2018-08-26T11:35:28Z</time>
      </trkpt>
      <trkpt lat="44.64166" lon="6.1383">
        <ele>1059.79</ele>
        <time>2018-08-26T11:35:29Z</time>
      </trkpt>
      <trkpt lat="44.64178" lon="6.13811">
        <ele>1059.49</ele>
        <time>2018-08-26T11:35:30Z</time>
      </trkpt>
      <trkpt lat="44.64189" lon="6.1379">
        <ele>1058</ele>
        <time>2018-08-26T11:35:31Z</time>
      </trkpt>
      <trkpt lat="44.64199" lon="6.1377">
        <ele>1057.55</ele>
        <time>2018-08-26T11:35:32Z</time>
      </trkpt>
      <trkpt lat="44.6421" lon="6.13749">
        <ele>1057.42</ele>
        <time>2018-08-26T11:35:33Z</time>
      </trkpt>
      <trkpt lat="44.64229" lon="6.13713">
        <ele>1055.76</ele>
        <time>2018-08-26T11:35:35Z</time>
      </trkpt>
      <trkpt lat="44.64245" lon="6.13685">
        <ele>1054.49</ele>
        <time>2018-08-26T11:35:37Z</time>
      </trkpt>
      <trkpt lat="44.6426" lon="6.13657">
        <ele>1052.76</ele>
        <time>2018-08-26T11:35:39Z</time>
      </trkpt>
      <trkpt lat="44.64275" lon="6.13625">
        <ele>1050.79</ele>
        <time>2018-08-26T11:35:41Z</time>
      </trkpt>
      <trkpt lat="44.64287" lon="6.13589">
        <ele>1049.7</ele>
        <time>2018-08-26T11:35:43Z</time>
      </trkpt>
      <trkpt lat="44.64298" lon="6.13548">
        <ele>1048.69</ele>
        <time>2018-08-26T11:35:45Z</time>
      </trkpt>
      <trkpt lat="44.6431" lon="6.13504">
        <ele>1048.39</ele>
        <time>2018-08-26T11:35:47Z</time>
      </trkpt>
      <trkpt lat="44.64322" lon="6.13464">
        <ele>1046.75</ele>
        <time>2018-08-26T11:35:49Z</time>
      </trkpt>
      <trkpt lat="44.64342" lon="6.13428">
        <ele>1044.58</ele>
        <time>2018-08-26T11:35:51Z</time>
      </trkpt>
      <trkpt lat="44.64356" lon="6.13411">
        <ele>1043.72</ele>
        <time>2018-08-26T11:35:52Z</time>
      </trkpt>
      <trkpt lat="44.64384" lon="6.13379">
        <ele>1042.69</ele>
        <time>2018-08-26T11:35:54Z</time>
      </trkpt>
      <trkpt lat="44.64413" lon="6.1335">
        <ele>1042.39</ele>
        <time>2018-08-26T11:35:56Z</time>
      </trkpt>
      <trkpt lat="44.6444" lon="6.13324">
        <ele>1042.36</ele>
        <time>2018-08-26T11:35:58Z</time>
      </trkpt>
      <trkpt lat="44.64465" lon="6.13301">
        <ele>1042.36</ele>
        <time>2018-08-26T11:36:00Z</time>
      </trkpt>
      <trkpt lat="44.64489" lon="6.13279">
        <ele>1043.06</ele>
        <time>2018-08-26T11:36:02Z</time>
      </trkpt>
      <trkpt lat="44.64507" lon="6.13255">
        <ele>1044.24</ele>
        <time>2018-08-26T11:36:04Z</time>
      </trkpt>
      <trkpt lat="44.64513" lon="6.13225">
        <ele>1045.96</ele>
        <time>2018-08-26T11:36:06Z</time>
      </trkpt>
      <trkpt lat="44.64518" lon="6.13199">
        <ele>1047.23</ele>
        <time>2018-08-26T11:36:08Z</time>
      </trkpt>
      <trkpt lat="44.64523" lon="6.13172">
        <ele>1047.35</ele>
        <time>2018-08-26T11:36:10Z</time>
      </trkpt>
      <trkpt lat="44.64528" lon="6.13141">
        <ele>1045.69</ele>
        <time>2018-08-26T11:36:13Z</time>
      </trkpt>
      <trkpt lat="44.64525" lon="6.13107">
        <ele>1048.47</ele>
        <time>2018-08-26T12:14:40Z</time>
      </trkpt>
      <trkpt lat="44.64524" lon="6.13076">
        <ele>1045.78</ele>
        <time>2018-08-26T12:14:43Z</time>
      </trkpt>
      <trkpt lat="44.64528" lon="6.1305">
        <ele>1045.4</ele>
        <time>2018-08-26T12:14:45Z</time>
      </trkpt>
      <trkpt lat="44.64537" lon="6.13027">
        <ele>1044.66</ele>
        <time>2018-08-26T12:14:47Z</time>
      </trkpt>
      <trkpt lat="44.64549" lon="6.13003">
        <ele>1044.39</ele>
        <time>2018-08-26T12:14:49Z</time>
      </trkpt>
      <trkpt lat="44.64561" lon="6.12978">
        <ele>1045.76</ele>
        <time>2018-08-26T12:14:51Z</time>
      </trkpt>
      <trkpt lat="44.6457" lon="6.12947">
        <ele>1046.31</ele>
        <time>2018-08-26T12:14:53Z</time>
      </trkpt>
      <trkpt lat="44.64576" lon="6.12916">
        <ele>1044.75</ele>
        <time>2018-08-26T12:14:55Z</time>
      </trkpt>
      <trkpt lat="44.64579" lon="6.12882">
        <ele>1045.09</ele>
        <time>2018-08-26T12:14:57Z</time>
      </trkpt>
      <trkpt lat="44.6458" lon="6.12846">
        <ele>1045.34</ele>
        <time>2018-08-26T12:14:59Z</time>
      </trkpt>
      <trkpt lat="44.64579" lon="6.12813">
        <ele>1044.66</ele>
        <time>2018-08-26T12:15:01Z</time>
      </trkpt>
      <trkpt lat="44.64577" lon="6.12786">
        <ele>1044.39</ele>
        <time>2018-08-26T12:15:03Z</time>
      </trkpt>
      <trkpt lat="44.64574" lon="6.12751">
        <ele>1045.33</ele>
        <time>2018-08-26T12:15:06Z</time>
      </trkpt>
      <trkpt lat="44.64572" lon="6.12718">
        <ele>1045.36</ele>
        <time>2018-08-26T12:15:08Z</time>
      </trkpt>
      <trkpt lat="44.6457" lon="6.12672">
        <ele>1046.06</ele>
        <time>2018-08-26T12:15:10Z</time>
      </trkpt>
      <trkpt lat="44.64569" lon="6.12621">
        <ele>1046.33</ele>
        <time>2018-08-26T12:15:12Z</time>
      </trkpt>
      <trkpt lat="44.64569" lon="6.12594">
        <ele>1046.35</ele>
        <time>2018-08-26T12:15:13Z</time>
      </trkpt>
      <trkpt lat="44.6457" lon="6.12566">
        <ele>1046.36</ele>
        <time>2018-08-26T12:15:14Z</time>
      </trkpt>
      <trkpt lat="44.64571" lon="6.12539">
        <ele>1046.36</ele>
        <time>2018-08-26T12:15:15Z</time>
      </trkpt>
      <trkpt lat="44.64573" lon="6.12511">
        <ele>1047.06</ele>
        <time>2018-08-26T12:15:16Z</time>
      </trkpt>
      <trkpt lat="44.64575" lon="6.12481">
        <ele>1047.27</ele>
        <time>2018-08-26T12:15:17Z</time>
      </trkpt>
      <trkpt lat="44.64578" lon="6.12451">
        <ele>1047.33</ele>
        <time>2018-08-26T12:15:18Z</time>
      </trkpt>
      <trkpt lat="44.64581" lon="6.12419">
        <ele>1048.05</ele>
        <time>2018-08-26T12:15:19Z</time>
      </trkpt>
      <trkpt lat="44.64585" lon="6.12387">
        <ele>1048.27</ele>
        <time>2018-08-26T12:15:20Z</time>
      </trkpt>
      <trkpt lat="44.6459" lon="6.12355">
        <ele>1048.33</ele>
        <time>2018-08-26T12:15:21Z</time>
      </trkpt>
      <trkpt lat="44.64595" lon="6.12322">
        <ele>1048.35</ele>
        <time>2018-08-26T12:15:22Z</time>
      </trkpt>
      <trkpt lat="44.64601" lon="6.1229">
        <ele>1049.06</ele>
        <time>2018-08-26T12:15:23Z</time>
      </trkpt>
      <trkpt lat="44.64607" lon="6.12259">
        <ele>1049.27</ele>
        <time>2018-08-26T12:15:24Z</time>
      </trkpt>
      <trkpt lat="44.64613" lon="6.12227">
        <ele>1050.03</ele>
        <time>2018-08-26T12:15:25Z</time>
      </trkpt>
      <trkpt lat="44.64621" lon="6.12196">
        <ele>1050.26</ele>
        <time>2018-08-26T12:15:26Z</time>
      </trkpt>
      <trkpt lat="44.64628" lon="6.12165">
        <ele>1050.33</ele>
        <time>2018-08-26T12:15:27Z</time>
      </trkpt>
      <trkpt lat="44.64635" lon="6.12134">
        <ele>1050.35</ele>
        <time>2018-08-26T12:15:28Z</time>
      </trkpt>
      <trkpt lat="44.64641" lon="6.12102">
        <ele>1050.36</ele>
        <time>2018-08-26T12:15:29Z</time>
      </trkpt>
      <trkpt lat="44.64646" lon="6.12071">
        <ele>1050.36</ele>
        <time>2018-08-26T12:15:30Z</time>
      </trkpt>
      <trkpt lat="44.6465" lon="6.12039">
        <ele>1050.36</ele>
        <time>2018-08-26T12:15:31Z</time>
      </trkpt>
      <trkpt lat="44.64653" lon="6.12006">
        <ele>1049.66</ele>
        <time>2018-08-26T12:15:32Z</time>
      </trkpt>
      <trkpt lat="44.64656" lon="6.11974">
        <ele>1049.45</ele>
        <time>2018-08-26T12:15:33Z</time>
      </trkpt>
      <trkpt lat="44.64659" lon="6.11943">
        <ele>1049.39</ele>
        <time>2018-08-26T12:15:34Z</time>
      </trkpt>
      <trkpt lat="44.64662" lon="6.11911">
        <ele>1049.37</ele>
        <time>2018-08-26T12:15:35Z</time>
      </trkpt>
      <trkpt lat="44.64665" lon="6.11879">
        <ele>1049.36</ele>
        <time>2018-08-26T12:15:36Z</time>
      </trkpt>
      <trkpt lat="44.64668" lon="6.11847">
        <ele>1049.36</ele>
        <time>2018-08-26T12:15:37Z</time>
      </trkpt>
      <trkpt lat="44.64671" lon="6.11815">
        <ele>1049.36</ele>
        <time>2018-08-26T12:15:38Z</time>
      </trkpt>
      <trkpt lat="44.64673" lon="6.11783">
        <ele>1050.06</ele>
        <time>2018-08-26T12:15:39Z</time>
      </trkpt>
      <trkpt lat="44.64676" lon="6.1175">
        <ele>1050.27</ele>
        <time>2018-08-26T12:15:40Z</time>
      </trkpt>
      <trkpt lat="44.6468" lon="6.11718">
        <ele>1051.03</ele>
        <time>2018-08-26T12:15:41Z</time>
      </trkpt>
      <trkpt lat="44.64683" lon="6.11684">
        <ele>1051.26</ele>
        <time>2018-08-26T12:15:42Z</time>
      </trkpt>
      <trkpt lat="44.64687" lon="6.11651">
        <ele>1052.73</ele>
        <time>2018-08-26T12:15:43Z</time>
      </trkpt>
      <trkpt lat="44.6469" lon="6.11618">
        <ele>1053.17</ele>
        <time>2018-08-26T12:15:44Z</time>
      </trkpt>
      <trkpt lat="44.64693" lon="6.11585">
        <ele>1053.3</ele>
        <time>2018-08-26T12:15:45Z</time>
      </trkpt>
      <trkpt lat="44.64696" lon="6.11552">
        <ele>1054.04</ele>
        <time>2018-08-26T12:15:46Z</time>
      </trkpt>
      <trkpt lat="44.64699" lon="6.11519">
        <ele>1054.26</ele>
        <time>2018-08-26T12:15:47Z</time>
      </trkpt>
      <trkpt lat="44.64702" lon="6.11486">
        <ele>1055.03</ele>
        <time>2018-08-26T12:15:48Z</time>
      </trkpt>
      <trkpt lat="44.64705" lon="6.11453">
        <ele>1055.26</ele>
        <time>2018-08-26T12:15:49Z</time>
      </trkpt>
      <trkpt lat="44.64708" lon="6.11421">
        <ele>1055.33</ele>
        <time>2018-08-26T12:15:50Z</time>
      </trkpt>
      <trkpt lat="44.64711" lon="6.11387">
        <ele>1055.35</ele>
        <time>2018-08-26T12:15:51Z</time>
      </trkpt>
      <trkpt lat="44.64713" lon="6.11354">
        <ele>1055.36</ele>
        <time>2018-08-26T12:15:52Z</time>
      </trkpt>
      <trkpt lat="44.64715" lon="6.11322">
        <ele>1055.36</ele>
        <time>2018-08-26T12:15:53Z</time>
      </trkpt>
      <trkpt lat="44.64717" lon="6.11289">
        <ele>1055.36</ele>
        <time>2018-08-26T12:15:54Z</time>
      </trkpt>
      <trkpt lat="44.64718" lon="6.11256">
        <ele>1055.36</ele>
        <time>2018-08-26T12:15:55Z</time>
      </trkpt>
      <trkpt lat="44.64719" lon="6.11224">
        <ele>1055.36</ele>
        <time>2018-08-26T12:15:56Z</time>
      </trkpt>
      <trkpt lat="44.6472" lon="6.11192">
        <ele>1055.36</ele>
        <time>2018-08-26T12:15:57Z</time>
      </trkpt>
      <trkpt lat="44.64721" lon="6.1116">
        <ele>1055.36</ele>
        <time>2018-08-26T12:15:58Z</time>
      </trkpt>
      <trkpt lat="44.64722" lon="6.11127">
        <ele>1055.36</ele>
        <time>2018-08-26T12:15:59Z</time>
      </trkpt>
      <trkpt lat="44.64723" lon="6.11094">
        <ele>1055.36</ele>
        <time>2018-08-26T12:16:00Z</time>
      </trkpt>
      <trkpt lat="44.64725" lon="6.11062">
        <ele>1056.06</ele>
        <time>2018-08-26T12:16:01Z</time>
      </trkpt>
      <trkpt lat="44.64726" lon="6.1103">
        <ele>1055.57</ele>
        <time>2018-08-26T12:16:02Z</time>
      </trkpt>
      <trkpt lat="44.64727" lon="6.10998">
        <ele>1056.12</ele>
        <time>2018-08-26T12:16:03Z</time>
      </trkpt>
      <trkpt lat="44.64728" lon="6.10965">
        <ele>1056.29</ele>
        <time>2018-08-26T12:16:04Z</time>
      </trkpt>
      <trkpt lat="44.6473" lon="6.10933">
        <ele>1056.34</ele>
        <time>2018-08-26T12:16:05Z</time>
      </trkpt>
      <trkpt lat="44.64731" lon="6.10902">
        <ele>1056.35</ele>
        <time>2018-08-26T12:16:06Z</time>
      </trkpt>
      <trkpt lat="44.64733" lon="6.1087">
        <ele>1056.36</ele>
        <time>2018-08-26T12:16:07Z</time>
      </trkpt>
      <trkpt lat="44.64737" lon="6.1084">
        <ele>1057.06</ele>
        <time>2018-08-26T12:16:08Z</time>
      </trkpt>
      <trkpt lat="44.64742" lon="6.1081">
        <ele>1057.27</ele>
        <time>2018-08-26T12:16:09Z</time>
      </trkpt>
      <trkpt lat="44.64749" lon="6.1078">
        <ele>1058.03</ele>
        <time>2018-08-26T12:16:10Z</time>
      </trkpt>
      <trkpt lat="44.64754" lon="6.10751">
        <ele>1058.26</ele>
        <time>2018-08-26T12:16:11Z</time>
      </trkpt>
      <trkpt lat="44.64758" lon="6.10721">
        <ele>1058.33</ele>
        <time>2018-08-26T12:16:12Z</time>
      </trkpt>
      <trkpt lat="44.64762" lon="6.10691">
        <ele>1059.05</ele>
        <time>2018-08-26T12:16:13Z</time>
      </trkpt>
      <trkpt lat="44.64765" lon="6.10663">
        <ele>1059.27</ele>
        <time>2018-08-26T12:16:14Z</time>
      </trkpt>
      <trkpt lat="44.64768" lon="6.10634">
        <ele>1059.33</ele>
        <time>2018-08-26T12:16:15Z</time>
      </trkpt>
      <trkpt lat="44.64771" lon="6.10606">
        <ele>1059.35</ele>
        <time>2018-08-26T12:16:16Z</time>
      </trkpt>
      <trkpt lat="44.64774" lon="6.10577">
        <ele>1060.06</ele>
        <time>2018-08-26T12:16:17Z</time>
      </trkpt>
      <trkpt lat="44.64778" lon="6.10549">
        <ele>1060.27</ele>
        <time>2018-08-26T12:16:18Z</time>
      </trkpt>
      <trkpt lat="44.6478" lon="6.10522">
        <ele>1060.33</ele>
        <time>2018-08-26T12:16:19Z</time>
      </trkpt>
      <trkpt lat="44.64783" lon="6.10496">
        <ele>1060.35</ele>
        <time>2018-08-26T12:16:20Z</time>
      </trkpt>
      <trkpt lat="44.64786" lon="6.10448">
        <ele>1060.36</ele>
        <time>2018-08-26T12:16:22Z</time>
      </trkpt>
      <trkpt lat="44.64781" lon="6.10398">
        <ele>1061.06</ele>
        <time>2018-08-26T12:16:24Z</time>
      </trkpt>
      <trkpt lat="44.64777" lon="6.10372">
        <ele>1062.67</ele>
        <time>2018-08-26T12:16:25Z</time>
      </trkpt>
      <trkpt lat="44.64773" lon="6.10346">
        <ele>1063.85</ele>
        <time>2018-08-26T12:16:26Z</time>
      </trkpt>
      <trkpt lat="44.64764" lon="6.10298">
        <ele>1065.22</ele>
        <time>2018-08-26T12:16:28Z</time>
      </trkpt>
      <trkpt lat="44.6476" lon="6.10273">
        <ele>1066.02</ele>
        <time>2018-08-26T12:16:29Z</time>
      </trkpt>
      <trkpt lat="44.6475" lon="6.10225">
        <ele>1066.33</ele>
        <time>2018-08-26T12:16:31Z</time>
      </trkpt>
      <trkpt lat="44.64741" lon="6.10179">
        <ele>1066.36</ele>
        <time>2018-08-26T12:16:33Z</time>
      </trkpt>
      <trkpt lat="44.64733" lon="6.10135">
        <ele>1066.36</ele>
        <time>2018-08-26T12:16:35Z</time>
      </trkpt>
      <trkpt lat="44.64728" lon="6.10095">
        <ele>1066.36</ele>
        <time>2018-08-26T12:16:37Z</time>
      </trkpt>
      <trkpt lat="44.64725" lon="6.10057">
        <ele>1066.36</ele>
        <time>2018-08-26T12:16:39Z</time>
      </trkpt>
      <trkpt lat="44.64731" lon="6.10022">
        <ele>1065.66</ele>
        <time>2018-08-26T12:16:41Z</time>
      </trkpt>
      <trkpt lat="44.64747" lon="6.09992">
        <ele>1066.3</ele>
        <time>2018-08-26T12:16:43Z</time>
      </trkpt>
      <trkpt lat="44.6476" lon="6.09962">
        <ele>1066.35</ele>
        <time>2018-08-26T12:16:45Z</time>
      </trkpt>
      <trkpt lat="44.64774" lon="6.09932">
        <ele>1066.15</ele>
        <time>2018-08-26T12:16:47Z</time>
      </trkpt>
      <trkpt lat="44.64782" lon="6.09903">
        <ele>1065.64</ele>
        <time>2018-08-26T12:16:49Z</time>
      </trkpt>
      <trkpt lat="44.6478" lon="6.0987">
        <ele>1065.39</ele>
        <time>2018-08-26T12:16:51Z</time>
      </trkpt>
      <trkpt lat="44.64776" lon="6.0983">
        <ele>1064.45</ele>
        <time>2018-08-26T12:16:53Z</time>
      </trkpt>
      <trkpt lat="44.64788" lon="6.09797">
        <ele>1065.28</ele>
        <time>2018-08-26T12:16:55Z</time>
      </trkpt>
      <trkpt lat="44.64806" lon="6.09759">
        <ele>1065.35</ele>
        <time>2018-08-26T12:16:57Z</time>
      </trkpt>
      <trkpt lat="44.64817" lon="6.09738">
        <ele>1064.66</ele>
        <time>2018-08-26T12:16:58Z</time>
      </trkpt>
      <trkpt lat="44.64829" lon="6.09714">
        <ele>1064.45</ele>
        <time>2018-08-26T12:16:59Z</time>
      </trkpt>
      <trkpt lat="44.64841" lon="6.09689">
        <ele>1064.39</ele>
        <time>2018-08-26T12:17:00Z</time>
      </trkpt>
      <trkpt lat="44.64854" lon="6.09665">
        <ele>1063.67</ele>
        <time>2018-08-26T12:17:01Z</time>
      </trkpt>
      <trkpt lat="44.64866" lon="6.09638">
        <ele>1062.75</ele>
        <time>2018-08-26T12:17:02Z</time>
      </trkpt>
      <trkpt lat="44.6488" lon="6.09611">
        <ele>1062.48</ele>
        <time>2018-08-26T12:17:03Z</time>
      </trkpt>
      <trkpt lat="44.64893" lon="6.09583">
        <ele>1062.4</ele>
        <time>2018-08-26T12:17:04Z</time>
      </trkpt>
      <trkpt lat="44.64905" lon="6.09553">
        <ele>1061.67</ele>
        <time>2018-08-26T12:17:05Z</time>
      </trkpt>
      <trkpt lat="44.64918" lon="6.09523">
        <ele>1060.75</ele>
        <time>2018-08-26T12:17:06Z</time>
      </trkpt>
      <trkpt lat="44.6493" lon="6.09493">
        <ele>1059.78</ele>
        <time>2018-08-26T12:17:07Z</time>
      </trkpt>
      <trkpt lat="44.64943" lon="6.09463">
        <ele>1058.79</ele>
        <time>2018-08-26T12:17:08Z</time>
      </trkpt>
      <trkpt lat="44.64955" lon="6.09433">
        <ele>1057.79</ele>
        <time>2018-08-26T12:17:09Z</time>
      </trkpt>
      <trkpt lat="44.64969" lon="6.09404">
        <ele>1056.79</ele>
        <time>2018-08-26T12:17:10Z</time>
      </trkpt>
      <trkpt lat="44.64982" lon="6.09375">
        <ele>1056.49</ele>
        <time>2018-08-26T12:17:11Z</time>
      </trkpt>
      <trkpt lat="44.64995" lon="6.09346">
        <ele>1055.7</ele>
        <time>2018-08-26T12:17:12Z</time>
      </trkpt>
      <trkpt lat="44.65008" lon="6.09315">
        <ele>1054.76</ele>
        <time>2018-08-26T12:17:13Z</time>
      </trkpt>
      <trkpt lat="44.65021" lon="6.09285">
        <ele>1054.48</ele>
        <time>2018-08-26T12:17:14Z</time>
      </trkpt>
      <trkpt lat="44.65034" lon="6.09256">
        <ele>1055.1</ele>
        <time>2018-08-26T12:17:15Z</time>
      </trkpt>
      <trkpt lat="44.65046" lon="6.09225">
        <ele>1054.58</ele>
        <time>2018-08-26T12:17:16Z</time>
      </trkpt>
      <trkpt lat="44.65057" lon="6.09195">
        <ele>1054.43</ele>
        <time>2018-08-26T12:17:17Z</time>
      </trkpt>
      <trkpt lat="44.65068" lon="6.09164">
        <ele>1053.68</ele>
        <time>2018-08-26T12:17:18Z</time>
      </trkpt>
      <trkpt lat="44.65078" lon="6.09134">
        <ele>1053.46</ele>
        <time>2018-08-26T12:17:19Z</time>
      </trkpt>
      <trkpt lat="44.65087" lon="6.09105">
        <ele>1053.39</ele>
        <time>2018-08-26T12:17:20Z</time>
      </trkpt>
      <trkpt lat="44.65094" lon="6.09078">
        <ele>1052.67</ele>
        <time>2018-08-26T12:17:21Z</time>
      </trkpt>
      <trkpt lat="44.65097" lon="6.0905">
        <ele>1052.45</ele>
        <time>2018-08-26T12:17:22Z</time>
      </trkpt>
      <trkpt lat="44.651" lon="6.09022">
        <ele>1051.69</ele>
        <time>2018-08-26T12:17:23Z</time>
      </trkpt>
      <trkpt lat="44.651" lon="6.08992">
        <ele>1051.46</ele>
        <time>2018-08-26T12:17:24Z</time>
      </trkpt>
      <trkpt lat="44.651" lon="6.08962">
        <ele>1051.39</ele>
        <time>2018-08-26T12:17:25Z</time>
      </trkpt>
      <trkpt lat="44.65099" lon="6.08933">
        <ele>1050.67</ele>
        <time>2018-08-26T12:17:26Z</time>
      </trkpt>
      <trkpt lat="44.65098" lon="6.08907">
        <ele>1050.45</ele>
        <time>2018-08-26T12:17:27Z</time>
      </trkpt>
      <trkpt lat="44.65106" lon="6.08867">
        <ele>1050.37</ele>
        <time>2018-08-26T12:17:29Z</time>
      </trkpt>
      <trkpt lat="44.65129" lon="6.08841">
        <ele>1048.75</ele>
        <time>2018-08-26T12:17:31Z</time>
      </trkpt>
      <trkpt lat="44.65161" lon="6.08828">
        <ele>1048.4</ele>
        <time>2018-08-26T12:17:33Z</time>
      </trkpt>
      <trkpt lat="44.65181" lon="6.08822">
        <ele>1048.37</ele>
        <time>2018-08-26T12:17:34Z</time>
      </trkpt>
      <trkpt lat="44.652" lon="6.08811">
        <ele>1048.36</ele>
        <time>2018-08-26T12:17:35Z</time>
      </trkpt>
      <trkpt lat="44.65217" lon="6.08794">
        <ele>1048.36</ele>
        <time>2018-08-26T12:17:36Z</time>
      </trkpt>
      <trkpt lat="44.65231" lon="6.08774">
        <ele>1048.36</ele>
        <time>2018-08-26T12:17:37Z</time>
      </trkpt>
      <trkpt lat="44.65246" lon="6.08755">
        <ele>1047.66</ele>
        <time>2018-08-26T12:17:38Z</time>
      </trkpt>
      <trkpt lat="44.65262" lon="6.08735">
        <ele>1047.45</ele>
        <time>2018-08-26T12:17:39Z</time>
      </trkpt>
      <trkpt lat="44.65278" lon="6.08714">
        <ele>1047.39</ele>
        <time>2018-08-26T12:17:40Z</time>
      </trkpt>
      <trkpt lat="44.65294" lon="6.08694">
        <ele>1048.07</ele>
        <time>2018-08-26T12:17:41Z</time>
      </trkpt>
      <trkpt lat="44.6531" lon="6.08674">
        <ele>1048.27</ele>
        <time>2018-08-26T12:17:42Z</time>
      </trkpt>
      <trkpt lat="44.65326" lon="6.08656">
        <ele>1048.33</ele>
        <time>2018-08-26T12:17:43Z</time>
      </trkpt>
      <trkpt lat="44.65342" lon="6.08638">
        <ele>1047.65</ele>
        <time>2018-08-26T12:17:44Z</time>
      </trkpt>
      <trkpt lat="44.65356" lon="6.08621">
        <ele>1047.45</ele>
        <time>2018-08-26T12:17:45Z</time>
      </trkpt>
      <trkpt lat="44.65382" lon="6.08586">
        <ele>1046.67</ele>
        <time>2018-08-26T12:17:47Z</time>
      </trkpt>
      <trkpt lat="44.65405" lon="6.08554">
        <ele>1046.39</ele>
        <time>2018-08-26T12:17:49Z</time>
      </trkpt>
      <trkpt lat="44.65425" lon="6.08525">
        <ele>1047.06</ele>
        <time>2018-08-26T12:17:51Z</time>
      </trkpt>
      <trkpt lat="44.65437" lon="6.08505">
        <ele>1046.42</ele>
        <time>2018-08-26T12:17:53Z</time>
      </trkpt>
      <trkpt lat="44.65454" lon="6.08486">
        <ele>1045.12</ele>
        <time>2018-08-26T12:18:02Z</time>
      </trkpt>
      <trkpt lat="44.65489" lon="6.08484">
        <ele>1043.47</ele>
        <time>2018-08-26T12:18:05Z</time>
      </trkpt>
      <trkpt lat="44.65522" lon="6.08483">
        <ele>1041.76</ele>
        <time>2018-08-26T12:18:07Z</time>
      </trkpt>
      <trkpt lat="44.65541" lon="6.08482">
        <ele>1041.48</ele>
        <time>2018-08-26T12:18:08Z</time>
      </trkpt>
      <trkpt lat="44.6556" lon="6.08481">
        <ele>1040.7</ele>
        <time>2018-08-26T12:18:09Z</time>
      </trkpt>
      <trkpt lat="44.6558" lon="6.0848">
        <ele>1039.76</ele>
        <time>2018-08-26T12:18:10Z</time>
      </trkpt>
      <trkpt lat="44.65602" lon="6.0848">
        <ele>1039.48</ele>
        <time>2018-08-26T12:18:11Z</time>
      </trkpt>
      <trkpt lat="44.65623" lon="6.08479">
        <ele>1039.4</ele>
        <time>2018-08-26T12:18:12Z</time>
      </trkpt>
      <trkpt lat="44.65643" lon="6.08479">
        <ele>1038.67</ele>
        <time>2018-08-26T12:18:13Z</time>
      </trkpt>
      <trkpt lat="44.65664" lon="6.08478">
        <ele>1037.05</ele>
        <time>2018-08-26T12:18:14Z</time>
      </trkpt>
      <trkpt lat="44.65685" lon="6.08479">
        <ele>1037.27</ele>
        <time>2018-08-26T12:18:15Z</time>
      </trkpt>
      <trkpt lat="44.65707" lon="6.08482">
        <ele>1035.23</ele>
        <time>2018-08-26T12:18:16Z</time>
      </trkpt>
      <trkpt lat="44.65729" lon="6.08485">
        <ele>1033.92</ele>
        <time>2018-08-26T12:18:17Z</time>
      </trkpt>
      <trkpt lat="44.6575" lon="6.08486">
        <ele>1032.13</ele>
        <time>2018-08-26T12:18:18Z</time>
      </trkpt>
      <trkpt lat="44.65771" lon="6.08487">
        <ele>1030.89</ele>
        <time>2018-08-26T12:18:19Z</time>
      </trkpt>
      <trkpt lat="44.65794" lon="6.08489">
        <ele>1026.32</ele>
        <time>2018-08-26T12:18:20Z</time>
      </trkpt>
      <trkpt lat="44.65815" lon="6.08487">
        <ele>1023.55</ele>
        <time>2018-08-26T12:18:21Z</time>
      </trkpt>
      <trkpt lat="44.65836" lon="6.08484">
        <ele>1020.62</ele>
        <time>2018-08-26T12:18:22Z</time>
      </trkpt>
      <trkpt lat="44.65855" lon="6.08478">
        <ele>1018.34</ele>
        <time>2018-08-26T12:18:23Z</time>
      </trkpt>
      <trkpt lat="44.65874" lon="6.08474">
        <ele>1016.95</ele>
        <time>2018-08-26T12:18:24Z</time>
      </trkpt>
      <trkpt lat="44.65892" lon="6.08468">
        <ele>1015.14</ele>
        <time>2018-08-26T12:18:25Z</time>
      </trkpt>
      <trkpt lat="44.6591" lon="6.08462">
        <ele>1013.89</ele>
        <time>2018-08-26T12:18:26Z</time>
      </trkpt>
      <trkpt lat="44.65943" lon="6.0845">
        <ele>1010.89</ele>
        <time>2018-08-26T12:18:28Z</time>
      </trkpt>
      <trkpt lat="44.65972" lon="6.08442">
        <ele>1008.8</ele>
        <time>2018-08-26T12:18:30Z</time>
      </trkpt>
      <trkpt lat="44.65997" lon="6.08434">
        <ele>1006.79</ele>
        <time>2018-08-26T12:18:32Z</time>
      </trkpt>
      <trkpt lat="44.66021" lon="6.08426">
        <ele>1005.49</ele>
        <time>2018-08-26T12:18:34Z</time>
      </trkpt>
      <trkpt lat="44.66042" lon="6.0842">
        <ele>1005.37</ele>
        <time>2018-08-26T12:18:36Z</time>
      </trkpt>
      <trkpt lat="44.66061" lon="6.08414">
        <ele>1004.45</ele>
        <time>2018-08-26T12:18:38Z</time>
      </trkpt>
      <trkpt lat="44.66082" lon="6.08408">
        <ele>1003.46</ele>
        <time>2018-08-26T12:18:40Z</time>
      </trkpt>
      <trkpt lat="44.66106" lon="6.084">
        <ele>1002.67</ele>
        <time>2018-08-26T12:18:42Z</time>
      </trkpt>
      <trkpt lat="44.6613" lon="6.08392">
        <ele>1001.69</ele>
        <time>2018-08-26T12:18:44Z</time>
      </trkpt>
      <trkpt lat="44.66156" lon="6.08382">
        <ele>1001.39</ele>
        <time>2018-08-26T12:18:46Z</time>
      </trkpt>
      <trkpt lat="44.6618" lon="6.08373">
        <ele>999.75</ele>
        <time>2018-08-26T12:18:48Z</time>
      </trkpt>
      <trkpt lat="44.66204" lon="6.08362">
        <ele>999.4</ele>
        <time>2018-08-26T12:18:50Z</time>
      </trkpt>
      <trkpt lat="44.66228" lon="6.08353">
        <ele>1000.06</ele>
        <time>2018-08-26T12:18:52Z</time>
      </trkpt>
      <trkpt lat="44.66251" lon="6.08342">
        <ele>1000.54</ele>
        <time>2018-08-26T12:18:54Z</time>
      </trkpt>
      <trkpt lat="44.66274" lon="6.08331">
        <ele>1000.38</ele>
        <time>2018-08-26T12:18:56Z</time>
      </trkpt>
      <trkpt lat="44.66299" lon="6.0832">
        <ele>1000.36</ele>
        <time>2018-08-26T12:18:58Z</time>
      </trkpt>
      <trkpt lat="44.66324" lon="6.08307">
        <ele>1001.27</ele>
        <time>2018-08-26T12:19:00Z</time>
      </trkpt>
      <trkpt lat="44.66353" lon="6.08295">
        <ele>1001.35</ele>
        <time>2018-08-26T12:19:02Z</time>
      </trkpt>
      <trkpt lat="44.66381" lon="6.08278">
        <ele>1002.06</ele>
        <time>2018-08-26T12:19:04Z</time>
      </trkpt>
      <trkpt lat="44.66413" lon="6.08265">
        <ele>1002.33</ele>
        <time>2018-08-26T12:19:06Z</time>
      </trkpt>
      <trkpt lat="44.66444" lon="6.08252">
        <ele>1003.06</ele>
        <time>2018-08-26T12:19:08Z</time>
      </trkpt>
      <trkpt lat="44.66479" lon="6.08233">
        <ele>1001.72</ele>
        <time>2018-08-26T12:19:10Z</time>
      </trkpt>
      <trkpt lat="44.66501" lon="6.08222">
        <ele>1001.47</ele>
        <time>2018-08-26T12:19:11Z</time>
      </trkpt>
      <trkpt lat="44.66522" lon="6.08208">
        <ele>999.29</ele>
        <time>2018-08-26T12:19:12Z</time>
      </trkpt>
      <trkpt lat="44.66543" lon="6.08197">
        <ele>998.64</ele>
        <time>2018-08-26T12:19:13Z</time>
      </trkpt>
      <trkpt lat="44.66561" lon="6.08185">
        <ele>998.44</ele>
        <time>2018-08-26T12:19:14Z</time>
      </trkpt>
      <trkpt lat="44.66577" lon="6.08171">
        <ele>997.69</ele>
        <time>2018-08-26T12:19:15Z</time>
      </trkpt>
      <trkpt lat="44.66592" lon="6.08154">
        <ele>996.06</ele>
        <time>2018-08-26T12:19:16Z</time>
      </trkpt>
      <trkpt lat="44.66617" lon="6.0812">
        <ele>993.81</ele>
        <time>2018-08-26T12:19:18Z</time>
      </trkpt>
      <trkpt lat="44.66644" lon="6.08089">
        <ele>992.49</ele>
        <time>2018-08-26T12:19:20Z</time>
      </trkpt>
      <trkpt lat="44.66671" lon="6.08056">
        <ele>990.76</ele>
        <time>2018-08-26T12:19:22Z</time>
      </trkpt>
      <trkpt lat="44.66697" lon="6.08024">
        <ele>990.4</ele>
        <time>2018-08-26T12:19:24Z</time>
      </trkpt>
      <trkpt lat="44.66723" lon="6.07993">
        <ele>988.54</ele>
        <time>2018-08-26T12:19:26Z</time>
      </trkpt>
      <trkpt lat="44.66749" lon="6.07963">
        <ele>987.68</ele>
        <time>2018-08-26T12:19:28Z</time>
      </trkpt>
      <trkpt lat="44.66776" lon="6.07932">
        <ele>987.39</ele>
        <time>2018-08-26T12:19:30Z</time>
      </trkpt>
      <trkpt lat="44.66792" lon="6.07914">
        <ele>987.37</ele>
        <time>2018-08-26T12:19:31Z</time>
      </trkpt>
      <trkpt lat="44.66808" lon="6.07896">
        <ele>987.36</ele>
        <time>2018-08-26T12:19:32Z</time>
      </trkpt>
      <trkpt lat="44.66824" lon="6.07878">
        <ele>986.66</ele>
        <time>2018-08-26T12:19:33Z</time>
      </trkpt>
      <trkpt lat="44.6684" lon="6.0786">
        <ele>985.75</ele>
        <time>2018-08-26T12:19:34Z</time>
      </trkpt>
      <trkpt lat="44.66855" lon="6.07843">
        <ele>984.78</ele>
        <time>2018-08-26T12:19:35Z</time>
      </trkpt>
      <trkpt lat="44.6687" lon="6.07824">
        <ele>984.49</ele>
        <time>2018-08-26T12:19:36Z</time>
      </trkpt>
      <trkpt lat="44.66887" lon="6.07804">
        <ele>983</ele>
        <time>2018-08-26T12:19:37Z</time>
      </trkpt>
      <trkpt lat="44.66905" lon="6.07786">
        <ele>981.85</ele>
        <time>2018-08-26T12:19:38Z</time>
      </trkpt>
      <trkpt lat="44.66923" lon="6.07768">
        <ele>980.81</ele>
        <time>2018-08-26T12:19:39Z</time>
      </trkpt>
      <trkpt lat="44.66942" lon="6.07751">
        <ele>980.49</ele>
        <time>2018-08-26T12:19:40Z</time>
      </trkpt>
      <trkpt lat="44.6696" lon="6.07735">
        <ele>980.4</ele>
        <time>2018-08-26T12:19:41Z</time>
      </trkpt>
      <trkpt lat="44.66977" lon="6.07719">
        <ele>980.37</ele>
        <time>2018-08-26T12:19:42Z</time>
      </trkpt>
      <trkpt lat="44.66995" lon="6.07703">
        <ele>980.36</ele>
        <time>2018-08-26T12:19:43Z</time>
      </trkpt>
      <trkpt lat="44.67013" lon="6.07688">
        <ele>979.66</ele>
        <time>2018-08-26T12:19:44Z</time>
      </trkpt>
      <trkpt lat="44.67028" lon="6.07673">
        <ele>979.45</ele>
        <time>2018-08-26T12:19:45Z</time>
      </trkpt>
      <trkpt lat="44.67044" lon="6.07659">
        <ele>979.39</ele>
        <time>2018-08-26T12:19:46Z</time>
      </trkpt>
      <trkpt lat="44.67059" lon="6.07645">
        <ele>978.67</ele>
        <time>2018-08-26T12:19:47Z</time>
      </trkpt>
      <trkpt lat="44.67074" lon="6.07631">
        <ele>978.45</ele>
        <time>2018-08-26T12:19:48Z</time>
      </trkpt>
      <trkpt lat="44.67104" lon="6.07603">
        <ele>978.16</ele>
        <time>2018-08-26T12:19:50Z</time>
      </trkpt>
      <trkpt lat="44.67133" lon="6.07575">
        <ele>978.34</ele>
        <time>2018-08-26T12:19:52Z</time>
      </trkpt>
      <trkpt lat="44.67163" lon="6.07548">
        <ele>977.45</ele>
        <time>2018-08-26T12:19:54Z</time>
      </trkpt>
      <trkpt lat="44.67192" lon="6.07521">
        <ele>976.46</ele>
        <time>2018-08-26T12:19:56Z</time>
      </trkpt>
      <trkpt lat="44.67219" lon="6.07494">
        <ele>976.16</ele>
        <time>2018-08-26T12:19:58Z</time>
      </trkpt>
      <trkpt lat="44.67243" lon="6.07473">
        <ele>976.34</ele>
        <time>2018-08-26T12:20:00Z</time>
      </trkpt>
      <trkpt lat="44.67263" lon="6.07455">
        <ele>975.45</ele>
        <time>2018-08-26T12:20:02Z</time>
      </trkpt>
      <trkpt lat="44.67282" lon="6.07439">
        <ele>974.46</ele>
        <time>2018-08-26T12:20:04Z</time>
      </trkpt>
      <trkpt lat="44.67301" lon="6.07423">
        <ele>974.37</ele>
        <time>2018-08-26T12:20:06Z</time>
      </trkpt>
      <trkpt lat="44.6732" lon="6.07408">
        <ele>974.36</ele>
        <time>2018-08-26T12:20:08Z</time>
      </trkpt>
      <trkpt lat="44.67338" lon="6.07391">
        <ele>973.45</ele>
        <time>2018-08-26T12:20:10Z</time>
      </trkpt>
      <trkpt lat="44.67356" lon="6.07374">
        <ele>972.67</ele>
        <time>2018-08-26T12:20:12Z</time>
      </trkpt>
      <trkpt lat="44.67373" lon="6.07359">
        <ele>972.6</ele>
        <time>2018-08-26T12:20:14Z</time>
      </trkpt>
      <trkpt lat="44.67391" lon="6.07344">
        <ele>972.38</ele>
        <time>2018-08-26T12:20:16Z</time>
      </trkpt>
      <trkpt lat="44.67408" lon="6.07327">
        <ele>971.66</ele>
        <time>2018-08-26T12:20:18Z</time>
      </trkpt>
      <trkpt lat="44.67425" lon="6.0731">
        <ele>971.39</ele>
        <time>2018-08-26T12:20:20Z</time>
      </trkpt>
      <trkpt lat="44.67441" lon="6.07295">
        <ele>971.36</ele>
        <time>2018-08-26T12:20:22Z</time>
      </trkpt>
      <trkpt lat="44.67456" lon="6.07282">
        <ele>970.45</ele>
        <time>2018-08-26T12:20:24Z</time>
      </trkpt>
      <trkpt lat="44.67475" lon="6.07269">
        <ele>970.36</ele>
        <time>2018-08-26T12:20:27Z</time>
      </trkpt>
      <trkpt lat="44.67497" lon="6.07264">
        <ele>972.32</ele>
        <time>2018-08-26T12:20:31Z</time>
      </trkpt>
      <trkpt lat="44.675" lon="6.07237">
        <ele>972.98</ele>
        <time>2018-08-26T12:20:36Z</time>
      </trkpt>
      <trkpt lat="44.67489" lon="6.07213">
        <ele>973.56</ele>
        <time>2018-08-26T12:20:39Z</time>
      </trkpt>
      <trkpt lat="44.67498" lon="6.07182">
        <ele>974.34</ele>
        <time>2018-08-26T12:20:42Z</time>
      </trkpt>
      <trkpt lat="44.67508" lon="6.07156">
        <ele>975.06</ele>
        <time>2018-08-26T12:20:44Z</time>
      </trkpt>
      <trkpt lat="44.6752" lon="6.07122">
        <ele>976.03</ele>
        <time>2018-08-26T12:20:46Z</time>
      </trkpt>
      <trkpt lat="44.67532" lon="6.07082">
        <ele>977.24</ele>
        <time>2018-08-26T12:20:48Z</time>
      </trkpt>
      <trkpt lat="44.67545" lon="6.07035">
        <ele>978.96</ele>
        <time>2018-08-26T12:20:50Z</time>
      </trkpt>
      <trkpt lat="44.67558" lon="6.06988">
        <ele>980.23</ele>
        <time>2018-08-26T12:20:52Z</time>
      </trkpt>
      <trkpt lat="44.67564" lon="6.06963">
        <ele>981.02</ele>
        <time>2018-08-26T12:20:53Z</time>
      </trkpt>
      <trkpt lat="44.67571" lon="6.06938">
        <ele>981.96</ele>
        <time>2018-08-26T12:20:54Z</time>
      </trkpt>
      <trkpt lat="44.67577" lon="6.06911">
        <ele>982.94</ele>
        <time>2018-08-26T12:20:55Z</time>
      </trkpt>
      <trkpt lat="44.67581" lon="6.06885">
        <ele>984.63</ele>
        <time>2018-08-26T12:20:56Z</time>
      </trkpt>
      <trkpt lat="44.67584" lon="6.06859">
        <ele>985.84</ele>
        <time>2018-08-26T12:20:57Z</time>
      </trkpt>
      <trkpt lat="44.67586" lon="6.06832">
        <ele>986.9</ele>
        <time>2018-08-26T12:20:58Z</time>
      </trkpt>
      <trkpt lat="44.6759" lon="6.06807">
        <ele>987.92</ele>
        <time>2018-08-26T12:20:59Z</time>
      </trkpt>
      <trkpt lat="44.67596" lon="6.06782">
        <ele>988.93</ele>
        <time>2018-08-26T12:21:00Z</time>
      </trkpt>
      <trkpt lat="44.67604" lon="6.06758">
        <ele>989.93</ele>
        <time>2018-08-26T12:21:01Z</time>
      </trkpt>
      <trkpt lat="44.67614" lon="6.06734">
        <ele>990.93</ele>
        <time>2018-08-26T12:21:02Z</time>
      </trkpt>
      <trkpt lat="44.67625" lon="6.06711">
        <ele>991.93</ele>
        <time>2018-08-26T12:21:03Z</time>
      </trkpt>
      <trkpt lat="44.67637" lon="6.06689">
        <ele>992.93</ele>
        <time>2018-08-26T12:21:04Z</time>
      </trkpt>
      <trkpt lat="44.6765" lon="6.06669">
        <ele>993.93</ele>
        <time>2018-08-26T12:21:05Z</time>
      </trkpt>
      <trkpt lat="44.67664" lon="6.06651">
        <ele>994.93</ele>
        <time>2018-08-26T12:21:06Z</time>
      </trkpt>
      <trkpt lat="44.67678" lon="6.06634">
        <ele>995.93</ele>
        <time>2018-08-26T12:21:07Z</time>
      </trkpt>
      <trkpt lat="44.67705" lon="6.06605">
        <ele>997.93</ele>
        <time>2018-08-26T12:21:09Z</time>
      </trkpt>
      <trkpt lat="44.67727" lon="6.06582">
        <ele>999.02</ele>
        <time>2018-08-26T12:21:11Z</time>
      </trkpt>
      <trkpt lat="44.67743" lon="6.06565">
        <ele>1000.94</ele>
        <time>2018-08-26T12:21:13Z</time>
      </trkpt>
      <trkpt lat="44.67751" lon="6.06542">
        <ele>1001.32</ele>
        <time>2018-08-26T12:21:15Z</time>
      </trkpt>
      <trkpt lat="44.67749" lon="6.06512">
        <ele>1002.97</ele>
        <time>2018-08-26T12:21:17Z</time>
      </trkpt>
      <trkpt lat="44.67749" lon="6.06477">
        <ele>1004.23</ele>
        <time>2018-08-26T12:21:19Z</time>
      </trkpt>
      <trkpt lat="44.67756" lon="6.06439">
        <ele>1006.66</ele>
        <time>2018-08-26T12:21:21Z</time>
      </trkpt>
      <trkpt lat="44.67775" lon="6.06401">
        <ele>1009.61</ele>
        <time>2018-08-26T12:21:23Z</time>
      </trkpt>
      <trkpt lat="44.678" lon="6.06368">
        <ele>1014.42</ele>
        <time>2018-08-26T12:21:25Z</time>
      </trkpt>
      <trkpt lat="44.67829" lon="6.06343">
        <ele>1018.71</ele>
        <time>2018-08-26T12:21:27Z</time>
      </trkpt>
      <trkpt lat="44.67857" lon="6.0632">
        <ele>1023.43</ele>
        <time>2018-08-26T12:21:29Z</time>
      </trkpt>
      <trkpt lat="44.67879" lon="6.06286">
        <ele>1028.41</ele>
        <time>2018-08-26T12:21:31Z</time>
      </trkpt>
      <trkpt lat="44.67892" lon="6.0625">
        <ele>1031.79</ele>
        <time>2018-08-26T12:21:33Z</time>
      </trkpt>
      <trkpt lat="44.67903" lon="6.06229">
        <ele>1033.92</ele>
        <time>2018-08-26T12:21:35Z</time>
      </trkpt>
      <trkpt lat="44.67921" lon="6.0622">
        <ele>1034.32</ele>
        <time>2018-08-26T12:21:37Z</time>
      </trkpt>
      <trkpt lat="44.67948" lon="6.06217">
        <ele>1033.66</ele>
        <time>2018-08-26T12:21:39Z</time>
      </trkpt>
      <trkpt lat="44.67984" lon="6.06209">
        <ele>1033.39</ele>
        <time>2018-08-26T12:21:41Z</time>
      </trkpt>
      <trkpt lat="44.68003" lon="6.06205">
        <ele>1032.67</ele>
        <time>2018-08-26T12:21:42Z</time>
      </trkpt>
      <trkpt lat="44.68024" lon="6.06201">
        <ele>1031.75</ele>
        <time>2018-08-26T12:21:43Z</time>
      </trkpt>
      <trkpt lat="44.68045" lon="6.06198">
        <ele>1031.48</ele>
        <time>2018-08-26T12:21:44Z</time>
      </trkpt>
      <trkpt lat="44.68065" lon="6.06195">
        <ele>1030.7</ele>
        <time>2018-08-26T12:21:45Z</time>
      </trkpt>
      <trkpt lat="44.68086" lon="6.06193">
        <ele>1030.46</ele>
        <time>2018-08-26T12:21:46Z</time>
      </trkpt>
      <trkpt lat="44.68109" lon="6.06197">
        <ele>1028.99</ele>
        <time>2018-08-26T12:21:47Z</time>
      </trkpt>
      <trkpt lat="44.68132" lon="6.06201">
        <ele>1028.55</ele>
        <time>2018-08-26T12:21:48Z</time>
      </trkpt>
      <trkpt lat="44.68154" lon="6.06207">
        <ele>1028.42</ele>
        <time>2018-08-26T12:21:49Z</time>
      </trkpt>
      <trkpt lat="44.68176" lon="6.06213">
        <ele>1029.08</ele>
        <time>2018-08-26T12:21:50Z</time>
      </trkpt>
      <trkpt lat="44.68197" lon="6.06218">
        <ele>1029.98</ele>
        <time>2018-08-26T12:21:51Z</time>
      </trkpt>
      <trkpt lat="44.68217" lon="6.0622">
        <ele>1030.24</ele>
        <time>2018-08-26T12:21:52Z</time>
      </trkpt>
      <trkpt lat="44.68235" lon="6.06221">
        <ele>1030.33</ele>
        <time>2018-08-26T12:21:53Z</time>
      </trkpt>
      <trkpt lat="44.68267" lon="6.06208">
        <ele>1030.36</ele>
        <time>2018-08-26T12:21:55Z</time>
      </trkpt>
      <trkpt lat="44.68296" lon="6.06175">
        <ele>1031.06</ele>
        <time>2018-08-26T12:21:57Z</time>
      </trkpt>
      <trkpt lat="44.68308" lon="6.06152">
        <ele>1031.27</ele>
        <time>2018-08-26T12:21:58Z</time>
      </trkpt>
      <trkpt lat="44.68322" lon="6.06129">
        <ele>1031.33</ele>
        <time>2018-08-26T12:21:59Z</time>
      </trkpt>
      <trkpt lat="44.68337" lon="6.06104">
        <ele>1031.35</ele>
        <time>2018-08-26T12:22:00Z</time>
      </trkpt>
      <trkpt lat="44.68353" lon="6.06078">
        <ele>1032.06</ele>
        <time>2018-08-26T12:22:01Z</time>
      </trkpt>
      <trkpt lat="44.68369" lon="6.0605">
        <ele>1032.27</ele>
        <time>2018-08-26T12:22:02Z</time>
      </trkpt>
      <trkpt lat="44.68386" lon="6.06022">
        <ele>1032.33</ele>
        <time>2018-08-26T12:22:03Z</time>
      </trkpt>
      <trkpt lat="44.68402" lon="6.05995">
        <ele>1032.35</ele>
        <time>2018-08-26T12:22:04Z</time>
      </trkpt>
      <trkpt lat="44.68417" lon="6.05968">
        <ele>1033.06</ele>
        <time>2018-08-26T12:22:05Z</time>
      </trkpt>
      <trkpt lat="44.68432" lon="6.05943">
        <ele>1032.57</ele>
        <time>2018-08-26T12:22:06Z</time>
      </trkpt>
      <trkpt lat="44.68449" lon="6.0592">
        <ele>1032.42</ele>
        <time>2018-08-26T12:22:07Z</time>
      </trkpt>
      <trkpt lat="44.68467" lon="6.05897">
        <ele>1032.38</ele>
        <time>2018-08-26T12:22:08Z</time>
      </trkpt>
      <trkpt lat="44.68488" lon="6.05877">
        <ele>1033.07</ele>
        <time>2018-08-26T12:22:09Z</time>
      </trkpt>
      <trkpt lat="44.68508" lon="6.05856">
        <ele>1033.27</ele>
        <time>2018-08-26T12:22:10Z</time>
      </trkpt>
      <trkpt lat="44.6853" lon="6.05834">
        <ele>1033.33</ele>
        <time>2018-08-26T12:22:11Z</time>
      </trkpt>
      <trkpt lat="44.68551" lon="6.05812">
        <ele>1034.05</ele>
        <time>2018-08-26T12:22:12Z</time>
      </trkpt>
      <trkpt lat="44.68573" lon="6.0579">
        <ele>1034.97</ele>
        <time>2018-08-26T12:22:13Z</time>
      </trkpt>
      <trkpt lat="44.68594" lon="6.05768">
        <ele>1035.94</ele>
        <time>2018-08-26T12:22:14Z</time>
      </trkpt>
      <trkpt lat="44.68615" lon="6.05747">
        <ele>1036.23</ele>
        <time>2018-08-26T12:22:15Z</time>
      </trkpt>
      <trkpt lat="44.68636" lon="6.05726">
        <ele>1037.02</ele>
        <time>2018-08-26T12:22:16Z</time>
      </trkpt>
      <trkpt lat="44.68657" lon="6.05706">
        <ele>1037.96</ele>
        <time>2018-08-26T12:22:17Z</time>
      </trkpt>
      <trkpt lat="44.68676" lon="6.05687">
        <ele>1038.24</ele>
        <time>2018-08-26T12:22:18Z</time>
      </trkpt>
      <trkpt lat="44.68695" lon="6.0567">
        <ele>1038.32</ele>
        <time>2018-08-26T12:22:19Z</time>
      </trkpt>
      <trkpt lat="44.68715" lon="6.05655">
        <ele>1038.35</ele>
        <time>2018-08-26T12:22:20Z</time>
      </trkpt>
      <trkpt lat="44.68737" lon="6.05641">
        <ele>1038.36</ele>
        <time>2018-08-26T12:22:21Z</time>
      </trkpt>
      <trkpt lat="44.6876" lon="6.05629">
        <ele>1038.36</ele>
        <time>2018-08-26T12:22:22Z</time>
      </trkpt>
      <trkpt lat="44.68782" lon="6.05618">
        <ele>1039.06</ele>
        <time>2018-08-26T12:22:23Z</time>
      </trkpt>
      <trkpt lat="44.68803" lon="6.05604">
        <ele>1040.67</ele>
        <time>2018-08-26T12:22:24Z</time>
      </trkpt>
      <trkpt lat="44.68824" lon="6.05588">
        <ele>1041.85</ele>
        <time>2018-08-26T12:22:25Z</time>
      </trkpt>
      <trkpt lat="44.68845" lon="6.05567">
        <ele>1042.91</ele>
        <time>2018-08-26T12:22:26Z</time>
      </trkpt>
      <trkpt lat="44.68865" lon="6.05546">
        <ele>1043.92</ele>
        <time>2018-08-26T12:22:27Z</time>
      </trkpt>
      <trkpt lat="44.68886" lon="6.05525">
        <ele>1044.93</ele>
        <time>2018-08-26T12:22:28Z</time>
      </trkpt>
      <trkpt lat="44.68908" lon="6.05506">
        <ele>1045.93</ele>
        <time>2018-08-26T12:22:29Z</time>
      </trkpt>
      <trkpt lat="44.6893" lon="6.05487">
        <ele>1046.93</ele>
        <time>2018-08-26T12:22:30Z</time>
      </trkpt>
      <trkpt lat="44.68951" lon="6.05471">
        <ele>1047.93</ele>
        <time>2018-08-26T12:22:31Z</time>
      </trkpt>
      <trkpt lat="44.68971" lon="6.05454">
        <ele>1048.23</ele>
        <time>2018-08-26T12:22:32Z</time>
      </trkpt>
      <trkpt lat="44.6899" lon="6.05439">
        <ele>1049.02</ele>
        <time>2018-08-26T12:22:33Z</time>
      </trkpt>
      <trkpt lat="44.69006" lon="6.05425">
        <ele>1049.96</ele>
        <time>2018-08-26T12:22:34Z</time>
      </trkpt>
      <trkpt lat="44.69023" lon="6.05411">
        <ele>1050.24</ele>
        <time>2018-08-26T12:22:35Z</time>
      </trkpt>
      <trkpt lat="44.69039" lon="6.05396">
        <ele>1051.02</ele>
        <time>2018-08-26T12:22:36Z</time>
      </trkpt>
      <trkpt lat="44.69056" lon="6.05383">
        <ele>1051.26</ele>
        <time>2018-08-26T12:22:37Z</time>
      </trkpt>
      <trkpt lat="44.69071" lon="6.05368">
        <ele>1051.33</ele>
        <time>2018-08-26T12:22:38Z</time>
      </trkpt>
      <trkpt lat="44.69099" lon="6.05342">
        <ele>1051.36</ele>
        <time>2018-08-26T12:22:40Z</time>
      </trkpt>
      <trkpt lat="44.69122" lon="6.05311">
        <ele>1052.97</ele>
        <time>2018-08-26T12:22:42Z</time>
      </trkpt>
      <trkpt lat="44.69141" lon="6.05273">
        <ele>1055.84</ele>
        <time>2018-08-26T12:22:44Z</time>
      </trkpt>
      <trkpt lat="44.69153" lon="6.05235">
        <ele>1058.62</ele>
        <time>2018-08-26T12:22:46Z</time>
      </trkpt>
      <trkpt lat="44.69158" lon="6.052">
        <ele>1060.9</ele>
        <time>2018-08-26T12:22:48Z</time>
      </trkpt>
      <trkpt lat="44.69155" lon="6.05162">
        <ele>1060.62</ele>
        <time>2018-08-26T12:22:50Z</time>
      </trkpt>
      <trkpt lat="44.69152" lon="6.05121">
        <ele>1058.77</ele>
        <time>2018-08-26T12:22:52Z</time>
      </trkpt>
      <trkpt lat="44.69153" lon="6.05081">
        <ele>1057.49</ele>
        <time>2018-08-26T12:22:54Z</time>
      </trkpt>
      <trkpt lat="44.69155" lon="6.05041">
        <ele>1057.37</ele>
        <time>2018-08-26T12:22:56Z</time>
      </trkpt>
      <trkpt lat="44.69158" lon="6.05">
        <ele>1056.45</ele>
        <time>2018-08-26T12:22:58Z</time>
      </trkpt>
      <trkpt lat="44.69161" lon="6.04961">
        <ele>1056.37</ele>
        <time>2018-08-26T12:23:00Z</time>
      </trkpt>
      <trkpt lat="44.69163" lon="6.04926">
        <ele>1055.66</ele>
        <time>2018-08-26T12:23:02Z</time>
      </trkpt>
      <trkpt lat="44.69165" lon="6.04896">
        <ele>1056.09</ele>
        <time>2018-08-26T12:23:04Z</time>
      </trkpt>
      <trkpt lat="44.69167" lon="6.04871">
        <ele>1056.34</ele>
        <time>2018-08-26T12:23:06Z</time>
      </trkpt>
      <trkpt lat="44.6917" lon="6.04844">
        <ele>1057.06</ele>
        <time>2018-08-26T12:23:08Z</time>
      </trkpt>
      <trkpt lat="44.69174" lon="6.04818">
        <ele>1057.33</ele>
        <time>2018-08-26T12:23:10Z</time>
      </trkpt>
      <trkpt lat="44.69177" lon="6.04792">
        <ele>1056.66</ele>
        <time>2018-08-26T12:23:12Z</time>
      </trkpt>
      <trkpt lat="44.6918" lon="6.04764">
        <ele>1056.39</ele>
        <time>2018-08-26T12:23:14Z</time>
      </trkpt>
      <trkpt lat="44.69181" lon="6.04737">
        <ele>1056.36</ele>
        <time>2018-08-26T12:23:16Z</time>
      </trkpt>
      <trkpt lat="44.69183" lon="6.04699">
        <ele>1055.45</ele>
        <time>2018-08-26T12:23:18Z</time>
      </trkpt>
      <trkpt lat="44.69186" lon="6.04666">
        <ele>1055.37</ele>
        <time>2018-08-26T12:23:20Z</time>
      </trkpt>
      <trkpt lat="44.69188" lon="6.04636">
        <ele>1055.36</ele>
        <time>2018-08-26T12:23:22Z</time>
      </trkpt>
      <trkpt lat="44.69188" lon="6.04605">
        <ele>1055.36</ele>
        <time>2018-08-26T12:23:24Z</time>
      </trkpt>
      <trkpt lat="44.69186" lon="6.04578">
        <ele>1055.36</ele>
        <time>2018-08-26T12:23:26Z</time>
      </trkpt>
      <trkpt lat="44.69181" lon="6.0454">
        <ele>1054.45</ele>
        <time>2018-08-26T12:23:29Z</time>
      </trkpt>
      <trkpt lat="44.69179" lon="6.04515">
        <ele>1054.37</ele>
        <time>2018-08-26T12:23:31Z</time>
      </trkpt>
      <trkpt lat="44.6918" lon="6.04486">
        <ele>1054.36</ele>
        <time>2018-08-26T12:23:33Z</time>
      </trkpt>
      <trkpt lat="44.6919" lon="6.04449">
        <ele>1053.45</ele>
        <time>2018-08-26T12:23:35Z</time>
      </trkpt>
      <trkpt lat="44.69204" lon="6.04409">
        <ele>1052.46</ele>
        <time>2018-08-26T12:23:37Z</time>
      </trkpt>
      <trkpt lat="44.69213" lon="6.0438">
        <ele>1052.16</ele>
        <time>2018-08-26T12:23:39Z</time>
      </trkpt>
      <trkpt lat="44.69217" lon="6.04347">
        <ele>1053.96</ele>
        <time>2018-08-26T12:23:42Z</time>
      </trkpt>
      <trkpt lat="44.69214" lon="6.04322">
        <ele>1055.23</ele>
        <time>2018-08-26T12:23:44Z</time>
      </trkpt>
      <trkpt lat="44.69208" lon="6.0429">
        <ele>1056.96</ele>
        <time>2018-08-26T12:23:46Z</time>
      </trkpt>
      <trkpt lat="44.69197" lon="6.04253">
        <ele>1058.23</ele>
        <time>2018-08-26T12:23:48Z</time>
      </trkpt>
      <trkpt lat="44.69183" lon="6.04215">
        <ele>1059.26</ele>
        <time>2018-08-26T12:23:50Z</time>
      </trkpt>
      <trkpt lat="44.69165" lon="6.04173">
        <ele>1061.66</ele>
        <time>2018-08-26T12:23:52Z</time>
      </trkpt>
      <trkpt lat="44.69155" lon="6.04151">
        <ele>1062.15</ele>
        <time>2018-08-26T12:23:53Z</time>
      </trkpt>
      <trkpt lat="44.69144" lon="6.04127">
        <ele>1063</ele>
        <time>2018-08-26T12:23:54Z</time>
      </trkpt>
      <trkpt lat="44.69134" lon="6.04101">
        <ele>1063.95</ele>
        <time>2018-08-26T12:23:55Z</time>
      </trkpt>
      <trkpt lat="44.69124" lon="6.04077">
        <ele>1064.94</ele>
        <time>2018-08-26T12:23:56Z</time>
      </trkpt>
      <trkpt lat="44.69113" lon="6.04053">
        <ele>1066.63</ele>
        <time>2018-08-26T12:23:57Z</time>
      </trkpt>
      <trkpt lat="44.69103" lon="6.04029">
        <ele>1067.84</ele>
        <time>2018-08-26T12:23:58Z</time>
      </trkpt>
      <trkpt lat="44.69091" lon="6.04007">
        <ele>1069.6</ele>
        <time>2018-08-26T12:23:59Z</time>
      </trkpt>
      <trkpt lat="44.69079" lon="6.03987">
        <ele>1071.53</ele>
        <time>2018-08-26T12:24:00Z</time>
      </trkpt>
      <trkpt lat="44.69059" lon="6.03951">
        <ele>1073.9</ele>
        <time>2018-08-26T12:24:02Z</time>
      </trkpt>
      <trkpt lat="44.69034" lon="6.03925">
        <ele>1075.72</ele>
        <time>2018-08-26T12:24:04Z</time>
      </trkpt>
      <trkpt lat="44.69007" lon="6.03905">
        <ele>1078.12</ele>
        <time>2018-08-26T12:24:06Z</time>
      </trkpt>
      <trkpt lat="44.68987" lon="6.03872">
        <ele>1079.25</ele>
        <time>2018-08-26T12:24:08Z</time>
      </trkpt>
      <trkpt lat="44.68974" lon="6.03828">
        <ele>1080.26</ele>
        <time>2018-08-26T12:24:10Z</time>
      </trkpt>
      <trkpt lat="44.68962" lon="6.0378">
        <ele>1081.96</ele>
        <time>2018-08-26T12:24:12Z</time>
      </trkpt>
      <trkpt lat="44.68953" lon="6.03732">
        <ele>1085.54</ele>
        <time>2018-08-26T12:24:14Z</time>
      </trkpt>
      <trkpt lat="44.6895" lon="6.03687">
        <ele>1087.69</ele>
        <time>2018-08-26T12:24:16Z</time>
      </trkpt>
      <trkpt lat="44.68939" lon="6.03656">
        <ele>1090.12</ele>
        <time>2018-08-26T12:24:18Z</time>
      </trkpt>
      <trkpt lat="44.68914" lon="6.03639">
        <ele>1093.56</ele>
        <time>2018-08-26T12:24:20Z</time>
      </trkpt>
      <trkpt lat="44.68884" lon="6.03628">
        <ele>1095.9</ele>
        <time>2018-08-26T12:24:22Z</time>
      </trkpt>
      <trkpt lat="44.68853" lon="6.03606">
        <ele>1098.84</ele>
        <time>2018-08-26T12:24:24Z</time>
      </trkpt>
      <trkpt lat="44.68828" lon="6.03576">
        <ele>1101.13</ele>
        <time>2018-08-26T12:24:26Z</time>
      </trkpt>
      <trkpt lat="44.68805" lon="6.03546">
        <ele>1101.34</ele>
        <time>2018-08-26T12:24:28Z</time>
      </trkpt>
      <trkpt lat="44.68792" lon="6.03518">
        <ele>1101.36</ele>
        <time>2018-08-26T12:24:30Z</time>
      </trkpt>
      <trkpt lat="44.68796" lon="6.03492">
        <ele>1101.36</ele>
        <time>2018-08-26T12:24:31Z</time>
      </trkpt>
      <trkpt lat="44.68808" lon="6.03464">
        <ele>1102.06</ele>
        <time>2018-08-26T12:24:32Z</time>
      </trkpt>
      <trkpt lat="44.68823" lon="6.03441">
        <ele>1100.17</ele>
        <time>2018-08-26T12:24:33Z</time>
      </trkpt>
      <trkpt lat="44.68831" lon="6.03418">
        <ele>1099.6</ele>
        <time>2018-08-26T12:24:34Z</time>
      </trkpt>
      <trkpt lat="44.68853" lon="6.0338">
        <ele>1100.78</ele>
        <time>2018-08-26T12:24:36Z</time>
      </trkpt>
      <trkpt lat="44.68872" lon="6.03347">
        <ele>1103.62</ele>
        <time>2018-08-26T12:24:38Z</time>
      </trkpt>
      <trkpt lat="44.68883" lon="6.03317">
        <ele>1106.81</ele>
        <time>2018-08-26T12:24:40Z</time>
      </trkpt>
      <trkpt lat="44.6889" lon="6.03289">
        <ele>1107.31</ele>
        <time>2018-08-26T12:24:42Z</time>
      </trkpt>
      <trkpt lat="44.68898" lon="6.03261">
        <ele>1106.45</ele>
        <time>2018-08-26T12:24:44Z</time>
      </trkpt>
      <trkpt lat="44.68906" lon="6.03237">
        <ele>1105.46</ele>
        <time>2018-08-26T12:24:46Z</time>
      </trkpt>
      <trkpt lat="44.68916" lon="6.03215">
        <ele>1106.28</ele>
        <time>2018-08-26T12:24:48Z</time>
      </trkpt>
      <trkpt lat="44.68926" lon="6.03191">
        <ele>1105.65</ele>
        <time>2018-08-26T12:24:50Z</time>
      </trkpt>
      <trkpt lat="44.68934" lon="6.03163">
        <ele>1103.78</ele>
        <time>2018-08-26T12:24:52Z</time>
      </trkpt>
      <trkpt lat="44.68942" lon="6.03134">
        <ele>1102.49</ele>
        <time>2018-08-26T12:24:54Z</time>
      </trkpt>
      <trkpt lat="44.68948" lon="6.031">
        <ele>1102.37</ele>
        <time>2018-08-26T12:24:56Z</time>
      </trkpt>
      <trkpt lat="44.68952" lon="6.03063">
        <ele>1102.15</ele>
        <time>2018-08-26T12:24:58Z</time>
      </trkpt>
      <trkpt lat="44.68959" lon="6.03027">
        <ele>1102.34</ele>
        <time>2018-08-26T12:25:00Z</time>
      </trkpt>
      <trkpt lat="44.68963" lon="6.02996">
        <ele>1103.06</ele>
        <time>2018-08-26T12:25:02Z</time>
      </trkpt>
      <trkpt lat="44.68965" lon="6.02966">
        <ele>1104.24</ele>
        <time>2018-08-26T12:25:04Z</time>
      </trkpt>
      <trkpt lat="44.68963" lon="6.02937">
        <ele>1105.26</ele>
        <time>2018-08-26T12:25:06Z</time>
      </trkpt>
      <trkpt lat="44.68962" lon="6.02908">
        <ele>1106.05</ele>
        <time>2018-08-26T12:25:08Z</time>
      </trkpt>
      <trkpt lat="44.68968" lon="6.02872">
        <ele>1106.12</ele>
        <time>2018-08-26T12:25:10Z</time>
      </trkpt>
      <trkpt lat="44.68976" lon="6.0283">
        <ele>1106.34</ele>
        <time>2018-08-26T12:25:12Z</time>
      </trkpt>
      <trkpt lat="44.6898" lon="6.02784">
        <ele>1106.36</ele>
        <time>2018-08-26T12:25:14Z</time>
      </trkpt>
      <trkpt lat="44.68987" lon="6.02736">
        <ele>1106.36</ele>
        <time>2018-08-26T12:25:16Z</time>
      </trkpt>
      <trkpt lat="44.68996" lon="6.02688">
        <ele>1107.27</ele>
        <time>2018-08-26T12:25:18Z</time>
      </trkpt>
      <trkpt lat="44.69001" lon="6.02664">
        <ele>1106.63</ele>
        <time>2018-08-26T12:25:19Z</time>
      </trkpt>
      <trkpt lat="44.69005" lon="6.02637">
        <ele>1106.44</ele>
        <time>2018-08-26T12:25:20Z</time>
      </trkpt>
      <trkpt lat="44.69007" lon="6.02611">
        <ele>1106.38</ele>
        <time>2018-08-26T12:25:21Z</time>
      </trkpt>
      <trkpt lat="44.69008" lon="6.02583">
        <ele>1107.07</ele>
        <time>2018-08-26T12:25:22Z</time>
      </trkpt>
      <trkpt lat="44.69008" lon="6.02555">
        <ele>1107.27</ele>
        <time>2018-08-26T12:25:23Z</time>
      </trkpt>
      <trkpt lat="44.69006" lon="6.02527">
        <ele>1108.73</ele>
        <time>2018-08-26T12:25:24Z</time>
      </trkpt>
      <trkpt lat="44.69003" lon="6.02499">
        <ele>1109.87</ele>
        <time>2018-08-26T12:25:25Z</time>
      </trkpt>
      <trkpt lat="44.69" lon="6.02471">
        <ele>1110.21</ele>
        <time>2018-08-26T12:25:26Z</time>
      </trkpt>
      <trkpt lat="44.68997" lon="6.02444">
        <ele>1111.02</ele>
        <time>2018-08-26T12:25:27Z</time>
      </trkpt>
      <trkpt lat="44.68994" lon="6.02419">
        <ele>1111.26</ele>
        <time>2018-08-26T12:25:28Z</time>
      </trkpt>
      <trkpt lat="44.6899" lon="6.02372">
        <ele>1112.05</ele>
        <time>2018-08-26T12:25:30Z</time>
      </trkpt>
      <trkpt lat="44.68977" lon="6.02334">
        <ele>1112.33</ele>
        <time>2018-08-26T12:25:32Z</time>
      </trkpt>
      <trkpt lat="44.68951" lon="6.02296">
        <ele>1113.27</ele>
        <time>2018-08-26T12:25:34Z</time>
      </trkpt>
      <trkpt lat="44.68938" lon="6.02276">
        <ele>1114.03</ele>
        <time>2018-08-26T12:25:35Z</time>
      </trkpt>
      <trkpt lat="44.68926" lon="6.02254">
        <ele>1114.96</ele>
        <time>2018-08-26T12:25:36Z</time>
      </trkpt>
      <trkpt lat="44.68915" lon="6.02232">
        <ele>1114.54</ele>
        <time>2018-08-26T12:25:37Z</time>
      </trkpt>
      <trkpt lat="44.68898" lon="6.02189">
        <ele>1116.69</ele>
        <time>2018-08-26T12:25:39Z</time>
      </trkpt>
      <trkpt lat="44.68879" lon="6.02154">
        <ele>1118.91</ele>
        <time>2018-08-26T12:25:41Z</time>
      </trkpt>
      <trkpt lat="44.68855" lon="6.02137">
        <ele>1120.23</ele>
        <time>2018-08-26T12:25:43Z</time>
      </trkpt>
      <trkpt lat="44.68824" lon="6.02134">
        <ele>1121.05</ele>
        <time>2018-08-26T12:25:45Z</time>
      </trkpt>
      <trkpt lat="44.68789" lon="6.02137">
        <ele>1122.24</ele>
        <time>2018-08-26T12:25:47Z</time>
      </trkpt>
      <trkpt lat="44.6877" lon="6.02137">
        <ele>1122.32</ele>
        <time>2018-08-26T12:25:48Z</time>
      </trkpt>
      <trkpt lat="44.6875" lon="6.02136">
        <ele>1123.05</ele>
        <time>2018-08-26T12:25:49Z</time>
      </trkpt>
      <trkpt lat="44.6873" lon="6.02134">
        <ele>1123.97</ele>
        <time>2018-08-26T12:25:50Z</time>
      </trkpt>
      <trkpt lat="44.6871" lon="6.02133">
        <ele>1124.24</ele>
        <time>2018-08-26T12:25:51Z</time>
      </trkpt>
      <trkpt lat="44.6869" lon="6.02131">
        <ele>1125.02</ele>
        <time>2018-08-26T12:25:52Z</time>
      </trkpt>
      <trkpt lat="44.6867" lon="6.02128">
        <ele>1125.26</ele>
        <time>2018-08-26T12:25:53Z</time>
      </trkpt>
      <trkpt lat="44.6865" lon="6.02125">
        <ele>1126.03</ele>
        <time>2018-08-26T12:25:54Z</time>
      </trkpt>
      <trkpt lat="44.68629" lon="6.0212">
        <ele>1126.26</ele>
        <time>2018-08-26T12:25:55Z</time>
      </trkpt>
      <trkpt lat="44.68609" lon="6.02114">
        <ele>1126.33</ele>
        <time>2018-08-26T12:25:56Z</time>
      </trkpt>
      <trkpt lat="44.68587" lon="6.0211">
        <ele>1126.35</ele>
        <time>2018-08-26T12:25:57Z</time>
      </trkpt>
      <trkpt lat="44.68566" lon="6.02107">
        <ele>1127.06</ele>
        <time>2018-08-26T12:25:58Z</time>
      </trkpt>
      <trkpt lat="44.68544" lon="6.02107">
        <ele>1126.57</ele>
        <time>2018-08-26T12:25:59Z</time>
      </trkpt>
      <trkpt lat="44.68523" lon="6.02108">
        <ele>1126.42</ele>
        <time>2018-08-26T12:26:00Z</time>
      </trkpt>
      <trkpt lat="44.68502" lon="6.02113">
        <ele>1127.08</ele>
        <time>2018-08-26T12:26:01Z</time>
      </trkpt>
      <trkpt lat="44.68482" lon="6.02121">
        <ele>1127.98</ele>
        <time>2018-08-26T12:26:02Z</time>
      </trkpt>
      <trkpt lat="44.68463" lon="6.02129">
        <ele>1128.24</ele>
        <time>2018-08-26T12:26:03Z</time>
      </trkpt>
      <trkpt lat="44.68429" lon="6.02132">
        <ele>1129.26</ele>
        <time>2018-08-26T12:26:05Z</time>
      </trkpt>
      <trkpt lat="44.68405" lon="6.02118">
        <ele>1130.26</ele>
        <time>2018-08-26T12:26:07Z</time>
      </trkpt>
      <trkpt lat="44.68393" lon="6.02087">
        <ele>1131.96</ele>
        <time>2018-08-26T12:26:09Z</time>
      </trkpt>
      <trkpt lat="44.68387" lon="6.02048">
        <ele>1132.32</ele>
        <time>2018-08-26T12:26:11Z</time>
      </trkpt>
      <trkpt lat="44.68377" lon="6.02008">
        <ele>1132.36</ele>
        <time>2018-08-26T12:26:13Z</time>
      </trkpt>
      <trkpt lat="44.68365" lon="6.01966">
        <ele>1131.66</ele>
        <time>2018-08-26T12:26:15Z</time>
      </trkpt>
      <trkpt lat="44.6836" lon="6.01919">
        <ele>1130.69</ele>
        <time>2018-08-26T12:26:17Z</time>
      </trkpt>
      <trkpt lat="44.68363" lon="6.01872">
        <ele>1130.39</ele>
        <time>2018-08-26T12:26:19Z</time>
      </trkpt>
      <trkpt lat="44.68372" lon="6.01822">
        <ele>1131.27</ele>
        <time>2018-08-26T12:26:21Z</time>
      </trkpt>
      <trkpt lat="44.68377" lon="6.01797">
        <ele>1131.33</ele>
        <time>2018-08-26T12:26:22Z</time>
      </trkpt>
      <trkpt lat="44.68383" lon="6.01773">
        <ele>1132.05</ele>
        <time>2018-08-26T12:26:23Z</time>
      </trkpt>
      <trkpt lat="44.68389" lon="6.01747">
        <ele>1132.27</ele>
        <time>2018-08-26T12:26:24Z</time>
      </trkpt>
      <trkpt lat="44.68395" lon="6.01719">
        <ele>1133.03</ele>
        <time>2018-08-26T12:26:25Z</time>
      </trkpt>
      <trkpt lat="44.68401" lon="6.01691">
        <ele>1133.26</ele>
        <time>2018-08-26T12:26:26Z</time>
      </trkpt>
      <trkpt lat="44.68406" lon="6.01663">
        <ele>1133.33</ele>
        <time>2018-08-26T12:26:27Z</time>
      </trkpt>
      <trkpt lat="44.68412" lon="6.01634">
        <ele>1134.05</ele>
        <time>2018-08-26T12:26:28Z</time>
      </trkpt>
      <trkpt lat="44.68418" lon="6.01606">
        <ele>1134.27</ele>
        <time>2018-08-26T12:26:29Z</time>
      </trkpt>
      <trkpt lat="44.68422" lon="6.01577">
        <ele>1134.33</ele>
        <time>2018-08-26T12:26:30Z</time>
      </trkpt>
      <trkpt lat="44.68424" lon="6.01547">
        <ele>1133.65</ele>
        <time>2018-08-26T12:26:31Z</time>
      </trkpt>
      <trkpt lat="44.68425" lon="6.01518">
        <ele>1133.45</ele>
        <time>2018-08-26T12:26:32Z</time>
      </trkpt>
      <trkpt lat="44.68424" lon="6.01489">
        <ele>1132.69</ele>
        <time>2018-08-26T12:26:33Z</time>
      </trkpt>
      <trkpt lat="44.68421" lon="6.01459">
        <ele>1132.46</ele>
        <time>2018-08-26T12:26:34Z</time>
      </trkpt>
      <trkpt lat="44.68415" lon="6.0143">
        <ele>1131.69</ele>
        <time>2018-08-26T12:26:35Z</time>
      </trkpt>
      <trkpt lat="44.68406" lon="6.01401">
        <ele>1131.46</ele>
        <time>2018-08-26T12:26:36Z</time>
      </trkpt>
      <trkpt lat="44.68397" lon="6.01375">
        <ele>1131.39</ele>
        <time>2018-08-26T12:26:37Z</time>
      </trkpt>
      <trkpt lat="44.68389" lon="6.0135">
        <ele>1130.67</ele>
        <time>2018-08-26T12:26:38Z</time>
      </trkpt>
      <trkpt lat="44.68377" lon="6.01305">
        <ele>1129.69</ele>
        <time>2018-08-26T12:26:40Z</time>
      </trkpt>
      <trkpt lat="44.68393" lon="6.01267">
        <ele>1129.18</ele>
        <time>2018-08-26T12:26:42Z</time>
      </trkpt>
      <trkpt lat="44.68418" lon="6.01238">
        <ele>1130.04</ele>
        <time>2018-08-26T12:26:44Z</time>
      </trkpt>
      <trkpt lat="44.68452" lon="6.01226">
        <ele>1132.15</ele>
        <time>2018-08-26T12:26:46Z</time>
      </trkpt>
      <trkpt lat="44.6847" lon="6.01226">
        <ele>1133</ele>
        <time>2018-08-26T12:26:47Z</time>
      </trkpt>
      <trkpt lat="44.68489" lon="6.01227">
        <ele>1133.95</ele>
        <time>2018-08-26T12:26:48Z</time>
      </trkpt>
      <trkpt lat="44.68509" lon="6.01237">
        <ele>1134.24</ele>
        <time>2018-08-26T12:26:49Z</time>
      </trkpt>
      <trkpt lat="44.68529" lon="6.01245">
        <ele>1134.32</ele>
        <time>2018-08-26T12:26:50Z</time>
      </trkpt>
      <trkpt lat="44.68547" lon="6.01254">
        <ele>1133.65</ele>
        <time>2018-08-26T12:26:51Z</time>
      </trkpt>
      <trkpt lat="44.68565" lon="6.01261">
        <ele>1132.75</ele>
        <time>2018-08-26T12:26:52Z</time>
      </trkpt>
      <trkpt lat="44.68599" lon="6.01271">
        <ele>1131.48</ele>
        <time>2018-08-26T12:26:54Z</time>
      </trkpt>
      <trkpt lat="44.68634" lon="6.01276">
        <ele>1129.76</ele>
        <time>2018-08-26T12:26:56Z</time>
      </trkpt>
      <trkpt lat="44.68667" lon="6.01267">
        <ele>1127.79</ele>
        <time>2018-08-26T12:26:58Z</time>
      </trkpt>
      <trkpt lat="44.68685" lon="6.01257">
        <ele>1127.49</ele>
        <time>2018-08-26T12:26:59Z</time>
      </trkpt>
      <trkpt lat="44.68703" lon="6.01245">
        <ele>1127.4</ele>
        <time>2018-08-26T12:27:00Z</time>
      </trkpt>
      <trkpt lat="44.6872" lon="6.01232">
        <ele>1127.37</ele>
        <time>2018-08-26T12:27:01Z</time>
      </trkpt>
      <trkpt lat="44.68737" lon="6.01217">
        <ele>1128.06</ele>
        <time>2018-08-26T12:27:02Z</time>
      </trkpt>
      <trkpt lat="44.68751" lon="6.01199">
        <ele>1128.97</ele>
        <time>2018-08-26T12:27:03Z</time>
      </trkpt>
      <trkpt lat="44.68764" lon="6.01176">
        <ele>1130.64</ele>
        <time>2018-08-26T12:27:04Z</time>
      </trkpt>
      <trkpt lat="44.68774" lon="6.01152">
        <ele>1132.55</ele>
        <time>2018-08-26T12:27:05Z</time>
      </trkpt>
      <trkpt lat="44.68783" lon="6.01124">
        <ele>1135.22</ele>
        <time>2018-08-26T12:27:06Z</time>
      </trkpt>
      <trkpt lat="44.68789" lon="6.01095">
        <ele>1137.42</ele>
        <time>2018-08-26T12:27:07Z</time>
      </trkpt>
      <trkpt lat="44.68793" lon="6.01065">
        <ele>1139.48</ele>
        <time>2018-08-26T12:27:08Z</time>
      </trkpt>
      <trkpt lat="44.68797" lon="6.01038">
        <ele>1141.5</ele>
        <time>2018-08-26T12:27:09Z</time>
      </trkpt>
      <trkpt lat="44.68808" lon="6.00996">
        <ele>1144.8</ele>
        <time>2018-08-26T12:27:11Z</time>
      </trkpt>
      <trkpt lat="44.68828" lon="6.00973">
        <ele>1146.01</ele>
        <time>2018-08-26T12:27:13Z</time>
      </trkpt>
      <trkpt lat="44.68855" lon="6.00964">
        <ele>1147.94</ele>
        <time>2018-08-26T12:27:15Z</time>
      </trkpt>
      <trkpt lat="44.68884" lon="6.00957">
        <ele>1149.02</ele>
        <time>2018-08-26T12:27:17Z</time>
      </trkpt>
      <trkpt lat="44.68912" lon="6.00955">
        <ele>1149.33</ele>
        <time>2018-08-26T12:27:19Z</time>
      </trkpt>
      <trkpt lat="44.68937" lon="6.00961">
        <ele>1149.36</ele>
        <time>2018-08-26T12:27:21Z</time>
      </trkpt>
      <trkpt lat="44.68964" lon="6.00978">
        <ele>1148.45</ele>
        <time>2018-08-26T12:27:23Z</time>
      </trkpt>
      <trkpt lat="44.68988" lon="6.00995">
        <ele>1146.06</ele>
        <time>2018-08-26T12:27:25Z</time>
      </trkpt>
      <trkpt lat="44.6901" lon="6.0101">
        <ele>1144.02</ele>
        <time>2018-08-26T12:27:27Z</time>
      </trkpt>
      <trkpt lat="44.69028" lon="6.01031">
        <ele>1141.81</ele>
        <time>2018-08-26T12:27:29Z</time>
      </trkpt>
      <trkpt lat="44.69041" lon="6.01062">
        <ele>1139.79</ele>
        <time>2018-08-26T12:27:31Z</time>
      </trkpt>
      <trkpt lat="44.69053" lon="6.01098">
        <ele>1139.4</ele>
        <time>2018-08-26T12:27:33Z</time>
      </trkpt>
      <trkpt lat="44.6907" lon="6.01131">
        <ele>1137.75</ele>
        <time>2018-08-26T12:27:35Z</time>
      </trkpt>
      <trkpt lat="44.69086" lon="6.01162">
        <ele>1135.79</ele>
        <time>2018-08-26T12:27:37Z</time>
      </trkpt>
      <trkpt lat="44.69095" lon="6.01195">
        <ele>1133.79</ele>
        <time>2018-08-26T12:27:39Z</time>
      </trkpt>
      <trkpt lat="44.69099" lon="6.01234">
        <ele>1132.49</ele>
        <time>2018-08-26T12:27:41Z</time>
      </trkpt>
      <trkpt lat="44.69104" lon="6.01278">
        <ele>1130.76</ele>
        <time>2018-08-26T12:27:43Z</time>
      </trkpt>
      <trkpt lat="44.6911" lon="6.01322">
        <ele>1129.49</ele>
        <time>2018-08-26T12:27:45Z</time>
      </trkpt>
      <trkpt lat="44.69119" lon="6.01366">
        <ele>1129.37</ele>
        <time>2018-08-26T12:27:47Z</time>
      </trkpt>
      <trkpt lat="44.69131" lon="6.01405">
        <ele>1128.45</ele>
        <time>2018-08-26T12:27:49Z</time>
      </trkpt>
      <trkpt lat="44.69146" lon="6.01441">
        <ele>1128.37</ele>
        <time>2018-08-26T12:27:51Z</time>
      </trkpt>
      <trkpt lat="44.69163" lon="6.01473">
        <ele>1127.45</ele>
        <time>2018-08-26T12:27:53Z</time>
      </trkpt>
      <trkpt lat="44.69186" lon="6.01501">
        <ele>1128.28</ele>
        <time>2018-08-26T12:27:55Z</time>
      </trkpt>
      <trkpt lat="44.69212" lon="6.01524">
        <ele>1128.35</ele>
        <time>2018-08-26T12:27:57Z</time>
      </trkpt>
      <trkpt lat="44.69238" lon="6.01537">
        <ele>1129.06</ele>
        <time>2018-08-26T12:27:59Z</time>
      </trkpt>
      <trkpt lat="44.69264" lon="6.01541">
        <ele>1129.54</ele>
        <time>2018-08-26T12:28:01Z</time>
      </trkpt>
      <trkpt lat="44.6929" lon="6.0154">
        <ele>1129.38</ele>
        <time>2018-08-26T12:28:03Z</time>
      </trkpt>
      <trkpt lat="44.69315" lon="6.01533">
        <ele>1128.66</ele>
        <time>2018-08-26T12:28:05Z</time>
      </trkpt>
      <trkpt lat="44.69337" lon="6.01525">
        <ele>1128.39</ele>
        <time>2018-08-26T12:28:07Z</time>
      </trkpt>
      <trkpt lat="44.69358" lon="6.01517">
        <ele>1127.66</ele>
        <time>2018-08-26T12:28:09Z</time>
      </trkpt>
      <trkpt lat="44.69376" lon="6.01506">
        <ele>1126.69</ele>
        <time>2018-08-26T12:28:11Z</time>
      </trkpt>
      <trkpt lat="44.69395" lon="6.01494">
        <ele>1126.6</ele>
        <time>2018-08-26T12:28:13Z</time>
      </trkpt>
      <trkpt lat="44.69414" lon="6.01481">
        <ele>1125.68</ele>
        <time>2018-08-26T12:28:15Z</time>
      </trkpt>
      <trkpt lat="44.69433" lon="6.01467">
        <ele>1125.18</ele>
        <time>2018-08-26T12:28:17Z</time>
      </trkpt>
      <trkpt lat="44.69448" lon="6.01453">
        <ele>1125.34</ele>
        <time>2018-08-26T12:28:19Z</time>
      </trkpt>
      <trkpt lat="44.69463" lon="6.01424">
        <ele>1125.3</ele>
        <time>2018-08-26T12:28:22Z</time>
      </trkpt>
      <trkpt lat="44.69466" lon="6.01393">
        <ele>1125.35</ele>
        <time>2018-08-26T12:28:24Z</time>
      </trkpt>
      <trkpt lat="44.6947" lon="6.0136">
        <ele>1125.36</ele>
        <time>2018-08-26T12:28:26Z</time>
      </trkpt>
      <trkpt lat="44.69482" lon="6.01331">
        <ele>1125.15</ele>
        <time>2018-08-26T12:28:28Z</time>
      </trkpt>
      <trkpt lat="44.69501" lon="6.01308">
        <ele>1126.25</ele>
        <time>2018-08-26T12:28:30Z</time>
      </trkpt>
      <trkpt lat="44.69524" lon="6.01283">
        <ele>1127.05</ele>
        <time>2018-08-26T12:28:32Z</time>
      </trkpt>
      <trkpt lat="44.69546" lon="6.01258">
        <ele>1128.03</ele>
        <time>2018-08-26T12:28:34Z</time>
      </trkpt>
      <trkpt lat="44.69565" lon="6.0124">
        <ele>1129.03</ele>
        <time>2018-08-26T12:28:36Z</time>
      </trkpt>
      <trkpt lat="44.69567" lon="6.01203">
        <ele>1131.32</ele>
        <time>2018-08-26T12:28:40Z</time>
      </trkpt>
      <trkpt lat="44.6956" lon="6.01176">
        <ele>1132.06</ele>
        <time>2018-08-26T12:28:42Z</time>
      </trkpt>
      <trkpt lat="44.69547" lon="6.01141">
        <ele>1133.73</ele>
        <time>2018-08-26T12:28:44Z</time>
      </trkpt>
      <trkpt lat="44.6954" lon="6.01107">
        <ele>1136.61</ele>
        <time>2018-08-26T12:28:46Z</time>
      </trkpt>
      <trkpt lat="44.69535" lon="6.01078">
        <ele>1138.2</ele>
        <time>2018-08-26T12:28:48Z</time>
      </trkpt>
      <trkpt lat="44.69505" lon="6.01089">
        <ele>1140.67</ele>
        <time>2018-08-26T12:28:52Z</time>
      </trkpt>
      <trkpt lat="44.69476" lon="6.01096">
        <ele>1141.09</ele>
        <time>2018-08-26T12:28:54Z</time>
      </trkpt>
      <trkpt lat="44.6945" lon="6.01091">
        <ele>1142.25</ele>
        <time>2018-08-26T12:28:56Z</time>
      </trkpt>
      <trkpt lat="44.69423" lon="6.01076">
        <ele>1143.75</ele>
        <time>2018-08-26T12:28:58Z</time>
      </trkpt>
      <trkpt lat="44.69398" lon="6.01068">
        <ele>1145.22</ele>
        <time>2018-08-26T12:29:00Z</time>
      </trkpt>
      <trkpt lat="44.69374" lon="6.01074">
        <ele>1145.14</ele>
        <time>2018-08-26T12:29:02Z</time>
      </trkpt>
      <trkpt lat="44.69346" lon="6.01113">
        <ele>1147.44</ele>
        <time>2018-08-26T12:29:04Z</time>
      </trkpt>
      <trkpt lat="44.69332" lon="6.01136">
        <ele>1152.28</ele>
        <time>2018-08-26T12:29:05Z</time>
      </trkpt>
      <trkpt lat="44.69308" lon="6.01174">
        <ele>1155.57</ele>
        <time>2018-08-26T12:29:07Z</time>
      </trkpt>
      <trkpt lat="44.69289" lon="6.01201">
        <ele>1158.81</ele>
        <time>2018-08-26T12:29:09Z</time>
      </trkpt>
      <trkpt lat="44.6927" lon="6.01215">
        <ele>1160.43</ele>
        <time>2018-08-26T12:29:11Z</time>
      </trkpt>
      <trkpt lat="44.69252" lon="6.01207">
        <ele>1160.37</ele>
        <time>2018-08-26T12:29:13Z</time>
      </trkpt>
      <trkpt lat="44.69222" lon="6.01184">
        <ele>1161.06</ele>
        <time>2018-08-26T12:29:15Z</time>
      </trkpt>
      <trkpt lat="44.69204" lon="6.01142">
        <ele>1162.94</ele>
        <time>2018-08-26T12:29:17Z</time>
      </trkpt>
      <trkpt lat="44.69193" lon="6.01099">
        <ele>1168.15</ele>
        <time>2018-08-26T12:29:19Z</time>
      </trkpt>
      <trkpt lat="44.69188" lon="6.01052">
        <ele>1173.38</ele>
        <time>2018-08-26T12:29:21Z</time>
      </trkpt>
      <trkpt lat="44.69191" lon="6.01005">
        <ele>1176.79</ele>
        <time>2018-08-26T12:29:23Z</time>
      </trkpt>
      <trkpt lat="44.69188" lon="6.00965">
        <ele>1179.62</ele>
        <time>2018-08-26T12:29:25Z</time>
      </trkpt>
      <trkpt lat="44.6918" lon="6.0093">
        <ele>1182.6</ele>
        <time>2018-08-26T12:29:27Z</time>
      </trkpt>
      <trkpt lat="44.69184" lon="6.00896">
        <ele>1185.6</ele>
        <time>2018-08-26T12:29:29Z</time>
      </trkpt>
      <trkpt lat="44.69206" lon="6.00874">
        <ele>1189.51</ele>
        <time>2018-08-26T12:29:31Z</time>
      </trkpt>
      <trkpt lat="44.69226" lon="6.00844">
        <ele>1193.29</ele>
        <time>2018-08-26T12:29:33Z</time>
      </trkpt>
      <trkpt lat="44.69246" lon="6.00807">
        <ele>1197.27</ele>
        <time>2018-08-26T12:29:35Z</time>
      </trkpt>
      <trkpt lat="44.69273" lon="6.00778">
        <ele>1200.78</ele>
        <time>2018-08-26T12:29:37Z</time>
      </trkpt>
      <trkpt lat="44.69301" lon="6.00759">
        <ele>1204.32</ele>
        <time>2018-08-26T12:29:39Z</time>
      </trkpt>
      <trkpt lat="44.69325" lon="6.00745">
        <ele>1208.28</ele>
        <time>2018-08-26T12:29:41Z</time>
      </trkpt>
      <trkpt lat="44.69346" lon="6.0072">
        <ele>1210.17</ele>
        <time>2018-08-26T12:29:43Z</time>
      </trkpt>
      <trkpt lat="44.69366" lon="6.00678">
        <ele>1212.86</ele>
        <time>2018-08-26T12:29:45Z</time>
      </trkpt>
      <trkpt lat="44.69378" lon="6.00658">
        <ele>1214.61</ele>
        <time>2018-08-26T12:29:46Z</time>
      </trkpt>
      <trkpt lat="44.69391" lon="6.00638">
        <ele>1215.84</ele>
        <time>2018-08-26T12:29:47Z</time>
      </trkpt>
      <trkpt lat="44.69415" lon="6.00606">
        <ele>1217.92</ele>
        <time>2018-08-26T12:29:49Z</time>
      </trkpt>
      <trkpt lat="44.69439" lon="6.00596">
        <ele>1220.84</ele>
        <time>2018-08-26T12:29:51Z</time>
      </trkpt>
      <trkpt lat="44.69458" lon="6.00575">
        <ele>1220.61</ele>
        <time>2018-08-26T12:29:53Z</time>
      </trkpt>
      <trkpt lat="44.69477" lon="6.00543">
        <ele>1221.99</ele>
        <time>2018-08-26T12:29:55Z</time>
      </trkpt>
      <trkpt lat="44.69492" lon="6.00504">
        <ele>1223.24</ele>
        <time>2018-08-26T12:29:57Z</time>
      </trkpt>
      <trkpt lat="44.69509" lon="6.00495">
        <ele>1227.48</ele>
        <time>2018-08-26T12:29:59Z</time>
      </trkpt>
      <trkpt lat="44.69528" lon="6.00497">
        <ele>1230.1</ele>
        <time>2018-08-26T12:30:01Z</time>
      </trkpt>
      <trkpt lat="44.6956" lon="6.00523">
        <ele>1234.05</ele>
        <time>2018-08-26T12:30:03Z</time>
      </trkpt>
      <trkpt lat="44.69592" lon="6.00545">
        <ele>1237.76</ele>
        <time>2018-08-26T12:30:05Z</time>
      </trkpt>
      <trkpt lat="44.69616" lon="6.00573">
        <ele>1241.53</ele>
        <time>2018-08-26T12:30:07Z</time>
      </trkpt>
      <trkpt lat="44.69633" lon="6.00593">
        <ele>1243.89</ele>
        <time>2018-08-26T12:30:09Z</time>
      </trkpt>
      <trkpt lat="44.69665" lon="6.00584">
        <ele>1246.23</ele>
        <time>2018-08-26T12:30:12Z</time>
      </trkpt>
      <trkpt lat="44.69684" lon="6.0056">
        <ele>1250.27</ele>
        <time>2018-08-26T12:30:14Z</time>
      </trkpt>
      <trkpt lat="44.69703" lon="6.00526">
        <ele>1252.66</ele>
        <time>2018-08-26T12:30:16Z</time>
      </trkpt>
      <trkpt lat="44.69728" lon="6.00493">
        <ele>1256.31</ele>
        <time>2018-08-26T12:30:18Z</time>
      </trkpt>
      <trkpt lat="44.69753" lon="6.00457">
        <ele>1259.09</ele>
        <time>2018-08-26T12:30:20Z</time>
      </trkpt>
      <trkpt lat="44.69777" lon="6.00424">
        <ele>1260.25</ele>
        <time>2018-08-26T12:30:22Z</time>
      </trkpt>
      <trkpt lat="44.69799" lon="6.0041">
        <ele>1261.96</ele>
        <time>2018-08-26T12:30:24Z</time>
      </trkpt>
      <trkpt lat="44.6982" lon="6.00385">
        <ele>1263.93</ele>
        <time>2018-08-26T12:30:26Z</time>
      </trkpt>
      <trkpt lat="44.69827" lon="6.00344">
        <ele>1265.93</ele>
        <time>2018-08-26T12:30:28Z</time>
      </trkpt>
      <trkpt lat="44.69841" lon="6.00317">
        <ele>1269.54</ele>
        <time>2018-08-26T12:30:30Z</time>
      </trkpt>
      <trkpt lat="44.69859" lon="6.00299">
        <ele>1271.69</ele>
        <time>2018-08-26T12:30:32Z</time>
      </trkpt>
      <trkpt lat="44.69901" lon="6.00319">
        <ele>1275.1</ele>
        <time>2018-08-26T12:30:34Z</time>
      </trkpt>
      <trkpt lat="44.6992" lon="6.00325">
        <ele>1278.08</ele>
        <time>2018-08-26T12:30:35Z</time>
      </trkpt>
      <trkpt lat="44.6995" lon="6.00333">
        <ele>1281.34</ele>
        <time>2018-08-26T12:30:37Z</time>
      </trkpt>
      <trkpt lat="44.69969" lon="6.00355">
        <ele>1285.49</ele>
        <time>2018-08-26T12:30:39Z</time>
      </trkpt>
      <trkpt lat="44.69987" lon="6.00365">
        <ele>1287.68</ele>
        <time>2018-08-26T12:30:41Z</time>
      </trkpt>
      <trkpt lat="44.70008" lon="6.00359">
        <ele>1289</ele>
        <time>2018-08-26T12:30:43Z</time>
      </trkpt>
      <trkpt lat="44.70023" lon="6.00324">
        <ele>1289.33</ele>
        <time>2018-08-26T12:30:45Z</time>
      </trkpt>
      <trkpt lat="44.70045" lon="6.00298">
        <ele>1290.27</ele>
        <time>2018-08-26T12:30:47Z</time>
      </trkpt>
      <trkpt lat="44.70072" lon="6.00289">
        <ele>1292.66</ele>
        <time>2018-08-26T12:30:49Z</time>
      </trkpt>
      <trkpt lat="44.70096" lon="6.00288">
        <ele>1295.82</ele>
        <time>2018-08-26T12:30:51Z</time>
      </trkpt>
      <trkpt lat="44.70117" lon="6.0031">
        <ele>1297.71</ele>
        <time>2018-08-26T12:30:53Z</time>
      </trkpt>
      <trkpt lat="44.70127" lon="6.00335">
        <ele>1299.91</ele>
        <time>2018-08-26T12:30:55Z</time>
      </trkpt>
      <trkpt lat="44.7015" lon="6.00335">
        <ele>1303.9</ele>
        <time>2018-08-26T12:30:58Z</time>
      </trkpt>
      <trkpt lat="44.70184" lon="6.003">
        <ele>1305.23</ele>
        <time>2018-08-26T12:31:00Z</time>
      </trkpt>
      <trkpt lat="44.70203" lon="6.00285">
        <ele>1305.32</ele>
        <time>2018-08-26T12:31:01Z</time>
      </trkpt>
      <trkpt lat="44.70225" lon="6.0027">
        <ele>1306.75</ele>
        <time>2018-08-26T12:31:02Z</time>
      </trkpt>
      <trkpt lat="44.70243" lon="6.00257">
        <ele>1307.88</ele>
        <time>2018-08-26T12:31:03Z</time>
      </trkpt>
      <trkpt lat="44.70264" lon="6.00252">
        <ele>1308.91</ele>
        <time>2018-08-26T12:31:04Z</time>
      </trkpt>
      <trkpt lat="44.70296" lon="6.00243">
        <ele>1311.84</ele>
        <time>2018-08-26T12:31:06Z</time>
      </trkpt>
      <trkpt lat="44.70321" lon="6.0022">
        <ele>1315.04</ele>
        <time>2018-08-26T12:31:08Z</time>
      </trkpt>
      <trkpt lat="44.70327" lon="6.00194">
        <ele>1318.91</ele>
        <time>2018-08-26T12:31:11Z</time>
      </trkpt>
      <trkpt lat="44.70296" lon="6.00201">
        <ele>1321.75</ele>
        <time>2018-08-26T12:31:15Z</time>
      </trkpt>
      <trkpt lat="44.70255" lon="6.00199">
        <ele>1323.91</ele>
        <time>2018-08-26T12:31:17Z</time>
      </trkpt>
      <trkpt lat="44.70236" lon="6.00199">
        <ele>1324.93</ele>
        <time>2018-08-26T12:31:18Z</time>
      </trkpt>
      <trkpt lat="44.70216" lon="6.002">
        <ele>1325.93</ele>
        <time>2018-08-26T12:31:19Z</time>
      </trkpt>
      <trkpt lat="44.70194" lon="6.00203">
        <ele>1326.93</ele>
        <time>2018-08-26T12:31:20Z</time>
      </trkpt>
      <trkpt lat="44.70174" lon="6.00205">
        <ele>1327.23</ele>
        <time>2018-08-26T12:31:21Z</time>
      </trkpt>
      <trkpt lat="44.7014" lon="6.00204">
        <ele>1329.87</ele>
        <time>2018-08-26T12:31:23Z</time>
      </trkpt>
      <trkpt lat="44.70121" lon="6.00195">
        <ele>1333.54</ele>
        <time>2018-08-26T12:31:25Z</time>
      </trkpt>
      <trkpt lat="44.70102" lon="6.00171">
        <ele>1335.9</ele>
        <time>2018-08-26T12:31:27Z</time>
      </trkpt>
      <trkpt lat="44.70096" lon="6.00146">
        <ele>1338.32</ele>
        <time>2018-08-26T12:31:28Z</time>
      </trkpt>
      <trkpt lat="44.7007" lon="6.00114">
        <ele>1344.31</ele>
        <time>2018-08-26T12:31:30Z</time>
      </trkpt>
      <trkpt lat="44.70055" lon="6.00098">
        <ele>1345.74</ele>
        <time>2018-08-26T12:31:31Z</time>
      </trkpt>
      <trkpt lat="44.70038" lon="6.00087">
        <ele>1346.18</ele>
        <time>2018-08-26T12:31:32Z</time>
      </trkpt>
      <trkpt lat="44.70019" lon="6.00081">
        <ele>1349.8</ele>
        <time>2018-08-26T12:31:33Z</time>
      </trkpt>
      <trkpt lat="44.69998" lon="6.00075">
        <ele>1352.29</ele>
        <time>2018-08-26T12:31:34Z</time>
      </trkpt>
      <trkpt lat="44.69977" lon="6.00065">
        <ele>1354.44</ele>
        <time>2018-08-26T12:31:35Z</time>
      </trkpt>
      <trkpt lat="44.69956" lon="6.00058">
        <ele>1357.18</ele>
        <time>2018-08-26T12:31:36Z</time>
      </trkpt>
      <trkpt lat="44.69934" lon="6.00053">
        <ele>1359.41</ele>
        <time>2018-08-26T12:31:37Z</time>
      </trkpt>
      <trkpt lat="44.69912" lon="6.00049">
        <ele>1361.47</ele>
        <time>2018-08-26T12:31:38Z</time>
      </trkpt>
      <trkpt lat="44.69892" lon="6.00049">
        <ele>1364.19</ele>
        <time>2018-08-26T12:31:39Z</time>
      </trkpt>
      <trkpt lat="44.6987" lon="6.00049">
        <ele>1366.41</ele>
        <time>2018-08-26T12:31:40Z</time>
      </trkpt>
      <trkpt lat="44.69849" lon="6.00048">
        <ele>1367.78</ele>
        <time>2018-08-26T12:31:41Z</time>
      </trkpt>
      <trkpt lat="44.69829" lon="6.00048">
        <ele>1368.88</ele>
        <time>2018-08-26T12:31:42Z</time>
      </trkpt>
      <trkpt lat="44.69811" lon="6.00049">
        <ele>1369.22</ele>
        <time>2018-08-26T12:31:43Z</time>
      </trkpt>
      <trkpt lat="44.69792" lon="6.0005">
        <ele>1370.02</ele>
        <time>2018-08-26T12:31:44Z</time>
      </trkpt>
      <trkpt lat="44.6976" lon="6.00044">
        <ele>1371.03</ele>
        <time>2018-08-26T12:31:46Z</time>
      </trkpt>
      <trkpt lat="44.69733" lon="6.00033">
        <ele>1373.64</ele>
        <time>2018-08-26T12:31:48Z</time>
      </trkpt>
      <trkpt lat="44.69715" lon="6.00011">
        <ele>1379.13</ele>
        <time>2018-08-26T12:31:50Z</time>
      </trkpt>
      <trkpt lat="44.6969" lon="5.9998">
        <ele>1384.38</ele>
        <time>2018-08-26T12:31:52Z</time>
      </trkpt>
      <trkpt lat="44.69666" lon="5.99953">
        <ele>1387.79</ele>
        <time>2018-08-26T12:31:54Z</time>
      </trkpt>
      <trkpt lat="44.69642" lon="5.99941">
        <ele>1389.92</ele>
        <time>2018-08-26T12:31:56Z</time>
      </trkpt>
      <trkpt lat="44.69609" lon="5.99948">
        <ele>1391.02</ele>
        <time>2018-08-26T12:31:58Z</time>
      </trkpt>
      <trkpt lat="44.69578" lon="5.99942">
        <ele>1392.73</ele>
        <time>2018-08-26T12:32:00Z</time>
      </trkpt>
      <trkpt lat="44.69549" lon="5.99921">
        <ele>1394.91</ele>
        <time>2018-08-26T12:32:02Z</time>
      </trkpt>
      <trkpt lat="44.69527" lon="5.99896">
        <ele>1397.63</ele>
        <time>2018-08-26T12:32:04Z</time>
      </trkpt>
      <trkpt lat="44.69512" lon="5.99863">
        <ele>1401.3</ele>
        <time>2018-08-26T12:32:06Z</time>
      </trkpt>
      <trkpt lat="44.69497" lon="5.99828">
        <ele>1403.88</ele>
        <time>2018-08-26T12:32:08Z</time>
      </trkpt>
      <trkpt lat="44.69492" lon="5.99781">
        <ele>1407.54</ele>
        <time>2018-08-26T12:32:10Z</time>
      </trkpt>
      <trkpt lat="44.69487" lon="5.99757">
        <ele>1409.51</ele>
        <time>2018-08-26T12:32:11Z</time>
      </trkpt>
      <trkpt lat="44.69478" lon="5.9973">
        <ele>1410.81</ele>
        <time>2018-08-26T12:32:12Z</time>
      </trkpt>
      <trkpt lat="44.69468" lon="5.99705">
        <ele>1413.29</ele>
        <time>2018-08-26T12:32:13Z</time>
      </trkpt>
      <trkpt lat="44.69457" lon="5.99681">
        <ele>1416.14</ele>
        <time>2018-08-26T12:32:14Z</time>
      </trkpt>
      <trkpt lat="44.69447" lon="5.99657">
        <ele>1418.39</ele>
        <time>2018-08-26T12:32:15Z</time>
      </trkpt>
      <trkpt lat="44.69429" lon="5.99617">
        <ele>1423.4</ele>
        <time>2018-08-26T12:32:17Z</time>
      </trkpt>
      <trkpt lat="44.69417" lon="5.99589">
        <ele>1426.58</ele>
        <time>2018-08-26T12:32:19Z</time>
      </trkpt>
      <trkpt lat="44.69434" lon="5.99603">
        <ele>1430.64</ele>
        <time>2018-08-26T12:32:25Z</time>
      </trkpt>
      <trkpt lat="44.69448" lon="5.99624">
        <ele>1431.3</ele>
        <time>2018-08-26T12:32:27Z</time>
      </trkpt>
      <trkpt lat="44.69471" lon="5.99653">
        <ele>1432.75</ele>
        <time>2018-08-26T12:32:29Z</time>
      </trkpt>
      <trkpt lat="44.69494" lon="5.99681">
        <ele>1435.62</ele>
        <time>2018-08-26T12:32:31Z</time>
      </trkpt>
      <trkpt lat="44.69509" lon="5.99709">
        <ele>1438.81</ele>
        <time>2018-08-26T12:32:33Z</time>
      </trkpt>
      <trkpt lat="44.69529" lon="5.99723">
        <ele>1440.01</ele>
        <time>2018-08-26T12:32:35Z</time>
      </trkpt>
      <trkpt lat="44.69555" lon="5.99737">
        <ele>1441.94</ele>
        <time>2018-08-26T12:32:37Z</time>
      </trkpt>
      <trkpt lat="44.69575" lon="5.99764">
        <ele>1443.02</ele>
        <time>2018-08-26T12:32:39Z</time>
      </trkpt>
      <trkpt lat="44.69598" lon="5.99777">
        <ele>1444.24</ele>
        <time>2018-08-26T12:32:41Z</time>
      </trkpt>
      <trkpt lat="44.69616" lon="5.99776">
        <ele>1445.72</ele>
        <time>2018-08-26T12:32:42Z</time>
      </trkpt>
      <trkpt lat="44.69651" lon="5.99784">
        <ele>1447</ele>
        <time>2018-08-26T12:32:44Z</time>
      </trkpt>
      <trkpt lat="44.6967" lon="5.99787">
        <ele>1447.95</ele>
        <time>2018-08-26T12:32:45Z</time>
      </trkpt>
      <trkpt lat="44.69689" lon="5.99784">
        <ele>1448.94</ele>
        <time>2018-08-26T12:32:46Z</time>
      </trkpt>
      <trkpt lat="44.69708" lon="5.99787">
        <ele>1449.93</ele>
        <time>2018-08-26T12:32:47Z</time>
      </trkpt>
      <trkpt lat="44.69727" lon="5.99798">
        <ele>1452.33</ele>
        <time>2018-08-26T12:32:48Z</time>
      </trkpt>
      <trkpt lat="44.69745" lon="5.99807">
        <ele>1454.45</ele>
        <time>2018-08-26T12:32:49Z</time>
      </trkpt>
      <trkpt lat="44.69764" lon="5.99813">
        <ele>1456.49</ele>
        <time>2018-08-26T12:32:50Z</time>
      </trkpt>
      <trkpt lat="44.69782" lon="5.99816">
        <ele>1459.2</ele>
        <time>2018-08-26T12:32:51Z</time>
      </trkpt>
      <trkpt lat="44.69814" lon="5.99821">
        <ele>1463.48</ele>
        <time>2018-08-26T12:32:53Z</time>
      </trkpt>
      <trkpt lat="44.69841" lon="5.99809">
        <ele>1467.5</ele>
        <time>2018-08-26T12:32:55Z</time>
      </trkpt>
      <trkpt lat="44.69866" lon="5.99795">
        <ele>1469.89</ele>
        <time>2018-08-26T12:32:57Z</time>
      </trkpt>
      <trkpt lat="44.69889" lon="5.99795">
        <ele>1472.84</ele>
        <time>2018-08-26T12:32:59Z</time>
      </trkpt>
      <trkpt lat="44.6991" lon="5.99802">
        <ele>1476.84</ele>
        <time>2018-08-26T12:33:02Z</time>
      </trkpt>
      <trkpt lat="44.69897" lon="5.99779">
        <ele>1478.05</ele>
        <time>2018-08-26T12:33:05Z</time>
      </trkpt>
      <trkpt lat="44.69871" lon="5.99764">
        <ele>1479.73</ele>
        <time>2018-08-26T12:33:07Z</time>
      </trkpt>
      <trkpt lat="44.69838" lon="5.99765">
        <ele>1481</ele>
        <time>2018-08-26T12:33:09Z</time>
      </trkpt>
      <trkpt lat="44.69812" lon="5.99756">
        <ele>1483.43</ele>
        <time>2018-08-26T12:33:11Z</time>
      </trkpt>
      <trkpt lat="44.69785" lon="5.99735">
        <ele>1485.89</ele>
        <time>2018-08-26T12:33:13Z</time>
      </trkpt>
      <trkpt lat="44.69772" lon="5.99716">
        <ele>1490.42</ele>
        <time>2018-08-26T12:33:14Z</time>
      </trkpt>
      <trkpt lat="44.69741" lon="5.99686">
        <ele>1496.32</ele>
        <time>2018-08-26T12:33:16Z</time>
      </trkpt>
      <trkpt lat="44.69722" lon="5.99673">
        <ele>1498.45</ele>
        <time>2018-08-26T12:33:17Z</time>
      </trkpt>
      <trkpt lat="44.69704" lon="5.99659">
        <ele>1499.79</ele>
        <time>2018-08-26T12:33:18Z</time>
      </trkpt>
      <trkpt lat="44.69685" lon="5.99644">
        <ele>1501.59</ele>
        <time>2018-08-26T12:33:19Z</time>
      </trkpt>
      <trkpt lat="44.69666" lon="5.99628">
        <ele>1502.83</ele>
        <time>2018-08-26T12:33:20Z</time>
      </trkpt>
      <trkpt lat="44.69651" lon="5.99609">
        <ele>1503.9</ele>
        <time>2018-08-26T12:33:21Z</time>
      </trkpt>
      <trkpt lat="44.69636" lon="5.99595">
        <ele>1507.72</ele>
        <time>2018-08-26T12:33:22Z</time>
      </trkpt>
      <trkpt lat="44.69622" lon="5.9958">
        <ele>1510.97</ele>
        <time>2018-08-26T12:33:23Z</time>
      </trkpt>
      <trkpt lat="44.69594" lon="5.99551">
        <ele>1516.36</ele>
        <time>2018-08-26T12:33:25Z</time>
      </trkpt>
      <trkpt lat="44.69575" lon="5.99509">
        <ele>1520.49</ele>
        <time>2018-08-26T12:33:27Z</time>
      </trkpt>
      <trkpt lat="44.69558" lon="5.99465">
        <ele>1525.41</ele>
        <time>2018-08-26T12:33:29Z</time>
      </trkpt>
      <trkpt lat="44.69551" lon="5.99442">
        <ele>1526.78</ele>
        <time>2018-08-26T12:33:30Z</time>
      </trkpt>
      <trkpt lat="44.6954" lon="5.99394">
        <ele>1531.44</ele>
        <time>2018-08-26T12:33:32Z</time>
      </trkpt>
      <trkpt lat="44.69536" lon="5.99369">
        <ele>1533.48</ele>
        <time>2018-08-26T12:33:33Z</time>
      </trkpt>
      <trkpt lat="44.69528" lon="5.99346">
        <ele>1534.8</ele>
        <time>2018-08-26T12:33:34Z</time>
      </trkpt>
      <trkpt lat="44.69506" lon="5.99308">
        <ele>1540.14</ele>
        <time>2018-08-26T12:33:36Z</time>
      </trkpt>
      <trkpt lat="44.6948" lon="5.9928">
        <ele>1544.68</ele>
        <time>2018-08-26T12:33:38Z</time>
      </trkpt>
      <trkpt lat="44.69462" lon="5.99252">
        <ele>1547.82</ele>
        <time>2018-08-26T12:33:40Z</time>
      </trkpt>
      <trkpt lat="44.69442" lon="5.99229">
        <ele>1553.14</ele>
        <time>2018-08-26T12:33:42Z</time>
      </trkpt>
      <trkpt lat="44.6942" lon="5.99208">
        <ele>1558.87</ele>
        <time>2018-08-26T12:33:44Z</time>
      </trkpt>
      <trkpt lat="44.69398" lon="5.99189">
        <ele>1562.54</ele>
        <time>2018-08-26T12:33:46Z</time>
      </trkpt>
      <trkpt lat="44.69375" lon="5.99165">
        <ele>1565.6</ele>
        <time>2018-08-26T12:33:48Z</time>
      </trkpt>
      <trkpt lat="44.69347" lon="5.99145">
        <ele>1568.6</ele>
        <time>2018-08-26T12:33:50Z</time>
      </trkpt>
      <trkpt lat="44.69323" lon="5.99139">
        <ele>1570.9</ele>
        <time>2018-08-26T12:33:52Z</time>
      </trkpt>
      <trkpt lat="44.69303" lon="5.99128">
        <ele>1574.9</ele>
        <time>2018-08-26T12:33:55Z</time>
      </trkpt>
      <trkpt lat="44.69298" lon="5.99093">
        <ele>1579.81</ele>
        <time>2018-08-26T12:33:58Z</time>
      </trkpt>
      <trkpt lat="44.69294" lon="5.99059">
        <ele>1583.9</ele>
        <time>2018-08-26T12:34:01Z</time>
      </trkpt>
      <trkpt lat="44.69298" lon="5.99031">
        <ele>1587.75</ele>
        <time>2018-08-26T12:34:03Z</time>
      </trkpt>
      <trkpt lat="44.69293" lon="5.98999">
        <ele>1590.82</ele>
        <time>2018-08-26T12:34:05Z</time>
      </trkpt>
      <trkpt lat="44.69286" lon="5.98962">
        <ele>1593.62</ele>
        <time>2018-08-26T12:34:07Z</time>
      </trkpt>
      <trkpt lat="44.6928" lon="5.98923">
        <ele>1596.6</ele>
        <time>2018-08-26T12:34:09Z</time>
      </trkpt>
      <trkpt lat="44.69269" lon="5.98882">
        <ele>1600.51</ele>
        <time>2018-08-26T12:34:11Z</time>
      </trkpt>
      <trkpt lat="44.69254" lon="5.98842">
        <ele>1604.29</ele>
        <time>2018-08-26T12:34:13Z</time>
      </trkpt>
      <trkpt lat="44.69233" lon="5.98806">
        <ele>1607.78</ele>
        <time>2018-08-26T12:34:15Z</time>
      </trkpt>
      <trkpt lat="44.6921" lon="5.98768">
        <ele>1609.92</ele>
        <time>2018-08-26T12:34:17Z</time>
      </trkpt>
      <trkpt lat="44.69198" lon="5.98749">
        <ele>1610.93</ele>
        <time>2018-08-26T12:34:18Z</time>
      </trkpt>
      <trkpt lat="44.69187" lon="5.98729">
        <ele>1611.93</ele>
        <time>2018-08-26T12:34:19Z</time>
      </trkpt>
      <trkpt lat="44.69165" lon="5.98699">
        <ele>1614.84</ele>
        <time>2018-08-26T12:34:21Z</time>
      </trkpt>
      <trkpt lat="44.69142" lon="5.98685">
        <ele>1617.62</ele>
        <time>2018-08-26T12:34:23Z</time>
      </trkpt>
      <trkpt lat="44.69125" lon="5.98673">
        <ele>1617.59</ele>
        <time>2018-08-26T12:34:25Z</time>
      </trkpt>
      <trkpt lat="44.6915" lon="5.98677">
        <ele>1619.75</ele>
        <time>2018-08-26T12:34:30Z</time>
      </trkpt>
      <trkpt lat="44.6917" lon="5.9869">
        <ele>1621.71</ele>
        <time>2018-08-26T12:34:32Z</time>
      </trkpt>
      <trkpt lat="44.69194" lon="5.9871">
        <ele>1624.82</ele>
        <time>2018-08-26T12:34:34Z</time>
      </trkpt>
      <trkpt lat="44.69219" lon="5.98738">
        <ele>1628.53</ele>
        <time>2018-08-26T12:34:36Z</time>
      </trkpt>
      <trkpt lat="44.69244" lon="5.9877">
        <ele>1631.6</ele>
        <time>2018-08-26T12:34:38Z</time>
      </trkpt>
      <trkpt lat="44.69261" lon="5.98795">
        <ele>1631.59</ele>
        <time>2018-08-26T12:34:40Z</time>
      </trkpt>
      <trkpt lat="44.69251" lon="5.98762">
        <ele>1634.98</ele>
        <time>2018-08-26T12:34:47Z</time>
      </trkpt>
      <trkpt lat="44.69238" lon="5.98736">
        <ele>1636.03</ele>
        <time>2018-08-26T12:34:49Z</time>
      </trkpt>
      <trkpt lat="44.69223" lon="5.98711">
        <ele>1639.55</ele>
        <time>2018-08-26T12:34:51Z</time>
      </trkpt>
      <trkpt lat="44.69204" lon="5.98688">
        <ele>1640.29</ele>
        <time>2018-08-26T12:34:53Z</time>
      </trkpt>
      <trkpt lat="44.69187" lon="5.9867">
        <ele>1641.75</ele>
        <time>2018-08-26T12:34:55Z</time>
      </trkpt>
      <trkpt lat="44.69173" lon="5.98654">
        <ele>1643.56</ele>
        <time>2018-08-26T12:34:59Z</time>
      </trkpt>
      <trkpt lat="44.69167" lon="5.98623">
        <ele>1657.94</ele>
        <time>2018-08-26T12:37:12Z</time>
      </trkpt>
      <trkpt lat="44.69168" lon="5.98597">
        <ele>1659.02</ele>
        <time>2018-08-26T12:37:14Z</time>
      </trkpt>
      <trkpt lat="44.69173" lon="5.98571">
        <ele>1658.42</ele>
        <time>2018-08-26T12:37:16Z</time>
      </trkpt>
      <trkpt lat="44.69188" lon="5.98546">
        <ele>1660.24</ele>
        <time>2018-08-26T12:37:19Z</time>
      </trkpt>
      <trkpt lat="44.69202" lon="5.98527">
        <ele>1661.27</ele>
        <time>2018-08-26T12:37:22Z</time>
      </trkpt>
      <trkpt lat="44.69216" lon="5.98505">
        <ele>1664.23</ele>
        <time>2018-08-26T12:37:26Z</time>
      </trkpt>
      <trkpt lat="44.69231" lon="5.98481">
        <ele>1666.32</ele>
        <time>2018-08-26T12:37:30Z</time>
      </trkpt>
      <trkpt lat="44.69246" lon="5.98461">
        <ele>1667.27</ele>
        <time>2018-08-26T12:37:34Z</time>
      </trkpt>
      <trkpt lat="44.69261" lon="5.98438">
        <ele>1667.08</ele>
        <time>2018-08-26T12:51:08Z</time>
      </trkpt>
      <trkpt lat="44.69276" lon="5.98414">
        <ele>1667.63</ele>
        <time>2018-08-26T12:51:12Z</time>
      </trkpt>
      <trkpt lat="44.69291" lon="5.98393">
        <ele>1667.38</ele>
        <time>2018-08-26T12:51:14Z</time>
      </trkpt>
      <trkpt lat="44.69309" lon="5.98362">
        <ele>1665.05</ele>
        <time>2018-08-26T12:51:16Z</time>
      </trkpt>
      <trkpt lat="44.69325" lon="5.98327">
        <ele>1662.81</ele>
        <time>2018-08-26T12:51:18Z</time>
      </trkpt>
      <trkpt lat="44.6934" lon="5.98289">
        <ele>1660.79</ele>
        <time>2018-08-26T12:51:20Z</time>
      </trkpt>
      <trkpt lat="44.69354" lon="5.98248">
        <ele>1657.39</ele>
        <time>2018-08-26T12:51:22Z</time>
      </trkpt>
      <trkpt lat="44.69371" lon="5.98203">
        <ele>1653.23</ele>
        <time>2018-08-26T12:51:24Z</time>
      </trkpt>
      <trkpt lat="44.6938" lon="5.9818">
        <ele>1651.92</ele>
        <time>2018-08-26T12:51:25Z</time>
      </trkpt>
      <trkpt lat="44.69391" lon="5.98157">
        <ele>1650.13</ele>
        <time>2018-08-26T12:51:26Z</time>
      </trkpt>
      <trkpt lat="44.69402" lon="5.98134">
        <ele>1648.19</ele>
        <time>2018-08-26T12:51:27Z</time>
      </trkpt>
      <trkpt lat="44.69415" lon="5.98111">
        <ele>1646.91</ele>
        <time>2018-08-26T12:51:28Z</time>
      </trkpt>
      <trkpt lat="44.69427" lon="5.98086">
        <ele>1644.42</ele>
        <time>2018-08-26T12:51:29Z</time>
      </trkpt>
      <trkpt lat="44.69439" lon="5.98061">
        <ele>1642.98</ele>
        <time>2018-08-26T12:51:30Z</time>
      </trkpt>
      <trkpt lat="44.69449" lon="5.98038">
        <ele>1641.15</ele>
        <time>2018-08-26T12:51:31Z</time>
      </trkpt>
      <trkpt lat="44.69466" lon="5.98004">
        <ele>1639.9</ele>
        <time>2018-08-26T12:51:33Z</time>
      </trkpt>
      <trkpt lat="44.69492" lon="5.97969">
        <ele>1635.28</ele>
        <time>2018-08-26T12:51:35Z</time>
      </trkpt>
      <trkpt lat="44.69505" lon="5.97948">
        <ele>1633.24</ele>
        <time>2018-08-26T12:51:36Z</time>
      </trkpt>
      <trkpt lat="44.69518" lon="5.97926">
        <ele>1631.22</ele>
        <time>2018-08-26T12:51:37Z</time>
      </trkpt>
      <trkpt lat="44.69531" lon="5.97904">
        <ele>1629.92</ele>
        <time>2018-08-26T12:51:38Z</time>
      </trkpt>
      <trkpt lat="44.69544" lon="5.97881">
        <ele>1628.13</ele>
        <time>2018-08-26T12:51:39Z</time>
      </trkpt>
      <trkpt lat="44.69555" lon="5.97856">
        <ele>1626.19</ele>
        <time>2018-08-26T12:51:40Z</time>
      </trkpt>
      <trkpt lat="44.69565" lon="5.9783">
        <ele>1624.91</ele>
        <time>2018-08-26T12:51:41Z</time>
      </trkpt>
      <trkpt lat="44.6957" lon="5.978">
        <ele>1624.52</ele>
        <time>2018-08-26T12:51:42Z</time>
      </trkpt>
      <trkpt lat="44.69578" lon="5.97773">
        <ele>1623.71</ele>
        <time>2018-08-26T12:51:43Z</time>
      </trkpt>
      <trkpt lat="44.69587" lon="5.97748">
        <ele>1622.76</ele>
        <time>2018-08-26T12:51:44Z</time>
      </trkpt>
      <trkpt lat="44.69596" lon="5.97725">
        <ele>1621.78</ele>
        <time>2018-08-26T12:51:45Z</time>
      </trkpt>
      <trkpt lat="44.69616" lon="5.97687">
        <ele>1621.4</ele>
        <time>2018-08-26T12:51:47Z</time>
      </trkpt>
      <trkpt lat="44.69633" lon="5.97648">
        <ele>1620.45</ele>
        <time>2018-08-26T12:51:49Z</time>
      </trkpt>
      <trkpt lat="44.6965" lon="5.97604">
        <ele>1618.06</ele>
        <time>2018-08-26T12:51:51Z</time>
      </trkpt>
      <trkpt lat="44.69669" lon="5.97564">
        <ele>1614.9</ele>
        <time>2018-08-26T12:51:53Z</time>
      </trkpt>
      <trkpt lat="44.69683" lon="5.97527">
        <ele>1613.01</ele>
        <time>2018-08-26T12:51:55Z</time>
      </trkpt>
      <trkpt lat="44.69686" lon="5.97483">
        <ele>1609.2</ele>
        <time>2018-08-26T12:51:57Z</time>
      </trkpt>
      <trkpt lat="44.69687" lon="5.97436">
        <ele>1605.22</ele>
        <time>2018-08-26T12:51:59Z</time>
      </trkpt>
      <trkpt lat="44.69686" lon="5.974">
        <ele>1602.83</ele>
        <time>2018-08-26T12:52:01Z</time>
      </trkpt>
      <trkpt lat="44.69687" lon="5.97369">
        <ele>1599.79</ele>
        <time>2018-08-26T12:52:04Z</time>
      </trkpt>
      <trkpt lat="44.69706" lon="5.97389">
        <ele>1596.76</ele>
        <time>2018-08-26T12:52:08Z</time>
      </trkpt>
      <trkpt lat="44.69721" lon="5.97416">
        <ele>1595.49</ele>
        <time>2018-08-26T12:52:10Z</time>
      </trkpt>
      <trkpt lat="44.69734" lon="5.97443">
        <ele>1594.67</ele>
        <time>2018-08-26T12:52:12Z</time>
      </trkpt>
      <trkpt lat="44.69751" lon="5.97455">
        <ele>1593.88</ele>
        <time>2018-08-26T12:52:15Z</time>
      </trkpt>
      <trkpt lat="44.69754" lon="5.97425">
        <ele>1591.06</ele>
        <time>2018-08-26T12:52:18Z</time>
      </trkpt>
      <trkpt lat="44.69755" lon="5.97388">
        <ele>1588.11</ele>
        <time>2018-08-26T12:52:20Z</time>
      </trkpt>
      <trkpt lat="44.69755" lon="5.97347">
        <ele>1585.82</ele>
        <time>2018-08-26T12:52:22Z</time>
      </trkpt>
      <trkpt lat="44.69757" lon="5.97306">
        <ele>1582.88</ele>
        <time>2018-08-26T12:52:24Z</time>
      </trkpt>
      <trkpt lat="44.69755" lon="5.97269">
        <ele>1580.8</ele>
        <time>2018-08-26T12:52:26Z</time>
      </trkpt>
      <trkpt lat="44.69747" lon="5.97233">
        <ele>1578.79</ele>
        <time>2018-08-26T12:52:28Z</time>
      </trkpt>
      <trkpt lat="44.69731" lon="5.97207">
        <ele>1576.79</ele>
        <time>2018-08-26T12:52:30Z</time>
      </trkpt>
      <trkpt lat="44.69719" lon="5.97178">
        <ele>1573.39</ele>
        <time>2018-08-26T12:52:32Z</time>
      </trkpt>
      <trkpt lat="44.69715" lon="5.9714">
        <ele>1571.54</ele>
        <time>2018-08-26T12:52:34Z</time>
      </trkpt>
      <trkpt lat="44.69717" lon="5.97096">
        <ele>1569.77</ele>
        <time>2018-08-26T12:52:36Z</time>
      </trkpt>
      <trkpt lat="44.69724" lon="5.97055">
        <ele>1567.79</ele>
        <time>2018-08-26T12:52:38Z</time>
      </trkpt>
      <trkpt lat="44.69728" lon="5.97018">
        <ele>1564.88</ele>
        <time>2018-08-26T12:52:40Z</time>
      </trkpt>
      <trkpt lat="44.69723" lon="5.96975">
        <ele>1560.7</ele>
        <time>2018-08-26T12:52:42Z</time>
      </trkpt>
      <trkpt lat="44.69716" lon="5.96927">
        <ele>1556.26</ele>
        <time>2018-08-26T12:52:44Z</time>
      </trkpt>
      <trkpt lat="44.69712" lon="5.96901">
        <ele>1554.93</ele>
        <time>2018-08-26T12:52:45Z</time>
      </trkpt>
      <trkpt lat="44.69705" lon="5.96874">
        <ele>1551.73</ele>
        <time>2018-08-26T12:52:46Z</time>
      </trkpt>
      <trkpt lat="44.69699" lon="5.96847">
        <ele>1550.77</ele>
        <time>2018-08-26T12:52:47Z</time>
      </trkpt>
      <trkpt lat="44.69696" lon="5.96819">
        <ele>1549.78</ele>
        <time>2018-08-26T12:52:48Z</time>
      </trkpt>
      <trkpt lat="44.69695" lon="5.9679">
        <ele>1548.09</ele>
        <time>2018-08-26T12:52:49Z</time>
      </trkpt>
      <trkpt lat="44.69693" lon="5.9676">
        <ele>1546.18</ele>
        <time>2018-08-26T12:52:50Z</time>
      </trkpt>
      <trkpt lat="44.69692" lon="5.9673">
        <ele>1544.91</ele>
        <time>2018-08-26T12:52:51Z</time>
      </trkpt>
      <trkpt lat="44.69691" lon="5.96699">
        <ele>1542.42</ele>
        <time>2018-08-26T12:52:52Z</time>
      </trkpt>
      <trkpt lat="44.69692" lon="5.96669">
        <ele>1541.68</ele>
        <time>2018-08-26T12:52:53Z</time>
      </trkpt>
      <trkpt lat="44.69694" lon="5.96637">
        <ele>1540.06</ele>
        <time>2018-08-26T12:52:54Z</time>
      </trkpt>
      <trkpt lat="44.69697" lon="5.96606">
        <ele>1538.17</ele>
        <time>2018-08-26T12:52:55Z</time>
      </trkpt>
      <trkpt lat="44.69699" lon="5.96575">
        <ele>1536.2</ele>
        <time>2018-08-26T12:52:56Z</time>
      </trkpt>
      <trkpt lat="44.69702" lon="5.96544">
        <ele>1534.21</ele>
        <time>2018-08-26T12:52:57Z</time>
      </trkpt>
      <trkpt lat="44.69704" lon="5.96512">
        <ele>1532.22</ele>
        <time>2018-08-26T12:52:58Z</time>
      </trkpt>
      <trkpt lat="44.69706" lon="5.96481">
        <ele>1530.22</ele>
        <time>2018-08-26T12:52:59Z</time>
      </trkpt>
      <trkpt lat="44.69709" lon="5.96449">
        <ele>1528.92</ele>
        <time>2018-08-26T12:53:00Z</time>
      </trkpt>
      <trkpt lat="44.69712" lon="5.96417">
        <ele>1527.83</ele>
        <time>2018-08-26T12:53:01Z</time>
      </trkpt>
      <trkpt lat="44.69715" lon="5.96384">
        <ele>1526.8</ele>
        <time>2018-08-26T12:53:02Z</time>
      </trkpt>
      <trkpt lat="44.69717" lon="5.96352">
        <ele>1525.09</ele>
        <time>2018-08-26T12:53:03Z</time>
      </trkpt>
      <trkpt lat="44.6972" lon="5.9632">
        <ele>1523.18</ele>
        <time>2018-08-26T12:53:04Z</time>
      </trkpt>
      <trkpt lat="44.69723" lon="5.96288">
        <ele>1521.91</ele>
        <time>2018-08-26T12:53:05Z</time>
      </trkpt>
      <trkpt lat="44.69725" lon="5.96255">
        <ele>1520.82</ele>
        <time>2018-08-26T12:53:06Z</time>
      </trkpt>
      <trkpt lat="44.69727" lon="5.96222">
        <ele>1519.8</ele>
        <time>2018-08-26T12:53:07Z</time>
      </trkpt>
      <trkpt lat="44.69729" lon="5.9619">
        <ele>1518.79</ele>
        <time>2018-08-26T12:53:08Z</time>
      </trkpt>
      <trkpt lat="44.69732" lon="5.96158">
        <ele>1517.09</ele>
        <time>2018-08-26T12:53:09Z</time>
      </trkpt>
      <trkpt lat="44.69734" lon="5.96126">
        <ele>1515.88</ele>
        <time>2018-08-26T12:53:10Z</time>
      </trkpt>
      <trkpt lat="44.69737" lon="5.96094">
        <ele>1515.52</ele>
        <time>2018-08-26T12:53:11Z</time>
      </trkpt>
      <trkpt lat="44.69739" lon="5.96062">
        <ele>1514.71</ele>
        <time>2018-08-26T12:53:12Z</time>
      </trkpt>
      <trkpt lat="44.69742" lon="5.96029">
        <ele>1513.06</ele>
        <time>2018-08-26T12:53:13Z</time>
      </trkpt>
      <trkpt lat="44.69744" lon="5.95997">
        <ele>1511.87</ele>
        <time>2018-08-26T12:53:14Z</time>
      </trkpt>
      <trkpt lat="44.69747" lon="5.95965">
        <ele>1510.81</ele>
        <time>2018-08-26T12:53:15Z</time>
      </trkpt>
      <trkpt lat="44.6975" lon="5.95931">
        <ele>1509.8</ele>
        <time>2018-08-26T12:53:16Z</time>
      </trkpt>
      <trkpt lat="44.69752" lon="5.95898">
        <ele>1508.79</ele>
        <time>2018-08-26T12:53:17Z</time>
      </trkpt>
      <trkpt lat="44.69754" lon="5.95866">
        <ele>1507.79</ele>
        <time>2018-08-26T12:53:18Z</time>
      </trkpt>
      <trkpt lat="44.69756" lon="5.95833">
        <ele>1506.09</ele>
        <time>2018-08-26T12:53:19Z</time>
      </trkpt>
      <trkpt lat="44.69758" lon="5.958">
        <ele>1504.88</ele>
        <time>2018-08-26T12:53:20Z</time>
      </trkpt>
      <trkpt lat="44.6976" lon="5.95768">
        <ele>1504.52</ele>
        <time>2018-08-26T12:53:21Z</time>
      </trkpt>
      <trkpt lat="44.69763" lon="5.95737">
        <ele>1504.41</ele>
        <time>2018-08-26T12:53:22Z</time>
      </trkpt>
      <trkpt lat="44.69765" lon="5.95706">
        <ele>1504.37</ele>
        <time>2018-08-26T12:53:23Z</time>
      </trkpt>
      <trkpt lat="44.69768" lon="5.95677">
        <ele>1505.06</ele>
        <time>2018-08-26T12:53:24Z</time>
      </trkpt>
      <trkpt lat="44.6977" lon="5.95649">
        <ele>1505.97</ele>
        <time>2018-08-26T12:53:25Z</time>
      </trkpt>
      <trkpt lat="44.69772" lon="5.9562">
        <ele>1506.24</ele>
        <time>2018-08-26T12:53:26Z</time>
      </trkpt>
      <trkpt lat="44.69774" lon="5.95593">
        <ele>1507.03</ele>
        <time>2018-08-26T12:53:27Z</time>
      </trkpt>
      <trkpt lat="44.69775" lon="5.95567">
        <ele>1507.96</ele>
        <time>2018-08-26T12:53:28Z</time>
      </trkpt>
      <trkpt lat="44.69777" lon="5.9552">
        <ele>1509.23</ele>
        <time>2018-08-26T12:53:30Z</time>
      </trkpt>
      <trkpt lat="44.6978" lon="5.95482">
        <ele>1510.26</ele>
        <time>2018-08-26T12:53:32Z</time>
      </trkpt>
      <trkpt lat="44.69778" lon="5.95449">
        <ele>1511.27</ele>
        <time>2018-08-26T12:53:35Z</time>
      </trkpt>
      <trkpt lat="44.69763" lon="5.95418">
        <ele>1511.15</ele>
        <time>2018-08-26T12:54:34Z</time>
      </trkpt>
      <trkpt lat="44.6975" lon="5.95397">
        <ele>1512.04</ele>
        <time>2018-08-26T12:54:36Z</time>
      </trkpt>
      <trkpt lat="44.69732" lon="5.95377">
        <ele>1512.33</ele>
        <time>2018-08-26T12:54:38Z</time>
      </trkpt>
      <trkpt lat="44.69707" lon="5.95355">
        <ele>1513.97</ele>
        <time>2018-08-26T12:54:40Z</time>
      </trkpt>
      <trkpt lat="44.69679" lon="5.9533">
        <ele>1514.32</ele>
        <time>2018-08-26T12:54:42Z</time>
      </trkpt>
      <trkpt lat="44.69651" lon="5.95302">
        <ele>1515.97</ele>
        <time>2018-08-26T12:54:44Z</time>
      </trkpt>
      <trkpt lat="44.69628" lon="5.95273">
        <ele>1517.02</ele>
        <time>2018-08-26T12:54:46Z</time>
      </trkpt>
      <trkpt lat="44.69607" lon="5.95246">
        <ele>1517.33</ele>
        <time>2018-08-26T12:54:48Z</time>
      </trkpt>
      <trkpt lat="44.69587" lon="5.95225">
        <ele>1518.27</ele>
        <time>2018-08-26T12:54:50Z</time>
      </trkpt>
      <trkpt lat="44.6956" lon="5.95221">
        <ele>1517.44</ele>
        <time>2018-08-26T12:54:52Z</time>
      </trkpt>
      <trkpt lat="44.69526" lon="5.95224">
        <ele>1516.67</ele>
        <time>2018-08-26T12:54:54Z</time>
      </trkpt>
      <trkpt lat="44.69492" lon="5.95227">
        <ele>1514.08</ele>
        <time>2018-08-26T12:54:56Z</time>
      </trkpt>
      <trkpt lat="44.69457" lon="5.95235">
        <ele>1511.81</ele>
        <time>2018-08-26T12:54:58Z</time>
      </trkpt>
      <trkpt lat="44.69439" lon="5.95239">
        <ele>1510.1</ele>
        <time>2018-08-26T12:54:59Z</time>
      </trkpt>
      <trkpt lat="44.6942" lon="5.95239">
        <ele>1508.88</ele>
        <time>2018-08-26T12:55:00Z</time>
      </trkpt>
      <trkpt lat="44.69401" lon="5.95239">
        <ele>1507.82</ele>
        <time>2018-08-26T12:55:01Z</time>
      </trkpt>
      <trkpt lat="44.69382" lon="5.95238">
        <ele>1506.1</ele>
        <time>2018-08-26T12:55:02Z</time>
      </trkpt>
      <trkpt lat="44.69362" lon="5.95237">
        <ele>1504.88</ele>
        <time>2018-08-26T12:55:03Z</time>
      </trkpt>
      <trkpt lat="44.69343" lon="5.95236">
        <ele>1503.82</ele>
        <time>2018-08-26T12:55:04Z</time>
      </trkpt>
      <trkpt lat="44.69323" lon="5.95235">
        <ele>1502.1</ele>
        <time>2018-08-26T12:55:05Z</time>
      </trkpt>
      <trkpt lat="44.69304" lon="5.95234">
        <ele>1500.18</ele>
        <time>2018-08-26T12:55:06Z</time>
      </trkpt>
      <trkpt lat="44.69286" lon="5.95235">
        <ele>1498.21</ele>
        <time>2018-08-26T12:55:07Z</time>
      </trkpt>
      <trkpt lat="44.69252" lon="5.95237">
        <ele>1495.83</ele>
        <time>2018-08-26T12:55:09Z</time>
      </trkpt>
      <trkpt lat="44.69228" lon="5.95245">
        <ele>1493.79</ele>
        <time>2018-08-26T12:55:11Z</time>
      </trkpt>
      <trkpt lat="44.69209" lon="5.95257">
        <ele>1491.79</ele>
        <time>2018-08-26T12:55:13Z</time>
      </trkpt>
      <trkpt lat="44.69192" lon="5.95271">
        <ele>1493.33</ele>
        <time>2018-08-26T12:55:31Z</time>
      </trkpt>
      <trkpt lat="44.69176" lon="5.95284">
        <ele>1491.75</ele>
        <time>2018-08-26T12:55:33Z</time>
      </trkpt>
      <trkpt lat="44.69154" lon="5.95301">
        <ele>1489.78</ele>
        <time>2018-08-26T12:55:35Z</time>
      </trkpt>
      <trkpt lat="44.69125" lon="5.95314">
        <ele>1487.79</ele>
        <time>2018-08-26T12:55:37Z</time>
      </trkpt>
      <trkpt lat="44.69095" lon="5.95322">
        <ele>1485.79</ele>
        <time>2018-08-26T12:55:39Z</time>
      </trkpt>
      <trkpt lat="44.69071" lon="5.95332">
        <ele>1483.09</ele>
        <time>2018-08-26T12:55:41Z</time>
      </trkpt>
      <trkpt lat="44.69045" lon="5.95348">
        <ele>1480.82</ele>
        <time>2018-08-26T12:55:43Z</time>
      </trkpt>
      <trkpt lat="44.69018" lon="5.95373">
        <ele>1478.79</ele>
        <time>2018-08-26T12:55:45Z</time>
      </trkpt>
      <trkpt lat="44.68987" lon="5.95398">
        <ele>1474.27</ele>
        <time>2018-08-26T12:55:47Z</time>
      </trkpt>
      <trkpt lat="44.68971" lon="5.9541">
        <ele>1473.63</ele>
        <time>2018-08-26T12:55:48Z</time>
      </trkpt>
      <trkpt lat="44.68955" lon="5.95421">
        <ele>1472.04</ele>
        <time>2018-08-26T12:55:49Z</time>
      </trkpt>
      <trkpt lat="44.68939" lon="5.95433">
        <ele>1470.16</ele>
        <time>2018-08-26T12:55:50Z</time>
      </trkpt>
      <trkpt lat="44.68923" lon="5.95446">
        <ele>1468.2</ele>
        <time>2018-08-26T12:55:51Z</time>
      </trkpt>
      <trkpt lat="44.68907" lon="5.95459">
        <ele>1466.21</ele>
        <time>2018-08-26T12:55:52Z</time>
      </trkpt>
      <trkpt lat="44.6889" lon="5.95472">
        <ele>1464.22</ele>
        <time>2018-08-26T12:55:53Z</time>
      </trkpt>
      <trkpt lat="44.68873" lon="5.95483">
        <ele>1462.92</ele>
        <time>2018-08-26T12:55:54Z</time>
      </trkpt>
      <trkpt lat="44.68856" lon="5.95491">
        <ele>1461.83</ele>
        <time>2018-08-26T12:55:55Z</time>
      </trkpt>
      <trkpt lat="44.68837" lon="5.95497">
        <ele>1460.1</ele>
        <time>2018-08-26T12:55:56Z</time>
      </trkpt>
      <trkpt lat="44.68819" lon="5.95502">
        <ele>1458.88</ele>
        <time>2018-08-26T12:55:57Z</time>
      </trkpt>
      <trkpt lat="44.68801" lon="5.95507">
        <ele>1457.12</ele>
        <time>2018-08-26T12:55:58Z</time>
      </trkpt>
      <trkpt lat="44.68783" lon="5.95514">
        <ele>1455.89</ele>
        <time>2018-08-26T12:55:59Z</time>
      </trkpt>
      <trkpt lat="44.68765" lon="5.95523">
        <ele>1454.12</ele>
        <time>2018-08-26T12:56:00Z</time>
      </trkpt>
      <trkpt lat="44.68745" lon="5.9553">
        <ele>1452.19</ele>
        <time>2018-08-26T12:56:01Z</time>
      </trkpt>
      <trkpt lat="44.68727" lon="5.95535">
        <ele>1450.91</ele>
        <time>2018-08-26T12:56:02Z</time>
      </trkpt>
      <trkpt lat="44.68708" lon="5.95539">
        <ele>1449.82</ele>
        <time>2018-08-26T12:56:03Z</time>
      </trkpt>
      <trkpt lat="44.68689" lon="5.95545">
        <ele>1448.1</ele>
        <time>2018-08-26T12:56:04Z</time>
      </trkpt>
      <trkpt lat="44.6867" lon="5.95551">
        <ele>1446.88</ele>
        <time>2018-08-26T12:56:05Z</time>
      </trkpt>
      <trkpt lat="44.68649" lon="5.95558">
        <ele>1445.12</ele>
        <time>2018-08-26T12:56:06Z</time>
      </trkpt>
      <trkpt lat="44.68629" lon="5.95565">
        <ele>1443.89</ele>
        <time>2018-08-26T12:56:07Z</time>
      </trkpt>
      <trkpt lat="44.68607" lon="5.95572">
        <ele>1442.12</ele>
        <time>2018-08-26T12:56:08Z</time>
      </trkpt>
      <trkpt lat="44.68587" lon="5.95579">
        <ele>1440.19</ele>
        <time>2018-08-26T12:56:09Z</time>
      </trkpt>
      <trkpt lat="44.68566" lon="5.95587">
        <ele>1438.21</ele>
        <time>2018-08-26T12:56:10Z</time>
      </trkpt>
      <trkpt lat="44.68546" lon="5.95594">
        <ele>1436.21</ele>
        <time>2018-08-26T12:56:11Z</time>
      </trkpt>
      <trkpt lat="44.68528" lon="5.95601">
        <ele>1434.22</ele>
        <time>2018-08-26T12:56:12Z</time>
      </trkpt>
      <trkpt lat="44.68499" lon="5.95614">
        <ele>1430.92</ele>
        <time>2018-08-26T12:56:14Z</time>
      </trkpt>
      <trkpt lat="44.68476" lon="5.95612">
        <ele>1427.89</ele>
        <time>2018-08-26T12:56:16Z</time>
      </trkpt>
      <trkpt lat="44.68457" lon="5.9559">
        <ele>1424.89</ele>
        <time>2018-08-26T12:56:18Z</time>
      </trkpt>
      <trkpt lat="44.68438" lon="5.95577">
        <ele>1421.89</ele>
        <time>2018-08-26T12:56:20Z</time>
      </trkpt>
      <trkpt lat="44.68417" lon="5.95583">
        <ele>1419.27</ele>
        <time>2018-08-26T12:56:43Z</time>
      </trkpt>
      <trkpt lat="44.6839" lon="5.95592">
        <ele>1416.77</ele>
        <time>2018-08-26T12:56:46Z</time>
      </trkpt>
      <trkpt lat="44.68366" lon="5.95602">
        <ele>1415.49</ele>
        <time>2018-08-26T12:56:48Z</time>
      </trkpt>
      <trkpt lat="44.68342" lon="5.95627">
        <ele>1413.76</ele>
        <time>2018-08-26T12:56:50Z</time>
      </trkpt>
      <trkpt lat="44.68318" lon="5.95661">
        <ele>1411.79</ele>
        <time>2018-08-26T12:56:52Z</time>
      </trkpt>
      <trkpt lat="44.68295" lon="5.95688">
        <ele>1409.79</ele>
        <time>2018-08-26T12:56:54Z</time>
      </trkpt>
      <trkpt lat="44.68276" lon="5.957">
        <ele>1407.79</ele>
        <time>2018-08-26T12:56:56Z</time>
      </trkpt>
      <trkpt lat="44.68246" lon="5.95692">
        <ele>1405.79</ele>
        <time>2018-08-26T12:56:58Z</time>
      </trkpt>
      <trkpt lat="44.68217" lon="5.95686">
        <ele>1402.88</ele>
        <time>2018-08-26T12:57:00Z</time>
      </trkpt>
      <trkpt lat="44.68186" lon="5.95692">
        <ele>1401.01</ele>
        <time>2018-08-26T12:57:02Z</time>
      </trkpt>
      <trkpt lat="44.68157" lon="5.95703">
        <ele>1398.81</ele>
        <time>2018-08-26T12:57:04Z</time>
      </trkpt>
      <trkpt lat="44.68136" lon="5.95705">
        <ele>1396.79</ele>
        <time>2018-08-26T12:57:06Z</time>
      </trkpt>
      <trkpt lat="44.68129" lon="5.95679">
        <ele>1393.85</ele>
        <time>2018-08-26T12:57:09Z</time>
      </trkpt>
      <trkpt lat="44.6816" lon="5.95659">
        <ele>1391.76</ele>
        <time>2018-08-26T12:57:12Z</time>
      </trkpt>
      <trkpt lat="44.6819" lon="5.95635">
        <ele>1390</ele>
        <time>2018-08-26T12:57:14Z</time>
      </trkpt>
      <trkpt lat="44.68205" lon="5.95619">
        <ele>1388.85</ele>
        <time>2018-08-26T12:57:15Z</time>
      </trkpt>
      <trkpt lat="44.6822" lon="5.95603">
        <ele>1387.11</ele>
        <time>2018-08-26T12:57:16Z</time>
      </trkpt>
      <trkpt lat="44.68235" lon="5.95589">
        <ele>1385.88</ele>
        <time>2018-08-26T12:57:17Z</time>
      </trkpt>
      <trkpt lat="44.68265" lon="5.95565">
        <ele>1382.89</ele>
        <time>2018-08-26T12:57:19Z</time>
      </trkpt>
      <trkpt lat="44.68293" lon="5.95545">
        <ele>1379.89</ele>
        <time>2018-08-26T12:57:21Z</time>
      </trkpt>
      <trkpt lat="44.68314" lon="5.95528">
        <ele>1377.8</ele>
        <time>2018-08-26T12:57:23Z</time>
      </trkpt>
      <trkpt lat="44.68317" lon="5.95498">
        <ele>1375.7</ele>
        <time>2018-08-26T12:57:26Z</time>
      </trkpt>
      <trkpt lat="44.68295" lon="5.95496">
        <ele>1377.04</ele>
        <time>2018-08-26T12:57:29Z</time>
      </trkpt>
      <trkpt lat="44.68274" lon="5.9551">
        <ele>1376.63</ele>
        <time>2018-08-26T12:57:31Z</time>
      </trkpt>
      <trkpt lat="44.68251" lon="5.95531">
        <ele>1377.29</ele>
        <time>2018-08-26T12:57:33Z</time>
      </trkpt>
      <trkpt lat="44.68225" lon="5.9555">
        <ele>1378.05</ele>
        <time>2018-08-26T12:57:35Z</time>
      </trkpt>
      <trkpt lat="44.68194" lon="5.95559">
        <ele>1377.63</ele>
        <time>2018-08-26T12:57:37Z</time>
      </trkpt>
      <trkpt lat="44.68163" lon="5.95562">
        <ele>1376.47</ele>
        <time>2018-08-26T12:57:39Z</time>
      </trkpt>
      <trkpt lat="44.68131" lon="5.95578">
        <ele>1374.97</ele>
        <time>2018-08-26T12:57:41Z</time>
      </trkpt>
      <trkpt lat="44.68114" lon="5.95587">
        <ele>1373.84</ele>
        <time>2018-08-26T12:57:42Z</time>
      </trkpt>
      <trkpt lat="44.68096" lon="5.95594">
        <ele>1373.5</ele>
        <time>2018-08-26T12:57:43Z</time>
      </trkpt>
      <trkpt lat="44.68061" lon="5.95592">
        <ele>1371.06</ele>
        <time>2018-08-26T12:57:45Z</time>
      </trkpt>
      <trkpt lat="44.68029" lon="5.95585">
        <ele>1369.51</ele>
        <time>2018-08-26T12:57:47Z</time>
      </trkpt>
      <trkpt lat="44.68011" lon="5.95589">
        <ele>1369.41</ele>
        <time>2018-08-26T12:57:48Z</time>
      </trkpt>
      <trkpt lat="44.67992" lon="5.95596">
        <ele>1369.37</ele>
        <time>2018-08-26T12:57:49Z</time>
      </trkpt>
      <trkpt lat="44.67973" lon="5.95604">
        <ele>1369.36</ele>
        <time>2018-08-26T12:57:50Z</time>
      </trkpt>
      <trkpt lat="44.67956" lon="5.95614">
        <ele>1368.66</ele>
        <time>2018-08-26T12:57:51Z</time>
      </trkpt>
      <trkpt lat="44.67925" lon="5.95632">
        <ele>1367.69</ele>
        <time>2018-08-26T12:57:53Z</time>
      </trkpt>
      <trkpt lat="44.67907" lon="5.95633">
        <ele>1366.76</ele>
        <time>2018-08-26T12:57:54Z</time>
      </trkpt>
      <trkpt lat="44.67887" lon="5.95629">
        <ele>1365.08</ele>
        <time>2018-08-26T12:57:55Z</time>
      </trkpt>
      <trkpt lat="44.67866" lon="5.95621">
        <ele>1363.88</ele>
        <time>2018-08-26T12:57:56Z</time>
      </trkpt>
      <trkpt lat="44.67844" lon="5.95615">
        <ele>1362.81</ele>
        <time>2018-08-26T12:57:57Z</time>
      </trkpt>
      <trkpt lat="44.67821" lon="5.95609">
        <ele>1361.8</ele>
        <time>2018-08-26T12:57:58Z</time>
      </trkpt>
      <trkpt lat="44.678" lon="5.95603">
        <ele>1360.79</ele>
        <time>2018-08-26T12:57:59Z</time>
      </trkpt>
      <trkpt lat="44.67778" lon="5.95599">
        <ele>1359.09</ele>
        <time>2018-08-26T12:58:00Z</time>
      </trkpt>
      <trkpt lat="44.67757" lon="5.95598">
        <ele>1357.88</ele>
        <time>2018-08-26T12:58:01Z</time>
      </trkpt>
      <trkpt lat="44.67736" lon="5.95602">
        <ele>1356.82</ele>
        <time>2018-08-26T12:58:02Z</time>
      </trkpt>
      <trkpt lat="44.67716" lon="5.95605">
        <ele>1355.8</ele>
        <time>2018-08-26T12:58:03Z</time>
      </trkpt>
      <trkpt lat="44.67684" lon="5.9561">
        <ele>1352.18</ele>
        <time>2018-08-26T12:58:05Z</time>
      </trkpt>
      <trkpt lat="44.6766" lon="5.95594">
        <ele>1349.82</ele>
        <time>2018-08-26T12:58:07Z</time>
      </trkpt>
      <trkpt lat="44.67635" lon="5.95558">
        <ele>1348.7</ele>
        <time>2018-08-26T12:58:09Z</time>
      </trkpt>
      <trkpt lat="44.67621" lon="5.95536">
        <ele>1347.06</ele>
        <time>2018-08-26T12:58:10Z</time>
      </trkpt>
      <trkpt lat="44.67607" lon="5.95516">
        <ele>1345.87</ele>
        <time>2018-08-26T12:58:11Z</time>
      </trkpt>
      <trkpt lat="44.67592" lon="5.95495">
        <ele>1344.81</ele>
        <time>2018-08-26T12:58:12Z</time>
      </trkpt>
      <trkpt lat="44.67578" lon="5.95476">
        <ele>1343.1</ele>
        <time>2018-08-26T12:58:13Z</time>
      </trkpt>
      <trkpt lat="44.67556" lon="5.95443">
        <ele>1340.82</ele>
        <time>2018-08-26T12:58:15Z</time>
      </trkpt>
      <trkpt lat="44.67547" lon="5.95415">
        <ele>1337.88</ele>
        <time>2018-08-26T12:58:17Z</time>
      </trkpt>
      <trkpt lat="44.67565" lon="5.9539">
        <ele>1336.46</ele>
        <time>2018-08-26T12:58:20Z</time>
      </trkpt>
      <trkpt lat="44.6759" lon="5.95386">
        <ele>1334.76</ele>
        <time>2018-08-26T12:58:22Z</time>
      </trkpt>
      <trkpt lat="44.6762" lon="5.95382">
        <ele>1332.79</ele>
        <time>2018-08-26T12:58:24Z</time>
      </trkpt>
      <trkpt lat="44.67648" lon="5.95373">
        <ele>1329.88</ele>
        <time>2018-08-26T12:58:26Z</time>
      </trkpt>
      <trkpt lat="44.67672" lon="5.95358">
        <ele>1328.71</ele>
        <time>2018-08-26T12:58:28Z</time>
      </trkpt>
      <trkpt lat="44.67694" lon="5.95343">
        <ele>1326.78</ele>
        <time>2018-08-26T12:58:30Z</time>
      </trkpt>
      <trkpt lat="44.67717" lon="5.95323">
        <ele>1324.79</ele>
        <time>2018-08-26T12:58:32Z</time>
      </trkpt>
      <trkpt lat="44.67738" lon="5.95301">
        <ele>1323.7</ele>
        <time>2018-08-26T12:58:34Z</time>
      </trkpt>
      <trkpt lat="44.67759" lon="5.95279">
        <ele>1321.78</ele>
        <time>2018-08-26T12:58:36Z</time>
      </trkpt>
      <trkpt lat="44.67779" lon="5.95258">
        <ele>1321.4</ele>
        <time>2018-08-26T12:58:38Z</time>
      </trkpt>
      <trkpt lat="44.678" lon="5.95236">
        <ele>1321.36</ele>
        <time>2018-08-26T12:58:40Z</time>
      </trkpt>
      <trkpt lat="44.67822" lon="5.95214">
        <ele>1320.45</ele>
        <time>2018-08-26T12:58:42Z</time>
      </trkpt>
      <trkpt lat="44.67845" lon="5.9519">
        <ele>1317.64</ele>
        <time>2018-08-26T12:58:44Z</time>
      </trkpt>
      <trkpt lat="44.67872" lon="5.9517">
        <ele>1316.47</ele>
        <time>2018-08-26T12:58:46Z</time>
      </trkpt>
      <trkpt lat="44.67904" lon="5.95154">
        <ele>1313.15</ele>
        <time>2018-08-26T12:58:48Z</time>
      </trkpt>
      <trkpt lat="44.67936" lon="5.95135">
        <ele>1309.91</ele>
        <time>2018-08-26T12:58:50Z</time>
      </trkpt>
      <trkpt lat="44.67965" lon="5.95105">
        <ele>1307.8</ele>
        <time>2018-08-26T12:58:52Z</time>
      </trkpt>
      <trkpt lat="44.67979" lon="5.95088">
        <ele>1306.79</ele>
        <time>2018-08-26T12:58:53Z</time>
      </trkpt>
      <trkpt lat="44.67994" lon="5.95073">
        <ele>1306.49</ele>
        <time>2018-08-26T12:58:54Z</time>
      </trkpt>
      <trkpt lat="44.68011" lon="5.9506">
        <ele>1305.7</ele>
        <time>2018-08-26T12:58:55Z</time>
      </trkpt>
      <trkpt lat="44.68029" lon="5.95049">
        <ele>1304.76</ele>
        <time>2018-08-26T12:58:56Z</time>
      </trkpt>
      <trkpt lat="44.68047" lon="5.95039">
        <ele>1303.08</ele>
        <time>2018-08-26T12:58:57Z</time>
      </trkpt>
      <trkpt lat="44.68066" lon="5.9503">
        <ele>1301.88</ele>
        <time>2018-08-26T12:58:58Z</time>
      </trkpt>
      <trkpt lat="44.68084" lon="5.95019">
        <ele>1300.11</ele>
        <time>2018-08-26T12:58:59Z</time>
      </trkpt>
      <trkpt lat="44.68101" lon="5.95009">
        <ele>1298.89</ele>
        <time>2018-08-26T12:59:00Z</time>
      </trkpt>
      <trkpt lat="44.68119" lon="5.94998">
        <ele>1297.82</ele>
        <time>2018-08-26T12:59:01Z</time>
      </trkpt>
      <trkpt lat="44.68136" lon="5.94989">
        <ele>1297.5</ele>
        <time>2018-08-26T12:59:02Z</time>
      </trkpt>
      <trkpt lat="44.68153" lon="5.9498">
        <ele>1296.7</ele>
        <time>2018-08-26T12:59:03Z</time>
      </trkpt>
      <trkpt lat="44.68187" lon="5.94966">
        <ele>1295.69</ele>
        <time>2018-08-26T12:59:05Z</time>
      </trkpt>
      <trkpt lat="44.68218" lon="5.94952">
        <ele>1294.69</ele>
        <time>2018-08-26T12:59:07Z</time>
      </trkpt>
      <trkpt lat="44.68246" lon="5.94931">
        <ele>1292.78</ele>
        <time>2018-08-26T12:59:09Z</time>
      </trkpt>
      <trkpt lat="44.68275" lon="5.94913">
        <ele>1292.4</ele>
        <time>2018-08-26T12:59:11Z</time>
      </trkpt>
      <trkpt lat="44.68308" lon="5.94896">
        <ele>1291.45</ele>
        <time>2018-08-26T12:59:13Z</time>
      </trkpt>
      <trkpt lat="44.68326" lon="5.94888">
        <ele>1290.69</ele>
        <time>2018-08-26T12:59:14Z</time>
      </trkpt>
      <trkpt lat="44.68344" lon="5.94882">
        <ele>1290.46</ele>
        <time>2018-08-26T12:59:15Z</time>
      </trkpt>
      <trkpt lat="44.68362" lon="5.94878">
        <ele>1289.69</ele>
        <time>2018-08-26T12:59:16Z</time>
      </trkpt>
      <trkpt lat="44.68398" lon="5.9487">
        <ele>1287.78</ele>
        <time>2018-08-26T12:59:18Z</time>
      </trkpt>
      <trkpt lat="44.68431" lon="5.94854">
        <ele>1286.7</ele>
        <time>2018-08-26T12:59:20Z</time>
      </trkpt>
      <trkpt lat="44.68448" lon="5.94845">
        <ele>1286.46</ele>
        <time>2018-08-26T12:59:21Z</time>
      </trkpt>
      <trkpt lat="44.68465" lon="5.94835">
        <ele>1285.69</ele>
        <time>2018-08-26T12:59:22Z</time>
      </trkpt>
      <trkpt lat="44.68482" lon="5.94825">
        <ele>1284.76</ele>
        <time>2018-08-26T12:59:23Z</time>
      </trkpt>
      <trkpt lat="44.685" lon="5.94814">
        <ele>1284.48</ele>
        <time>2018-08-26T12:59:24Z</time>
      </trkpt>
      <trkpt lat="44.68516" lon="5.948">
        <ele>1284.4</ele>
        <time>2018-08-26T12:59:25Z</time>
      </trkpt>
      <trkpt lat="44.68545" lon="5.94773">
        <ele>1284.36</ele>
        <time>2018-08-26T12:59:27Z</time>
      </trkpt>
      <trkpt lat="44.68571" lon="5.9475">
        <ele>1284.57</ele>
        <time>2018-08-26T12:59:29Z</time>
      </trkpt>
      <trkpt lat="44.68596" lon="5.94727">
        <ele>1283.68</ele>
        <time>2018-08-26T12:59:31Z</time>
      </trkpt>
      <trkpt lat="44.68622" lon="5.94704">
        <ele>1282.69</ele>
        <time>2018-08-26T12:59:33Z</time>
      </trkpt>
      <trkpt lat="44.68648" lon="5.94681">
        <ele>1281.48</ele>
        <time>2018-08-26T12:59:35Z</time>
      </trkpt>
      <trkpt lat="44.68672" lon="5.9466">
        <ele>1279.76</ele>
        <time>2018-08-26T12:59:37Z</time>
      </trkpt>
      <trkpt lat="44.6869" lon="5.9464">
        <ele>1278.7</ele>
        <time>2018-08-26T12:59:39Z</time>
      </trkpt>
      <trkpt lat="44.68707" lon="5.94618">
        <ele>1276.7</ele>
        <time>2018-08-26T12:59:42Z</time>
      </trkpt>
      <trkpt lat="44.68731" lon="5.94603">
        <ele>1275.67</ele>
        <time>2018-08-26T12:59:45Z</time>
      </trkpt>
      <trkpt lat="44.6875" lon="5.94589">
        <ele>1274.69</ele>
        <time>2018-08-26T12:59:47Z</time>
      </trkpt>
      <trkpt lat="44.68771" lon="5.94573">
        <ele>1274.6</ele>
        <time>2018-08-26T12:59:49Z</time>
      </trkpt>
      <trkpt lat="44.68794" lon="5.94556">
        <ele>1273.68</ele>
        <time>2018-08-26T12:59:51Z</time>
      </trkpt>
      <trkpt lat="44.68819" lon="5.94538">
        <ele>1273.6</ele>
        <time>2018-08-26T12:59:53Z</time>
      </trkpt>
      <trkpt lat="44.68841" lon="5.94515">
        <ele>1274.29</ele>
        <time>2018-08-26T12:59:55Z</time>
      </trkpt>
      <trkpt lat="44.6886" lon="5.94485">
        <ele>1273.44</ele>
        <time>2018-08-26T12:59:57Z</time>
      </trkpt>
      <trkpt lat="44.68878" lon="5.94453">
        <ele>1273.37</ele>
        <time>2018-08-26T12:59:59Z</time>
      </trkpt>
      <trkpt lat="44.68896" lon="5.94423">
        <ele>1272.66</ele>
        <time>2018-08-26T13:00:01Z</time>
      </trkpt>
      <trkpt lat="44.68918" lon="5.944">
        <ele>1272.39</ele>
        <time>2018-08-26T13:00:03Z</time>
      </trkpt>
      <trkpt lat="44.68942" lon="5.94382">
        <ele>1270.54</ele>
        <time>2018-08-26T13:00:05Z</time>
      </trkpt>
      <trkpt lat="44.68966" lon="5.94359">
        <ele>1270.38</ele>
        <time>2018-08-26T13:00:07Z</time>
      </trkpt>
      <trkpt lat="44.68992" lon="5.94339">
        <ele>1270.36</ele>
        <time>2018-08-26T13:00:09Z</time>
      </trkpt>
      <trkpt lat="44.6902" lon="5.9432">
        <ele>1271.06</ele>
        <time>2018-08-26T13:00:11Z</time>
      </trkpt>
      <trkpt lat="44.69046" lon="5.94299">
        <ele>1272.03</ele>
        <time>2018-08-26T13:00:13Z</time>
      </trkpt>
      <trkpt lat="44.69072" lon="5.94278">
        <ele>1273.03</ele>
        <time>2018-08-26T13:00:15Z</time>
      </trkpt>
      <trkpt lat="44.69097" lon="5.94254">
        <ele>1274.03</ele>
        <time>2018-08-26T13:00:17Z</time>
      </trkpt>
      <trkpt lat="44.69123" lon="5.94234">
        <ele>1274.33</ele>
        <time>2018-08-26T13:00:19Z</time>
      </trkpt>
      <trkpt lat="44.69149" lon="5.94213">
        <ele>1274.36</ele>
        <time>2018-08-26T13:00:21Z</time>
      </trkpt>
      <trkpt lat="44.69174" lon="5.94193">
        <ele>1275.97</ele>
        <time>2018-08-26T13:00:23Z</time>
      </trkpt>
      <trkpt lat="44.69199" lon="5.94175">
        <ele>1277.72</ele>
        <time>2018-08-26T13:00:25Z</time>
      </trkpt>
      <trkpt lat="44.69224" lon="5.94161">
        <ele>1277.6</ele>
        <time>2018-08-26T13:00:27Z</time>
      </trkpt>
      <trkpt lat="44.69248" lon="5.94149">
        <ele>1277.38</ele>
        <time>2018-08-26T13:00:29Z</time>
      </trkpt>
      <trkpt lat="44.69274" lon="5.94137">
        <ele>1276.66</ele>
        <time>2018-08-26T13:00:31Z</time>
      </trkpt>
      <trkpt lat="44.693" lon="5.94129">
        <ele>1277.3</ele>
        <time>2018-08-26T13:00:33Z</time>
      </trkpt>
      <trkpt lat="44.69327" lon="5.94129">
        <ele>1278.26</ele>
        <time>2018-08-26T13:00:35Z</time>
      </trkpt>
      <trkpt lat="44.69351" lon="5.94119">
        <ele>1279.96</ele>
        <time>2018-08-26T13:00:37Z</time>
      </trkpt>
      <trkpt lat="44.69374" lon="5.94107">
        <ele>1280.32</ele>
        <time>2018-08-26T13:00:39Z</time>
      </trkpt>
      <trkpt lat="44.69394" lon="5.94093">
        <ele>1280.36</ele>
        <time>2018-08-26T13:00:41Z</time>
      </trkpt>
      <trkpt lat="44.69408" lon="5.9407">
        <ele>1278.75</ele>
        <time>2018-08-26T13:00:43Z</time>
      </trkpt>
      <trkpt lat="44.69424" lon="5.94044">
        <ele>1277.49</ele>
        <time>2018-08-26T13:00:45Z</time>
      </trkpt>
      <trkpt lat="44.6944" lon="5.94018">
        <ele>1277.37</ele>
        <time>2018-08-26T13:00:47Z</time>
      </trkpt>
      <trkpt lat="44.69454" lon="5.93988">
        <ele>1276.45</ele>
        <time>2018-08-26T13:00:49Z</time>
      </trkpt>
      <trkpt lat="44.69469" lon="5.93957">
        <ele>1276.37</ele>
        <time>2018-08-26T13:00:51Z</time>
      </trkpt>
      <trkpt lat="44.6948" lon="5.93921">
        <ele>1275.66</ele>
        <time>2018-08-26T13:00:53Z</time>
      </trkpt>
      <trkpt lat="44.69488" lon="5.93881">
        <ele>1274.69</ele>
        <time>2018-08-26T13:00:55Z</time>
      </trkpt>
      <trkpt lat="44.69497" lon="5.93842">
        <ele>1274.39</ele>
        <time>2018-08-26T13:00:57Z</time>
      </trkpt>
      <trkpt lat="44.69504" lon="5.938">
        <ele>1273.45</ele>
        <time>2018-08-26T13:00:59Z</time>
      </trkpt>
      <trkpt lat="44.69513" lon="5.93756">
        <ele>1272.46</ele>
        <time>2018-08-26T13:01:01Z</time>
      </trkpt>
      <trkpt lat="44.69528" lon="5.93715">
        <ele>1272.37</ele>
        <time>2018-08-26T13:01:03Z</time>
      </trkpt>
      <trkpt lat="44.69549" lon="5.9368">
        <ele>1273.27</ele>
        <time>2018-08-26T13:01:05Z</time>
      </trkpt>
      <trkpt lat="44.6957" lon="5.93646">
        <ele>1272.65</ele>
        <time>2018-08-26T13:01:07Z</time>
      </trkpt>
      <trkpt lat="44.6959" lon="5.93613">
        <ele>1272.39</ele>
        <time>2018-08-26T13:01:09Z</time>
      </trkpt>
      <trkpt lat="44.69607" lon="5.93579">
        <ele>1271.66</ele>
        <time>2018-08-26T13:01:11Z</time>
      </trkpt>
      <trkpt lat="44.69622" lon="5.93548">
        <ele>1270.69</ele>
        <time>2018-08-26T13:01:13Z</time>
      </trkpt>
      <trkpt lat="44.69628" lon="5.93518">
        <ele>1271.3</ele>
        <time>2018-08-26T13:01:15Z</time>
      </trkpt>
      <trkpt lat="44.69626" lon="5.93489">
        <ele>1271.14</ele>
        <time>2018-08-26T13:01:17Z</time>
      </trkpt>
      <trkpt lat="44.69631" lon="5.93455">
        <ele>1271.34</ele>
        <time>2018-08-26T13:01:19Z</time>
      </trkpt>
      <trkpt lat="44.69643" lon="5.9342">
        <ele>1272.27</ele>
        <time>2018-08-26T13:01:21Z</time>
      </trkpt>
      <trkpt lat="44.69657" lon="5.93381">
        <ele>1273.96</ele>
        <time>2018-08-26T13:01:23Z</time>
      </trkpt>
      <trkpt lat="44.69673" lon="5.93347">
        <ele>1275.02</ele>
        <time>2018-08-26T13:01:25Z</time>
      </trkpt>
      <trkpt lat="44.69692" lon="5.93319">
        <ele>1275.54</ele>
        <time>2018-08-26T13:01:27Z</time>
      </trkpt>
      <trkpt lat="44.69715" lon="5.93302">
        <ele>1275.38</ele>
        <time>2018-08-26T13:01:29Z</time>
      </trkpt>
      <trkpt lat="44.69742" lon="5.93288">
        <ele>1273.75</ele>
        <time>2018-08-26T13:01:31Z</time>
      </trkpt>
      <trkpt lat="44.69771" lon="5.93275">
        <ele>1272.49</ele>
        <time>2018-08-26T13:01:33Z</time>
      </trkpt>
      <trkpt lat="44.69804" lon="5.93266">
        <ele>1269.85</ele>
        <time>2018-08-26T13:01:35Z</time>
      </trkpt>
      <trkpt lat="44.69834" lon="5.93249">
        <ele>1268.7</ele>
        <time>2018-08-26T13:01:37Z</time>
      </trkpt>
      <trkpt lat="44.69859" lon="5.93218">
        <ele>1266.78</ele>
        <time>2018-08-26T13:01:39Z</time>
      </trkpt>
      <trkpt lat="44.69878" lon="5.93178">
        <ele>1265.7</ele>
        <time>2018-08-26T13:01:41Z</time>
      </trkpt>
      <trkpt lat="44.69896" lon="5.93137">
        <ele>1263.08</ele>
        <time>2018-08-26T13:01:43Z</time>
      </trkpt>
      <trkpt lat="44.69904" lon="5.93099">
        <ele>1260.81</ele>
        <time>2018-08-26T13:01:45Z</time>
      </trkpt>
      <trkpt lat="44.69919" lon="5.93078">
        <ele>1257.88</ele>
        <time>2018-08-26T13:01:47Z</time>
      </trkpt>
      <trkpt lat="44.69942" lon="5.93068">
        <ele>1256.5</ele>
        <time>2018-08-26T13:01:49Z</time>
      </trkpt>
      <trkpt lat="44.69975" lon="5.93078">
        <ele>1254.06</ele>
        <time>2018-08-26T13:01:51Z</time>
      </trkpt>
      <trkpt lat="44.70004" lon="5.93089">
        <ele>1249.99</ele>
        <time>2018-08-26T13:01:53Z</time>
      </trkpt>
      <trkpt lat="44.70029" lon="5.93091">
        <ele>1247.81</ele>
        <time>2018-08-26T13:01:55Z</time>
      </trkpt>
      <trkpt lat="44.7005" lon="5.93083">
        <ele>1248.1</ele>
        <time>2018-08-26T13:01:57Z</time>
      </trkpt>
      <trkpt lat="44.70059" lon="5.93059">
        <ele>1248.13</ele>
        <time>2018-08-26T13:01:59Z</time>
      </trkpt>
      <trkpt lat="44.70049" lon="5.9303">
        <ele>1246.89</ele>
        <time>2018-08-26T13:02:00Z</time>
      </trkpt>
      <trkpt lat="44.70041" lon="5.92987">
        <ele>1246.2</ele>
        <time>2018-08-26T13:02:02Z</time>
      </trkpt>
      <trkpt lat="44.70041" lon="5.92959">
        <ele>1246.56</ele>
        <time>2018-08-26T13:02:04Z</time>
      </trkpt>
      <trkpt lat="44.7006" lon="5.92942">
        <ele>1246.37</ele>
        <time>2018-08-26T13:02:07Z</time>
      </trkpt>
      <trkpt lat="44.70082" lon="5.92934">
        <ele>1243.84</ele>
        <time>2018-08-26T13:02:09Z</time>
      </trkpt>
      <trkpt lat="44.70103" lon="5.92917">
        <ele>1240.88</ele>
        <time>2018-08-26T13:02:11Z</time>
      </trkpt>
      <trkpt lat="44.70114" lon="5.92886">
        <ele>1240.41</ele>
        <time>2018-08-26T13:02:13Z</time>
      </trkpt>
      <trkpt lat="44.70119" lon="5.9285">
        <ele>1240.36</ele>
        <time>2018-08-26T13:02:15Z</time>
      </trkpt>
      <trkpt lat="44.70113" lon="5.92811">
        <ele>1239.45</ele>
        <time>2018-08-26T13:02:17Z</time>
      </trkpt>
      <trkpt lat="44.70106" lon="5.92771">
        <ele>1239.37</ele>
        <time>2018-08-26T13:02:19Z</time>
      </trkpt>
      <trkpt lat="44.70109" lon="5.92731">
        <ele>1238.66</ele>
        <time>2018-08-26T13:02:21Z</time>
      </trkpt>
      <trkpt lat="44.70128" lon="5.92702">
        <ele>1238.39</ele>
        <time>2018-08-26T13:02:23Z</time>
      </trkpt>
      <trkpt lat="44.70157" lon="5.92685">
        <ele>1237.66</ele>
        <time>2018-08-26T13:02:25Z</time>
      </trkpt>
      <trkpt lat="44.70191" lon="5.92665">
        <ele>1236.69</ele>
        <time>2018-08-26T13:02:27Z</time>
      </trkpt>
      <trkpt lat="44.70206" lon="5.9265">
        <ele>1235.76</ele>
        <time>2018-08-26T13:02:28Z</time>
      </trkpt>
      <trkpt lat="44.70222" lon="5.92632">
        <ele>1235.48</ele>
        <time>2018-08-26T13:02:29Z</time>
      </trkpt>
      <trkpt lat="44.70236" lon="5.92613">
        <ele>1234.7</ele>
        <time>2018-08-26T13:02:30Z</time>
      </trkpt>
      <trkpt lat="44.70251" lon="5.92594">
        <ele>1234.46</ele>
        <time>2018-08-26T13:02:31Z</time>
      </trkpt>
      <trkpt lat="44.70268" lon="5.92578">
        <ele>1234.39</ele>
        <time>2018-08-26T13:02:32Z</time>
      </trkpt>
      <trkpt lat="44.70288" lon="5.92565">
        <ele>1234.37</ele>
        <time>2018-08-26T13:02:33Z</time>
      </trkpt>
      <trkpt lat="44.70309" lon="5.92555">
        <ele>1235.06</ele>
        <time>2018-08-26T13:02:34Z</time>
      </trkpt>
      <trkpt lat="44.70329" lon="5.92545">
        <ele>1235.97</ele>
        <time>2018-08-26T13:02:35Z</time>
      </trkpt>
      <trkpt lat="44.70349" lon="5.92532">
        <ele>1236.24</ele>
        <time>2018-08-26T13:02:36Z</time>
      </trkpt>
      <trkpt lat="44.70368" lon="5.92521">
        <ele>1236.32</ele>
        <time>2018-08-26T13:02:37Z</time>
      </trkpt>
      <trkpt lat="44.70386" lon="5.92509">
        <ele>1236.35</ele>
        <time>2018-08-26T13:02:38Z</time>
      </trkpt>
      <trkpt lat="44.70403" lon="5.92497">
        <ele>1235.66</ele>
        <time>2018-08-26T13:02:39Z</time>
      </trkpt>
      <trkpt lat="44.7042" lon="5.92486">
        <ele>1236.15</ele>
        <time>2018-08-26T13:02:40Z</time>
      </trkpt>
      <trkpt lat="44.70451" lon="5.92467">
        <ele>1236.55</ele>
        <time>2018-08-26T13:02:42Z</time>
      </trkpt>
      <trkpt lat="44.70476" lon="5.92446">
        <ele>1236.59</ele>
        <time>2018-08-26T13:02:44Z</time>
      </trkpt>
      <trkpt lat="44.70496" lon="5.92417">
        <ele>1237.29</ele>
        <time>2018-08-26T13:02:46Z</time>
      </trkpt>
      <trkpt lat="44.70517" lon="5.92386">
        <ele>1237.35</ele>
        <time>2018-08-26T13:02:48Z</time>
      </trkpt>
      <trkpt lat="44.70534" lon="5.9235">
        <ele>1237.15</ele>
        <time>2018-08-26T13:02:50Z</time>
      </trkpt>
      <trkpt lat="44.70544" lon="5.92311">
        <ele>1237.34</ele>
        <time>2018-08-26T13:02:52Z</time>
      </trkpt>
      <trkpt lat="44.70554" lon="5.92271">
        <ele>1238.06</ele>
        <time>2018-08-26T13:02:54Z</time>
      </trkpt>
      <trkpt lat="44.70568" lon="5.92237">
        <ele>1239.24</ele>
        <time>2018-08-26T13:02:56Z</time>
      </trkpt>
      <trkpt lat="44.70589" lon="5.92206">
        <ele>1239.35</ele>
        <time>2018-08-26T13:02:58Z</time>
      </trkpt>
      <trkpt lat="44.70616" lon="5.92177">
        <ele>1239.36</ele>
        <time>2018-08-26T13:03:00Z</time>
      </trkpt>
      <trkpt lat="44.70644" lon="5.92148">
        <ele>1237.75</ele>
        <time>2018-08-26T13:03:02Z</time>
      </trkpt>
      <trkpt lat="44.7067" lon="5.92121">
        <ele>1237.4</ele>
        <time>2018-08-26T13:03:04Z</time>
      </trkpt>
      <trkpt lat="44.70697" lon="5.92092">
        <ele>1237.36</ele>
        <time>2018-08-26T13:03:06Z</time>
      </trkpt>
      <trkpt lat="44.70722" lon="5.92053">
        <ele>1234.84</ele>
        <time>2018-08-26T13:03:08Z</time>
      </trkpt>
      <trkpt lat="44.70735" lon="5.92028">
        <ele>1233.8</ele>
        <time>2018-08-26T13:03:09Z</time>
      </trkpt>
      <trkpt lat="44.70747" lon="5.92003">
        <ele>1232.79</ele>
        <time>2018-08-26T13:03:10Z</time>
      </trkpt>
      <trkpt lat="44.70758" lon="5.91978">
        <ele>1231.79</ele>
        <time>2018-08-26T13:03:11Z</time>
      </trkpt>
      <trkpt lat="44.7077" lon="5.91953">
        <ele>1230.79</ele>
        <time>2018-08-26T13:03:12Z</time>
      </trkpt>
      <trkpt lat="44.70784" lon="5.91931">
        <ele>1229.79</ele>
        <time>2018-08-26T13:03:13Z</time>
      </trkpt>
      <trkpt lat="44.70799" lon="5.91909">
        <ele>1229.49</ele>
        <time>2018-08-26T13:03:14Z</time>
      </trkpt>
      <trkpt lat="44.70819" lon="5.91893">
        <ele>1228.7</ele>
        <time>2018-08-26T13:03:15Z</time>
      </trkpt>
      <trkpt lat="44.70839" lon="5.91877">
        <ele>1227.76</ele>
        <time>2018-08-26T13:03:16Z</time>
      </trkpt>
      <trkpt lat="44.70861" lon="5.91863">
        <ele>1226.08</ele>
        <time>2018-08-26T13:03:17Z</time>
      </trkpt>
      <trkpt lat="44.70883" lon="5.9185">
        <ele>1225.58</ele>
        <time>2018-08-26T13:03:18Z</time>
      </trkpt>
      <trkpt lat="44.70906" lon="5.9184">
        <ele>1224.02</ele>
        <time>2018-08-26T13:03:19Z</time>
      </trkpt>
      <trkpt lat="44.70929" lon="5.9183">
        <ele>1222.16</ele>
        <time>2018-08-26T13:03:20Z</time>
      </trkpt>
      <trkpt lat="44.70952" lon="5.91822">
        <ele>1220.2</ele>
        <time>2018-08-26T13:03:21Z</time>
      </trkpt>
      <trkpt lat="44.70975" lon="5.91814">
        <ele>1218.21</ele>
        <time>2018-08-26T13:03:22Z</time>
      </trkpt>
      <trkpt lat="44.70997" lon="5.91807">
        <ele>1216.22</ele>
        <time>2018-08-26T13:03:23Z</time>
      </trkpt>
      <trkpt lat="44.7102" lon="5.91801">
        <ele>1214.92</ele>
        <time>2018-08-26T13:03:24Z</time>
      </trkpt>
      <trkpt lat="44.71044" lon="5.91795">
        <ele>1213.13</ele>
        <time>2018-08-26T13:03:25Z</time>
      </trkpt>
      <trkpt lat="44.71068" lon="5.91789">
        <ele>1211.19</ele>
        <time>2018-08-26T13:03:26Z</time>
      </trkpt>
      <trkpt lat="44.71092" lon="5.91783">
        <ele>1210.61</ele>
        <time>2018-08-26T13:03:27Z</time>
      </trkpt>
      <trkpt lat="44.71116" lon="5.91777">
        <ele>1209.03</ele>
        <time>2018-08-26T13:03:28Z</time>
      </trkpt>
      <trkpt lat="44.7114" lon="5.91771">
        <ele>1207.16</ele>
        <time>2018-08-26T13:03:29Z</time>
      </trkpt>
      <trkpt lat="44.71164" lon="5.91766">
        <ele>1205.2</ele>
        <time>2018-08-26T13:03:30Z</time>
      </trkpt>
      <trkpt lat="44.71189" lon="5.91759">
        <ele>1203.91</ele>
        <time>2018-08-26T13:03:31Z</time>
      </trkpt>
      <trkpt lat="44.71212" lon="5.91756">
        <ele>1202.83</ele>
        <time>2018-08-26T13:03:32Z</time>
      </trkpt>
      <trkpt lat="44.71236" lon="5.91756">
        <ele>1201.1</ele>
        <time>2018-08-26T13:03:33Z</time>
      </trkpt>
      <trkpt lat="44.71258" lon="5.91758">
        <ele>1199.18</ele>
        <time>2018-08-26T13:03:34Z</time>
      </trkpt>
      <trkpt lat="44.7128" lon="5.91761">
        <ele>1197.91</ele>
        <time>2018-08-26T13:03:35Z</time>
      </trkpt>
      <trkpt lat="44.71302" lon="5.91761">
        <ele>1196.82</ele>
        <time>2018-08-26T13:03:36Z</time>
      </trkpt>
      <trkpt lat="44.71324" lon="5.91759">
        <ele>1195.8</ele>
        <time>2018-08-26T13:03:37Z</time>
      </trkpt>
      <trkpt lat="44.71347" lon="5.91756">
        <ele>1194.79</ele>
        <time>2018-08-26T13:03:38Z</time>
      </trkpt>
      <trkpt lat="44.7137" lon="5.91753">
        <ele>1193.09</ele>
        <time>2018-08-26T13:03:39Z</time>
      </trkpt>
      <trkpt lat="44.71394" lon="5.91749">
        <ele>1191.88</ele>
        <time>2018-08-26T13:03:40Z</time>
      </trkpt>
      <trkpt lat="44.71418" lon="5.91745">
        <ele>1190.12</ele>
        <time>2018-08-26T13:03:41Z</time>
      </trkpt>
      <trkpt lat="44.71442" lon="5.91742">
        <ele>1188.19</ele>
        <time>2018-08-26T13:03:42Z</time>
      </trkpt>
      <trkpt lat="44.71467" lon="5.91738">
        <ele>1186.21</ele>
        <time>2018-08-26T13:03:43Z</time>
      </trkpt>
      <trkpt lat="44.71492" lon="5.91734">
        <ele>1184.21</ele>
        <time>2018-08-26T13:03:44Z</time>
      </trkpt>
      <trkpt lat="44.71516" lon="5.9173">
        <ele>1182.92</ele>
        <time>2018-08-26T13:03:45Z</time>
      </trkpt>
      <trkpt lat="44.7154" lon="5.91726">
        <ele>1182.53</ele>
        <time>2018-08-26T13:03:46Z</time>
      </trkpt>
      <trkpt lat="44.71563" lon="5.9172">
        <ele>1181.01</ele>
        <time>2018-08-26T13:03:47Z</time>
      </trkpt>
      <trkpt lat="44.71586" lon="5.91712">
        <ele>1179.85</ele>
        <time>2018-08-26T13:03:48Z</time>
      </trkpt>
      <trkpt lat="44.71607" lon="5.91703">
        <ele>1178.11</ele>
        <time>2018-08-26T13:03:49Z</time>
      </trkpt>
      <trkpt lat="44.71629" lon="5.91692">
        <ele>1176.88</ele>
        <time>2018-08-26T13:03:50Z</time>
      </trkpt>
      <trkpt lat="44.7165" lon="5.91681">
        <ele>1175.12</ele>
        <time>2018-08-26T13:03:51Z</time>
      </trkpt>
      <trkpt lat="44.7167" lon="5.91671">
        <ele>1174.59</ele>
        <time>2018-08-26T13:03:52Z</time>
      </trkpt>
      <trkpt lat="44.71689" lon="5.9166">
        <ele>1172.33</ele>
        <time>2018-08-26T13:03:53Z</time>
      </trkpt>
      <trkpt lat="44.71719" lon="5.91641">
        <ele>1169.14</ele>
        <time>2018-08-26T13:03:55Z</time>
      </trkpt>
      <trkpt lat="44.71736" lon="5.91618">
        <ele>1167.73</ele>
        <time>2018-08-26T13:03:57Z</time>
      </trkpt>
      <trkpt lat="44.71725" lon="5.91587">
        <ele>1166.69</ele>
        <time>2018-08-26T13:03:59Z</time>
      </trkpt>
      <trkpt lat="44.717" lon="5.91576">
        <ele>1165.69</ele>
        <time>2018-08-26T13:04:01Z</time>
      </trkpt>
      <trkpt lat="44.71669" lon="5.91572">
        <ele>1163.08</ele>
        <time>2018-08-26T13:04:03Z</time>
      </trkpt>
      <trkpt lat="44.71648" lon="5.91564">
        <ele>1160.81</ele>
        <time>2018-08-26T13:04:05Z</time>
      </trkpt>
      <trkpt lat="44.71644" lon="5.91538">
        <ele>1158.76</ele>
        <time>2018-08-26T13:04:08Z</time>
      </trkpt>
      <trkpt lat="44.71663" lon="5.91548">
        <ele>1155.79</ele>
        <time>2018-08-26T13:04:11Z</time>
      </trkpt>
      <trkpt lat="44.71686" lon="5.91559">
        <ele>1154</ele>
        <time>2018-08-26T13:04:13Z</time>
      </trkpt>
      <trkpt lat="44.71719" lon="5.91559">
        <ele>1151.81</ele>
        <time>2018-08-26T13:04:15Z</time>
      </trkpt>
      <trkpt lat="44.71737" lon="5.91554">
        <ele>1150.09</ele>
        <time>2018-08-26T13:04:16Z</time>
      </trkpt>
      <trkpt lat="44.71757" lon="5.91543">
        <ele>1148.88</ele>
        <time>2018-08-26T13:04:17Z</time>
      </trkpt>
      <trkpt lat="44.71776" lon="5.91528">
        <ele>1146.42</ele>
        <time>2018-08-26T13:04:18Z</time>
      </trkpt>
      <trkpt lat="44.71795" lon="5.91512">
        <ele>1144.28</ele>
        <time>2018-08-26T13:04:19Z</time>
      </trkpt>
      <trkpt lat="44.71814" lon="5.91496">
        <ele>1142.94</ele>
        <time>2018-08-26T13:04:20Z</time>
      </trkpt>
      <trkpt lat="44.71833" lon="5.91481">
        <ele>1141.83</ele>
        <time>2018-08-26T13:04:21Z</time>
      </trkpt>
      <trkpt lat="44.71851" lon="5.91463">
        <ele>1139.4</ele>
        <time>2018-08-26T13:04:22Z</time>
      </trkpt>
      <trkpt lat="44.71867" lon="5.91444">
        <ele>1137.27</ele>
        <time>2018-08-26T13:04:23Z</time>
      </trkpt>
      <trkpt lat="44.71883" lon="5.91425">
        <ele>1135.93</ele>
        <time>2018-08-26T13:04:24Z</time>
      </trkpt>
      <trkpt lat="44.71899" lon="5.91408">
        <ele>1134.83</ele>
        <time>2018-08-26T13:04:25Z</time>
      </trkpt>
      <trkpt lat="44.71916" lon="5.91392">
        <ele>1133.8</ele>
        <time>2018-08-26T13:04:26Z</time>
      </trkpt>
      <trkpt lat="44.71936" lon="5.91379">
        <ele>1133.49</ele>
        <time>2018-08-26T13:04:27Z</time>
      </trkpt>
      <trkpt lat="44.71958" lon="5.91371">
        <ele>1133.4</ele>
        <time>2018-08-26T13:04:28Z</time>
      </trkpt>
      <trkpt lat="44.71979" lon="5.91361">
        <ele>1132.67</ele>
        <time>2018-08-26T13:04:29Z</time>
      </trkpt>
      <trkpt lat="44.72" lon="5.91351">
        <ele>1132.45</ele>
        <time>2018-08-26T13:04:30Z</time>
      </trkpt>
      <trkpt lat="44.72022" lon="5.91341">
        <ele>1131.69</ele>
        <time>2018-08-26T13:04:31Z</time>
      </trkpt>
      <trkpt lat="44.72042" lon="5.91327">
        <ele>1131.46</ele>
        <time>2018-08-26T13:04:32Z</time>
      </trkpt>
      <trkpt lat="44.72062" lon="5.91313">
        <ele>1131.39</ele>
        <time>2018-08-26T13:04:33Z</time>
      </trkpt>
      <trkpt lat="44.72082" lon="5.91298">
        <ele>1129.97</ele>
        <time>2018-08-26T13:04:34Z</time>
      </trkpt>
      <trkpt lat="44.72101" lon="5.91283">
        <ele>1128.84</ele>
        <time>2018-08-26T13:04:35Z</time>
      </trkpt>
      <trkpt lat="44.72121" lon="5.9127">
        <ele>1127.1</ele>
        <time>2018-08-26T13:04:36Z</time>
      </trkpt>
      <trkpt lat="44.7214" lon="5.91256">
        <ele>1125.88</ele>
        <time>2018-08-26T13:04:37Z</time>
      </trkpt>
      <trkpt lat="44.7216" lon="5.91242">
        <ele>1124.82</ele>
        <time>2018-08-26T13:04:38Z</time>
      </trkpt>
      <trkpt lat="44.7218" lon="5.91228">
        <ele>1123.8</ele>
        <time>2018-08-26T13:04:39Z</time>
      </trkpt>
      <trkpt lat="44.72199" lon="5.91217">
        <ele>1122.79</ele>
        <time>2018-08-26T13:04:40Z</time>
      </trkpt>
      <trkpt lat="44.72218" lon="5.91206">
        <ele>1121.79</ele>
        <time>2018-08-26T13:04:41Z</time>
      </trkpt>
      <trkpt lat="44.72237" lon="5.91195">
        <ele>1120.79</ele>
        <time>2018-08-26T13:04:42Z</time>
      </trkpt>
      <trkpt lat="44.72257" lon="5.91182">
        <ele>1120.49</ele>
        <time>2018-08-26T13:04:43Z</time>
      </trkpt>
      <trkpt lat="44.72277" lon="5.9117">
        <ele>1119.7</ele>
        <time>2018-08-26T13:04:44Z</time>
      </trkpt>
      <trkpt lat="44.72297" lon="5.9116">
        <ele>1118.76</ele>
        <time>2018-08-26T13:04:45Z</time>
      </trkpt>
      <trkpt lat="44.72318" lon="5.91149">
        <ele>1118.48</ele>
        <time>2018-08-26T13:04:46Z</time>
      </trkpt>
      <trkpt lat="44.72341" lon="5.91146">
        <ele>1117</ele>
        <time>2018-08-26T13:04:47Z</time>
      </trkpt>
      <trkpt lat="44.7236" lon="5.91139">
        <ele>1115.85</ele>
        <time>2018-08-26T13:04:48Z</time>
      </trkpt>
      <trkpt lat="44.72379" lon="5.91129">
        <ele>1114.81</ele>
        <time>2018-08-26T13:04:49Z</time>
      </trkpt>
      <trkpt lat="44.72397" lon="5.91118">
        <ele>1113.79</ele>
        <time>2018-08-26T13:04:50Z</time>
      </trkpt>
      <trkpt lat="44.72417" lon="5.91103">
        <ele>1112.79</ele>
        <time>2018-08-26T13:04:51Z</time>
      </trkpt>
      <trkpt lat="44.72432" lon="5.91076">
        <ele>1111.79</ele>
        <time>2018-08-26T13:04:52Z</time>
      </trkpt>
      <trkpt lat="44.72448" lon="5.9105">
        <ele>1110.09</ele>
        <time>2018-08-26T13:04:53Z</time>
      </trkpt>
      <trkpt lat="44.72468" lon="5.9103">
        <ele>1108.88</ele>
        <time>2018-08-26T13:04:54Z</time>
      </trkpt>
      <trkpt lat="44.72489" lon="5.91011">
        <ele>1106.42</ele>
        <time>2018-08-26T13:04:55Z</time>
      </trkpt>
      <trkpt lat="44.72508" lon="5.90993">
        <ele>1104.98</ele>
        <time>2018-08-26T13:04:56Z</time>
      </trkpt>
      <trkpt lat="44.72525" lon="5.90974">
        <ele>1103.84</ele>
        <time>2018-08-26T13:04:57Z</time>
      </trkpt>
      <trkpt lat="44.7254" lon="5.9095">
        <ele>1101.41</ele>
        <time>2018-08-26T13:04:58Z</time>
      </trkpt>
      <trkpt lat="44.72554" lon="5.90924">
        <ele>1098.57</ele>
        <time>2018-08-26T13:04:59Z</time>
      </trkpt>
      <trkpt lat="44.72566" lon="5.90896">
        <ele>1097.72</ele>
        <time>2018-08-26T13:05:00Z</time>
      </trkpt>
      <trkpt lat="44.72577" lon="5.90868">
        <ele>1095.37</ele>
        <time>2018-08-26T13:05:01Z</time>
      </trkpt>
      <trkpt lat="44.72589" lon="5.90841">
        <ele>1093.26</ele>
        <time>2018-08-26T13:05:02Z</time>
      </trkpt>
      <trkpt lat="44.72604" lon="5.90819">
        <ele>1091.93</ele>
        <time>2018-08-26T13:05:03Z</time>
      </trkpt>
      <trkpt lat="44.72619" lon="5.90801">
        <ele>1090.83</ele>
        <time>2018-08-26T13:05:04Z</time>
      </trkpt>
      <trkpt lat="44.72634" lon="5.90782">
        <ele>1089.1</ele>
        <time>2018-08-26T13:05:05Z</time>
      </trkpt>
      <trkpt lat="44.72644" lon="5.9076">
        <ele>1087.88</ele>
        <time>2018-08-26T13:05:06Z</time>
      </trkpt>
      <trkpt lat="44.72654" lon="5.90737">
        <ele>1086.82</ele>
        <time>2018-08-26T13:05:07Z</time>
      </trkpt>
      <trkpt lat="44.72663" lon="5.90709">
        <ele>1086.5</ele>
        <time>2018-08-26T13:05:08Z</time>
      </trkpt>
      <trkpt lat="44.72671" lon="5.90681">
        <ele>1085.7</ele>
        <time>2018-08-26T13:05:09Z</time>
      </trkpt>
      <trkpt lat="44.72685" lon="5.9066">
        <ele>1084.76</ele>
        <time>2018-08-26T13:05:10Z</time>
      </trkpt>
      <trkpt lat="44.727" lon="5.9064">
        <ele>1083.08</ele>
        <time>2018-08-26T13:05:11Z</time>
      </trkpt>
      <trkpt lat="44.72714" lon="5.90622">
        <ele>1081.88</ele>
        <time>2018-08-26T13:05:12Z</time>
      </trkpt>
      <trkpt lat="44.72727" lon="5.90602">
        <ele>1079.41</ele>
        <time>2018-08-26T13:05:13Z</time>
      </trkpt>
      <trkpt lat="44.72738" lon="5.90578">
        <ele>1077.98</ele>
        <time>2018-08-26T13:05:14Z</time>
      </trkpt>
      <trkpt lat="44.72747" lon="5.90552">
        <ele>1076.84</ele>
        <time>2018-08-26T13:05:15Z</time>
      </trkpt>
      <trkpt lat="44.72757" lon="5.90527">
        <ele>1075.81</ele>
        <time>2018-08-26T13:05:16Z</time>
      </trkpt>
      <trkpt lat="44.72768" lon="5.90503">
        <ele>1074.79</ele>
        <time>2018-08-26T13:05:17Z</time>
      </trkpt>
      <trkpt lat="44.72781" lon="5.90482">
        <ele>1073.79</ele>
        <time>2018-08-26T13:05:18Z</time>
      </trkpt>
      <trkpt lat="44.72794" lon="5.90461">
        <ele>1072.09</ele>
        <time>2018-08-26T13:05:19Z</time>
      </trkpt>
      <trkpt lat="44.72807" lon="5.90441">
        <ele>1071.58</ele>
        <time>2018-08-26T13:05:20Z</time>
      </trkpt>
      <trkpt lat="44.72819" lon="5.90422">
        <ele>1070.73</ele>
        <time>2018-08-26T13:05:21Z</time>
      </trkpt>
      <trkpt lat="44.72832" lon="5.90403">
        <ele>1070.47</ele>
        <time>2018-08-26T13:05:22Z</time>
      </trkpt>
      <trkpt lat="44.72862" lon="5.90375">
        <ele>1069.46</ele>
        <time>2018-08-26T13:05:24Z</time>
      </trkpt>
      <trkpt lat="44.72881" lon="5.90367">
        <ele>1067.29</ele>
        <time>2018-08-26T13:05:25Z</time>
      </trkpt>
      <trkpt lat="44.72897" lon="5.90356">
        <ele>1065.94</ele>
        <time>2018-08-26T13:05:26Z</time>
      </trkpt>
      <trkpt lat="44.72913" lon="5.90341">
        <ele>1064.83</ele>
        <time>2018-08-26T13:05:27Z</time>
      </trkpt>
      <trkpt lat="44.72927" lon="5.90326">
        <ele>1063.8</ele>
        <time>2018-08-26T13:05:28Z</time>
      </trkpt>
      <trkpt lat="44.72943" lon="5.90308">
        <ele>1061.39</ele>
        <time>2018-08-26T13:05:29Z</time>
      </trkpt>
      <trkpt lat="44.72958" lon="5.9029">
        <ele>1059.97</ele>
        <time>2018-08-26T13:05:30Z</time>
      </trkpt>
      <trkpt lat="44.72973" lon="5.90273">
        <ele>1058.14</ele>
        <time>2018-08-26T13:05:31Z</time>
      </trkpt>
      <trkpt lat="44.7299" lon="5.9026">
        <ele>1056.89</ele>
        <time>2018-08-26T13:05:32Z</time>
      </trkpt>
      <trkpt lat="44.73018" lon="5.90232">
        <ele>1054.8</ele>
        <time>2018-08-26T13:05:34Z</time>
      </trkpt>
      <trkpt lat="44.73039" lon="5.90193">
        <ele>1052.79</ele>
        <time>2018-08-26T13:05:36Z</time>
      </trkpt>
      <trkpt lat="44.73049" lon="5.90144">
        <ele>1050.79</ele>
        <time>2018-08-26T13:05:38Z</time>
      </trkpt>
      <trkpt lat="44.73044" lon="5.90093">
        <ele>1048.79</ele>
        <time>2018-08-26T13:05:40Z</time>
      </trkpt>
      <trkpt lat="44.73038" lon="5.90069">
        <ele>1048.49</ele>
        <time>2018-08-26T13:05:41Z</time>
      </trkpt>
      <trkpt lat="44.73031" lon="5.90024">
        <ele>1045.85</ele>
        <time>2018-08-26T13:05:43Z</time>
      </trkpt>
      <trkpt lat="44.73038" lon="5.89979">
        <ele>1043.79</ele>
        <time>2018-08-26T13:05:45Z</time>
      </trkpt>
      <trkpt lat="44.73043" lon="5.89953">
        <ele>1042.79</ele>
        <time>2018-08-26T13:05:46Z</time>
      </trkpt>
      <trkpt lat="44.73046" lon="5.89925">
        <ele>1041.79</ele>
        <time>2018-08-26T13:05:47Z</time>
      </trkpt>
      <trkpt lat="44.73049" lon="5.89897">
        <ele>1041.49</ele>
        <time>2018-08-26T13:05:48Z</time>
      </trkpt>
      <trkpt lat="44.73051" lon="5.8987">
        <ele>1041.4</ele>
        <time>2018-08-26T13:05:49Z</time>
      </trkpt>
      <trkpt lat="44.73052" lon="5.89843">
        <ele>1041.37</ele>
        <time>2018-08-26T13:05:50Z</time>
      </trkpt>
      <trkpt lat="44.73052" lon="5.89796">
        <ele>1042.06</ele>
        <time>2018-08-26T13:05:52Z</time>
      </trkpt>
      <trkpt lat="44.73055" lon="5.89753">
        <ele>1043.24</ele>
        <time>2018-08-26T13:05:54Z</time>
      </trkpt>
      <trkpt lat="44.73071" lon="5.89719">
        <ele>1044.96</ele>
        <time>2018-08-26T13:05:56Z</time>
      </trkpt>
      <trkpt lat="44.731" lon="5.89695">
        <ele>1046.72</ele>
        <time>2018-08-26T13:05:58Z</time>
      </trkpt>
      <trkpt lat="44.7313" lon="5.8967">
        <ele>1048.91</ele>
        <time>2018-08-26T13:06:00Z</time>
      </trkpt>
      <trkpt lat="44.73161" lon="5.89649">
        <ele>1049.32</ele>
        <time>2018-08-26T13:06:02Z</time>
      </trkpt>
      <trkpt lat="44.73191" lon="5.89641">
        <ele>1050.97</ele>
        <time>2018-08-26T13:06:04Z</time>
      </trkpt>
      <trkpt lat="44.7322" lon="5.89625">
        <ele>1049.71</ele>
        <time>2018-08-26T13:06:06Z</time>
      </trkpt>
      <trkpt lat="44.73246" lon="5.89605">
        <ele>1048.69</ele>
        <time>2018-08-26T13:06:08Z</time>
      </trkpt>
      <trkpt lat="44.73268" lon="5.8958">
        <ele>1047.69</ele>
        <time>2018-08-26T13:06:10Z</time>
      </trkpt>
      <trkpt lat="44.73287" lon="5.89558">
        <ele>1046.69</ele>
        <time>2018-08-26T13:06:12Z</time>
      </trkpt>
      <trkpt lat="44.73306" lon="5.89543">
        <ele>1045.69</ele>
        <time>2018-08-26T13:06:14Z</time>
      </trkpt>
      <trkpt lat="44.7333" lon="5.89547">
        <ele>1045.39</ele>
        <time>2018-08-26T13:06:16Z</time>
      </trkpt>
      <trkpt lat="44.73352" lon="5.89558">
        <ele>1043.05</ele>
        <time>2018-08-26T13:06:18Z</time>
      </trkpt>
      <trkpt lat="44.73375" lon="5.89573">
        <ele>1043.33</ele>
        <time>2018-08-26T13:06:20Z</time>
      </trkpt>
      <trkpt lat="44.73399" lon="5.89575">
        <ele>1041.75</ele>
        <time>2018-08-26T13:06:22Z</time>
      </trkpt>
      <trkpt lat="44.73419" lon="5.89565">
        <ele>1040.69</ele>
        <time>2018-08-26T13:06:24Z</time>
      </trkpt>
      <trkpt lat="44.73431" lon="5.89541">
        <ele>1039.69</ele>
        <time>2018-08-26T13:06:26Z</time>
      </trkpt>
      <trkpt lat="44.7344" lon="5.89509">
        <ele>1038.69</ele>
        <time>2018-08-26T13:06:28Z</time>
      </trkpt>
      <trkpt lat="44.73455" lon="5.89482">
        <ele>1037.69</ele>
        <time>2018-08-26T13:06:30Z</time>
      </trkpt>
      <trkpt lat="44.7348" lon="5.89468">
        <ele>1037.39</ele>
        <time>2018-08-26T13:06:32Z</time>
      </trkpt>
      <trkpt lat="44.73507" lon="5.89453">
        <ele>1037.36</ele>
        <time>2018-08-26T13:06:34Z</time>
      </trkpt>
      <trkpt lat="44.73533" lon="5.89445">
        <ele>1037.36</ele>
        <time>2018-08-26T13:06:36Z</time>
      </trkpt>
      <trkpt lat="44.73557" lon="5.89447">
        <ele>1035.75</ele>
        <time>2018-08-26T13:06:38Z</time>
      </trkpt>
      <trkpt lat="44.73578" lon="5.89462">
        <ele>1034.7</ele>
        <time>2018-08-26T13:06:40Z</time>
      </trkpt>
      <trkpt lat="44.73599" lon="5.8948">
        <ele>1032.08</ele>
        <time>2018-08-26T13:06:42Z</time>
      </trkpt>
      <trkpt lat="44.73622" lon="5.89484">
        <ele>1032.33</ele>
        <time>2018-08-26T13:06:44Z</time>
      </trkpt>
      <trkpt lat="44.7364" lon="5.89464">
        <ele>1030.75</ele>
        <time>2018-08-26T13:06:46Z</time>
      </trkpt>
      <trkpt lat="44.73642" lon="5.8943">
        <ele>1028.78</ele>
        <time>2018-08-26T13:06:48Z</time>
      </trkpt>
      <trkpt lat="44.73643" lon="5.89388">
        <ele>1026.79</ele>
        <time>2018-08-26T13:06:50Z</time>
      </trkpt>
      <trkpt lat="44.73657" lon="5.89349">
        <ele>1026.4</ele>
        <time>2018-08-26T13:06:52Z</time>
      </trkpt>
      <trkpt lat="44.73667" lon="5.89328">
        <ele>1025.67</ele>
        <time>2018-08-26T13:06:53Z</time>
      </trkpt>
      <trkpt lat="44.73678" lon="5.89304">
        <ele>1025.45</ele>
        <time>2018-08-26T13:06:54Z</time>
      </trkpt>
      <trkpt lat="44.73691" lon="5.89279">
        <ele>1024.69</ele>
        <time>2018-08-26T13:06:55Z</time>
      </trkpt>
      <trkpt lat="44.73703" lon="5.89252">
        <ele>1023.76</ele>
        <time>2018-08-26T13:06:56Z</time>
      </trkpt>
      <trkpt lat="44.73716" lon="5.89226">
        <ele>1022.78</ele>
        <time>2018-08-26T13:06:57Z</time>
      </trkpt>
      <trkpt lat="44.73728" lon="5.89201">
        <ele>1021.79</ele>
        <time>2018-08-26T13:06:58Z</time>
      </trkpt>
      <trkpt lat="44.7374" lon="5.89178">
        <ele>1020.79</ele>
        <time>2018-08-26T13:06:59Z</time>
      </trkpt>
      <trkpt lat="44.73753" lon="5.89158">
        <ele>1019.79</ele>
        <time>2018-08-26T13:07:00Z</time>
      </trkpt>
      <trkpt lat="44.73784" lon="5.89136">
        <ele>1017.79</ele>
        <time>2018-08-26T13:07:02Z</time>
      </trkpt>
      <trkpt lat="44.7382" lon="5.89137">
        <ele>1016.49</ele>
        <time>2018-08-26T13:07:04Z</time>
      </trkpt>
      <trkpt lat="44.73838" lon="5.89145">
        <ele>1015.7</ele>
        <time>2018-08-26T13:07:05Z</time>
      </trkpt>
      <trkpt lat="44.73855" lon="5.8916">
        <ele>1015.46</ele>
        <time>2018-08-26T13:07:06Z</time>
      </trkpt>
      <trkpt lat="44.73877" lon="5.89195">
        <ele>1013.06</ele>
        <time>2018-08-26T13:07:08Z</time>
      </trkpt>
      <trkpt lat="44.73912" lon="5.89206">
        <ele>1010.81</ele>
        <time>2018-08-26T13:07:10Z</time>
      </trkpt>
      <trkpt lat="44.73933" lon="5.89204">
        <ele>1009.8</ele>
        <time>2018-08-26T13:07:11Z</time>
      </trkpt>
      <trkpt lat="44.73954" lon="5.892">
        <ele>1008.09</ele>
        <time>2018-08-26T13:07:12Z</time>
      </trkpt>
      <trkpt lat="44.73974" lon="5.89193">
        <ele>1006.88</ele>
        <time>2018-08-26T13:07:13Z</time>
      </trkpt>
      <trkpt lat="44.73993" lon="5.89186">
        <ele>1006.52</ele>
        <time>2018-08-26T13:07:14Z</time>
      </trkpt>
      <trkpt lat="44.74027" lon="5.89175">
        <ele>1004.76</ele>
        <time>2018-08-26T13:07:16Z</time>
      </trkpt>
      <trkpt lat="44.74059" lon="5.89168">
        <ele>1003.7</ele>
        <time>2018-08-26T13:07:18Z</time>
      </trkpt>
      <trkpt lat="44.74078" lon="5.89163">
        <ele>1002.76</ele>
        <time>2018-08-26T13:07:19Z</time>
      </trkpt>
      <trkpt lat="44.74097" lon="5.89157">
        <ele>1001.78</ele>
        <time>2018-08-26T13:07:20Z</time>
      </trkpt>
      <trkpt lat="44.74118" lon="5.89152">
        <ele>1000.79</ele>
        <time>2018-08-26T13:07:21Z</time>
      </trkpt>
      <trkpt lat="44.74139" lon="5.89146">
        <ele>999.09</ele>
        <time>2018-08-26T13:07:22Z</time>
      </trkpt>
      <trkpt lat="44.74159" lon="5.89138">
        <ele>997.88</ele>
        <time>2018-08-26T13:07:23Z</time>
      </trkpt>
      <trkpt lat="44.74178" lon="5.89126">
        <ele>996.82</ele>
        <time>2018-08-26T13:07:24Z</time>
      </trkpt>
      <trkpt lat="44.74196" lon="5.89112">
        <ele>995.8</ele>
        <time>2018-08-26T13:07:25Z</time>
      </trkpt>
      <trkpt lat="44.74213" lon="5.89098">
        <ele>994.79</ele>
        <time>2018-08-26T13:07:26Z</time>
      </trkpt>
      <trkpt lat="44.7424" lon="5.89072">
        <ele>991.39</ele>
        <time>2018-08-26T13:07:28Z</time>
      </trkpt>
      <trkpt lat="44.74261" lon="5.89058">
        <ele>989.75</ele>
        <time>2018-08-26T13:07:30Z</time>
      </trkpt>
      <trkpt lat="44.74279" lon="5.89068">
        <ele>987.79</ele>
        <time>2018-08-26T13:07:32Z</time>
      </trkpt>
      <trkpt lat="44.74294" lon="5.89083">
        <ele>987.4</ele>
        <time>2018-08-26T13:07:34Z</time>
      </trkpt>
      <trkpt lat="44.7432" lon="5.89074">
        <ele>985.54</ele>
        <time>2018-08-26T13:07:36Z</time>
      </trkpt>
      <trkpt lat="44.7435" lon="5.89057">
        <ele>983.98</ele>
        <time>2018-08-26T13:07:38Z</time>
      </trkpt>
      <trkpt lat="44.74367" lon="5.89049">
        <ele>983.54</ele>
        <time>2018-08-26T13:07:39Z</time>
      </trkpt>
      <trkpt lat="44.74397" lon="5.89021">
        <ele>980.86</ele>
        <time>2018-08-26T13:07:41Z</time>
      </trkpt>
      <trkpt lat="44.74408" lon="5.88999">
        <ele>979.81</ele>
        <time>2018-08-26T13:07:42Z</time>
      </trkpt>
      <trkpt lat="44.74417" lon="5.88976">
        <ele>978.09</ele>
        <time>2018-08-26T13:07:43Z</time>
      </trkpt>
      <trkpt lat="44.7443" lon="5.8893">
        <ele>975.12</ele>
        <time>2018-08-26T13:07:45Z</time>
      </trkpt>
      <trkpt lat="44.74436" lon="5.88905">
        <ele>974.59</ele>
        <time>2018-08-26T13:07:46Z</time>
      </trkpt>
      <trkpt lat="44.74447" lon="5.88859">
        <ele>972.77</ele>
        <time>2018-08-26T13:07:48Z</time>
      </trkpt>
      <trkpt lat="44.74466" lon="5.88824">
        <ele>969.18</ele>
        <time>2018-08-26T13:07:50Z</time>
      </trkpt>
      <trkpt lat="44.74493" lon="5.88802">
        <ele>967.73</ele>
        <time>2018-08-26T13:07:52Z</time>
      </trkpt>
      <trkpt lat="44.74523" lon="5.88793">
        <ele>966.69</ele>
        <time>2018-08-26T13:07:54Z</time>
      </trkpt>
      <trkpt lat="44.74542" lon="5.88795">
        <ele>967.16</ele>
        <time>2018-08-26T13:07:55Z</time>
      </trkpt>
      <trkpt lat="44.74577" lon="5.88786">
        <ele>967.34</ele>
        <time>2018-08-26T13:07:57Z</time>
      </trkpt>
      <trkpt lat="44.74595" lon="5.88773">
        <ele>965.95</ele>
        <time>2018-08-26T13:07:58Z</time>
      </trkpt>
      <trkpt lat="44.746" lon="5.88741">
        <ele>963.44</ele>
        <time>2018-08-26T13:07:59Z</time>
      </trkpt>
      <trkpt lat="44.74623" lon="5.88711">
        <ele>960.15</ele>
        <time>2018-08-26T13:08:01Z</time>
      </trkpt>
      <trkpt lat="44.74644" lon="5.88685">
        <ele>957.12</ele>
        <time>2018-08-26T13:08:03Z</time>
      </trkpt>
      <trkpt lat="44.74661" lon="5.88679">
        <ele>956.59</ele>
        <time>2018-08-26T13:08:04Z</time>
      </trkpt>
      <trkpt lat="44.74686" lon="5.88659">
        <ele>953.86</ele>
        <time>2018-08-26T13:08:06Z</time>
      </trkpt>
      <trkpt lat="44.74706" lon="5.88641">
        <ele>952.5</ele>
        <time>2018-08-26T13:08:08Z</time>
      </trkpt>
      <trkpt lat="44.74747" lon="5.88573">
        <ele>949.6</ele>
        <time>2018-08-26T13:08:14Z</time>
      </trkpt>
      <trkpt lat="44.74761" lon="5.88544">
        <ele>945.95</ele>
        <time>2018-08-26T13:08:16Z</time>
      </trkpt>
      <trkpt lat="44.74784" lon="5.88532">
        <ele>943.8</ele>
        <time>2018-08-26T13:08:18Z</time>
      </trkpt>
      <trkpt lat="44.74809" lon="5.88526">
        <ele>943.4</ele>
        <time>2018-08-26T13:08:20Z</time>
      </trkpt>
      <trkpt lat="44.74836" lon="5.88524">
        <ele>943.36</ele>
        <time>2018-08-26T13:08:22Z</time>
      </trkpt>
      <trkpt lat="44.74868" lon="5.88514">
        <ele>941.75</ele>
        <time>2018-08-26T13:08:24Z</time>
      </trkpt>
      <trkpt lat="44.74911" lon="5.88508">
        <ele>940.91</ele>
        <time>2018-08-26T13:08:26Z</time>
      </trkpt>
      <trkpt lat="44.74933" lon="5.88504">
        <ele>939.82</ele>
        <time>2018-08-26T13:08:27Z</time>
      </trkpt>
      <trkpt lat="44.74962" lon="5.88494">
        <ele>935.48</ele>
        <time>2018-08-26T13:08:29Z</time>
      </trkpt>
      <trkpt lat="44.74986" lon="5.885">
        <ele>933.06</ele>
        <time>2018-08-26T13:08:31Z</time>
      </trkpt>
      <trkpt lat="44.75003" lon="5.88512">
        <ele>932.14</ele>
        <time>2018-08-26T13:08:32Z</time>
      </trkpt>
      <trkpt lat="44.75038" lon="5.88508">
        <ele>932.69</ele>
        <time>2018-08-26T13:08:34Z</time>
      </trkpt>
      <trkpt lat="44.75071" lon="5.88501">
        <ele>932.74</ele>
        <time>2018-08-26T13:08:36Z</time>
      </trkpt>
      <trkpt lat="44.75089" lon="5.88486">
        <ele>932.74</ele>
        <time>2018-08-26T13:08:38Z</time>
      </trkpt>
      <trkpt lat="44.75096" lon="5.88448">
        <ele>929.89</ele>
        <time>2018-08-26T13:08:41Z</time>
      </trkpt>
      <trkpt lat="44.751" lon="5.8841">
        <ele>927.23</ele>
        <time>2018-08-26T13:08:43Z</time>
      </trkpt>
      <trkpt lat="44.7511" lon="5.88376">
        <ele>926.79</ele>
        <time>2018-08-26T13:08:45Z</time>
      </trkpt>
      <trkpt lat="44.75125" lon="5.88349">
        <ele>925.14</ele>
        <time>2018-08-26T13:08:47Z</time>
      </trkpt>
      <trkpt lat="44.75153" lon="5.88345">
        <ele>923.84</ele>
        <time>2018-08-26T13:08:50Z</time>
      </trkpt>
      <trkpt lat="44.75178" lon="5.88354">
        <ele>923.75</ele>
        <time>2018-08-26T13:08:52Z</time>
      </trkpt>
      <trkpt lat="44.75207" lon="5.88365">
        <ele>923.04</ele>
        <time>2018-08-26T13:08:54Z</time>
      </trkpt>
      <trkpt lat="44.7524" lon="5.88371">
        <ele>922.07</ele>
        <time>2018-08-26T13:08:56Z</time>
      </trkpt>
      <trkpt lat="44.75271" lon="5.88379">
        <ele>921.77</ele>
        <time>2018-08-26T13:08:58Z</time>
      </trkpt>
      <trkpt lat="44.75299" lon="5.88382">
        <ele>922.44</ele>
        <time>2018-08-26T13:09:00Z</time>
      </trkpt>
      <trkpt lat="44.7533" lon="5.88376">
        <ele>922.71</ele>
        <time>2018-08-26T13:09:02Z</time>
      </trkpt>
      <trkpt lat="44.75364" lon="5.88376">
        <ele>925.05</ele>
        <time>2018-08-26T13:09:04Z</time>
      </trkpt>
      <trkpt lat="44.754" lon="5.8838">
        <ele>924.98</ele>
        <time>2018-08-26T13:09:06Z</time>
      </trkpt>
      <trkpt lat="44.75418" lon="5.88381">
        <ele>926.21</ele>
        <time>2018-08-26T13:09:07Z</time>
      </trkpt>
      <trkpt lat="44.75453" lon="5.88382">
        <ele>927.39</ele>
        <time>2018-08-26T13:09:09Z</time>
      </trkpt>
      <trkpt lat="44.75486" lon="5.88389">
        <ele>928.62</ele>
        <time>2018-08-26T13:09:11Z</time>
      </trkpt>
      <trkpt lat="44.75514" lon="5.88408">
        <ele>930.13</ele>
        <time>2018-08-26T13:09:13Z</time>
      </trkpt>
      <trkpt lat="44.75531" lon="5.88418">
        <ele>930.69</ele>
        <time>2018-08-26T13:09:15Z</time>
      </trkpt>
      <trkpt lat="44.75543" lon="5.88439">
        <ele>931.44</ele>
        <time>2018-08-26T13:09:17Z</time>
      </trkpt>
      <trkpt lat="44.75545" lon="5.88478">
        <ele>931.01</ele>
        <time>2018-08-26T13:09:19Z</time>
      </trkpt>
      <trkpt lat="44.75557" lon="5.8851">
        <ele>932.38</ele>
        <time>2018-08-26T13:09:21Z</time>
      </trkpt>
      <trkpt lat="44.75578" lon="5.88532">
        <ele>930.19</ele>
        <time>2018-08-26T13:09:23Z</time>
      </trkpt>
      <trkpt lat="44.75608" lon="5.88536">
        <ele>929.29</ele>
        <time>2018-08-26T13:09:25Z</time>
      </trkpt>
      <trkpt lat="44.75636" lon="5.88549">
        <ele>929.7</ele>
        <time>2018-08-26T13:09:27Z</time>
      </trkpt>
      <trkpt lat="44.75664" lon="5.88556">
        <ele>930.65</ele>
        <time>2018-08-26T13:09:29Z</time>
      </trkpt>
      <trkpt lat="44.75694" lon="5.88546">
        <ele>930.94</ele>
        <time>2018-08-26T13:09:31Z</time>
      </trkpt>
      <trkpt lat="44.75718" lon="5.88538">
        <ele>930.76</ele>
        <time>2018-08-26T13:09:33Z</time>
      </trkpt>
      <trkpt lat="44.75739" lon="5.88524">
        <ele>931.65</ele>
        <time>2018-08-26T13:09:35Z</time>
      </trkpt>
      <trkpt lat="44.75752" lon="5.88494">
        <ele>933.34</ele>
        <time>2018-08-26T13:09:37Z</time>
      </trkpt>
      <trkpt lat="44.75772" lon="5.88475">
        <ele>935.11</ele>
        <time>2018-08-26T13:09:39Z</time>
      </trkpt>
      <trkpt lat="44.758" lon="5.88457">
        <ele>934.77</ele>
        <time>2018-08-26T13:09:41Z</time>
      </trkpt>
      <trkpt lat="44.75816" lon="5.88443">
        <ele>934.75</ele>
        <time>2018-08-26T13:09:42Z</time>
      </trkpt>
      <trkpt lat="44.7585" lon="5.88447">
        <ele>936.14</ele>
        <time>2018-08-26T13:09:44Z</time>
      </trkpt>
      <trkpt lat="44.75885" lon="5.88456">
        <ele>938.09</ele>
        <time>2018-08-26T13:09:46Z</time>
      </trkpt>
      <trkpt lat="44.75905" lon="5.88463">
        <ele>939.24</ele>
        <time>2018-08-26T13:09:47Z</time>
      </trkpt>
      <trkpt lat="44.75928" lon="5.88479">
        <ele>940.99</ele>
        <time>2018-08-26T13:09:48Z</time>
      </trkpt>
      <trkpt lat="44.75947" lon="5.88489">
        <ele>942.22</ele>
        <time>2018-08-26T13:09:49Z</time>
      </trkpt>
      <trkpt lat="44.75964" lon="5.88498">
        <ele>943.28</ele>
        <time>2018-08-26T13:09:50Z</time>
      </trkpt>
      <trkpt lat="44.75993" lon="5.88508">
        <ele>945.52</ele>
        <time>2018-08-26T13:09:52Z</time>
      </trkpt>
      <trkpt lat="44.76021" lon="5.88514">
        <ele>948.24</ele>
        <time>2018-08-26T13:09:54Z</time>
      </trkpt>
      <trkpt lat="44.76046" lon="5.88526">
        <ele>949.4</ele>
        <time>2018-08-26T13:09:56Z</time>
      </trkpt>
      <trkpt lat="44.76071" lon="5.88529">
        <ele>949.71</ele>
        <time>2018-08-26T13:09:58Z</time>
      </trkpt>
      <trkpt lat="44.76095" lon="5.88536">
        <ele>951.56</ele>
        <time>2018-08-26T13:10:00Z</time>
      </trkpt>
      <trkpt lat="44.76108" lon="5.88567">
        <ele>951.72</ele>
        <time>2018-08-26T13:10:02Z</time>
      </trkpt>
      <trkpt lat="44.76114" lon="5.88606">
        <ele>953.35</ele>
        <time>2018-08-26T13:10:04Z</time>
      </trkpt>
      <trkpt lat="44.76132" lon="5.88637">
        <ele>954.41</ele>
        <time>2018-08-26T13:10:06Z</time>
      </trkpt>
      <trkpt lat="44.76151" lon="5.8867">
        <ele>955.41</ele>
        <time>2018-08-26T13:10:08Z</time>
      </trkpt>
      <trkpt lat="44.76176" lon="5.88697">
        <ele>957.11</ele>
        <time>2018-08-26T13:10:10Z</time>
      </trkpt>
      <trkpt lat="44.76199" lon="5.88712">
        <ele>956.56</ele>
        <time>2018-08-26T13:10:12Z</time>
      </trkpt>
      <trkpt lat="44.76212" lon="5.88736">
        <ele>958.34</ele>
        <time>2018-08-26T13:10:14Z</time>
      </trkpt>
      <trkpt lat="44.76219" lon="5.8877">
        <ele>958.7</ele>
        <time>2018-08-26T13:10:16Z</time>
      </trkpt>
      <trkpt lat="44.7623" lon="5.88808">
        <ele>957.83</ele>
        <time>2018-08-26T13:10:18Z</time>
      </trkpt>
      <trkpt lat="44.76236" lon="5.88846">
        <ele>958.24</ele>
        <time>2018-08-26T13:10:20Z</time>
      </trkpt>
      <trkpt lat="44.76244" lon="5.88879">
        <ele>961.22</ele>
        <time>2018-08-26T13:10:22Z</time>
      </trkpt>
      <trkpt lat="44.76259" lon="5.88901">
        <ele>962.6</ele>
        <time>2018-08-26T13:10:24Z</time>
      </trkpt>
      <trkpt lat="44.76282" lon="5.88913">
        <ele>963.43</ele>
        <time>2018-08-26T13:10:26Z</time>
      </trkpt>
      <trkpt lat="44.76314" lon="5.88935">
        <ele>963.5</ele>
        <time>2018-08-26T13:10:28Z</time>
      </trkpt>
      <trkpt lat="44.76344" lon="5.88956">
        <ele>964.42</ele>
        <time>2018-08-26T13:10:30Z</time>
      </trkpt>
      <trkpt lat="44.7637" lon="5.88983">
        <ele>965.2</ele>
        <time>2018-08-26T13:10:32Z</time>
      </trkpt>
      <trkpt lat="44.76386" lon="5.8902">
        <ele>965.69</ele>
        <time>2018-08-26T13:10:34Z</time>
      </trkpt>
      <trkpt lat="44.764" lon="5.89053">
        <ele>965.53</ele>
        <time>2018-08-26T13:10:36Z</time>
      </trkpt>
      <trkpt lat="44.76419" lon="5.8908">
        <ele>965.72</ele>
        <time>2018-08-26T13:10:38Z</time>
      </trkpt>
      <trkpt lat="44.76441" lon="5.89108">
        <ele>965.74</ele>
        <time>2018-08-26T13:10:40Z</time>
      </trkpt>
      <trkpt lat="44.76472" lon="5.8913">
        <ele>967.35</ele>
        <time>2018-08-26T13:10:42Z</time>
      </trkpt>
      <trkpt lat="44.76488" lon="5.89144">
        <ele>968.32</ele>
        <time>2018-08-26T13:10:43Z</time>
      </trkpt>
      <trkpt lat="44.76503" lon="5.89161">
        <ele>969.32</ele>
        <time>2018-08-26T13:10:44Z</time>
      </trkpt>
      <trkpt lat="44.76517" lon="5.89178">
        <ele>969.61</ele>
        <time>2018-08-26T13:10:45Z</time>
      </trkpt>
      <trkpt lat="44.76531" lon="5.89196">
        <ele>970.4</ele>
        <time>2018-08-26T13:10:46Z</time>
      </trkpt>
      <trkpt lat="44.76546" lon="5.89214">
        <ele>971.34</ele>
        <time>2018-08-26T13:10:47Z</time>
      </trkpt>
      <trkpt lat="44.76559" lon="5.89232">
        <ele>971.62</ele>
        <time>2018-08-26T13:10:48Z</time>
      </trkpt>
      <trkpt lat="44.76579" lon="5.89262">
        <ele>972.43</ele>
        <time>2018-08-26T13:10:50Z</time>
      </trkpt>
      <trkpt lat="44.766" lon="5.89282">
        <ele>972.92</ele>
        <time>2018-08-26T13:10:52Z</time>
      </trkpt>
      <trkpt lat="44.76627" lon="5.89299">
        <ele>973.67</ele>
        <time>2018-08-26T13:10:54Z</time>
      </trkpt>
      <trkpt lat="44.76658" lon="5.89321">
        <ele>974.43</ele>
        <time>2018-08-26T13:10:56Z</time>
      </trkpt>
      <trkpt lat="44.76685" lon="5.89347">
        <ele>975.62</ele>
        <time>2018-08-26T13:10:58Z</time>
      </trkpt>
      <trkpt lat="44.76708" lon="5.89378">
        <ele>974.82</ele>
        <time>2018-08-26T13:11:00Z</time>
      </trkpt>
      <trkpt lat="44.76732" lon="5.89398">
        <ele>974.75</ele>
        <time>2018-08-26T13:11:02Z</time>
      </trkpt>
      <trkpt lat="44.76757" lon="5.89404">
        <ele>974.74</ele>
        <time>2018-08-26T13:11:04Z</time>
      </trkpt>
      <trkpt lat="44.76786" lon="5.89404">
        <ele>975.65</ele>
        <time>2018-08-26T13:11:06Z</time>
      </trkpt>
      <trkpt lat="44.76817" lon="5.89411">
        <ele>976.43</ele>
        <time>2018-08-26T13:11:08Z</time>
      </trkpt>
      <trkpt lat="44.76847" lon="5.89419">
        <ele>977.62</ele>
        <time>2018-08-26T13:11:10Z</time>
      </trkpt>
      <trkpt lat="44.76871" lon="5.89422">
        <ele>976.82</ele>
        <time>2018-08-26T13:11:12Z</time>
      </trkpt>
      <trkpt lat="44.7689" lon="5.89412">
        <ele>977.66</ele>
        <time>2018-08-26T13:11:14Z</time>
      </trkpt>
      <trkpt lat="44.76912" lon="5.89409">
        <ele>977.74</ele>
        <time>2018-08-26T13:11:17Z</time>
      </trkpt>
      <trkpt lat="44.76925" lon="5.89442">
        <ele>979.41</ele>
        <time>2018-08-26T13:11:20Z</time>
      </trkpt>
      <trkpt lat="44.76929" lon="5.89472">
        <ele>979.71</ele>
        <time>2018-08-26T13:11:22Z</time>
      </trkpt>
      <trkpt lat="44.76931" lon="5.89507">
        <ele>980.44</ele>
        <time>2018-08-26T13:11:24Z</time>
      </trkpt>
      <trkpt lat="44.76932" lon="5.89543">
        <ele>981.41</ele>
        <time>2018-08-26T13:11:26Z</time>
      </trkpt>
      <trkpt lat="44.76941" lon="5.89569">
        <ele>981.71</ele>
        <time>2018-08-26T13:11:28Z</time>
      </trkpt>
      <trkpt lat="44.76963" lon="5.89587">
        <ele>981.74</ele>
        <time>2018-08-26T13:11:30Z</time>
      </trkpt>
      <trkpt lat="44.76986" lon="5.89601">
        <ele>981.04</ele>
        <time>2018-08-26T13:11:32Z</time>
      </trkpt>
      <trkpt lat="44.77007" lon="5.89625">
        <ele>980.77</ele>
        <time>2018-08-26T13:11:34Z</time>
      </trkpt>
      <trkpt lat="44.77023" lon="5.89659">
        <ele>980.74</ele>
        <time>2018-08-26T13:11:36Z</time>
      </trkpt>
      <trkpt lat="44.77035" lon="5.89697">
        <ele>979.83</ele>
        <time>2018-08-26T13:11:38Z</time>
      </trkpt>
      <trkpt lat="44.77043" lon="5.89734">
        <ele>979.05</ele>
        <time>2018-08-26T13:11:40Z</time>
      </trkpt>
      <trkpt lat="44.77043" lon="5.89768">
        <ele>978.77</ele>
        <time>2018-08-26T13:11:42Z</time>
      </trkpt>
      <trkpt lat="44.77033" lon="5.89801">
        <ele>977.83</ele>
        <time>2018-08-26T13:11:44Z</time>
      </trkpt>
      <trkpt lat="44.77023" lon="5.89834">
        <ele>977.75</ele>
        <time>2018-08-26T13:11:46Z</time>
      </trkpt>
      <trkpt lat="44.77026" lon="5.89865">
        <ele>977.74</ele>
        <time>2018-08-26T13:11:48Z</time>
      </trkpt>
      <trkpt lat="44.77044" lon="5.89889">
        <ele>977.74</ele>
        <time>2018-08-26T13:11:50Z</time>
      </trkpt>
      <trkpt lat="44.77071" lon="5.89912">
        <ele>978.44</ele>
        <time>2018-08-26T13:11:52Z</time>
      </trkpt>
      <trkpt lat="44.77102" lon="5.89935">
        <ele>978.71</ele>
        <time>2018-08-26T13:11:54Z</time>
      </trkpt>
      <trkpt lat="44.77129" lon="5.89958">
        <ele>978.04</ele>
        <time>2018-08-26T13:11:56Z</time>
      </trkpt>
      <trkpt lat="44.77156" lon="5.89968">
        <ele>978.47</ele>
        <time>2018-08-26T13:11:58Z</time>
      </trkpt>
      <trkpt lat="44.77182" lon="5.89966">
        <ele>978.72</ele>
        <time>2018-08-26T13:12:00Z</time>
      </trkpt>
      <trkpt lat="44.77214" lon="5.89943">
        <ele>978.74</ele>
        <time>2018-08-26T13:12:02Z</time>
      </trkpt>
      <trkpt lat="44.77227" lon="5.89921">
        <ele>978.04</ele>
        <time>2018-08-26T13:12:03Z</time>
      </trkpt>
      <trkpt lat="44.77256" lon="5.89893">
        <ele>977.77</ele>
        <time>2018-08-26T13:12:05Z</time>
      </trkpt>
      <trkpt lat="44.77289" lon="5.89877">
        <ele>977.74</ele>
        <time>2018-08-26T13:12:07Z</time>
      </trkpt>
      <trkpt lat="44.77321" lon="5.89872">
        <ele>976.83</ele>
        <time>2018-08-26T13:12:09Z</time>
      </trkpt>
      <trkpt lat="44.77353" lon="5.89875">
        <ele>975.84</ele>
        <time>2018-08-26T13:12:11Z</time>
      </trkpt>
      <trkpt lat="44.77381" lon="5.89885">
        <ele>975.75</ele>
        <time>2018-08-26T13:12:13Z</time>
      </trkpt>
      <trkpt lat="44.77408" lon="5.89884">
        <ele>975.53</ele>
        <time>2018-08-26T13:12:15Z</time>
      </trkpt>
      <trkpt lat="44.7743" lon="5.8987">
        <ele>975.72</ele>
        <time>2018-08-26T13:12:17Z</time>
      </trkpt>
      <trkpt lat="44.77446" lon="5.89844">
        <ele>974.13</ele>
        <time>2018-08-26T13:12:19Z</time>
      </trkpt>
      <trkpt lat="44.77458" lon="5.89816">
        <ele>975.6</ele>
        <time>2018-08-26T13:12:21Z</time>
      </trkpt>
      <trkpt lat="44.77469" lon="5.89789">
        <ele>975.74</ele>
        <time>2018-08-26T13:12:24Z</time>
      </trkpt>
      <trkpt lat="44.77487" lon="5.89796">
        <ele>973.92</ele>
        <time>2018-08-26T13:12:27Z</time>
      </trkpt>
      <trkpt lat="44.77514" lon="5.89801">
        <ele>972.15</ele>
        <time>2018-08-26T13:12:29Z</time>
      </trkpt>
      <trkpt lat="44.77542" lon="5.89793">
        <ele>969.05</ele>
        <time>2018-08-26T13:12:31Z</time>
      </trkpt>
      <trkpt lat="44.77568" lon="5.89796">
        <ele>967.86</ele>
        <time>2018-08-26T13:12:33Z</time>
      </trkpt>
      <trkpt lat="44.7759" lon="5.89815">
        <ele>967.05</ele>
        <time>2018-08-26T13:12:35Z</time>
      </trkpt>
      <trkpt lat="44.7761" lon="5.89837">
        <ele>966.98</ele>
        <time>2018-08-26T13:12:37Z</time>
      </trkpt>
      <trkpt lat="44.7762" lon="5.89861">
        <ele>966.76</ele>
        <time>2018-08-26T13:12:39Z</time>
      </trkpt>
      <trkpt lat="44.77612" lon="5.89891">
        <ele>965.77</ele>
        <time>2018-08-26T13:12:42Z</time>
      </trkpt>
      <trkpt lat="44.77594" lon="5.89908">
        <ele>965.04</ele>
        <time>2018-08-26T13:12:44Z</time>
      </trkpt>
      <trkpt lat="44.77572" lon="5.89907">
        <ele>965.68</ele>
        <time>2018-08-26T13:12:46Z</time>
      </trkpt>
      <trkpt lat="44.77547" lon="5.89915">
        <ele>963.86</ele>
        <time>2018-08-26T13:12:49Z</time>
      </trkpt>
      <trkpt lat="44.77534" lon="5.8995">
        <ele>961.86</ele>
        <time>2018-08-26T13:12:52Z</time>
      </trkpt>
      <trkpt lat="44.77523" lon="5.8998">
        <ele>961.75</ele>
        <time>2018-08-26T13:12:54Z</time>
      </trkpt>
      <trkpt lat="44.77506" lon="5.90004">
        <ele>962.44</ele>
        <time>2018-08-26T13:12:56Z</time>
      </trkpt>
      <trkpt lat="44.77494" lon="5.90027">
        <ele>962.01</ele>
        <time>2018-08-26T13:12:58Z</time>
      </trkpt>
      <trkpt lat="44.77485" lon="5.90056">
        <ele>961.77</ele>
        <time>2018-08-26T13:13:00Z</time>
      </trkpt>
      <trkpt lat="44.77475" lon="5.90084">
        <ele>960.13</ele>
        <time>2018-08-26T13:13:02Z</time>
      </trkpt>
      <trkpt lat="44.7747" lon="5.90114">
        <ele>959.99</ele>
        <time>2018-08-26T13:13:04Z</time>
      </trkpt>
      <trkpt lat="44.77465" lon="5.90143">
        <ele>959.06</ele>
        <time>2018-08-26T13:13:06Z</time>
      </trkpt>
      <trkpt lat="44.77458" lon="5.90168">
        <ele>959.68</ele>
        <time>2018-08-26T13:13:08Z</time>
      </trkpt>
      <trkpt lat="44.77454" lon="5.90195">
        <ele>958.83</ele>
        <time>2018-08-26T13:13:10Z</time>
      </trkpt>
      <trkpt lat="44.77447" lon="5.90224">
        <ele>958.75</ele>
        <time>2018-08-26T13:13:12Z</time>
      </trkpt>
      <trkpt lat="44.77437" lon="5.90256">
        <ele>957.83</ele>
        <time>2018-08-26T13:13:14Z</time>
      </trkpt>
      <trkpt lat="44.77426" lon="5.90293">
        <ele>957.75</ele>
        <time>2018-08-26T13:13:16Z</time>
      </trkpt>
      <trkpt lat="44.77415" lon="5.90331">
        <ele>957.74</ele>
        <time>2018-08-26T13:13:18Z</time>
      </trkpt>
      <trkpt lat="44.77402" lon="5.90365">
        <ele>958.65</ele>
        <time>2018-08-26T13:13:20Z</time>
      </trkpt>
      <trkpt lat="44.77394" lon="5.90393">
        <ele>956.91</ele>
        <time>2018-08-26T13:13:22Z</time>
      </trkpt>
      <trkpt lat="44.77393" lon="5.90424">
        <ele>956.76</ele>
        <time>2018-08-26T13:13:24Z</time>
      </trkpt>
      <trkpt lat="44.77402" lon="5.90463">
        <ele>956.74</ele>
        <time>2018-08-26T13:13:26Z</time>
      </trkpt>
      <trkpt lat="44.77415" lon="5.90509">
        <ele>956.74</ele>
        <time>2018-08-26T13:13:28Z</time>
      </trkpt>
      <trkpt lat="44.77419" lon="5.90534">
        <ele>956.74</ele>
        <time>2018-08-26T13:13:29Z</time>
      </trkpt>
      <trkpt lat="44.77428" lon="5.9058">
        <ele>956.74</ele>
        <time>2018-08-26T13:13:31Z</time>
      </trkpt>
      <trkpt lat="44.77433" lon="5.90622">
        <ele>956.74</ele>
        <time>2018-08-26T13:13:33Z</time>
      </trkpt>
      <trkpt lat="44.77433" lon="5.90657">
        <ele>956.74</ele>
        <time>2018-08-26T13:13:35Z</time>
      </trkpt>
      <trkpt lat="44.77438" lon="5.90685">
        <ele>956.53</ele>
        <time>2018-08-26T13:13:37Z</time>
      </trkpt>
      <trkpt lat="44.77463" lon="5.90698">
        <ele>957.44</ele>
        <time>2018-08-26T13:13:40Z</time>
      </trkpt>
      <trkpt lat="44.77483" lon="5.90689">
        <ele>957.5</ele>
        <time>2018-08-26T13:13:42Z</time>
      </trkpt>
      <trkpt lat="44.77504" lon="5.90683">
        <ele>957.02</ele>
        <time>2018-08-26T13:13:44Z</time>
      </trkpt>
      <trkpt lat="44.77529" lon="5.90692">
        <ele>957.47</ele>
        <time>2018-08-26T13:13:46Z</time>
      </trkpt>
      <trkpt lat="44.77558" lon="5.90701">
        <ele>957.02</ele>
        <time>2018-08-26T13:13:48Z</time>
      </trkpt>
      <trkpt lat="44.77576" lon="5.90705">
        <ele>956.82</ele>
        <time>2018-08-26T13:13:49Z</time>
      </trkpt>
      <trkpt lat="44.77596" lon="5.90709">
        <ele>956.77</ele>
        <time>2018-08-26T13:13:50Z</time>
      </trkpt>
      <trkpt lat="44.77617" lon="5.90713">
        <ele>956.75</ele>
        <time>2018-08-26T13:13:51Z</time>
      </trkpt>
      <trkpt lat="44.77662" lon="5.90722">
        <ele>956.74</ele>
        <time>2018-08-26T13:13:53Z</time>
      </trkpt>
      <trkpt lat="44.77684" lon="5.90727">
        <ele>956.04</ele>
        <time>2018-08-26T13:13:54Z</time>
      </trkpt>
      <trkpt lat="44.77709" lon="5.90732">
        <ele>955.83</ele>
        <time>2018-08-26T13:13:55Z</time>
      </trkpt>
      <trkpt lat="44.77734" lon="5.90737">
        <ele>955.77</ele>
        <time>2018-08-26T13:13:56Z</time>
      </trkpt>
      <trkpt lat="44.7776" lon="5.90742">
        <ele>955.75</ele>
        <time>2018-08-26T13:13:57Z</time>
      </trkpt>
      <trkpt lat="44.77786" lon="5.90747">
        <ele>955.04</ele>
        <time>2018-08-26T13:13:58Z</time>
      </trkpt>
      <trkpt lat="44.77812" lon="5.90752">
        <ele>954.83</ele>
        <time>2018-08-26T13:13:59Z</time>
      </trkpt>
      <trkpt lat="44.77839" lon="5.90756">
        <ele>954.07</ele>
        <time>2018-08-26T13:14:00Z</time>
      </trkpt>
      <trkpt lat="44.77865" lon="5.90761">
        <ele>953.84</ele>
        <time>2018-08-26T13:14:01Z</time>
      </trkpt>
      <trkpt lat="44.7789" lon="5.90766">
        <ele>953.77</ele>
        <time>2018-08-26T13:14:02Z</time>
      </trkpt>
      <trkpt lat="44.77915" lon="5.90771">
        <ele>953.75</ele>
        <time>2018-08-26T13:14:03Z</time>
      </trkpt>
      <trkpt lat="44.77941" lon="5.90776">
        <ele>953.74</ele>
        <time>2018-08-26T13:14:04Z</time>
      </trkpt>
      <trkpt lat="44.77966" lon="5.9078">
        <ele>953.74</ele>
        <time>2018-08-26T13:14:05Z</time>
      </trkpt>
      <trkpt lat="44.77991" lon="5.90785">
        <ele>953.74</ele>
        <time>2018-08-26T13:14:06Z</time>
      </trkpt>
      <trkpt lat="44.78015" lon="5.9079">
        <ele>953.04</ele>
        <time>2018-08-26T13:14:07Z</time>
      </trkpt>
      <trkpt lat="44.7804" lon="5.90794">
        <ele>952.83</ele>
        <time>2018-08-26T13:14:08Z</time>
      </trkpt>
      <trkpt lat="44.78064" lon="5.90799">
        <ele>952.07</ele>
        <time>2018-08-26T13:14:09Z</time>
      </trkpt>
      <trkpt lat="44.78089" lon="5.90804">
        <ele>951.84</ele>
        <time>2018-08-26T13:14:10Z</time>
      </trkpt>
      <trkpt lat="44.78114" lon="5.90809">
        <ele>951.77</ele>
        <time>2018-08-26T13:14:11Z</time>
      </trkpt>
      <trkpt lat="44.78139" lon="5.90814">
        <ele>951.05</ele>
        <time>2018-08-26T13:14:12Z</time>
      </trkpt>
      <trkpt lat="44.78164" lon="5.90819">
        <ele>950.13</ele>
        <time>2018-08-26T13:14:13Z</time>
      </trkpt>
      <trkpt lat="44.78189" lon="5.90824">
        <ele>949.16</ele>
        <time>2018-08-26T13:14:14Z</time>
      </trkpt>
      <trkpt lat="44.78214" lon="5.90829">
        <ele>948.87</ele>
        <time>2018-08-26T13:14:15Z</time>
      </trkpt>
      <trkpt lat="44.78239" lon="5.90834">
        <ele>948.08</ele>
        <time>2018-08-26T13:14:16Z</time>
      </trkpt>
      <trkpt lat="44.78264" lon="5.90837">
        <ele>947.84</ele>
        <time>2018-08-26T13:14:17Z</time>
      </trkpt>
      <trkpt lat="44.78289" lon="5.90842">
        <ele>947.07</ele>
        <time>2018-08-26T13:14:18Z</time>
      </trkpt>
      <trkpt lat="44.78314" lon="5.90846">
        <ele>946.84</ele>
        <time>2018-08-26T13:14:19Z</time>
      </trkpt>
      <trkpt lat="44.78339" lon="5.9085">
        <ele>946.07</ele>
        <time>2018-08-26T13:14:20Z</time>
      </trkpt>
      <trkpt lat="44.78364" lon="5.90855">
        <ele>945.84</ele>
        <time>2018-08-26T13:14:21Z</time>
      </trkpt>
      <trkpt lat="44.78388" lon="5.90859">
        <ele>945.77</ele>
        <time>2018-08-26T13:14:22Z</time>
      </trkpt>
      <trkpt lat="44.78413" lon="5.90864">
        <ele>945.75</ele>
        <time>2018-08-26T13:14:23Z</time>
      </trkpt>
      <trkpt lat="44.78439" lon="5.90869">
        <ele>945.04</ele>
        <time>2018-08-26T13:14:24Z</time>
      </trkpt>
      <trkpt lat="44.78464" lon="5.90874">
        <ele>944.83</ele>
        <time>2018-08-26T13:14:25Z</time>
      </trkpt>
      <trkpt lat="44.78489" lon="5.90878">
        <ele>944.07</ele>
        <time>2018-08-26T13:14:26Z</time>
      </trkpt>
      <trkpt lat="44.78514" lon="5.90883">
        <ele>943.84</ele>
        <time>2018-08-26T13:14:27Z</time>
      </trkpt>
      <trkpt lat="44.78539" lon="5.90887">
        <ele>943.07</ele>
        <time>2018-08-26T13:14:28Z</time>
      </trkpt>
      <trkpt lat="44.78564" lon="5.90892">
        <ele>942.14</ele>
        <time>2018-08-26T13:14:29Z</time>
      </trkpt>
      <trkpt lat="44.78589" lon="5.90896">
        <ele>941.86</ele>
        <time>2018-08-26T13:14:30Z</time>
      </trkpt>
      <trkpt lat="44.78614" lon="5.90901">
        <ele>941.08</ele>
        <time>2018-08-26T13:14:31Z</time>
      </trkpt>
      <trkpt lat="44.78638" lon="5.90906">
        <ele>940.84</ele>
        <time>2018-08-26T13:14:32Z</time>
      </trkpt>
      <trkpt lat="44.78663" lon="5.9091">
        <ele>940.07</ele>
        <time>2018-08-26T13:14:33Z</time>
      </trkpt>
      <trkpt lat="44.78688" lon="5.90915">
        <ele>939.84</ele>
        <time>2018-08-26T13:14:34Z</time>
      </trkpt>
      <trkpt lat="44.78713" lon="5.9092">
        <ele>939.07</ele>
        <time>2018-08-26T13:14:35Z</time>
      </trkpt>
      <trkpt lat="44.78738" lon="5.90925">
        <ele>938.84</ele>
        <time>2018-08-26T13:14:36Z</time>
      </trkpt>
      <trkpt lat="44.78763" lon="5.90929">
        <ele>938.07</ele>
        <time>2018-08-26T13:14:37Z</time>
      </trkpt>
      <trkpt lat="44.78787" lon="5.90934">
        <ele>937.84</ele>
        <time>2018-08-26T13:14:38Z</time>
      </trkpt>
      <trkpt lat="44.78812" lon="5.90938">
        <ele>937.07</ele>
        <time>2018-08-26T13:14:39Z</time>
      </trkpt>
      <trkpt lat="44.78836" lon="5.90943">
        <ele>936.84</ele>
        <time>2018-08-26T13:14:40Z</time>
      </trkpt>
      <trkpt lat="44.7886" lon="5.90947">
        <ele>936.07</ele>
        <time>2018-08-26T13:14:41Z</time>
      </trkpt>
      <trkpt lat="44.78884" lon="5.90951">
        <ele>935.84</ele>
        <time>2018-08-26T13:14:42Z</time>
      </trkpt>
      <trkpt lat="44.78908" lon="5.90956">
        <ele>935.07</ele>
        <time>2018-08-26T13:14:43Z</time>
      </trkpt>
      <trkpt lat="44.78932" lon="5.9096">
        <ele>934.14</ele>
        <time>2018-08-26T13:14:44Z</time>
      </trkpt>
      <trkpt lat="44.78956" lon="5.90965">
        <ele>933.86</ele>
        <time>2018-08-26T13:14:45Z</time>
      </trkpt>
      <trkpt lat="44.7898" lon="5.90969">
        <ele>933.08</ele>
        <time>2018-08-26T13:14:46Z</time>
      </trkpt>
      <trkpt lat="44.79005" lon="5.90974">
        <ele>932.84</ele>
        <time>2018-08-26T13:14:47Z</time>
      </trkpt>
      <trkpt lat="44.79029" lon="5.90979">
        <ele>933.47</ele>
        <time>2018-08-26T13:14:48Z</time>
      </trkpt>
      <trkpt lat="44.79054" lon="5.90984">
        <ele>933.66</ele>
        <time>2018-08-26T13:14:49Z</time>
      </trkpt>
      <trkpt lat="44.79079" lon="5.90988">
        <ele>933.72</ele>
        <time>2018-08-26T13:14:50Z</time>
      </trkpt>
      <trkpt lat="44.79103" lon="5.90992">
        <ele>933.73</ele>
        <time>2018-08-26T13:14:51Z</time>
      </trkpt>
      <trkpt lat="44.79125" lon="5.90995">
        <ele>933.74</ele>
        <time>2018-08-26T13:14:52Z</time>
      </trkpt>
      <trkpt lat="44.79147" lon="5.90999">
        <ele>933.04</ele>
        <time>2018-08-26T13:14:53Z</time>
      </trkpt>
      <trkpt lat="44.79168" lon="5.91001">
        <ele>932.83</ele>
        <time>2018-08-26T13:14:54Z</time>
      </trkpt>
      <trkpt lat="44.79188" lon="5.91005">
        <ele>932.77</ele>
        <time>2018-08-26T13:14:55Z</time>
      </trkpt>
      <trkpt lat="44.79208" lon="5.91007">
        <ele>932.05</ele>
        <time>2018-08-26T13:14:56Z</time>
      </trkpt>
      <trkpt lat="44.79229" lon="5.91009">
        <ele>931.83</ele>
        <time>2018-08-26T13:14:57Z</time>
      </trkpt>
      <trkpt lat="44.79249" lon="5.91011">
        <ele>931.07</ele>
        <time>2018-08-26T13:14:58Z</time>
      </trkpt>
      <trkpt lat="44.79269" lon="5.91014">
        <ele>930.84</ele>
        <time>2018-08-26T13:14:59Z</time>
      </trkpt>
      <trkpt lat="44.79289" lon="5.91016">
        <ele>930.77</ele>
        <time>2018-08-26T13:15:00Z</time>
      </trkpt>
      <trkpt lat="44.79309" lon="5.91019">
        <ele>930.75</ele>
        <time>2018-08-26T13:15:01Z</time>
      </trkpt>
      <trkpt lat="44.79328" lon="5.91021">
        <ele>930.04</ele>
        <time>2018-08-26T13:15:02Z</time>
      </trkpt>
      <trkpt lat="44.79347" lon="5.91024">
        <ele>929.83</ele>
        <time>2018-08-26T13:15:03Z</time>
      </trkpt>
      <trkpt lat="44.79365" lon="5.91026">
        <ele>929.77</ele>
        <time>2018-08-26T13:15:04Z</time>
      </trkpt>
      <trkpt lat="44.79399" lon="5.91029">
        <ele>929.74</ele>
        <time>2018-08-26T13:15:06Z</time>
      </trkpt>
      <trkpt lat="44.79432" lon="5.91033">
        <ele>928.83</ele>
        <time>2018-08-26T13:15:08Z</time>
      </trkpt>
      <trkpt lat="44.79465" lon="5.91036">
        <ele>927.84</ele>
        <time>2018-08-26T13:15:10Z</time>
      </trkpt>
      <trkpt lat="44.79498" lon="5.9104">
        <ele>927.75</ele>
        <time>2018-08-26T13:15:12Z</time>
      </trkpt>
      <trkpt lat="44.79533" lon="5.91044">
        <ele>927.74</ele>
        <time>2018-08-26T13:15:14Z</time>
      </trkpt>
      <trkpt lat="44.79564" lon="5.91049">
        <ele>926.83</ele>
        <time>2018-08-26T13:15:16Z</time>
      </trkpt>
      <trkpt lat="44.79591" lon="5.91052">
        <ele>926.75</ele>
        <time>2018-08-26T13:15:18Z</time>
      </trkpt>
      <trkpt lat="44.79616" lon="5.91054">
        <ele>926.74</ele>
        <time>2018-08-26T13:15:20Z</time>
      </trkpt>
      <trkpt lat="44.79636" lon="5.91057">
        <ele>926.74</ele>
        <time>2018-08-26T13:15:22Z</time>
      </trkpt>
      <trkpt lat="44.79653" lon="5.91041">
        <ele>927.65</ele>
        <time>2018-08-26T13:15:25Z</time>
      </trkpt>
      <trkpt lat="44.79662" lon="5.91013">
        <ele>927.73</ele>
        <time>2018-08-26T13:15:27Z</time>
      </trkpt>
      <trkpt lat="44.79672" lon="5.90979">
        <ele>927.74</ele>
        <time>2018-08-26T13:15:29Z</time>
      </trkpt>
      <trkpt lat="44.79683" lon="5.90942">
        <ele>927.74</ele>
        <time>2018-08-26T13:15:31Z</time>
      </trkpt>
      <trkpt lat="44.79695" lon="5.90903">
        <ele>927.74</ele>
        <time>2018-08-26T13:15:33Z</time>
      </trkpt>
      <trkpt lat="44.79707" lon="5.90868">
        <ele>927.74</ele>
        <time>2018-08-26T13:15:35Z</time>
      </trkpt>
      <trkpt lat="44.79718" lon="5.90834">
        <ele>927.74</ele>
        <time>2018-08-26T13:15:37Z</time>
      </trkpt>
      <trkpt lat="44.79731" lon="5.90797">
        <ele>927.74</ele>
        <time>2018-08-26T13:15:39Z</time>
      </trkpt>
      <trkpt lat="44.79742" lon="5.90761">
        <ele>927.74</ele>
        <time>2018-08-26T13:15:41Z</time>
      </trkpt>
      <trkpt lat="44.79753" lon="5.90724">
        <ele>927.74</ele>
        <time>2018-08-26T13:15:43Z</time>
      </trkpt>
      <trkpt lat="44.79766" lon="5.90694">
        <ele>928.44</ele>
        <time>2018-08-26T13:15:45Z</time>
      </trkpt>
      <trkpt lat="44.79781" lon="5.90675">
        <ele>929.41</ele>
        <time>2018-08-26T13:15:47Z</time>
      </trkpt>
      <trkpt lat="44.79799" lon="5.90669">
        <ele>930.62</ele>
        <time>2018-08-26T13:15:49Z</time>
      </trkpt>
      <trkpt lat="44.79818" lon="5.90668">
        <ele>932.34</ele>
        <time>2018-08-26T13:15:51Z</time>
      </trkpt>
      <trkpt lat="44.7984" lon="5.9067">
        <ele>932.7</ele>
        <time>2018-08-26T13:15:53Z</time>
      </trkpt>
      <trkpt lat="44.7986" lon="5.90673">
        <ele>931.83</ele>
        <time>2018-08-26T13:15:55Z</time>
      </trkpt>
      <trkpt lat="44.79879" lon="5.90679">
        <ele>932.66</ele>
        <time>2018-08-26T13:15:57Z</time>
      </trkpt>
      <trkpt lat="44.79896" lon="5.90692">
        <ele>933.43</ele>
        <time>2018-08-26T13:15:59Z</time>
      </trkpt>
      <trkpt lat="44.79913" lon="5.9071">
        <ele>934.62</ele>
        <time>2018-08-26T13:16:01Z</time>
      </trkpt>
      <trkpt lat="44.79929" lon="5.9073">
        <ele>936.34</ele>
        <time>2018-08-26T13:16:03Z</time>
      </trkpt>
      <trkpt lat="44.79941" lon="5.90753">
        <ele>937.61</ele>
        <time>2018-08-26T13:16:05Z</time>
      </trkpt>
      <trkpt lat="44.79951" lon="5.90777">
        <ele>939.34</ele>
        <time>2018-08-26T13:16:07Z</time>
      </trkpt>
      <trkpt lat="44.79965" lon="5.90794">
        <ele>940.4</ele>
        <time>2018-08-26T13:16:09Z</time>
      </trkpt>
      <trkpt lat="44.79983" lon="5.90802">
        <ele>943.02</ele>
        <time>2018-08-26T13:16:11Z</time>
      </trkpt>
      <trkpt lat="44.80002" lon="5.90798">
        <ele>944.38</ele>
        <time>2018-08-26T13:16:13Z</time>
      </trkpt>
      <trkpt lat="44.80022" lon="5.90781">
        <ele>945.62</ele>
        <time>2018-08-26T13:16:15Z</time>
      </trkpt>
      <trkpt lat="44.80046" lon="5.90758">
        <ele>946.64</ele>
        <time>2018-08-26T13:16:17Z</time>
      </trkpt>
      <trkpt lat="44.80074" lon="5.90732">
        <ele>947.64</ele>
        <time>2018-08-26T13:16:19Z</time>
      </trkpt>
      <trkpt lat="44.80088" lon="5.90717">
        <ele>947.01</ele>
        <time>2018-08-26T13:16:20Z</time>
      </trkpt>
      <trkpt lat="44.80117" lon="5.9069">
        <ele>947.47</ele>
        <time>2018-08-26T13:16:22Z</time>
      </trkpt>
      <trkpt lat="44.80145" lon="5.90661">
        <ele>947.02</ele>
        <time>2018-08-26T13:16:24Z</time>
      </trkpt>
      <trkpt lat="44.80159" lon="5.90647">
        <ele>947.52</ele>
        <time>2018-08-26T13:16:25Z</time>
      </trkpt>
      <trkpt lat="44.80175" lon="5.90632">
        <ele>947.68</ele>
        <time>2018-08-26T13:16:26Z</time>
      </trkpt>
      <trkpt lat="44.80191" lon="5.90616">
        <ele>947.02</ele>
        <time>2018-08-26T13:16:27Z</time>
      </trkpt>
      <trkpt lat="44.80208" lon="5.906">
        <ele>946.83</ele>
        <time>2018-08-26T13:16:28Z</time>
      </trkpt>
      <trkpt lat="44.80224" lon="5.90584">
        <ele>946.07</ele>
        <time>2018-08-26T13:16:29Z</time>
      </trkpt>
      <trkpt lat="44.80241" lon="5.90568">
        <ele>945.84</ele>
        <time>2018-08-26T13:16:30Z</time>
      </trkpt>
      <trkpt lat="44.80257" lon="5.90552">
        <ele>945.07</ele>
        <time>2018-08-26T13:16:31Z</time>
      </trkpt>
      <trkpt lat="44.80273" lon="5.90537">
        <ele>944.84</ele>
        <time>2018-08-26T13:16:32Z</time>
      </trkpt>
      <trkpt lat="44.80289" lon="5.90521">
        <ele>944.07</ele>
        <time>2018-08-26T13:16:33Z</time>
      </trkpt>
      <trkpt lat="44.80306" lon="5.90505">
        <ele>943.14</ele>
        <time>2018-08-26T13:16:34Z</time>
      </trkpt>
      <trkpt lat="44.80323" lon="5.9049">
        <ele>942.86</ele>
        <time>2018-08-26T13:16:35Z</time>
      </trkpt>
      <trkpt lat="44.80339" lon="5.90474">
        <ele>942.08</ele>
        <time>2018-08-26T13:16:36Z</time>
      </trkpt>
      <trkpt lat="44.80356" lon="5.90458">
        <ele>941.14</ele>
        <time>2018-08-26T13:16:37Z</time>
      </trkpt>
      <trkpt lat="44.80372" lon="5.90442">
        <ele>940.16</ele>
        <time>2018-08-26T13:16:38Z</time>
      </trkpt>
      <trkpt lat="44.80389" lon="5.90426">
        <ele>939.17</ele>
        <time>2018-08-26T13:16:39Z</time>
      </trkpt>
      <trkpt lat="44.80404" lon="5.9041">
        <ele>938.87</ele>
        <time>2018-08-26T13:16:40Z</time>
      </trkpt>
      <trkpt lat="44.80421" lon="5.90395">
        <ele>938.08</ele>
        <time>2018-08-26T13:16:41Z</time>
      </trkpt>
      <trkpt lat="44.80437" lon="5.90379">
        <ele>937.14</ele>
        <time>2018-08-26T13:16:42Z</time>
      </trkpt>
      <trkpt lat="44.80454" lon="5.90363">
        <ele>936.16</ele>
        <time>2018-08-26T13:16:43Z</time>
      </trkpt>
      <trkpt lat="44.8047" lon="5.90347">
        <ele>934.47</ele>
        <time>2018-08-26T13:16:44Z</time>
      </trkpt>
      <trkpt lat="44.80487" lon="5.90331">
        <ele>933.26</ele>
        <time>2018-08-26T13:16:45Z</time>
      </trkpt>
      <trkpt lat="44.80504" lon="5.90316">
        <ele>932.2</ele>
        <time>2018-08-26T13:16:46Z</time>
      </trkpt>
      <trkpt lat="44.80521" lon="5.90298">
        <ele>931.18</ele>
        <time>2018-08-26T13:16:47Z</time>
      </trkpt>
      <trkpt lat="44.80537" lon="5.9028">
        <ele>930.17</ele>
        <time>2018-08-26T13:16:48Z</time>
      </trkpt>
      <trkpt lat="44.80552" lon="5.90258">
        <ele>928.47</ele>
        <time>2018-08-26T13:16:49Z</time>
      </trkpt>
      <trkpt lat="44.80567" lon="5.90235">
        <ele>927.26</ele>
        <time>2018-08-26T13:16:50Z</time>
      </trkpt>
      <trkpt lat="44.80581" lon="5.90211">
        <ele>925.5</ele>
        <time>2018-08-26T13:16:51Z</time>
      </trkpt>
      <trkpt lat="44.80593" lon="5.90184">
        <ele>924.27</ele>
        <time>2018-08-26T13:16:52Z</time>
      </trkpt>
      <trkpt lat="44.80604" lon="5.90155">
        <ele>922.5</ele>
        <time>2018-08-26T13:16:53Z</time>
      </trkpt>
      <trkpt lat="44.80614" lon="5.90126">
        <ele>921.27</ele>
        <time>2018-08-26T13:16:54Z</time>
      </trkpt>
      <trkpt lat="44.80621" lon="5.90094">
        <ele>919.5</ele>
        <time>2018-08-26T13:16:55Z</time>
      </trkpt>
      <trkpt lat="44.80627" lon="5.90062">
        <ele>918.27</ele>
        <time>2018-08-26T13:16:56Z</time>
      </trkpt>
      <trkpt lat="44.80633" lon="5.9003">
        <ele>917.2</ele>
        <time>2018-08-26T13:16:57Z</time>
      </trkpt>
      <trkpt lat="44.80639" lon="5.89998">
        <ele>916.18</ele>
        <time>2018-08-26T13:16:58Z</time>
      </trkpt>
      <trkpt lat="44.80644" lon="5.89967">
        <ele>915.87</ele>
        <time>2018-08-26T13:16:59Z</time>
      </trkpt>
      <trkpt lat="44.8065" lon="5.89935">
        <ele>915.78</ele>
        <time>2018-08-26T13:17:00Z</time>
      </trkpt>
      <trkpt lat="44.80655" lon="5.89906">
        <ele>915.05</ele>
        <time>2018-08-26T13:17:01Z</time>
      </trkpt>
      <trkpt lat="44.80661" lon="5.89878">
        <ele>914.83</ele>
        <time>2018-08-26T13:17:02Z</time>
      </trkpt>
      <trkpt lat="44.80666" lon="5.89851">
        <ele>914.77</ele>
        <time>2018-08-26T13:17:03Z</time>
      </trkpt>
      <trkpt lat="44.80671" lon="5.89826">
        <ele>914.75</ele>
        <time>2018-08-26T13:17:04Z</time>
      </trkpt>
      <trkpt lat="44.8068" lon="5.89781">
        <ele>914.74</ele>
        <time>2018-08-26T13:17:06Z</time>
      </trkpt>
      <trkpt lat="44.80689" lon="5.89736">
        <ele>914.74</ele>
        <time>2018-08-26T13:17:08Z</time>
      </trkpt>
      <trkpt lat="44.80694" lon="5.89708">
        <ele>914.74</ele>
        <time>2018-08-26T13:17:09Z</time>
      </trkpt>
      <trkpt lat="44.807" lon="5.89677">
        <ele>914.74</ele>
        <time>2018-08-26T13:17:10Z</time>
      </trkpt>
      <trkpt lat="44.80706" lon="5.89645">
        <ele>914.74</ele>
        <time>2018-08-26T13:17:11Z</time>
      </trkpt>
      <trkpt lat="44.80712" lon="5.89612">
        <ele>914.74</ele>
        <time>2018-08-26T13:17:12Z</time>
      </trkpt>
      <trkpt lat="44.80718" lon="5.89579">
        <ele>914.04</ele>
        <time>2018-08-26T13:17:13Z</time>
      </trkpt>
      <trkpt lat="44.80725" lon="5.89547">
        <ele>913.83</ele>
        <time>2018-08-26T13:17:14Z</time>
      </trkpt>
      <trkpt lat="44.80731" lon="5.89517">
        <ele>913.07</ele>
        <time>2018-08-26T13:17:15Z</time>
      </trkpt>
      <trkpt lat="44.80737" lon="5.89486">
        <ele>912.84</ele>
        <time>2018-08-26T13:17:16Z</time>
      </trkpt>
      <trkpt lat="44.80744" lon="5.89456">
        <ele>912.77</ele>
        <time>2018-08-26T13:17:17Z</time>
      </trkpt>
      <trkpt lat="44.80752" lon="5.89428">
        <ele>912.05</ele>
        <time>2018-08-26T13:17:18Z</time>
      </trkpt>
      <trkpt lat="44.80761" lon="5.89399">
        <ele>911.83</ele>
        <time>2018-08-26T13:17:19Z</time>
      </trkpt>
      <trkpt lat="44.8077" lon="5.89372">
        <ele>911.77</ele>
        <time>2018-08-26T13:17:20Z</time>
      </trkpt>
      <trkpt lat="44.8078" lon="5.89344">
        <ele>911.05</ele>
        <time>2018-08-26T13:17:21Z</time>
      </trkpt>
      <trkpt lat="44.80791" lon="5.89316">
        <ele>910.83</ele>
        <time>2018-08-26T13:17:22Z</time>
      </trkpt>
      <trkpt lat="44.80801" lon="5.89288">
        <ele>910.77</ele>
        <time>2018-08-26T13:17:23Z</time>
      </trkpt>
      <trkpt lat="44.80811" lon="5.89259">
        <ele>910.05</ele>
        <time>2018-08-26T13:17:24Z</time>
      </trkpt>
      <trkpt lat="44.80822" lon="5.8923">
        <ele>909.83</ele>
        <time>2018-08-26T13:17:25Z</time>
      </trkpt>
      <trkpt lat="44.80832" lon="5.89201">
        <ele>909.77</ele>
        <time>2018-08-26T13:17:26Z</time>
      </trkpt>
      <trkpt lat="44.80842" lon="5.89171">
        <ele>909.75</ele>
        <time>2018-08-26T13:17:27Z</time>
      </trkpt>
      <trkpt lat="44.80853" lon="5.8914">
        <ele>909.74</ele>
        <time>2018-08-26T13:17:28Z</time>
      </trkpt>
      <trkpt lat="44.80863" lon="5.8911">
        <ele>909.74</ele>
        <time>2018-08-26T13:17:29Z</time>
      </trkpt>
      <trkpt lat="44.80874" lon="5.89081">
        <ele>909.74</ele>
        <time>2018-08-26T13:17:30Z</time>
      </trkpt>
      <trkpt lat="44.80884" lon="5.89051">
        <ele>909.74</ele>
        <time>2018-08-26T13:17:31Z</time>
      </trkpt>
      <trkpt lat="44.80894" lon="5.89023">
        <ele>909.74</ele>
        <time>2018-08-26T13:17:32Z</time>
      </trkpt>
      <trkpt lat="44.80903" lon="5.88996">
        <ele>909.74</ele>
        <time>2018-08-26T13:17:33Z</time>
      </trkpt>
      <trkpt lat="44.80913" lon="5.88969">
        <ele>909.74</ele>
        <time>2018-08-26T13:17:34Z</time>
      </trkpt>
      <trkpt lat="44.80922" lon="5.88942">
        <ele>909.04</ele>
        <time>2018-08-26T13:17:35Z</time>
      </trkpt>
      <trkpt lat="44.80932" lon="5.88915">
        <ele>908.83</ele>
        <time>2018-08-26T13:17:36Z</time>
      </trkpt>
      <trkpt lat="44.8094" lon="5.88889">
        <ele>908.77</ele>
        <time>2018-08-26T13:17:37Z</time>
      </trkpt>
      <trkpt lat="44.80949" lon="5.88863">
        <ele>908.75</ele>
        <time>2018-08-26T13:17:38Z</time>
      </trkpt>
      <trkpt lat="44.80958" lon="5.88838">
        <ele>908.74</ele>
        <time>2018-08-26T13:17:39Z</time>
      </trkpt>
      <trkpt lat="44.80967" lon="5.88811">
        <ele>908.74</ele>
        <time>2018-08-26T13:17:40Z</time>
      </trkpt>
      <trkpt lat="44.80977" lon="5.88785">
        <ele>908.74</ele>
        <time>2018-08-26T13:17:41Z</time>
      </trkpt>
      <trkpt lat="44.80986" lon="5.88757">
        <ele>908.74</ele>
        <time>2018-08-26T13:17:42Z</time>
      </trkpt>
      <trkpt lat="44.80996" lon="5.8873">
        <ele>908.74</ele>
        <time>2018-08-26T13:17:43Z</time>
      </trkpt>
      <trkpt lat="44.81005" lon="5.88702">
        <ele>908.74</ele>
        <time>2018-08-26T13:17:44Z</time>
      </trkpt>
      <trkpt lat="44.81015" lon="5.88675">
        <ele>908.74</ele>
        <time>2018-08-26T13:17:45Z</time>
      </trkpt>
      <trkpt lat="44.81027" lon="5.88649">
        <ele>908.04</ele>
        <time>2018-08-26T13:17:46Z</time>
      </trkpt>
      <trkpt lat="44.8104" lon="5.88625">
        <ele>907.83</ele>
        <time>2018-08-26T13:17:47Z</time>
      </trkpt>
      <trkpt lat="44.81054" lon="5.88601">
        <ele>908.47</ele>
        <time>2018-08-26T13:17:48Z</time>
      </trkpt>
      <trkpt lat="44.81069" lon="5.88577">
        <ele>907.96</ele>
        <time>2018-08-26T13:17:49Z</time>
      </trkpt>
      <trkpt lat="44.81083" lon="5.88552">
        <ele>908.51</ele>
        <time>2018-08-26T13:17:50Z</time>
      </trkpt>
      <trkpt lat="44.81098" lon="5.88528">
        <ele>907.97</ele>
        <time>2018-08-26T13:17:51Z</time>
      </trkpt>
      <trkpt lat="44.81112" lon="5.88504">
        <ele>908.51</ele>
        <time>2018-08-26T13:17:52Z</time>
      </trkpt>
      <trkpt lat="44.81125" lon="5.88479">
        <ele>908.67</ele>
        <time>2018-08-26T13:17:53Z</time>
      </trkpt>
      <trkpt lat="44.81138" lon="5.88454">
        <ele>908.72</ele>
        <time>2018-08-26T13:17:54Z</time>
      </trkpt>
      <trkpt lat="44.81149" lon="5.8843">
        <ele>908.73</ele>
        <time>2018-08-26T13:17:55Z</time>
      </trkpt>
      <trkpt lat="44.81159" lon="5.88409">
        <ele>908.74</ele>
        <time>2018-08-26T13:17:56Z</time>
      </trkpt>
      <trkpt lat="44.81168" lon="5.88386">
        <ele>908.74</ele>
        <time>2018-08-26T13:17:57Z</time>
      </trkpt>
      <trkpt lat="44.81183" lon="5.88339">
        <ele>909.65</ele>
        <time>2018-08-26T13:17:59Z</time>
      </trkpt>
      <trkpt lat="44.81195" lon="5.88293">
        <ele>908.82</ele>
        <time>2018-08-26T13:18:01Z</time>
      </trkpt>
      <trkpt lat="44.81205" lon="5.88252">
        <ele>908.54</ele>
        <time>2018-08-26T13:18:03Z</time>
      </trkpt>
      <trkpt lat="44.81215" lon="5.88211">
        <ele>908.02</ele>
        <time>2018-08-26T13:18:05Z</time>
      </trkpt>
      <trkpt lat="44.81224" lon="5.88171">
        <ele>907.77</ele>
        <time>2018-08-26T13:18:07Z</time>
      </trkpt>
      <trkpt lat="44.81225" lon="5.88137">
        <ele>907.74</ele>
        <time>2018-08-26T13:18:09Z</time>
      </trkpt>
      <trkpt lat="44.81216" lon="5.88106">
        <ele>907.53</ele>
        <time>2018-08-26T13:18:11Z</time>
      </trkpt>
      <trkpt lat="44.81201" lon="5.88075">
        <ele>907.02</ele>
        <time>2018-08-26T13:18:13Z</time>
      </trkpt>
      <trkpt lat="44.81187" lon="5.88043">
        <ele>906.07</ele>
        <time>2018-08-26T13:18:15Z</time>
      </trkpt>
      <trkpt lat="44.81172" lon="5.88008">
        <ele>905.07</ele>
        <time>2018-08-26T13:18:17Z</time>
      </trkpt>
      <trkpt lat="44.81155" lon="5.87973">
        <ele>904.77</ele>
        <time>2018-08-26T13:18:19Z</time>
      </trkpt>
      <trkpt lat="44.81137" lon="5.87936">
        <ele>903.83</ele>
        <time>2018-08-26T13:18:21Z</time>
      </trkpt>
      <trkpt lat="44.81121" lon="5.87901">
        <ele>903.75</ele>
        <time>2018-08-26T13:18:23Z</time>
      </trkpt>
      <trkpt lat="44.81104" lon="5.87867">
        <ele>902.83</ele>
        <time>2018-08-26T13:18:25Z</time>
      </trkpt>
      <trkpt lat="44.81089" lon="5.87835">
        <ele>903.45</ele>
        <time>2018-08-26T13:18:27Z</time>
      </trkpt>
      <trkpt lat="44.8108" lon="5.87803">
        <ele>903.71</ele>
        <time>2018-08-26T13:18:29Z</time>
      </trkpt>
      <trkpt lat="44.8108" lon="5.87765">
        <ele>903.95</ele>
        <time>2018-08-26T13:18:31Z</time>
      </trkpt>
      <trkpt lat="44.81082" lon="5.8772">
        <ele>904.67</ele>
        <time>2018-08-26T13:18:33Z</time>
      </trkpt>
      <trkpt lat="44.81086" lon="5.87669">
        <ele>905.64</ele>
        <time>2018-08-26T13:18:35Z</time>
      </trkpt>
      <trkpt lat="44.81087" lon="5.87641">
        <ele>905.01</ele>
        <time>2018-08-26T13:18:36Z</time>
      </trkpt>
      <trkpt lat="44.81087" lon="5.87613">
        <ele>904.12</ele>
        <time>2018-08-26T13:18:37Z</time>
      </trkpt>
      <trkpt lat="44.81086" lon="5.87584">
        <ele>903.86</ele>
        <time>2018-08-26T13:18:38Z</time>
      </trkpt>
      <trkpt lat="44.81086" lon="5.87556">
        <ele>903.78</ele>
        <time>2018-08-26T13:18:39Z</time>
      </trkpt>
      <trkpt lat="44.81086" lon="5.87527">
        <ele>903.75</ele>
        <time>2018-08-26T13:18:40Z</time>
      </trkpt>
      <trkpt lat="44.81086" lon="5.87497">
        <ele>903.74</ele>
        <time>2018-08-26T13:18:41Z</time>
      </trkpt>
      <trkpt lat="44.81086" lon="5.87466">
        <ele>903.74</ele>
        <time>2018-08-26T13:18:42Z</time>
      </trkpt>
      <trkpt lat="44.81085" lon="5.87435">
        <ele>903.04</ele>
        <time>2018-08-26T13:18:43Z</time>
      </trkpt>
      <trkpt lat="44.81085" lon="5.87405">
        <ele>902.83</ele>
        <time>2018-08-26T13:18:44Z</time>
      </trkpt>
      <trkpt lat="44.81085" lon="5.87374">
        <ele>899.27</ele>
        <time>2018-08-26T13:18:45Z</time>
      </trkpt>
      <trkpt lat="44.81084" lon="5.87348">
        <ele>898.2</ele>
        <time>2018-08-26T13:18:46Z</time>
      </trkpt>
      <trkpt lat="44.8108" lon="5.87305">
        <ele>894.35</ele>
        <time>2018-08-26T13:18:48Z</time>
      </trkpt>
      <trkpt lat="44.81067" lon="5.8727">
        <ele>893.8</ele>
        <time>2018-08-26T13:18:50Z</time>
      </trkpt>
      <trkpt lat="44.81042" lon="5.87241">
        <ele>892.84</ele>
        <time>2018-08-26T13:18:52Z</time>
      </trkpt>
      <trkpt lat="44.81012" lon="5.87218">
        <ele>892.75</ele>
        <time>2018-08-26T13:18:54Z</time>
      </trkpt>
      <trkpt lat="44.80983" lon="5.87193">
        <ele>891.83</ele>
        <time>2018-08-26T13:18:56Z</time>
      </trkpt>
      <trkpt lat="44.80963" lon="5.87158">
        <ele>889.44</ele>
        <time>2018-08-26T13:18:58Z</time>
      </trkpt>
      <trkpt lat="44.80952" lon="5.87137">
        <ele>888.25</ele>
        <time>2018-08-26T13:18:59Z</time>
      </trkpt>
      <trkpt lat="44.80926" lon="5.87103">
        <ele>886.18</ele>
        <time>2018-08-26T13:19:01Z</time>
      </trkpt>
      <trkpt lat="44.8091" lon="5.87089">
        <ele>885.17</ele>
        <time>2018-08-26T13:19:02Z</time>
      </trkpt>
      <trkpt lat="44.80882" lon="5.87061">
        <ele>882.26</ele>
        <time>2018-08-26T13:19:04Z</time>
      </trkpt>
      <trkpt lat="44.80852" lon="5.87041">
        <ele>881.09</ele>
        <time>2018-08-26T13:19:06Z</time>
      </trkpt>
      <trkpt lat="44.80818" lon="5.87037">
        <ele>880.07</ele>
        <time>2018-08-26T13:19:08Z</time>
      </trkpt>
      <trkpt lat="44.808" lon="5.87036">
        <ele>877.74</ele>
        <time>2018-08-26T13:19:09Z</time>
      </trkpt>
      <trkpt lat="44.80782" lon="5.87035">
        <ele>877.04</ele>
        <time>2018-08-26T13:19:10Z</time>
      </trkpt>
      <trkpt lat="44.80748" lon="5.87031">
        <ele>876.07</ele>
        <time>2018-08-26T13:19:12Z</time>
      </trkpt>
      <trkpt lat="44.80716" lon="5.87029">
        <ele>875.98</ele>
        <time>2018-08-26T13:19:14Z</time>
      </trkpt>
      <trkpt lat="44.80689" lon="5.87016">
        <ele>875.76</ele>
        <time>2018-08-26T13:19:16Z</time>
      </trkpt>
      <trkpt lat="44.80674" lon="5.86996">
        <ele>873.92</ele>
        <time>2018-08-26T13:19:18Z</time>
      </trkpt>
      <trkpt lat="44.8068" lon="5.86962">
        <ele>872.77</ele>
        <time>2018-08-26T13:19:21Z</time>
      </trkpt>
      <trkpt lat="44.807" lon="5.86958">
        <ele>873.65</ele>
        <time>2018-08-26T13:19:23Z</time>
      </trkpt>
      <trkpt lat="44.80722" lon="5.86954">
        <ele>875.34</ele>
        <time>2018-08-26T13:19:25Z</time>
      </trkpt>
      <trkpt lat="44.80747" lon="5.86953">
        <ele>878.02</ele>
        <time>2018-08-26T13:19:27Z</time>
      </trkpt>
      <trkpt lat="44.8077" lon="5.86944">
        <ele>878.47</ele>
        <time>2018-08-26T13:19:29Z</time>
      </trkpt>
      <trkpt lat="44.80796" lon="5.86921">
        <ele>880.33</ele>
        <time>2018-08-26T13:19:31Z</time>
      </trkpt>
      <trkpt lat="44.80824" lon="5.86903">
        <ele>880.7</ele>
        <time>2018-08-26T13:19:33Z</time>
      </trkpt>
      <trkpt lat="44.80843" lon="5.86899">
        <ele>881.43</ele>
        <time>2018-08-26T13:19:34Z</time>
      </trkpt>
      <trkpt lat="44.80876" lon="5.869">
        <ele>885.14</ele>
        <time>2018-08-26T13:19:36Z</time>
      </trkpt>
      <trkpt lat="44.80902" lon="5.86878">
        <ele>887.09</ele>
        <time>2018-08-26T13:19:38Z</time>
      </trkpt>
      <trkpt lat="44.80931" lon="5.86857">
        <ele>891.11</ele>
        <time>2018-08-26T13:19:40Z</time>
      </trkpt>
      <trkpt lat="44.80955" lon="5.86842">
        <ele>892.59</ele>
        <time>2018-08-26T13:19:42Z</time>
      </trkpt>
      <trkpt lat="44.80973" lon="5.86863">
        <ele>895.46</ele>
        <time>2018-08-26T13:19:44Z</time>
      </trkpt>
      <trkpt lat="44.81001" lon="5.8687">
        <ele>898.45</ele>
        <time>2018-08-26T13:19:46Z</time>
      </trkpt>
      <trkpt lat="44.81033" lon="5.86879">
        <ele>901.23</ele>
        <time>2018-08-26T13:19:48Z</time>
      </trkpt>
      <trkpt lat="44.81052" lon="5.86883">
        <ele>902.99</ele>
        <time>2018-08-26T13:19:49Z</time>
      </trkpt>
      <trkpt lat="44.81073" lon="5.86886">
        <ele>905.62</ele>
        <time>2018-08-26T13:19:50Z</time>
      </trkpt>
      <trkpt lat="44.81093" lon="5.86891">
        <ele>906.4</ele>
        <time>2018-08-26T13:19:51Z</time>
      </trkpt>
      <trkpt lat="44.81113" lon="5.86896">
        <ele>908.04</ele>
        <time>2018-08-26T13:19:52Z</time>
      </trkpt>
      <trkpt lat="44.81131" lon="5.86901">
        <ele>909.23</ele>
        <time>2018-08-26T13:19:53Z</time>
      </trkpt>
      <trkpt lat="44.81159" lon="5.86913">
        <ele>911.31</ele>
        <time>2018-08-26T13:19:55Z</time>
      </trkpt>
      <trkpt lat="44.81176" lon="5.86943">
        <ele>913.31</ele>
        <time>2018-08-26T13:19:57Z</time>
      </trkpt>
      <trkpt lat="44.81191" lon="5.86967">
        <ele>915.1</ele>
        <time>2018-08-26T13:19:59Z</time>
      </trkpt>
      <trkpt lat="44.81214" lon="5.86974">
        <ele>917.29</ele>
        <time>2018-08-26T13:20:01Z</time>
      </trkpt>
      <trkpt lat="44.81246" lon="5.86964">
        <ele>917.91</ele>
        <time>2018-08-26T13:20:03Z</time>
      </trkpt>
      <trkpt lat="44.81265" lon="5.86955">
        <ele>918.49</ele>
        <time>2018-08-26T13:20:04Z</time>
      </trkpt>
      <trkpt lat="44.81283" lon="5.86946">
        <ele>918.67</ele>
        <time>2018-08-26T13:20:05Z</time>
      </trkpt>
      <trkpt lat="44.81303" lon="5.86936">
        <ele>918.72</ele>
        <time>2018-08-26T13:20:06Z</time>
      </trkpt>
      <trkpt lat="44.81324" lon="5.86926">
        <ele>918.03</ele>
        <time>2018-08-26T13:20:07Z</time>
      </trkpt>
      <trkpt lat="44.81348" lon="5.86915">
        <ele>917.13</ele>
        <time>2018-08-26T13:20:08Z</time>
      </trkpt>
      <trkpt lat="44.81373" lon="5.86903">
        <ele>916.86</ele>
        <time>2018-08-26T13:20:09Z</time>
      </trkpt>
      <trkpt lat="44.81397" lon="5.86891">
        <ele>916.08</ele>
        <time>2018-08-26T13:20:10Z</time>
      </trkpt>
      <trkpt lat="44.81422" lon="5.86879">
        <ele>915.14</ele>
        <time>2018-08-26T13:20:11Z</time>
      </trkpt>
      <trkpt lat="44.81447" lon="5.86867">
        <ele>914.86</ele>
        <time>2018-08-26T13:20:12Z</time>
      </trkpt>
      <trkpt lat="44.81471" lon="5.86855">
        <ele>914.08</ele>
        <time>2018-08-26T13:20:13Z</time>
      </trkpt>
      <trkpt lat="44.81495" lon="5.86844">
        <ele>913.14</ele>
        <time>2018-08-26T13:20:14Z</time>
      </trkpt>
      <trkpt lat="44.81519" lon="5.86833">
        <ele>912.16</ele>
        <time>2018-08-26T13:20:15Z</time>
      </trkpt>
      <trkpt lat="44.81542" lon="5.86822">
        <ele>911.17</ele>
        <time>2018-08-26T13:20:16Z</time>
      </trkpt>
      <trkpt lat="44.81564" lon="5.86811">
        <ele>910.17</ele>
        <time>2018-08-26T13:20:17Z</time>
      </trkpt>
      <trkpt lat="44.81585" lon="5.86801">
        <ele>909.17</ele>
        <time>2018-08-26T13:20:18Z</time>
      </trkpt>
      <trkpt lat="44.81606" lon="5.86791">
        <ele>908.87</ele>
        <time>2018-08-26T13:20:19Z</time>
      </trkpt>
      <trkpt lat="44.81626" lon="5.86781">
        <ele>908.08</ele>
        <time>2018-08-26T13:20:20Z</time>
      </trkpt>
      <trkpt lat="44.81646" lon="5.86772">
        <ele>907.14</ele>
        <time>2018-08-26T13:20:21Z</time>
      </trkpt>
      <trkpt lat="44.81665" lon="5.86762">
        <ele>906.86</ele>
        <time>2018-08-26T13:20:22Z</time>
      </trkpt>
      <trkpt lat="44.81683" lon="5.86754">
        <ele>906.08</ele>
        <time>2018-08-26T13:20:23Z</time>
      </trkpt>
      <trkpt lat="44.81712" lon="5.8673">
        <ele>905.77</ele>
        <time>2018-08-26T13:20:25Z</time>
      </trkpt>
      <trkpt lat="44.81731" lon="5.86694">
        <ele>904.13</ele>
        <time>2018-08-26T13:20:27Z</time>
      </trkpt>
      <trkpt lat="44.81733" lon="5.86656">
        <ele>903.78</ele>
        <time>2018-08-26T13:20:29Z</time>
      </trkpt>
      <trkpt lat="44.81724" lon="5.86632">
        <ele>903.04</ele>
        <time>2018-08-26T13:20:31Z</time>
      </trkpt>
      <trkpt lat="44.81703" lon="5.86621">
        <ele>901.16</ele>
        <time>2018-08-26T13:20:33Z</time>
      </trkpt>
      <trkpt lat="44.81675" lon="5.86608">
        <ele>898.96</ele>
        <time>2018-08-26T13:20:35Z</time>
      </trkpt>
      <trkpt lat="44.81639" lon="5.86589">
        <ele>898.06</ele>
        <time>2018-08-26T13:20:37Z</time>
      </trkpt>
      <trkpt lat="44.81621" lon="5.86577">
        <ele>896.44</ele>
        <time>2018-08-26T13:20:38Z</time>
      </trkpt>
      <trkpt lat="44.81601" lon="5.86566">
        <ele>895.95</ele>
        <time>2018-08-26T13:20:39Z</time>
      </trkpt>
      <trkpt lat="44.81582" lon="5.86553">
        <ele>895.1</ele>
        <time>2018-08-26T13:20:40Z</time>
      </trkpt>
      <trkpt lat="44.81552" lon="5.86532">
        <ele>894.07</ele>
        <time>2018-08-26T13:20:42Z</time>
      </trkpt>
      <trkpt lat="44.81521" lon="5.86524">
        <ele>892.37</ele>
        <time>2018-08-26T13:20:44Z</time>
      </trkpt>
      <trkpt lat="44.81487" lon="5.86538">
        <ele>891.1</ele>
        <time>2018-08-26T13:20:46Z</time>
      </trkpt>
      <trkpt lat="44.8147" lon="5.86546">
        <ele>891.55</ele>
        <time>2018-08-26T13:20:47Z</time>
      </trkpt>
      <trkpt lat="44.81451" lon="5.86551">
        <ele>890.98</ele>
        <time>2018-08-26T13:20:48Z</time>
      </trkpt>
      <trkpt lat="44.81432" lon="5.86551">
        <ele>890.81</ele>
        <time>2018-08-26T13:20:49Z</time>
      </trkpt>
      <trkpt lat="44.81412" lon="5.86553">
        <ele>889.36</ele>
        <time>2018-08-26T13:20:50Z</time>
      </trkpt>
      <trkpt lat="44.81391" lon="5.86554">
        <ele>886.83</ele>
        <time>2018-08-26T13:20:51Z</time>
      </trkpt>
      <trkpt lat="44.8137" lon="5.86556">
        <ele>885.37</ele>
        <time>2018-08-26T13:20:52Z</time>
      </trkpt>
      <trkpt lat="44.81351" lon="5.86558">
        <ele>881.43</ele>
        <time>2018-08-26T13:20:53Z</time>
      </trkpt>
      <trkpt lat="44.81332" lon="5.86555">
        <ele>879.55</ele>
        <time>2018-08-26T13:20:54Z</time>
      </trkpt>
      <trkpt lat="44.81297" lon="5.86538">
        <ele>875.38</ele>
        <time>2018-08-26T13:20:56Z</time>
      </trkpt>
      <trkpt lat="44.8128" lon="5.86525">
        <ele>874.23</ele>
        <time>2018-08-26T13:20:57Z</time>
      </trkpt>
      <trkpt lat="44.81264" lon="5.86511">
        <ele>873.89</ele>
        <time>2018-08-26T13:20:58Z</time>
      </trkpt>
      <trkpt lat="44.81233" lon="5.86492">
        <ele>871.23</ele>
        <time>2018-08-26T13:21:00Z</time>
      </trkpt>
      <trkpt lat="44.81211" lon="5.86471">
        <ele>869.39</ele>
        <time>2018-08-26T13:21:02Z</time>
      </trkpt>
      <trkpt lat="44.81209" lon="5.86445">
        <ele>870.41</ele>
        <time>2018-08-26T13:21:04Z</time>
      </trkpt>
      <trkpt lat="44.81213" lon="5.86412">
        <ele>871.62</ele>
        <time>2018-08-26T13:21:06Z</time>
      </trkpt>
      <trkpt lat="44.8123" lon="5.86385">
        <ele>872.43</ele>
        <time>2018-08-26T13:21:08Z</time>
      </trkpt>
      <trkpt lat="44.81258" lon="5.86359">
        <ele>875.23</ele>
        <time>2018-08-26T13:21:10Z</time>
      </trkpt>
      <trkpt lat="44.81283" lon="5.86328">
        <ele>877.1</ele>
        <time>2018-08-26T13:21:12Z</time>
      </trkpt>
      <trkpt lat="44.81288" lon="5.863">
        <ele>878.95</ele>
        <time>2018-08-26T13:21:13Z</time>
      </trkpt>
      <trkpt lat="44.81297" lon="5.86275">
        <ele>880.2</ele>
        <time>2018-08-26T13:21:14Z</time>
      </trkpt>
      <trkpt lat="44.81306" lon="5.86251">
        <ele>881.28</ele>
        <time>2018-08-26T13:21:15Z</time>
      </trkpt>
      <trkpt lat="44.81317" lon="5.86228">
        <ele>882.3</ele>
        <time>2018-08-26T13:21:16Z</time>
      </trkpt>
      <trkpt lat="44.81329" lon="5.86208">
        <ele>882.61</ele>
        <time>2018-08-26T13:21:17Z</time>
      </trkpt>
      <trkpt lat="44.81362" lon="5.86184">
        <ele>885.04</ele>
        <time>2018-08-26T13:21:19Z</time>
      </trkpt>
      <trkpt lat="44.8138" lon="5.86173">
        <ele>888.33</ele>
        <time>2018-08-26T13:21:20Z</time>
      </trkpt>
      <trkpt lat="44.81398" lon="5.86161">
        <ele>890.72</ele>
        <time>2018-08-26T13:21:21Z</time>
      </trkpt>
      <trkpt lat="44.81417" lon="5.86149">
        <ele>892.83</ele>
        <time>2018-08-26T13:21:22Z</time>
      </trkpt>
      <trkpt lat="44.81435" lon="5.86137">
        <ele>894.87</ele>
        <time>2018-08-26T13:21:23Z</time>
      </trkpt>
      <trkpt lat="44.81453" lon="5.86128">
        <ele>896.18</ele>
        <time>2018-08-26T13:21:24Z</time>
      </trkpt>
      <trkpt lat="44.81489" lon="5.86125">
        <ele>899</ele>
        <time>2018-08-26T13:21:26Z</time>
      </trkpt>
      <trkpt lat="44.81523" lon="5.86125">
        <ele>900.37</ele>
        <time>2018-08-26T13:21:28Z</time>
      </trkpt>
      <trkpt lat="44.81558" lon="5.8611">
        <ele>903.93</ele>
        <time>2018-08-26T13:21:30Z</time>
      </trkpt>
      <trkpt lat="44.81575" lon="5.86101">
        <ele>905.9</ele>
        <time>2018-08-26T13:21:31Z</time>
      </trkpt>
      <trkpt lat="44.81604" lon="5.86074">
        <ele>910.1</ele>
        <time>2018-08-26T13:21:33Z</time>
      </trkpt>
      <trkpt lat="44.81616" lon="5.86055">
        <ele>911.95</ele>
        <time>2018-08-26T13:21:34Z</time>
      </trkpt>
      <trkpt lat="44.81628" lon="5.86034">
        <ele>914.6</ele>
        <time>2018-08-26T13:21:35Z</time>
      </trkpt>
      <trkpt lat="44.81641" lon="5.86013">
        <ele>916.8</ele>
        <time>2018-08-26T13:21:36Z</time>
      </trkpt>
      <trkpt lat="44.81652" lon="5.85993">
        <ele>918.86</ele>
        <time>2018-08-26T13:21:37Z</time>
      </trkpt>
      <trkpt lat="44.81667" lon="5.85953">
        <ele>922.18</ele>
        <time>2018-08-26T13:21:39Z</time>
      </trkpt>
      <trkpt lat="44.81676" lon="5.85923">
        <ele>925.21</ele>
        <time>2018-08-26T13:21:41Z</time>
      </trkpt>
      <trkpt lat="44.81685" lon="5.85901">
        <ele>927.51</ele>
        <time>2018-08-26T13:21:43Z</time>
      </trkpt>
      <trkpt lat="44.81702" lon="5.85912">
        <ele>926.55</ele>
        <time>2018-08-26T13:21:46Z</time>
      </trkpt>
      <trkpt lat="44.81715" lon="5.85945">
        <ele>928.78</ele>
        <time>2018-08-26T13:21:47Z</time>
      </trkpt>
      <trkpt lat="44.81741" lon="5.85981">
        <ele>931.96</ele>
        <time>2018-08-26T13:21:49Z</time>
      </trkpt>
      <trkpt lat="44.81756" lon="5.85999">
        <ele>934.61</ele>
        <time>2018-08-26T13:21:50Z</time>
      </trkpt>
      <trkpt lat="44.81784" lon="5.86025">
        <ele>937.95</ele>
        <time>2018-08-26T13:21:52Z</time>
      </trkpt>
      <trkpt lat="44.81814" lon="5.86037">
        <ele>941.19</ele>
        <time>2018-08-26T13:21:54Z</time>
      </trkpt>
      <trkpt lat="44.81845" lon="5.8605">
        <ele>943.09</ele>
        <time>2018-08-26T13:21:56Z</time>
      </trkpt>
      <trkpt lat="44.81866" lon="5.86071">
        <ele>946.2</ele>
        <time>2018-08-26T13:21:58Z</time>
      </trkpt>
      <trkpt lat="44.81885" lon="5.86073">
        <ele>948.3</ele>
        <time>2018-08-26T13:22:00Z</time>
      </trkpt>
      <trkpt lat="44.81905" lon="5.86046">
        <ele>947.09</ele>
        <time>2018-08-26T13:22:02Z</time>
      </trkpt>
      <trkpt lat="44.81916" lon="5.85999">
        <ele>947.68</ele>
        <time>2018-08-26T13:22:04Z</time>
      </trkpt>
      <trkpt lat="44.81918" lon="5.8597">
        <ele>947.72</ele>
        <time>2018-08-26T13:22:05Z</time>
      </trkpt>
      <trkpt lat="44.8192" lon="5.85942">
        <ele>947.74</ele>
        <time>2018-08-26T13:22:06Z</time>
      </trkpt>
      <trkpt lat="44.81922" lon="5.85914">
        <ele>946.34</ele>
        <time>2018-08-26T13:22:07Z</time>
      </trkpt>
      <trkpt lat="44.81926" lon="5.85885">
        <ele>945.22</ele>
        <time>2018-08-26T13:22:08Z</time>
      </trkpt>
      <trkpt lat="44.81932" lon="5.85858">
        <ele>944.88</ele>
        <time>2018-08-26T13:22:09Z</time>
      </trkpt>
      <trkpt lat="44.8194" lon="5.85831">
        <ele>944.08</ele>
        <time>2018-08-26T13:22:10Z</time>
      </trkpt>
      <trkpt lat="44.81951" lon="5.85805">
        <ele>943.84</ele>
        <time>2018-08-26T13:22:11Z</time>
      </trkpt>
      <trkpt lat="44.81961" lon="5.8578">
        <ele>943.07</ele>
        <time>2018-08-26T13:22:12Z</time>
      </trkpt>
      <trkpt lat="44.81971" lon="5.85757">
        <ele>942.84</ele>
        <time>2018-08-26T13:22:13Z</time>
      </trkpt>
      <trkpt lat="44.81978" lon="5.8573">
        <ele>942.07</ele>
        <time>2018-08-26T13:22:14Z</time>
      </trkpt>
      <trkpt lat="44.81984" lon="5.85703">
        <ele>941.84</ele>
        <time>2018-08-26T13:22:15Z</time>
      </trkpt>
      <trkpt lat="44.81987" lon="5.85677">
        <ele>940.37</ele>
        <time>2018-08-26T13:22:16Z</time>
      </trkpt>
      <trkpt lat="44.81999" lon="5.85641">
        <ele>939.1</ele>
        <time>2018-08-26T13:22:18Z</time>
      </trkpt>
      <trkpt lat="44.8202" lon="5.85622">
        <ele>937.86</ele>
        <time>2018-08-26T13:22:20Z</time>
      </trkpt>
      <trkpt lat="44.82046" lon="5.85603">
        <ele>937.75</ele>
        <time>2018-08-26T13:22:22Z</time>
      </trkpt>
      <trkpt lat="44.82059" lon="5.85586">
        <ele>937.74</ele>
        <time>2018-08-26T13:22:23Z</time>
      </trkpt>
      <trkpt lat="44.82072" lon="5.85564">
        <ele>938.44</ele>
        <time>2018-08-26T13:22:24Z</time>
      </trkpt>
      <trkpt lat="44.82085" lon="5.85541">
        <ele>937.95</ele>
        <time>2018-08-26T13:22:25Z</time>
      </trkpt>
      <trkpt lat="44.82095" lon="5.85518">
        <ele>937.8</ele>
        <time>2018-08-26T13:22:26Z</time>
      </trkpt>
      <trkpt lat="44.8211" lon="5.85474">
        <ele>936.84</ele>
        <time>2018-08-26T13:22:28Z</time>
      </trkpt>
      <trkpt lat="44.82122" lon="5.85429">
        <ele>936.54</ele>
        <time>2018-08-26T13:22:30Z</time>
      </trkpt>
      <trkpt lat="44.82142" lon="5.85395">
        <ele>936.93</ele>
        <time>2018-08-26T13:22:32Z</time>
      </trkpt>
      <trkpt lat="44.8216" lon="5.85382">
        <ele>935.4</ele>
        <time>2018-08-26T13:22:33Z</time>
      </trkpt>
      <trkpt lat="44.82176" lon="5.85365">
        <ele>935.64</ele>
        <time>2018-08-26T13:22:34Z</time>
      </trkpt>
      <trkpt lat="44.82193" lon="5.85349">
        <ele>935.01</ele>
        <time>2018-08-26T13:22:35Z</time>
      </trkpt>
      <trkpt lat="44.82209" lon="5.85331">
        <ele>934.12</ele>
        <time>2018-08-26T13:22:36Z</time>
      </trkpt>
      <trkpt lat="44.82223" lon="5.85312">
        <ele>933.86</ele>
        <time>2018-08-26T13:22:37Z</time>
      </trkpt>
      <trkpt lat="44.82236" lon="5.85291">
        <ele>933.78</ele>
        <time>2018-08-26T13:22:38Z</time>
      </trkpt>
      <trkpt lat="44.82247" lon="5.85266">
        <ele>933.75</ele>
        <time>2018-08-26T13:22:39Z</time>
      </trkpt>
      <trkpt lat="44.82257" lon="5.8524">
        <ele>933.74</ele>
        <time>2018-08-26T13:22:40Z</time>
      </trkpt>
      <trkpt lat="44.82267" lon="5.85214">
        <ele>933.04</ele>
        <time>2018-08-26T13:22:41Z</time>
      </trkpt>
      <trkpt lat="44.82276" lon="5.85189">
        <ele>933.53</ele>
        <time>2018-08-26T13:22:42Z</time>
      </trkpt>
      <trkpt lat="44.82285" lon="5.85167">
        <ele>932.98</ele>
        <time>2018-08-26T13:22:43Z</time>
      </trkpt>
      <trkpt lat="44.8231" lon="5.85138">
        <ele>932.55</ele>
        <time>2018-08-26T13:22:45Z</time>
      </trkpt>
      <trkpt lat="44.82339" lon="5.85133">
        <ele>934.33</ele>
        <time>2018-08-26T13:22:47Z</time>
      </trkpt>
      <trkpt lat="44.82366" lon="5.85126">
        <ele>935.4</ele>
        <time>2018-08-26T13:22:49Z</time>
      </trkpt>
      <trkpt lat="44.82395" lon="5.85096">
        <ele>937.32</ele>
        <time>2018-08-26T13:22:51Z</time>
      </trkpt>
      <trkpt lat="44.82409" lon="5.85073">
        <ele>937.61</ele>
        <time>2018-08-26T13:22:52Z</time>
      </trkpt>
      <trkpt lat="44.82423" lon="5.85049">
        <ele>937.7</ele>
        <time>2018-08-26T13:22:53Z</time>
      </trkpt>
      <trkpt lat="44.82438" lon="5.85023">
        <ele>937.03</ele>
        <time>2018-08-26T13:22:54Z</time>
      </trkpt>
      <trkpt lat="44.82455" lon="5.84998">
        <ele>936.83</ele>
        <time>2018-08-26T13:22:55Z</time>
      </trkpt>
      <trkpt lat="44.8247" lon="5.84973">
        <ele>936.77</ele>
        <time>2018-08-26T13:22:56Z</time>
      </trkpt>
      <trkpt lat="44.82485" lon="5.84949">
        <ele>936.05</ele>
        <time>2018-08-26T13:22:57Z</time>
      </trkpt>
      <trkpt lat="44.825" lon="5.84924">
        <ele>935.13</ele>
        <time>2018-08-26T13:22:58Z</time>
      </trkpt>
      <trkpt lat="44.82517" lon="5.84899">
        <ele>933.46</ele>
        <time>2018-08-26T13:22:59Z</time>
      </trkpt>
      <trkpt lat="44.82532" lon="5.84874">
        <ele>932.26</ele>
        <time>2018-08-26T13:23:00Z</time>
      </trkpt>
      <trkpt lat="44.82548" lon="5.84847">
        <ele>930.5</ele>
        <time>2018-08-26T13:23:01Z</time>
      </trkpt>
      <trkpt lat="44.82562" lon="5.84818">
        <ele>929.27</ele>
        <time>2018-08-26T13:23:02Z</time>
      </trkpt>
      <trkpt lat="44.82574" lon="5.84788">
        <ele>927.5</ele>
        <time>2018-08-26T13:23:03Z</time>
      </trkpt>
      <trkpt lat="44.82585" lon="5.84758">
        <ele>926.97</ele>
        <time>2018-08-26T13:23:04Z</time>
      </trkpt>
      <trkpt lat="44.82596" lon="5.8473">
        <ele>925.41</ele>
        <time>2018-08-26T13:23:05Z</time>
      </trkpt>
      <trkpt lat="44.8261" lon="5.84706">
        <ele>924.24</ele>
        <time>2018-08-26T13:23:06Z</time>
      </trkpt>
      <trkpt lat="44.82626" lon="5.84683">
        <ele>923.19</ele>
        <time>2018-08-26T13:23:07Z</time>
      </trkpt>
      <trkpt lat="44.82644" lon="5.84663">
        <ele>921.48</ele>
        <time>2018-08-26T13:23:08Z</time>
      </trkpt>
      <trkpt lat="44.82662" lon="5.84644">
        <ele>920.26</ele>
        <time>2018-08-26T13:23:09Z</time>
      </trkpt>
      <trkpt lat="44.82679" lon="5.84624">
        <ele>919.2</ele>
        <time>2018-08-26T13:23:10Z</time>
      </trkpt>
      <trkpt lat="44.82694" lon="5.84602">
        <ele>918.18</ele>
        <time>2018-08-26T13:23:11Z</time>
      </trkpt>
      <trkpt lat="44.82708" lon="5.84579">
        <ele>917.17</ele>
        <time>2018-08-26T13:23:12Z</time>
      </trkpt>
      <trkpt lat="44.82721" lon="5.84555">
        <ele>915.47</ele>
        <time>2018-08-26T13:23:13Z</time>
      </trkpt>
      <trkpt lat="44.82731" lon="5.84533">
        <ele>914.26</ele>
        <time>2018-08-26T13:23:14Z</time>
      </trkpt>
      <trkpt lat="44.82742" lon="5.84488">
        <ele>911.27</ele>
        <time>2018-08-26T13:23:16Z</time>
      </trkpt>
      <trkpt lat="44.8274" lon="5.8444">
        <ele>910.79</ele>
        <time>2018-08-26T13:23:18Z</time>
      </trkpt>
      <trkpt lat="44.82734" lon="5.84394">
        <ele>910.75</ele>
        <time>2018-08-26T13:23:20Z</time>
      </trkpt>
      <trkpt lat="44.82729" lon="5.84352">
        <ele>908.92</ele>
        <time>2018-08-26T13:23:22Z</time>
      </trkpt>
      <trkpt lat="44.82721" lon="5.84314">
        <ele>907.15</ele>
        <time>2018-08-26T13:23:24Z</time>
      </trkpt>
      <trkpt lat="44.82709" lon="5.84281">
        <ele>904.47</ele>
        <time>2018-08-26T13:23:26Z</time>
      </trkpt>
      <trkpt lat="44.82698" lon="5.84251">
        <ele>902.2</ele>
        <time>2018-08-26T13:23:28Z</time>
      </trkpt>
      <trkpt lat="44.82692" lon="5.84219">
        <ele>900.17</ele>
        <time>2018-08-26T13:23:30Z</time>
      </trkpt>
      <trkpt lat="44.82691" lon="5.84186">
        <ele>898.87</ele>
        <time>2018-08-26T13:23:32Z</time>
      </trkpt>
      <trkpt lat="44.82699" lon="5.84158">
        <ele>897.84</ele>
        <time>2018-08-26T13:23:34Z</time>
      </trkpt>
      <trkpt lat="44.82711" lon="5.84132">
        <ele>897.75</ele>
        <time>2018-08-26T13:23:36Z</time>
      </trkpt>
      <trkpt lat="44.82726" lon="5.84104">
        <ele>897.74</ele>
        <time>2018-08-26T13:23:38Z</time>
      </trkpt>
      <trkpt lat="44.82741" lon="5.84077">
        <ele>899.35</ele>
        <time>2018-08-26T13:23:40Z</time>
      </trkpt>
      <trkpt lat="44.82755" lon="5.84049">
        <ele>900.41</ele>
        <time>2018-08-26T13:23:42Z</time>
      </trkpt>
      <trkpt lat="44.82767" lon="5.84027">
        <ele>900.71</ele>
        <time>2018-08-26T13:23:44Z</time>
      </trkpt>
      <trkpt lat="44.82784" lon="5.83997">
        <ele>901.71</ele>
        <time>2018-08-26T13:23:47Z</time>
      </trkpt>
      <trkpt lat="44.82796" lon="5.83975">
        <ele>901.04</ele>
        <time>2018-08-26T13:23:49Z</time>
      </trkpt>
      <trkpt lat="44.82809" lon="5.83948">
        <ele>900.77</ele>
        <time>2018-08-26T13:23:51Z</time>
      </trkpt>
      <trkpt lat="44.82826" lon="5.83922">
        <ele>900.04</ele>
        <time>2018-08-26T13:23:53Z</time>
      </trkpt>
      <trkpt lat="44.82848" lon="5.83899">
        <ele>899.77</ele>
        <time>2018-08-26T13:23:55Z</time>
      </trkpt>
      <trkpt lat="44.82876" lon="5.83879">
        <ele>899.74</ele>
        <time>2018-08-26T13:23:57Z</time>
      </trkpt>
      <trkpt lat="44.82904" lon="5.83858">
        <ele>899.04</ele>
        <time>2018-08-26T13:23:59Z</time>
      </trkpt>
      <trkpt lat="44.82933" lon="5.83836">
        <ele>898.07</ele>
        <time>2018-08-26T13:24:01Z</time>
      </trkpt>
      <trkpt lat="44.82962" lon="5.83815">
        <ele>896.86</ele>
        <time>2018-08-26T13:24:03Z</time>
      </trkpt>
      <trkpt lat="44.8299" lon="5.83792">
        <ele>895.84</ele>
        <time>2018-08-26T13:24:05Z</time>
      </trkpt>
      <trkpt lat="44.83002" lon="5.83762">
        <ele>894.84</ele>
        <time>2018-08-26T13:24:07Z</time>
      </trkpt>
      <trkpt lat="44.83001" lon="5.83723">
        <ele>893.84</ele>
        <time>2018-08-26T13:24:09Z</time>
      </trkpt>
      <trkpt lat="44.82998" lon="5.83683">
        <ele>891.23</ele>
        <time>2018-08-26T13:24:11Z</time>
      </trkpt>
      <trkpt lat="44.83002" lon="5.83649">
        <ele>889.17</ele>
        <time>2018-08-26T13:24:13Z</time>
      </trkpt>
      <trkpt lat="44.83015" lon="5.83627">
        <ele>887.87</ele>
        <time>2018-08-26T13:24:15Z</time>
      </trkpt>
      <trkpt lat="44.83044" lon="5.83639">
        <ele>887.05</ele>
        <time>2018-08-26T13:24:17Z</time>
      </trkpt>
      <trkpt lat="44.83083" lon="5.83669">
        <ele>887.68</ele>
        <time>2018-08-26T13:24:19Z</time>
      </trkpt>
      <trkpt lat="44.83102" lon="5.83679">
        <ele>887.72</ele>
        <time>2018-08-26T13:24:20Z</time>
      </trkpt>
      <trkpt lat="44.8312" lon="5.83689">
        <ele>887.74</ele>
        <time>2018-08-26T13:24:21Z</time>
      </trkpt>
      <trkpt lat="44.83154" lon="5.83707">
        <ele>886.83</ele>
        <time>2018-08-26T13:24:23Z</time>
      </trkpt>
      <trkpt lat="44.83172" lon="5.83713">
        <ele>886.07</ele>
        <time>2018-08-26T13:24:24Z</time>
      </trkpt>
      <trkpt lat="44.83191" lon="5.83715">
        <ele>885.84</ele>
        <time>2018-08-26T13:24:25Z</time>
      </trkpt>
      <trkpt lat="44.8321" lon="5.83713">
        <ele>885.77</ele>
        <time>2018-08-26T13:24:26Z</time>
      </trkpt>
      <trkpt lat="44.8323" lon="5.83703">
        <ele>885.75</ele>
        <time>2018-08-26T13:24:27Z</time>
      </trkpt>
      <trkpt lat="44.8325" lon="5.83688">
        <ele>885.04</ele>
        <time>2018-08-26T13:24:28Z</time>
      </trkpt>
      <trkpt lat="44.8327" lon="5.83669">
        <ele>885.53</ele>
        <time>2018-08-26T13:24:29Z</time>
      </trkpt>
      <trkpt lat="44.83289" lon="5.83648">
        <ele>885.68</ele>
        <time>2018-08-26T13:24:30Z</time>
      </trkpt>
      <trkpt lat="44.83309" lon="5.83628">
        <ele>885.72</ele>
        <time>2018-08-26T13:24:31Z</time>
      </trkpt>
      <trkpt lat="44.83329" lon="5.83608">
        <ele>885.04</ele>
        <time>2018-08-26T13:24:32Z</time>
      </trkpt>
      <trkpt lat="44.83349" lon="5.83588">
        <ele>884.83</ele>
        <time>2018-08-26T13:24:33Z</time>
      </trkpt>
      <trkpt lat="44.83368" lon="5.83567">
        <ele>884.07</ele>
        <time>2018-08-26T13:24:34Z</time>
      </trkpt>
      <trkpt lat="44.83387" lon="5.83549">
        <ele>883.84</ele>
        <time>2018-08-26T13:24:35Z</time>
      </trkpt>
      <trkpt lat="44.83405" lon="5.8353">
        <ele>883.77</ele>
        <time>2018-08-26T13:24:36Z</time>
      </trkpt>
      <trkpt lat="44.83423" lon="5.83511">
        <ele>883.75</ele>
        <time>2018-08-26T13:24:37Z</time>
      </trkpt>
      <trkpt lat="44.83441" lon="5.83493">
        <ele>883.04</ele>
        <time>2018-08-26T13:24:38Z</time>
      </trkpt>
      <trkpt lat="44.83459" lon="5.83474">
        <ele>883.53</ele>
        <time>2018-08-26T13:24:39Z</time>
      </trkpt>
      <trkpt lat="44.83478" lon="5.83456">
        <ele>882.98</ele>
        <time>2018-08-26T13:24:40Z</time>
      </trkpt>
      <trkpt lat="44.83496" lon="5.83436">
        <ele>883.51</ele>
        <time>2018-08-26T13:24:41Z</time>
      </trkpt>
      <trkpt lat="44.83514" lon="5.83415">
        <ele>884.37</ele>
        <time>2018-08-26T13:24:42Z</time>
      </trkpt>
      <trkpt lat="44.8353" lon="5.83392">
        <ele>884.63</ele>
        <time>2018-08-26T13:24:43Z</time>
      </trkpt>
      <trkpt lat="44.83546" lon="5.83369">
        <ele>884.71</ele>
        <time>2018-08-26T13:24:44Z</time>
      </trkpt>
      <trkpt lat="44.83562" lon="5.83346">
        <ele>884.73</ele>
        <time>2018-08-26T13:24:45Z</time>
      </trkpt>
      <trkpt lat="44.83578" lon="5.83323">
        <ele>884.74</ele>
        <time>2018-08-26T13:24:46Z</time>
      </trkpt>
      <trkpt lat="44.83595" lon="5.83298">
        <ele>884.74</ele>
        <time>2018-08-26T13:24:47Z</time>
      </trkpt>
      <trkpt lat="44.83612" lon="5.83274">
        <ele>884.74</ele>
        <time>2018-08-26T13:24:48Z</time>
      </trkpt>
      <trkpt lat="44.83629" lon="5.83249">
        <ele>884.74</ele>
        <time>2018-08-26T13:24:49Z</time>
      </trkpt>
      <trkpt lat="44.83646" lon="5.83223">
        <ele>884.74</ele>
        <time>2018-08-26T13:24:50Z</time>
      </trkpt>
      <trkpt lat="44.83663" lon="5.83197">
        <ele>884.74</ele>
        <time>2018-08-26T13:24:51Z</time>
      </trkpt>
      <trkpt lat="44.83682" lon="5.83174">
        <ele>884.04</ele>
        <time>2018-08-26T13:24:52Z</time>
      </trkpt>
      <trkpt lat="44.83702" lon="5.83156">
        <ele>883.83</ele>
        <time>2018-08-26T13:24:53Z</time>
      </trkpt>
      <trkpt lat="44.83723" lon="5.83139">
        <ele>883.77</ele>
        <time>2018-08-26T13:24:54Z</time>
      </trkpt>
      <trkpt lat="44.83749" lon="5.8313">
        <ele>884.45</ele>
        <time>2018-08-26T13:24:55Z</time>
      </trkpt>
      <trkpt lat="44.83772" lon="5.83119">
        <ele>885.35</ele>
        <time>2018-08-26T13:24:56Z</time>
      </trkpt>
      <trkpt lat="44.83794" lon="5.83107">
        <ele>886.32</ele>
        <time>2018-08-26T13:24:57Z</time>
      </trkpt>
      <trkpt lat="44.83813" lon="5.83094">
        <ele>887.32</ele>
        <time>2018-08-26T13:24:58Z</time>
      </trkpt>
      <trkpt lat="44.83831" lon="5.83079">
        <ele>887.61</ele>
        <time>2018-08-26T13:24:59Z</time>
      </trkpt>
      <trkpt lat="44.83846" lon="5.83063">
        <ele>888.4</ele>
        <time>2018-08-26T13:25:00Z</time>
      </trkpt>
      <trkpt lat="44.83861" lon="5.83045">
        <ele>887.94</ele>
        <time>2018-08-26T13:25:01Z</time>
      </trkpt>
      <trkpt lat="44.83874" lon="5.83024">
        <ele>887.1</ele>
        <time>2018-08-26T13:25:02Z</time>
      </trkpt>
      <trkpt lat="44.83886" lon="5.82998">
        <ele>886.85</ele>
        <time>2018-08-26T13:25:03Z</time>
      </trkpt>
      <trkpt lat="44.83898" lon="5.8297">
        <ele>886.07</ele>
        <time>2018-08-26T13:25:04Z</time>
      </trkpt>
      <trkpt lat="44.8391" lon="5.82944">
        <ele>885.84</ele>
        <time>2018-08-26T13:25:05Z</time>
      </trkpt>
      <trkpt lat="44.83921" lon="5.82918">
        <ele>885.77</ele>
        <time>2018-08-26T13:25:06Z</time>
      </trkpt>
      <trkpt lat="44.83932" lon="5.8289">
        <ele>885.05</ele>
        <time>2018-08-26T13:25:07Z</time>
      </trkpt>
      <trkpt lat="44.83943" lon="5.82864">
        <ele>884.83</ele>
        <time>2018-08-26T13:25:08Z</time>
      </trkpt>
      <trkpt lat="44.83953" lon="5.82837">
        <ele>884.07</ele>
        <time>2018-08-26T13:25:09Z</time>
      </trkpt>
      <trkpt lat="44.83964" lon="5.82811">
        <ele>883.84</ele>
        <time>2018-08-26T13:25:10Z</time>
      </trkpt>
      <trkpt lat="44.83976" lon="5.82786">
        <ele>883.77</ele>
        <time>2018-08-26T13:25:11Z</time>
      </trkpt>
      <trkpt lat="44.83989" lon="5.82764">
        <ele>883.75</ele>
        <time>2018-08-26T13:25:12Z</time>
      </trkpt>
      <trkpt lat="44.84003" lon="5.82744">
        <ele>884.44</ele>
        <time>2018-08-26T13:25:13Z</time>
      </trkpt>
      <trkpt lat="44.84018" lon="5.82727">
        <ele>884.65</ele>
        <time>2018-08-26T13:25:14Z</time>
      </trkpt>
      <trkpt lat="44.84036" lon="5.82712">
        <ele>884.71</ele>
        <time>2018-08-26T13:25:15Z</time>
      </trkpt>
      <trkpt lat="44.84054" lon="5.82698">
        <ele>885.43</ele>
        <time>2018-08-26T13:25:16Z</time>
      </trkpt>
      <trkpt lat="44.84071" lon="5.82681">
        <ele>885.65</ele>
        <time>2018-08-26T13:25:17Z</time>
      </trkpt>
      <trkpt lat="44.84086" lon="5.82662">
        <ele>886.41</ele>
        <time>2018-08-26T13:25:18Z</time>
      </trkpt>
      <trkpt lat="44.84101" lon="5.8264">
        <ele>886.64</ele>
        <time>2018-08-26T13:25:19Z</time>
      </trkpt>
      <trkpt lat="44.84114" lon="5.82618">
        <ele>886.71</ele>
        <time>2018-08-26T13:25:20Z</time>
      </trkpt>
      <trkpt lat="44.84128" lon="5.82594">
        <ele>887.43</ele>
        <time>2018-08-26T13:25:21Z</time>
      </trkpt>
      <trkpt lat="44.84141" lon="5.8257">
        <ele>888.35</ele>
        <time>2018-08-26T13:25:22Z</time>
      </trkpt>
      <trkpt lat="44.84157" lon="5.82548">
        <ele>888.62</ele>
        <time>2018-08-26T13:25:23Z</time>
      </trkpt>
      <trkpt lat="44.84175" lon="5.82528">
        <ele>889.41</ele>
        <time>2018-08-26T13:25:24Z</time>
      </trkpt>
      <trkpt lat="44.84191" lon="5.82505">
        <ele>888.94</ele>
        <time>2018-08-26T13:25:25Z</time>
      </trkpt>
      <trkpt lat="44.84208" lon="5.82481">
        <ele>889.5</ele>
        <time>2018-08-26T13:25:26Z</time>
      </trkpt>
      <trkpt lat="44.84225" lon="5.82457">
        <ele>889.67</ele>
        <time>2018-08-26T13:25:27Z</time>
      </trkpt>
      <trkpt lat="44.84242" lon="5.82432">
        <ele>889.72</ele>
        <time>2018-08-26T13:25:28Z</time>
      </trkpt>
      <trkpt lat="44.84257" lon="5.82408">
        <ele>889.73</ele>
        <time>2018-08-26T13:25:29Z</time>
      </trkpt>
      <trkpt lat="44.84272" lon="5.82384">
        <ele>889.74</ele>
        <time>2018-08-26T13:25:30Z</time>
      </trkpt>
      <trkpt lat="44.84286" lon="5.82361">
        <ele>889.74</ele>
        <time>2018-08-26T13:25:31Z</time>
      </trkpt>
      <trkpt lat="44.84299" lon="5.82336">
        <ele>890.44</ele>
        <time>2018-08-26T13:25:32Z</time>
      </trkpt>
      <trkpt lat="44.8431" lon="5.82308">
        <ele>890.65</ele>
        <time>2018-08-26T13:25:33Z</time>
      </trkpt>
      <trkpt lat="44.8432" lon="5.82278">
        <ele>891.41</ele>
        <time>2018-08-26T13:25:34Z</time>
      </trkpt>
      <trkpt lat="44.84329" lon="5.82246">
        <ele>891.64</ele>
        <time>2018-08-26T13:25:35Z</time>
      </trkpt>
      <trkpt lat="44.84338" lon="5.82214">
        <ele>891.71</ele>
        <time>2018-08-26T13:25:36Z</time>
      </trkpt>
      <trkpt lat="44.84347" lon="5.82182">
        <ele>892.43</ele>
        <time>2018-08-26T13:25:37Z</time>
      </trkpt>
      <trkpt lat="44.84356" lon="5.8215">
        <ele>893.35</ele>
        <time>2018-08-26T13:25:38Z</time>
      </trkpt>
      <trkpt lat="44.84363" lon="5.82117">
        <ele>893.62</ele>
        <time>2018-08-26T13:25:39Z</time>
      </trkpt>
      <trkpt lat="44.84368" lon="5.82083">
        <ele>894.41</ele>
        <time>2018-08-26T13:25:40Z</time>
      </trkpt>
      <trkpt lat="44.84372" lon="5.82048">
        <ele>894.64</ele>
        <time>2018-08-26T13:25:41Z</time>
      </trkpt>
      <trkpt lat="44.84377" lon="5.82012">
        <ele>895.41</ele>
        <time>2018-08-26T13:25:42Z</time>
      </trkpt>
      <trkpt lat="44.84382" lon="5.81977">
        <ele>895.64</ele>
        <time>2018-08-26T13:25:43Z</time>
      </trkpt>
      <trkpt lat="44.84386" lon="5.81942">
        <ele>896.41</ele>
        <time>2018-08-26T13:25:44Z</time>
      </trkpt>
      <trkpt lat="44.84391" lon="5.81907">
        <ele>897.34</ele>
        <time>2018-08-26T13:25:45Z</time>
      </trkpt>
      <trkpt lat="44.84395" lon="5.81872">
        <ele>897.62</ele>
        <time>2018-08-26T13:25:46Z</time>
      </trkpt>
      <trkpt lat="44.84399" lon="5.81839">
        <ele>897.71</ele>
        <time>2018-08-26T13:25:47Z</time>
      </trkpt>
      <trkpt lat="44.84401" lon="5.81808">
        <ele>897.73</ele>
        <time>2018-08-26T13:25:48Z</time>
      </trkpt>
      <trkpt lat="44.844" lon="5.81777">
        <ele>897.74</ele>
        <time>2018-08-26T13:25:49Z</time>
      </trkpt>
      <trkpt lat="44.84395" lon="5.81744">
        <ele>897.04</ele>
        <time>2018-08-26T13:25:50Z</time>
      </trkpt>
      <trkpt lat="44.84389" lon="5.81713">
        <ele>897.53</ele>
        <time>2018-08-26T13:25:51Z</time>
      </trkpt>
      <trkpt lat="44.84383" lon="5.81682">
        <ele>897.68</ele>
        <time>2018-08-26T13:25:52Z</time>
      </trkpt>
      <trkpt lat="44.84378" lon="5.81651">
        <ele>897.72</ele>
        <time>2018-08-26T13:25:53Z</time>
      </trkpt>
      <trkpt lat="44.84376" lon="5.81618">
        <ele>898.44</ele>
        <time>2018-08-26T13:25:54Z</time>
      </trkpt>
      <trkpt lat="44.84378" lon="5.81584">
        <ele>898.65</ele>
        <time>2018-08-26T13:25:55Z</time>
      </trkpt>
      <trkpt lat="44.84382" lon="5.8155">
        <ele>898.71</ele>
        <time>2018-08-26T13:25:56Z</time>
      </trkpt>
      <trkpt lat="44.84387" lon="5.81517">
        <ele>899.43</ele>
        <time>2018-08-26T13:25:57Z</time>
      </trkpt>
      <trkpt lat="44.84392" lon="5.81484">
        <ele>899.65</ele>
        <time>2018-08-26T13:25:58Z</time>
      </trkpt>
      <trkpt lat="44.84397" lon="5.8145">
        <ele>899.71</ele>
        <time>2018-08-26T13:25:59Z</time>
      </trkpt>
      <trkpt lat="44.84401" lon="5.81416">
        <ele>900.43</ele>
        <time>2018-08-26T13:26:00Z</time>
      </trkpt>
      <trkpt lat="44.84406" lon="5.81382">
        <ele>900.65</ele>
        <time>2018-08-26T13:26:01Z</time>
      </trkpt>
      <trkpt lat="44.84411" lon="5.81348">
        <ele>900.71</ele>
        <time>2018-08-26T13:26:02Z</time>
      </trkpt>
      <trkpt lat="44.84415" lon="5.81313">
        <ele>901.43</ele>
        <time>2018-08-26T13:26:03Z</time>
      </trkpt>
      <trkpt lat="44.84419" lon="5.81281">
        <ele>901.65</ele>
        <time>2018-08-26T13:26:04Z</time>
      </trkpt>
      <trkpt lat="44.84423" lon="5.81249">
        <ele>901.71</ele>
        <time>2018-08-26T13:26:05Z</time>
      </trkpt>
      <trkpt lat="44.84427" lon="5.8122">
        <ele>902.43</ele>
        <time>2018-08-26T13:26:06Z</time>
      </trkpt>
      <trkpt lat="44.8443" lon="5.81193">
        <ele>902.65</ele>
        <time>2018-08-26T13:26:07Z</time>
      </trkpt>
      <trkpt lat="44.8443" lon="5.81166">
        <ele>903.41</ele>
        <time>2018-08-26T13:26:08Z</time>
      </trkpt>
      <trkpt lat="44.84427" lon="5.81137">
        <ele>903.64</ele>
        <time>2018-08-26T13:26:09Z</time>
      </trkpt>
      <trkpt lat="44.84422" lon="5.81108">
        <ele>903.01</ele>
        <time>2018-08-26T13:26:10Z</time>
      </trkpt>
      <trkpt lat="44.84417" lon="5.81077">
        <ele>903.52</ele>
        <time>2018-08-26T13:26:11Z</time>
      </trkpt>
      <trkpt lat="44.8441" lon="5.81047">
        <ele>903.68</ele>
        <time>2018-08-26T13:26:12Z</time>
      </trkpt>
      <trkpt lat="44.84405" lon="5.81014">
        <ele>903.02</ele>
        <time>2018-08-26T13:26:13Z</time>
      </trkpt>
      <trkpt lat="44.84398" lon="5.8098">
        <ele>902.83</ele>
        <time>2018-08-26T13:26:14Z</time>
      </trkpt>
      <trkpt lat="44.84392" lon="5.80946">
        <ele>902.07</ele>
        <time>2018-08-26T13:26:15Z</time>
      </trkpt>
      <trkpt lat="44.84386" lon="5.80911">
        <ele>901.84</ele>
        <time>2018-08-26T13:26:16Z</time>
      </trkpt>
      <trkpt lat="44.8438" lon="5.80875">
        <ele>901.77</ele>
        <time>2018-08-26T13:26:17Z</time>
      </trkpt>
      <trkpt lat="44.84374" lon="5.80841">
        <ele>901.75</ele>
        <time>2018-08-26T13:26:18Z</time>
      </trkpt>
      <trkpt lat="44.8437" lon="5.80806">
        <ele>901.74</ele>
        <time>2018-08-26T13:26:19Z</time>
      </trkpt>
      <trkpt lat="44.84367" lon="5.8077">
        <ele>901.74</ele>
        <time>2018-08-26T13:26:20Z</time>
      </trkpt>
      <trkpt lat="44.84366" lon="5.80735">
        <ele>903.14</ele>
        <time>2018-08-26T13:26:21Z</time>
      </trkpt>
      <trkpt lat="44.84365" lon="5.807">
        <ele>903.56</ele>
        <time>2018-08-26T13:26:22Z</time>
      </trkpt>
      <trkpt lat="44.84364" lon="5.80665">
        <ele>904.39</ele>
        <time>2018-08-26T13:26:23Z</time>
      </trkpt>
      <trkpt lat="44.84362" lon="5.80632">
        <ele>905.33</ele>
        <time>2018-08-26T13:26:24Z</time>
      </trkpt>
      <trkpt lat="44.84361" lon="5.80601">
        <ele>905.62</ele>
        <time>2018-08-26T13:26:25Z</time>
      </trkpt>
      <trkpt lat="44.84358" lon="5.8057">
        <ele>905.7</ele>
        <time>2018-08-26T13:26:26Z</time>
      </trkpt>
      <trkpt lat="44.84352" lon="5.8054">
        <ele>906.43</ele>
        <time>2018-08-26T13:26:27Z</time>
      </trkpt>
      <trkpt lat="44.84345" lon="5.80511">
        <ele>907.35</ele>
        <time>2018-08-26T13:26:28Z</time>
      </trkpt>
      <trkpt lat="44.84336" lon="5.80481">
        <ele>907.62</ele>
        <time>2018-08-26T13:26:29Z</time>
      </trkpt>
      <trkpt lat="44.84327" lon="5.80452">
        <ele>907.71</ele>
        <time>2018-08-26T13:26:30Z</time>
      </trkpt>
      <trkpt lat="44.84316" lon="5.80422">
        <ele>908.43</ele>
        <time>2018-08-26T13:26:31Z</time>
      </trkpt>
      <trkpt lat="44.84305" lon="5.80393">
        <ele>908.65</ele>
        <time>2018-08-26T13:26:32Z</time>
      </trkpt>
      <trkpt lat="44.84292" lon="5.80364">
        <ele>909.41</ele>
        <time>2018-08-26T13:26:33Z</time>
      </trkpt>
      <trkpt lat="44.84277" lon="5.80335">
        <ele>908.94</ele>
        <time>2018-08-26T13:26:34Z</time>
      </trkpt>
      <trkpt lat="44.84261" lon="5.8031">
        <ele>909.5</ele>
        <time>2018-08-26T13:26:35Z</time>
      </trkpt>
      <trkpt lat="44.84243" lon="5.80286">
        <ele>910.37</ele>
        <time>2018-08-26T13:26:36Z</time>
      </trkpt>
      <trkpt lat="44.84224" lon="5.80265">
        <ele>911.33</ele>
        <time>2018-08-26T13:26:37Z</time>
      </trkpt>
      <trkpt lat="44.84205" lon="5.80244">
        <ele>912.32</ele>
        <time>2018-08-26T13:26:38Z</time>
      </trkpt>
      <trkpt lat="44.84186" lon="5.80222">
        <ele>912.61</ele>
        <time>2018-08-26T13:26:39Z</time>
      </trkpt>
      <trkpt lat="44.84168" lon="5.802">
        <ele>913.4</ele>
        <time>2018-08-26T13:26:40Z</time>
      </trkpt>
      <trkpt lat="44.84147" lon="5.80179">
        <ele>913.64</ele>
        <time>2018-08-26T13:26:41Z</time>
      </trkpt>
      <trkpt lat="44.84127" lon="5.8016">
        <ele>913.71</ele>
        <time>2018-08-26T13:26:42Z</time>
      </trkpt>
      <trkpt lat="44.84106" lon="5.80139">
        <ele>914.43</ele>
        <time>2018-08-26T13:26:43Z</time>
      </trkpt>
      <trkpt lat="44.84085" lon="5.80119">
        <ele>915.35</ele>
        <time>2018-08-26T13:26:44Z</time>
      </trkpt>
      <trkpt lat="44.84064" lon="5.80099">
        <ele>915.62</ele>
        <time>2018-08-26T13:26:45Z</time>
      </trkpt>
      <trkpt lat="44.84044" lon="5.8008">
        <ele>915.71</ele>
        <time>2018-08-26T13:26:46Z</time>
      </trkpt>
      <trkpt lat="44.84023" lon="5.8006">
        <ele>915.73</ele>
        <time>2018-08-26T13:26:47Z</time>
      </trkpt>
      <trkpt lat="44.84003" lon="5.80042">
        <ele>916.44</ele>
        <time>2018-08-26T13:26:48Z</time>
      </trkpt>
      <trkpt lat="44.83984" lon="5.80025">
        <ele>917.35</ele>
        <time>2018-08-26T13:26:49Z</time>
      </trkpt>
      <trkpt lat="44.83967" lon="5.80009">
        <ele>917.62</ele>
        <time>2018-08-26T13:26:50Z</time>
      </trkpt>
      <trkpt lat="44.83951" lon="5.79994">
        <ele>917.71</ele>
        <time>2018-08-26T13:26:51Z</time>
      </trkpt>
      <trkpt lat="44.8393" lon="5.79958">
        <ele>917.74</ele>
        <time>2018-08-26T13:26:53Z</time>
      </trkpt>
      <trkpt lat="44.83924" lon="5.7992">
        <ele>919.35</ele>
        <time>2018-08-26T13:26:55Z</time>
      </trkpt>
      <trkpt lat="44.83909" lon="5.79881">
        <ele>921.32</ele>
        <time>2018-08-26T13:26:57Z</time>
      </trkpt>
      <trkpt lat="44.83884" lon="5.79844">
        <ele>923.31</ele>
        <time>2018-08-26T13:26:59Z</time>
      </trkpt>
      <trkpt lat="44.83872" lon="5.79824">
        <ele>925.01</ele>
        <time>2018-08-26T13:27:00Z</time>
      </trkpt>
      <trkpt lat="44.83859" lon="5.79781">
        <ele>927.29</ele>
        <time>2018-08-26T13:27:02Z</time>
      </trkpt>
      <trkpt lat="44.83863" lon="5.79733">
        <ele>929.31</ele>
        <time>2018-08-26T13:27:04Z</time>
      </trkpt>
      <trkpt lat="44.83866" lon="5.79707">
        <ele>929.61</ele>
        <time>2018-08-26T13:27:05Z</time>
      </trkpt>
      <trkpt lat="44.8387" lon="5.7968">
        <ele>931.1</ele>
        <time>2018-08-26T13:27:06Z</time>
      </trkpt>
      <trkpt lat="44.83874" lon="5.79653">
        <ele>932.25</ele>
        <time>2018-08-26T13:27:07Z</time>
      </trkpt>
      <trkpt lat="44.83877" lon="5.79627">
        <ele>932.59</ele>
        <time>2018-08-26T13:27:08Z</time>
      </trkpt>
      <trkpt lat="44.83882" lon="5.79599">
        <ele>933.4</ele>
        <time>2018-08-26T13:27:09Z</time>
      </trkpt>
      <trkpt lat="44.83889" lon="5.79573">
        <ele>934.34</ele>
        <time>2018-08-26T13:27:10Z</time>
      </trkpt>
      <trkpt lat="44.839" lon="5.79548">
        <ele>934.62</ele>
        <time>2018-08-26T13:27:11Z</time>
      </trkpt>
      <trkpt lat="44.83911" lon="5.79522">
        <ele>935.4</ele>
        <time>2018-08-26T13:27:12Z</time>
      </trkpt>
      <trkpt lat="44.83922" lon="5.79497">
        <ele>935.64</ele>
        <time>2018-08-26T13:27:13Z</time>
      </trkpt>
      <trkpt lat="44.83934" lon="5.79471">
        <ele>937.11</ele>
        <time>2018-08-26T13:27:14Z</time>
      </trkpt>
      <trkpt lat="44.83948" lon="5.79446">
        <ele>937.55</ele>
        <time>2018-08-26T13:27:15Z</time>
      </trkpt>
      <trkpt lat="44.83965" lon="5.79422">
        <ele>939.08</ele>
        <time>2018-08-26T13:27:16Z</time>
      </trkpt>
      <trkpt lat="44.83983" lon="5.79396">
        <ele>939.54</ele>
        <time>2018-08-26T13:27:17Z</time>
      </trkpt>
      <trkpt lat="44.84003" lon="5.79369">
        <ele>941.08</ele>
        <time>2018-08-26T13:27:18Z</time>
      </trkpt>
      <trkpt lat="44.84023" lon="5.79343">
        <ele>942.24</ele>
        <time>2018-08-26T13:27:19Z</time>
      </trkpt>
      <trkpt lat="44.84044" lon="5.79316">
        <ele>943.99</ele>
        <time>2018-08-26T13:27:20Z</time>
      </trkpt>
      <trkpt lat="44.84064" lon="5.79288">
        <ele>945.22</ele>
        <time>2018-08-26T13:27:21Z</time>
      </trkpt>
      <trkpt lat="44.84083" lon="5.79262">
        <ele>946.98</ele>
        <time>2018-08-26T13:27:22Z</time>
      </trkpt>
      <trkpt lat="44.841" lon="5.79238">
        <ele>948.21</ele>
        <time>2018-08-26T13:27:23Z</time>
      </trkpt>
      <trkpt lat="44.84116" lon="5.79216">
        <ele>949.28</ele>
        <time>2018-08-26T13:27:24Z</time>
      </trkpt>
      <trkpt lat="44.84131" lon="5.79192">
        <ele>951.7</ele>
        <time>2018-08-26T13:27:25Z</time>
      </trkpt>
      <trkpt lat="44.84142" lon="5.79164">
        <ele>952.43</ele>
        <time>2018-08-26T13:27:26Z</time>
      </trkpt>
      <trkpt lat="44.84152" lon="5.79138">
        <ele>953.35</ele>
        <time>2018-08-26T13:27:27Z</time>
      </trkpt>
      <trkpt lat="44.84163" lon="5.79112">
        <ele>954.32</ele>
        <time>2018-08-26T13:27:28Z</time>
      </trkpt>
      <trkpt lat="44.84174" lon="5.79086">
        <ele>955.32</ele>
        <time>2018-08-26T13:27:29Z</time>
      </trkpt>
      <trkpt lat="44.84187" lon="5.79064">
        <ele>954.91</ele>
        <time>2018-08-26T13:27:30Z</time>
      </trkpt>
      <trkpt lat="44.84199" lon="5.79042">
        <ele>954.79</ele>
        <time>2018-08-26T13:27:31Z</time>
      </trkpt>
      <trkpt lat="44.84204" lon="5.79014">
        <ele>954.76</ele>
        <time>2018-08-26T13:27:32Z</time>
      </trkpt>
      <trkpt lat="44.84211" lon="5.78986">
        <ele>956.15</ele>
        <time>2018-08-26T13:27:33Z</time>
      </trkpt>
      <trkpt lat="44.84216" lon="5.78957">
        <ele>957.26</ele>
        <time>2018-08-26T13:27:34Z</time>
      </trkpt>
      <trkpt lat="44.8422" lon="5.7893">
        <ele>958.3</ele>
        <time>2018-08-26T13:27:35Z</time>
      </trkpt>
      <trkpt lat="44.8422" lon="5.78901">
        <ele>960.01</ele>
        <time>2018-08-26T13:27:36Z</time>
      </trkpt>
      <trkpt lat="44.8422" lon="5.78873">
        <ele>962.62</ele>
        <time>2018-08-26T13:27:37Z</time>
      </trkpt>
      <trkpt lat="44.8422" lon="5.78845">
        <ele>964.11</ele>
        <time>2018-08-26T13:27:38Z</time>
      </trkpt>
      <trkpt lat="44.84218" lon="5.78816">
        <ele>965.25</ele>
        <time>2018-08-26T13:27:39Z</time>
      </trkpt>
      <trkpt lat="44.84217" lon="5.78772">
        <ele>967.31</ele>
        <time>2018-08-26T13:27:41Z</time>
      </trkpt>
      <trkpt lat="44.84212" lon="5.78733">
        <ele>967.7</ele>
        <time>2018-08-26T13:27:43Z</time>
      </trkpt>
      <trkpt lat="44.84192" lon="5.78719">
        <ele>970.05</ele>
        <time>2018-08-26T13:27:45Z</time>
      </trkpt>
      <trkpt lat="44.84175" lon="5.78705">
        <ele>972.08</ele>
        <time>2018-08-26T13:27:47Z</time>
      </trkpt>
      <trkpt lat="44.84159" lon="5.78682">
        <ele>975.31</ele>
        <time>2018-08-26T13:27:50Z</time>
      </trkpt>
      <trkpt lat="44.84158" lon="5.78645">
        <ele>974.76</ele>
        <time>2018-08-26T13:27:53Z</time>
      </trkpt>
      <trkpt lat="44.8415" lon="5.78615">
        <ele>973.83</ele>
        <time>2018-08-26T13:27:55Z</time>
      </trkpt>
      <trkpt lat="44.8413" lon="5.78587">
        <ele>972.14</ele>
        <time>2018-08-26T13:27:57Z</time>
      </trkpt>
      <trkpt lat="44.84114" lon="5.78551">
        <ele>970.87</ele>
        <time>2018-08-26T13:27:59Z</time>
      </trkpt>
      <trkpt lat="44.84114" lon="5.78521">
        <ele>969.14</ele>
        <time>2018-08-26T13:28:01Z</time>
      </trkpt>
      <trkpt lat="44.8413" lon="5.78497">
        <ele>968.99</ele>
        <time>2018-08-26T13:28:03Z</time>
      </trkpt>
      <trkpt lat="44.84158" lon="5.7848">
        <ele>967.15</ele>
        <time>2018-08-26T13:28:05Z</time>
      </trkpt>
      <trkpt lat="44.84189" lon="5.78463">
        <ele>965.87</ele>
        <time>2018-08-26T13:28:07Z</time>
      </trkpt>
      <trkpt lat="44.84213" lon="5.78432">
        <ele>965.96</ele>
        <time>2018-08-26T13:28:09Z</time>
      </trkpt>
      <trkpt lat="44.84232" lon="5.78394">
        <ele>963.24</ele>
        <time>2018-08-26T13:28:11Z</time>
      </trkpt>
      <trkpt lat="44.84237" lon="5.78347">
        <ele>961.18</ele>
        <time>2018-08-26T13:28:13Z</time>
      </trkpt>
      <trkpt lat="44.84234" lon="5.78321">
        <ele>960.17</ele>
        <time>2018-08-26T13:28:14Z</time>
      </trkpt>
      <trkpt lat="44.84227" lon="5.78296">
        <ele>958.47</ele>
        <time>2018-08-26T13:28:15Z</time>
      </trkpt>
      <trkpt lat="44.84218" lon="5.78272">
        <ele>957.26</ele>
        <time>2018-08-26T13:28:16Z</time>
      </trkpt>
      <trkpt lat="44.84205" lon="5.78251">
        <ele>955.5</ele>
        <time>2018-08-26T13:28:17Z</time>
      </trkpt>
      <trkpt lat="44.84189" lon="5.78233">
        <ele>954.27</ele>
        <time>2018-08-26T13:28:18Z</time>
      </trkpt>
      <trkpt lat="44.84172" lon="5.78218">
        <ele>953.2</ele>
        <time>2018-08-26T13:28:19Z</time>
      </trkpt>
      <trkpt lat="44.84153" lon="5.78205">
        <ele>951.48</ele>
        <time>2018-08-26T13:28:20Z</time>
      </trkpt>
      <trkpt lat="44.84132" lon="5.78192">
        <ele>950.26</ele>
        <time>2018-08-26T13:28:21Z</time>
      </trkpt>
      <trkpt lat="44.8411" lon="5.78176">
        <ele>949.2</ele>
        <time>2018-08-26T13:28:22Z</time>
      </trkpt>
      <trkpt lat="44.84085" lon="5.78157">
        <ele>946.78</ele>
        <time>2018-08-26T13:28:23Z</time>
      </trkpt>
      <trkpt lat="44.84061" lon="5.78139">
        <ele>944.65</ele>
        <time>2018-08-26T13:28:24Z</time>
      </trkpt>
      <trkpt lat="44.84037" lon="5.7812">
        <ele>941.91</ele>
        <time>2018-08-26T13:28:25Z</time>
      </trkpt>
      <trkpt lat="44.84013" lon="5.78101">
        <ele>940.39</ele>
        <time>2018-08-26T13:28:26Z</time>
      </trkpt>
      <trkpt lat="44.83991" lon="5.78081">
        <ele>939.24</ele>
        <time>2018-08-26T13:28:27Z</time>
      </trkpt>
      <trkpt lat="44.83972" lon="5.78059">
        <ele>936.79</ele>
        <time>2018-08-26T13:28:28Z</time>
      </trkpt>
      <trkpt lat="44.83953" lon="5.78039">
        <ele>934.66</ele>
        <time>2018-08-26T13:28:29Z</time>
      </trkpt>
      <trkpt lat="44.83935" lon="5.7802">
        <ele>933.32</ele>
        <time>2018-08-26T13:28:30Z</time>
      </trkpt>
      <trkpt lat="44.83917" lon="5.78003">
        <ele>932.21</ele>
        <time>2018-08-26T13:28:31Z</time>
      </trkpt>
      <trkpt lat="44.83897" lon="5.7799">
        <ele>931.18</ele>
        <time>2018-08-26T13:28:32Z</time>
      </trkpt>
      <trkpt lat="44.83876" lon="5.77983">
        <ele>929.47</ele>
        <time>2018-08-26T13:28:33Z</time>
      </trkpt>
      <trkpt lat="44.83855" lon="5.77977">
        <ele>927.56</ele>
        <time>2018-08-26T13:28:34Z</time>
      </trkpt>
      <trkpt lat="44.83834" lon="5.77975">
        <ele>925.59</ele>
        <time>2018-08-26T13:28:35Z</time>
      </trkpt>
      <trkpt lat="44.83815" lon="5.77976">
        <ele>923.59</ele>
        <time>2018-08-26T13:28:36Z</time>
      </trkpt>
      <trkpt lat="44.83782" lon="5.77986">
        <ele>921.21</ele>
        <time>2018-08-26T13:28:38Z</time>
      </trkpt>
      <trkpt lat="44.83756" lon="5.77982">
        <ele>919.38</ele>
        <time>2018-08-26T13:28:40Z</time>
      </trkpt>
      <trkpt lat="44.83733" lon="5.77959">
        <ele>917.19</ele>
        <time>2018-08-26T13:28:42Z</time>
      </trkpt>
      <trkpt lat="44.83712" lon="5.77921">
        <ele>913.35</ele>
        <time>2018-08-26T13:28:44Z</time>
      </trkpt>
      <trkpt lat="44.83701" lon="5.77899">
        <ele>911.52</ele>
        <time>2018-08-26T13:28:45Z</time>
      </trkpt>
      <trkpt lat="44.8369" lon="5.77876">
        <ele>909.58</ele>
        <time>2018-08-26T13:28:46Z</time>
      </trkpt>
      <trkpt lat="44.83679" lon="5.77853">
        <ele>907.59</ele>
        <time>2018-08-26T13:28:47Z</time>
      </trkpt>
      <trkpt lat="44.83671" lon="5.77829">
        <ele>906.3</ele>
        <time>2018-08-26T13:28:48Z</time>
      </trkpt>
      <trkpt lat="44.83661" lon="5.77784">
        <ele>904.18</ele>
        <time>2018-08-26T13:28:50Z</time>
      </trkpt>
      <trkpt lat="44.83644" lon="5.77748">
        <ele>902.17</ele>
        <time>2018-08-26T13:28:52Z</time>
      </trkpt>
      <trkpt lat="44.83623" lon="5.77735">
        <ele>900.47</ele>
        <time>2018-08-26T13:28:53Z</time>
      </trkpt>
      <trkpt lat="44.83606" lon="5.77718">
        <ele>899.26</ele>
        <time>2018-08-26T13:28:54Z</time>
      </trkpt>
      <trkpt lat="44.83592" lon="5.77699">
        <ele>898.2</ele>
        <time>2018-08-26T13:28:55Z</time>
      </trkpt>
      <trkpt lat="44.83574" lon="5.77657">
        <ele>895.68</ele>
        <time>2018-08-26T13:28:57Z</time>
      </trkpt>
      <trkpt lat="44.83567" lon="5.77632">
        <ele>893.62</ele>
        <time>2018-08-26T13:28:58Z</time>
      </trkpt>
      <trkpt lat="44.83557" lon="5.77607">
        <ele>891.61</ele>
        <time>2018-08-26T13:28:59Z</time>
      </trkpt>
      <trkpt lat="44.83547" lon="5.77586">
        <ele>889.6</ele>
        <time>2018-08-26T13:29:00Z</time>
      </trkpt>
      <trkpt lat="44.83542" lon="5.77545">
        <ele>885.6</ele>
        <time>2018-08-26T13:29:02Z</time>
      </trkpt>
      <trkpt lat="44.83536" lon="5.77499">
        <ele>882.51</ele>
        <time>2018-08-26T13:29:04Z</time>
      </trkpt>
      <trkpt lat="44.83525" lon="5.77476">
        <ele>881.27</ele>
        <time>2018-08-26T13:29:05Z</time>
      </trkpt>
      <trkpt lat="44.83512" lon="5.77453">
        <ele>879.5</ele>
        <time>2018-08-26T13:29:06Z</time>
      </trkpt>
      <trkpt lat="44.83497" lon="5.77428">
        <ele>877.57</ele>
        <time>2018-08-26T13:29:07Z</time>
      </trkpt>
      <trkpt lat="44.83482" lon="5.77402">
        <ele>875.59</ele>
        <time>2018-08-26T13:29:08Z</time>
      </trkpt>
      <trkpt lat="44.83466" lon="5.77377">
        <ele>873.6</ele>
        <time>2018-08-26T13:29:09Z</time>
      </trkpt>
      <trkpt lat="44.8345" lon="5.77351">
        <ele>872.3</ele>
        <time>2018-08-26T13:29:10Z</time>
      </trkpt>
      <trkpt lat="44.83434" lon="5.77326">
        <ele>870.51</ele>
        <time>2018-08-26T13:29:11Z</time>
      </trkpt>
      <trkpt lat="44.83418" lon="5.77301">
        <ele>869.27</ele>
        <time>2018-08-26T13:29:12Z</time>
      </trkpt>
      <trkpt lat="44.83402" lon="5.77278">
        <ele>866.8</ele>
        <time>2018-08-26T13:29:13Z</time>
      </trkpt>
      <trkpt lat="44.83386" lon="5.77254">
        <ele>864.66</ele>
        <time>2018-08-26T13:29:14Z</time>
      </trkpt>
      <trkpt lat="44.83372" lon="5.77231">
        <ele>862.62</ele>
        <time>2018-08-26T13:29:15Z</time>
      </trkpt>
      <trkpt lat="44.83358" lon="5.77208">
        <ele>860.6</ele>
        <time>2018-08-26T13:29:16Z</time>
      </trkpt>
      <trkpt lat="44.83345" lon="5.77186">
        <ele>858.6</ele>
        <time>2018-08-26T13:29:17Z</time>
      </trkpt>
      <trkpt lat="44.83333" lon="5.77166">
        <ele>857.3</ele>
        <time>2018-08-26T13:29:18Z</time>
      </trkpt>
      <trkpt lat="44.83312" lon="5.7713">
        <ele>854.27</ele>
        <time>2018-08-26T13:29:20Z</time>
      </trkpt>
      <trkpt lat="44.83291" lon="5.77105">
        <ele>852.18</ele>
        <time>2018-08-26T13:29:22Z</time>
      </trkpt>
      <trkpt lat="44.83264" lon="5.77095">
        <ele>850.17</ele>
        <time>2018-08-26T13:29:24Z</time>
      </trkpt>
      <trkpt lat="44.83229" lon="5.77092">
        <ele>847.26</ele>
        <time>2018-08-26T13:29:26Z</time>
      </trkpt>
      <trkpt lat="44.8321" lon="5.77092">
        <ele>845.5</ele>
        <time>2018-08-26T13:29:27Z</time>
      </trkpt>
      <trkpt lat="44.83191" lon="5.77091">
        <ele>844.27</ele>
        <time>2018-08-26T13:29:28Z</time>
      </trkpt>
      <trkpt lat="44.83171" lon="5.7709">
        <ele>843.2</ele>
        <time>2018-08-26T13:29:29Z</time>
      </trkpt>
      <trkpt lat="44.83152" lon="5.77084">
        <ele>842.18</ele>
        <time>2018-08-26T13:29:30Z</time>
      </trkpt>
      <trkpt lat="44.83132" lon="5.77075">
        <ele>841.17</ele>
        <time>2018-08-26T13:29:31Z</time>
      </trkpt>
      <trkpt lat="44.83113" lon="5.77061">
        <ele>840.87</ele>
        <time>2018-08-26T13:29:32Z</time>
      </trkpt>
      <trkpt lat="44.83093" lon="5.77044">
        <ele>839.38</ele>
        <time>2018-08-26T13:29:33Z</time>
      </trkpt>
      <trkpt lat="44.83074" lon="5.77025">
        <ele>838.23</ele>
        <time>2018-08-26T13:29:34Z</time>
      </trkpt>
      <trkpt lat="44.83053" lon="5.77005">
        <ele>837.89</ele>
        <time>2018-08-26T13:29:35Z</time>
      </trkpt>
      <trkpt lat="44.83035" lon="5.76984">
        <ele>837.09</ele>
        <time>2018-08-26T13:29:36Z</time>
      </trkpt>
      <trkpt lat="44.83017" lon="5.76963">
        <ele>835.44</ele>
        <time>2018-08-26T13:29:37Z</time>
      </trkpt>
      <trkpt lat="44.82999" lon="5.76943">
        <ele>834.95</ele>
        <time>2018-08-26T13:29:38Z</time>
      </trkpt>
      <trkpt lat="44.82981" lon="5.76924">
        <ele>834.8</ele>
        <time>2018-08-26T13:29:39Z</time>
      </trkpt>
      <trkpt lat="44.82963" lon="5.76904">
        <ele>834.06</ele>
        <time>2018-08-26T13:29:40Z</time>
      </trkpt>
      <trkpt lat="44.82946" lon="5.76885">
        <ele>833.84</ele>
        <time>2018-08-26T13:29:41Z</time>
      </trkpt>
      <trkpt lat="44.82929" lon="5.76867">
        <ele>833.77</ele>
        <time>2018-08-26T13:29:42Z</time>
      </trkpt>
      <trkpt lat="44.82913" lon="5.7685">
        <ele>834.45</ele>
        <time>2018-08-26T13:29:43Z</time>
      </trkpt>
      <trkpt lat="44.82896" lon="5.76832">
        <ele>833.95</ele>
        <time>2018-08-26T13:29:44Z</time>
      </trkpt>
      <trkpt lat="44.82879" lon="5.76814">
        <ele>832.4</ele>
        <time>2018-08-26T13:29:45Z</time>
      </trkpt>
      <trkpt lat="44.82863" lon="5.76796">
        <ele>831.24</ele>
        <time>2018-08-26T13:29:46Z</time>
      </trkpt>
      <trkpt lat="44.82846" lon="5.76778">
        <ele>830.89</ele>
        <time>2018-08-26T13:29:47Z</time>
      </trkpt>
      <trkpt lat="44.8283" lon="5.76759">
        <ele>830.09</ele>
        <time>2018-08-26T13:29:48Z</time>
      </trkpt>
      <trkpt lat="44.82814" lon="5.76742">
        <ele>829.84</ele>
        <time>2018-08-26T13:29:49Z</time>
      </trkpt>
      <trkpt lat="44.82798" lon="5.76724">
        <ele>828.37</ele>
        <time>2018-08-26T13:29:50Z</time>
      </trkpt>
      <trkpt lat="44.82783" lon="5.76708">
        <ele>827.23</ele>
        <time>2018-08-26T13:29:51Z</time>
      </trkpt>
      <trkpt lat="44.82767" lon="5.76692">
        <ele>826.89</ele>
        <time>2018-08-26T13:29:52Z</time>
      </trkpt>
      <trkpt lat="44.82752" lon="5.76675">
        <ele>825.39</ele>
        <time>2018-08-26T13:29:53Z</time>
      </trkpt>
      <trkpt lat="44.82736" lon="5.76659">
        <ele>824.23</ele>
        <time>2018-08-26T13:29:54Z</time>
      </trkpt>
      <trkpt lat="44.82721" lon="5.76642">
        <ele>823.89</ele>
        <time>2018-08-26T13:29:55Z</time>
      </trkpt>
      <trkpt lat="44.82706" lon="5.76625">
        <ele>823.09</ele>
        <time>2018-08-26T13:29:56Z</time>
      </trkpt>
      <trkpt lat="44.82691" lon="5.7661">
        <ele>822.84</ele>
        <time>2018-08-26T13:29:57Z</time>
      </trkpt>
      <trkpt lat="44.82677" lon="5.76593">
        <ele>822.07</ele>
        <time>2018-08-26T13:29:58Z</time>
      </trkpt>
      <trkpt lat="44.82661" lon="5.76578">
        <ele>821.14</ele>
        <time>2018-08-26T13:29:59Z</time>
      </trkpt>
      <trkpt lat="44.82633" lon="5.76547">
        <ele>819.17</ele>
        <time>2018-08-26T13:30:01Z</time>
      </trkpt>
      <trkpt lat="44.82618" lon="5.76532">
        <ele>818.87</ele>
        <time>2018-08-26T13:30:02Z</time>
      </trkpt>
      <trkpt lat="44.82603" lon="5.76515">
        <ele>817.38</ele>
        <time>2018-08-26T13:30:03Z</time>
      </trkpt>
      <trkpt lat="44.82587" lon="5.76498">
        <ele>816.93</ele>
        <time>2018-08-26T13:30:04Z</time>
      </trkpt>
      <trkpt lat="44.82571" lon="5.7648">
        <ele>816.1</ele>
        <time>2018-08-26T13:30:05Z</time>
      </trkpt>
      <trkpt lat="44.82555" lon="5.76462">
        <ele>815.15</ele>
        <time>2018-08-26T13:30:06Z</time>
      </trkpt>
      <trkpt lat="44.82539" lon="5.76444">
        <ele>814.16</ele>
        <time>2018-08-26T13:30:07Z</time>
      </trkpt>
      <trkpt lat="44.82523" lon="5.76427">
        <ele>813.87</ele>
        <time>2018-08-26T13:30:08Z</time>
      </trkpt>
      <trkpt lat="44.82508" lon="5.7641">
        <ele>813.08</ele>
        <time>2018-08-26T13:30:09Z</time>
      </trkpt>
      <trkpt lat="44.82494" lon="5.76393">
        <ele>812.14</ele>
        <time>2018-08-26T13:30:10Z</time>
      </trkpt>
      <trkpt lat="44.82478" lon="5.76376">
        <ele>811.86</ele>
        <time>2018-08-26T13:30:11Z</time>
      </trkpt>
      <trkpt lat="44.82463" lon="5.76359">
        <ele>811.08</ele>
        <time>2018-08-26T13:30:12Z</time>
      </trkpt>
      <trkpt lat="44.82447" lon="5.76342">
        <ele>810.84</ele>
        <time>2018-08-26T13:30:13Z</time>
      </trkpt>
      <trkpt lat="44.82432" lon="5.76325">
        <ele>810.07</ele>
        <time>2018-08-26T13:30:14Z</time>
      </trkpt>
      <trkpt lat="44.82416" lon="5.76307">
        <ele>809.14</ele>
        <time>2018-08-26T13:30:15Z</time>
      </trkpt>
      <trkpt lat="44.824" lon="5.7629">
        <ele>808.86</ele>
        <time>2018-08-26T13:30:16Z</time>
      </trkpt>
      <trkpt lat="44.82383" lon="5.76273">
        <ele>808.08</ele>
        <time>2018-08-26T13:30:17Z</time>
      </trkpt>
      <trkpt lat="44.82367" lon="5.76255">
        <ele>807.14</ele>
        <time>2018-08-26T13:30:18Z</time>
      </trkpt>
      <trkpt lat="44.82351" lon="5.76236">
        <ele>806.16</ele>
        <time>2018-08-26T13:30:19Z</time>
      </trkpt>
      <trkpt lat="44.82335" lon="5.76219">
        <ele>805.17</ele>
        <time>2018-08-26T13:30:20Z</time>
      </trkpt>
      <trkpt lat="44.8232" lon="5.76202">
        <ele>804.17</ele>
        <time>2018-08-26T13:30:21Z</time>
      </trkpt>
      <trkpt lat="44.82304" lon="5.76184">
        <ele>803.17</ele>
        <time>2018-08-26T13:30:22Z</time>
      </trkpt>
      <trkpt lat="44.82289" lon="5.76167">
        <ele>802.17</ele>
        <time>2018-08-26T13:30:23Z</time>
      </trkpt>
      <trkpt lat="44.82273" lon="5.76151">
        <ele>801.87</ele>
        <time>2018-08-26T13:30:24Z</time>
      </trkpt>
      <trkpt lat="44.82257" lon="5.76135">
        <ele>801.08</ele>
        <time>2018-08-26T13:30:25Z</time>
      </trkpt>
      <trkpt lat="44.82241" lon="5.76118">
        <ele>800.14</ele>
        <time>2018-08-26T13:30:26Z</time>
      </trkpt>
      <trkpt lat="44.82226" lon="5.76101">
        <ele>799.16</ele>
        <time>2018-08-26T13:30:27Z</time>
      </trkpt>
      <trkpt lat="44.82211" lon="5.76084">
        <ele>798.17</ele>
        <time>2018-08-26T13:30:28Z</time>
      </trkpt>
      <trkpt lat="44.82196" lon="5.76068">
        <ele>797.17</ele>
        <time>2018-08-26T13:30:29Z</time>
      </trkpt>
      <trkpt lat="44.82169" lon="5.76037">
        <ele>796.78</ele>
        <time>2018-08-26T13:30:31Z</time>
      </trkpt>
      <trkpt lat="44.82144" lon="5.76008">
        <ele>796.04</ele>
        <time>2018-08-26T13:30:33Z</time>
      </trkpt>
      <trkpt lat="44.82122" lon="5.75983">
        <ele>794.37</ele>
        <time>2018-08-26T13:30:35Z</time>
      </trkpt>
      <trkpt lat="44.821" lon="5.7596">
        <ele>791.98</ele>
        <time>2018-08-26T13:30:37Z</time>
      </trkpt>
      <trkpt lat="44.82081" lon="5.75937">
        <ele>789.45</ele>
        <time>2018-08-26T13:30:39Z</time>
      </trkpt>
      <trkpt lat="44.82064" lon="5.75918">
        <ele>788.8</ele>
        <time>2018-08-26T13:30:41Z</time>
      </trkpt>
      <trkpt lat="44.82047" lon="5.75901">
        <ele>787.84</ele>
        <time>2018-08-26T13:30:43Z</time>
      </trkpt>
      <trkpt lat="44.82031" lon="5.75883">
        <ele>786.84</ele>
        <time>2018-08-26T13:30:45Z</time>
      </trkpt>
      <trkpt lat="44.82012" lon="5.75863">
        <ele>786.75</ele>
        <time>2018-08-26T13:30:47Z</time>
      </trkpt>
      <trkpt lat="44.81992" lon="5.7584">
        <ele>785.83</ele>
        <time>2018-08-26T13:30:49Z</time>
      </trkpt>
      <trkpt lat="44.8197" lon="5.75817">
        <ele>786.66</ele>
        <time>2018-08-26T13:30:51Z</time>
      </trkpt>
      <trkpt lat="44.81949" lon="5.75793">
        <ele>786.73</ele>
        <time>2018-08-26T13:30:53Z</time>
      </trkpt>
      <trkpt lat="44.81928" lon="5.7577">
        <ele>786.74</ele>
        <time>2018-08-26T13:30:55Z</time>
      </trkpt>
      <trkpt lat="44.81909" lon="5.75749">
        <ele>786.74</ele>
        <time>2018-08-26T13:30:57Z</time>
      </trkpt>
      <trkpt lat="44.81891" lon="5.75729">
        <ele>787.44</ele>
        <time>2018-08-26T13:30:59Z</time>
      </trkpt>
      <trkpt lat="44.8187" lon="5.75715">
        <ele>787.71</ele>
        <time>2018-08-26T13:31:01Z</time>
      </trkpt>
      <trkpt lat="44.8185" lon="5.75704">
        <ele>788.44</ele>
        <time>2018-08-26T13:31:03Z</time>
      </trkpt>
      <trkpt lat="44.81832" lon="5.75695">
        <ele>788.01</ele>
        <time>2018-08-26T13:31:05Z</time>
      </trkpt>
      <trkpt lat="44.81814" lon="5.75685">
        <ele>787.07</ele>
        <time>2018-08-26T13:31:07Z</time>
      </trkpt>
      <trkpt lat="44.81797" lon="5.75674">
        <ele>786.77</ele>
        <time>2018-08-26T13:31:09Z</time>
      </trkpt>
      <trkpt lat="44.81784" lon="5.75647">
        <ele>787.71</ele>
        <time>2018-08-26T13:31:12Z</time>
      </trkpt>
      <trkpt lat="44.81787" lon="5.75609">
        <ele>786.77</ele>
        <time>2018-08-26T13:31:15Z</time>
      </trkpt>
      <trkpt lat="44.81793" lon="5.75578">
        <ele>785.83</ele>
        <time>2018-08-26T13:31:17Z</time>
      </trkpt>
      <trkpt lat="44.81798" lon="5.75546">
        <ele>784.84</ele>
        <time>2018-08-26T13:31:19Z</time>
      </trkpt>
      <trkpt lat="44.81803" lon="5.75515">
        <ele>783.84</ele>
        <time>2018-08-26T13:31:21Z</time>
      </trkpt>
      <trkpt lat="44.81806" lon="5.75489">
        <ele>782.84</ele>
        <time>2018-08-26T13:31:23Z</time>
      </trkpt>
      <trkpt lat="44.81807" lon="5.75462">
        <ele>782.05</ele>
        <time>2018-08-26T13:31:25Z</time>
      </trkpt>
      <trkpt lat="44.81805" lon="5.75435">
        <ele>781.07</ele>
        <time>2018-08-26T13:31:27Z</time>
      </trkpt>
      <trkpt lat="44.81801" lon="5.75407">
        <ele>780.07</ele>
        <time>2018-08-26T13:31:29Z</time>
      </trkpt>
      <trkpt lat="44.81792" lon="5.7538">
        <ele>779.77</ele>
        <time>2018-08-26T13:31:31Z</time>
      </trkpt>
      <trkpt lat="44.8178" lon="5.75354">
        <ele>778.13</ele>
        <time>2018-08-26T13:31:33Z</time>
      </trkpt>
      <trkpt lat="44.81768" lon="5.75328">
        <ele>776.87</ele>
        <time>2018-08-26T13:31:35Z</time>
      </trkpt>
      <trkpt lat="44.81759" lon="5.75301">
        <ele>775.84</ele>
        <time>2018-08-26T13:31:37Z</time>
      </trkpt>
      <trkpt lat="44.81751" lon="5.75276">
        <ele>775.75</ele>
        <time>2018-08-26T13:31:39Z</time>
      </trkpt>
      <trkpt lat="44.81744" lon="5.75251">
        <ele>775.04</ele>
        <time>2018-08-26T13:31:41Z</time>
      </trkpt>
      <trkpt lat="44.81732" lon="5.75219">
        <ele>773.14</ele>
        <time>2018-08-26T13:31:44Z</time>
      </trkpt>
      <trkpt lat="44.81723" lon="5.75191">
        <ele>771.78</ele>
        <time>2018-08-26T13:31:47Z</time>
      </trkpt>
      <trkpt lat="44.81716" lon="5.75163">
        <ele>775.59</ele>
        <time>2018-08-26T13:31:52Z</time>
      </trkpt>
      <trkpt lat="44.81708" lon="5.75127">
        <ele>775.8</ele>
        <time>2018-08-26T13:31:56Z</time>
      </trkpt>
      <trkpt lat="44.81703" lon="5.75096">
        <ele>776.65</ele>
        <time>2018-08-26T13:31:59Z</time>
      </trkpt>
      <trkpt lat="44.81695" lon="5.75064">
        <ele>774.86</ele>
        <time>2018-08-26T13:32:02Z</time>
      </trkpt>
      <trkpt lat="44.81687" lon="5.75033">
        <ele>772.86</ele>
        <time>2018-08-26T13:32:05Z</time>
      </trkpt>
      <trkpt lat="44.81682" lon="5.75004">
        <ele>772.75</ele>
        <time>2018-08-26T13:32:07Z</time>
      </trkpt>
      <trkpt lat="44.81679" lon="5.74971">
        <ele>772.53</ele>
        <time>2018-08-26T13:32:09Z</time>
      </trkpt>
      <trkpt lat="44.81675" lon="5.74939">
        <ele>770.27</ele>
        <time>2018-08-26T13:32:11Z</time>
      </trkpt>
      <trkpt lat="44.81673" lon="5.74913">
        <ele>769.16</ele>
        <time>2018-08-26T13:32:13Z</time>
      </trkpt>
      <trkpt lat="44.81672" lon="5.74881">
        <ele>768.35</ele>
        <time>2018-08-26T13:32:16Z</time>
      </trkpt>
      <trkpt lat="44.81672" lon="5.74851">
        <ele>767.35</ele>
        <time>2018-08-26T13:32:20Z</time>
      </trkpt>
      <trkpt lat="44.8167" lon="5.74824">
        <ele>766.12</ele>
        <time>2018-08-26T13:32:25Z</time>
      </trkpt>
      <trkpt lat="44.81673" lon="5.74799">
        <ele>767.04</ele>
        <time>2018-08-26T13:32:30Z</time>
      </trkpt>
      <trkpt lat="44.8167" lon="5.74767">
        <ele>768.08</ele>
        <time>2018-08-26T13:52:12Z</time>
      </trkpt>
      <trkpt lat="44.8166" lon="5.74742">
        <ele>767.08</ele>
        <time>2018-08-26T13:52:15Z</time>
      </trkpt>
      <trkpt lat="44.81657" lon="5.74706">
        <ele>767.05</ele>
        <time>2018-08-26T13:52:18Z</time>
      </trkpt>
      <trkpt lat="44.81654" lon="5.74678">
        <ele>766.14</ele>
        <time>2018-08-26T13:52:20Z</time>
      </trkpt>
      <trkpt lat="44.81651" lon="5.74651">
        <ele>766.06</ele>
        <time>2018-08-26T13:52:22Z</time>
      </trkpt>
      <trkpt lat="44.81648" lon="5.74621">
        <ele>763.53</ele>
        <time>2018-08-26T13:52:24Z</time>
      </trkpt>
      <trkpt lat="44.81645" lon="5.74591">
        <ele>763.09</ele>
        <time>2018-08-26T13:52:26Z</time>
      </trkpt>
      <trkpt lat="44.81643" lon="5.74559">
        <ele>762.14</ele>
        <time>2018-08-26T13:52:28Z</time>
      </trkpt>
      <trkpt lat="44.81641" lon="5.74527">
        <ele>760.45</ele>
        <time>2018-08-26T13:52:30Z</time>
      </trkpt>
      <trkpt lat="44.81641" lon="5.74497">
        <ele>759.38</ele>
        <time>2018-08-26T13:52:32Z</time>
      </trkpt>
      <trkpt lat="44.81644" lon="5.74469">
        <ele>758.17</ele>
        <time>2018-08-26T13:52:34Z</time>
      </trkpt>
      <trkpt lat="44.81654" lon="5.74437">
        <ele>755.54</ele>
        <time>2018-08-26T13:52:36Z</time>
      </trkpt>
      <trkpt lat="44.81673" lon="5.74407">
        <ele>754.39</ele>
        <time>2018-08-26T13:52:38Z</time>
      </trkpt>
      <trkpt lat="44.81698" lon="5.74381">
        <ele>751.77</ele>
        <time>2018-08-26T13:52:40Z</time>
      </trkpt>
      <trkpt lat="44.81727" lon="5.74369">
        <ele>749.5</ele>
        <time>2018-08-26T13:52:42Z</time>
      </trkpt>
      <trkpt lat="44.81757" lon="5.74372">
        <ele>747.48</ele>
        <time>2018-08-26T13:52:44Z</time>
      </trkpt>
      <trkpt lat="44.81786" lon="5.74381">
        <ele>745.48</ele>
        <time>2018-08-26T13:52:46Z</time>
      </trkpt>
      <trkpt lat="44.81815" lon="5.7439">
        <ele>745.79</ele>
        <time>2018-08-26T13:52:48Z</time>
      </trkpt>
      <trkpt lat="44.81845" lon="5.74389">
        <ele>747.64</ele>
        <time>2018-08-26T13:52:50Z</time>
      </trkpt>
      <trkpt lat="44.81873" lon="5.74384">
        <ele>749.41</ele>
        <time>2018-08-26T13:52:52Z</time>
      </trkpt>
      <trkpt lat="44.81894" lon="5.7437">
        <ele>751.39</ele>
        <time>2018-08-26T13:52:54Z</time>
      </trkpt>
      <trkpt lat="44.81905" lon="5.74347">
        <ele>751.99</ele>
        <time>2018-08-26T13:52:56Z</time>
      </trkpt>
      <trkpt lat="44.81902" lon="5.74312">
        <ele>753.86</ele>
        <time>2018-08-26T13:52:58Z</time>
      </trkpt>
      <trkpt lat="44.81892" lon="5.74279">
        <ele>755.64</ele>
        <time>2018-08-26T13:53:00Z</time>
      </trkpt>
      <trkpt lat="44.81883" lon="5.7425">
        <ele>756.92</ele>
        <time>2018-08-26T13:53:02Z</time>
      </trkpt>
      <trkpt lat="44.81884" lon="5.74221">
        <ele>757.74</ele>
        <time>2018-08-26T13:53:04Z</time>
      </trkpt>
      <trkpt lat="44.819" lon="5.74187">
        <ele>758.72</ele>
        <time>2018-08-26T13:53:06Z</time>
      </trkpt>
      <trkpt lat="44.81914" lon="5.74167">
        <ele>759.65</ele>
        <time>2018-08-26T13:53:07Z</time>
      </trkpt>
      <trkpt lat="44.81931" lon="5.74147">
        <ele>759.93</ele>
        <time>2018-08-26T13:53:08Z</time>
      </trkpt>
      <trkpt lat="44.81946" lon="5.74128">
        <ele>760.71</ele>
        <time>2018-08-26T13:53:09Z</time>
      </trkpt>
      <trkpt lat="44.81959" lon="5.74109">
        <ele>760.95</ele>
        <time>2018-08-26T13:53:10Z</time>
      </trkpt>
      <trkpt lat="44.8197" lon="5.74087">
        <ele>761.72</ele>
        <time>2018-08-26T13:53:11Z</time>
      </trkpt>
      <trkpt lat="44.81977" lon="5.7406">
        <ele>761.95</ele>
        <time>2018-08-26T13:53:12Z</time>
      </trkpt>
      <trkpt lat="44.81981" lon="5.74032">
        <ele>762.72</ele>
        <time>2018-08-26T13:53:13Z</time>
      </trkpt>
      <trkpt lat="44.81984" lon="5.74003">
        <ele>763.65</ele>
        <time>2018-08-26T13:53:14Z</time>
      </trkpt>
      <trkpt lat="44.81988" lon="5.73975">
        <ele>764.63</ele>
        <time>2018-08-26T13:53:15Z</time>
      </trkpt>
      <trkpt lat="44.81994" lon="5.73948">
        <ele>764.92</ele>
        <time>2018-08-26T13:53:16Z</time>
      </trkpt>
      <trkpt lat="44.82003" lon="5.73925">
        <ele>765.71</ele>
        <time>2018-08-26T13:53:17Z</time>
      </trkpt>
      <trkpt lat="44.82015" lon="5.73905">
        <ele>766.65</ele>
        <time>2018-08-26T13:53:18Z</time>
      </trkpt>
      <trkpt lat="44.82043" lon="5.73877">
        <ele>768.62</ele>
        <time>2018-08-26T13:53:20Z</time>
      </trkpt>
      <trkpt lat="44.82073" lon="5.73875">
        <ele>769.92</ele>
        <time>2018-08-26T13:53:22Z</time>
      </trkpt>
      <trkpt lat="44.82104" lon="5.73891">
        <ele>772.56</ele>
        <time>2018-08-26T13:53:24Z</time>
      </trkpt>
      <trkpt lat="44.82122" lon="5.73899">
        <ele>773.6</ele>
        <time>2018-08-26T13:53:25Z</time>
      </trkpt>
      <trkpt lat="44.8214" lon="5.73907">
        <ele>774.61</ele>
        <time>2018-08-26T13:53:26Z</time>
      </trkpt>
      <trkpt lat="44.82159" lon="5.73913">
        <ele>774.92</ele>
        <time>2018-08-26T13:53:27Z</time>
      </trkpt>
      <trkpt lat="44.82181" lon="5.73915">
        <ele>776.41</ele>
        <time>2018-08-26T13:53:28Z</time>
      </trkpt>
      <trkpt lat="44.82203" lon="5.73912">
        <ele>777.56</ele>
        <time>2018-08-26T13:53:29Z</time>
      </trkpt>
      <trkpt lat="44.82225" lon="5.73908">
        <ele>778.6</ele>
        <time>2018-08-26T13:53:30Z</time>
      </trkpt>
      <trkpt lat="44.82248" lon="5.73904">
        <ele>778.91</ele>
        <time>2018-08-26T13:53:31Z</time>
      </trkpt>
      <trkpt lat="44.82269" lon="5.739">
        <ele>780.41</ele>
        <time>2018-08-26T13:53:32Z</time>
      </trkpt>
      <trkpt lat="44.82289" lon="5.73898">
        <ele>781.56</ele>
        <time>2018-08-26T13:53:33Z</time>
      </trkpt>
      <trkpt lat="44.82311" lon="5.73898">
        <ele>781.9</ele>
        <time>2018-08-26T13:53:34Z</time>
      </trkpt>
      <trkpt lat="44.82332" lon="5.73902">
        <ele>783.4</ele>
        <time>2018-08-26T13:53:35Z</time>
      </trkpt>
      <trkpt lat="44.82355" lon="5.73906">
        <ele>785.26</ele>
        <time>2018-08-26T13:53:36Z</time>
      </trkpt>
      <trkpt lat="44.82379" lon="5.73911">
        <ele>787.21</ele>
        <time>2018-08-26T13:53:37Z</time>
      </trkpt>
      <trkpt lat="44.82403" lon="5.73915">
        <ele>789.2</ele>
        <time>2018-08-26T13:53:38Z</time>
      </trkpt>
      <trkpt lat="44.82426" lon="5.7392">
        <ele>791.19</ele>
        <time>2018-08-26T13:53:39Z</time>
      </trkpt>
      <trkpt lat="44.82447" lon="5.73923">
        <ele>792.49</ele>
        <time>2018-08-26T13:53:40Z</time>
      </trkpt>
      <trkpt lat="44.82468" lon="5.73923">
        <ele>794.28</ele>
        <time>2018-08-26T13:53:41Z</time>
      </trkpt>
      <trkpt lat="44.82488" lon="5.73922">
        <ele>795.52</ele>
        <time>2018-08-26T13:53:42Z</time>
      </trkpt>
      <trkpt lat="44.82508" lon="5.73906">
        <ele>796.59</ele>
        <time>2018-08-26T13:53:43Z</time>
      </trkpt>
      <trkpt lat="44.8253" lon="5.73894">
        <ele>799.01</ele>
        <time>2018-08-26T13:53:44Z</time>
      </trkpt>
      <trkpt lat="44.82552" lon="5.73885">
        <ele>801.14</ele>
        <time>2018-08-26T13:53:45Z</time>
      </trkpt>
      <trkpt lat="44.82575" lon="5.73875">
        <ele>803.18</ele>
        <time>2018-08-26T13:53:46Z</time>
      </trkpt>
      <trkpt lat="44.82598" lon="5.73866">
        <ele>804.49</ele>
        <time>2018-08-26T13:53:47Z</time>
      </trkpt>
      <trkpt lat="44.82621" lon="5.73857">
        <ele>806.28</ele>
        <time>2018-08-26T13:53:48Z</time>
      </trkpt>
      <trkpt lat="44.82644" lon="5.73849">
        <ele>807.52</ele>
        <time>2018-08-26T13:53:49Z</time>
      </trkpt>
      <trkpt lat="44.82666" lon="5.73848">
        <ele>809.29</ele>
        <time>2018-08-26T13:53:50Z</time>
      </trkpt>
      <trkpt lat="44.82687" lon="5.73845">
        <ele>809.82</ele>
        <time>2018-08-26T13:53:51Z</time>
      </trkpt>
      <trkpt lat="44.82707" lon="5.73836">
        <ele>811.38</ele>
        <time>2018-08-26T13:53:52Z</time>
      </trkpt>
      <trkpt lat="44.82726" lon="5.73827">
        <ele>813.25</ele>
        <time>2018-08-26T13:53:53Z</time>
      </trkpt>
      <trkpt lat="44.82743" lon="5.7382">
        <ele>814.51</ele>
        <time>2018-08-26T13:53:54Z</time>
      </trkpt>
      <trkpt lat="44.82769" lon="5.73801">
        <ele>816.61</ele>
        <time>2018-08-26T13:53:56Z</time>
      </trkpt>
      <trkpt lat="44.82787" lon="5.73779">
        <ele>817.92</ele>
        <time>2018-08-26T13:53:58Z</time>
      </trkpt>
      <trkpt lat="44.8278" lon="5.7374">
        <ele>817.13</ele>
        <time>2018-08-26T13:54:00Z</time>
      </trkpt>
      <trkpt lat="44.8275" lon="5.73717">
        <ele>819.87</ele>
        <time>2018-08-26T13:54:01Z</time>
      </trkpt>
      <trkpt lat="44.82734" lon="5.73694">
        <ele>821.4</ele>
        <time>2018-08-26T13:54:02Z</time>
      </trkpt>
      <trkpt lat="44.82719" lon="5.73672">
        <ele>822.55</ele>
        <time>2018-08-26T13:54:03Z</time>
      </trkpt>
      <trkpt lat="44.82704" lon="5.73647">
        <ele>824.3</ele>
        <time>2018-08-26T13:54:04Z</time>
      </trkpt>
      <trkpt lat="44.82691" lon="5.73622">
        <ele>826.22</ele>
        <time>2018-08-26T13:54:05Z</time>
      </trkpt>
      <trkpt lat="44.82682" lon="5.73597">
        <ele>828.2</ele>
        <time>2018-08-26T13:54:06Z</time>
      </trkpt>
      <trkpt lat="44.82675" lon="5.7357">
        <ele>829.49</ele>
        <time>2018-08-26T13:54:07Z</time>
      </trkpt>
      <trkpt lat="44.82668" lon="5.73542">
        <ele>831.28</ele>
        <time>2018-08-26T13:54:08Z</time>
      </trkpt>
      <trkpt lat="44.82665" lon="5.73512">
        <ele>833.22</ele>
        <time>2018-08-26T13:54:09Z</time>
      </trkpt>
      <trkpt lat="44.82665" lon="5.73483">
        <ele>834.5</ele>
        <time>2018-08-26T13:54:10Z</time>
      </trkpt>
      <trkpt lat="44.82668" lon="5.73454">
        <ele>835.58</ele>
        <time>2018-08-26T13:54:11Z</time>
      </trkpt>
      <trkpt lat="44.82673" lon="5.73427">
        <ele>836.61</ele>
        <time>2018-08-26T13:54:12Z</time>
      </trkpt>
      <trkpt lat="44.82682" lon="5.73402">
        <ele>837.62</ele>
        <time>2018-08-26T13:54:13Z</time>
      </trkpt>
      <trkpt lat="44.8269" lon="5.7338">
        <ele>839.32</ele>
        <time>2018-08-26T13:54:14Z</time>
      </trkpt>
      <trkpt lat="44.82697" lon="5.73334">
        <ele>841.59</ele>
        <time>2018-08-26T13:54:16Z</time>
      </trkpt>
      <trkpt lat="44.82692" lon="5.73288">
        <ele>842.01</ele>
        <time>2018-08-26T13:54:18Z</time>
      </trkpt>
      <trkpt lat="44.8267" lon="5.73273">
        <ele>844.14</ele>
        <time>2018-08-26T13:54:19Z</time>
      </trkpt>
      <trkpt lat="44.82656" lon="5.73257">
        <ele>844.78</ele>
        <time>2018-08-26T13:54:20Z</time>
      </trkpt>
      <trkpt lat="44.82643" lon="5.73237">
        <ele>845.67</ele>
        <time>2018-08-26T13:54:21Z</time>
      </trkpt>
      <trkpt lat="44.82632" lon="5.73212">
        <ele>846.63</ele>
        <time>2018-08-26T13:54:22Z</time>
      </trkpt>
      <trkpt lat="44.82624" lon="5.73184">
        <ele>848.32</ele>
        <time>2018-08-26T13:54:23Z</time>
      </trkpt>
      <trkpt lat="44.82614" lon="5.73154">
        <ele>849.53</ele>
        <time>2018-08-26T13:54:24Z</time>
      </trkpt>
      <trkpt lat="44.82604" lon="5.73123">
        <ele>851.29</ele>
        <time>2018-08-26T13:54:25Z</time>
      </trkpt>
      <trkpt lat="44.82595" lon="5.73094">
        <ele>852.52</ele>
        <time>2018-08-26T13:54:26Z</time>
      </trkpt>
      <trkpt lat="44.82585" lon="5.73065">
        <ele>854.29</ele>
        <time>2018-08-26T13:54:27Z</time>
      </trkpt>
      <trkpt lat="44.82576" lon="5.73035">
        <ele>855.52</ele>
        <time>2018-08-26T13:54:28Z</time>
      </trkpt>
      <trkpt lat="44.82567" lon="5.73006">
        <ele>857.29</ele>
        <time>2018-08-26T13:54:29Z</time>
      </trkpt>
      <trkpt lat="44.82562" lon="5.72978">
        <ele>858.52</ele>
        <time>2018-08-26T13:54:30Z</time>
      </trkpt>
      <trkpt lat="44.82561" lon="5.72948">
        <ele>860.29</ele>
        <time>2018-08-26T13:54:31Z</time>
      </trkpt>
      <trkpt lat="44.82563" lon="5.72919">
        <ele>862.22</ele>
        <time>2018-08-26T13:54:32Z</time>
      </trkpt>
      <trkpt lat="44.82565" lon="5.72888">
        <ele>863.5</ele>
        <time>2018-08-26T13:54:33Z</time>
      </trkpt>
      <trkpt lat="44.82561" lon="5.72856">
        <ele>865.28</ele>
        <time>2018-08-26T13:54:34Z</time>
      </trkpt>
      <trkpt lat="44.82553" lon="5.72825">
        <ele>867.22</ele>
        <time>2018-08-26T13:54:35Z</time>
      </trkpt>
      <trkpt lat="44.82547" lon="5.72795">
        <ele>868.5</ele>
        <time>2018-08-26T13:54:36Z</time>
      </trkpt>
      <trkpt lat="44.82545" lon="5.72761">
        <ele>870.28</ele>
        <time>2018-08-26T13:54:37Z</time>
      </trkpt>
      <trkpt lat="44.82545" lon="5.72726">
        <ele>872.22</ele>
        <time>2018-08-26T13:54:38Z</time>
      </trkpt>
      <trkpt lat="44.82544" lon="5.72692">
        <ele>874.2</ele>
        <time>2018-08-26T13:54:39Z</time>
      </trkpt>
      <trkpt lat="44.82544" lon="5.7266">
        <ele>875.49</ele>
        <time>2018-08-26T13:54:40Z</time>
      </trkpt>
      <trkpt lat="44.82544" lon="5.7263">
        <ele>876.58</ele>
        <time>2018-08-26T13:54:41Z</time>
      </trkpt>
      <trkpt lat="44.82547" lon="5.72604">
        <ele>877.61</ele>
        <time>2018-08-26T13:54:42Z</time>
      </trkpt>
      <trkpt lat="44.82566" lon="5.72562">
        <ele>879.83</ele>
        <time>2018-08-26T13:54:44Z</time>
      </trkpt>
      <trkpt lat="44.82582" lon="5.72545">
        <ele>879.98</ele>
        <time>2018-08-26T13:54:45Z</time>
      </trkpt>
      <trkpt lat="44.82602" lon="5.7253">
        <ele>879.33</ele>
        <time>2018-08-26T13:54:46Z</time>
      </trkpt>
      <trkpt lat="44.82623" lon="5.72515">
        <ele>879.13</ele>
        <time>2018-08-26T13:54:47Z</time>
      </trkpt>
      <trkpt lat="44.82644" lon="5.72499">
        <ele>879.07</ele>
        <time>2018-08-26T13:54:48Z</time>
      </trkpt>
      <trkpt lat="44.82665" lon="5.72481">
        <ele>879.06</ele>
        <time>2018-08-26T13:54:49Z</time>
      </trkpt>
      <trkpt lat="44.82686" lon="5.72462">
        <ele>879.05</ele>
        <time>2018-08-26T13:54:50Z</time>
      </trkpt>
      <trkpt lat="44.82706" lon="5.7244">
        <ele>879.05</ele>
        <time>2018-08-26T13:54:51Z</time>
      </trkpt>
      <trkpt lat="44.82724" lon="5.72415">
        <ele>878.35</ele>
        <time>2018-08-26T13:54:52Z</time>
      </trkpt>
      <trkpt lat="44.82741" lon="5.72387">
        <ele>878.14</ele>
        <time>2018-08-26T13:54:53Z</time>
      </trkpt>
      <trkpt lat="44.82756" lon="5.72357">
        <ele>877.38</ele>
        <time>2018-08-26T13:54:54Z</time>
      </trkpt>
      <trkpt lat="44.8277" lon="5.72325">
        <ele>876.45</ele>
        <time>2018-08-26T13:54:55Z</time>
      </trkpt>
      <trkpt lat="44.82781" lon="5.72292">
        <ele>876.17</ele>
        <time>2018-08-26T13:54:56Z</time>
      </trkpt>
      <trkpt lat="44.82792" lon="5.72257">
        <ele>876.08</ele>
        <time>2018-08-26T13:54:57Z</time>
      </trkpt>
      <trkpt lat="44.82801" lon="5.72222">
        <ele>875.36</ele>
        <time>2018-08-26T13:54:58Z</time>
      </trkpt>
      <trkpt lat="44.8281" lon="5.72187">
        <ele>875.14</ele>
        <time>2018-08-26T13:54:59Z</time>
      </trkpt>
      <trkpt lat="44.8282" lon="5.72152">
        <ele>875.08</ele>
        <time>2018-08-26T13:55:00Z</time>
      </trkpt>
      <trkpt lat="44.8283" lon="5.7212">
        <ele>874.36</ele>
        <time>2018-08-26T13:55:01Z</time>
      </trkpt>
      <trkpt lat="44.82839" lon="5.72091">
        <ele>874.14</ele>
        <time>2018-08-26T13:55:02Z</time>
      </trkpt>
      <trkpt lat="44.8285" lon="5.72064">
        <ele>874.08</ele>
        <time>2018-08-26T13:55:03Z</time>
      </trkpt>
      <trkpt lat="44.82863" lon="5.72041">
        <ele>873.36</ele>
        <time>2018-08-26T13:55:04Z</time>
      </trkpt>
      <trkpt lat="44.8288" lon="5.7202">
        <ele>872.44</ele>
        <time>2018-08-26T13:55:05Z</time>
      </trkpt>
      <trkpt lat="44.82899" lon="5.72003">
        <ele>872.17</ele>
        <time>2018-08-26T13:55:06Z</time>
      </trkpt>
      <trkpt lat="44.82919" lon="5.7199">
        <ele>871.38</ele>
        <time>2018-08-26T13:55:07Z</time>
      </trkpt>
      <trkpt lat="44.82941" lon="5.71983">
        <ele>871.15</ele>
        <time>2018-08-26T13:55:08Z</time>
      </trkpt>
      <trkpt lat="44.82965" lon="5.71981">
        <ele>871.08</ele>
        <time>2018-08-26T13:55:09Z</time>
      </trkpt>
      <trkpt lat="44.8299" lon="5.71983">
        <ele>870.36</ele>
        <time>2018-08-26T13:55:10Z</time>
      </trkpt>
      <trkpt lat="44.83014" lon="5.71985">
        <ele>870.14</ele>
        <time>2018-08-26T13:55:11Z</time>
      </trkpt>
      <trkpt lat="44.8304" lon="5.71986">
        <ele>870.08</ele>
        <time>2018-08-26T13:55:12Z</time>
      </trkpt>
      <trkpt lat="44.83065" lon="5.71988">
        <ele>869.36</ele>
        <time>2018-08-26T13:55:13Z</time>
      </trkpt>
      <trkpt lat="44.8309" lon="5.71986">
        <ele>868.44</ele>
        <time>2018-08-26T13:55:14Z</time>
      </trkpt>
      <trkpt lat="44.83115" lon="5.71983">
        <ele>868.87</ele>
        <time>2018-08-26T13:55:15Z</time>
      </trkpt>
      <trkpt lat="44.83138" lon="5.71976">
        <ele>868.29</ele>
        <time>2018-08-26T13:55:16Z</time>
      </trkpt>
      <trkpt lat="44.83162" lon="5.7197">
        <ele>867.42</ele>
        <time>2018-08-26T13:55:17Z</time>
      </trkpt>
      <trkpt lat="44.83185" lon="5.71968">
        <ele>866.46</ele>
        <time>2018-08-26T13:55:18Z</time>
      </trkpt>
      <trkpt lat="44.83208" lon="5.7197">
        <ele>865.47</ele>
        <time>2018-08-26T13:55:19Z</time>
      </trkpt>
      <trkpt lat="44.8323" lon="5.71974">
        <ele>865.18</ele>
        <time>2018-08-26T13:55:20Z</time>
      </trkpt>
      <trkpt lat="44.83252" lon="5.7198">
        <ele>864.39</ele>
        <time>2018-08-26T13:55:21Z</time>
      </trkpt>
      <trkpt lat="44.83274" lon="5.71986">
        <ele>863.45</ele>
        <time>2018-08-26T13:55:22Z</time>
      </trkpt>
      <trkpt lat="44.83298" lon="5.71992">
        <ele>863.17</ele>
        <time>2018-08-26T13:55:23Z</time>
      </trkpt>
      <trkpt lat="44.8332" lon="5.71998">
        <ele>862.39</ele>
        <time>2018-08-26T13:55:24Z</time>
      </trkpt>
      <trkpt lat="44.83343" lon="5.72004">
        <ele>861.45</ele>
        <time>2018-08-26T13:55:25Z</time>
      </trkpt>
      <trkpt lat="44.83365" lon="5.7201">
        <ele>861.17</ele>
        <time>2018-08-26T13:55:26Z</time>
      </trkpt>
      <trkpt lat="44.83388" lon="5.72016">
        <ele>860.39</ele>
        <time>2018-08-26T13:55:27Z</time>
      </trkpt>
      <trkpt lat="44.83411" lon="5.72022">
        <ele>860.15</ele>
        <time>2018-08-26T13:55:28Z</time>
      </trkpt>
      <trkpt lat="44.83435" lon="5.72028">
        <ele>859.38</ele>
        <time>2018-08-26T13:55:29Z</time>
      </trkpt>
      <trkpt lat="44.83458" lon="5.72034">
        <ele>858.45</ele>
        <time>2018-08-26T13:55:30Z</time>
      </trkpt>
      <trkpt lat="44.83482" lon="5.72039">
        <ele>858.17</ele>
        <time>2018-08-26T13:55:31Z</time>
      </trkpt>
      <trkpt lat="44.83507" lon="5.72043">
        <ele>858.08</ele>
        <time>2018-08-26T13:55:32Z</time>
      </trkpt>
      <trkpt lat="44.83531" lon="5.72044">
        <ele>858.06</ele>
        <time>2018-08-26T13:55:33Z</time>
      </trkpt>
      <trkpt lat="44.83556" lon="5.72044">
        <ele>857.35</ele>
        <time>2018-08-26T13:55:34Z</time>
      </trkpt>
      <trkpt lat="44.83581" lon="5.72043">
        <ele>857.14</ele>
        <time>2018-08-26T13:55:35Z</time>
      </trkpt>
      <trkpt lat="44.83605" lon="5.72041">
        <ele>857.08</ele>
        <time>2018-08-26T13:55:36Z</time>
      </trkpt>
      <trkpt lat="44.8363" lon="5.72041">
        <ele>856.36</ele>
        <time>2018-08-26T13:55:37Z</time>
      </trkpt>
      <trkpt lat="44.83655" lon="5.72039">
        <ele>856.14</ele>
        <time>2018-08-26T13:55:38Z</time>
      </trkpt>
      <trkpt lat="44.8368" lon="5.72038">
        <ele>856.08</ele>
        <time>2018-08-26T13:55:39Z</time>
      </trkpt>
      <trkpt lat="44.83705" lon="5.72036">
        <ele>856.76</ele>
        <time>2018-08-26T13:55:40Z</time>
      </trkpt>
      <trkpt lat="44.83729" lon="5.72035">
        <ele>856.26</ele>
        <time>2018-08-26T13:55:41Z</time>
      </trkpt>
      <trkpt lat="44.83754" lon="5.72034">
        <ele>856.11</ele>
        <time>2018-08-26T13:55:42Z</time>
      </trkpt>
      <trkpt lat="44.83778" lon="5.72033">
        <ele>856.07</ele>
        <time>2018-08-26T13:55:43Z</time>
      </trkpt>
      <trkpt lat="44.83803" lon="5.72031">
        <ele>856.05</ele>
        <time>2018-08-26T13:55:44Z</time>
      </trkpt>
      <trkpt lat="44.83827" lon="5.72031">
        <ele>856.05</ele>
        <time>2018-08-26T13:55:45Z</time>
      </trkpt>
      <trkpt lat="44.8385" lon="5.72029">
        <ele>855.35</ele>
        <time>2018-08-26T13:55:46Z</time>
      </trkpt>
      <trkpt lat="44.83874" lon="5.72026">
        <ele>855.14</ele>
        <time>2018-08-26T13:55:47Z</time>
      </trkpt>
      <trkpt lat="44.83897" lon="5.7202">
        <ele>855.08</ele>
        <time>2018-08-26T13:55:48Z</time>
      </trkpt>
      <trkpt lat="44.83919" lon="5.72011">
        <ele>855.06</ele>
        <time>2018-08-26T13:55:49Z</time>
      </trkpt>
      <trkpt lat="44.8394" lon="5.71999">
        <ele>855.05</ele>
        <time>2018-08-26T13:55:50Z</time>
      </trkpt>
      <trkpt lat="44.83961" lon="5.71983">
        <ele>855.05</ele>
        <time>2018-08-26T13:55:51Z</time>
      </trkpt>
      <trkpt lat="44.8398" lon="5.71962">
        <ele>855.05</ele>
        <time>2018-08-26T13:55:52Z</time>
      </trkpt>
      <trkpt lat="44.83997" lon="5.71939">
        <ele>855.05</ele>
        <time>2018-08-26T13:55:53Z</time>
      </trkpt>
      <trkpt lat="44.84012" lon="5.71913">
        <ele>855.75</ele>
        <time>2018-08-26T13:55:54Z</time>
      </trkpt>
      <trkpt lat="44.84026" lon="5.71884">
        <ele>855.96</ele>
        <time>2018-08-26T13:55:55Z</time>
      </trkpt>
      <trkpt lat="44.84038" lon="5.71853">
        <ele>856.72</ele>
        <time>2018-08-26T13:55:56Z</time>
      </trkpt>
      <trkpt lat="44.84049" lon="5.71822">
        <ele>856.95</ele>
        <time>2018-08-26T13:55:57Z</time>
      </trkpt>
      <trkpt lat="44.84052" lon="5.71785">
        <ele>857.72</ele>
        <time>2018-08-26T13:55:58Z</time>
      </trkpt>
      <trkpt lat="44.84054" lon="5.71748">
        <ele>859.35</ele>
        <time>2018-08-26T13:55:59Z</time>
      </trkpt>
      <trkpt lat="44.84056" lon="5.71711">
        <ele>859.84</ele>
        <time>2018-08-26T13:56:00Z</time>
      </trkpt>
      <trkpt lat="44.84054" lon="5.71673">
        <ele>862.09</ele>
        <time>2018-08-26T13:56:01Z</time>
      </trkpt>
      <trkpt lat="44.84053" lon="5.71635">
        <ele>863.46</ele>
        <time>2018-08-26T13:56:02Z</time>
      </trkpt>
      <trkpt lat="44.84051" lon="5.71597">
        <ele>864.57</ele>
        <time>2018-08-26T13:56:03Z</time>
      </trkpt>
      <trkpt lat="44.84051" lon="5.7156">
        <ele>865.61</ele>
        <time>2018-08-26T13:56:04Z</time>
      </trkpt>
      <trkpt lat="44.8405" lon="5.71523">
        <ele>866.62</ele>
        <time>2018-08-26T13:56:05Z</time>
      </trkpt>
      <trkpt lat="44.84049" lon="5.71486">
        <ele>867.62</ele>
        <time>2018-08-26T13:56:06Z</time>
      </trkpt>
      <trkpt lat="44.84048" lon="5.71449">
        <ele>869.32</ele>
        <time>2018-08-26T13:56:07Z</time>
      </trkpt>
      <trkpt lat="44.84047" lon="5.71413">
        <ele>870.53</ele>
        <time>2018-08-26T13:56:08Z</time>
      </trkpt>
      <trkpt lat="44.84045" lon="5.71377">
        <ele>871.59</ele>
        <time>2018-08-26T13:56:09Z</time>
      </trkpt>
      <trkpt lat="44.84045" lon="5.71341">
        <ele>872.61</ele>
        <time>2018-08-26T13:56:10Z</time>
      </trkpt>
      <trkpt lat="44.84044" lon="5.71306">
        <ele>874.32</ele>
        <time>2018-08-26T13:56:11Z</time>
      </trkpt>
      <trkpt lat="44.84043" lon="5.7127">
        <ele>875.53</ele>
        <time>2018-08-26T13:56:12Z</time>
      </trkpt>
      <trkpt lat="44.84041" lon="5.71234">
        <ele>877.29</ele>
        <time>2018-08-26T13:56:13Z</time>
      </trkpt>
      <trkpt lat="44.84038" lon="5.71199">
        <ele>878.52</ele>
        <time>2018-08-26T13:56:14Z</time>
      </trkpt>
      <trkpt lat="44.84031" lon="5.71165">
        <ele>879.59</ele>
        <time>2018-08-26T13:56:15Z</time>
      </trkpt>
      <trkpt lat="44.84022" lon="5.71132">
        <ele>880.61</ele>
        <time>2018-08-26T13:56:16Z</time>
      </trkpt>
      <trkpt lat="44.84014" lon="5.71101">
        <ele>880.92</ele>
        <time>2018-08-26T13:56:17Z</time>
      </trkpt>
      <trkpt lat="44.84009" lon="5.71073">
        <ele>882.41</ele>
        <time>2018-08-26T13:56:18Z</time>
      </trkpt>
      <trkpt lat="44.84009" lon="5.71023">
        <ele>884.6</ele>
        <time>2018-08-26T13:56:20Z</time>
      </trkpt>
      <trkpt lat="44.84015" lon="5.70998">
        <ele>884.91</ele>
        <time>2018-08-26T13:56:21Z</time>
      </trkpt>
      <trkpt lat="44.84022" lon="5.70973">
        <ele>884.31</ele>
        <time>2018-08-26T13:56:22Z</time>
      </trkpt>
      <trkpt lat="44.84029" lon="5.70948">
        <ele>884.13</ele>
        <time>2018-08-26T13:56:23Z</time>
      </trkpt>
      <trkpt lat="44.84033" lon="5.70922">
        <ele>883.37</ele>
        <time>2018-08-26T13:56:24Z</time>
      </trkpt>
      <trkpt lat="44.84034" lon="5.70871">
        <ele>881.47</ele>
        <time>2018-08-26T13:56:26Z</time>
      </trkpt>
      <trkpt lat="44.84031" lon="5.70844">
        <ele>880.47</ele>
        <time>2018-08-26T13:56:27Z</time>
      </trkpt>
      <trkpt lat="44.84024" lon="5.7082">
        <ele>879.48</ele>
        <time>2018-08-26T13:56:28Z</time>
      </trkpt>
      <trkpt lat="44.84018" lon="5.70796">
        <ele>878.48</ele>
        <time>2018-08-26T13:56:29Z</time>
      </trkpt>
      <trkpt lat="44.84009" lon="5.70747">
        <ele>875.78</ele>
        <time>2018-08-26T13:56:31Z</time>
      </trkpt>
      <trkpt lat="44.84005" lon="5.70718">
        <ele>873.87</ele>
        <time>2018-08-26T13:56:32Z</time>
      </trkpt>
      <trkpt lat="44.84004" lon="5.70686">
        <ele>871.89</ele>
        <time>2018-08-26T13:56:33Z</time>
      </trkpt>
      <trkpt lat="44.84005" lon="5.70651">
        <ele>869.9</ele>
        <time>2018-08-26T13:56:34Z</time>
      </trkpt>
      <trkpt lat="44.84006" lon="5.70614">
        <ele>867.91</ele>
        <time>2018-08-26T13:56:35Z</time>
      </trkpt>
      <trkpt lat="44.84008" lon="5.70576">
        <ele>866.61</ele>
        <time>2018-08-26T13:56:36Z</time>
      </trkpt>
      <trkpt lat="44.84008" lon="5.7054">
        <ele>864.82</ele>
        <time>2018-08-26T13:56:37Z</time>
      </trkpt>
      <trkpt lat="44.84008" lon="5.70504">
        <ele>862.88</ele>
        <time>2018-08-26T13:56:38Z</time>
      </trkpt>
      <trkpt lat="44.84009" lon="5.70469">
        <ele>860.9</ele>
        <time>2018-08-26T13:56:39Z</time>
      </trkpt>
      <trkpt lat="44.84014" lon="5.70436">
        <ele>858.9</ele>
        <time>2018-08-26T13:56:40Z</time>
      </trkpt>
      <trkpt lat="44.84022" lon="5.70402">
        <ele>856.91</ele>
        <time>2018-08-26T13:56:41Z</time>
      </trkpt>
      <trkpt lat="44.84034" lon="5.7037">
        <ele>854.91</ele>
        <time>2018-08-26T13:56:42Z</time>
      </trkpt>
      <trkpt lat="44.84047" lon="5.70337">
        <ele>852.91</ele>
        <time>2018-08-26T13:56:43Z</time>
      </trkpt>
      <trkpt lat="44.8406" lon="5.70305">
        <ele>850.91</ele>
        <time>2018-08-26T13:56:44Z</time>
      </trkpt>
      <trkpt lat="44.84074" lon="5.70273">
        <ele>848.91</ele>
        <time>2018-08-26T13:56:45Z</time>
      </trkpt>
      <trkpt lat="44.84086" lon="5.7024">
        <ele>847.61</ele>
        <time>2018-08-26T13:56:46Z</time>
      </trkpt>
      <trkpt lat="44.84099" lon="5.70209">
        <ele>846.52</ele>
        <time>2018-08-26T13:56:47Z</time>
      </trkpt>
      <trkpt lat="44.84112" lon="5.70178">
        <ele>844.79</ele>
        <time>2018-08-26T13:56:48Z</time>
      </trkpt>
      <trkpt lat="44.84126" lon="5.70146">
        <ele>842.87</ele>
        <time>2018-08-26T13:56:49Z</time>
      </trkpt>
      <trkpt lat="44.84139" lon="5.70115">
        <ele>840.9</ele>
        <time>2018-08-26T13:56:50Z</time>
      </trkpt>
      <trkpt lat="44.84152" lon="5.70083">
        <ele>839.6</ele>
        <time>2018-08-26T13:56:51Z</time>
      </trkpt>
      <trkpt lat="44.84166" lon="5.70052">
        <ele>837.82</ele>
        <time>2018-08-26T13:56:52Z</time>
      </trkpt>
      <trkpt lat="44.84178" lon="5.70021">
        <ele>835.88</ele>
        <time>2018-08-26T13:56:53Z</time>
      </trkpt>
      <trkpt lat="44.8419" lon="5.69991">
        <ele>834.6</ele>
        <time>2018-08-26T13:56:54Z</time>
      </trkpt>
      <trkpt lat="44.84201" lon="5.69964">
        <ele>832.81</ele>
        <time>2018-08-26T13:56:55Z</time>
      </trkpt>
      <trkpt lat="44.84212" lon="5.69938">
        <ele>830.88</ele>
        <time>2018-08-26T13:56:56Z</time>
      </trkpt>
      <trkpt lat="44.84223" lon="5.69912">
        <ele>830.3</ele>
        <time>2018-08-26T13:56:57Z</time>
      </trkpt>
      <trkpt lat="44.84236" lon="5.69887">
        <ele>829.42</ele>
        <time>2018-08-26T13:56:58Z</time>
      </trkpt>
      <trkpt lat="44.84251" lon="5.69866">
        <ele>827.76</ele>
        <time>2018-08-26T13:56:59Z</time>
      </trkpt>
      <trkpt lat="44.84267" lon="5.69846">
        <ele>827.26</ele>
        <time>2018-08-26T13:57:00Z</time>
      </trkpt>
      <trkpt lat="44.84285" lon="5.6983">
        <ele>825.71</ele>
        <time>2018-08-26T13:57:01Z</time>
      </trkpt>
      <trkpt lat="44.84307" lon="5.69814">
        <ele>823.85</ele>
        <time>2018-08-26T13:57:02Z</time>
      </trkpt>
      <trkpt lat="44.84331" lon="5.69798">
        <ele>821.89</ele>
        <time>2018-08-26T13:57:03Z</time>
      </trkpt>
      <trkpt lat="44.84356" lon="5.6978">
        <ele>820.6</ele>
        <time>2018-08-26T13:57:04Z</time>
      </trkpt>
      <trkpt lat="44.84382" lon="5.69762">
        <ele>818.81</ele>
        <time>2018-08-26T13:57:05Z</time>
      </trkpt>
      <trkpt lat="44.84409" lon="5.69742">
        <ele>816.88</ele>
        <time>2018-08-26T13:57:06Z</time>
      </trkpt>
      <trkpt lat="44.84435" lon="5.69722">
        <ele>814.9</ele>
        <time>2018-08-26T13:57:07Z</time>
      </trkpt>
      <trkpt lat="44.84462" lon="5.69702">
        <ele>813.6</ele>
        <time>2018-08-26T13:57:08Z</time>
      </trkpt>
      <trkpt lat="44.84489" lon="5.69682">
        <ele>811.82</ele>
        <time>2018-08-26T13:57:09Z</time>
      </trkpt>
      <trkpt lat="44.84516" lon="5.69661">
        <ele>809.88</ele>
        <time>2018-08-26T13:57:10Z</time>
      </trkpt>
      <trkpt lat="44.84543" lon="5.69641">
        <ele>807.9</ele>
        <time>2018-08-26T13:57:11Z</time>
      </trkpt>
      <trkpt lat="44.8457" lon="5.6962">
        <ele>805.9</ele>
        <time>2018-08-26T13:57:12Z</time>
      </trkpt>
      <trkpt lat="44.84595" lon="5.69601">
        <ele>803.91</ele>
        <time>2018-08-26T13:57:13Z</time>
      </trkpt>
      <trkpt lat="44.8462" lon="5.69584">
        <ele>802.61</ele>
        <time>2018-08-26T13:57:14Z</time>
      </trkpt>
      <trkpt lat="44.84643" lon="5.69567">
        <ele>801.52</ele>
        <time>2018-08-26T13:57:15Z</time>
      </trkpt>
      <trkpt lat="44.84665" lon="5.6955">
        <ele>801.19</ele>
        <time>2018-08-26T13:57:16Z</time>
      </trkpt>
      <trkpt lat="44.84683" lon="5.69532">
        <ele>799.69</ele>
        <time>2018-08-26T13:57:17Z</time>
      </trkpt>
      <trkpt lat="44.847" lon="5.69511">
        <ele>797.84</ele>
        <time>2018-08-26T13:57:18Z</time>
      </trkpt>
      <trkpt lat="44.84715" lon="5.69487">
        <ele>795.89</ele>
        <time>2018-08-26T13:57:19Z</time>
      </trkpt>
      <trkpt lat="44.84729" lon="5.69459">
        <ele>794.6</ele>
        <time>2018-08-26T13:57:20Z</time>
      </trkpt>
      <trkpt lat="44.84744" lon="5.6943">
        <ele>792.81</ele>
        <time>2018-08-26T13:57:21Z</time>
      </trkpt>
      <trkpt lat="44.84761" lon="5.69403">
        <ele>790.88</ele>
        <time>2018-08-26T13:57:22Z</time>
      </trkpt>
      <trkpt lat="44.84779" lon="5.69378">
        <ele>787.5</ele>
        <time>2018-08-26T13:57:23Z</time>
      </trkpt>
      <trkpt lat="44.84798" lon="5.69355">
        <ele>786.48</ele>
        <time>2018-08-26T13:57:24Z</time>
      </trkpt>
      <trkpt lat="44.84821" lon="5.69335">
        <ele>784.78</ele>
        <time>2018-08-26T13:57:25Z</time>
      </trkpt>
      <trkpt lat="44.84844" lon="5.69315">
        <ele>782.87</ele>
        <time>2018-08-26T13:57:26Z</time>
      </trkpt>
      <trkpt lat="44.84867" lon="5.69294">
        <ele>781.59</ele>
        <time>2018-08-26T13:57:27Z</time>
      </trkpt>
      <trkpt lat="44.84889" lon="5.69273">
        <ele>779.81</ele>
        <time>2018-08-26T13:57:28Z</time>
      </trkpt>
      <trkpt lat="44.8491" lon="5.69253">
        <ele>778.58</ele>
        <time>2018-08-26T13:57:29Z</time>
      </trkpt>
      <trkpt lat="44.84931" lon="5.69235">
        <ele>777.51</ele>
        <time>2018-08-26T13:57:30Z</time>
      </trkpt>
      <trkpt lat="44.8495" lon="5.6922">
        <ele>776.49</ele>
        <time>2018-08-26T13:57:31Z</time>
      </trkpt>
      <trkpt lat="44.84967" lon="5.69209">
        <ele>774.78</ele>
        <time>2018-08-26T13:57:32Z</time>
      </trkpt>
      <trkpt lat="44.84986" lon="5.69206">
        <ele>773.57</ele>
        <time>2018-08-26T13:57:33Z</time>
      </trkpt>
      <trkpt lat="44.85006" lon="5.69209">
        <ele>772.5</ele>
        <time>2018-08-26T13:57:34Z</time>
      </trkpt>
      <trkpt lat="44.85028" lon="5.69216">
        <ele>770.09</ele>
        <time>2018-08-26T13:57:35Z</time>
      </trkpt>
      <trkpt lat="44.85048" lon="5.69219">
        <ele>768.66</ele>
        <time>2018-08-26T13:57:36Z</time>
      </trkpt>
      <trkpt lat="44.85068" lon="5.69217">
        <ele>767.53</ele>
        <time>2018-08-26T13:57:37Z</time>
      </trkpt>
      <trkpt lat="44.8509" lon="5.69211">
        <ele>765.79</ele>
        <time>2018-08-26T13:57:38Z</time>
      </trkpt>
      <trkpt lat="44.85113" lon="5.692">
        <ele>763.87</ele>
        <time>2018-08-26T13:57:39Z</time>
      </trkpt>
      <trkpt lat="44.85132" lon="5.6919">
        <ele>761.9</ele>
        <time>2018-08-26T13:57:40Z</time>
      </trkpt>
      <trkpt lat="44.85152" lon="5.69179">
        <ele>760.6</ele>
        <time>2018-08-26T13:57:41Z</time>
      </trkpt>
      <trkpt lat="44.8517" lon="5.69169">
        <ele>760.22</ele>
        <time>2018-08-26T13:57:42Z</time>
      </trkpt>
      <trkpt lat="44.85176" lon="5.69136">
        <ele>758.7</ele>
        <time>2018-08-26T13:57:43Z</time>
      </trkpt>
      <trkpt lat="44.85187" lon="5.6911">
        <ele>757.54</ele>
        <time>2018-08-26T13:57:44Z</time>
      </trkpt>
      <trkpt lat="44.85197" lon="5.69077">
        <ele>755.1</ele>
        <time>2018-08-26T13:57:45Z</time>
      </trkpt>
      <trkpt lat="44.8521" lon="5.6905">
        <ele>752.26</ele>
        <time>2018-08-26T13:57:46Z</time>
      </trkpt>
      <trkpt lat="44.85227" lon="5.69025">
        <ele>750.01</ele>
        <time>2018-08-26T13:57:47Z</time>
      </trkpt>
      <trkpt lat="44.85245" lon="5.69003">
        <ele>747.94</ele>
        <time>2018-08-26T13:57:48Z</time>
      </trkpt>
      <trkpt lat="44.85265" lon="5.68981">
        <ele>746.62</ele>
        <time>2018-08-26T13:57:49Z</time>
      </trkpt>
      <trkpt lat="44.85286" lon="5.68959">
        <ele>746.22</ele>
        <time>2018-08-26T13:57:50Z</time>
      </trkpt>
      <trkpt lat="44.85307" lon="5.68937">
        <ele>744.7</ele>
        <time>2018-08-26T13:57:51Z</time>
      </trkpt>
      <trkpt lat="44.85329" lon="5.68915">
        <ele>742.14</ele>
        <time>2018-08-26T13:57:52Z</time>
      </trkpt>
      <trkpt lat="44.8535" lon="5.68893">
        <ele>739.98</ele>
        <time>2018-08-26T13:57:53Z</time>
      </trkpt>
      <trkpt lat="44.85372" lon="5.68871">
        <ele>737.23</ele>
        <time>2018-08-26T13:57:54Z</time>
      </trkpt>
      <trkpt lat="44.85394" lon="5.6885">
        <ele>735.7</ele>
        <time>2018-08-26T13:57:55Z</time>
      </trkpt>
      <trkpt lat="44.85416" lon="5.68827">
        <ele>733.85</ele>
        <time>2018-08-26T13:57:56Z</time>
      </trkpt>
      <trkpt lat="44.85438" lon="5.68805">
        <ele>732.59</ele>
        <time>2018-08-26T13:57:57Z</time>
      </trkpt>
      <trkpt lat="44.85459" lon="5.68783">
        <ele>730.81</ele>
        <time>2018-08-26T13:57:58Z</time>
      </trkpt>
      <trkpt lat="44.85481" lon="5.6876">
        <ele>728.88</ele>
        <time>2018-08-26T13:57:59Z</time>
      </trkpt>
      <trkpt lat="44.85503" lon="5.68737">
        <ele>726.9</ele>
        <time>2018-08-26T13:58:00Z</time>
      </trkpt>
      <trkpt lat="44.85525" lon="5.68714">
        <ele>725.6</ele>
        <time>2018-08-26T13:58:01Z</time>
      </trkpt>
      <trkpt lat="44.85547" lon="5.68694">
        <ele>723.82</ele>
        <time>2018-08-26T13:58:02Z</time>
      </trkpt>
      <trkpt lat="44.85569" lon="5.68673">
        <ele>721.88</ele>
        <time>2018-08-26T13:58:03Z</time>
      </trkpt>
      <trkpt lat="44.8559" lon="5.68652">
        <ele>719.9</ele>
        <time>2018-08-26T13:58:04Z</time>
      </trkpt>
      <trkpt lat="44.85609" lon="5.68626">
        <ele>717.2</ele>
        <time>2018-08-26T13:58:05Z</time>
      </trkpt>
      <trkpt lat="44.85628" lon="5.686">
        <ele>715</ele>
        <time>2018-08-26T13:58:06Z</time>
      </trkpt>
      <trkpt lat="44.85648" lon="5.68573">
        <ele>712.93</ele>
        <time>2018-08-26T13:58:07Z</time>
      </trkpt>
      <trkpt lat="44.85669" lon="5.68549">
        <ele>710.91</ele>
        <time>2018-08-26T13:58:08Z</time>
      </trkpt>
      <trkpt lat="44.85688" lon="5.68526">
        <ele>710.31</ele>
        <time>2018-08-26T13:58:09Z</time>
      </trkpt>
      <trkpt lat="44.85708" lon="5.68505">
        <ele>709.43</ele>
        <time>2018-08-26T13:58:10Z</time>
      </trkpt>
      <trkpt lat="44.85726" lon="5.68483">
        <ele>707.76</ele>
        <time>2018-08-26T13:58:11Z</time>
      </trkpt>
      <trkpt lat="44.85744" lon="5.68463">
        <ele>705.86</ele>
        <time>2018-08-26T13:58:12Z</time>
      </trkpt>
      <trkpt lat="44.8576" lon="5.68442">
        <ele>704.59</ele>
        <time>2018-08-26T13:58:13Z</time>
      </trkpt>
      <trkpt lat="44.85773" lon="5.68423">
        <ele>703.51</ele>
        <time>2018-08-26T13:58:14Z</time>
      </trkpt>
      <trkpt lat="44.85784" lon="5.68402">
        <ele>701.79</ele>
        <time>2018-08-26T13:58:15Z</time>
      </trkpt>
      <trkpt lat="44.858" lon="5.68365">
        <ele>700.42</ele>
        <time>2018-08-26T13:58:17Z</time>
      </trkpt>
      <trkpt lat="44.85818" lon="5.68342">
        <ele>697.07</ele>
        <time>2018-08-26T13:58:19Z</time>
      </trkpt>
      <trkpt lat="44.8585" lon="5.68334">
        <ele>693.62</ele>
        <time>2018-08-26T13:58:21Z</time>
      </trkpt>
      <trkpt lat="44.85872" lon="5.68335">
        <ele>692.52</ele>
        <time>2018-08-26T13:58:22Z</time>
      </trkpt>
      <trkpt lat="44.85897" lon="5.68338">
        <ele>691.49</ele>
        <time>2018-08-26T13:58:23Z</time>
      </trkpt>
      <trkpt lat="44.85919" lon="5.68341">
        <ele>690.48</ele>
        <time>2018-08-26T13:58:24Z</time>
      </trkpt>
      <trkpt lat="44.8594" lon="5.68343">
        <ele>688.78</ele>
        <time>2018-08-26T13:58:25Z</time>
      </trkpt>
      <trkpt lat="44.85959" lon="5.68344">
        <ele>686.87</ele>
        <time>2018-08-26T13:58:26Z</time>
      </trkpt>
      <trkpt lat="44.85993" lon="5.68342">
        <ele>684.3</ele>
        <time>2018-08-26T13:58:28Z</time>
      </trkpt>
      <trkpt lat="44.86022" lon="5.68334">
        <ele>684.07</ele>
        <time>2018-08-26T13:58:30Z</time>
      </trkpt>
      <trkpt lat="44.86034" lon="5.68309">
        <ele>684.05</ele>
        <time>2018-08-26T13:58:32Z</time>
      </trkpt>
      <trkpt lat="44.8602" lon="5.68246">
        <ele>680.55</ele>
        <time>2018-08-26T13:58:33Z</time>
      </trkpt>
      <trkpt lat="44.86024" lon="5.68219">
        <ele>678.1</ele>
        <time>2018-08-26T13:58:34Z</time>
      </trkpt>
      <trkpt lat="44.86045" lon="5.68182">
        <ele>675.53</ele>
        <time>2018-08-26T13:58:36Z</time>
      </trkpt>
      <trkpt lat="44.86061" lon="5.68171">
        <ele>674.49</ele>
        <time>2018-08-26T13:58:37Z</time>
      </trkpt>
      <trkpt lat="44.8608" lon="5.68163">
        <ele>672.78</ele>
        <time>2018-08-26T13:58:38Z</time>
      </trkpt>
      <trkpt lat="44.861" lon="5.68158">
        <ele>670.87</ele>
        <time>2018-08-26T13:58:39Z</time>
      </trkpt>
      <trkpt lat="44.86119" lon="5.68151">
        <ele>668.9</ele>
        <time>2018-08-26T13:58:40Z</time>
      </trkpt>
      <trkpt lat="44.86138" lon="5.68143">
        <ele>667.6</ele>
        <time>2018-08-26T13:58:41Z</time>
      </trkpt>
      <trkpt lat="44.86156" lon="5.68133">
        <ele>666.52</ele>
        <time>2018-08-26T13:58:42Z</time>
      </trkpt>
      <trkpt lat="44.86175" lon="5.68121">
        <ele>665.49</ele>
        <time>2018-08-26T13:58:43Z</time>
      </trkpt>
      <trkpt lat="44.8619" lon="5.681">
        <ele>663.78</ele>
        <time>2018-08-26T13:58:44Z</time>
      </trkpt>
      <trkpt lat="44.86207" lon="5.68075">
        <ele>661.87</ele>
        <time>2018-08-26T13:58:45Z</time>
      </trkpt>
      <trkpt lat="44.86223" lon="5.68049">
        <ele>659.89</ele>
        <time>2018-08-26T13:58:46Z</time>
      </trkpt>
      <trkpt lat="44.86239" lon="5.68022">
        <ele>657.9</ele>
        <time>2018-08-26T13:58:47Z</time>
      </trkpt>
      <trkpt lat="44.86254" lon="5.67994">
        <ele>657.31</ele>
        <time>2018-08-26T13:58:48Z</time>
      </trkpt>
      <trkpt lat="44.86268" lon="5.67967">
        <ele>655.73</ele>
        <time>2018-08-26T13:58:49Z</time>
      </trkpt>
      <trkpt lat="44.86281" lon="5.67942">
        <ele>654.55</ele>
        <time>2018-08-26T13:58:50Z</time>
      </trkpt>
      <trkpt lat="44.86292" lon="5.67916">
        <ele>653.5</ele>
        <time>2018-08-26T13:58:51Z</time>
      </trkpt>
      <trkpt lat="44.86303" lon="5.67886">
        <ele>651.78</ele>
        <time>2018-08-26T13:58:52Z</time>
      </trkpt>
      <trkpt lat="44.86316" lon="5.67855">
        <ele>650.57</ele>
        <time>2018-08-26T13:58:53Z</time>
      </trkpt>
      <trkpt lat="44.86329" lon="5.67823">
        <ele>648.81</ele>
        <time>2018-08-26T13:58:54Z</time>
      </trkpt>
      <trkpt lat="44.86343" lon="5.67792">
        <ele>646.88</ele>
        <time>2018-08-26T13:58:55Z</time>
      </trkpt>
      <trkpt lat="44.86357" lon="5.67759">
        <ele>643.5</ele>
        <time>2018-08-26T13:58:56Z</time>
      </trkpt>
      <trkpt lat="44.86371" lon="5.67728">
        <ele>641.08</ele>
        <time>2018-08-26T13:58:57Z</time>
      </trkpt>
      <trkpt lat="44.86384" lon="5.67698">
        <ele>639.66</ele>
        <time>2018-08-26T13:58:58Z</time>
      </trkpt>
      <trkpt lat="44.86398" lon="5.67669">
        <ele>637.13</ele>
        <time>2018-08-26T13:58:59Z</time>
      </trkpt>
      <trkpt lat="44.86409" lon="5.67642">
        <ele>634.97</ele>
        <time>2018-08-26T13:59:00Z</time>
      </trkpt>
      <trkpt lat="44.86419" lon="5.67619">
        <ele>632.93</ele>
        <time>2018-08-26T13:59:01Z</time>
      </trkpt>
      <trkpt lat="44.8643" lon="5.67576">
        <ele>629.82</ele>
        <time>2018-08-26T13:59:03Z</time>
      </trkpt>
      <trkpt lat="44.86435" lon="5.67543">
        <ele>629.33</ele>
        <time>2018-08-26T13:59:05Z</time>
      </trkpt>
      <trkpt lat="44.86454" lon="5.67545">
        <ele>624.48</ele>
        <time>2018-08-26T13:59:09Z</time>
      </trkpt>
      <trkpt lat="44.86458" lon="5.67587">
        <ele>622.69</ele>
        <time>2018-08-26T13:59:11Z</time>
      </trkpt>
      <trkpt lat="44.8647" lon="5.67638">
        <ele>617.77</ele>
        <time>2018-08-26T13:59:13Z</time>
      </trkpt>
      <trkpt lat="44.86474" lon="5.67666">
        <ele>615.86</ele>
        <time>2018-08-26T13:59:14Z</time>
      </trkpt>
      <trkpt lat="44.86483" lon="5.67706">
        <ele>612.6</ele>
        <time>2018-08-26T13:59:16Z</time>
      </trkpt>
      <trkpt lat="44.86499" lon="5.67728">
        <ele>608.51</ele>
        <time>2018-08-26T13:59:19Z</time>
      </trkpt>
      <trkpt lat="44.86522" lon="5.67712">
        <ele>606.66</ele>
        <time>2018-08-26T13:59:22Z</time>
      </trkpt>
      <trkpt lat="44.86545" lon="5.67672">
        <ele>604.49</ele>
        <time>2018-08-26T13:59:24Z</time>
      </trkpt>
      <trkpt lat="44.8655" lon="5.67613">
        <ele>602.78</ele>
        <time>2018-08-26T13:59:25Z</time>
      </trkpt>
      <trkpt lat="44.86562" lon="5.67578">
        <ele>601.57</ele>
        <time>2018-08-26T13:59:26Z</time>
      </trkpt>
      <trkpt lat="44.86576" lon="5.67548">
        <ele>599.11</ele>
        <time>2018-08-26T13:59:27Z</time>
      </trkpt>
      <trkpt lat="44.86588" lon="5.67519">
        <ele>597.67</ele>
        <time>2018-08-26T13:59:28Z</time>
      </trkpt>
      <trkpt lat="44.86598" lon="5.67492">
        <ele>595.83</ele>
        <time>2018-08-26T13:59:29Z</time>
      </trkpt>
      <trkpt lat="44.86604" lon="5.67467">
        <ele>594.58</ele>
        <time>2018-08-26T13:59:30Z</time>
      </trkpt>
      <trkpt lat="44.86607" lon="5.67417">
        <ele>591.58</ele>
        <time>2018-08-26T13:59:32Z</time>
      </trkpt>
      <trkpt lat="44.86602" lon="5.67378">
        <ele>589.49</ele>
        <time>2018-08-26T13:59:34Z</time>
      </trkpt>
      <trkpt lat="44.86609" lon="5.67346">
        <ele>587.45</ele>
        <time>2018-08-26T13:59:37Z</time>
      </trkpt>
      <trkpt lat="44.86622" lon="5.67378">
        <ele>587.3</ele>
        <time>2018-08-26T13:59:39Z</time>
      </trkpt>
      <trkpt lat="44.86638" lon="5.67419">
        <ele>585.46</ele>
        <time>2018-08-26T13:59:41Z</time>
      </trkpt>
      <trkpt lat="44.86648" lon="5.67444">
        <ele>583.77</ele>
        <time>2018-08-26T13:59:42Z</time>
      </trkpt>
      <trkpt lat="44.86657" lon="5.67473">
        <ele>581.87</ele>
        <time>2018-08-26T13:59:43Z</time>
      </trkpt>
      <trkpt lat="44.86668" lon="5.67502">
        <ele>579.19</ele>
        <time>2018-08-26T13:59:44Z</time>
      </trkpt>
      <trkpt lat="44.86679" lon="5.6753">
        <ele>577.69</ele>
        <time>2018-08-26T13:59:45Z</time>
      </trkpt>
      <trkpt lat="44.86688" lon="5.67556">
        <ele>575.84</ele>
        <time>2018-08-26T13:59:46Z</time>
      </trkpt>
      <trkpt lat="44.86696" lon="5.6758">
        <ele>574.59</ele>
        <time>2018-08-26T13:59:47Z</time>
      </trkpt>
      <trkpt lat="44.86702" lon="5.67623">
        <ele>572.49</ele>
        <time>2018-08-26T13:59:49Z</time>
      </trkpt>
      <trkpt lat="44.86703" lon="5.67652">
        <ele>572.79</ele>
        <time>2018-08-26T13:59:51Z</time>
      </trkpt>
      <trkpt lat="44.86723" lon="5.67672">
        <ele>569.55</ele>
        <time>2018-08-26T13:59:54Z</time>
      </trkpt>
      <trkpt lat="44.8674" lon="5.67646">
        <ele>568.36</ele>
        <time>2018-08-26T13:59:57Z</time>
      </trkpt>
      <trkpt lat="44.8674" lon="5.67607">
        <ele>566.04</ele>
        <time>2018-08-26T13:59:58Z</time>
      </trkpt>
      <trkpt lat="44.86738" lon="5.67578">
        <ele>565.35</ele>
        <time>2018-08-26T13:59:59Z</time>
      </trkpt>
      <trkpt lat="44.86725" lon="5.67542">
        <ele>563.74</ele>
        <time>2018-08-26T14:00:00Z</time>
      </trkpt>
      <trkpt lat="44.86719" lon="5.67511">
        <ele>561.16</ele>
        <time>2018-08-26T14:00:01Z</time>
      </trkpt>
      <trkpt lat="44.86718" lon="5.67481">
        <ele>558.98</ele>
        <time>2018-08-26T14:00:02Z</time>
      </trkpt>
      <trkpt lat="44.8672" lon="5.67454">
        <ele>557.63</ele>
        <time>2018-08-26T14:00:03Z</time>
      </trkpt>
      <trkpt lat="44.86722" lon="5.67424">
        <ele>556.52</ele>
        <time>2018-08-26T14:00:04Z</time>
      </trkpt>
      <trkpt lat="44.86724" lon="5.67394">
        <ele>556.19</ele>
        <time>2018-08-26T14:00:05Z</time>
      </trkpt>
      <trkpt lat="44.86726" lon="5.67364">
        <ele>555.39</ele>
        <time>2018-08-26T14:00:06Z</time>
      </trkpt>
      <trkpt lat="44.86727" lon="5.67335">
        <ele>553.75</ele>
        <time>2018-08-26T14:00:07Z</time>
      </trkpt>
      <trkpt lat="44.86729" lon="5.67307">
        <ele>552.56</ele>
        <time>2018-08-26T14:00:08Z</time>
      </trkpt>
      <trkpt lat="44.86737" lon="5.67261">
        <ele>549.57</ele>
        <time>2018-08-26T14:00:10Z</time>
      </trkpt>
      <trkpt lat="44.86751" lon="5.67226">
        <ele>547.49</ele>
        <time>2018-08-26T14:00:12Z</time>
      </trkpt>
      <trkpt lat="44.86762" lon="5.67201">
        <ele>544.48</ele>
        <time>2018-08-26T14:00:15Z</time>
      </trkpt>
      <trkpt lat="44.86774" lon="5.67181">
        <ele>541.45</ele>
        <time>2018-08-26T14:00:19Z</time>
      </trkpt>
      <trkpt lat="44.86783" lon="5.67158">
        <ele>539.45</ele>
        <time>2018-08-26T14:00:22Z</time>
      </trkpt>
      <trkpt lat="44.86793" lon="5.67133">
        <ele>540.03</ele>
        <time>2018-08-26T14:00:25Z</time>
      </trkpt>
      <trkpt lat="44.86803" lon="5.67109">
        <ele>540.05</ele>
        <time>2018-08-26T14:00:28Z</time>
      </trkpt>
      <trkpt lat="44.86813" lon="5.67084">
        <ele>540.05</ele>
        <time>2018-08-26T14:00:31Z</time>
      </trkpt>
      <trkpt lat="44.86822" lon="5.67061">
        <ele>540.05</ele>
        <time>2018-08-26T14:00:34Z</time>
      </trkpt>
      <trkpt lat="44.86832" lon="5.67036">
        <ele>539.99</ele>
        <time>2018-08-26T14:00:38Z</time>
      </trkpt>
      <trkpt lat="44.86841" lon="5.67011">
        <ele>539.35</ele>
        <time>2018-08-26T14:00:48Z</time>
      </trkpt>
      <trkpt lat="44.86849" lon="5.66988">
        <ele>539.97</ele>
        <time>2018-08-26T14:00:51Z</time>
      </trkpt>
      <trkpt lat="44.86855" lon="5.66962">
        <ele>541.66</ele>
        <time>2018-08-26T14:00:54Z</time>
      </trkpt>
      <trkpt lat="44.86859" lon="5.66931">
        <ele>542.96</ele>
        <time>2018-08-26T14:00:58Z</time>
      </trkpt>
      <trkpt lat="44.86862" lon="5.66904">
        <ele>544.95</ele>
        <time>2018-08-26T14:01:02Z</time>
      </trkpt>
      <trkpt lat="44.86866" lon="5.66877">
        <ele>546.04</ele>
        <time>2018-08-26T14:01:06Z</time>
      </trkpt>
      <trkpt lat="44.86866" lon="5.6685">
        <ele>547.66</ele>
        <time>2018-08-26T14:01:10Z</time>
      </trkpt>
      <trkpt lat="44.8687" lon="5.66821">
        <ele>549.72</ele>
        <time>2018-08-26T14:01:15Z</time>
      </trkpt>
      <trkpt lat="44.86881" lon="5.66854">
        <ele>552.72</ele>
        <time>2018-08-26T14:01:20Z</time>
      </trkpt>
      <trkpt lat="44.8689" lon="5.66882">
        <ele>553.72</ele>
        <time>2018-08-26T14:01:22Z</time>
      </trkpt>
      <trkpt lat="44.86902" lon="5.66914">
        <ele>555.63</ele>
        <time>2018-08-26T14:01:24Z</time>
      </trkpt>
      <trkpt lat="44.8691" lon="5.66954">
        <ele>556.71</ele>
        <time>2018-08-26T14:01:26Z</time>
      </trkpt>
      <trkpt lat="44.86908" lon="5.66994">
        <ele>557.93</ele>
        <time>2018-08-26T14:01:28Z</time>
      </trkpt>
      <trkpt lat="44.86907" lon="5.67026">
        <ele>559.65</ele>
        <time>2018-08-26T14:01:30Z</time>
      </trkpt>
      <trkpt lat="44.86914" lon="5.67054">
        <ele>559.34</ele>
        <time>2018-08-26T14:01:33Z</time>
      </trkpt>
      <trkpt lat="44.86928" lon="5.67036">
        <ele>559.99</ele>
        <time>2018-08-26T14:01:35Z</time>
      </trkpt>
      <trkpt lat="44.86932" lon="5.6701">
        <ele>560.03</ele>
        <time>2018-08-26T14:01:36Z</time>
      </trkpt>
      <trkpt lat="44.86934" lon="5.66961">
        <ele>560.96</ele>
        <time>2018-08-26T14:01:38Z</time>
      </trkpt>
      <trkpt lat="44.86931" lon="5.66918">
        <ele>563.12</ele>
        <time>2018-08-26T14:01:39Z</time>
      </trkpt>
      <trkpt lat="44.86931" lon="5.66889">
        <ele>565.87</ele>
        <time>2018-08-26T14:01:40Z</time>
      </trkpt>
      <trkpt lat="44.86939" lon="5.66843">
        <ele>570.16</ele>
        <time>2018-08-26T14:01:42Z</time>
      </trkpt>
      <trkpt lat="44.86963" lon="5.66819">
        <ele>571.46</ele>
        <time>2018-08-26T14:01:44Z</time>
      </trkpt>
      <trkpt lat="44.86999" lon="5.66815">
        <ele>574.52</ele>
        <time>2018-08-26T14:01:46Z</time>
      </trkpt>
      <trkpt lat="44.87022" lon="5.66813">
        <ele>575.59</ele>
        <time>2018-08-26T14:01:47Z</time>
      </trkpt>
      <trkpt lat="44.87045" lon="5.66811">
        <ele>577.31</ele>
        <time>2018-08-26T14:01:48Z</time>
      </trkpt>
      <trkpt lat="44.87065" lon="5.66811">
        <ele>579.23</ele>
        <time>2018-08-26T14:01:49Z</time>
      </trkpt>
      <trkpt lat="44.87095" lon="5.66812">
        <ele>580.89</ele>
        <time>2018-08-26T14:01:51Z</time>
      </trkpt>
      <trkpt lat="44.87113" lon="5.66796">
        <ele>581.04</ele>
        <time>2018-08-26T14:01:54Z</time>
      </trkpt>
      <trkpt lat="44.87073" lon="5.66767">
        <ele>582.24</ele>
        <time>2018-08-26T14:01:56Z</time>
      </trkpt>
      <trkpt lat="44.87045" lon="5.6674">
        <ele>586.2</ele>
        <time>2018-08-26T14:01:58Z</time>
      </trkpt>
      <trkpt lat="44.87029" lon="5.66704">
        <ele>587.88</ele>
        <time>2018-08-26T14:02:00Z</time>
      </trkpt>
      <trkpt lat="44.87039" lon="5.66678">
        <ele>590.1</ele>
        <time>2018-08-26T14:02:01Z</time>
      </trkpt>
      <trkpt lat="44.87048" lon="5.66642">
        <ele>593.48</ele>
        <time>2018-08-26T14:02:03Z</time>
      </trkpt>
      <trkpt lat="44.87039" lon="5.66614">
        <ele>596.31</ele>
        <time>2018-08-26T14:02:05Z</time>
      </trkpt>
      <trkpt lat="44.8701" lon="5.66594">
        <ele>598.59</ele>
        <time>2018-08-26T14:02:07Z</time>
      </trkpt>
      <trkpt lat="44.86991" lon="5.66583">
        <ele>600.31</ele>
        <time>2018-08-26T14:02:08Z</time>
      </trkpt>
      <trkpt lat="44.8697" lon="5.66572">
        <ele>602.23</ele>
        <time>2018-08-26T14:02:09Z</time>
      </trkpt>
      <trkpt lat="44.8695" lon="5.66559">
        <ele>603.5</ele>
        <time>2018-08-26T14:02:10Z</time>
      </trkpt>
      <trkpt lat="44.86934" lon="5.66544">
        <ele>604.59</ele>
        <time>2018-08-26T14:02:11Z</time>
      </trkpt>
      <trkpt lat="44.8692" lon="5.66524">
        <ele>606.31</ele>
        <time>2018-08-26T14:02:12Z</time>
      </trkpt>
      <trkpt lat="44.8691" lon="5.66498">
        <ele>606.83</ele>
        <time>2018-08-26T14:02:13Z</time>
      </trkpt>
      <trkpt lat="44.869" lon="5.66469">
        <ele>609.08</ele>
        <time>2018-08-26T14:02:14Z</time>
      </trkpt>
      <trkpt lat="44.86892" lon="5.6644">
        <ele>611.16</ele>
        <time>2018-08-26T14:02:15Z</time>
      </trkpt>
      <trkpt lat="44.86887" lon="5.66415">
        <ele>612.48</ele>
        <time>2018-08-26T14:02:16Z</time>
      </trkpt>
      <trkpt lat="44.86885" lon="5.66369">
        <ele>613.91</ele>
        <time>2018-08-26T14:02:18Z</time>
      </trkpt>
      <trkpt lat="44.86913" lon="5.66343">
        <ele>614.74</ele>
        <time>2018-08-26T14:02:20Z</time>
      </trkpt>
      <trkpt lat="44.86927" lon="5.66323">
        <ele>615.66</ele>
        <time>2018-08-26T14:02:21Z</time>
      </trkpt>
      <trkpt lat="44.8694" lon="5.66301">
        <ele>616.63</ele>
        <time>2018-08-26T14:02:22Z</time>
      </trkpt>
      <trkpt lat="44.86951" lon="5.66275">
        <ele>617.62</ele>
        <time>2018-08-26T14:02:23Z</time>
      </trkpt>
      <trkpt lat="44.86953" lon="5.66246">
        <ele>619.32</ele>
        <time>2018-08-26T14:02:24Z</time>
      </trkpt>
      <trkpt lat="44.86961" lon="5.66223">
        <ele>621.93</ele>
        <time>2018-08-26T14:02:25Z</time>
      </trkpt>
      <trkpt lat="44.86974" lon="5.66203">
        <ele>623.41</ele>
        <time>2018-08-26T14:02:26Z</time>
      </trkpt>
      <trkpt lat="44.86989" lon="5.66187">
        <ele>624.56</ele>
        <time>2018-08-26T14:02:27Z</time>
      </trkpt>
      <trkpt lat="44.87014" lon="5.66166">
        <ele>627.52</ele>
        <time>2018-08-26T14:02:29Z</time>
      </trkpt>
      <trkpt lat="44.87031" lon="5.66147">
        <ele>628</ele>
        <time>2018-08-26T14:02:31Z</time>
      </trkpt>
      <trkpt lat="44.86998" lon="5.66114">
        <ele>629.44</ele>
        <time>2018-08-26T14:02:33Z</time>
      </trkpt>
      <trkpt lat="44.86981" lon="5.66097">
        <ele>630.57</ele>
        <time>2018-08-26T14:02:34Z</time>
      </trkpt>
      <trkpt lat="44.8696" lon="5.66079">
        <ele>633</ele>
        <time>2018-08-26T14:02:35Z</time>
      </trkpt>
      <trkpt lat="44.86937" lon="5.66063">
        <ele>634.44</ele>
        <time>2018-08-26T14:02:36Z</time>
      </trkpt>
      <trkpt lat="44.86914" lon="5.66051">
        <ele>636.27</ele>
        <time>2018-08-26T14:02:37Z</time>
      </trkpt>
      <trkpt lat="44.86894" lon="5.66041">
        <ele>638.21</ele>
        <time>2018-08-26T14:02:38Z</time>
      </trkpt>
      <trkpt lat="44.86866" lon="5.66024">
        <ele>640.79</ele>
        <time>2018-08-26T14:02:40Z</time>
      </trkpt>
      <trkpt lat="44.86867" lon="5.65993">
        <ele>643.34</ele>
        <time>2018-08-26T14:02:42Z</time>
      </trkpt>
      <trkpt lat="44.86878" lon="5.6596">
        <ele>645.38</ele>
        <time>2018-08-26T14:02:44Z</time>
      </trkpt>
      <trkpt lat="44.86898" lon="5.65932">
        <ele>647.25</ele>
        <time>2018-08-26T14:02:45Z</time>
      </trkpt>
      <trkpt lat="44.86916" lon="5.65909">
        <ele>649.21</ele>
        <time>2018-08-26T14:02:46Z</time>
      </trkpt>
      <trkpt lat="44.86935" lon="5.65887">
        <ele>651.2</ele>
        <time>2018-08-26T14:02:47Z</time>
      </trkpt>
      <trkpt lat="44.86955" lon="5.65866">
        <ele>653.19</ele>
        <time>2018-08-26T14:02:48Z</time>
      </trkpt>
      <trkpt lat="44.86975" lon="5.65845">
        <ele>654.49</ele>
        <time>2018-08-26T14:02:49Z</time>
      </trkpt>
      <trkpt lat="44.86992" lon="5.65825">
        <ele>656.28</ele>
        <time>2018-08-26T14:02:50Z</time>
      </trkpt>
      <trkpt lat="44.87008" lon="5.65812">
        <ele>658.22</ele>
        <time>2018-08-26T14:02:51Z</time>
      </trkpt>
      <trkpt lat="44.87037" lon="5.65796">
        <ele>662.19</ele>
        <time>2018-08-26T14:02:53Z</time>
      </trkpt>
      <trkpt lat="44.87056" lon="5.65779">
        <ele>662.27</ele>
        <time>2018-08-26T14:02:55Z</time>
      </trkpt>
      <trkpt lat="44.8706" lon="5.65731">
        <ele>664.87</ele>
        <time>2018-08-26T14:02:57Z</time>
      </trkpt>
      <trkpt lat="44.87081" lon="5.65701">
        <ele>666.85</ele>
        <time>2018-08-26T14:02:59Z</time>
      </trkpt>
      <trkpt lat="44.87096" lon="5.65683">
        <ele>667.69</ele>
        <time>2018-08-26T14:03:00Z</time>
      </trkpt>
      <trkpt lat="44.8711" lon="5.6566">
        <ele>669.34</ele>
        <time>2018-08-26T14:03:01Z</time>
      </trkpt>
      <trkpt lat="44.87122" lon="5.65634">
        <ele>671.24</ele>
        <time>2018-08-26T14:03:02Z</time>
      </trkpt>
      <trkpt lat="44.87132" lon="5.65611">
        <ele>673.91</ele>
        <time>2018-08-26T14:03:03Z</time>
      </trkpt>
      <trkpt lat="44.87153" lon="5.65577">
        <ele>676.77</ele>
        <time>2018-08-26T14:03:05Z</time>
      </trkpt>
      <trkpt lat="44.87189" lon="5.6557">
        <ele>677.72</ele>
        <time>2018-08-26T14:03:07Z</time>
      </trkpt>
      <trkpt lat="44.87208" lon="5.65562">
        <ele>678.65</ele>
        <time>2018-08-26T14:03:08Z</time>
      </trkpt>
      <trkpt lat="44.87226" lon="5.65548">
        <ele>681.03</ele>
        <time>2018-08-26T14:03:09Z</time>
      </trkpt>
      <trkpt lat="44.87244" lon="5.65537">
        <ele>683.14</ele>
        <time>2018-08-26T14:03:10Z</time>
      </trkpt>
      <trkpt lat="44.87263" lon="5.65536">
        <ele>685.18</ele>
        <time>2018-08-26T14:03:11Z</time>
      </trkpt>
      <trkpt lat="44.87283" lon="5.65532">
        <ele>686.49</ele>
        <time>2018-08-26T14:03:12Z</time>
      </trkpt>
      <trkpt lat="44.87304" lon="5.6553">
        <ele>687.58</ele>
        <time>2018-08-26T14:03:13Z</time>
      </trkpt>
      <trkpt lat="44.8733" lon="5.65539">
        <ele>688.61</ele>
        <time>2018-08-26T14:03:14Z</time>
      </trkpt>
      <trkpt lat="44.87348" lon="5.65541">
        <ele>688.92</ele>
        <time>2018-08-26T14:03:15Z</time>
      </trkpt>
      <trkpt lat="44.87376" lon="5.65543">
        <ele>689.95</ele>
        <time>2018-08-26T14:03:17Z</time>
      </trkpt>
      <trkpt lat="44.87394" lon="5.65536">
        <ele>690.04</ele>
        <time>2018-08-26T14:03:19Z</time>
      </trkpt>
      <trkpt lat="44.87383" lon="5.65514">
        <ele>690.96</ele>
        <time>2018-08-26T14:03:21Z</time>
      </trkpt>
      <trkpt lat="44.87362" lon="5.65487">
        <ele>689.62</ele>
        <time>2018-08-26T14:03:22Z</time>
      </trkpt>
      <trkpt lat="44.87336" lon="5.65455">
        <ele>692.02</ele>
        <time>2018-08-26T14:03:23Z</time>
      </trkpt>
      <trkpt lat="44.87319" lon="5.65425">
        <ele>693.44</ele>
        <time>2018-08-26T14:03:24Z</time>
      </trkpt>
      <trkpt lat="44.87301" lon="5.65391">
        <ele>696.67</ele>
        <time>2018-08-26T14:03:25Z</time>
      </trkpt>
      <trkpt lat="44.87284" lon="5.65359">
        <ele>699.73</ele>
        <time>2018-08-26T14:03:26Z</time>
      </trkpt>
      <trkpt lat="44.8727" lon="5.65333">
        <ele>701.35</ele>
        <time>2018-08-26T14:03:27Z</time>
      </trkpt>
      <trkpt lat="44.8726" lon="5.65311">
        <ele>702.54</ele>
        <time>2018-08-26T14:03:28Z</time>
      </trkpt>
      <trkpt lat="44.87253" lon="5.65271">
        <ele>705.31</ele>
        <time>2018-08-26T14:03:30Z</time>
      </trkpt>
      <trkpt lat="44.87265" lon="5.65223">
        <ele>708.99</ele>
        <time>2018-08-26T14:03:32Z</time>
      </trkpt>
      <trkpt lat="44.87273" lon="5.65194">
        <ele>710.43</ele>
        <time>2018-08-26T14:03:33Z</time>
      </trkpt>
      <trkpt lat="44.87282" lon="5.65167">
        <ele>712.26</ele>
        <time>2018-08-26T14:03:34Z</time>
      </trkpt>
      <trkpt lat="44.87294" lon="5.65144">
        <ele>712.81</ele>
        <time>2018-08-26T14:03:35Z</time>
      </trkpt>
      <trkpt lat="44.87313" lon="5.65122">
        <ele>713.68</ele>
        <time>2018-08-26T14:03:36Z</time>
      </trkpt>
      <trkpt lat="44.87333" lon="5.65103">
        <ele>714.64</ele>
        <time>2018-08-26T14:03:37Z</time>
      </trkpt>
      <trkpt lat="44.87351" lon="5.65085">
        <ele>716.33</ele>
        <time>2018-08-26T14:03:38Z</time>
      </trkpt>
      <trkpt lat="44.87369" lon="5.65067">
        <ele>716.83</ele>
        <time>2018-08-26T14:03:39Z</time>
      </trkpt>
      <trkpt lat="44.87381" lon="5.65035">
        <ele>718.38</ele>
        <time>2018-08-26T14:03:40Z</time>
      </trkpt>
      <trkpt lat="44.87394" lon="5.65007">
        <ele>718.85</ele>
        <time>2018-08-26T14:03:41Z</time>
      </trkpt>
      <trkpt lat="44.87407" lon="5.64984">
        <ele>719.69</ele>
        <time>2018-08-26T14:03:42Z</time>
      </trkpt>
      <trkpt lat="44.87438" lon="5.64963">
        <ele>720.72</ele>
        <time>2018-08-26T14:03:44Z</time>
      </trkpt>
      <trkpt lat="44.87473" lon="5.64955">
        <ele>721.02</ele>
        <time>2018-08-26T14:03:46Z</time>
      </trkpt>
      <trkpt lat="44.87519" lon="5.64992">
        <ele>720.14</ele>
        <time>2018-08-26T14:03:48Z</time>
      </trkpt>
      <trkpt lat="44.87543" lon="5.6501">
        <ele>720.78</ele>
        <time>2018-08-26T14:03:49Z</time>
      </trkpt>
      <trkpt lat="44.8757" lon="5.65027">
        <ele>721.67</ele>
        <time>2018-08-26T14:03:50Z</time>
      </trkpt>
      <trkpt lat="44.87596" lon="5.65043">
        <ele>721.93</ele>
        <time>2018-08-26T14:03:51Z</time>
      </trkpt>
      <trkpt lat="44.87622" lon="5.65058">
        <ele>722.01</ele>
        <time>2018-08-26T14:03:52Z</time>
      </trkpt>
      <trkpt lat="44.87646" lon="5.65069">
        <ele>722.74</ele>
        <time>2018-08-26T14:03:53Z</time>
      </trkpt>
      <trkpt lat="44.87668" lon="5.65075">
        <ele>722.96</ele>
        <time>2018-08-26T14:03:54Z</time>
      </trkpt>
      <trkpt lat="44.87696" lon="5.65064">
        <ele>725.12</ele>
        <time>2018-08-26T14:03:55Z</time>
      </trkpt>
      <trkpt lat="44.87722" lon="5.6506">
        <ele>727.17</ele>
        <time>2018-08-26T14:03:56Z</time>
      </trkpt>
      <trkpt lat="44.87747" lon="5.65056">
        <ele>728.49</ele>
        <time>2018-08-26T14:03:57Z</time>
      </trkpt>
      <trkpt lat="44.8777" lon="5.65051">
        <ele>728.88</ele>
        <time>2018-08-26T14:03:58Z</time>
      </trkpt>
      <trkpt lat="44.87789" lon="5.65043">
        <ele>729.7</ele>
        <time>2018-08-26T14:03:59Z</time>
      </trkpt>
      <trkpt lat="44.87807" lon="5.65027">
        <ele>730.64</ele>
        <time>2018-08-26T14:04:00Z</time>
      </trkpt>
      <trkpt lat="44.87825" lon="5.65011">
        <ele>730.93</ele>
        <time>2018-08-26T14:04:01Z</time>
      </trkpt>
      <trkpt lat="44.87835" lon="5.64973">
        <ele>731.71</ele>
        <time>2018-08-26T14:04:02Z</time>
      </trkpt>
      <trkpt lat="44.87848" lon="5.64942">
        <ele>731.95</ele>
        <time>2018-08-26T14:04:03Z</time>
      </trkpt>
      <trkpt lat="44.87859" lon="5.64915">
        <ele>732.72</ele>
        <time>2018-08-26T14:04:04Z</time>
      </trkpt>
      <trkpt lat="44.87872" lon="5.64896">
        <ele>733.65</ele>
        <time>2018-08-26T14:04:05Z</time>
      </trkpt>
      <trkpt lat="44.87886" lon="5.64879">
        <ele>735.33</ele>
        <time>2018-08-26T14:04:06Z</time>
      </trkpt>
      <trkpt lat="44.87914" lon="5.64862">
        <ele>737.59</ele>
        <time>2018-08-26T14:04:08Z</time>
      </trkpt>
      <trkpt lat="44.87938" lon="5.64887">
        <ele>737.91</ele>
        <time>2018-08-26T14:04:09Z</time>
      </trkpt>
      <trkpt lat="44.8796" lon="5.64894">
        <ele>738.01</ele>
        <time>2018-08-26T14:04:10Z</time>
      </trkpt>
      <trkpt lat="44.87985" lon="5.64901">
        <ele>738.04</ele>
        <time>2018-08-26T14:04:11Z</time>
      </trkpt>
      <trkpt lat="44.88007" lon="5.64904">
        <ele>738.05</ele>
        <time>2018-08-26T14:04:12Z</time>
      </trkpt>
      <trkpt lat="44.88029" lon="5.64892">
        <ele>738.75</ele>
        <time>2018-08-26T14:04:13Z</time>
      </trkpt>
      <trkpt lat="44.88049" lon="5.64879">
        <ele>738.96</ele>
        <time>2018-08-26T14:04:14Z</time>
      </trkpt>
      <trkpt lat="44.8807" lon="5.6487">
        <ele>739.02</ele>
        <time>2018-08-26T14:04:15Z</time>
      </trkpt>
      <trkpt lat="44.88092" lon="5.64867">
        <ele>739.74</ele>
        <time>2018-08-26T14:04:16Z</time>
      </trkpt>
      <trkpt lat="44.88114" lon="5.64867">
        <ele>739.96</ele>
        <time>2018-08-26T14:04:17Z</time>
      </trkpt>
      <trkpt lat="44.88136" lon="5.64864">
        <ele>740.72</ele>
        <time>2018-08-26T14:04:18Z</time>
      </trkpt>
      <trkpt lat="44.88157" lon="5.64854">
        <ele>740.25</ele>
        <time>2018-08-26T14:04:19Z</time>
      </trkpt>
      <trkpt lat="44.88178" lon="5.64843">
        <ele>740.81</ele>
        <time>2018-08-26T14:04:20Z</time>
      </trkpt>
      <trkpt lat="44.88198" lon="5.64811">
        <ele>741.68</ele>
        <time>2018-08-26T14:04:21Z</time>
      </trkpt>
      <trkpt lat="44.88219" lon="5.64784">
        <ele>741.94</ele>
        <time>2018-08-26T14:04:22Z</time>
      </trkpt>
      <trkpt lat="44.88241" lon="5.64755">
        <ele>742.72</ele>
        <time>2018-08-26T14:04:23Z</time>
      </trkpt>
      <trkpt lat="44.88264" lon="5.64724">
        <ele>742.95</ele>
        <time>2018-08-26T14:04:24Z</time>
      </trkpt>
      <trkpt lat="44.88285" lon="5.64695">
        <ele>744.42</ele>
        <time>2018-08-26T14:04:25Z</time>
      </trkpt>
      <trkpt lat="44.88306" lon="5.64668">
        <ele>745.56</ele>
        <time>2018-08-26T14:04:26Z</time>
      </trkpt>
      <trkpt lat="44.8833" lon="5.64642">
        <ele>745.9</ele>
        <time>2018-08-26T14:04:27Z</time>
      </trkpt>
      <trkpt lat="44.88355" lon="5.6462">
        <ele>746.71</ele>
        <time>2018-08-26T14:04:28Z</time>
      </trkpt>
      <trkpt lat="44.8838" lon="5.64599">
        <ele>746.95</ele>
        <time>2018-08-26T14:04:29Z</time>
      </trkpt>
      <trkpt lat="44.88403" lon="5.6458">
        <ele>747.72</ele>
        <time>2018-08-26T14:04:30Z</time>
      </trkpt>
      <trkpt lat="44.88424" lon="5.64562">
        <ele>747.95</ele>
        <time>2018-08-26T14:04:31Z</time>
      </trkpt>
      <trkpt lat="44.88441" lon="5.64543">
        <ele>748.02</ele>
        <time>2018-08-26T14:04:32Z</time>
      </trkpt>
      <trkpt lat="44.88454" lon="5.64521">
        <ele>748.74</ele>
        <time>2018-08-26T14:04:33Z</time>
      </trkpt>
      <trkpt lat="44.88461" lon="5.64494">
        <ele>749.66</ele>
        <time>2018-08-26T14:04:34Z</time>
      </trkpt>
      <trkpt lat="44.88469" lon="5.64469">
        <ele>749.93</ele>
        <time>2018-08-26T14:04:35Z</time>
      </trkpt>
      <trkpt lat="44.88466" lon="5.64428">
        <ele>750.71</ele>
        <time>2018-08-26T14:04:36Z</time>
      </trkpt>
      <trkpt lat="44.88467" lon="5.64394">
        <ele>750.95</ele>
        <time>2018-08-26T14:04:37Z</time>
      </trkpt>
      <trkpt lat="44.88469" lon="5.64362">
        <ele>751.02</ele>
        <time>2018-08-26T14:04:38Z</time>
      </trkpt>
      <trkpt lat="44.88475" lon="5.64333">
        <ele>751.04</ele>
        <time>2018-08-26T14:04:39Z</time>
      </trkpt>
      <trkpt lat="44.88486" lon="5.64307">
        <ele>752.45</ele>
        <time>2018-08-26T14:04:40Z</time>
      </trkpt>
      <trkpt lat="44.88499" lon="5.64285">
        <ele>753.57</ele>
        <time>2018-08-26T14:04:41Z</time>
      </trkpt>
      <trkpt lat="44.88512" lon="5.64264">
        <ele>754.6</ele>
        <time>2018-08-26T14:04:42Z</time>
      </trkpt>
      <trkpt lat="44.88524" lon="5.64244">
        <ele>754.92</ele>
        <time>2018-08-26T14:04:43Z</time>
      </trkpt>
      <trkpt lat="44.88537" lon="5.64221">
        <ele>755.71</ele>
        <time>2018-08-26T14:04:44Z</time>
      </trkpt>
      <trkpt lat="44.8855" lon="5.64201">
        <ele>755.95</ele>
        <time>2018-08-26T14:04:45Z</time>
      </trkpt>
      <trkpt lat="44.88563" lon="5.64182">
        <ele>756.72</ele>
        <time>2018-08-26T14:04:46Z</time>
      </trkpt>
      <trkpt lat="44.88585" lon="5.64145">
        <ele>757.02</ele>
        <time>2018-08-26T14:04:48Z</time>
      </trkpt>
      <trkpt lat="44.88599" lon="5.64104">
        <ele>757.75</ele>
        <time>2018-08-26T14:04:50Z</time>
      </trkpt>
      <trkpt lat="44.88603" lon="5.64061">
        <ele>758.72</ele>
        <time>2018-08-26T14:04:52Z</time>
      </trkpt>
      <trkpt lat="44.88605" lon="5.64019">
        <ele>759.72</ele>
        <time>2018-08-26T14:04:54Z</time>
      </trkpt>
      <trkpt lat="44.88606" lon="5.63981">
        <ele>760.72</ele>
        <time>2018-08-26T14:04:56Z</time>
      </trkpt>
      <trkpt lat="44.88606" lon="5.63949">
        <ele>761.23</ele>
        <time>2018-08-26T14:04:58Z</time>
      </trkpt>
      <trkpt lat="44.88612" lon="5.63922">
        <ele>761.07</ele>
        <time>2018-08-26T14:05:00Z</time>
      </trkpt>
      <trkpt lat="44.88626" lon="5.63901">
        <ele>761.05</ele>
        <time>2018-08-26T14:05:02Z</time>
      </trkpt>
      <trkpt lat="44.88641" lon="5.63883">
        <ele>761.96</ele>
        <time>2018-08-26T14:05:04Z</time>
      </trkpt>
      <trkpt lat="44.8866" lon="5.63868">
        <ele>763.44</ele>
        <time>2018-08-26T14:05:06Z</time>
      </trkpt>
      <trkpt lat="44.88679" lon="5.63856">
        <ele>764.69</ele>
        <time>2018-08-26T14:05:08Z</time>
      </trkpt>
      <trkpt lat="44.88701" lon="5.63851">
        <ele>765.02</ele>
        <time>2018-08-26T14:05:10Z</time>
      </trkpt>
      <trkpt lat="44.88723" lon="5.63852">
        <ele>765.96</ele>
        <time>2018-08-26T14:05:12Z</time>
      </trkpt>
      <trkpt lat="44.88745" lon="5.63847">
        <ele>766.95</ele>
        <time>2018-08-26T14:05:14Z</time>
      </trkpt>
      <trkpt lat="44.88765" lon="5.63834">
        <ele>768.65</ele>
        <time>2018-08-26T14:05:16Z</time>
      </trkpt>
      <trkpt lat="44.88786" lon="5.63817">
        <ele>771.53</ele>
        <time>2018-08-26T14:05:18Z</time>
      </trkpt>
      <trkpt lat="44.88808" lon="5.63801">
        <ele>773.61</ele>
        <time>2018-08-26T14:05:20Z</time>
      </trkpt>
      <trkpt lat="44.88831" lon="5.63783">
        <ele>775.62</ele>
        <time>2018-08-26T14:05:22Z</time>
      </trkpt>
      <trkpt lat="44.88854" lon="5.63764">
        <ele>776.71</ele>
        <time>2018-08-26T14:05:24Z</time>
      </trkpt>
      <trkpt lat="44.88877" lon="5.63746">
        <ele>778.63</ele>
        <time>2018-08-26T14:05:26Z</time>
      </trkpt>
      <trkpt lat="44.88898" lon="5.63727">
        <ele>779.71</ele>
        <time>2018-08-26T14:05:28Z</time>
      </trkpt>
      <trkpt lat="44.88922" lon="5.63704">
        <ele>780.72</ele>
        <time>2018-08-26T14:05:30Z</time>
      </trkpt>
      <trkpt lat="44.88949" lon="5.63676">
        <ele>781.93</ele>
        <time>2018-08-26T14:05:32Z</time>
      </trkpt>
      <trkpt lat="44.88976" lon="5.63646">
        <ele>783.65</ele>
        <time>2018-08-26T14:05:34Z</time>
      </trkpt>
      <trkpt lat="44.89005" lon="5.63615">
        <ele>784.71</ele>
        <time>2018-08-26T14:05:36Z</time>
      </trkpt>
      <trkpt lat="44.89021" lon="5.636">
        <ele>785.65</ele>
        <time>2018-08-26T14:05:37Z</time>
      </trkpt>
      <trkpt lat="44.89038" lon="5.63584">
        <ele>786.63</ele>
        <time>2018-08-26T14:05:38Z</time>
      </trkpt>
      <trkpt lat="44.89057" lon="5.63566">
        <ele>787.62</ele>
        <time>2018-08-26T14:05:39Z</time>
      </trkpt>
      <trkpt lat="44.89077" lon="5.63547">
        <ele>789.32</ele>
        <time>2018-08-26T14:05:40Z</time>
      </trkpt>
      <trkpt lat="44.89098" lon="5.63527">
        <ele>790.53</ele>
        <time>2018-08-26T14:05:41Z</time>
      </trkpt>
      <trkpt lat="44.89119" lon="5.63506">
        <ele>791.59</ele>
        <time>2018-08-26T14:05:42Z</time>
      </trkpt>
      <trkpt lat="44.8914" lon="5.63487">
        <ele>792.61</ele>
        <time>2018-08-26T14:05:43Z</time>
      </trkpt>
      <trkpt lat="44.89159" lon="5.63469">
        <ele>793.62</ele>
        <time>2018-08-26T14:05:44Z</time>
      </trkpt>
      <trkpt lat="44.89177" lon="5.63454">
        <ele>795.32</ele>
        <time>2018-08-26T14:05:45Z</time>
      </trkpt>
      <trkpt lat="44.89208" lon="5.63433">
        <ele>796.68</ele>
        <time>2018-08-26T14:05:47Z</time>
      </trkpt>
      <trkpt lat="44.89239" lon="5.63436">
        <ele>798.63</ele>
        <time>2018-08-26T14:05:49Z</time>
      </trkpt>
      <trkpt lat="44.89268" lon="5.63471">
        <ele>800.62</ele>
        <time>2018-08-26T14:05:51Z</time>
      </trkpt>
      <trkpt lat="44.89283" lon="5.63494">
        <ele>801.62</ele>
        <time>2018-08-26T14:05:52Z</time>
      </trkpt>
      <trkpt lat="44.89299" lon="5.63517">
        <ele>802.62</ele>
        <time>2018-08-26T14:05:53Z</time>
      </trkpt>
      <trkpt lat="44.89317" lon="5.63536">
        <ele>803.62</ele>
        <time>2018-08-26T14:05:54Z</time>
      </trkpt>
      <trkpt lat="44.89334" lon="5.63554">
        <ele>804.62</ele>
        <time>2018-08-26T14:05:55Z</time>
      </trkpt>
      <trkpt lat="44.89353" lon="5.63569">
        <ele>804.92</ele>
        <time>2018-08-26T14:05:56Z</time>
      </trkpt>
      <trkpt lat="44.89391" lon="5.63564">
        <ele>806.65</ele>
        <time>2018-08-26T14:05:58Z</time>
      </trkpt>
      <trkpt lat="44.89414" lon="5.63558">
        <ele>806.23</ele>
        <time>2018-08-26T14:05:59Z</time>
      </trkpt>
      <trkpt lat="44.89438" lon="5.63551">
        <ele>806.1</ele>
        <time>2018-08-26T14:06:00Z</time>
      </trkpt>
      <trkpt lat="44.89471" lon="5.63545">
        <ele>807.47</ele>
        <time>2018-08-26T14:06:01Z</time>
      </trkpt>
      <trkpt lat="44.89503" lon="5.63539">
        <ele>808.57</ele>
        <time>2018-08-26T14:06:02Z</time>
      </trkpt>
      <trkpt lat="44.89534" lon="5.63534">
        <ele>809.61</ele>
        <time>2018-08-26T14:06:03Z</time>
      </trkpt>
      <trkpt lat="44.8956" lon="5.63527">
        <ele>811.32</ele>
        <time>2018-08-26T14:06:04Z</time>
      </trkpt>
      <trkpt lat="44.89584" lon="5.63521">
        <ele>812.53</ele>
        <time>2018-08-26T14:06:05Z</time>
      </trkpt>
      <trkpt lat="44.89607" lon="5.63508">
        <ele>813.59</ele>
        <time>2018-08-26T14:06:06Z</time>
      </trkpt>
      <trkpt lat="44.89631" lon="5.63488">
        <ele>814.61</ele>
        <time>2018-08-26T14:06:07Z</time>
      </trkpt>
      <trkpt lat="44.89654" lon="5.63466">
        <ele>815.62</ele>
        <time>2018-08-26T14:06:08Z</time>
      </trkpt>
      <trkpt lat="44.89678" lon="5.63444">
        <ele>817.32</ele>
        <time>2018-08-26T14:06:09Z</time>
      </trkpt>
      <trkpt lat="44.897" lon="5.63424">
        <ele>817.83</ele>
        <time>2018-08-26T14:06:10Z</time>
      </trkpt>
      <trkpt lat="44.8972" lon="5.63403">
        <ele>817.98</ele>
        <time>2018-08-26T14:06:11Z</time>
      </trkpt>
      <trkpt lat="44.89735" lon="5.63384">
        <ele>818.03</ele>
        <time>2018-08-26T14:06:12Z</time>
      </trkpt>
      <trkpt lat="44.89748" lon="5.63354">
        <ele>817.14</ele>
        <time>2018-08-26T14:06:14Z</time>
      </trkpt>
      <trkpt lat="44.89734" lon="5.63324">
        <ele>819.18</ele>
        <time>2018-08-26T14:06:15Z</time>
      </trkpt>
      <trkpt lat="44.89733" lon="5.63298">
        <ele>821.19</ele>
        <time>2018-08-26T14:06:16Z</time>
      </trkpt>
      <trkpt lat="44.89737" lon="5.63271">
        <ele>823.19</ele>
        <time>2018-08-26T14:06:17Z</time>
      </trkpt>
      <trkpt lat="44.89743" lon="5.6324">
        <ele>824.49</ele>
        <time>2018-08-26T14:06:18Z</time>
      </trkpt>
      <trkpt lat="44.89752" lon="5.63214">
        <ele>826.28</ele>
        <time>2018-08-26T14:06:19Z</time>
      </trkpt>
      <trkpt lat="44.89761" lon="5.6317">
        <ele>827.89</ele>
        <time>2018-08-26T14:06:21Z</time>
      </trkpt>
      <trkpt lat="44.89746" lon="5.63128">
        <ele>829.64</ele>
        <time>2018-08-26T14:06:23Z</time>
      </trkpt>
      <trkpt lat="44.89738" lon="5.6309">
        <ele>833.23</ele>
        <time>2018-08-26T14:06:25Z</time>
      </trkpt>
      <trkpt lat="44.89765" lon="5.63061">
        <ele>834.96</ele>
        <time>2018-08-26T14:06:27Z</time>
      </trkpt>
      <trkpt lat="44.89799" lon="5.6305">
        <ele>837.56</ele>
        <time>2018-08-26T14:06:29Z</time>
      </trkpt>
      <trkpt lat="44.89824" lon="5.63038">
        <ele>838.71</ele>
        <time>2018-08-26T14:06:31Z</time>
      </trkpt>
      <trkpt lat="44.8984" lon="5.63023">
        <ele>839.23</ele>
        <time>2018-08-26T14:06:33Z</time>
      </trkpt>
      <trkpt lat="44.89808" lon="5.6299">
        <ele>839.07</ele>
        <time>2018-08-26T14:06:35Z</time>
      </trkpt>
      <trkpt lat="44.8979" lon="5.62959">
        <ele>841.57</ele>
        <time>2018-08-26T14:06:37Z</time>
      </trkpt>
      <trkpt lat="44.89785" lon="5.62922">
        <ele>842.92</ele>
        <time>2018-08-26T14:06:39Z</time>
      </trkpt>
      <trkpt lat="44.89813" lon="5.62864">
        <ele>844.93</ele>
        <time>2018-08-26T14:06:41Z</time>
      </trkpt>
      <trkpt lat="44.89827" lon="5.62838">
        <ele>846.41</ele>
        <time>2018-08-26T14:06:42Z</time>
      </trkpt>
      <trkpt lat="44.89842" lon="5.62815">
        <ele>847.56</ele>
        <time>2018-08-26T14:06:43Z</time>
      </trkpt>
      <trkpt lat="44.89869" lon="5.62811">
        <ele>850</ele>
        <time>2018-08-26T14:06:44Z</time>
      </trkpt>
      <trkpt lat="44.89895" lon="5.62802">
        <ele>852.13</ele>
        <time>2018-08-26T14:06:45Z</time>
      </trkpt>
      <trkpt lat="44.89922" lon="5.62794">
        <ele>854.17</ele>
        <time>2018-08-26T14:06:46Z</time>
      </trkpt>
      <trkpt lat="44.89945" lon="5.62787">
        <ele>855.49</ele>
        <time>2018-08-26T14:06:47Z</time>
      </trkpt>
      <trkpt lat="44.89968" lon="5.62782">
        <ele>856.58</ele>
        <time>2018-08-26T14:06:48Z</time>
      </trkpt>
      <trkpt lat="44.8999" lon="5.62783">
        <ele>857.61</ele>
        <time>2018-08-26T14:06:49Z</time>
      </trkpt>
      <trkpt lat="44.90014" lon="5.62792">
        <ele>859.32</ele>
        <time>2018-08-26T14:06:50Z</time>
      </trkpt>
      <trkpt lat="44.90036" lon="5.62804">
        <ele>859.83</ele>
        <time>2018-08-26T14:06:51Z</time>
      </trkpt>
      <trkpt lat="44.90056" lon="5.62816">
        <ele>860.68</ele>
        <time>2018-08-26T14:06:52Z</time>
      </trkpt>
      <trkpt lat="44.90071" lon="5.62833">
        <ele>861.64</ele>
        <time>2018-08-26T14:06:53Z</time>
      </trkpt>
      <trkpt lat="44.90097" lon="5.62854">
        <ele>862.71</ele>
        <time>2018-08-26T14:06:55Z</time>
      </trkpt>
      <trkpt lat="44.90126" lon="5.62846">
        <ele>865.54</ele>
        <time>2018-08-26T14:06:57Z</time>
      </trkpt>
      <trkpt lat="44.90158" lon="5.62838">
        <ele>866.91</ele>
        <time>2018-08-26T14:06:59Z</time>
      </trkpt>
      <trkpt lat="44.90189" lon="5.62842">
        <ele>867.04</ele>
        <time>2018-08-26T14:07:01Z</time>
      </trkpt>
      <trkpt lat="44.90205" lon="5.62867">
        <ele>867.75</ele>
        <time>2018-08-26T14:07:02Z</time>
      </trkpt>
      <trkpt lat="44.90236" lon="5.6288">
        <ele>869.84</ele>
        <time>2018-08-26T14:07:04Z</time>
      </trkpt>
      <trkpt lat="44.9027" lon="5.62878">
        <ele>869.82</ele>
        <time>2018-08-26T14:07:06Z</time>
      </trkpt>
      <trkpt lat="44.90295" lon="5.62891">
        <ele>870.94</ele>
        <time>2018-08-26T14:07:08Z</time>
      </trkpt>
      <trkpt lat="44.90323" lon="5.62897">
        <ele>871.04</ele>
        <time>2018-08-26T14:07:10Z</time>
      </trkpt>
      <trkpt lat="44.90349" lon="5.62896">
        <ele>871.05</ele>
        <time>2018-08-26T14:07:12Z</time>
      </trkpt>
      <trkpt lat="44.90365" lon="5.62882">
        <ele>869.65</ele>
        <time>2018-08-26T14:07:13Z</time>
      </trkpt>
      <trkpt lat="44.90399" lon="5.6284">
        <ele>869.31</ele>
        <time>2018-08-26T14:07:15Z</time>
      </trkpt>
      <trkpt lat="44.90413" lon="5.62794">
        <ele>871.23</ele>
        <time>2018-08-26T14:07:16Z</time>
      </trkpt>
      <trkpt lat="44.90434" lon="5.62776">
        <ele>873.9</ele>
        <time>2018-08-26T14:07:17Z</time>
      </trkpt>
      <trkpt lat="44.90454" lon="5.62754">
        <ele>876.81</ele>
        <time>2018-08-26T14:07:18Z</time>
      </trkpt>
      <trkpt lat="44.90474" lon="5.62729">
        <ele>879.78</ele>
        <time>2018-08-26T14:07:19Z</time>
      </trkpt>
      <trkpt lat="44.90493" lon="5.62701">
        <ele>881.37</ele>
        <time>2018-08-26T14:07:20Z</time>
      </trkpt>
      <trkpt lat="44.90511" lon="5.62673">
        <ele>883.94</ele>
        <time>2018-08-26T14:07:21Z</time>
      </trkpt>
      <trkpt lat="44.90527" lon="5.62649">
        <ele>885.42</ele>
        <time>2018-08-26T14:07:22Z</time>
      </trkpt>
      <trkpt lat="44.90545" lon="5.62636">
        <ele>887.96</ele>
        <time>2018-08-26T14:07:23Z</time>
      </trkpt>
      <trkpt lat="44.90562" lon="5.62629">
        <ele>890.12</ele>
        <time>2018-08-26T14:07:24Z</time>
      </trkpt>
      <trkpt lat="44.9058" lon="5.62626">
        <ele>892.17</ele>
        <time>2018-08-26T14:07:25Z</time>
      </trkpt>
      <trkpt lat="44.90599" lon="5.62631">
        <ele>893.49</ele>
        <time>2018-08-26T14:07:26Z</time>
      </trkpt>
      <trkpt lat="44.90631" lon="5.62646">
        <ele>894.21</ele>
        <time>2018-08-26T14:07:28Z</time>
      </trkpt>
      <trkpt lat="44.90657" lon="5.62661">
        <ele>894.06</ele>
        <time>2018-08-26T14:07:30Z</time>
      </trkpt>
      <trkpt lat="44.90682" lon="5.62683">
        <ele>893.35</ele>
        <time>2018-08-26T14:07:32Z</time>
      </trkpt>
      <trkpt lat="44.90704" lon="5.62712">
        <ele>891.47</ele>
        <time>2018-08-26T14:07:34Z</time>
      </trkpt>
      <trkpt lat="44.90721" lon="5.62747">
        <ele>889.48</ele>
        <time>2018-08-26T14:07:36Z</time>
      </trkpt>
      <trkpt lat="44.90735" lon="5.62778">
        <ele>887.48</ele>
        <time>2018-08-26T14:07:38Z</time>
      </trkpt>
      <trkpt lat="44.9075" lon="5.62798">
        <ele>888</ele>
        <time>2018-08-26T14:07:40Z</time>
      </trkpt>
      <trkpt lat="44.90767" lon="5.62812">
        <ele>887.05</ele>
        <time>2018-08-26T14:08:01Z</time>
      </trkpt>
      <trkpt lat="44.90771" lon="5.62847">
        <ele>884.47</ele>
        <time>2018-08-26T14:08:04Z</time>
      </trkpt>
      <trkpt lat="44.9078" lon="5.62877">
        <ele>883.39</ele>
        <time>2018-08-26T14:08:06Z</time>
      </trkpt>
      <trkpt lat="44.90794" lon="5.6291">
        <ele>881.47</ele>
        <time>2018-08-26T14:08:08Z</time>
      </trkpt>
      <trkpt lat="44.90812" lon="5.62945">
        <ele>878.78</ele>
        <time>2018-08-26T14:08:10Z</time>
      </trkpt>
      <trkpt lat="44.90833" lon="5.6298">
        <ele>874.89</ele>
        <time>2018-08-26T14:08:12Z</time>
      </trkpt>
      <trkpt lat="44.90859" lon="5.6301">
        <ele>872.52</ele>
        <time>2018-08-26T14:08:14Z</time>
      </trkpt>
      <trkpt lat="44.90888" lon="5.63037">
        <ele>870.27</ele>
        <time>2018-08-26T14:08:16Z</time>
      </trkpt>
      <trkpt lat="44.90919" lon="5.63056">
        <ele>867.55</ele>
        <time>2018-08-26T14:08:18Z</time>
      </trkpt>
      <trkpt lat="44.9095" lon="5.63073">
        <ele>864.57</ele>
        <time>2018-08-26T14:08:20Z</time>
      </trkpt>
      <trkpt lat="44.90977" lon="5.63089">
        <ele>863.19</ele>
        <time>2018-08-26T14:08:22Z</time>
      </trkpt>
      <trkpt lat="44.91005" lon="5.63104">
        <ele>859.84</ele>
        <time>2018-08-26T14:08:24Z</time>
      </trkpt>
      <trkpt lat="44.91034" lon="5.63118">
        <ele>857.51</ele>
        <time>2018-08-26T14:08:26Z</time>
      </trkpt>
      <trkpt lat="44.91061" lon="5.63132">
        <ele>854.57</ele>
        <time>2018-08-26T14:08:28Z</time>
      </trkpt>
      <trkpt lat="44.91085" lon="5.63147">
        <ele>853.4</ele>
        <time>2018-08-26T14:08:30Z</time>
      </trkpt>
      <trkpt lat="44.9111" lon="5.6316">
        <ele>852.38</ele>
        <time>2018-08-26T14:08:32Z</time>
      </trkpt>
      <trkpt lat="44.91136" lon="5.63171">
        <ele>850.47</ele>
        <time>2018-08-26T14:08:34Z</time>
      </trkpt>
      <trkpt lat="44.91162" lon="5.63182">
        <ele>849.39</ele>
        <time>2018-08-26T14:08:36Z</time>
      </trkpt>
      <trkpt lat="44.91189" lon="5.63199">
        <ele>847.47</ele>
        <time>2018-08-26T14:08:38Z</time>
      </trkpt>
      <trkpt lat="44.91214" lon="5.63215">
        <ele>846.39</ele>
        <time>2018-08-26T14:08:40Z</time>
      </trkpt>
      <trkpt lat="44.9124" lon="5.63228">
        <ele>845.38</ele>
        <time>2018-08-26T14:08:42Z</time>
      </trkpt>
      <trkpt lat="44.91266" lon="5.63241">
        <ele>844.38</ele>
        <time>2018-08-26T14:08:44Z</time>
      </trkpt>
      <trkpt lat="44.91288" lon="5.63256">
        <ele>844.08</ele>
        <time>2018-08-26T14:08:46Z</time>
      </trkpt>
      <trkpt lat="44.91307" lon="5.6327">
        <ele>844.05</ele>
        <time>2018-08-26T14:08:48Z</time>
      </trkpt>
      <trkpt lat="44.9133" lon="5.63279">
        <ele>843.35</ele>
        <time>2018-08-26T14:08:50Z</time>
      </trkpt>
      <trkpt lat="44.91355" lon="5.63291">
        <ele>841.47</ele>
        <time>2018-08-26T14:08:52Z</time>
      </trkpt>
      <trkpt lat="44.91379" lon="5.63305">
        <ele>840.18</ele>
        <time>2018-08-26T14:08:54Z</time>
      </trkpt>
      <trkpt lat="44.91405" lon="5.63318">
        <ele>838.45</ele>
        <time>2018-08-26T14:08:56Z</time>
      </trkpt>
      <trkpt lat="44.9143" lon="5.63331">
        <ele>836.48</ele>
        <time>2018-08-26T14:08:58Z</time>
      </trkpt>
      <trkpt lat="44.91455" lon="5.63344">
        <ele>834.48</ele>
        <time>2018-08-26T14:09:00Z</time>
      </trkpt>
      <trkpt lat="44.91479" lon="5.63358">
        <ele>833.39</ele>
        <time>2018-08-26T14:09:02Z</time>
      </trkpt>
      <trkpt lat="44.91502" lon="5.63371">
        <ele>832.38</ele>
        <time>2018-08-26T14:09:04Z</time>
      </trkpt>
      <trkpt lat="44.91526" lon="5.63384">
        <ele>831.38</ele>
        <time>2018-08-26T14:09:06Z</time>
      </trkpt>
      <trkpt lat="44.9155" lon="5.63396">
        <ele>830.17</ele>
        <time>2018-08-26T14:09:08Z</time>
      </trkpt>
      <trkpt lat="44.91573" lon="5.63407">
        <ele>829.36</ele>
        <time>2018-08-26T14:09:10Z</time>
      </trkpt>
      <trkpt lat="44.91596" lon="5.63409">
        <ele>828.17</ele>
        <time>2018-08-26T14:09:12Z</time>
      </trkpt>
      <trkpt lat="44.9162" lon="5.63397">
        <ele>825.54</ele>
        <time>2018-08-26T14:09:14Z</time>
      </trkpt>
      <trkpt lat="44.91642" lon="5.63373">
        <ele>825.09</ele>
        <time>2018-08-26T14:09:16Z</time>
      </trkpt>
      <trkpt lat="44.91664" lon="5.63345">
        <ele>824.35</ele>
        <time>2018-08-26T14:09:18Z</time>
      </trkpt>
      <trkpt lat="44.91687" lon="5.63319">
        <ele>823.38</ele>
        <time>2018-08-26T14:09:20Z</time>
      </trkpt>
      <trkpt lat="44.91713" lon="5.63303">
        <ele>822.17</ele>
        <time>2018-08-26T14:09:22Z</time>
      </trkpt>
      <trkpt lat="44.9174" lon="5.63299">
        <ele>822.27</ele>
        <time>2018-08-26T14:09:24Z</time>
      </trkpt>
      <trkpt lat="44.91766" lon="5.63308">
        <ele>822.07</ele>
        <time>2018-08-26T14:09:26Z</time>
      </trkpt>
      <trkpt lat="44.91791" lon="5.63328">
        <ele>821.35</ele>
        <time>2018-08-26T14:09:28Z</time>
      </trkpt>
      <trkpt lat="44.91817" lon="5.63353">
        <ele>820.38</ele>
        <time>2018-08-26T14:09:30Z</time>
      </trkpt>
      <trkpt lat="44.91842" lon="5.63379">
        <ele>818.47</ele>
        <time>2018-08-26T14:09:32Z</time>
      </trkpt>
      <trkpt lat="44.91866" lon="5.63404">
        <ele>816.48</ele>
        <time>2018-08-26T14:09:34Z</time>
      </trkpt>
      <trkpt lat="44.91892" lon="5.63429">
        <ele>814.48</ele>
        <time>2018-08-26T14:09:36Z</time>
      </trkpt>
      <trkpt lat="44.91919" lon="5.63452">
        <ele>811.57</ele>
        <time>2018-08-26T14:09:38Z</time>
      </trkpt>
      <trkpt lat="44.91948" lon="5.63463">
        <ele>810.19</ele>
        <time>2018-08-26T14:09:40Z</time>
      </trkpt>
      <trkpt lat="44.91977" lon="5.63467">
        <ele>808.45</ele>
        <time>2018-08-26T14:09:42Z</time>
      </trkpt>
      <trkpt lat="44.92005" lon="5.63469">
        <ele>807.18</ele>
        <time>2018-08-26T14:09:44Z</time>
      </trkpt>
      <trkpt lat="44.92029" lon="5.63478">
        <ele>806.15</ele>
        <time>2018-08-26T14:09:46Z</time>
      </trkpt>
      <trkpt lat="44.92053" lon="5.63495">
        <ele>805.36</ele>
        <time>2018-08-26T14:09:48Z</time>
      </trkpt>
      <trkpt lat="44.92074" lon="5.63521">
        <ele>803.47</ele>
        <time>2018-08-26T14:09:50Z</time>
      </trkpt>
      <trkpt lat="44.92092" lon="5.6355">
        <ele>802.39</ele>
        <time>2018-08-26T14:09:52Z</time>
      </trkpt>
      <trkpt lat="44.92103" lon="5.6358">
        <ele>801.17</ele>
        <time>2018-08-26T14:09:54Z</time>
      </trkpt>
      <trkpt lat="44.92107" lon="5.63609">
        <ele>801.05</ele>
        <time>2018-08-26T14:09:57Z</time>
      </trkpt>
      <trkpt lat="44.92106" lon="5.63635">
        <ele>801.05</ele>
        <time>2018-08-26T14:10:00Z</time>
      </trkpt>
      <trkpt lat="44.92121" lon="5.63649">
        <ele>801.32</ele>
        <time>2018-08-26T14:10:03Z</time>
      </trkpt>
      <trkpt lat="44.9214" lon="5.63656">
        <ele>801.07</ele>
        <time>2018-08-26T14:10:05Z</time>
      </trkpt>
      <trkpt lat="44.92163" lon="5.63663">
        <ele>801.75</ele>
        <time>2018-08-26T14:10:07Z</time>
      </trkpt>
      <trkpt lat="44.92189" lon="5.63671">
        <ele>802.72</ele>
        <time>2018-08-26T14:10:09Z</time>
      </trkpt>
      <trkpt lat="44.92216" lon="5.63681">
        <ele>802.11</ele>
        <time>2018-08-26T14:10:11Z</time>
      </trkpt>
      <trkpt lat="44.92243" lon="5.6369">
        <ele>802.05</ele>
        <time>2018-08-26T14:10:13Z</time>
      </trkpt>
      <trkpt lat="44.92271" lon="5.637">
        <ele>802.05</ele>
        <time>2018-08-26T14:10:15Z</time>
      </trkpt>
      <trkpt lat="44.92299" lon="5.6371">
        <ele>802.05</ele>
        <time>2018-08-26T14:10:17Z</time>
      </trkpt>
      <trkpt lat="44.92328" lon="5.63719">
        <ele>801.14</ele>
        <time>2018-08-26T14:10:19Z</time>
      </trkpt>
      <trkpt lat="44.92356" lon="5.6373">
        <ele>800.36</ele>
        <time>2018-08-26T14:10:21Z</time>
      </trkpt>
      <trkpt lat="44.92384" lon="5.63739">
        <ele>800.08</ele>
        <time>2018-08-26T14:10:23Z</time>
      </trkpt>
      <trkpt lat="44.92413" lon="5.6375">
        <ele>799.14</ele>
        <time>2018-08-26T14:10:25Z</time>
      </trkpt>
      <trkpt lat="44.92441" lon="5.6376">
        <ele>798.15</ele>
        <time>2018-08-26T14:10:27Z</time>
      </trkpt>
      <trkpt lat="44.92469" lon="5.63768">
        <ele>798.06</ele>
        <time>2018-08-26T14:10:29Z</time>
      </trkpt>
      <trkpt lat="44.92495" lon="5.63777">
        <ele>797.35</ele>
        <time>2018-08-26T14:10:31Z</time>
      </trkpt>
      <trkpt lat="44.92522" lon="5.63786">
        <ele>796.38</ele>
        <time>2018-08-26T14:10:33Z</time>
      </trkpt>
      <trkpt lat="44.92548" lon="5.63794">
        <ele>795.38</ele>
        <time>2018-08-26T14:10:35Z</time>
      </trkpt>
      <trkpt lat="44.92572" lon="5.63804">
        <ele>794.38</ele>
        <time>2018-08-26T14:10:37Z</time>
      </trkpt>
      <trkpt lat="44.92592" lon="5.6381">
        <ele>794.08</ele>
        <time>2018-08-26T14:10:39Z</time>
      </trkpt>
      <trkpt lat="44.92614" lon="5.63807">
        <ele>793.14</ele>
        <time>2018-08-26T14:10:41Z</time>
      </trkpt>
      <trkpt lat="44.92639" lon="5.63819">
        <ele>792.85</ele>
        <time>2018-08-26T14:10:43Z</time>
      </trkpt>
      <trkpt lat="44.92669" lon="5.63832">
        <ele>792.82</ele>
        <time>2018-08-26T14:10:45Z</time>
      </trkpt>
      <trkpt lat="44.92701" lon="5.63845">
        <ele>792.12</ele>
        <time>2018-08-26T14:10:47Z</time>
      </trkpt>
      <trkpt lat="44.92735" lon="5.63856">
        <ele>791.36</ele>
        <time>2018-08-26T14:10:49Z</time>
      </trkpt>
      <trkpt lat="44.9277" lon="5.63869">
        <ele>790.38</ele>
        <time>2018-08-26T14:10:51Z</time>
      </trkpt>
      <trkpt lat="44.92805" lon="5.63881">
        <ele>789.17</ele>
        <time>2018-08-26T14:10:53Z</time>
      </trkpt>
      <trkpt lat="44.92838" lon="5.63895">
        <ele>788.15</ele>
        <time>2018-08-26T14:10:55Z</time>
      </trkpt>
      <trkpt lat="44.9287" lon="5.63914">
        <ele>788.06</ele>
        <time>2018-08-26T14:10:57Z</time>
      </trkpt>
      <trkpt lat="44.92897" lon="5.6393">
        <ele>788.05</ele>
        <time>2018-08-26T14:10:59Z</time>
      </trkpt>
      <trkpt lat="44.92918" lon="5.63945">
        <ele>788.05</ele>
        <time>2018-08-26T14:11:01Z</time>
      </trkpt>
      <trkpt lat="44.92944" lon="5.63947">
        <ele>787.35</ele>
        <time>2018-08-26T14:11:03Z</time>
      </trkpt>
      <trkpt lat="44.92977" lon="5.63952">
        <ele>787.08</ele>
        <time>2018-08-26T14:11:05Z</time>
      </trkpt>
      <trkpt lat="44.92996" lon="5.63954">
        <ele>787.06</ele>
        <time>2018-08-26T14:11:06Z</time>
      </trkpt>
      <trkpt lat="44.93017" lon="5.63956">
        <ele>786.35</ele>
        <time>2018-08-26T14:11:07Z</time>
      </trkpt>
      <trkpt lat="44.93038" lon="5.63961">
        <ele>786.14</ele>
        <time>2018-08-26T14:11:08Z</time>
      </trkpt>
      <trkpt lat="44.93062" lon="5.63969">
        <ele>786.08</ele>
        <time>2018-08-26T14:11:09Z</time>
      </trkpt>
      <trkpt lat="44.93087" lon="5.63977">
        <ele>786.06</ele>
        <time>2018-08-26T14:11:10Z</time>
      </trkpt>
      <trkpt lat="44.93115" lon="5.63986">
        <ele>786.05</ele>
        <time>2018-08-26T14:11:11Z</time>
      </trkpt>
      <trkpt lat="44.93146" lon="5.63996">
        <ele>785.35</ele>
        <time>2018-08-26T14:11:12Z</time>
      </trkpt>
      <trkpt lat="44.93176" lon="5.64006">
        <ele>785.14</ele>
        <time>2018-08-26T14:11:13Z</time>
      </trkpt>
      <trkpt lat="44.93207" lon="5.64018">
        <ele>784.38</ele>
        <time>2018-08-26T14:11:14Z</time>
      </trkpt>
      <trkpt lat="44.93237" lon="5.64028">
        <ele>783.45</ele>
        <time>2018-08-26T14:11:15Z</time>
      </trkpt>
      <trkpt lat="44.93267" lon="5.64041">
        <ele>783.17</ele>
        <time>2018-08-26T14:11:16Z</time>
      </trkpt>
      <trkpt lat="44.93296" lon="5.64053">
        <ele>782.38</ele>
        <time>2018-08-26T14:11:17Z</time>
      </trkpt>
      <trkpt lat="44.93324" lon="5.64064">
        <ele>782.15</ele>
        <time>2018-08-26T14:11:18Z</time>
      </trkpt>
      <trkpt lat="44.93352" lon="5.64073">
        <ele>782.08</ele>
        <time>2018-08-26T14:11:19Z</time>
      </trkpt>
      <trkpt lat="44.9338" lon="5.64081">
        <ele>781.36</ele>
        <time>2018-08-26T14:11:20Z</time>
      </trkpt>
      <trkpt lat="44.93408" lon="5.64086">
        <ele>781.14</ele>
        <time>2018-08-26T14:11:21Z</time>
      </trkpt>
      <trkpt lat="44.93436" lon="5.64091">
        <ele>781.08</ele>
        <time>2018-08-26T14:11:22Z</time>
      </trkpt>
      <trkpt lat="44.93464" lon="5.64094">
        <ele>781.06</ele>
        <time>2018-08-26T14:11:23Z</time>
      </trkpt>
      <trkpt lat="44.93491" lon="5.64096">
        <ele>781.05</ele>
        <time>2018-08-26T14:11:24Z</time>
      </trkpt>
      <trkpt lat="44.93518" lon="5.64097">
        <ele>780.35</ele>
        <time>2018-08-26T14:11:25Z</time>
      </trkpt>
      <trkpt lat="44.93546" lon="5.64096">
        <ele>779.44</ele>
        <time>2018-08-26T14:11:26Z</time>
      </trkpt>
      <trkpt lat="44.93573" lon="5.64094">
        <ele>779.17</ele>
        <time>2018-08-26T14:11:27Z</time>
      </trkpt>
      <trkpt lat="44.936" lon="5.64092">
        <ele>779.08</ele>
        <time>2018-08-26T14:11:28Z</time>
      </trkpt>
      <trkpt lat="44.93628" lon="5.6409">
        <ele>779.06</ele>
        <time>2018-08-26T14:11:29Z</time>
      </trkpt>
      <trkpt lat="44.93655" lon="5.64087">
        <ele>778.35</ele>
        <time>2018-08-26T14:11:30Z</time>
      </trkpt>
      <trkpt lat="44.93681" lon="5.64082">
        <ele>777.44</ele>
        <time>2018-08-26T14:11:31Z</time>
      </trkpt>
      <trkpt lat="44.93706" lon="5.64077">
        <ele>777.17</ele>
        <time>2018-08-26T14:11:32Z</time>
      </trkpt>
      <trkpt lat="44.93731" lon="5.64069">
        <ele>776.38</ele>
        <time>2018-08-26T14:11:33Z</time>
      </trkpt>
      <trkpt lat="44.93754" lon="5.64059">
        <ele>776.85</ele>
        <time>2018-08-26T14:11:34Z</time>
      </trkpt>
      <trkpt lat="44.93776" lon="5.64048">
        <ele>776.29</ele>
        <time>2018-08-26T14:11:35Z</time>
      </trkpt>
      <trkpt lat="44.93797" lon="5.64041">
        <ele>775.42</ele>
        <time>2018-08-26T14:11:36Z</time>
      </trkpt>
      <trkpt lat="44.93821" lon="5.6404">
        <ele>775.16</ele>
        <time>2018-08-26T14:11:37Z</time>
      </trkpt>
      <trkpt lat="44.93847" lon="5.64044">
        <ele>775.08</ele>
        <time>2018-08-26T14:11:38Z</time>
      </trkpt>
      <trkpt lat="44.93873" lon="5.64048">
        <ele>775.06</ele>
        <time>2018-08-26T14:11:39Z</time>
      </trkpt>
      <trkpt lat="44.939" lon="5.6405">
        <ele>774.35</ele>
        <time>2018-08-26T14:11:40Z</time>
      </trkpt>
      <trkpt lat="44.93926" lon="5.64053">
        <ele>773.44</ele>
        <time>2018-08-26T14:11:41Z</time>
      </trkpt>
      <trkpt lat="44.93952" lon="5.64056">
        <ele>772.47</ele>
        <time>2018-08-26T14:11:42Z</time>
      </trkpt>
      <trkpt lat="44.93979" lon="5.6406">
        <ele>772.17</ele>
        <time>2018-08-26T14:11:43Z</time>
      </trkpt>
      <trkpt lat="44.94006" lon="5.64064">
        <ele>772.09</ele>
        <time>2018-08-26T14:11:44Z</time>
      </trkpt>
      <trkpt lat="44.94034" lon="5.64067">
        <ele>771.36</ele>
        <time>2018-08-26T14:11:45Z</time>
      </trkpt>
      <trkpt lat="44.94061" lon="5.6407">
        <ele>771.14</ele>
        <time>2018-08-26T14:11:46Z</time>
      </trkpt>
      <trkpt lat="44.94089" lon="5.6407">
        <ele>770.38</ele>
        <time>2018-08-26T14:11:47Z</time>
      </trkpt>
      <trkpt lat="44.94117" lon="5.64067">
        <ele>770.15</ele>
        <time>2018-08-26T14:11:48Z</time>
      </trkpt>
      <trkpt lat="44.94144" lon="5.64062">
        <ele>769.38</ele>
        <time>2018-08-26T14:11:49Z</time>
      </trkpt>
      <trkpt lat="44.94171" lon="5.64055">
        <ele>768.45</ele>
        <time>2018-08-26T14:11:50Z</time>
      </trkpt>
      <trkpt lat="44.94197" lon="5.64046">
        <ele>768.87</ele>
        <time>2018-08-26T14:11:51Z</time>
      </trkpt>
      <trkpt lat="44.94222" lon="5.64031">
        <ele>767.59</ele>
        <time>2018-08-26T14:11:52Z</time>
      </trkpt>
      <trkpt lat="44.94247" lon="5.64018">
        <ele>766.51</ele>
        <time>2018-08-26T14:11:53Z</time>
      </trkpt>
      <trkpt lat="44.94271" lon="5.6401">
        <ele>765.49</ele>
        <time>2018-08-26T14:11:54Z</time>
      </trkpt>
      <trkpt lat="44.94295" lon="5.64005">
        <ele>765.18</ele>
        <time>2018-08-26T14:11:55Z</time>
      </trkpt>
      <trkpt lat="44.94318" lon="5.64001">
        <ele>764.39</ele>
        <time>2018-08-26T14:11:56Z</time>
      </trkpt>
      <trkpt lat="44.94341" lon="5.63994">
        <ele>764.15</ele>
        <time>2018-08-26T14:11:57Z</time>
      </trkpt>
      <trkpt lat="44.94362" lon="5.63983">
        <ele>764.08</ele>
        <time>2018-08-26T14:11:58Z</time>
      </trkpt>
      <trkpt lat="44.94381" lon="5.63969">
        <ele>763.36</ele>
        <time>2018-08-26T14:11:59Z</time>
      </trkpt>
      <trkpt lat="44.944" lon="5.63958">
        <ele>762.44</ele>
        <time>2018-08-26T14:12:00Z</time>
      </trkpt>
      <trkpt lat="44.94418" lon="5.63951">
        <ele>762.17</ele>
        <time>2018-08-26T14:12:01Z</time>
      </trkpt>
      <trkpt lat="44.94437" lon="5.63951">
        <ele>761.38</ele>
        <time>2018-08-26T14:12:02Z</time>
      </trkpt>
      <trkpt lat="44.94457" lon="5.63956">
        <ele>761.15</ele>
        <time>2018-08-26T14:12:03Z</time>
      </trkpt>
      <trkpt lat="44.94479" lon="5.63963">
        <ele>760.38</ele>
        <time>2018-08-26T14:12:04Z</time>
      </trkpt>
      <trkpt lat="44.94499" lon="5.63968">
        <ele>760.15</ele>
        <time>2018-08-26T14:12:05Z</time>
      </trkpt>
      <trkpt lat="44.94531" lon="5.63985">
        <ele>760.06</ele>
        <time>2018-08-26T14:12:07Z</time>
      </trkpt>
      <trkpt lat="44.94546" lon="5.64001">
        <ele>760.05</ele>
        <time>2018-08-26T14:12:08Z</time>
      </trkpt>
      <trkpt lat="44.94562" lon="5.6402">
        <ele>760.05</ele>
        <time>2018-08-26T14:12:09Z</time>
      </trkpt>
      <trkpt lat="44.94578" lon="5.64036">
        <ele>760.05</ele>
        <time>2018-08-26T14:12:10Z</time>
      </trkpt>
      <trkpt lat="44.94614" lon="5.64046">
        <ele>760.05</ele>
        <time>2018-08-26T14:12:12Z</time>
      </trkpt>
      <trkpt lat="44.94635" lon="5.64041">
        <ele>758.65</ele>
        <time>2018-08-26T14:12:13Z</time>
      </trkpt>
      <trkpt lat="44.94657" lon="5.64035">
        <ele>758.23</ele>
        <time>2018-08-26T14:12:14Z</time>
      </trkpt>
      <trkpt lat="44.94682" lon="5.64019">
        <ele>757.4</ele>
        <time>2018-08-26T14:12:15Z</time>
      </trkpt>
      <trkpt lat="44.94706" lon="5.64004">
        <ele>756.46</ele>
        <time>2018-08-26T14:12:16Z</time>
      </trkpt>
      <trkpt lat="44.94729" lon="5.63987">
        <ele>756.17</ele>
        <time>2018-08-26T14:12:17Z</time>
      </trkpt>
      <trkpt lat="44.94751" lon="5.63972">
        <ele>754.69</ele>
        <time>2018-08-26T14:12:18Z</time>
      </trkpt>
      <trkpt lat="44.94772" lon="5.63958">
        <ele>754.24</ele>
        <time>2018-08-26T14:12:19Z</time>
      </trkpt>
      <trkpt lat="44.94794" lon="5.63948">
        <ele>753.41</ele>
        <time>2018-08-26T14:12:20Z</time>
      </trkpt>
      <trkpt lat="44.94816" lon="5.63941">
        <ele>752.46</ele>
        <time>2018-08-26T14:12:21Z</time>
      </trkpt>
      <trkpt lat="44.9484" lon="5.63937">
        <ele>751.47</ele>
        <time>2018-08-26T14:12:22Z</time>
      </trkpt>
      <trkpt lat="44.94864" lon="5.63934">
        <ele>750.48</ele>
        <time>2018-08-26T14:12:23Z</time>
      </trkpt>
      <trkpt lat="44.94888" lon="5.63932">
        <ele>750.18</ele>
        <time>2018-08-26T14:12:24Z</time>
      </trkpt>
      <trkpt lat="44.94912" lon="5.6393">
        <ele>749.39</ele>
        <time>2018-08-26T14:12:25Z</time>
      </trkpt>
      <trkpt lat="44.94936" lon="5.63929">
        <ele>749.15</ele>
        <time>2018-08-26T14:12:26Z</time>
      </trkpt>
      <trkpt lat="44.9496" lon="5.6393">
        <ele>748.38</ele>
        <time>2018-08-26T14:12:27Z</time>
      </trkpt>
      <trkpt lat="44.94984" lon="5.63934">
        <ele>746.75</ele>
        <time>2018-08-26T14:12:28Z</time>
      </trkpt>
      <trkpt lat="44.95006" lon="5.6394">
        <ele>745.56</ele>
        <time>2018-08-26T14:12:29Z</time>
      </trkpt>
      <trkpt lat="44.95027" lon="5.63947">
        <ele>745.9</ele>
        <time>2018-08-26T14:12:30Z</time>
      </trkpt>
      <trkpt lat="44.95047" lon="5.63953">
        <ele>745.3</ele>
        <time>2018-08-26T14:12:31Z</time>
      </trkpt>
      <trkpt lat="44.95067" lon="5.63953">
        <ele>745.13</ele>
        <time>2018-08-26T14:12:32Z</time>
      </trkpt>
      <trkpt lat="44.95088" lon="5.63949">
        <ele>744.37</ele>
        <time>2018-08-26T14:12:33Z</time>
      </trkpt>
      <trkpt lat="44.95107" lon="5.63946">
        <ele>743.45</ele>
        <time>2018-08-26T14:12:34Z</time>
      </trkpt>
      <trkpt lat="44.95126" lon="5.63947">
        <ele>743.17</ele>
        <time>2018-08-26T14:12:35Z</time>
      </trkpt>
      <trkpt lat="44.95143" lon="5.63953">
        <ele>742.38</ele>
        <time>2018-08-26T14:12:36Z</time>
      </trkpt>
      <trkpt lat="44.95161" lon="5.63962">
        <ele>741.45</ele>
        <time>2018-08-26T14:12:37Z</time>
      </trkpt>
      <trkpt lat="44.95178" lon="5.63984">
        <ele>739.77</ele>
        <time>2018-08-26T14:12:38Z</time>
      </trkpt>
      <trkpt lat="44.95195" lon="5.64003">
        <ele>739.27</ele>
        <time>2018-08-26T14:12:39Z</time>
      </trkpt>
      <trkpt lat="44.9521" lon="5.6402">
        <ele>739.11</ele>
        <time>2018-08-26T14:12:40Z</time>
      </trkpt>
      <trkpt lat="44.95242" lon="5.64039">
        <ele>737.23</ele>
        <time>2018-08-26T14:12:42Z</time>
      </trkpt>
      <trkpt lat="44.95279" lon="5.64036">
        <ele>736.16</ele>
        <time>2018-08-26T14:12:44Z</time>
      </trkpt>
      <trkpt lat="44.95309" lon="5.64011">
        <ele>735.36</ele>
        <time>2018-08-26T14:12:46Z</time>
      </trkpt>
      <trkpt lat="44.95339" lon="5.64003">
        <ele>734.17</ele>
        <time>2018-08-26T14:12:48Z</time>
      </trkpt>
      <trkpt lat="44.95373" lon="5.64024">
        <ele>732.45</ele>
        <time>2018-08-26T14:12:50Z</time>
      </trkpt>
      <trkpt lat="44.9539" lon="5.64036">
        <ele>732.17</ele>
        <time>2018-08-26T14:12:51Z</time>
      </trkpt>
      <trkpt lat="44.95406" lon="5.64047">
        <ele>732.09</ele>
        <time>2018-08-26T14:12:52Z</time>
      </trkpt>
      <trkpt lat="44.95439" lon="5.64057">
        <ele>732.96</ele>
        <time>2018-08-26T14:12:54Z</time>
      </trkpt>
      <trkpt lat="44.95459" lon="5.64054">
        <ele>732.32</ele>
        <time>2018-08-26T14:12:55Z</time>
      </trkpt>
      <trkpt lat="44.9548" lon="5.64049">
        <ele>732.13</ele>
        <time>2018-08-26T14:12:56Z</time>
      </trkpt>
      <trkpt lat="44.95498" lon="5.6403">
        <ele>730.67</ele>
        <time>2018-08-26T14:12:57Z</time>
      </trkpt>
      <trkpt lat="44.95518" lon="5.64015">
        <ele>730.24</ele>
        <time>2018-08-26T14:12:58Z</time>
      </trkpt>
      <trkpt lat="44.95537" lon="5.63995">
        <ele>730.11</ele>
        <time>2018-08-26T14:12:59Z</time>
      </trkpt>
      <trkpt lat="44.95555" lon="5.63967">
        <ele>729.37</ele>
        <time>2018-08-26T14:13:00Z</time>
      </trkpt>
      <trkpt lat="44.95577" lon="5.63944">
        <ele>728.44</ele>
        <time>2018-08-26T14:13:01Z</time>
      </trkpt>
      <trkpt lat="44.956" lon="5.63926">
        <ele>727.47</ele>
        <time>2018-08-26T14:13:02Z</time>
      </trkpt>
      <trkpt lat="44.95623" lon="5.63908">
        <ele>727.17</ele>
        <time>2018-08-26T14:13:03Z</time>
      </trkpt>
      <trkpt lat="44.95646" lon="5.6389">
        <ele>726.39</ele>
        <time>2018-08-26T14:13:04Z</time>
      </trkpt>
      <trkpt lat="44.95668" lon="5.63871">
        <ele>725.45</ele>
        <time>2018-08-26T14:13:05Z</time>
      </trkpt>
      <trkpt lat="44.95689" lon="5.63851">
        <ele>724.47</ele>
        <time>2018-08-26T14:13:06Z</time>
      </trkpt>
      <trkpt lat="44.9571" lon="5.63833">
        <ele>724.18</ele>
        <time>2018-08-26T14:13:07Z</time>
      </trkpt>
      <trkpt lat="44.95731" lon="5.63816">
        <ele>724.09</ele>
        <time>2018-08-26T14:13:08Z</time>
      </trkpt>
      <trkpt lat="44.95753" lon="5.63801">
        <ele>724.06</ele>
        <time>2018-08-26T14:13:09Z</time>
      </trkpt>
      <trkpt lat="44.95774" lon="5.63789">
        <ele>723.35</ele>
        <time>2018-08-26T14:13:10Z</time>
      </trkpt>
      <trkpt lat="44.95796" lon="5.63778">
        <ele>723.14</ele>
        <time>2018-08-26T14:13:11Z</time>
      </trkpt>
      <trkpt lat="44.9582" lon="5.6377">
        <ele>723.08</ele>
        <time>2018-08-26T14:13:12Z</time>
      </trkpt>
      <trkpt lat="44.95845" lon="5.63765">
        <ele>723.06</ele>
        <time>2018-08-26T14:13:13Z</time>
      </trkpt>
      <trkpt lat="44.9587" lon="5.63762">
        <ele>722.35</ele>
        <time>2018-08-26T14:13:14Z</time>
      </trkpt>
      <trkpt lat="44.95894" lon="5.63758">
        <ele>721.44</ele>
        <time>2018-08-26T14:13:15Z</time>
      </trkpt>
      <trkpt lat="44.95919" lon="5.63752">
        <ele>721.17</ele>
        <time>2018-08-26T14:13:16Z</time>
      </trkpt>
      <trkpt lat="44.95943" lon="5.63739">
        <ele>721.08</ele>
        <time>2018-08-26T14:13:17Z</time>
      </trkpt>
      <trkpt lat="44.95968" lon="5.63725">
        <ele>720.36</ele>
        <time>2018-08-26T14:13:18Z</time>
      </trkpt>
      <trkpt lat="44.95992" lon="5.6371">
        <ele>719.44</ele>
        <time>2018-08-26T14:13:19Z</time>
      </trkpt>
      <trkpt lat="44.96015" lon="5.63697">
        <ele>718.47</ele>
        <time>2018-08-26T14:13:20Z</time>
      </trkpt>
      <trkpt lat="44.96038" lon="5.63686">
        <ele>718.17</ele>
        <time>2018-08-26T14:13:21Z</time>
      </trkpt>
      <trkpt lat="44.96063" lon="5.63681">
        <ele>717.39</ele>
        <time>2018-08-26T14:13:22Z</time>
      </trkpt>
      <trkpt lat="44.96091" lon="5.63677">
        <ele>717.15</ele>
        <time>2018-08-26T14:13:23Z</time>
      </trkpt>
      <trkpt lat="44.96118" lon="5.63673">
        <ele>716.38</ele>
        <time>2018-08-26T14:13:24Z</time>
      </trkpt>
      <trkpt lat="44.96145" lon="5.63664">
        <ele>715.45</ele>
        <time>2018-08-26T14:13:25Z</time>
      </trkpt>
      <trkpt lat="44.96171" lon="5.63654">
        <ele>715.17</ele>
        <time>2018-08-26T14:13:26Z</time>
      </trkpt>
      <trkpt lat="44.96196" lon="5.63643">
        <ele>715.08</ele>
        <time>2018-08-26T14:13:27Z</time>
      </trkpt>
      <trkpt lat="44.96221" lon="5.63634">
        <ele>714.36</ele>
        <time>2018-08-26T14:13:28Z</time>
      </trkpt>
      <trkpt lat="44.96246" lon="5.63625">
        <ele>714.14</ele>
        <time>2018-08-26T14:13:29Z</time>
      </trkpt>
      <trkpt lat="44.96271" lon="5.63616">
        <ele>713.38</ele>
        <time>2018-08-26T14:13:30Z</time>
      </trkpt>
      <trkpt lat="44.96294" lon="5.63607">
        <ele>712.45</ele>
        <time>2018-08-26T14:13:31Z</time>
      </trkpt>
      <trkpt lat="44.96313" lon="5.636">
        <ele>712.17</ele>
        <time>2018-08-26T14:13:32Z</time>
      </trkpt>
      <trkpt lat="44.9634" lon="5.63588">
        <ele>711.85</ele>
        <time>2018-08-26T14:13:34Z</time>
      </trkpt>
      <trkpt lat="44.9636" lon="5.6358">
        <ele>712.03</ele>
        <time>2018-08-26T14:13:36Z</time>
      </trkpt>
      <trkpt lat="44.96383" lon="5.63595">
        <ele>710.17</ele>
        <time>2018-08-26T14:13:39Z</time>
      </trkpt>
      <trkpt lat="44.96379" lon="5.63631">
        <ele>709.29</ele>
        <time>2018-08-26T14:13:42Z</time>
      </trkpt>
      <trkpt lat="44.96367" lon="5.63662">
        <ele>709.07</ele>
        <time>2018-08-26T14:13:44Z</time>
      </trkpt>
      <trkpt lat="44.96348" lon="5.63687">
        <ele>709.06</ele>
        <time>2018-08-26T14:13:45Z</time>
      </trkpt>
      <trkpt lat="44.96333" lon="5.63725">
        <ele>709.05</ele>
        <time>2018-08-26T14:13:47Z</time>
      </trkpt>
      <trkpt lat="44.96331" lon="5.63753">
        <ele>708.35</ele>
        <time>2018-08-26T14:13:48Z</time>
      </trkpt>
      <trkpt lat="44.96329" lon="5.63792">
        <ele>707.17</ele>
        <time>2018-08-26T14:13:50Z</time>
      </trkpt>
      <trkpt lat="44.96341" lon="5.63818">
        <ele>706.15</ele>
        <time>2018-08-26T14:13:52Z</time>
      </trkpt>
      <trkpt lat="44.96361" lon="5.6383">
        <ele>705.15</ele>
        <time>2018-08-26T14:13:54Z</time>
      </trkpt>
      <trkpt lat="44.96395" lon="5.63793">
        <ele>704.15</ele>
        <time>2018-08-26T14:13:56Z</time>
      </trkpt>
      <trkpt lat="44.96413" lon="5.63781">
        <ele>704.08</ele>
        <time>2018-08-26T14:13:57Z</time>
      </trkpt>
      <trkpt lat="44.96429" lon="5.6377">
        <ele>704.06</ele>
        <time>2018-08-26T14:13:58Z</time>
      </trkpt>
      <trkpt lat="44.96448" lon="5.63766">
        <ele>704.05</ele>
        <time>2018-08-26T14:13:59Z</time>
      </trkpt>
      <trkpt lat="44.9647" lon="5.63762">
        <ele>703.35</ele>
        <time>2018-08-26T14:14:00Z</time>
      </trkpt>
      <trkpt lat="44.96505" lon="5.63774">
        <ele>703.84</ele>
        <time>2018-08-26T14:14:01Z</time>
      </trkpt>
      <trkpt lat="44.96534" lon="5.63773">
        <ele>704.69</ele>
        <time>2018-08-26T14:14:02Z</time>
      </trkpt>
      <trkpt lat="44.96564" lon="5.63771">
        <ele>704.94</ele>
        <time>2018-08-26T14:14:03Z</time>
      </trkpt>
      <trkpt lat="44.96594" lon="5.63767">
        <ele>705.02</ele>
        <time>2018-08-26T14:14:04Z</time>
      </trkpt>
      <trkpt lat="44.96621" lon="5.63761">
        <ele>705.04</ele>
        <time>2018-08-26T14:14:05Z</time>
      </trkpt>
      <trkpt lat="44.96645" lon="5.63757">
        <ele>705.05</ele>
        <time>2018-08-26T14:14:06Z</time>
      </trkpt>
      <trkpt lat="44.96666" lon="5.63755">
        <ele>705.05</ele>
        <time>2018-08-26T14:14:07Z</time>
      </trkpt>
      <trkpt lat="44.96684" lon="5.63754">
        <ele>705.05</ele>
        <time>2018-08-26T14:14:08Z</time>
      </trkpt>
      <trkpt lat="44.96703" lon="5.63754">
        <ele>704.35</ele>
        <time>2018-08-26T14:14:09Z</time>
      </trkpt>
      <trkpt lat="44.96722" lon="5.63755">
        <ele>704.14</ele>
        <time>2018-08-26T14:14:10Z</time>
      </trkpt>
      <trkpt lat="44.96746" lon="5.63767">
        <ele>704.08</ele>
        <time>2018-08-26T14:14:11Z</time>
      </trkpt>
      <trkpt lat="44.96769" lon="5.63778">
        <ele>704.06</ele>
        <time>2018-08-26T14:14:12Z</time>
      </trkpt>
      <trkpt lat="44.96795" lon="5.6379">
        <ele>704.05</ele>
        <time>2018-08-26T14:14:13Z</time>
      </trkpt>
      <trkpt lat="44.96822" lon="5.638">
        <ele>703.35</ele>
        <time>2018-08-26T14:14:14Z</time>
      </trkpt>
      <trkpt lat="44.96849" lon="5.63812">
        <ele>703.84</ele>
        <time>2018-08-26T14:14:15Z</time>
      </trkpt>
      <trkpt lat="44.96875" lon="5.63824">
        <ele>703.99</ele>
        <time>2018-08-26T14:14:16Z</time>
      </trkpt>
      <trkpt lat="44.96898" lon="5.63837">
        <ele>703.33</ele>
        <time>2018-08-26T14:14:17Z</time>
      </trkpt>
      <trkpt lat="44.96922" lon="5.63852">
        <ele>702.43</ele>
        <time>2018-08-26T14:14:18Z</time>
      </trkpt>
      <trkpt lat="44.96943" lon="5.63874">
        <ele>702.86</ele>
        <time>2018-08-26T14:14:19Z</time>
      </trkpt>
      <trkpt lat="44.96964" lon="5.63893">
        <ele>702.29</ele>
        <time>2018-08-26T14:14:20Z</time>
      </trkpt>
      <trkpt lat="44.96984" lon="5.63914">
        <ele>702.12</ele>
        <time>2018-08-26T14:14:21Z</time>
      </trkpt>
      <trkpt lat="44.96999" lon="5.63936">
        <ele>702.07</ele>
        <time>2018-08-26T14:14:22Z</time>
      </trkpt>
      <trkpt lat="44.97011" lon="5.63957">
        <ele>701.36</ele>
        <time>2018-08-26T14:14:23Z</time>
      </trkpt>
      <trkpt lat="44.97029" lon="5.63994">
        <ele>699.47</ele>
        <time>2018-08-26T14:14:25Z</time>
      </trkpt>
      <trkpt lat="44.97055" lon="5.64031">
        <ele>699.3</ele>
        <time>2018-08-26T14:14:27Z</time>
      </trkpt>
      <trkpt lat="44.97073" lon="5.64049">
        <ele>699.82</ele>
        <time>2018-08-26T14:14:28Z</time>
      </trkpt>
      <trkpt lat="44.9709" lon="5.6407">
        <ele>699.28</ele>
        <time>2018-08-26T14:14:29Z</time>
      </trkpt>
      <trkpt lat="44.97108" lon="5.64091">
        <ele>699.82</ele>
        <time>2018-08-26T14:14:30Z</time>
      </trkpt>
      <trkpt lat="44.97124" lon="5.64112">
        <ele>698.58</ele>
        <time>2018-08-26T14:14:31Z</time>
      </trkpt>
      <trkpt lat="44.97142" lon="5.64128">
        <ele>698.21</ele>
        <time>2018-08-26T14:14:32Z</time>
      </trkpt>
      <trkpt lat="44.9716" lon="5.64144">
        <ele>698.1</ele>
        <time>2018-08-26T14:14:33Z</time>
      </trkpt>
      <trkpt lat="44.97179" lon="5.6416">
        <ele>697.36</ele>
        <time>2018-08-26T14:14:34Z</time>
      </trkpt>
      <trkpt lat="44.97202" lon="5.64173">
        <ele>696.44</ele>
        <time>2018-08-26T14:14:35Z</time>
      </trkpt>
      <trkpt lat="44.97226" lon="5.64186">
        <ele>696.87</ele>
        <time>2018-08-26T14:14:36Z</time>
      </trkpt>
      <trkpt lat="44.97256" lon="5.6419">
        <ele>696.99</ele>
        <time>2018-08-26T14:14:37Z</time>
      </trkpt>
      <trkpt lat="44.97281" lon="5.64196">
        <ele>696.33</ele>
        <time>2018-08-26T14:14:38Z</time>
      </trkpt>
      <trkpt lat="44.97305" lon="5.6421">
        <ele>694.03</ele>
        <time>2018-08-26T14:14:39Z</time>
      </trkpt>
      <trkpt lat="44.97331" lon="5.64224">
        <ele>693.34</ele>
        <time>2018-08-26T14:14:40Z</time>
      </trkpt>
      <trkpt lat="44.97355" lon="5.64244">
        <ele>691.74</ele>
        <time>2018-08-26T14:14:41Z</time>
      </trkpt>
      <trkpt lat="44.97379" lon="5.64263">
        <ele>691.26</ele>
        <time>2018-08-26T14:14:42Z</time>
      </trkpt>
      <trkpt lat="44.97403" lon="5.64279">
        <ele>691.11</ele>
        <time>2018-08-26T14:14:43Z</time>
      </trkpt>
      <trkpt lat="44.97427" lon="5.64293">
        <ele>690.37</ele>
        <time>2018-08-26T14:14:44Z</time>
      </trkpt>
      <trkpt lat="44.97452" lon="5.64303">
        <ele>690.14</ele>
        <time>2018-08-26T14:14:45Z</time>
      </trkpt>
      <trkpt lat="44.97479" lon="5.64313">
        <ele>689.38</ele>
        <time>2018-08-26T14:14:46Z</time>
      </trkpt>
      <trkpt lat="44.97509" lon="5.64322">
        <ele>688.45</ele>
        <time>2018-08-26T14:14:47Z</time>
      </trkpt>
      <trkpt lat="44.9754" lon="5.64328">
        <ele>688.17</ele>
        <time>2018-08-26T14:14:48Z</time>
      </trkpt>
      <trkpt lat="44.97571" lon="5.64336">
        <ele>687.38</ele>
        <time>2018-08-26T14:14:49Z</time>
      </trkpt>
      <trkpt lat="44.97601" lon="5.64347">
        <ele>687.15</ele>
        <time>2018-08-26T14:14:50Z</time>
      </trkpt>
      <trkpt lat="44.97631" lon="5.64359">
        <ele>686.38</ele>
        <time>2018-08-26T14:14:51Z</time>
      </trkpt>
      <trkpt lat="44.97659" lon="5.6437">
        <ele>686.15</ele>
        <time>2018-08-26T14:14:52Z</time>
      </trkpt>
      <trkpt lat="44.97685" lon="5.6438">
        <ele>686.08</ele>
        <time>2018-08-26T14:14:53Z</time>
      </trkpt>
      <trkpt lat="44.9771" lon="5.6439">
        <ele>686.06</ele>
        <time>2018-08-26T14:14:54Z</time>
      </trkpt>
      <trkpt lat="44.97733" lon="5.64399">
        <ele>686.05</ele>
        <time>2018-08-26T14:14:55Z</time>
      </trkpt>
      <trkpt lat="44.97756" lon="5.64407">
        <ele>684.65</ele>
        <time>2018-08-26T14:14:56Z</time>
      </trkpt>
      <trkpt lat="44.97777" lon="5.64416">
        <ele>683.53</ele>
        <time>2018-08-26T14:14:57Z</time>
      </trkpt>
      <trkpt lat="44.97798" lon="5.64426">
        <ele>682.49</ele>
        <time>2018-08-26T14:14:58Z</time>
      </trkpt>
      <trkpt lat="44.9782" lon="5.64437">
        <ele>680.08</ele>
        <time>2018-08-26T14:14:59Z</time>
      </trkpt>
      <trkpt lat="44.97844" lon="5.6445">
        <ele>679.36</ele>
        <time>2018-08-26T14:15:00Z</time>
      </trkpt>
      <trkpt lat="44.97869" lon="5.64465">
        <ele>677.74</ele>
        <time>2018-08-26T14:15:01Z</time>
      </trkpt>
      <trkpt lat="44.97894" lon="5.6448">
        <ele>676.56</ele>
        <time>2018-08-26T14:15:02Z</time>
      </trkpt>
      <trkpt lat="44.9792" lon="5.64494">
        <ele>675.5</ele>
        <time>2018-08-26T14:15:03Z</time>
      </trkpt>
      <trkpt lat="44.97948" lon="5.64506">
        <ele>675.18</ele>
        <time>2018-08-26T14:15:04Z</time>
      </trkpt>
      <trkpt lat="44.97976" lon="5.64517">
        <ele>674.39</ele>
        <time>2018-08-26T14:15:05Z</time>
      </trkpt>
      <trkpt lat="44.98004" lon="5.64527">
        <ele>674.15</ele>
        <time>2018-08-26T14:15:06Z</time>
      </trkpt>
      <trkpt lat="44.98033" lon="5.64535">
        <ele>673.38</ele>
        <time>2018-08-26T14:15:07Z</time>
      </trkpt>
      <trkpt lat="44.98061" lon="5.64544">
        <ele>672.45</ele>
        <time>2018-08-26T14:15:08Z</time>
      </trkpt>
      <trkpt lat="44.9809" lon="5.64552">
        <ele>672.17</ele>
        <time>2018-08-26T14:15:09Z</time>
      </trkpt>
      <trkpt lat="44.98118" lon="5.64564">
        <ele>669.98</ele>
        <time>2018-08-26T14:15:10Z</time>
      </trkpt>
      <trkpt lat="44.98147" lon="5.64574">
        <ele>668.63</ele>
        <time>2018-08-26T14:15:11Z</time>
      </trkpt>
      <trkpt lat="44.98174" lon="5.64584">
        <ele>667.52</ele>
        <time>2018-08-26T14:15:12Z</time>
      </trkpt>
      <trkpt lat="44.982" lon="5.64593">
        <ele>667.19</ele>
        <time>2018-08-26T14:15:13Z</time>
      </trkpt>
      <trkpt lat="44.98226" lon="5.64604">
        <ele>665.69</ele>
        <time>2018-08-26T14:15:14Z</time>
      </trkpt>
      <trkpt lat="44.98251" lon="5.64615">
        <ele>664.54</ele>
        <time>2018-08-26T14:15:15Z</time>
      </trkpt>
      <trkpt lat="44.98274" lon="5.64626">
        <ele>664.2</ele>
        <time>2018-08-26T14:15:16Z</time>
      </trkpt>
      <trkpt lat="44.98298" lon="5.64635">
        <ele>664.09</ele>
        <time>2018-08-26T14:15:17Z</time>
      </trkpt>
      <trkpt lat="44.98327" lon="5.64639">
        <ele>661.96</ele>
        <time>2018-08-26T14:15:18Z</time>
      </trkpt>
      <trkpt lat="44.98356" lon="5.64645">
        <ele>660.62</ele>
        <time>2018-08-26T14:15:19Z</time>
      </trkpt>
      <trkpt lat="44.98384" lon="5.64652">
        <ele>659.52</ele>
        <time>2018-08-26T14:15:20Z</time>
      </trkpt>
      <trkpt lat="44.98412" lon="5.64661">
        <ele>657.79</ele>
        <time>2018-08-26T14:15:21Z</time>
      </trkpt>
      <trkpt lat="44.98438" lon="5.64675">
        <ele>656.57</ele>
        <time>2018-08-26T14:15:22Z</time>
      </trkpt>
      <trkpt lat="44.98464" lon="5.64688">
        <ele>654.81</ele>
        <time>2018-08-26T14:15:23Z</time>
      </trkpt>
      <trkpt lat="44.98491" lon="5.64701">
        <ele>654.28</ele>
        <time>2018-08-26T14:15:24Z</time>
      </trkpt>
      <trkpt lat="44.98518" lon="5.64713">
        <ele>653.42</ele>
        <time>2018-08-26T14:15:25Z</time>
      </trkpt>
      <trkpt lat="44.98543" lon="5.64725">
        <ele>652.46</ele>
        <time>2018-08-26T14:15:26Z</time>
      </trkpt>
      <trkpt lat="44.98567" lon="5.64738">
        <ele>651.47</ele>
        <time>2018-08-26T14:15:27Z</time>
      </trkpt>
      <trkpt lat="44.98591" lon="5.64753">
        <ele>649.78</ele>
        <time>2018-08-26T14:15:28Z</time>
      </trkpt>
      <trkpt lat="44.98614" lon="5.64769">
        <ele>649.27</ele>
        <time>2018-08-26T14:15:29Z</time>
      </trkpt>
      <trkpt lat="44.98637" lon="5.64783">
        <ele>648.41</ele>
        <time>2018-08-26T14:15:30Z</time>
      </trkpt>
      <trkpt lat="44.98658" lon="5.64797">
        <ele>647.46</ele>
        <time>2018-08-26T14:15:31Z</time>
      </trkpt>
      <trkpt lat="44.98678" lon="5.64808">
        <ele>646.47</ele>
        <time>2018-08-26T14:15:32Z</time>
      </trkpt>
      <trkpt lat="44.98699" lon="5.64817">
        <ele>645.48</ele>
        <time>2018-08-26T14:15:33Z</time>
      </trkpt>
      <trkpt lat="44.9872" lon="5.64822">
        <ele>644.48</ele>
        <time>2018-08-26T14:15:34Z</time>
      </trkpt>
      <trkpt lat="44.98752" lon="5.64826">
        <ele>643.18</ele>
        <time>2018-08-26T14:15:36Z</time>
      </trkpt>
      <trkpt lat="44.98778" lon="5.64833">
        <ele>640.54</ele>
        <time>2018-08-26T14:15:38Z</time>
      </trkpt>
      <trkpt lat="44.98797" lon="5.64849">
        <ele>640.97</ele>
        <time>2018-08-26T14:15:41Z</time>
      </trkpt>
      <trkpt lat="44.98807" lon="5.64873">
        <ele>642.04</ele>
        <time>2018-08-26T14:15:45Z</time>
      </trkpt>
      <trkpt lat="44.98824" lon="5.64886">
        <ele>641.29</ele>
        <time>2018-08-26T14:15:48Z</time>
      </trkpt>
      <trkpt lat="44.98846" lon="5.64882">
        <ele>639.17</ele>
        <time>2018-08-26T14:15:51Z</time>
      </trkpt>
      <trkpt lat="44.98868" lon="5.64893">
        <ele>637.66</ele>
        <time>2018-08-26T14:15:53Z</time>
      </trkpt>
      <trkpt lat="44.98901" lon="5.64914">
        <ele>635.49</ele>
        <time>2018-08-26T14:15:55Z</time>
      </trkpt>
      <trkpt lat="44.98919" lon="5.64923">
        <ele>634.48</ele>
        <time>2018-08-26T14:15:56Z</time>
      </trkpt>
      <trkpt lat="44.98939" lon="5.64931">
        <ele>632.78</ele>
        <time>2018-08-26T14:15:57Z</time>
      </trkpt>
      <trkpt lat="44.98958" lon="5.64938">
        <ele>630.87</ele>
        <time>2018-08-26T14:15:58Z</time>
      </trkpt>
      <trkpt lat="44.98979" lon="5.64946">
        <ele>629.59</ele>
        <time>2018-08-26T14:15:59Z</time>
      </trkpt>
      <trkpt lat="44.98999" lon="5.64953">
        <ele>628.51</ele>
        <time>2018-08-26T14:16:00Z</time>
      </trkpt>
      <trkpt lat="44.99018" lon="5.64959">
        <ele>628.19</ele>
        <time>2018-08-26T14:16:01Z</time>
      </trkpt>
      <trkpt lat="44.99037" lon="5.64964">
        <ele>627.39</ele>
        <time>2018-08-26T14:16:02Z</time>
      </trkpt>
      <trkpt lat="44.99059" lon="5.64964">
        <ele>627.15</ele>
        <time>2018-08-26T14:16:03Z</time>
      </trkpt>
      <trkpt lat="44.9908" lon="5.64965">
        <ele>626.38</ele>
        <time>2018-08-26T14:16:04Z</time>
      </trkpt>
      <trkpt lat="44.99101" lon="5.64966">
        <ele>625.45</ele>
        <time>2018-08-26T14:16:05Z</time>
      </trkpt>
      <trkpt lat="44.99121" lon="5.64969">
        <ele>624.47</ele>
        <time>2018-08-26T14:16:06Z</time>
      </trkpt>
      <trkpt lat="44.99141" lon="5.64973">
        <ele>623.47</ele>
        <time>2018-08-26T14:16:07Z</time>
      </trkpt>
      <trkpt lat="44.99161" lon="5.64977">
        <ele>623.18</ele>
        <time>2018-08-26T14:16:08Z</time>
      </trkpt>
      <trkpt lat="44.99181" lon="5.64985">
        <ele>622.39</ele>
        <time>2018-08-26T14:16:09Z</time>
      </trkpt>
      <trkpt lat="44.99201" lon="5.64994">
        <ele>622.15</ele>
        <time>2018-08-26T14:16:10Z</time>
      </trkpt>
      <trkpt lat="44.9922" lon="5.65003">
        <ele>622.08</ele>
        <time>2018-08-26T14:16:11Z</time>
      </trkpt>
      <trkpt lat="44.9924" lon="5.6501">
        <ele>621.36</ele>
        <time>2018-08-26T14:16:12Z</time>
      </trkpt>
      <trkpt lat="44.9926" lon="5.65019">
        <ele>621.14</ele>
        <time>2018-08-26T14:16:13Z</time>
      </trkpt>
      <trkpt lat="44.99281" lon="5.65026">
        <ele>619.68</ele>
        <time>2018-08-26T14:16:14Z</time>
      </trkpt>
      <trkpt lat="44.993" lon="5.65033">
        <ele>618.54</ele>
        <time>2018-08-26T14:16:15Z</time>
      </trkpt>
      <trkpt lat="44.99319" lon="5.65041">
        <ele>616.8</ele>
        <time>2018-08-26T14:16:16Z</time>
      </trkpt>
      <trkpt lat="44.99338" lon="5.65049">
        <ele>614.87</ele>
        <time>2018-08-26T14:16:17Z</time>
      </trkpt>
      <trkpt lat="44.99357" lon="5.65056">
        <ele>614.3</ele>
        <time>2018-08-26T14:16:18Z</time>
      </trkpt>
      <trkpt lat="44.99376" lon="5.65063">
        <ele>612.72</ele>
        <time>2018-08-26T14:16:19Z</time>
      </trkpt>
      <trkpt lat="44.99396" lon="5.65071">
        <ele>611.55</ele>
        <time>2018-08-26T14:16:20Z</time>
      </trkpt>
      <trkpt lat="44.99416" lon="5.65079">
        <ele>610.5</ele>
        <time>2018-08-26T14:16:21Z</time>
      </trkpt>
      <trkpt lat="44.99435" lon="5.65086">
        <ele>609.48</ele>
        <time>2018-08-26T14:16:22Z</time>
      </trkpt>
      <trkpt lat="44.99454" lon="5.65094">
        <ele>609.18</ele>
        <time>2018-08-26T14:16:23Z</time>
      </trkpt>
      <trkpt lat="44.99473" lon="5.65101">
        <ele>608.39</ele>
        <time>2018-08-26T14:16:24Z</time>
      </trkpt>
      <trkpt lat="44.99491" lon="5.65109">
        <ele>608.15</ele>
        <time>2018-08-26T14:16:25Z</time>
      </trkpt>
      <trkpt lat="44.9951" lon="5.65116">
        <ele>608.08</ele>
        <time>2018-08-26T14:16:26Z</time>
      </trkpt>
      <trkpt lat="44.9953" lon="5.65123">
        <ele>607.36</ele>
        <time>2018-08-26T14:16:27Z</time>
      </trkpt>
      <trkpt lat="44.99548" lon="5.65131">
        <ele>606.44</ele>
        <time>2018-08-26T14:16:28Z</time>
      </trkpt>
      <trkpt lat="44.99569" lon="5.65138">
        <ele>606.17</ele>
        <time>2018-08-26T14:16:29Z</time>
      </trkpt>
      <trkpt lat="44.99589" lon="5.65145">
        <ele>605.38</ele>
        <time>2018-08-26T14:16:30Z</time>
      </trkpt>
      <trkpt lat="44.99609" lon="5.65152">
        <ele>604.45</ele>
        <time>2018-08-26T14:16:31Z</time>
      </trkpt>
      <trkpt lat="44.9963" lon="5.6516">
        <ele>604.17</ele>
        <time>2018-08-26T14:16:32Z</time>
      </trkpt>
      <trkpt lat="44.9965" lon="5.65169">
        <ele>603.39</ele>
        <time>2018-08-26T14:16:33Z</time>
      </trkpt>
      <trkpt lat="44.99671" lon="5.65177">
        <ele>602.45</ele>
        <time>2018-08-26T14:16:34Z</time>
      </trkpt>
      <trkpt lat="44.99693" lon="5.65187">
        <ele>601.47</ele>
        <time>2018-08-26T14:16:35Z</time>
      </trkpt>
      <trkpt lat="44.99713" lon="5.65197">
        <ele>601.18</ele>
        <time>2018-08-26T14:16:36Z</time>
      </trkpt>
      <trkpt lat="44.99734" lon="5.65208">
        <ele>599.69</ele>
        <time>2018-08-26T14:16:37Z</time>
      </trkpt>
      <trkpt lat="44.99754" lon="5.6522">
        <ele>599.24</ele>
        <time>2018-08-26T14:16:38Z</time>
      </trkpt>
      <trkpt lat="44.99773" lon="5.65231">
        <ele>598.41</ele>
        <time>2018-08-26T14:16:39Z</time>
      </trkpt>
      <trkpt lat="44.99793" lon="5.65241">
        <ele>598.16</ele>
        <time>2018-08-26T14:16:40Z</time>
      </trkpt>
      <trkpt lat="44.99812" lon="5.65253">
        <ele>598.08</ele>
        <time>2018-08-26T14:16:41Z</time>
      </trkpt>
      <trkpt lat="44.99831" lon="5.65263">
        <ele>597.36</ele>
        <time>2018-08-26T14:16:42Z</time>
      </trkpt>
      <trkpt lat="44.99849" lon="5.65273">
        <ele>597.14</ele>
        <time>2018-08-26T14:16:43Z</time>
      </trkpt>
      <trkpt lat="44.99868" lon="5.65283">
        <ele>597.08</ele>
        <time>2018-08-26T14:16:44Z</time>
      </trkpt>
      <trkpt lat="44.99886" lon="5.65293">
        <ele>597.06</ele>
        <time>2018-08-26T14:16:45Z</time>
      </trkpt>
      <trkpt lat="44.99903" lon="5.65303">
        <ele>596.35</ele>
        <time>2018-08-26T14:16:46Z</time>
      </trkpt>
      <trkpt lat="44.99921" lon="5.65313">
        <ele>596.14</ele>
        <time>2018-08-26T14:16:47Z</time>
      </trkpt>
      <trkpt lat="44.99938" lon="5.65323">
        <ele>596.08</ele>
        <time>2018-08-26T14:16:48Z</time>
      </trkpt>
      <trkpt lat="44.99956" lon="5.65332">
        <ele>595.36</ele>
        <time>2018-08-26T14:16:49Z</time>
      </trkpt>
      <trkpt lat="44.99987" lon="5.65349">
        <ele>594.17</ele>
        <time>2018-08-26T14:16:51Z</time>
      </trkpt>
      <trkpt lat="45.00019" lon="5.65364">
        <ele>594.06</ele>
        <time>2018-08-26T14:16:53Z</time>
      </trkpt>
      <trkpt lat="45.00053" lon="5.65378">
        <ele>593.14</ele>
        <time>2018-08-26T14:16:55Z</time>
      </trkpt>
      <trkpt lat="45.00082" lon="5.65391">
        <ele>592.36</ele>
        <time>2018-08-26T14:16:57Z</time>
      </trkpt>
      <trkpt lat="45.00114" lon="5.65406">
        <ele>592.08</ele>
        <time>2018-08-26T14:16:59Z</time>
      </trkpt>
      <trkpt lat="45.00148" lon="5.65422">
        <ele>591.14</ele>
        <time>2018-08-26T14:17:01Z</time>
      </trkpt>
      <trkpt lat="45.00165" lon="5.65431">
        <ele>591.08</ele>
        <time>2018-08-26T14:17:02Z</time>
      </trkpt>
      <trkpt lat="45.00182" lon="5.6544">
        <ele>591.06</ele>
        <time>2018-08-26T14:17:03Z</time>
      </trkpt>
      <trkpt lat="45.00217" lon="5.65454">
        <ele>591.96</ele>
        <time>2018-08-26T14:17:05Z</time>
      </trkpt>
      <trkpt lat="45.00254" lon="5.65465">
        <ele>591.34</ele>
        <time>2018-08-26T14:17:07Z</time>
      </trkpt>
      <trkpt lat="45.00274" lon="5.6547">
        <ele>589.04</ele>
        <time>2018-08-26T14:17:08Z</time>
      </trkpt>
      <trkpt lat="45.00295" lon="5.65475">
        <ele>587.65</ele>
        <time>2018-08-26T14:17:09Z</time>
      </trkpt>
      <trkpt lat="45.00316" lon="5.6548">
        <ele>586.53</ele>
        <time>2018-08-26T14:17:10Z</time>
      </trkpt>
      <trkpt lat="45.00339" lon="5.65483">
        <ele>585.49</ele>
        <time>2018-08-26T14:17:11Z</time>
      </trkpt>
      <trkpt lat="45.00361" lon="5.65486">
        <ele>585.18</ele>
        <time>2018-08-26T14:17:12Z</time>
      </trkpt>
      <trkpt lat="45.00382" lon="5.65487">
        <ele>585.09</ele>
        <time>2018-08-26T14:17:13Z</time>
      </trkpt>
      <trkpt lat="45.00404" lon="5.65489">
        <ele>584.36</ele>
        <time>2018-08-26T14:17:14Z</time>
      </trkpt>
      <trkpt lat="45.00425" lon="5.65491">
        <ele>584.14</ele>
        <time>2018-08-26T14:17:15Z</time>
      </trkpt>
      <trkpt lat="45.00446" lon="5.65493">
        <ele>583.38</ele>
        <time>2018-08-26T14:17:16Z</time>
      </trkpt>
      <trkpt lat="45.00466" lon="5.65495">
        <ele>583.15</ele>
        <time>2018-08-26T14:17:17Z</time>
      </trkpt>
      <trkpt lat="45.00487" lon="5.65497">
        <ele>583.08</ele>
        <time>2018-08-26T14:17:18Z</time>
      </trkpt>
      <trkpt lat="45.00508" lon="5.65498">
        <ele>583.06</ele>
        <time>2018-08-26T14:17:19Z</time>
      </trkpt>
      <trkpt lat="45.00528" lon="5.655">
        <ele>582.35</ele>
        <time>2018-08-26T14:17:20Z</time>
      </trkpt>
      <trkpt lat="45.00548" lon="5.65503">
        <ele>581.44</ele>
        <time>2018-08-26T14:17:21Z</time>
      </trkpt>
      <trkpt lat="45.00568" lon="5.65507">
        <ele>580.47</ele>
        <time>2018-08-26T14:17:22Z</time>
      </trkpt>
      <trkpt lat="45.00589" lon="5.65513">
        <ele>578.77</ele>
        <time>2018-08-26T14:17:23Z</time>
      </trkpt>
      <trkpt lat="45.00609" lon="5.65521">
        <ele>577.57</ele>
        <time>2018-08-26T14:17:24Z</time>
      </trkpt>
      <trkpt lat="45.00628" lon="5.65532">
        <ele>576.5</ele>
        <time>2018-08-26T14:17:25Z</time>
      </trkpt>
      <trkpt lat="45.00647" lon="5.65543">
        <ele>575.49</ele>
        <time>2018-08-26T14:17:26Z</time>
      </trkpt>
      <trkpt lat="45.00665" lon="5.65555">
        <ele>575.18</ele>
        <time>2018-08-26T14:17:27Z</time>
      </trkpt>
      <trkpt lat="45.00685" lon="5.65566">
        <ele>574.39</ele>
        <time>2018-08-26T14:17:28Z</time>
      </trkpt>
      <trkpt lat="45.00704" lon="5.65576">
        <ele>573.45</ele>
        <time>2018-08-26T14:17:29Z</time>
      </trkpt>
      <trkpt lat="45.00725" lon="5.65585">
        <ele>572.47</ele>
        <time>2018-08-26T14:17:30Z</time>
      </trkpt>
      <trkpt lat="45.00745" lon="5.65593">
        <ele>571.48</ele>
        <time>2018-08-26T14:17:31Z</time>
      </trkpt>
      <trkpt lat="45.00765" lon="5.656">
        <ele>570.48</ele>
        <time>2018-08-26T14:17:32Z</time>
      </trkpt>
      <trkpt lat="45.00785" lon="5.65608">
        <ele>569.48</ele>
        <time>2018-08-26T14:17:33Z</time>
      </trkpt>
      <trkpt lat="45.00805" lon="5.65615">
        <ele>568.48</ele>
        <time>2018-08-26T14:17:34Z</time>
      </trkpt>
      <trkpt lat="45.00826" lon="5.65622">
        <ele>568.18</ele>
        <time>2018-08-26T14:17:35Z</time>
      </trkpt>
      <trkpt lat="45.00845" lon="5.65629">
        <ele>567.39</ele>
        <time>2018-08-26T14:17:36Z</time>
      </trkpt>
      <trkpt lat="45.00865" lon="5.65636">
        <ele>566.45</ele>
        <time>2018-08-26T14:17:37Z</time>
      </trkpt>
      <trkpt lat="45.00885" lon="5.65644">
        <ele>565.47</ele>
        <time>2018-08-26T14:17:38Z</time>
      </trkpt>
      <trkpt lat="45.00904" lon="5.65654">
        <ele>564.48</ele>
        <time>2018-08-26T14:17:39Z</time>
      </trkpt>
      <trkpt lat="45.00923" lon="5.65664">
        <ele>562.78</ele>
        <time>2018-08-26T14:17:40Z</time>
      </trkpt>
      <trkpt lat="45.00942" lon="5.65674">
        <ele>561.57</ele>
        <time>2018-08-26T14:17:41Z</time>
      </trkpt>
      <trkpt lat="45.00961" lon="5.65685">
        <ele>560.5</ele>
        <time>2018-08-26T14:17:42Z</time>
      </trkpt>
      <trkpt lat="45.0098" lon="5.65695">
        <ele>559.49</ele>
        <time>2018-08-26T14:17:43Z</time>
      </trkpt>
      <trkpt lat="45.00999" lon="5.65706">
        <ele>558.48</ele>
        <time>2018-08-26T14:17:44Z</time>
      </trkpt>
      <trkpt lat="45.01018" lon="5.65715">
        <ele>558.18</ele>
        <time>2018-08-26T14:17:45Z</time>
      </trkpt>
      <trkpt lat="45.01038" lon="5.65726">
        <ele>557.39</ele>
        <time>2018-08-26T14:17:46Z</time>
      </trkpt>
      <trkpt lat="45.01059" lon="5.65735">
        <ele>556.45</ele>
        <time>2018-08-26T14:17:47Z</time>
      </trkpt>
      <trkpt lat="45.01079" lon="5.65746">
        <ele>555.47</ele>
        <time>2018-08-26T14:17:48Z</time>
      </trkpt>
      <trkpt lat="45.01099" lon="5.65754">
        <ele>555.18</ele>
        <time>2018-08-26T14:17:49Z</time>
      </trkpt>
      <trkpt lat="45.0112" lon="5.65761">
        <ele>554.39</ele>
        <time>2018-08-26T14:17:50Z</time>
      </trkpt>
      <trkpt lat="45.01141" lon="5.65768">
        <ele>553.45</ele>
        <time>2018-08-26T14:17:51Z</time>
      </trkpt>
      <trkpt lat="45.01161" lon="5.65774">
        <ele>553.17</ele>
        <time>2018-08-26T14:17:52Z</time>
      </trkpt>
      <trkpt lat="45.01182" lon="5.65779">
        <ele>551.69</ele>
        <time>2018-08-26T14:17:53Z</time>
      </trkpt>
      <trkpt lat="45.01204" lon="5.65783">
        <ele>550.54</ele>
        <time>2018-08-26T14:17:54Z</time>
      </trkpt>
      <trkpt lat="45.01225" lon="5.65786">
        <ele>549.5</ele>
        <time>2018-08-26T14:17:55Z</time>
      </trkpt>
      <trkpt lat="45.01247" lon="5.65789">
        <ele>547.78</ele>
        <time>2018-08-26T14:17:56Z</time>
      </trkpt>
      <trkpt lat="45.01269" lon="5.6579">
        <ele>546.57</ele>
        <time>2018-08-26T14:17:57Z</time>
      </trkpt>
      <trkpt lat="45.01291" lon="5.65791">
        <ele>545.51</ele>
        <time>2018-08-26T14:17:58Z</time>
      </trkpt>
      <trkpt lat="45.01312" lon="5.65792">
        <ele>544.49</ele>
        <time>2018-08-26T14:17:59Z</time>
      </trkpt>
      <trkpt lat="45.01335" lon="5.65792">
        <ele>544.18</ele>
        <time>2018-08-26T14:18:00Z</time>
      </trkpt>
      <trkpt lat="45.01357" lon="5.65792">
        <ele>543.39</ele>
        <time>2018-08-26T14:18:01Z</time>
      </trkpt>
      <trkpt lat="45.01379" lon="5.65793">
        <ele>541.75</ele>
        <time>2018-08-26T14:18:02Z</time>
      </trkpt>
      <trkpt lat="45.01401" lon="5.65796">
        <ele>540.56</ele>
        <time>2018-08-26T14:18:03Z</time>
      </trkpt>
      <trkpt lat="45.01422" lon="5.65801">
        <ele>538.8</ele>
        <time>2018-08-26T14:18:04Z</time>
      </trkpt>
      <trkpt lat="45.01443" lon="5.65807">
        <ele>537.57</ele>
        <time>2018-08-26T14:18:05Z</time>
      </trkpt>
      <trkpt lat="45.01463" lon="5.65815">
        <ele>536.51</ele>
        <time>2018-08-26T14:18:06Z</time>
      </trkpt>
      <trkpt lat="45.01483" lon="5.65823">
        <ele>535.49</ele>
        <time>2018-08-26T14:18:07Z</time>
      </trkpt>
      <trkpt lat="45.01504" lon="5.65832">
        <ele>534.48</ele>
        <time>2018-08-26T14:18:08Z</time>
      </trkpt>
      <trkpt lat="45.01524" lon="5.6584">
        <ele>533.48</ele>
        <time>2018-08-26T14:18:09Z</time>
      </trkpt>
      <trkpt lat="45.01544" lon="5.65848">
        <ele>532.48</ele>
        <time>2018-08-26T14:18:10Z</time>
      </trkpt>
      <trkpt lat="45.01565" lon="5.65855">
        <ele>532.18</ele>
        <time>2018-08-26T14:18:11Z</time>
      </trkpt>
      <trkpt lat="45.01586" lon="5.65863">
        <ele>531.39</ele>
        <time>2018-08-26T14:18:12Z</time>
      </trkpt>
      <trkpt lat="45.01606" lon="5.6587">
        <ele>530.45</ele>
        <time>2018-08-26T14:18:13Z</time>
      </trkpt>
      <trkpt lat="45.01627" lon="5.65878">
        <ele>528.77</ele>
        <time>2018-08-26T14:18:14Z</time>
      </trkpt>
      <trkpt lat="45.01647" lon="5.65887">
        <ele>527.57</ele>
        <time>2018-08-26T14:18:15Z</time>
      </trkpt>
      <trkpt lat="45.01667" lon="5.65895">
        <ele>526.5</ele>
        <time>2018-08-26T14:18:16Z</time>
      </trkpt>
      <trkpt lat="45.01687" lon="5.65904">
        <ele>526.19</ele>
        <time>2018-08-26T14:18:17Z</time>
      </trkpt>
      <trkpt lat="45.01707" lon="5.65914">
        <ele>524.69</ele>
        <time>2018-08-26T14:18:18Z</time>
      </trkpt>
      <trkpt lat="45.01726" lon="5.65926">
        <ele>523.54</ele>
        <time>2018-08-26T14:18:19Z</time>
      </trkpt>
      <trkpt lat="45.01745" lon="5.65941">
        <ele>522.5</ele>
        <time>2018-08-26T14:18:20Z</time>
      </trkpt>
      <trkpt lat="45.01763" lon="5.65955">
        <ele>521.48</ele>
        <time>2018-08-26T14:18:21Z</time>
      </trkpt>
      <trkpt lat="45.01781" lon="5.6597">
        <ele>520.48</ele>
        <time>2018-08-26T14:18:22Z</time>
      </trkpt>
      <trkpt lat="45.01798" lon="5.65985">
        <ele>520.18</ele>
        <time>2018-08-26T14:18:23Z</time>
      </trkpt>
      <trkpt lat="45.01816" lon="5.65999">
        <ele>519.39</ele>
        <time>2018-08-26T14:18:24Z</time>
      </trkpt>
      <trkpt lat="45.01833" lon="5.66012">
        <ele>518.45</ele>
        <time>2018-08-26T14:18:25Z</time>
      </trkpt>
      <trkpt lat="45.01852" lon="5.66022">
        <ele>518.17</ele>
        <time>2018-08-26T14:18:26Z</time>
      </trkpt>
      <trkpt lat="45.0187" lon="5.66031">
        <ele>517.39</ele>
        <time>2018-08-26T14:18:27Z</time>
      </trkpt>
      <trkpt lat="45.0189" lon="5.66039">
        <ele>516.45</ele>
        <time>2018-08-26T14:18:28Z</time>
      </trkpt>
      <trkpt lat="45.01909" lon="5.66046">
        <ele>515.47</ele>
        <time>2018-08-26T14:18:29Z</time>
      </trkpt>
      <trkpt lat="45.01929" lon="5.66052">
        <ele>514.48</ele>
        <time>2018-08-26T14:18:30Z</time>
      </trkpt>
      <trkpt lat="45.01949" lon="5.66056">
        <ele>513.48</ele>
        <time>2018-08-26T14:18:31Z</time>
      </trkpt>
      <trkpt lat="45.01969" lon="5.66058">
        <ele>512.48</ele>
        <time>2018-08-26T14:18:32Z</time>
      </trkpt>
      <trkpt lat="45.0199" lon="5.6606">
        <ele>511.48</ele>
        <time>2018-08-26T14:18:33Z</time>
      </trkpt>
      <trkpt lat="45.02009" lon="5.66063">
        <ele>510.48</ele>
        <time>2018-08-26T14:18:34Z</time>
      </trkpt>
      <trkpt lat="45.0203" lon="5.66066">
        <ele>509.48</ele>
        <time>2018-08-26T14:18:35Z</time>
      </trkpt>
      <trkpt lat="45.0205" lon="5.66068">
        <ele>509.18</ele>
        <time>2018-08-26T14:18:36Z</time>
      </trkpt>
      <trkpt lat="45.0207" lon="5.66072">
        <ele>507.69</ele>
        <time>2018-08-26T14:18:37Z</time>
      </trkpt>
      <trkpt lat="45.02091" lon="5.66078">
        <ele>506.54</ele>
        <time>2018-08-26T14:18:38Z</time>
      </trkpt>
      <trkpt lat="45.02112" lon="5.66086">
        <ele>505.5</ele>
        <time>2018-08-26T14:18:39Z</time>
      </trkpt>
      <trkpt lat="45.02132" lon="5.66093">
        <ele>504.48</ele>
        <time>2018-08-26T14:18:40Z</time>
      </trkpt>
      <trkpt lat="45.02153" lon="5.66101">
        <ele>504.18</ele>
        <time>2018-08-26T14:18:41Z</time>
      </trkpt>
      <trkpt lat="45.02173" lon="5.66107">
        <ele>503.39</ele>
        <time>2018-08-26T14:18:42Z</time>
      </trkpt>
      <trkpt lat="45.02194" lon="5.66112">
        <ele>502.45</ele>
        <time>2018-08-26T14:18:43Z</time>
      </trkpt>
      <trkpt lat="45.02215" lon="5.66115">
        <ele>501.47</ele>
        <time>2018-08-26T14:18:44Z</time>
      </trkpt>
      <trkpt lat="45.02235" lon="5.66119">
        <ele>500.48</ele>
        <time>2018-08-26T14:18:45Z</time>
      </trkpt>
      <trkpt lat="45.02256" lon="5.66122">
        <ele>499.48</ele>
        <time>2018-08-26T14:18:46Z</time>
      </trkpt>
      <trkpt lat="45.02277" lon="5.66126">
        <ele>499.18</ele>
        <time>2018-08-26T14:18:47Z</time>
      </trkpt>
      <trkpt lat="45.02298" lon="5.66132">
        <ele>497.69</ele>
        <time>2018-08-26T14:18:48Z</time>
      </trkpt>
      <trkpt lat="45.02319" lon="5.66139">
        <ele>495.84</ele>
        <time>2018-08-26T14:18:49Z</time>
      </trkpt>
      <trkpt lat="45.0234" lon="5.66147">
        <ele>494.59</ele>
        <time>2018-08-26T14:18:50Z</time>
      </trkpt>
      <trkpt lat="45.02361" lon="5.66155">
        <ele>493.51</ele>
        <time>2018-08-26T14:18:51Z</time>
      </trkpt>
      <trkpt lat="45.02381" lon="5.66162">
        <ele>492.49</ele>
        <time>2018-08-26T14:18:52Z</time>
      </trkpt>
      <trkpt lat="45.02402" lon="5.66169">
        <ele>492.18</ele>
        <time>2018-08-26T14:18:53Z</time>
      </trkpt>
      <trkpt lat="45.02422" lon="5.66177">
        <ele>492.09</ele>
        <time>2018-08-26T14:18:54Z</time>
      </trkpt>
      <trkpt lat="45.02443" lon="5.66185">
        <ele>491.36</ele>
        <time>2018-08-26T14:18:55Z</time>
      </trkpt>
      <trkpt lat="45.02463" lon="5.66192">
        <ele>490.44</ele>
        <time>2018-08-26T14:18:56Z</time>
      </trkpt>
      <trkpt lat="45.02484" lon="5.662">
        <ele>489.47</ele>
        <time>2018-08-26T14:18:57Z</time>
      </trkpt>
      <trkpt lat="45.02505" lon="5.66206">
        <ele>488.47</ele>
        <time>2018-08-26T14:18:58Z</time>
      </trkpt>
      <trkpt lat="45.02527" lon="5.66209">
        <ele>486.78</ele>
        <time>2018-08-26T14:18:59Z</time>
      </trkpt>
      <trkpt lat="45.02549" lon="5.6621">
        <ele>485.57</ele>
        <time>2018-08-26T14:19:00Z</time>
      </trkpt>
      <trkpt lat="45.0257" lon="5.66209">
        <ele>484.5</ele>
        <time>2018-08-26T14:19:01Z</time>
      </trkpt>
      <trkpt lat="45.02592" lon="5.66209">
        <ele>483.49</ele>
        <time>2018-08-26T14:19:02Z</time>
      </trkpt>
      <trkpt lat="45.02613" lon="5.66209">
        <ele>482.48</ele>
        <time>2018-08-26T14:19:03Z</time>
      </trkpt>
      <trkpt lat="45.02634" lon="5.66211">
        <ele>481.48</ele>
        <time>2018-08-26T14:19:04Z</time>
      </trkpt>
      <trkpt lat="45.02656" lon="5.66212">
        <ele>479.08</ele>
        <time>2018-08-26T14:19:05Z</time>
      </trkpt>
      <trkpt lat="45.02676" lon="5.66217">
        <ele>478.36</ele>
        <time>2018-08-26T14:19:06Z</time>
      </trkpt>
      <trkpt lat="45.02696" lon="5.66223">
        <ele>476.74</ele>
        <time>2018-08-26T14:19:07Z</time>
      </trkpt>
      <trkpt lat="45.02715" lon="5.66231">
        <ele>476.26</ele>
        <time>2018-08-26T14:19:08Z</time>
      </trkpt>
      <trkpt lat="45.02734" lon="5.6624">
        <ele>475.41</ele>
        <time>2018-08-26T14:19:09Z</time>
      </trkpt>
      <trkpt lat="45.02753" lon="5.66251">
        <ele>474.46</ele>
        <time>2018-08-26T14:19:10Z</time>
      </trkpt>
      <trkpt lat="45.02771" lon="5.66263">
        <ele>473.47</ele>
        <time>2018-08-26T14:19:11Z</time>
      </trkpt>
      <trkpt lat="45.02789" lon="5.66276">
        <ele>471.78</ele>
        <time>2018-08-26T14:19:12Z</time>
      </trkpt>
      <trkpt lat="45.02808" lon="5.6629">
        <ele>470.57</ele>
        <time>2018-08-26T14:19:13Z</time>
      </trkpt>
      <trkpt lat="45.02825" lon="5.66304">
        <ele>469.5</ele>
        <time>2018-08-26T14:19:14Z</time>
      </trkpt>
      <trkpt lat="45.02843" lon="5.66318">
        <ele>468.49</ele>
        <time>2018-08-26T14:19:15Z</time>
      </trkpt>
      <trkpt lat="45.02859" lon="5.66333">
        <ele>467.48</ele>
        <time>2018-08-26T14:19:16Z</time>
      </trkpt>
      <trkpt lat="45.02875" lon="5.66347">
        <ele>466.48</ele>
        <time>2018-08-26T14:19:17Z</time>
      </trkpt>
      <trkpt lat="45.02893" lon="5.66361">
        <ele>466.18</ele>
        <time>2018-08-26T14:19:18Z</time>
      </trkpt>
      <trkpt lat="45.02909" lon="5.66375">
        <ele>465.39</ele>
        <time>2018-08-26T14:19:19Z</time>
      </trkpt>
      <trkpt lat="45.02925" lon="5.66389">
        <ele>464.45</ele>
        <time>2018-08-26T14:19:20Z</time>
      </trkpt>
      <trkpt lat="45.02941" lon="5.66403">
        <ele>463.47</ele>
        <time>2018-08-26T14:19:21Z</time>
      </trkpt>
      <trkpt lat="45.02957" lon="5.66414">
        <ele>462.48</ele>
        <time>2018-08-26T14:19:22Z</time>
      </trkpt>
      <trkpt lat="45.02975" lon="5.66422">
        <ele>461.48</ele>
        <time>2018-08-26T14:19:23Z</time>
      </trkpt>
      <trkpt lat="45.02992" lon="5.6643">
        <ele>460.48</ele>
        <time>2018-08-26T14:19:24Z</time>
      </trkpt>
      <trkpt lat="45.0301" lon="5.66433">
        <ele>459.48</ele>
        <time>2018-08-26T14:19:25Z</time>
      </trkpt>
      <trkpt lat="45.03046" lon="5.66434">
        <ele>457.48</ele>
        <time>2018-08-26T14:19:27Z</time>
      </trkpt>
      <trkpt lat="45.03081" lon="5.66425">
        <ele>454.57</ele>
        <time>2018-08-26T14:19:29Z</time>
      </trkpt>
      <trkpt lat="45.031" lon="5.66416">
        <ele>453.5</ele>
        <time>2018-08-26T14:19:30Z</time>
      </trkpt>
      <trkpt lat="45.03118" lon="5.66406">
        <ele>452.49</ele>
        <time>2018-08-26T14:19:31Z</time>
      </trkpt>
      <trkpt lat="45.03137" lon="5.66396">
        <ele>452.18</ele>
        <time>2018-08-26T14:19:32Z</time>
      </trkpt>
      <trkpt lat="45.03156" lon="5.66384">
        <ele>451.39</ele>
        <time>2018-08-26T14:19:33Z</time>
      </trkpt>
      <trkpt lat="45.03176" lon="5.66368">
        <ele>449.75</ele>
        <time>2018-08-26T14:19:34Z</time>
      </trkpt>
      <trkpt lat="45.03192" lon="5.66344">
        <ele>448.56</ele>
        <time>2018-08-26T14:19:35Z</time>
      </trkpt>
      <trkpt lat="45.03206" lon="5.66315">
        <ele>447.5</ele>
        <time>2018-08-26T14:19:36Z</time>
      </trkpt>
      <trkpt lat="45.03219" lon="5.66283">
        <ele>445.78</ele>
        <time>2018-08-26T14:19:37Z</time>
      </trkpt>
      <trkpt lat="45.03232" lon="5.66252">
        <ele>444.57</ele>
        <time>2018-08-26T14:19:38Z</time>
      </trkpt>
      <trkpt lat="45.03245" lon="5.6622">
        <ele>444.21</ele>
        <time>2018-08-26T14:19:39Z</time>
      </trkpt>
      <trkpt lat="45.03258" lon="5.6619">
        <ele>442.7</ele>
        <time>2018-08-26T14:19:40Z</time>
      </trkpt>
      <trkpt lat="45.03271" lon="5.66163">
        <ele>442.24</ele>
        <time>2018-08-26T14:19:41Z</time>
      </trkpt>
      <trkpt lat="45.03287" lon="5.66145">
        <ele>440.01</ele>
        <time>2018-08-26T14:19:42Z</time>
      </trkpt>
      <trkpt lat="45.03303" lon="5.66131">
        <ele>438.64</ele>
        <time>2018-08-26T14:19:43Z</time>
      </trkpt>
      <trkpt lat="45.0332" lon="5.66119">
        <ele>437.53</ele>
        <time>2018-08-26T14:19:44Z</time>
      </trkpt>
      <trkpt lat="45.03341" lon="5.66121">
        <ele>437.19</ele>
        <time>2018-08-26T14:19:45Z</time>
      </trkpt>
      <trkpt lat="45.03362" lon="5.66126">
        <ele>436.39</ele>
        <time>2018-08-26T14:19:46Z</time>
      </trkpt>
      <trkpt lat="45.03381" lon="5.66137">
        <ele>436.15</ele>
        <time>2018-08-26T14:19:47Z</time>
      </trkpt>
      <trkpt lat="45.03399" lon="5.66155">
        <ele>435.38</ele>
        <time>2018-08-26T14:19:48Z</time>
      </trkpt>
      <trkpt lat="45.03413" lon="5.66179">
        <ele>434.45</ele>
        <time>2018-08-26T14:19:49Z</time>
      </trkpt>
      <trkpt lat="45.03426" lon="5.66203">
        <ele>434.17</ele>
        <time>2018-08-26T14:19:50Z</time>
      </trkpt>
      <trkpt lat="45.03436" lon="5.66228">
        <ele>434.08</ele>
        <time>2018-08-26T14:19:51Z</time>
      </trkpt>
      <trkpt lat="45.03425" lon="5.66263">
        <ele>433.36</ele>
        <time>2018-08-26T14:19:52Z</time>
      </trkpt>
      <trkpt lat="45.03419" lon="5.66292">
        <ele>432.44</ele>
        <time>2018-08-26T14:19:53Z</time>
      </trkpt>
      <trkpt lat="45.03409" lon="5.6632">
        <ele>432.17</ele>
        <time>2018-08-26T14:19:54Z</time>
      </trkpt>
      <trkpt lat="45.03399" lon="5.66347">
        <ele>430.68</ele>
        <time>2018-08-26T14:19:55Z</time>
      </trkpt>
      <trkpt lat="45.03388" lon="5.66374">
        <ele>429.54</ele>
        <time>2018-08-26T14:19:56Z</time>
      </trkpt>
      <trkpt lat="45.03378" lon="5.66401">
        <ele>428.5</ele>
        <time>2018-08-26T14:19:57Z</time>
      </trkpt>
      <trkpt lat="45.03372" lon="5.66427">
        <ele>428.18</ele>
        <time>2018-08-26T14:19:58Z</time>
      </trkpt>
      <trkpt lat="45.03367" lon="5.66454">
        <ele>427.39</ele>
        <time>2018-08-26T14:19:59Z</time>
      </trkpt>
      <trkpt lat="45.03364" lon="5.66482">
        <ele>427.15</ele>
        <time>2018-08-26T14:20:00Z</time>
      </trkpt>
      <trkpt lat="45.03366" lon="5.6651">
        <ele>426.38</ele>
        <time>2018-08-26T14:20:01Z</time>
      </trkpt>
      <trkpt lat="45.03388" lon="5.66535">
        <ele>425.45</ele>
        <time>2018-08-26T14:20:02Z</time>
      </trkpt>
      <trkpt lat="45.034" lon="5.66557">
        <ele>423.07</ele>
        <time>2018-08-26T14:20:03Z</time>
      </trkpt>
      <trkpt lat="45.03416" lon="5.66574">
        <ele>421.65</ele>
        <time>2018-08-26T14:20:04Z</time>
      </trkpt>
      <trkpt lat="45.03433" lon="5.66589">
        <ele>419.83</ele>
        <time>2018-08-26T14:20:05Z</time>
      </trkpt>
      <trkpt lat="45.0345" lon="5.66603">
        <ele>419.28</ele>
        <time>2018-08-26T14:20:06Z</time>
      </trkpt>
      <trkpt lat="45.03466" lon="5.66616">
        <ele>418.42</ele>
        <time>2018-08-26T14:20:07Z</time>
      </trkpt>
      <trkpt lat="45.03494" lon="5.66643">
        <ele>415.56</ele>
        <time>2018-08-26T14:20:09Z</time>
      </trkpt>
      <trkpt lat="45.03515" lon="5.66678">
        <ele>413.49</ele>
        <time>2018-08-26T14:20:11Z</time>
      </trkpt>
      <trkpt lat="45.03534" lon="5.6672">
        <ele>412.18</ele>
        <time>2018-08-26T14:20:13Z</time>
      </trkpt>
      <trkpt lat="45.0355" lon="5.6676">
        <ele>409.75</ele>
        <time>2018-08-26T14:20:15Z</time>
      </trkpt>
      <trkpt lat="45.03564" lon="5.66794">
        <ele>408.2</ele>
        <time>2018-08-26T14:20:17Z</time>
      </trkpt>
      <trkpt lat="45.03578" lon="5.66825">
        <ele>407.36</ele>
        <time>2018-08-26T14:20:19Z</time>
      </trkpt>
      <trkpt lat="45.03595" lon="5.66854">
        <ele>405.47</ele>
        <time>2018-08-26T14:20:21Z</time>
      </trkpt>
      <trkpt lat="45.03616" lon="5.66884">
        <ele>403.48</ele>
        <time>2018-08-26T14:20:23Z</time>
      </trkpt>
      <trkpt lat="45.03638" lon="5.66915">
        <ele>402.18</ele>
        <time>2018-08-26T14:20:25Z</time>
      </trkpt>
      <trkpt lat="45.03663" lon="5.66946">
        <ele>400.45</ele>
        <time>2018-08-26T14:20:27Z</time>
      </trkpt>
      <trkpt lat="45.03693" lon="5.66973">
        <ele>397.78</ele>
        <time>2018-08-26T14:20:29Z</time>
      </trkpt>
      <trkpt lat="45.03709" lon="5.66987">
        <ele>396.57</ele>
        <time>2018-08-26T14:20:30Z</time>
      </trkpt>
      <trkpt lat="45.03725" lon="5.67003">
        <ele>394.8</ele>
        <time>2018-08-26T14:20:31Z</time>
      </trkpt>
      <trkpt lat="45.03741" lon="5.67022">
        <ele>392.88</ele>
        <time>2018-08-26T14:20:32Z</time>
      </trkpt>
      <trkpt lat="45.03754" lon="5.67045">
        <ele>392.3</ele>
        <time>2018-08-26T14:20:33Z</time>
      </trkpt>
      <trkpt lat="45.03767" lon="5.6707">
        <ele>390.72</ele>
        <time>2018-08-26T14:20:34Z</time>
      </trkpt>
      <trkpt lat="45.03778" lon="5.67091">
        <ele>389.55</ele>
        <time>2018-08-26T14:20:35Z</time>
      </trkpt>
      <trkpt lat="45.038" lon="5.67124">
        <ele>387.48</ele>
        <time>2018-08-26T14:20:37Z</time>
      </trkpt>
      <trkpt lat="45.03827" lon="5.67146">
        <ele>385.48</ele>
        <time>2018-08-26T14:20:39Z</time>
      </trkpt>
      <trkpt lat="45.03855" lon="5.67161">
        <ele>384.18</ele>
        <time>2018-08-26T14:20:41Z</time>
      </trkpt>
      <trkpt lat="45.03881" lon="5.67169">
        <ele>383.15</ele>
        <time>2018-08-26T14:20:43Z</time>
      </trkpt>
      <trkpt lat="45.03907" lon="5.6717">
        <ele>380.75</ele>
        <time>2018-08-26T14:20:45Z</time>
      </trkpt>
      <trkpt lat="45.03933" lon="5.67165">
        <ele>379.41</ele>
        <time>2018-08-26T14:20:47Z</time>
      </trkpt>
      <trkpt lat="45.03956" lon="5.67158">
        <ele>378.38</ele>
        <time>2018-08-26T14:20:49Z</time>
      </trkpt>
      <trkpt lat="45.03978" lon="5.67148">
        <ele>376.68</ele>
        <time>2018-08-26T14:20:51Z</time>
      </trkpt>
      <trkpt lat="45.04" lon="5.67133">
        <ele>375.2</ele>
        <time>2018-08-26T14:20:53Z</time>
      </trkpt>
      <trkpt lat="45.04021" lon="5.67109">
        <ele>373.45</ele>
        <time>2018-08-26T14:20:55Z</time>
      </trkpt>
      <trkpt lat="45.0404" lon="5.67081">
        <ele>371.48</ele>
        <time>2018-08-26T14:20:57Z</time>
      </trkpt>
      <trkpt lat="45.04057" lon="5.67049">
        <ele>370.39</ele>
        <time>2018-08-26T14:20:59Z</time>
      </trkpt>
      <trkpt lat="45.04069" lon="5.67013">
        <ele>369.38</ele>
        <time>2018-08-26T14:21:01Z</time>
      </trkpt>
      <trkpt lat="45.04081" lon="5.66976">
        <ele>367.47</ele>
        <time>2018-08-26T14:21:03Z</time>
      </trkpt>
      <trkpt lat="45.04093" lon="5.66939">
        <ele>365.48</ele>
        <time>2018-08-26T14:21:05Z</time>
      </trkpt>
      <trkpt lat="45.04108" lon="5.66904">
        <ele>362.78</ele>
        <time>2018-08-26T14:21:07Z</time>
      </trkpt>
      <trkpt lat="45.04128" lon="5.66872">
        <ele>360.71</ele>
        <time>2018-08-26T14:21:09Z</time>
      </trkpt>
      <trkpt lat="45.04152" lon="5.6684">
        <ele>359.41</ele>
        <time>2018-08-26T14:21:11Z</time>
      </trkpt>
      <trkpt lat="45.0418" lon="5.66817">
        <ele>359.08</ele>
        <time>2018-08-26T14:21:13Z</time>
      </trkpt>
      <trkpt lat="45.04206" lon="5.66795">
        <ele>358.14</ele>
        <time>2018-08-26T14:21:15Z</time>
      </trkpt>
      <trkpt lat="45.04234" lon="5.66772">
        <ele>355.75</ele>
        <time>2018-08-26T14:21:17Z</time>
      </trkpt>
      <trkpt lat="45.04261" lon="5.66748">
        <ele>353.5</ele>
        <time>2018-08-26T14:21:19Z</time>
      </trkpt>
      <trkpt lat="45.04287" lon="5.66726">
        <ele>352.39</ele>
        <time>2018-08-26T14:21:21Z</time>
      </trkpt>
      <trkpt lat="45.04314" lon="5.66708">
        <ele>351.38</ele>
        <time>2018-08-26T14:21:23Z</time>
      </trkpt>
      <trkpt lat="45.04347" lon="5.66698">
        <ele>348.77</ele>
        <time>2018-08-26T14:21:25Z</time>
      </trkpt>
      <trkpt lat="45.0438" lon="5.66701">
        <ele>346.29</ele>
        <time>2018-08-26T14:21:27Z</time>
      </trkpt>
      <trkpt lat="45.04414" lon="5.66712">
        <ele>344.46</ele>
        <time>2018-08-26T14:21:29Z</time>
      </trkpt>
      <trkpt lat="45.04448" lon="5.66723">
        <ele>343.39</ele>
        <time>2018-08-26T14:21:31Z</time>
      </trkpt>
      <trkpt lat="45.04483" lon="5.66736">
        <ele>342.38</ele>
        <time>2018-08-26T14:21:33Z</time>
      </trkpt>
      <trkpt lat="45.04501" lon="5.66742">
        <ele>342.15</ele>
        <time>2018-08-26T14:21:34Z</time>
      </trkpt>
      <trkpt lat="45.04523" lon="5.66749">
        <ele>340.68</ele>
        <time>2018-08-26T14:21:35Z</time>
      </trkpt>
      <trkpt lat="45.04544" lon="5.66755">
        <ele>340.24</ele>
        <time>2018-08-26T14:21:36Z</time>
      </trkpt>
      <trkpt lat="45.04566" lon="5.66761">
        <ele>339.41</ele>
        <time>2018-08-26T14:21:37Z</time>
      </trkpt>
      <trkpt lat="45.04587" lon="5.66767">
        <ele>338.46</ele>
        <time>2018-08-26T14:21:38Z</time>
      </trkpt>
      <trkpt lat="45.04607" lon="5.66777">
        <ele>336.77</ele>
        <time>2018-08-26T14:21:39Z</time>
      </trkpt>
      <trkpt lat="45.04627" lon="5.66784">
        <ele>335.57</ele>
        <time>2018-08-26T14:21:40Z</time>
      </trkpt>
      <trkpt lat="45.04646" lon="5.66791">
        <ele>334.5</ele>
        <time>2018-08-26T14:21:41Z</time>
      </trkpt>
      <trkpt lat="45.04665" lon="5.668">
        <ele>333.49</ele>
        <time>2018-08-26T14:21:42Z</time>
      </trkpt>
      <trkpt lat="45.04683" lon="5.66807">
        <ele>332.48</ele>
        <time>2018-08-26T14:21:43Z</time>
      </trkpt>
      <trkpt lat="45.04716" lon="5.66822">
        <ele>331.39</ele>
        <time>2018-08-26T14:21:45Z</time>
      </trkpt>
      <trkpt lat="45.04748" lon="5.66829">
        <ele>330.17</ele>
        <time>2018-08-26T14:21:47Z</time>
      </trkpt>
      <trkpt lat="45.04777" lon="5.66829">
        <ele>329.36</ele>
        <time>2018-08-26T14:21:49Z</time>
      </trkpt>
      <trkpt lat="45.04804" lon="5.66832">
        <ele>327.68</ele>
        <time>2018-08-26T14:21:51Z</time>
      </trkpt>
      <trkpt lat="45.04829" lon="5.6684">
        <ele>325.5</ele>
        <time>2018-08-26T14:21:53Z</time>
      </trkpt>
      <trkpt lat="45.04853" lon="5.66855">
        <ele>324.18</ele>
        <time>2018-08-26T14:21:55Z</time>
      </trkpt>
      <trkpt lat="45.04874" lon="5.66878">
        <ele>323.36</ele>
        <time>2018-08-26T14:21:57Z</time>
      </trkpt>
      <trkpt lat="45.04896" lon="5.66906">
        <ele>322.38</ele>
        <time>2018-08-26T14:21:59Z</time>
      </trkpt>
      <trkpt lat="45.04916" lon="5.66939">
        <ele>322.29</ele>
        <time>2018-08-26T14:22:01Z</time>
      </trkpt>
      <trkpt lat="45.04936" lon="5.66972">
        <ele>320.46</ele>
        <time>2018-08-26T14:22:03Z</time>
      </trkpt>
      <trkpt lat="45.04954" lon="5.67006">
        <ele>319.18</ele>
        <time>2018-08-26T14:22:05Z</time>
      </trkpt>
      <trkpt lat="45.04972" lon="5.6704">
        <ele>318.15</ele>
        <time>2018-08-26T14:22:07Z</time>
      </trkpt>
      <trkpt lat="45.04991" lon="5.67074">
        <ele>317.85</ele>
        <time>2018-08-26T14:22:09Z</time>
      </trkpt>
      <trkpt lat="45.05009" lon="5.67107">
        <ele>317.12</ele>
        <time>2018-08-26T14:22:11Z</time>
      </trkpt>
      <trkpt lat="45.05027" lon="5.6714">
        <ele>316.36</ele>
        <time>2018-08-26T14:22:13Z</time>
      </trkpt>
      <trkpt lat="45.05043" lon="5.67169">
        <ele>316.08</ele>
        <time>2018-08-26T14:22:15Z</time>
      </trkpt>
      <trkpt lat="45.05056" lon="5.67194">
        <ele>316.05</ele>
        <time>2018-08-26T14:22:17Z</time>
      </trkpt>
      <trkpt lat="45.05069" lon="5.67218">
        <ele>316.05</ele>
        <time>2018-08-26T14:22:19Z</time>
      </trkpt>
      <trkpt lat="45.05084" lon="5.67245">
        <ele>316.05</ele>
        <time>2018-08-26T14:22:21Z</time>
      </trkpt>
      <trkpt lat="45.05098" lon="5.67273">
        <ele>315.35</ele>
        <time>2018-08-26T14:22:23Z</time>
      </trkpt>
      <trkpt lat="45.0511" lon="5.67297">
        <ele>315.29</ele>
        <time>2018-08-26T14:22:25Z</time>
      </trkpt>
      <trkpt lat="45.05123" lon="5.67319">
        <ele>315.07</ele>
        <time>2018-08-26T14:22:27Z</time>
      </trkpt>
      <trkpt lat="45.05134" lon="5.67346">
        <ele>313.65</ele>
        <time>2018-08-26T14:22:29Z</time>
      </trkpt>
      <trkpt lat="45.05147" lon="5.67373">
        <ele>314.01</ele>
        <time>2018-08-26T14:22:31Z</time>
      </trkpt>
      <trkpt lat="45.05159" lon="5.674">
        <ele>313.14</ele>
        <time>2018-08-26T14:22:33Z</time>
      </trkpt>
      <trkpt lat="45.05171" lon="5.67428">
        <ele>312.15</ele>
        <time>2018-08-26T14:22:35Z</time>
      </trkpt>
      <trkpt lat="45.05184" lon="5.67457">
        <ele>312.97</ele>
        <time>2018-08-26T14:22:37Z</time>
      </trkpt>
      <trkpt lat="45.05196" lon="5.67486">
        <ele>313.04</ele>
        <time>2018-08-26T14:22:39Z</time>
      </trkpt>
      <trkpt lat="45.05207" lon="5.67518">
        <ele>313.05</ele>
        <time>2018-08-26T14:22:41Z</time>
      </trkpt>
      <trkpt lat="45.05216" lon="5.6755">
        <ele>313.05</ele>
        <time>2018-08-26T14:22:43Z</time>
      </trkpt>
      <trkpt lat="45.05224" lon="5.67582">
        <ele>313.05</ele>
        <time>2018-08-26T14:22:45Z</time>
      </trkpt>
      <trkpt lat="45.05232" lon="5.67612">
        <ele>312.14</ele>
        <time>2018-08-26T14:22:47Z</time>
      </trkpt>
      <trkpt lat="45.05238" lon="5.6764">
        <ele>312.06</ele>
        <time>2018-08-26T14:22:49Z</time>
      </trkpt>
      <trkpt lat="45.05246" lon="5.67665">
        <ele>310.44</ele>
        <time>2018-08-26T14:22:51Z</time>
      </trkpt>
      <trkpt lat="45.05256" lon="5.67698">
        <ele>310.06</ele>
        <time>2018-08-26T14:22:54Z</time>
      </trkpt>
      <trkpt lat="45.05264" lon="5.67731">
        <ele>310.05</ele>
        <time>2018-08-26T14:22:57Z</time>
      </trkpt>
      <trkpt lat="45.05288" lon="5.67739">
        <ele>309.35</ele>
        <time>2018-08-26T14:23:00Z</time>
      </trkpt>
      <trkpt lat="45.05307" lon="5.67752">
        <ele>307.47</ele>
        <time>2018-08-26T14:23:02Z</time>
      </trkpt>
      <trkpt lat="45.05329" lon="5.67774">
        <ele>306.18</ele>
        <time>2018-08-26T14:23:04Z</time>
      </trkpt>
      <trkpt lat="45.05351" lon="5.67797">
        <ele>306.06</ele>
        <time>2018-08-26T14:23:06Z</time>
      </trkpt>
      <trkpt lat="45.05373" lon="5.67819">
        <ele>305.14</ele>
        <time>2018-08-26T14:23:08Z</time>
      </trkpt>
      <trkpt lat="45.05394" lon="5.6784">
        <ele>305.06</ele>
        <time>2018-08-26T14:23:10Z</time>
      </trkpt>
      <trkpt lat="45.05415" lon="5.67861">
        <ele>304.35</ele>
        <time>2018-08-26T14:23:12Z</time>
      </trkpt>
      <trkpt lat="45.05436" lon="5.67883">
        <ele>304.99</ele>
        <time>2018-08-26T14:23:14Z</time>
      </trkpt>
      <trkpt lat="45.05458" lon="5.67906">
        <ele>304.13</ele>
        <time>2018-08-26T14:23:16Z</time>
      </trkpt>
      <trkpt lat="45.05481" lon="5.67929">
        <ele>304.06</ele>
        <time>2018-08-26T14:23:18Z</time>
      </trkpt>
      <trkpt lat="45.05505" lon="5.67955">
        <ele>304.05</ele>
        <time>2018-08-26T14:23:20Z</time>
      </trkpt>
      <trkpt lat="45.05528" lon="5.6798">
        <ele>302.65</ele>
        <time>2018-08-26T14:23:22Z</time>
      </trkpt>
      <trkpt lat="45.05551" lon="5.68004">
        <ele>302.1</ele>
        <time>2018-08-26T14:23:24Z</time>
      </trkpt>
      <trkpt lat="45.05574" lon="5.68027">
        <ele>302.75</ele>
        <time>2018-08-26T14:23:26Z</time>
      </trkpt>
      <trkpt lat="45.05596" lon="5.68051">
        <ele>302.32</ele>
        <time>2018-08-26T14:23:28Z</time>
      </trkpt>
      <trkpt lat="45.05619" lon="5.68074">
        <ele>301.16</ele>
        <time>2018-08-26T14:23:30Z</time>
      </trkpt>
      <trkpt lat="45.05638" lon="5.68098">
        <ele>300.15</ele>
        <time>2018-08-26T14:23:32Z</time>
      </trkpt>
      <trkpt lat="45.0565" lon="5.68128">
        <ele>299.36</ele>
        <time>2018-08-26T14:23:34Z</time>
      </trkpt>
      <trkpt lat="45.05665" lon="5.68154">
        <ele>298.38</ele>
        <time>2018-08-26T14:23:36Z</time>
      </trkpt>
      <trkpt lat="45.05686" lon="5.68178">
        <ele>298.78</ele>
        <time>2018-08-26T14:23:38Z</time>
      </trkpt>
      <trkpt lat="45.05708" lon="5.68201">
        <ele>298.11</ele>
        <time>2018-08-26T14:23:40Z</time>
      </trkpt>
      <trkpt lat="45.05729" lon="5.68225">
        <ele>298.05</ele>
        <time>2018-08-26T14:23:42Z</time>
      </trkpt>
      <trkpt lat="45.05748" lon="5.68247">
        <ele>298.05</ele>
        <time>2018-08-26T14:23:44Z</time>
      </trkpt>
      <trkpt lat="45.05766" lon="5.68267">
        <ele>298.05</ele>
        <time>2018-08-26T14:23:46Z</time>
      </trkpt>
      <trkpt lat="45.05782" lon="5.68293">
        <ele>298.05</ele>
        <time>2018-08-26T14:23:49Z</time>
      </trkpt>
      <trkpt lat="45.05791" lon="5.6832">
        <ele>298.75</ele>
        <time>2018-08-26T14:23:52Z</time>
      </trkpt>
      <trkpt lat="45.05811" lon="5.68322">
        <ele>298.13</ele>
        <time>2018-08-26T14:23:55Z</time>
      </trkpt>
      <trkpt lat="45.05818" lon="5.68291">
        <ele>298.96</ele>
        <time>2018-08-26T14:23:58Z</time>
      </trkpt>
      <trkpt lat="45.05826" lon="5.68265">
        <ele>298.34</ele>
        <time>2018-08-26T14:24:00Z</time>
      </trkpt>
      <trkpt lat="45.05842" lon="5.68238">
        <ele>298.78</ele>
        <time>2018-08-26T14:24:02Z</time>
      </trkpt>
      <trkpt lat="45.05858" lon="5.68211">
        <ele>299.02</ele>
        <time>2018-08-26T14:24:04Z</time>
      </trkpt>
      <trkpt lat="45.05873" lon="5.68182">
        <ele>299.05</ele>
        <time>2018-08-26T14:24:06Z</time>
      </trkpt>
      <trkpt lat="45.05889" lon="5.68151">
        <ele>298.14</ele>
        <time>2018-08-26T14:24:08Z</time>
      </trkpt>
      <trkpt lat="45.05905" lon="5.68117">
        <ele>298.97</ele>
        <time>2018-08-26T14:24:10Z</time>
      </trkpt>
      <trkpt lat="45.0592" lon="5.68083">
        <ele>298.13</ele>
        <time>2018-08-26T14:24:12Z</time>
      </trkpt>
      <trkpt lat="45.05936" lon="5.68046">
        <ele>298.06</ele>
        <time>2018-08-26T14:24:14Z</time>
      </trkpt>
      <trkpt lat="45.05952" lon="5.68008">
        <ele>298.05</ele>
        <time>2018-08-26T14:24:16Z</time>
      </trkpt>
      <trkpt lat="45.05967" lon="5.67969">
        <ele>296.44</ele>
        <time>2018-08-26T14:24:18Z</time>
      </trkpt>
      <trkpt lat="45.05983" lon="5.67929">
        <ele>296.08</ele>
        <time>2018-08-26T14:24:20Z</time>
      </trkpt>
      <trkpt lat="45.06001" lon="5.6789">
        <ele>296.05</ele>
        <time>2018-08-26T14:24:22Z</time>
      </trkpt>
      <trkpt lat="45.06021" lon="5.67856">
        <ele>296.75</ele>
        <time>2018-08-26T14:24:24Z</time>
      </trkpt>
      <trkpt lat="45.06046" lon="5.67829">
        <ele>296.32</ele>
        <time>2018-08-26T14:24:26Z</time>
      </trkpt>
      <trkpt lat="45.06075" lon="5.6781">
        <ele>296.07</ele>
        <time>2018-08-26T14:24:28Z</time>
      </trkpt>
      <trkpt lat="45.06105" lon="5.67793">
        <ele>296.05</ele>
        <time>2018-08-26T14:24:30Z</time>
      </trkpt>
      <trkpt lat="45.06134" lon="5.67778">
        <ele>296.05</ele>
        <time>2018-08-26T14:24:32Z</time>
      </trkpt>
      <trkpt lat="45.0616" lon="5.67765">
        <ele>296.05</ele>
        <time>2018-08-26T14:24:34Z</time>
      </trkpt>
      <trkpt lat="45.06185" lon="5.67752">
        <ele>296.75</ele>
        <time>2018-08-26T14:24:36Z</time>
      </trkpt>
      <trkpt lat="45.06209" lon="5.6774">
        <ele>296.11</ele>
        <time>2018-08-26T14:24:38Z</time>
      </trkpt>
      <trkpt lat="45.06231" lon="5.67725">
        <ele>296.05</ele>
        <time>2018-08-26T14:24:40Z</time>
      </trkpt>
      <trkpt lat="45.0625" lon="5.67708">
        <ele>296.05</ele>
        <time>2018-08-26T14:24:42Z</time>
      </trkpt>
      <trkpt lat="45.06264" lon="5.6769">
        <ele>295.35</ele>
        <time>2018-08-26T14:24:44Z</time>
      </trkpt>
      <trkpt lat="45.0628" lon="5.67671">
        <ele>295.06</ele>
        <time>2018-08-26T14:24:47Z</time>
      </trkpt>
      <trkpt lat="45.06298" lon="5.6766">
        <ele>295.75</ele>
        <time>2018-08-26T14:24:50Z</time>
      </trkpt>
      <trkpt lat="45.06308" lon="5.67629">
        <ele>295.05</ele>
        <time>2018-08-26T14:24:54Z</time>
      </trkpt>
      <trkpt lat="45.06309" lon="5.67591">
        <ele>294.35</ele>
        <time>2018-08-26T14:24:57Z</time>
      </trkpt>
      <trkpt lat="45.06316" lon="5.67557">
        <ele>294.08</ele>
        <time>2018-08-26T14:24:59Z</time>
      </trkpt>
      <trkpt lat="45.06325" lon="5.6752">
        <ele>294.05</ele>
        <time>2018-08-26T14:25:01Z</time>
      </trkpt>
      <trkpt lat="45.06334" lon="5.67484">
        <ele>293.84</ele>
        <time>2018-08-26T14:25:03Z</time>
      </trkpt>
      <trkpt lat="45.06342" lon="5.67449">
        <ele>294.03</ele>
        <time>2018-08-26T14:25:05Z</time>
      </trkpt>
      <trkpt lat="45.06351" lon="5.67413">
        <ele>294.05</ele>
        <time>2018-08-26T14:25:07Z</time>
      </trkpt>
      <trkpt lat="45.06364" lon="5.67381">
        <ele>294.96</ele>
        <time>2018-08-26T14:25:09Z</time>
      </trkpt>
      <trkpt lat="45.06384" lon="5.67352">
        <ele>295.25</ele>
        <time>2018-08-26T14:25:11Z</time>
      </trkpt>
      <trkpt lat="45.06409" lon="5.67331">
        <ele>295.07</ele>
        <time>2018-08-26T14:25:13Z</time>
      </trkpt>
      <trkpt lat="45.06437" lon="5.6732">
        <ele>295.05</ele>
        <time>2018-08-26T14:25:15Z</time>
      </trkpt>
      <trkpt lat="45.06466" lon="5.67309">
        <ele>295.05</ele>
        <time>2018-08-26T14:25:17Z</time>
      </trkpt>
      <trkpt lat="45.06492" lon="5.67301">
        <ele>295.75</ele>
        <time>2018-08-26T14:25:19Z</time>
      </trkpt>
      <trkpt lat="45.0652" lon="5.67299">
        <ele>296.02</ele>
        <time>2018-08-26T14:25:21Z</time>
      </trkpt>
      <trkpt lat="45.06546" lon="5.67311">
        <ele>296.75</ele>
        <time>2018-08-26T14:25:23Z</time>
      </trkpt>
      <trkpt lat="45.06568" lon="5.67322">
        <ele>297.02</ele>
        <time>2018-08-26T14:25:25Z</time>
      </trkpt>
      <trkpt lat="45.06591" lon="5.67322">
        <ele>297.05</ele>
        <time>2018-08-26T14:25:27Z</time>
      </trkpt>
      <trkpt lat="45.06611" lon="5.67308">
        <ele>297.05</ele>
        <time>2018-08-26T14:25:29Z</time>
      </trkpt>
      <trkpt lat="45.06625" lon="5.67287">
        <ele>297.05</ele>
        <time>2018-08-26T14:25:31Z</time>
      </trkpt>
      <trkpt lat="45.06636" lon="5.67266">
        <ele>297.05</ele>
        <time>2018-08-26T14:25:33Z</time>
      </trkpt>
      <trkpt lat="45.06651" lon="5.67246">
        <ele>295.38</ele>
        <time>2018-08-26T14:25:36Z</time>
      </trkpt>
      <trkpt lat="45.06673" lon="5.67243">
        <ele>295.06</ele>
        <time>2018-08-26T14:25:39Z</time>
      </trkpt>
      <trkpt lat="45.06691" lon="5.67256">
        <ele>295.05</ele>
        <time>2018-08-26T14:25:41Z</time>
      </trkpt>
      <trkpt lat="45.06713" lon="5.67281">
        <ele>294.14</ele>
        <time>2018-08-26T14:25:43Z</time>
      </trkpt>
      <trkpt lat="45.06736" lon="5.67308">
        <ele>294.06</ele>
        <time>2018-08-26T14:25:45Z</time>
      </trkpt>
      <trkpt lat="45.06762" lon="5.6733">
        <ele>293.14</ele>
        <time>2018-08-26T14:25:47Z</time>
      </trkpt>
      <trkpt lat="45.06792" lon="5.6735">
        <ele>292.15</ele>
        <time>2018-08-26T14:25:49Z</time>
      </trkpt>
      <trkpt lat="45.06822" lon="5.67369">
        <ele>291.36</ele>
        <time>2018-08-26T14:25:51Z</time>
      </trkpt>
      <trkpt lat="45.06854" lon="5.67388">
        <ele>291.08</ele>
        <time>2018-08-26T14:25:53Z</time>
      </trkpt>
      <trkpt lat="45.06886" lon="5.67408">
        <ele>290.14</ele>
        <time>2018-08-26T14:25:55Z</time>
      </trkpt>
      <trkpt lat="45.06917" lon="5.67427">
        <ele>289.36</ele>
        <time>2018-08-26T14:25:57Z</time>
      </trkpt>
      <trkpt lat="45.06949" lon="5.67447">
        <ele>289.08</ele>
        <time>2018-08-26T14:25:59Z</time>
      </trkpt>
      <trkpt lat="45.0698" lon="5.67466">
        <ele>289.05</ele>
        <time>2018-08-26T14:26:01Z</time>
      </trkpt>
      <trkpt lat="45.07011" lon="5.67487">
        <ele>287.44</ele>
        <time>2018-08-26T14:26:03Z</time>
      </trkpt>
      <trkpt lat="45.07042" lon="5.67506">
        <ele>287.08</ele>
        <time>2018-08-26T14:26:05Z</time>
      </trkpt>
      <trkpt lat="45.07073" lon="5.67526">
        <ele>286.35</ele>
        <time>2018-08-26T14:26:07Z</time>
      </trkpt>
      <trkpt lat="45.07104" lon="5.67545">
        <ele>286.08</ele>
        <time>2018-08-26T14:26:09Z</time>
      </trkpt>
      <trkpt lat="45.07134" lon="5.67564">
        <ele>285.84</ele>
        <time>2018-08-26T14:26:11Z</time>
      </trkpt>
      <trkpt lat="45.07165" lon="5.67582">
        <ele>285.82</ele>
        <time>2018-08-26T14:26:13Z</time>
      </trkpt>
      <trkpt lat="45.07193" lon="5.67601">
        <ele>286.03</ele>
        <time>2018-08-26T14:26:15Z</time>
      </trkpt>
      <trkpt lat="45.07224" lon="5.67617">
        <ele>285.14</ele>
        <time>2018-08-26T14:26:17Z</time>
      </trkpt>
      <trkpt lat="45.07252" lon="5.67635">
        <ele>285.97</ele>
        <time>2018-08-26T14:26:19Z</time>
      </trkpt>
      <trkpt lat="45.07277" lon="5.6765">
        <ele>286.04</ele>
        <time>2018-08-26T14:26:21Z</time>
      </trkpt>
      <trkpt lat="45.07297" lon="5.67669">
        <ele>285.35</ele>
        <time>2018-08-26T14:26:23Z</time>
      </trkpt>
      <trkpt lat="45.07309" lon="5.67688">
        <ele>283.47</ele>
        <time>2018-08-26T14:26:25Z</time>
      </trkpt>
      <trkpt lat="45.07315" lon="5.67717">
        <ele>283</ele>
        <time>2018-08-26T14:26:28Z</time>
      </trkpt>
      <trkpt lat="45.07323" lon="5.67742">
        <ele>283.11</ele>
        <time>2018-08-26T14:26:31Z</time>
      </trkpt>
      <trkpt lat="45.07344" lon="5.67765">
        <ele>283.05</ele>
        <time>2018-08-26T14:26:34Z</time>
      </trkpt>
      <trkpt lat="45.07365" lon="5.67783">
        <ele>283.05</ele>
        <time>2018-08-26T14:26:36Z</time>
      </trkpt>
      <trkpt lat="45.07393" lon="5.67795">
        <ele>282.35</ele>
        <time>2018-08-26T14:26:38Z</time>
      </trkpt>
      <trkpt lat="45.07425" lon="5.67808">
        <ele>282.99</ele>
        <time>2018-08-26T14:26:40Z</time>
      </trkpt>
      <trkpt lat="45.0746" lon="5.67821">
        <ele>282.83</ele>
        <time>2018-08-26T14:26:42Z</time>
      </trkpt>
      <trkpt lat="45.07478" lon="5.67827">
        <ele>282.28</ele>
        <time>2018-08-26T14:26:43Z</time>
      </trkpt>
      <trkpt lat="45.07511" lon="5.67843">
        <ele>281.37</ele>
        <time>2018-08-26T14:26:45Z</time>
      </trkpt>
      <trkpt lat="45.07542" lon="5.67867">
        <ele>281.99</ele>
        <time>2018-08-26T14:26:47Z</time>
      </trkpt>
      <trkpt lat="45.07555" lon="5.67885">
        <ele>281.33</ele>
        <time>2018-08-26T14:26:48Z</time>
      </trkpt>
      <trkpt lat="45.07566" lon="5.67907">
        <ele>279.73</ele>
        <time>2018-08-26T14:26:49Z</time>
      </trkpt>
      <trkpt lat="45.07577" lon="5.6793">
        <ele>279.25</ele>
        <time>2018-08-26T14:26:50Z</time>
      </trkpt>
      <trkpt lat="45.07587" lon="5.67955">
        <ele>279.11</ele>
        <time>2018-08-26T14:26:51Z</time>
      </trkpt>
      <trkpt lat="45.07597" lon="5.67978">
        <ele>279.77</ele>
        <time>2018-08-26T14:26:52Z</time>
      </trkpt>
      <trkpt lat="45.07607" lon="5.68004">
        <ele>279.26</ele>
        <time>2018-08-26T14:26:53Z</time>
      </trkpt>
      <trkpt lat="45.07633" lon="5.68031">
        <ele>279.98</ele>
        <time>2018-08-26T14:26:55Z</time>
      </trkpt>
      <trkpt lat="45.07663" lon="5.68044">
        <ele>281.65</ele>
        <time>2018-08-26T14:26:57Z</time>
      </trkpt>
      <trkpt lat="45.07695" lon="5.68029">
        <ele>284.32</ele>
        <time>2018-08-26T14:26:59Z</time>
      </trkpt>
      <trkpt lat="45.07715" lon="5.68014">
        <ele>285.53</ele>
        <time>2018-08-26T14:27:00Z</time>
      </trkpt>
      <trkpt lat="45.07735" lon="5.68001">
        <ele>285.89</ele>
        <time>2018-08-26T14:27:01Z</time>
      </trkpt>
      <trkpt lat="45.07759" lon="5.6799">
        <ele>286</ele>
        <time>2018-08-26T14:27:02Z</time>
      </trkpt>
      <trkpt lat="45.07786" lon="5.67986">
        <ele>286.04</ele>
        <time>2018-08-26T14:27:03Z</time>
      </trkpt>
      <trkpt lat="45.07816" lon="5.67985">
        <ele>285.34</ele>
        <time>2018-08-26T14:27:04Z</time>
      </trkpt>
      <trkpt lat="45.07847" lon="5.67982">
        <ele>285.14</ele>
        <time>2018-08-26T14:27:05Z</time>
      </trkpt>
      <trkpt lat="45.0788" lon="5.67977">
        <ele>285.08</ele>
        <time>2018-08-26T14:27:06Z</time>
      </trkpt>
      <trkpt lat="45.07911" lon="5.67971">
        <ele>285.06</ele>
        <time>2018-08-26T14:27:07Z</time>
      </trkpt>
      <trkpt lat="45.0794" lon="5.67964">
        <ele>285.05</ele>
        <time>2018-08-26T14:27:08Z</time>
      </trkpt>
      <trkpt lat="45.07968" lon="5.67957">
        <ele>285.75</ele>
        <time>2018-08-26T14:27:09Z</time>
      </trkpt>
      <trkpt lat="45.07994" lon="5.67949">
        <ele>285.96</ele>
        <time>2018-08-26T14:27:10Z</time>
      </trkpt>
      <trkpt lat="45.0802" lon="5.6794">
        <ele>285.32</ele>
        <time>2018-08-26T14:27:11Z</time>
      </trkpt>
      <trkpt lat="45.08046" lon="5.6793">
        <ele>285.13</ele>
        <time>2018-08-26T14:27:12Z</time>
      </trkpt>
      <trkpt lat="45.08072" lon="5.67919">
        <ele>285.07</ele>
        <time>2018-08-26T14:27:13Z</time>
      </trkpt>
      <trkpt lat="45.08097" lon="5.67907">
        <ele>285.06</ele>
        <time>2018-08-26T14:27:14Z</time>
      </trkpt>
      <trkpt lat="45.08122" lon="5.67896">
        <ele>285.05</ele>
        <time>2018-08-26T14:27:15Z</time>
      </trkpt>
      <trkpt lat="45.08146" lon="5.67885">
        <ele>285.75</ele>
        <time>2018-08-26T14:27:16Z</time>
      </trkpt>
      <trkpt lat="45.08465" lon="5.67549">
        <ele>287.36</ele>
        <time>2018-08-26T14:27:31Z</time>
      </trkpt>
      <trkpt lat="45.08482" lon="5.67516">
        <ele>288.54</ele>
        <time>2018-08-26T14:27:32Z</time>
      </trkpt>
      <trkpt lat="45.08499" lon="5.67485">
        <ele>287.5</ele>
        <time>2018-08-26T14:27:33Z</time>
      </trkpt>
      <trkpt lat="45.08516" lon="5.67458">
        <ele>285.08</ele>
        <time>2018-08-26T14:27:34Z</time>
      </trkpt>
      <trkpt lat="45.08533" lon="5.67428">
        <ele>285.06</ele>
        <time>2018-08-26T14:27:35Z</time>
      </trkpt>
      <trkpt lat="45.08549" lon="5.67397">
        <ele>285.05</ele>
        <time>2018-08-26T14:27:36Z</time>
      </trkpt>
      <trkpt lat="45.08564" lon="5.67366">
        <ele>285.05</ele>
        <time>2018-08-26T14:27:37Z</time>
      </trkpt>
      <trkpt lat="45.0858" lon="5.67335">
        <ele>284.35</ele>
        <time>2018-08-26T14:27:38Z</time>
      </trkpt>
      <trkpt lat="45.08593" lon="5.67303">
        <ele>283.44</ele>
        <time>2018-08-26T14:27:39Z</time>
      </trkpt>
      <trkpt lat="45.08607" lon="5.67271">
        <ele>283.17</ele>
        <time>2018-08-26T14:27:40Z</time>
      </trkpt>
      <trkpt lat="45.0862" lon="5.67239">
        <ele>283.08</ele>
        <time>2018-08-26T14:27:41Z</time>
      </trkpt>
      <trkpt lat="45.08633" lon="5.67207">
        <ele>283.06</ele>
        <time>2018-08-26T14:27:42Z</time>
      </trkpt>
      <trkpt lat="45.08647" lon="5.67177">
        <ele>282.35</ele>
        <time>2018-08-26T14:27:43Z</time>
      </trkpt>
      <trkpt lat="45.08661" lon="5.67147">
        <ele>282.14</ele>
        <time>2018-08-26T14:27:44Z</time>
      </trkpt>
      <trkpt lat="45.08678" lon="5.67118">
        <ele>282.78</ele>
        <time>2018-08-26T14:27:45Z</time>
      </trkpt>
      <trkpt lat="45.08696" lon="5.67092">
        <ele>282.27</ele>
        <time>2018-08-26T14:27:46Z</time>
      </trkpt>
      <trkpt lat="45.08715" lon="5.67066">
        <ele>282.11</ele>
        <time>2018-08-26T14:27:47Z</time>
      </trkpt>
      <trkpt lat="45.08736" lon="5.67042">
        <ele>281.37</ele>
        <time>2018-08-26T14:27:48Z</time>
      </trkpt>
      <trkpt lat="45.08758" lon="5.6702">
        <ele>280.44</ele>
        <time>2018-08-26T14:27:49Z</time>
      </trkpt>
      <trkpt lat="45.08782" lon="5.66999">
        <ele>280.17</ele>
        <time>2018-08-26T14:27:50Z</time>
      </trkpt>
      <trkpt lat="45.08807" lon="5.66981">
        <ele>280.08</ele>
        <time>2018-08-26T14:27:51Z</time>
      </trkpt>
      <trkpt lat="45.08832" lon="5.66964">
        <ele>280.06</ele>
        <time>2018-08-26T14:27:52Z</time>
      </trkpt>
      <trkpt lat="45.08859" lon="5.6695">
        <ele>279.35</ele>
        <time>2018-08-26T14:27:53Z</time>
      </trkpt>
      <trkpt lat="45.08886" lon="5.66938">
        <ele>279.14</ele>
        <time>2018-08-26T14:27:54Z</time>
      </trkpt>
      <trkpt lat="45.08914" lon="5.66928">
        <ele>279.08</ele>
        <time>2018-08-26T14:27:55Z</time>
      </trkpt>
      <trkpt lat="45.08943" lon="5.66922">
        <ele>279.06</ele>
        <time>2018-08-26T14:27:56Z</time>
      </trkpt>
      <trkpt lat="45.08972" lon="5.66917">
        <ele>278.35</ele>
        <time>2018-08-26T14:27:57Z</time>
      </trkpt>
      <trkpt lat="45.09" lon="5.66914">
        <ele>278.14</ele>
        <time>2018-08-26T14:27:58Z</time>
      </trkpt>
      <trkpt lat="45.09028" lon="5.66914">
        <ele>277.38</ele>
        <time>2018-08-26T14:27:59Z</time>
      </trkpt>
      <trkpt lat="45.09056" lon="5.66917">
        <ele>277.15</ele>
        <time>2018-08-26T14:28:00Z</time>
      </trkpt>
      <trkpt lat="45.09085" lon="5.66923">
        <ele>277.08</ele>
        <time>2018-08-26T14:28:01Z</time>
      </trkpt>
      <trkpt lat="45.09113" lon="5.66931">
        <ele>277.06</ele>
        <time>2018-08-26T14:28:02Z</time>
      </trkpt>
      <trkpt lat="45.09141" lon="5.6694">
        <ele>276.35</ele>
        <time>2018-08-26T14:28:03Z</time>
      </trkpt>
      <trkpt lat="45.09169" lon="5.6695">
        <ele>276.14</ele>
        <time>2018-08-26T14:28:04Z</time>
      </trkpt>
      <trkpt lat="45.09197" lon="5.66959">
        <ele>275.38</ele>
        <time>2018-08-26T14:28:05Z</time>
      </trkpt>
      <trkpt lat="45.09224" lon="5.66968">
        <ele>275.15</ele>
        <time>2018-08-26T14:28:06Z</time>
      </trkpt>
      <trkpt lat="45.09252" lon="5.66977">
        <ele>274.38</ele>
        <time>2018-08-26T14:28:07Z</time>
      </trkpt>
      <trkpt lat="45.09279" lon="5.66985">
        <ele>274.15</ele>
        <time>2018-08-26T14:28:08Z</time>
      </trkpt>
      <trkpt lat="45.09306" lon="5.66994">
        <ele>274.08</ele>
        <time>2018-08-26T14:28:09Z</time>
      </trkpt>
      <trkpt lat="45.09333" lon="5.67002">
        <ele>273.36</ele>
        <time>2018-08-26T14:28:10Z</time>
      </trkpt>
      <trkpt lat="45.09359" lon="5.67012">
        <ele>273.14</ele>
        <time>2018-08-26T14:28:11Z</time>
      </trkpt>
      <trkpt lat="45.09386" lon="5.67021">
        <ele>273.08</ele>
        <time>2018-08-26T14:28:12Z</time>
      </trkpt>
      <trkpt lat="45.09414" lon="5.67032">
        <ele>273.06</ele>
        <time>2018-08-26T14:28:13Z</time>
      </trkpt>
      <trkpt lat="45.09444" lon="5.67042">
        <ele>273.05</ele>
        <time>2018-08-26T14:28:14Z</time>
      </trkpt>
      <trkpt lat="45.09475" lon="5.67054">
        <ele>271.65</ele>
        <time>2018-08-26T14:28:15Z</time>
      </trkpt>
      <trkpt lat="45.09506" lon="5.67071">
        <ele>271.23</ele>
        <time>2018-08-26T14:28:16Z</time>
      </trkpt>
      <trkpt lat="45.09537" lon="5.6709">
        <ele>270.4</ele>
        <time>2018-08-26T14:28:17Z</time>
      </trkpt>
      <trkpt lat="45.09567" lon="5.67109">
        <ele>270.16</ele>
        <time>2018-08-26T14:28:18Z</time>
      </trkpt>
      <trkpt lat="45.09597" lon="5.6713">
        <ele>270.08</ele>
        <time>2018-08-26T14:28:19Z</time>
      </trkpt>
      <trkpt lat="45.09625" lon="5.67152">
        <ele>270.06</ele>
        <time>2018-08-26T14:28:20Z</time>
      </trkpt>
      <trkpt lat="45.09654" lon="5.67176">
        <ele>269.35</ele>
        <time>2018-08-26T14:28:21Z</time>
      </trkpt>
      <trkpt lat="45.09682" lon="5.67202">
        <ele>268.44</ele>
        <time>2018-08-26T14:28:22Z</time>
      </trkpt>
      <trkpt lat="45.09708" lon="5.6723">
        <ele>267.47</ele>
        <time>2018-08-26T14:28:23Z</time>
      </trkpt>
      <trkpt lat="45.09735" lon="5.67258">
        <ele>266.47</ele>
        <time>2018-08-26T14:28:24Z</time>
      </trkpt>
      <trkpt lat="45.09762" lon="5.67287">
        <ele>266.18</ele>
        <time>2018-08-26T14:28:25Z</time>
      </trkpt>
      <trkpt lat="45.09789" lon="5.67316">
        <ele>265.39</ele>
        <time>2018-08-26T14:28:26Z</time>
      </trkpt>
      <trkpt lat="45.09816" lon="5.67344">
        <ele>265.15</ele>
        <time>2018-08-26T14:28:27Z</time>
      </trkpt>
      <trkpt lat="45.09843" lon="5.67372">
        <ele>265.08</ele>
        <time>2018-08-26T14:28:28Z</time>
      </trkpt>
      <trkpt lat="45.09871" lon="5.67398">
        <ele>264.36</ele>
        <time>2018-08-26T14:28:29Z</time>
      </trkpt>
      <trkpt lat="45.09898" lon="5.67423">
        <ele>264.14</ele>
        <time>2018-08-26T14:28:30Z</time>
      </trkpt>
      <trkpt lat="45.09926" lon="5.67447">
        <ele>264.08</ele>
        <time>2018-08-26T14:28:31Z</time>
      </trkpt>
      <trkpt lat="45.09956" lon="5.67467">
        <ele>264.06</ele>
        <time>2018-08-26T14:28:32Z</time>
      </trkpt>
      <trkpt lat="45.09986" lon="5.67487">
        <ele>264.05</ele>
        <time>2018-08-26T14:28:33Z</time>
      </trkpt>
      <trkpt lat="45.10015" lon="5.67505">
        <ele>262.65</ele>
        <time>2018-08-26T14:28:34Z</time>
      </trkpt>
      <trkpt lat="45.10045" lon="5.67522">
        <ele>262.23</ele>
        <time>2018-08-26T14:28:35Z</time>
      </trkpt>
      <trkpt lat="45.10075" lon="5.67538">
        <ele>262.1</ele>
        <time>2018-08-26T14:28:36Z</time>
      </trkpt>
      <trkpt lat="45.10105" lon="5.67554">
        <ele>262.07</ele>
        <time>2018-08-26T14:28:37Z</time>
      </trkpt>
      <trkpt lat="45.10136" lon="5.67569">
        <ele>261.35</ele>
        <time>2018-08-26T14:28:38Z</time>
      </trkpt>
      <trkpt lat="45.10167" lon="5.67584">
        <ele>261.14</ele>
        <time>2018-08-26T14:28:39Z</time>
      </trkpt>
      <trkpt lat="45.10197" lon="5.67599">
        <ele>261.08</ele>
        <time>2018-08-26T14:28:40Z</time>
      </trkpt>
      <trkpt lat="45.10227" lon="5.67614">
        <ele>261.06</ele>
        <time>2018-08-26T14:28:41Z</time>
      </trkpt>
      <trkpt lat="45.10258" lon="5.67629">
        <ele>261.75</ele>
        <time>2018-08-26T14:28:42Z</time>
      </trkpt>
      <trkpt lat="45.10289" lon="5.67645">
        <ele>261.96</ele>
        <time>2018-08-26T14:28:43Z</time>
      </trkpt>
      <trkpt lat="45.1032" lon="5.6766">
        <ele>262.02</ele>
        <time>2018-08-26T14:28:44Z</time>
      </trkpt>
      <trkpt lat="45.1035" lon="5.67675">
        <ele>262.04</ele>
        <time>2018-08-26T14:28:45Z</time>
      </trkpt>
      <trkpt lat="45.10381" lon="5.67689">
        <ele>262.05</ele>
        <time>2018-08-26T14:28:46Z</time>
      </trkpt>
      <trkpt lat="45.10411" lon="5.67704">
        <ele>261.35</ele>
        <time>2018-08-26T14:28:47Z</time>
      </trkpt>
      <trkpt lat="45.10442" lon="5.67718">
        <ele>261.14</ele>
        <time>2018-08-26T14:28:48Z</time>
      </trkpt>
      <trkpt lat="45.10473" lon="5.67733">
        <ele>261.08</ele>
        <time>2018-08-26T14:28:49Z</time>
      </trkpt>
      <trkpt lat="45.10504" lon="5.67748">
        <ele>261.06</ele>
        <time>2018-08-26T14:28:50Z</time>
      </trkpt>
      <trkpt lat="45.10534" lon="5.67764">
        <ele>261.05</ele>
        <time>2018-08-26T14:28:51Z</time>
      </trkpt>
      <trkpt lat="45.10564" lon="5.6778">
        <ele>260.35</ele>
        <time>2018-08-26T14:28:52Z</time>
      </trkpt>
      <trkpt lat="45.10595" lon="5.67797">
        <ele>259.44</ele>
        <time>2018-08-26T14:28:53Z</time>
      </trkpt>
      <trkpt lat="45.10625" lon="5.67813">
        <ele>259.17</ele>
        <time>2018-08-26T14:28:54Z</time>
      </trkpt>
      <trkpt lat="45.10656" lon="5.6783">
        <ele>259.08</ele>
        <time>2018-08-26T14:28:55Z</time>
      </trkpt>
      <trkpt lat="45.10687" lon="5.67847">
        <ele>258.36</ele>
        <time>2018-08-26T14:28:56Z</time>
      </trkpt>
      <trkpt lat="45.10717" lon="5.67863">
        <ele>258.14</ele>
        <time>2018-08-26T14:28:57Z</time>
      </trkpt>
      <trkpt lat="45.10748" lon="5.6788">
        <ele>257.38</ele>
        <time>2018-08-26T14:28:58Z</time>
      </trkpt>
      <trkpt lat="45.10779" lon="5.67897">
        <ele>257.85</ele>
        <time>2018-08-26T14:28:59Z</time>
      </trkpt>
      <trkpt lat="45.10807" lon="5.67918">
        <ele>256.59</ele>
        <time>2018-08-26T14:29:00Z</time>
      </trkpt>
      <trkpt lat="45.10837" lon="5.67939">
        <ele>255.51</ele>
        <time>2018-08-26T14:29:01Z</time>
      </trkpt>
      <trkpt lat="45.10865" lon="5.67962">
        <ele>254.49</ele>
        <time>2018-08-26T14:29:02Z</time>
      </trkpt>
      <trkpt lat="45.10893" lon="5.67986">
        <ele>254.18</ele>
        <time>2018-08-26T14:29:03Z</time>
      </trkpt>
      <trkpt lat="45.10921" lon="5.6801">
        <ele>253.39</ele>
        <time>2018-08-26T14:29:04Z</time>
      </trkpt>
      <trkpt lat="45.10949" lon="5.68035">
        <ele>253.15</ele>
        <time>2018-08-26T14:29:05Z</time>
      </trkpt>
      <trkpt lat="45.10977" lon="5.68061">
        <ele>253.08</ele>
        <time>2018-08-26T14:29:06Z</time>
      </trkpt>
      <trkpt lat="45.11005" lon="5.68085">
        <ele>252.36</ele>
        <time>2018-08-26T14:29:07Z</time>
      </trkpt>
      <trkpt lat="45.11034" lon="5.6811">
        <ele>252.14</ele>
        <time>2018-08-26T14:29:08Z</time>
      </trkpt>
      <trkpt lat="45.11064" lon="5.68131">
        <ele>251.38</ele>
        <time>2018-08-26T14:29:09Z</time>
      </trkpt>
      <trkpt lat="45.11092" lon="5.68154">
        <ele>250.45</ele>
        <time>2018-08-26T14:29:10Z</time>
      </trkpt>
      <trkpt lat="45.11121" lon="5.68175">
        <ele>250.17</ele>
        <time>2018-08-26T14:29:11Z</time>
      </trkpt>
      <trkpt lat="45.1115" lon="5.68193">
        <ele>250.08</ele>
        <time>2018-08-26T14:29:12Z</time>
      </trkpt>
      <trkpt lat="45.1118" lon="5.6821">
        <ele>249.36</ele>
        <time>2018-08-26T14:29:13Z</time>
      </trkpt>
      <trkpt lat="45.11211" lon="5.68226">
        <ele>249.14</ele>
        <time>2018-08-26T14:29:14Z</time>
      </trkpt>
      <trkpt lat="45.11242" lon="5.6824">
        <ele>249.08</ele>
        <time>2018-08-26T14:29:15Z</time>
      </trkpt>
      <trkpt lat="45.11272" lon="5.68254">
        <ele>248.36</ele>
        <time>2018-08-26T14:29:16Z</time>
      </trkpt>
      <trkpt lat="45.11303" lon="5.68267">
        <ele>248.14</ele>
        <time>2018-08-26T14:29:17Z</time>
      </trkpt>
      <trkpt lat="45.11334" lon="5.68281">
        <ele>248.78</ele>
        <time>2018-08-26T14:29:18Z</time>
      </trkpt>
      <trkpt lat="45.11364" lon="5.68294">
        <ele>248.27</ele>
        <time>2018-08-26T14:29:19Z</time>
      </trkpt>
      <trkpt lat="45.11394" lon="5.68307">
        <ele>247.41</ele>
        <time>2018-08-26T14:29:20Z</time>
      </trkpt>
      <trkpt lat="45.11424" lon="5.68321">
        <ele>247.86</ele>
        <time>2018-08-26T14:29:21Z</time>
      </trkpt>
      <trkpt lat="45.11451" lon="5.68337">
        <ele>247.29</ele>
        <time>2018-08-26T14:29:22Z</time>
      </trkpt>
      <trkpt lat="45.11478" lon="5.68354">
        <ele>247.12</ele>
        <time>2018-08-26T14:29:23Z</time>
      </trkpt>
      <trkpt lat="45.11504" lon="5.68371">
        <ele>246.37</ele>
        <time>2018-08-26T14:29:24Z</time>
      </trkpt>
      <trkpt lat="45.11531" lon="5.68388">
        <ele>246.85</ele>
        <time>2018-08-26T14:29:25Z</time>
      </trkpt>
      <trkpt lat="45.11557" lon="5.68405">
        <ele>246.99</ele>
        <time>2018-08-26T14:29:26Z</time>
      </trkpt>
      <trkpt lat="45.11584" lon="5.68422">
        <ele>247.03</ele>
        <time>2018-08-26T14:29:27Z</time>
      </trkpt>
      <trkpt lat="45.11611" lon="5.68438">
        <ele>247.04</ele>
        <time>2018-08-26T14:29:28Z</time>
      </trkpt>
      <trkpt lat="45.11638" lon="5.68454">
        <ele>247.05</ele>
        <time>2018-08-26T14:29:29Z</time>
      </trkpt>
      <trkpt lat="45.11664" lon="5.68471">
        <ele>246.35</ele>
        <time>2018-08-26T14:29:30Z</time>
      </trkpt>
      <trkpt lat="45.1169" lon="5.68488">
        <ele>246.14</ele>
        <time>2018-08-26T14:29:31Z</time>
      </trkpt>
      <trkpt lat="45.11716" lon="5.68505">
        <ele>246.08</ele>
        <time>2018-08-26T14:29:32Z</time>
      </trkpt>
      <trkpt lat="45.11743" lon="5.68522">
        <ele>245.36</ele>
        <time>2018-08-26T14:29:33Z</time>
      </trkpt>
      <trkpt lat="45.11769" lon="5.68538">
        <ele>245.14</ele>
        <time>2018-08-26T14:29:34Z</time>
      </trkpt>
      <trkpt lat="45.11795" lon="5.68555">
        <ele>245.78</ele>
        <time>2018-08-26T14:29:35Z</time>
      </trkpt>
      <trkpt lat="45.11822" lon="5.68571">
        <ele>245.97</ele>
        <time>2018-08-26T14:29:36Z</time>
      </trkpt>
      <trkpt lat="45.11847" lon="5.68588">
        <ele>246.02</ele>
        <time>2018-08-26T14:29:37Z</time>
      </trkpt>
      <trkpt lat="45.11872" lon="5.68605">
        <ele>246.04</ele>
        <time>2018-08-26T14:29:38Z</time>
      </trkpt>
      <trkpt lat="45.11898" lon="5.68622">
        <ele>246.05</ele>
        <time>2018-08-26T14:29:39Z</time>
      </trkpt>
      <trkpt lat="45.11923" lon="5.68639">
        <ele>246.05</ele>
        <time>2018-08-26T14:29:40Z</time>
      </trkpt>
      <trkpt lat="45.11949" lon="5.68656">
        <ele>246.05</ele>
        <time>2018-08-26T14:29:41Z</time>
      </trkpt>
      <trkpt lat="45.11974" lon="5.68674">
        <ele>246.05</ele>
        <time>2018-08-26T14:29:42Z</time>
      </trkpt>
      <trkpt lat="45.11997" lon="5.68692">
        <ele>245.35</ele>
        <time>2018-08-26T14:29:43Z</time>
      </trkpt>
      <trkpt lat="45.12021" lon="5.6871">
        <ele>245.14</ele>
        <time>2018-08-26T14:29:44Z</time>
      </trkpt>
      <trkpt lat="45.12048" lon="5.68729">
        <ele>245.08</ele>
        <time>2018-08-26T14:29:45Z</time>
      </trkpt>
      <trkpt lat="45.12072" lon="5.68748">
        <ele>245.06</ele>
        <time>2018-08-26T14:29:46Z</time>
      </trkpt>
      <trkpt lat="45.12098" lon="5.68768">
        <ele>245.05</ele>
        <time>2018-08-26T14:29:47Z</time>
      </trkpt>
      <trkpt lat="45.12124" lon="5.68786">
        <ele>245.05</ele>
        <time>2018-08-26T14:29:48Z</time>
      </trkpt>
      <trkpt lat="45.1215" lon="5.68805">
        <ele>245.05</ele>
        <time>2018-08-26T14:29:49Z</time>
      </trkpt>
      <trkpt lat="45.12177" lon="5.68822">
        <ele>245.75</ele>
        <time>2018-08-26T14:29:50Z</time>
      </trkpt>
      <trkpt lat="45.12203" lon="5.68841">
        <ele>245.26</ele>
        <time>2018-08-26T14:29:51Z</time>
      </trkpt>
      <trkpt lat="45.12229" lon="5.68858">
        <ele>245.11</ele>
        <time>2018-08-26T14:29:52Z</time>
      </trkpt>
      <trkpt lat="45.12256" lon="5.68875">
        <ele>245.07</ele>
        <time>2018-08-26T14:29:53Z</time>
      </trkpt>
      <trkpt lat="45.12283" lon="5.68891">
        <ele>244.35</ele>
        <time>2018-08-26T14:29:54Z</time>
      </trkpt>
      <trkpt lat="45.1231" lon="5.68905">
        <ele>244.14</ele>
        <time>2018-08-26T14:29:55Z</time>
      </trkpt>
      <trkpt lat="45.12338" lon="5.68917">
        <ele>244.08</ele>
        <time>2018-08-26T14:29:56Z</time>
      </trkpt>
      <trkpt lat="45.12366" lon="5.6893">
        <ele>243.36</ele>
        <time>2018-08-26T14:29:57Z</time>
      </trkpt>
      <trkpt lat="45.12393" lon="5.68944">
        <ele>243.14</ele>
        <time>2018-08-26T14:29:58Z</time>
      </trkpt>
      <trkpt lat="45.1242" lon="5.68958">
        <ele>243.08</ele>
        <time>2018-08-26T14:29:59Z</time>
      </trkpt>
      <trkpt lat="45.12447" lon="5.68972">
        <ele>243.06</ele>
        <time>2018-08-26T14:30:00Z</time>
      </trkpt>
      <trkpt lat="45.12474" lon="5.68987">
        <ele>243.05</ele>
        <time>2018-08-26T14:30:01Z</time>
      </trkpt>
      <trkpt lat="45.12501" lon="5.69002">
        <ele>243.05</ele>
        <time>2018-08-26T14:30:02Z</time>
      </trkpt>
      <trkpt lat="45.12528" lon="5.69017">
        <ele>242.35</ele>
        <time>2018-08-26T14:30:03Z</time>
      </trkpt>
      <trkpt lat="45.12556" lon="5.69031">
        <ele>242.14</ele>
        <time>2018-08-26T14:30:04Z</time>
      </trkpt>
      <trkpt lat="45.12583" lon="5.69046">
        <ele>242.78</ele>
        <time>2018-08-26T14:30:05Z</time>
      </trkpt>
      <trkpt lat="45.12611" lon="5.6906">
        <ele>242.97</ele>
        <time>2018-08-26T14:30:06Z</time>
      </trkpt>
      <trkpt lat="45.12639" lon="5.69071">
        <ele>242.32</ele>
        <time>2018-08-26T14:30:07Z</time>
      </trkpt>
      <trkpt lat="45.12666" lon="5.69083">
        <ele>242.13</ele>
        <time>2018-08-26T14:30:08Z</time>
      </trkpt>
      <trkpt lat="45.12694" lon="5.69092">
        <ele>242.77</ele>
        <time>2018-08-26T14:30:09Z</time>
      </trkpt>
      <trkpt lat="45.12722" lon="5.69099">
        <ele>242.27</ele>
        <time>2018-08-26T14:30:10Z</time>
      </trkpt>
      <trkpt lat="45.12751" lon="5.69105">
        <ele>242.11</ele>
        <time>2018-08-26T14:30:11Z</time>
      </trkpt>
      <trkpt lat="45.12779" lon="5.69108">
        <ele>242.07</ele>
        <time>2018-08-26T14:30:12Z</time>
      </trkpt>
      <trkpt lat="45.12807" lon="5.69109">
        <ele>242.05</ele>
        <time>2018-08-26T14:30:13Z</time>
      </trkpt>
      <trkpt lat="45.12836" lon="5.69108">
        <ele>242.05</ele>
        <time>2018-08-26T14:30:14Z</time>
      </trkpt>
      <trkpt lat="45.12864" lon="5.69106">
        <ele>242.05</ele>
        <time>2018-08-26T14:30:15Z</time>
      </trkpt>
      <trkpt lat="45.12893" lon="5.69102">
        <ele>242.05</ele>
        <time>2018-08-26T14:30:16Z</time>
      </trkpt>
      <trkpt lat="45.12921" lon="5.69096">
        <ele>242.05</ele>
        <time>2018-08-26T14:30:17Z</time>
      </trkpt>
      <trkpt lat="45.12949" lon="5.69089">
        <ele>242.05</ele>
        <time>2018-08-26T14:30:18Z</time>
      </trkpt>
      <trkpt lat="45.12977" lon="5.6908">
        <ele>242.05</ele>
        <time>2018-08-26T14:30:19Z</time>
      </trkpt>
      <trkpt lat="45.13006" lon="5.69072">
        <ele>242.05</ele>
        <time>2018-08-26T14:30:20Z</time>
      </trkpt>
      <trkpt lat="45.13033" lon="5.69063">
        <ele>242.05</ele>
        <time>2018-08-26T14:30:21Z</time>
      </trkpt>
      <trkpt lat="45.13062" lon="5.69054">
        <ele>242.05</ele>
        <time>2018-08-26T14:30:22Z</time>
      </trkpt>
      <trkpt lat="45.1309" lon="5.69045">
        <ele>241.35</ele>
        <time>2018-08-26T14:30:23Z</time>
      </trkpt>
      <trkpt lat="45.13118" lon="5.69037">
        <ele>240.44</ele>
        <time>2018-08-26T14:30:24Z</time>
      </trkpt>
      <trkpt lat="45.13147" lon="5.6903">
        <ele>240.17</ele>
        <time>2018-08-26T14:30:25Z</time>
      </trkpt>
      <trkpt lat="45.13176" lon="5.69024">
        <ele>240.08</ele>
        <time>2018-08-26T14:30:26Z</time>
      </trkpt>
      <trkpt lat="45.13206" lon="5.69019">
        <ele>240.06</ele>
        <time>2018-08-26T14:30:27Z</time>
      </trkpt>
      <trkpt lat="45.13235" lon="5.69015">
        <ele>240.75</ele>
        <time>2018-08-26T14:30:28Z</time>
      </trkpt>
      <trkpt lat="45.13264" lon="5.69014">
        <ele>240.96</ele>
        <time>2018-08-26T14:30:29Z</time>
      </trkpt>
      <trkpt lat="45.13294" lon="5.69013">
        <ele>240.32</ele>
        <time>2018-08-26T14:30:30Z</time>
      </trkpt>
      <trkpt lat="45.13323" lon="5.69014">
        <ele>240.13</ele>
        <time>2018-08-26T14:30:31Z</time>
      </trkpt>
      <trkpt lat="45.13352" lon="5.69017">
        <ele>240.07</ele>
        <time>2018-08-26T14:30:32Z</time>
      </trkpt>
      <trkpt lat="45.13382" lon="5.6902">
        <ele>240.06</ele>
        <time>2018-08-26T14:30:33Z</time>
      </trkpt>
      <trkpt lat="45.13411" lon="5.69025">
        <ele>239.35</ele>
        <time>2018-08-26T14:30:34Z</time>
      </trkpt>
      <trkpt lat="45.1344" lon="5.69029">
        <ele>238.44</ele>
        <time>2018-08-26T14:30:35Z</time>
      </trkpt>
      <trkpt lat="45.1347" lon="5.69035">
        <ele>238.17</ele>
        <time>2018-08-26T14:30:36Z</time>
      </trkpt>
      <trkpt lat="45.13499" lon="5.6904">
        <ele>238.08</ele>
        <time>2018-08-26T14:30:37Z</time>
      </trkpt>
      <trkpt lat="45.13528" lon="5.69045">
        <ele>238.06</ele>
        <time>2018-08-26T14:30:38Z</time>
      </trkpt>
      <trkpt lat="45.13557" lon="5.69051">
        <ele>238.05</ele>
        <time>2018-08-26T14:30:39Z</time>
      </trkpt>
      <trkpt lat="45.13586" lon="5.69057">
        <ele>238.05</ele>
        <time>2018-08-26T14:30:40Z</time>
      </trkpt>
      <trkpt lat="45.13615" lon="5.69062">
        <ele>238.05</ele>
        <time>2018-08-26T14:30:41Z</time>
      </trkpt>
      <trkpt lat="45.13644" lon="5.69067">
        <ele>237.35</ele>
        <time>2018-08-26T14:30:42Z</time>
      </trkpt>
      <trkpt lat="45.13674" lon="5.69072">
        <ele>237.84</ele>
        <time>2018-08-26T14:30:43Z</time>
      </trkpt>
      <trkpt lat="45.13703" lon="5.69077">
        <ele>237.99</ele>
        <time>2018-08-26T14:30:44Z</time>
      </trkpt>
      <trkpt lat="45.13732" lon="5.69083">
        <ele>237.33</ele>
        <time>2018-08-26T14:30:45Z</time>
      </trkpt>
      <trkpt lat="45.13761" lon="5.6909">
        <ele>237.13</ele>
        <time>2018-08-26T14:30:46Z</time>
      </trkpt>
      <trkpt lat="45.1379" lon="5.69098">
        <ele>237.77</ele>
        <time>2018-08-26T14:30:47Z</time>
      </trkpt>
      <trkpt lat="45.13818" lon="5.69107">
        <ele>237.97</ele>
        <time>2018-08-26T14:30:48Z</time>
      </trkpt>
      <trkpt lat="45.13845" lon="5.69118">
        <ele>238.02</ele>
        <time>2018-08-26T14:30:49Z</time>
      </trkpt>
      <trkpt lat="45.13873" lon="5.6913">
        <ele>238.04</ele>
        <time>2018-08-26T14:30:50Z</time>
      </trkpt>
      <trkpt lat="45.139" lon="5.69141">
        <ele>238.05</ele>
        <time>2018-08-26T14:30:51Z</time>
      </trkpt>
      <trkpt lat="45.13927" lon="5.69153">
        <ele>238.05</ele>
        <time>2018-08-26T14:30:52Z</time>
      </trkpt>
      <trkpt lat="45.13954" lon="5.69165">
        <ele>238.05</ele>
        <time>2018-08-26T14:30:53Z</time>
      </trkpt>
      <trkpt lat="45.13982" lon="5.69178">
        <ele>238.05</ele>
        <time>2018-08-26T14:30:54Z</time>
      </trkpt>
      <trkpt lat="45.14008" lon="5.69191">
        <ele>238.05</ele>
        <time>2018-08-26T14:30:55Z</time>
      </trkpt>
      <trkpt lat="45.14036" lon="5.69204">
        <ele>237.35</ele>
        <time>2018-08-26T14:30:56Z</time>
      </trkpt>
      <trkpt lat="45.14063" lon="5.69216">
        <ele>237.14</ele>
        <time>2018-08-26T14:30:57Z</time>
      </trkpt>
      <trkpt lat="45.1409" lon="5.69229">
        <ele>237.08</ele>
        <time>2018-08-26T14:30:58Z</time>
      </trkpt>
      <trkpt lat="45.14117" lon="5.69242">
        <ele>237.06</ele>
        <time>2018-08-26T14:30:59Z</time>
      </trkpt>
      <trkpt lat="45.14143" lon="5.69255">
        <ele>237.05</ele>
        <time>2018-08-26T14:31:00Z</time>
      </trkpt>
      <trkpt lat="45.1417" lon="5.69268">
        <ele>237.05</ele>
        <time>2018-08-26T14:31:01Z</time>
      </trkpt>
      <trkpt lat="45.14197" lon="5.6928">
        <ele>236.35</ele>
        <time>2018-08-26T14:31:02Z</time>
      </trkpt>
      <trkpt lat="45.14223" lon="5.69293">
        <ele>236.14</ele>
        <time>2018-08-26T14:31:03Z</time>
      </trkpt>
      <trkpt lat="45.1425" lon="5.69305">
        <ele>235.38</ele>
        <time>2018-08-26T14:31:04Z</time>
      </trkpt>
      <trkpt lat="45.14276" lon="5.69318">
        <ele>235.15</ele>
        <time>2018-08-26T14:31:05Z</time>
      </trkpt>
      <trkpt lat="45.14302" lon="5.6933">
        <ele>235.08</ele>
        <time>2018-08-26T14:31:06Z</time>
      </trkpt>
      <trkpt lat="45.14328" lon="5.69343">
        <ele>235.06</ele>
        <time>2018-08-26T14:31:07Z</time>
      </trkpt>
      <trkpt lat="45.14354" lon="5.69356">
        <ele>235.05</ele>
        <time>2018-08-26T14:31:08Z</time>
      </trkpt>
      <trkpt lat="45.1438" lon="5.69368">
        <ele>235.05</ele>
        <time>2018-08-26T14:31:09Z</time>
      </trkpt>
      <trkpt lat="45.14405" lon="5.6938">
        <ele>235.05</ele>
        <time>2018-08-26T14:31:10Z</time>
      </trkpt>
      <trkpt lat="45.14432" lon="5.69392">
        <ele>234.35</ele>
        <time>2018-08-26T14:31:11Z</time>
      </trkpt>
      <trkpt lat="45.14457" lon="5.69405">
        <ele>234.14</ele>
        <time>2018-08-26T14:31:12Z</time>
      </trkpt>
      <trkpt lat="45.14483" lon="5.69417">
        <ele>234.78</ele>
        <time>2018-08-26T14:31:13Z</time>
      </trkpt>
      <trkpt lat="45.14509" lon="5.69429">
        <ele>234.97</ele>
        <time>2018-08-26T14:31:14Z</time>
      </trkpt>
      <trkpt lat="45.14535" lon="5.69441">
        <ele>235.02</ele>
        <time>2018-08-26T14:31:15Z</time>
      </trkpt>
      <trkpt lat="45.14561" lon="5.69454">
        <ele>235.04</ele>
        <time>2018-08-26T14:31:16Z</time>
      </trkpt>
      <trkpt lat="45.14588" lon="5.69467">
        <ele>234.35</ele>
        <time>2018-08-26T14:31:17Z</time>
      </trkpt>
      <trkpt lat="45.14614" lon="5.6948">
        <ele>234.14</ele>
        <time>2018-08-26T14:31:18Z</time>
      </trkpt>
      <trkpt lat="45.14641" lon="5.69493">
        <ele>234.08</ele>
        <time>2018-08-26T14:31:19Z</time>
      </trkpt>
      <trkpt lat="45.14667" lon="5.69506">
        <ele>234.06</ele>
        <time>2018-08-26T14:31:20Z</time>
      </trkpt>
      <trkpt lat="45.14694" lon="5.69519">
        <ele>234.05</ele>
        <time>2018-08-26T14:31:21Z</time>
      </trkpt>
      <trkpt lat="45.14721" lon="5.69532">
        <ele>233.35</ele>
        <time>2018-08-26T14:31:22Z</time>
      </trkpt>
      <trkpt lat="45.14748" lon="5.69545">
        <ele>232.44</ele>
        <time>2018-08-26T14:31:23Z</time>
      </trkpt>
      <trkpt lat="45.14774" lon="5.69558">
        <ele>232.17</ele>
        <time>2018-08-26T14:31:24Z</time>
      </trkpt>
      <trkpt lat="45.14801" lon="5.69571">
        <ele>231.38</ele>
        <time>2018-08-26T14:31:25Z</time>
      </trkpt>
      <trkpt lat="45.14829" lon="5.69583">
        <ele>231.15</ele>
        <time>2018-08-26T14:31:26Z</time>
      </trkpt>
      <trkpt lat="45.14856" lon="5.69596">
        <ele>231.08</ele>
        <time>2018-08-26T14:31:27Z</time>
      </trkpt>
      <trkpt lat="45.14883" lon="5.69608">
        <ele>231.06</ele>
        <time>2018-08-26T14:31:28Z</time>
      </trkpt>
      <trkpt lat="45.1491" lon="5.6962">
        <ele>231.05</ele>
        <time>2018-08-26T14:31:29Z</time>
      </trkpt>
      <trkpt lat="45.14937" lon="5.69633">
        <ele>230.35</ele>
        <time>2018-08-26T14:31:30Z</time>
      </trkpt>
      <trkpt lat="45.14963" lon="5.69644">
        <ele>230.14</ele>
        <time>2018-08-26T14:31:31Z</time>
      </trkpt>
      <trkpt lat="45.14988" lon="5.69656">
        <ele>230.08</ele>
        <time>2018-08-26T14:31:32Z</time>
      </trkpt>
      <trkpt lat="45.15012" lon="5.69668">
        <ele>230.06</ele>
        <time>2018-08-26T14:31:33Z</time>
      </trkpt>
      <trkpt lat="45.15037" lon="5.69679">
        <ele>229.35</ele>
        <time>2018-08-26T14:31:34Z</time>
      </trkpt>
      <trkpt lat="45.15061" lon="5.6969">
        <ele>229.14</ele>
        <time>2018-08-26T14:31:35Z</time>
      </trkpt>
      <trkpt lat="45.15084" lon="5.69701">
        <ele>229.08</ele>
        <time>2018-08-26T14:31:36Z</time>
      </trkpt>
      <trkpt lat="45.15106" lon="5.69712">
        <ele>229.06</ele>
        <time>2018-08-26T14:31:37Z</time>
      </trkpt>
      <trkpt lat="45.1513" lon="5.69723">
        <ele>229.05</ele>
        <time>2018-08-26T14:31:38Z</time>
      </trkpt>
      <trkpt lat="45.15152" lon="5.69734">
        <ele>229.05</ele>
        <time>2018-08-26T14:31:39Z</time>
      </trkpt>
      <trkpt lat="45.15175" lon="5.69744">
        <ele>228.35</ele>
        <time>2018-08-26T14:31:40Z</time>
      </trkpt>
      <trkpt lat="45.15197" lon="5.69755">
        <ele>228.14</ele>
        <time>2018-08-26T14:31:41Z</time>
      </trkpt>
      <trkpt lat="45.1522" lon="5.69766">
        <ele>228.08</ele>
        <time>2018-08-26T14:31:42Z</time>
      </trkpt>
      <trkpt lat="45.15243" lon="5.69776">
        <ele>228.06</ele>
        <time>2018-08-26T14:31:43Z</time>
      </trkpt>
      <trkpt lat="45.15265" lon="5.69788">
        <ele>227.35</ele>
        <time>2018-08-26T14:31:44Z</time>
      </trkpt>
      <trkpt lat="45.15288" lon="5.69798">
        <ele>227.84</ele>
        <time>2018-08-26T14:31:45Z</time>
      </trkpt>
      <trkpt lat="45.1531" lon="5.69809">
        <ele>227.99</ele>
        <time>2018-08-26T14:31:46Z</time>
      </trkpt>
      <trkpt lat="45.15332" lon="5.6982">
        <ele>228.03</ele>
        <time>2018-08-26T14:31:47Z</time>
      </trkpt>
      <trkpt lat="45.15355" lon="5.69831">
        <ele>228.04</ele>
        <time>2018-08-26T14:31:48Z</time>
      </trkpt>
      <trkpt lat="45.15378" lon="5.69842">
        <ele>228.05</ele>
        <time>2018-08-26T14:31:49Z</time>
      </trkpt>
      <trkpt lat="45.154" lon="5.69853">
        <ele>228.05</ele>
        <time>2018-08-26T14:31:50Z</time>
      </trkpt>
      <trkpt lat="45.15423" lon="5.69865">
        <ele>227.35</ele>
        <time>2018-08-26T14:31:51Z</time>
      </trkpt>
      <trkpt lat="45.15445" lon="5.69876">
        <ele>227.14</ele>
        <time>2018-08-26T14:31:52Z</time>
      </trkpt>
      <trkpt lat="45.15468" lon="5.69886">
        <ele>227.78</ele>
        <time>2018-08-26T14:31:53Z</time>
      </trkpt>
      <trkpt lat="45.1549" lon="5.69896">
        <ele>227.27</ele>
        <time>2018-08-26T14:31:54Z</time>
      </trkpt>
      <trkpt lat="45.15513" lon="5.69906">
        <ele>227.11</ele>
        <time>2018-08-26T14:31:55Z</time>
      </trkpt>
      <trkpt lat="45.15535" lon="5.69916">
        <ele>227.77</ele>
        <time>2018-08-26T14:31:56Z</time>
      </trkpt>
      <trkpt lat="45.15557" lon="5.69927">
        <ele>227.26</ele>
        <time>2018-08-26T14:31:57Z</time>
      </trkpt>
      <trkpt lat="45.15579" lon="5.69939">
        <ele>226.41</ele>
        <time>2018-08-26T14:31:58Z</time>
      </trkpt>
      <trkpt lat="45.15601" lon="5.69951">
        <ele>226.16</ele>
        <time>2018-08-26T14:31:59Z</time>
      </trkpt>
      <trkpt lat="45.15622" lon="5.69963">
        <ele>226.08</ele>
        <time>2018-08-26T14:32:00Z</time>
      </trkpt>
      <trkpt lat="45.15644" lon="5.69977">
        <ele>226.06</ele>
        <time>2018-08-26T14:32:01Z</time>
      </trkpt>
      <trkpt lat="45.15665" lon="5.69992">
        <ele>226.05</ele>
        <time>2018-08-26T14:32:02Z</time>
      </trkpt>
      <trkpt lat="45.15686" lon="5.70007">
        <ele>226.05</ele>
        <time>2018-08-26T14:32:03Z</time>
      </trkpt>
      <trkpt lat="45.15707" lon="5.70024">
        <ele>225.35</ele>
        <time>2018-08-26T14:32:04Z</time>
      </trkpt>
      <trkpt lat="45.15728" lon="5.70041">
        <ele>225.14</ele>
        <time>2018-08-26T14:32:05Z</time>
      </trkpt>
      <trkpt lat="45.15748" lon="5.70058">
        <ele>225.08</ele>
        <time>2018-08-26T14:32:06Z</time>
      </trkpt>
      <trkpt lat="45.15768" lon="5.70075">
        <ele>225.06</ele>
        <time>2018-08-26T14:32:07Z</time>
      </trkpt>
      <trkpt lat="45.1579" lon="5.70091">
        <ele>225.05</ele>
        <time>2018-08-26T14:32:08Z</time>
      </trkpt>
      <trkpt lat="45.15813" lon="5.70104">
        <ele>225.75</ele>
        <time>2018-08-26T14:32:09Z</time>
      </trkpt>
      <trkpt lat="45.15835" lon="5.70117">
        <ele>225.26</ele>
        <time>2018-08-26T14:32:10Z</time>
      </trkpt>
      <trkpt lat="45.15858" lon="5.70129">
        <ele>225.11</ele>
        <time>2018-08-26T14:32:11Z</time>
      </trkpt>
      <trkpt lat="45.15881" lon="5.70141">
        <ele>225.07</ele>
        <time>2018-08-26T14:32:12Z</time>
      </trkpt>
      <trkpt lat="45.15906" lon="5.70146">
        <ele>225.05</ele>
        <time>2018-08-26T14:32:13Z</time>
      </trkpt>
      <trkpt lat="45.1593" lon="5.70151">
        <ele>225.05</ele>
        <time>2018-08-26T14:32:14Z</time>
      </trkpt>
      <trkpt lat="45.15955" lon="5.70155">
        <ele>224.35</ele>
        <time>2018-08-26T14:32:15Z</time>
      </trkpt>
      <trkpt lat="45.15979" lon="5.70158">
        <ele>224.84</ele>
        <time>2018-08-26T14:32:16Z</time>
      </trkpt>
      <trkpt lat="45.16003" lon="5.7016">
        <ele>224.29</ele>
        <time>2018-08-26T14:32:17Z</time>
      </trkpt>
      <trkpt lat="45.16028" lon="5.70162">
        <ele>224.82</ele>
        <time>2018-08-26T14:32:18Z</time>
      </trkpt>
      <trkpt lat="45.16053" lon="5.70162">
        <ele>224.98</ele>
        <time>2018-08-26T14:32:19Z</time>
      </trkpt>
      <trkpt lat="45.1608" lon="5.70162">
        <ele>225.03</ele>
        <time>2018-08-26T14:32:20Z</time>
      </trkpt>
      <trkpt lat="45.16105" lon="5.70163">
        <ele>225.04</ele>
        <time>2018-08-26T14:32:21Z</time>
      </trkpt>
      <trkpt lat="45.1613" lon="5.70164">
        <ele>225.75</ele>
        <time>2018-08-26T14:32:22Z</time>
      </trkpt>
      <trkpt lat="45.16154" lon="5.70164">
        <ele>225.96</ele>
        <time>2018-08-26T14:32:23Z</time>
      </trkpt>
      <trkpt lat="45.16179" lon="5.70165">
        <ele>226.02</ele>
        <time>2018-08-26T14:32:24Z</time>
      </trkpt>
      <trkpt lat="45.16203" lon="5.70166">
        <ele>226.04</ele>
        <time>2018-08-26T14:32:25Z</time>
      </trkpt>
      <trkpt lat="45.16226" lon="5.70168">
        <ele>226.05</ele>
        <time>2018-08-26T14:32:26Z</time>
      </trkpt>
      <trkpt lat="45.16249" lon="5.70168">
        <ele>226.05</ele>
        <time>2018-08-26T14:32:27Z</time>
      </trkpt>
      <trkpt lat="45.16272" lon="5.70169">
        <ele>226.05</ele>
        <time>2018-08-26T14:32:28Z</time>
      </trkpt>
      <trkpt lat="45.16294" lon="5.7017">
        <ele>226.75</ele>
        <time>2018-08-26T14:32:29Z</time>
      </trkpt>
      <trkpt lat="45.16316" lon="5.70171">
        <ele>226.96</ele>
        <time>2018-08-26T14:32:30Z</time>
      </trkpt>
      <trkpt lat="45.16338" lon="5.70172">
        <ele>227.02</ele>
        <time>2018-08-26T14:32:31Z</time>
      </trkpt>
      <trkpt lat="45.1636" lon="5.70173">
        <ele>227.74</ele>
        <time>2018-08-26T14:32:32Z</time>
      </trkpt>
      <trkpt lat="45.16381" lon="5.70173">
        <ele>227.96</ele>
        <time>2018-08-26T14:32:33Z</time>
      </trkpt>
      <trkpt lat="45.16403" lon="5.70174">
        <ele>227.32</ele>
        <time>2018-08-26T14:32:34Z</time>
      </trkpt>
      <trkpt lat="45.16425" lon="5.70175">
        <ele>227.83</ele>
        <time>2018-08-26T14:32:35Z</time>
      </trkpt>
      <trkpt lat="45.16447" lon="5.70176">
        <ele>227.28</ele>
        <time>2018-08-26T14:32:36Z</time>
      </trkpt>
      <trkpt lat="45.16469" lon="5.70178">
        <ele>227.12</ele>
        <time>2018-08-26T14:32:37Z</time>
      </trkpt>
      <trkpt lat="45.16491" lon="5.70179">
        <ele>227.07</ele>
        <time>2018-08-26T14:32:38Z</time>
      </trkpt>
      <trkpt lat="45.16512" lon="5.7018">
        <ele>227.06</ele>
        <time>2018-08-26T14:32:39Z</time>
      </trkpt>
      <trkpt lat="45.16533" lon="5.70181">
        <ele>227.05</ele>
        <time>2018-08-26T14:32:40Z</time>
      </trkpt>
      <trkpt lat="45.16553" lon="5.70182">
        <ele>227.05</ele>
        <time>2018-08-26T14:32:41Z</time>
      </trkpt>
      <trkpt lat="45.16574" lon="5.70182">
        <ele>227.05</ele>
        <time>2018-08-26T14:32:42Z</time>
      </trkpt>
      <trkpt lat="45.16594" lon="5.70183">
        <ele>227.05</ele>
        <time>2018-08-26T14:32:43Z</time>
      </trkpt>
      <trkpt lat="45.16613" lon="5.70184">
        <ele>227.05</ele>
        <time>2018-08-26T14:32:44Z</time>
      </trkpt>
      <trkpt lat="45.16632" lon="5.70184">
        <ele>227.05</ele>
        <time>2018-08-26T14:32:45Z</time>
      </trkpt>
      <trkpt lat="45.16651" lon="5.70185">
        <ele>227.05</ele>
        <time>2018-08-26T14:32:46Z</time>
      </trkpt>
      <trkpt lat="45.1667" lon="5.70185">
        <ele>227.05</ele>
        <time>2018-08-26T14:32:47Z</time>
      </trkpt>
      <trkpt lat="45.16689" lon="5.70185">
        <ele>227.05</ele>
        <time>2018-08-26T14:32:48Z</time>
      </trkpt>
      <trkpt lat="45.16709" lon="5.70185">
        <ele>227.75</ele>
        <time>2018-08-26T14:32:49Z</time>
      </trkpt>
      <trkpt lat="45.16728" lon="5.70184">
        <ele>227.26</ele>
        <time>2018-08-26T14:32:50Z</time>
      </trkpt>
      <trkpt lat="45.16747" lon="5.70184">
        <ele>227.11</ele>
        <time>2018-08-26T14:32:51Z</time>
      </trkpt>
      <trkpt lat="45.16767" lon="5.70185">
        <ele>227.07</ele>
        <time>2018-08-26T14:32:52Z</time>
      </trkpt>
      <trkpt lat="45.16786" lon="5.70185">
        <ele>227.05</ele>
        <time>2018-08-26T14:32:53Z</time>
      </trkpt>
      <trkpt lat="45.16806" lon="5.70186">
        <ele>227.05</ele>
        <time>2018-08-26T14:32:54Z</time>
      </trkpt>
      <trkpt lat="45.16825" lon="5.70187">
        <ele>227.05</ele>
        <time>2018-08-26T14:32:55Z</time>
      </trkpt>
      <trkpt lat="45.16845" lon="5.70188">
        <ele>227.05</ele>
        <time>2018-08-26T14:32:56Z</time>
      </trkpt>
      <trkpt lat="45.16865" lon="5.70189">
        <ele>227.05</ele>
        <time>2018-08-26T14:32:57Z</time>
      </trkpt>
      <trkpt lat="45.16884" lon="5.7019">
        <ele>227.05</ele>
        <time>2018-08-26T14:32:58Z</time>
      </trkpt>
      <trkpt lat="45.16903" lon="5.70191">
        <ele>227.75</ele>
        <time>2018-08-26T14:32:59Z</time>
      </trkpt>
      <trkpt lat="45.16923" lon="5.70191">
        <ele>227.26</ele>
        <time>2018-08-26T14:33:00Z</time>
      </trkpt>
      <trkpt lat="45.16942" lon="5.70192">
        <ele>227.11</ele>
        <time>2018-08-26T14:33:01Z</time>
      </trkpt>
      <trkpt lat="45.1696" lon="5.70193">
        <ele>227.07</ele>
        <time>2018-08-26T14:33:02Z</time>
      </trkpt>
      <trkpt lat="45.16979" lon="5.70194">
        <ele>227.05</ele>
        <time>2018-08-26T14:33:03Z</time>
      </trkpt>
      <trkpt lat="45.16997" lon="5.70195">
        <ele>227.05</ele>
        <time>2018-08-26T14:33:04Z</time>
      </trkpt>
      <trkpt lat="45.17016" lon="5.70196">
        <ele>226.35</ele>
        <time>2018-08-26T14:33:05Z</time>
      </trkpt>
      <trkpt lat="45.17034" lon="5.70197">
        <ele>226.14</ele>
        <time>2018-08-26T14:33:06Z</time>
      </trkpt>
      <trkpt lat="45.17052" lon="5.70198">
        <ele>226.08</ele>
        <time>2018-08-26T14:33:07Z</time>
      </trkpt>
      <trkpt lat="45.1707" lon="5.70199">
        <ele>226.06</ele>
        <time>2018-08-26T14:33:08Z</time>
      </trkpt>
      <trkpt lat="45.17106" lon="5.70201">
        <ele>226.05</ele>
        <time>2018-08-26T14:33:10Z</time>
      </trkpt>
      <trkpt lat="45.17142" lon="5.70203">
        <ele>226.05</ele>
        <time>2018-08-26T14:33:12Z</time>
      </trkpt>
      <trkpt lat="45.17177" lon="5.70204">
        <ele>226.05</ele>
        <time>2018-08-26T14:33:14Z</time>
      </trkpt>
      <trkpt lat="45.17195" lon="5.70205">
        <ele>226.05</ele>
        <time>2018-08-26T14:33:15Z</time>
      </trkpt>
      <trkpt lat="45.17214" lon="5.70206">
        <ele>225.35</ele>
        <time>2018-08-26T14:33:16Z</time>
      </trkpt>
      <trkpt lat="45.17232" lon="5.70206">
        <ele>225.14</ele>
        <time>2018-08-26T14:33:17Z</time>
      </trkpt>
      <trkpt lat="45.17268" lon="5.70207">
        <ele>225.06</ele>
        <time>2018-08-26T14:33:19Z</time>
      </trkpt>
      <trkpt lat="45.17287" lon="5.70208">
        <ele>225.05</ele>
        <time>2018-08-26T14:33:20Z</time>
      </trkpt>
      <trkpt lat="45.17305" lon="5.70209">
        <ele>225.05</ele>
        <time>2018-08-26T14:33:21Z</time>
      </trkpt>
      <trkpt lat="45.17324" lon="5.70209">
        <ele>225.05</ele>
        <time>2018-08-26T14:33:22Z</time>
      </trkpt>
      <trkpt lat="45.17359" lon="5.70212">
        <ele>225.05</ele>
        <time>2018-08-26T14:33:24Z</time>
      </trkpt>
      <trkpt lat="45.17394" lon="5.70213">
        <ele>225.05</ele>
        <time>2018-08-26T14:33:26Z</time>
      </trkpt>
      <trkpt lat="45.17413" lon="5.70215">
        <ele>225.05</ele>
        <time>2018-08-26T14:33:27Z</time>
      </trkpt>
      <trkpt lat="45.17432" lon="5.70216">
        <ele>224.35</ele>
        <time>2018-08-26T14:33:28Z</time>
      </trkpt>
      <trkpt lat="45.17452" lon="5.70217">
        <ele>224.14</ele>
        <time>2018-08-26T14:33:29Z</time>
      </trkpt>
      <trkpt lat="45.17471" lon="5.70219">
        <ele>224.08</ele>
        <time>2018-08-26T14:33:30Z</time>
      </trkpt>
      <trkpt lat="45.17491" lon="5.70221">
        <ele>223.36</ele>
        <time>2018-08-26T14:33:31Z</time>
      </trkpt>
      <trkpt lat="45.17511" lon="5.70223">
        <ele>223.14</ele>
        <time>2018-08-26T14:33:32Z</time>
      </trkpt>
      <trkpt lat="45.1753" lon="5.70224">
        <ele>223.08</ele>
        <time>2018-08-26T14:33:33Z</time>
      </trkpt>
      <trkpt lat="45.17549" lon="5.70225">
        <ele>223.76</ele>
        <time>2018-08-26T14:33:34Z</time>
      </trkpt>
      <trkpt lat="45.17568" lon="5.70226">
        <ele>223.26</ele>
        <time>2018-08-26T14:33:35Z</time>
      </trkpt>
      <trkpt lat="45.17603" lon="5.7023">
        <ele>221.25</ele>
        <time>2018-08-26T14:33:37Z</time>
      </trkpt>
      <trkpt lat="45.17622" lon="5.70231">
        <ele>221.11</ele>
        <time>2018-08-26T14:33:38Z</time>
      </trkpt>
      <trkpt lat="45.17641" lon="5.70233">
        <ele>221.07</ele>
        <time>2018-08-26T14:33:39Z</time>
      </trkpt>
      <trkpt lat="45.1766" lon="5.70235">
        <ele>220.35</ele>
        <time>2018-08-26T14:33:40Z</time>
      </trkpt>
      <trkpt lat="45.1768" lon="5.70236">
        <ele>220.14</ele>
        <time>2018-08-26T14:33:41Z</time>
      </trkpt>
      <trkpt lat="45.17699" lon="5.70239">
        <ele>220.08</ele>
        <time>2018-08-26T14:33:42Z</time>
      </trkpt>
      <trkpt lat="45.17718" lon="5.70242">
        <ele>220.06</ele>
        <time>2018-08-26T14:33:43Z</time>
      </trkpt>
      <trkpt lat="45.17737" lon="5.70247">
        <ele>220.05</ele>
        <time>2018-08-26T14:33:44Z</time>
      </trkpt>
      <trkpt lat="45.17757" lon="5.70253">
        <ele>220.05</ele>
        <time>2018-08-26T14:33:45Z</time>
      </trkpt>
      <trkpt lat="45.17776" lon="5.70262">
        <ele>220.75</ele>
        <time>2018-08-26T14:33:46Z</time>
      </trkpt>
      <trkpt lat="45.17795" lon="5.7027">
        <ele>220.96</ele>
        <time>2018-08-26T14:33:47Z</time>
      </trkpt>
      <trkpt lat="45.17813" lon="5.70278">
        <ele>221.02</ele>
        <time>2018-08-26T14:33:48Z</time>
      </trkpt>
      <trkpt lat="45.17832" lon="5.70284">
        <ele>221.04</ele>
        <time>2018-08-26T14:33:49Z</time>
      </trkpt>
      <trkpt lat="45.17865" lon="5.70295">
        <ele>221.26</ele>
        <time>2018-08-26T14:33:51Z</time>
      </trkpt>
      <trkpt lat="45.17898" lon="5.70302">
        <ele>221.07</ele>
        <time>2018-08-26T14:33:53Z</time>
      </trkpt>
      <trkpt lat="45.17927" lon="5.70307">
        <ele>221.05</ele>
        <time>2018-08-26T14:33:55Z</time>
      </trkpt>
      <trkpt lat="45.17949" lon="5.70312">
        <ele>221.05</ele>
        <time>2018-08-26T14:33:57Z</time>
      </trkpt>
      <trkpt lat="45.17972" lon="5.70324">
        <ele>221.05</ele>
        <time>2018-08-26T14:34:00Z</time>
      </trkpt>
      <trkpt lat="45.17982" lon="5.70349">
        <ele>221.96</ele>
        <time>2018-08-26T14:34:05Z</time>
      </trkpt>
      <trkpt lat="45.17992" lon="5.70378">
        <ele>223.43</ele>
        <time>2018-08-26T14:34:14Z</time>
      </trkpt>
      <trkpt lat="45.17995" lon="5.70404">
        <ele>223.08</ele>
        <time>2018-08-26T14:34:16Z</time>
      </trkpt>
      <trkpt lat="45.17997" lon="5.70437">
        <ele>222.14</ele>
        <time>2018-08-26T14:34:19Z</time>
      </trkpt>
      <trkpt lat="45.17998" lon="5.70464">
        <ele>221.14</ele>
        <time>2018-08-26T14:34:23Z</time>
      </trkpt>
      <trkpt lat="45.18" lon="5.70494">
        <ele>221.08</ele>
        <time>2018-08-26T14:34:31Z</time>
      </trkpt>
      <trkpt lat="45.17999" lon="5.70522">
        <ele>219.44</ele>
        <time>2018-08-26T14:34:35Z</time>
      </trkpt>
      <trkpt lat="45.18004" lon="5.70547">
        <ele>218.35</ele>
        <time>2018-08-26T14:34:43Z</time>
      </trkpt>
      <trkpt lat="45.18023" lon="5.70548">
        <ele>216.13</ele>
        <time>2018-08-26T14:35:26Z</time>
      </trkpt>
      <trkpt lat="45.18053" lon="5.70547">
        <ele>216.27</ele>
        <time>2018-08-26T14:35:28Z</time>
      </trkpt>
      <trkpt lat="45.18079" lon="5.70548">
        <ele>215.37</ele>
        <time>2018-08-26T14:35:30Z</time>
      </trkpt>
      <trkpt lat="45.18105" lon="5.70548">
        <ele>216.9</ele>
        <time>2018-08-26T14:35:32Z</time>
      </trkpt>
      <trkpt lat="45.1813" lon="5.70549">
        <ele>217.04</ele>
        <time>2018-08-26T14:35:34Z</time>
      </trkpt>
      <trkpt lat="45.18153" lon="5.7055">
        <ele>216.14</ele>
        <time>2018-08-26T14:35:36Z</time>
      </trkpt>
      <trkpt lat="45.18171" lon="5.70552">
        <ele>217.67</ele>
        <time>2018-08-26T14:35:38Z</time>
      </trkpt>
      <trkpt lat="45.18183" lon="5.70574">
        <ele>217.07</ele>
        <time>2018-08-26T14:35:41Z</time>
      </trkpt>
      <trkpt lat="45.18194" lon="5.70602">
        <ele>217.75</ele>
        <time>2018-08-26T14:35:45Z</time>
      </trkpt>
      <trkpt lat="45.18212" lon="5.70611">
        <ele>218.02</ele>
        <time>2018-08-26T14:35:47Z</time>
      </trkpt>
      <trkpt lat="45.18233" lon="5.7062">
        <ele>216.44</ele>
        <time>2018-08-26T14:35:49Z</time>
      </trkpt>
      <trkpt lat="45.18251" lon="5.70632">
        <ele>216.78</ele>
        <time>2018-08-26T14:35:51Z</time>
      </trkpt>
      <trkpt lat="45.18268" lon="5.70651">
        <ele>215.21</ele>
        <time>2018-08-26T14:35:53Z</time>
      </trkpt>
      <trkpt lat="45.18282" lon="5.70671">
        <ele>214.15</ele>
        <time>2018-08-26T14:35:55Z</time>
      </trkpt>
      <trkpt lat="45.18295" lon="5.70691">
        <ele>213.36</ele>
        <time>2018-08-26T14:35:57Z</time>
      </trkpt>
      <trkpt lat="45.18308" lon="5.70713">
        <ele>213.08</ele>
        <time>2018-08-26T14:35:59Z</time>
      </trkpt>
      <trkpt lat="45.18323" lon="5.70738">
        <ele>213.05</ele>
        <time>2018-08-26T14:36:01Z</time>
      </trkpt>
      <trkpt lat="45.1834" lon="5.70762">
        <ele>213.05</ele>
        <time>2018-08-26T14:36:03Z</time>
      </trkpt>
      <trkpt lat="45.18357" lon="5.70788">
        <ele>213.05</ele>
        <time>2018-08-26T14:36:05Z</time>
      </trkpt>
      <trkpt lat="45.18374" lon="5.70815">
        <ele>213.75</ele>
        <time>2018-08-26T14:36:07Z</time>
      </trkpt>
      <trkpt lat="45.18389" lon="5.70843">
        <ele>214.93</ele>
        <time>2018-08-26T14:36:09Z</time>
      </trkpt>
      <trkpt lat="45.18405" lon="5.70871">
        <ele>213.43</ele>
        <time>2018-08-26T14:36:11Z</time>
      </trkpt>
      <trkpt lat="45.18422" lon="5.70897">
        <ele>213.99</ele>
        <time>2018-08-26T14:36:13Z</time>
      </trkpt>
      <trkpt lat="45.18437" lon="5.70925">
        <ele>213.13</ele>
        <time>2018-08-26T14:36:15Z</time>
      </trkpt>
      <trkpt lat="45.18455" lon="5.70951">
        <ele>212.85</ele>
        <time>2018-08-26T14:36:17Z</time>
      </trkpt>
      <trkpt lat="45.18471" lon="5.7098">
        <ele>212.12</ele>
        <time>2018-08-26T14:36:19Z</time>
      </trkpt>
      <trkpt lat="45.18486" lon="5.71009">
        <ele>212.97</ele>
        <time>2018-08-26T14:36:21Z</time>
      </trkpt>
      <trkpt lat="45.185" lon="5.71039">
        <ele>213.74</ele>
        <time>2018-08-26T14:36:23Z</time>
      </trkpt>
      <trkpt lat="45.18513" lon="5.71072">
        <ele>214.93</ele>
        <time>2018-08-26T14:36:25Z</time>
      </trkpt>
      <trkpt lat="45.18527" lon="5.71103">
        <ele>215.04</ele>
        <time>2018-08-26T14:36:27Z</time>
      </trkpt>
      <trkpt lat="45.1854" lon="5.71136">
        <ele>215.05</ele>
        <time>2018-08-26T14:36:29Z</time>
      </trkpt>
      <trkpt lat="45.18555" lon="5.71169">
        <ele>214.35</ele>
        <time>2018-08-26T14:36:31Z</time>
      </trkpt>
      <trkpt lat="45.18563" lon="5.71202">
        <ele>214.99</ele>
        <time>2018-08-26T14:36:33Z</time>
      </trkpt>
      <trkpt lat="45.18573" lon="5.71235">
        <ele>216.44</ele>
        <time>2018-08-26T14:36:35Z</time>
      </trkpt>
      <trkpt lat="45.18579" lon="5.71272">
        <ele>217.69</ele>
        <time>2018-08-26T14:36:37Z</time>
      </trkpt>
      <trkpt lat="45.18584" lon="5.71309">
        <ele>218.02</ele>
        <time>2018-08-26T14:36:39Z</time>
      </trkpt>
      <trkpt lat="45.18586" lon="5.71348">
        <ele>216.65</ele>
        <time>2018-08-26T14:36:41Z</time>
      </trkpt>
      <trkpt lat="45.18588" lon="5.71385">
        <ele>215.4</ele>
        <time>2018-08-26T14:36:43Z</time>
      </trkpt>
      <trkpt lat="45.18588" lon="5.71422">
        <ele>215.29</ele>
        <time>2018-08-26T14:36:45Z</time>
      </trkpt>
      <trkpt lat="45.18588" lon="5.71459">
        <ele>215.77</ele>
        <time>2018-08-26T14:36:47Z</time>
      </trkpt>
      <trkpt lat="45.1859" lon="5.71495">
        <ele>215.11</ele>
        <time>2018-08-26T14:36:49Z</time>
      </trkpt>
      <trkpt lat="45.18591" lon="5.71533">
        <ele>214.84</ele>
        <time>2018-08-26T14:36:51Z</time>
      </trkpt>
      <trkpt lat="45.18592" lon="5.71573">
        <ele>214.82</ele>
        <time>2018-08-26T14:36:53Z</time>
      </trkpt>
      <trkpt lat="45.18592" lon="5.7161">
        <ele>215.03</ele>
        <time>2018-08-26T14:36:55Z</time>
      </trkpt>
      <trkpt lat="45.18593" lon="5.71645">
        <ele>215.05</ele>
        <time>2018-08-26T14:36:57Z</time>
      </trkpt>
      <trkpt lat="45.18592" lon="5.71676">
        <ele>215.05</ele>
        <time>2018-08-26T14:36:59Z</time>
      </trkpt>
      <trkpt lat="45.18609" lon="5.71691">
        <ele>214.14</ele>
        <time>2018-08-26T14:37:03Z</time>
      </trkpt>
      <trkpt lat="45.18629" lon="5.71679">
        <ele>213.14</ele>
        <time>2018-08-26T14:37:06Z</time>
      </trkpt>
      <trkpt lat="45.18651" lon="5.71682">
        <ele>213.96</ele>
        <time>2018-08-26T14:37:09Z</time>
      </trkpt>
      <trkpt lat="45.18667" lon="5.71696">
        <ele>214.04</ele>
        <time>2018-08-26T14:37:11Z</time>
      </trkpt>
      <trkpt lat="45.18686" lon="5.71707">
        <ele>214.05</ele>
        <time>2018-08-26T14:37:13Z</time>
      </trkpt>
      <trkpt lat="45.1871" lon="5.71721">
        <ele>214.96</ele>
        <time>2018-08-26T14:37:16Z</time>
      </trkpt>
      <trkpt lat="45.1873" lon="5.71735">
        <ele>214.83</ele>
        <time>2018-08-26T14:37:18Z</time>
      </trkpt>
      <trkpt lat="45.18752" lon="5.71748">
        <ele>213.42</ele>
        <time>2018-08-26T14:37:20Z</time>
      </trkpt>
      <trkpt lat="45.18773" lon="5.7176">
        <ele>213.99</ele>
        <time>2018-08-26T14:37:22Z</time>
      </trkpt>
      <trkpt lat="45.18793" lon="5.71772">
        <ele>212.43</ele>
        <time>2018-08-26T14:37:24Z</time>
      </trkpt>
      <trkpt lat="45.18809" lon="5.71784">
        <ele>211.91</ele>
        <time>2018-08-26T14:37:28Z</time>
      </trkpt>
      <trkpt lat="45.18832" lon="5.71797">
        <ele>212.04</ele>
        <time>2018-08-26T14:37:33Z</time>
      </trkpt>
      <trkpt lat="45.18855" lon="5.71812">
        <ele>211.35</ele>
        <time>2018-08-26T14:37:35Z</time>
      </trkpt>
      <trkpt lat="45.18878" lon="5.71827">
        <ele>211.08</ele>
        <time>2018-08-26T14:37:37Z</time>
      </trkpt>
      <trkpt lat="45.18901" lon="5.71841">
        <ele>210.35</ele>
        <time>2018-08-26T14:37:39Z</time>
      </trkpt>
      <trkpt lat="45.18922" lon="5.71855">
        <ele>210.78</ele>
        <time>2018-08-26T14:37:41Z</time>
      </trkpt>
      <trkpt lat="45.1894" lon="5.71871">
        <ele>210.81</ele>
        <time>2018-08-26T14:37:43Z</time>
      </trkpt>
      <trkpt lat="45.18959" lon="5.71884">
        <ele>211.95</ele>
        <time>2018-08-26T14:37:46Z</time>
      </trkpt>
      <trkpt lat="45.18982" lon="5.71895">
        <ele>217.62</ele>
        <time>2018-08-26T14:37:54Z</time>
      </trkpt>
      <trkpt lat="45.19004" lon="5.71902">
        <ele>218.01</ele>
        <time>2018-08-26T14:37:56Z</time>
      </trkpt>
      <trkpt lat="45.19031" lon="5.71909">
        <ele>218.75</ele>
        <time>2018-08-26T14:37:58Z</time>
      </trkpt>
      <trkpt lat="45.19054" lon="5.71913">
        <ele>214.47</ele>
        <time>2018-08-26T14:38:00Z</time>
      </trkpt>
      <trkpt lat="45.19073" lon="5.71919">
        <ele>215.21</ele>
        <time>2018-08-26T14:38:02Z</time>
      </trkpt>
      <trkpt lat="45.19091" lon="5.71934">
        <ele>213.38</ele>
        <time>2018-08-26T14:38:05Z</time>
      </trkpt>
      <trkpt lat="45.19094" lon="5.71961">
        <ele>213.32</ele>
        <time>2018-08-26T14:38:09Z</time>
      </trkpt>
      <trkpt lat="45.19099" lon="5.71994">
        <ele>214.33</ele>
        <time>2018-08-26T14:38:17Z</time>
      </trkpt>
      <trkpt lat="45.19112" lon="5.72018">
        <ele>213.08</ele>
        <time>2018-08-26T14:38:21Z</time>
      </trkpt>
      <trkpt lat="45.19131" lon="5.72022">
        <ele>213.05</ele>
        <time>2018-08-26T14:38:25Z</time>
      </trkpt>
      <trkpt lat="45.19151" lon="5.7203">
        <ele>214.02</ele>
        <time>2018-08-26T14:38:28Z</time>
      </trkpt>
      <trkpt lat="45.19172" lon="5.72039">
        <ele>214.05</ele>
        <time>2018-08-26T14:38:31Z</time>
      </trkpt>
      <trkpt lat="45.19191" lon="5.72048">
        <ele>213.14</ele>
        <time>2018-08-26T14:38:35Z</time>
      </trkpt>
      <trkpt lat="45.19209" lon="5.72053">
        <ele>209.32</ele>
        <time>2018-08-26T14:39:09Z</time>
      </trkpt>
      <trkpt lat="45.19229" lon="5.72052">
        <ele>210.68</ele>
        <time>2018-08-26T14:39:11Z</time>
      </trkpt>
      <trkpt lat="45.19251" lon="5.72032">
        <ele>210.11</ele>
        <time>2018-08-26T14:39:13Z</time>
      </trkpt>
      <trkpt lat="45.19269" lon="5.72019">
        <ele>210.96</ele>
        <time>2018-08-26T14:39:15Z</time>
      </trkpt>
      <trkpt lat="45.19292" lon="5.72003">
        <ele>211.05</ele>
        <time>2018-08-26T14:39:18Z</time>
      </trkpt>
      <trkpt lat="45.19308" lon="5.71991">
        <ele>211.26</ele>
        <time>2018-08-26T14:39:21Z</time>
      </trkpt>
      <trkpt lat="45.19326" lon="5.71979">
        <ele>212.02</ele>
        <time>2018-08-26T14:39:36Z</time>
      </trkpt>
      <trkpt lat="45.19345" lon="5.71971">
        <ele>211.35</ele>
        <time>2018-08-26T14:39:39Z</time>
      </trkpt>
      <trkpt lat="45.19367" lon="5.71951">
        <ele>211.06</ele>
        <time>2018-08-26T14:39:42Z</time>
      </trkpt>
      <trkpt lat="45.19382" lon="5.71928">
        <ele>210.29</ele>
        <time>2018-08-26T14:39:45Z</time>
      </trkpt>
      <trkpt lat="45.19401" lon="5.71914">
        <ele>209.36</ele>
        <time>2018-08-26T14:39:48Z</time>
      </trkpt>
      <trkpt lat="45.19427" lon="5.71912">
        <ele>209.97</ele>
        <time>2018-08-26T14:39:51Z</time>
      </trkpt>
      <trkpt lat="45.19448" lon="5.71912">
        <ele>210.04</ele>
        <time>2018-08-26T14:39:53Z</time>
      </trkpt>
      <trkpt lat="45.19468" lon="5.71913">
        <ele>210.05</ele>
        <time>2018-08-26T14:39:55Z</time>
      </trkpt>
      <trkpt lat="45.19488" lon="5.71912">
        <ele>210.05</ele>
        <time>2018-08-26T14:39:57Z</time>
      </trkpt>
      <trkpt lat="45.19508" lon="5.71911">
        <ele>210.96</ele>
        <time>2018-08-26T14:39:59Z</time>
      </trkpt>
      <trkpt lat="45.1953" lon="5.71909">
        <ele>211.04</ele>
        <time>2018-08-26T14:40:01Z</time>
      </trkpt>
      <trkpt lat="45.19555" lon="5.71907">
        <ele>211.05</ele>
        <time>2018-08-26T14:40:03Z</time>
      </trkpt>
      <trkpt lat="45.19579" lon="5.71903">
        <ele>210.35</ele>
        <time>2018-08-26T14:40:05Z</time>
      </trkpt>
      <trkpt lat="45.19603" lon="5.71895">
        <ele>210.99</ele>
        <time>2018-08-26T14:40:07Z</time>
      </trkpt>
      <trkpt lat="45.19626" lon="5.71887">
        <ele>211.04</ele>
        <time>2018-08-26T14:40:09Z</time>
      </trkpt>
      <trkpt lat="45.19651" lon="5.7188">
        <ele>210.14</ele>
        <time>2018-08-26T14:40:11Z</time>
      </trkpt>
      <trkpt lat="45.19675" lon="5.71871">
        <ele>210.06</ele>
        <time>2018-08-26T14:40:13Z</time>
      </trkpt>
      <trkpt lat="45.19701" lon="5.71863">
        <ele>209.84</ele>
        <time>2018-08-26T14:40:15Z</time>
      </trkpt>
      <trkpt lat="45.19726" lon="5.71856">
        <ele>210.03</ele>
        <time>2018-08-26T14:40:17Z</time>
      </trkpt>
      <trkpt lat="45.19749" lon="5.71849">
        <ele>209.84</ele>
        <time>2018-08-26T14:40:19Z</time>
      </trkpt>
      <trkpt lat="45.19771" lon="5.71843">
        <ele>210.03</ele>
        <time>2018-08-26T14:40:21Z</time>
      </trkpt>
      <trkpt lat="45.19791" lon="5.71838">
        <ele>209.35</ele>
        <time>2018-08-26T14:40:23Z</time>
      </trkpt>
      <trkpt lat="45.19809" lon="5.71833">
        <ele>209.08</ele>
        <time>2018-08-26T14:40:25Z</time>
      </trkpt>
      <trkpt lat="45.19828" lon="5.71828">
        <ele>209.05</ele>
        <time>2018-08-26T14:40:28Z</time>
      </trkpt>
      <trkpt lat="45.19851" lon="5.7182">
        <ele>209.03</ele>
        <time>2018-08-26T14:40:32Z</time>
      </trkpt>
      <trkpt lat="45.19879" lon="5.71811">
        <ele>208.35</ele>
        <time>2018-08-26T14:40:35Z</time>
      </trkpt>
      <trkpt lat="45.19903" lon="5.71804">
        <ele>208.08</ele>
        <time>2018-08-26T14:40:37Z</time>
      </trkpt>
      <trkpt lat="45.1993" lon="5.71797">
        <ele>208.05</ele>
        <time>2018-08-26T14:40:39Z</time>
      </trkpt>
      <trkpt lat="45.19956" lon="5.71789">
        <ele>208.05</ele>
        <time>2018-08-26T14:40:41Z</time>
      </trkpt>
      <trkpt lat="45.19982" lon="5.71782">
        <ele>208.75</ele>
        <time>2018-08-26T14:40:43Z</time>
      </trkpt>
      <trkpt lat="45.20007" lon="5.71777">
        <ele>210.63</ele>
        <time>2018-08-26T14:40:45Z</time>
      </trkpt>
      <trkpt lat="45.20032" lon="5.71772">
        <ele>212.62</ele>
        <time>2018-08-26T14:40:47Z</time>
      </trkpt>
      <trkpt lat="45.20056" lon="5.71766">
        <ele>214.62</ele>
        <time>2018-08-26T14:40:49Z</time>
      </trkpt>
      <trkpt lat="45.20078" lon="5.71752">
        <ele>215.92</ele>
        <time>2018-08-26T14:40:51Z</time>
      </trkpt>
      <trkpt lat="45.20094" lon="5.71735">
        <ele>217.65</ele>
        <time>2018-08-26T14:40:53Z</time>
      </trkpt>
      <trkpt lat="45.20086" lon="5.71759">
        <ele>220.95</ele>
        <time>2018-08-26T14:41:02Z</time>
      </trkpt>
      <trkpt lat="45.2007" lon="5.71781">
        <ele>222.93</ele>
        <time>2018-08-26T14:41:05Z</time>
      </trkpt>
      <trkpt lat="45.20084" lon="5.718">
        <ele>224</ele>
        <time>2018-08-26T14:41:09Z</time>
      </trkpt>
      <trkpt lat="45.20102" lon="5.71791">
        <ele>225.17</ele>
        <time>2018-08-26T14:41:12Z</time>
      </trkpt>
      <trkpt lat="45.20101" lon="5.71821">
        <ele>231.45</ele>
        <time>2018-08-26T14:48:56Z</time>
      </trkpt>
      <trkpt lat="45.20106" lon="5.7176">
        <ele>229.05</ele>
        <time>2018-08-26T15:03:56Z</time>
      </trkpt>
      <trkpt lat="45.20106" lon="5.71786">
        <ele>226.05</ele>
        <time>2018-08-26T15:07:21Z</time>
      </trkpt>
    </trkseg>
  </trk>
</gpx>